<?xml version="1.0" encoding="UTF-8" standalone="no" ?>
<gpx xmlns="http://www.topografix.com/GPX/1/1" xmlns:xsi="http://www.w3.org/2001/XMLSchema-instance" xsi:schemaLocation="http://www.topografix.com/GPX/1/1 http://www.topografix.com/GPX/1/1/gpx.xsd" version="1.1" creator="VisuGPX - https://www.visugpx.com">
  <metadata>
    <name>Pic de MAssayre</name>
    <desc><![CDATA[Pic de Massayre - Cabane des Ludines - Barrage de Riete
]]></desc>
  </metadata>
  <trk>
    <name><![CDATA[Morning Activity]]></name>
    <trkseg>
      <trkpt lat="42.71498" lon="1.6653">
        <ele>1048.8</ele>
        <time>2020-02-08T09:39:30Z</time>
      </trkpt>
      <trkpt lat="42.71497" lon="1.66529">
        <ele>1048.8</ele>
        <time>2020-02-08T09:39:31Z</time>
      </trkpt>
      <trkpt lat="42.71496" lon="1.66529">
        <ele>1048.9</ele>
        <time>2020-02-08T09:39:32Z</time>
      </trkpt>
      <trkpt lat="42.71496" lon="1.66529">
        <ele>1048.9</ele>
        <time>2020-02-08T09:39:33Z</time>
      </trkpt>
      <trkpt lat="42.71495" lon="1.66528">
        <ele>1048.9</ele>
        <time>2020-02-08T09:39:34Z</time>
      </trkpt>
      <trkpt lat="42.71494" lon="1.66528">
        <ele>1048.9</ele>
        <time>2020-02-08T09:39:35Z</time>
      </trkpt>
      <trkpt lat="42.71494" lon="1.66528">
        <ele>1049</ele>
        <time>2020-02-08T09:39:36Z</time>
      </trkpt>
      <trkpt lat="42.71493" lon="1.66527">
        <ele>1049</ele>
        <time>2020-02-08T09:39:37Z</time>
      </trkpt>
      <trkpt lat="42.71493" lon="1.66527">
        <ele>1049</ele>
        <time>2020-02-08T09:39:38Z</time>
      </trkpt>
      <trkpt lat="42.71492" lon="1.66527">
        <ele>1049</ele>
        <time>2020-02-08T09:39:39Z</time>
      </trkpt>
      <trkpt lat="42.71491" lon="1.66527">
        <ele>1049</ele>
        <time>2020-02-08T09:39:40Z</time>
      </trkpt>
      <trkpt lat="42.71491" lon="1.66526">
        <ele>1049.1</ele>
        <time>2020-02-08T09:39:41Z</time>
      </trkpt>
      <trkpt lat="42.7149" lon="1.66526">
        <ele>1049.1</ele>
        <time>2020-02-08T09:39:42Z</time>
      </trkpt>
      <trkpt lat="42.71489" lon="1.66526">
        <ele>1049.1</ele>
        <time>2020-02-08T09:39:43Z</time>
      </trkpt>
      <trkpt lat="42.71489" lon="1.66525">
        <ele>1049.1</ele>
        <time>2020-02-08T09:39:44Z</time>
      </trkpt>
      <trkpt lat="42.71488" lon="1.66525">
        <ele>1049.2</ele>
        <time>2020-02-08T09:39:45Z</time>
      </trkpt>
      <trkpt lat="42.71488" lon="1.66525">
        <ele>1049.2</ele>
        <time>2020-02-08T09:39:46Z</time>
      </trkpt>
      <trkpt lat="42.71487" lon="1.66525">
        <ele>1049.2</ele>
        <time>2020-02-08T09:39:47Z</time>
      </trkpt>
      <trkpt lat="42.71486" lon="1.66524">
        <ele>1049.2</ele>
        <time>2020-02-08T09:39:48Z</time>
      </trkpt>
      <trkpt lat="42.71486" lon="1.66524">
        <ele>1049.3</ele>
        <time>2020-02-08T09:39:49Z</time>
      </trkpt>
      <trkpt lat="42.71485" lon="1.66524">
        <ele>1049.3</ele>
        <time>2020-02-08T09:39:50Z</time>
      </trkpt>
      <trkpt lat="42.71484" lon="1.66524">
        <ele>1049.3</ele>
        <time>2020-02-08T09:39:51Z</time>
      </trkpt>
      <trkpt lat="42.71483" lon="1.66525">
        <ele>1049.4</ele>
        <time>2020-02-08T09:39:52Z</time>
      </trkpt>
      <trkpt lat="42.71482" lon="1.66525">
        <ele>1049.4</ele>
        <time>2020-02-08T09:39:53Z</time>
      </trkpt>
      <trkpt lat="42.71481" lon="1.66525">
        <ele>1049.5</ele>
        <time>2020-02-08T09:39:54Z</time>
      </trkpt>
      <trkpt lat="42.7148" lon="1.66525">
        <ele>1049.5</ele>
        <time>2020-02-08T09:39:55Z</time>
      </trkpt>
      <trkpt lat="42.71479" lon="1.66526">
        <ele>1049.5</ele>
        <time>2020-02-08T09:39:56Z</time>
      </trkpt>
      <trkpt lat="42.71478" lon="1.66526">
        <ele>1049.6</ele>
        <time>2020-02-08T09:39:57Z</time>
      </trkpt>
      <trkpt lat="42.71477" lon="1.66526">
        <ele>1049.6</ele>
        <time>2020-02-08T09:39:58Z</time>
      </trkpt>
      <trkpt lat="42.71476" lon="1.66526">
        <ele>1049.6</ele>
        <time>2020-02-08T09:39:59Z</time>
      </trkpt>
      <trkpt lat="42.71466" lon="1.66524">
        <ele>1051.9</ele>
        <time>2020-02-08T09:40:00Z</time>
      </trkpt>
      <trkpt lat="42.71465" lon="1.66524">
        <ele>1051.9</ele>
        <time>2020-02-08T09:40:01Z</time>
      </trkpt>
      <trkpt lat="42.71464" lon="1.66524">
        <ele>1052</ele>
        <time>2020-02-08T09:40:02Z</time>
      </trkpt>
      <trkpt lat="42.71464" lon="1.66524">
        <ele>1052.1</ele>
        <time>2020-02-08T09:40:03Z</time>
      </trkpt>
      <trkpt lat="42.71463" lon="1.66524">
        <ele>1052.2</ele>
        <time>2020-02-08T09:40:04Z</time>
      </trkpt>
      <trkpt lat="42.71462" lon="1.66524">
        <ele>1052.4</ele>
        <time>2020-02-08T09:40:05Z</time>
      </trkpt>
      <trkpt lat="42.71461" lon="1.66524">
        <ele>1052.5</ele>
        <time>2020-02-08T09:40:06Z</time>
      </trkpt>
      <trkpt lat="42.7146" lon="1.66524">
        <ele>1052.6</ele>
        <time>2020-02-08T09:40:07Z</time>
      </trkpt>
      <trkpt lat="42.71459" lon="1.66523">
        <ele>1052.7</ele>
        <time>2020-02-08T09:40:08Z</time>
      </trkpt>
      <trkpt lat="42.71458" lon="1.66523">
        <ele>1052.9</ele>
        <time>2020-02-08T09:40:09Z</time>
      </trkpt>
      <trkpt lat="42.71457" lon="1.66523">
        <ele>1053</ele>
        <time>2020-02-08T09:40:10Z</time>
      </trkpt>
      <trkpt lat="42.71456" lon="1.66523">
        <ele>1053.1</ele>
        <time>2020-02-08T09:40:11Z</time>
      </trkpt>
      <trkpt lat="42.71455" lon="1.66522">
        <ele>1053.3</ele>
        <time>2020-02-08T09:40:12Z</time>
      </trkpt>
      <trkpt lat="42.71454" lon="1.66522">
        <ele>1053.5</ele>
        <time>2020-02-08T09:40:13Z</time>
      </trkpt>
      <trkpt lat="42.71453" lon="1.66521">
        <ele>1053.6</ele>
        <time>2020-02-08T09:40:14Z</time>
      </trkpt>
      <trkpt lat="42.71452" lon="1.66521">
        <ele>1053.8</ele>
        <time>2020-02-08T09:40:15Z</time>
      </trkpt>
      <trkpt lat="42.71451" lon="1.66521">
        <ele>1054</ele>
        <time>2020-02-08T09:40:16Z</time>
      </trkpt>
      <trkpt lat="42.7145" lon="1.6652">
        <ele>1054.1</ele>
        <time>2020-02-08T09:40:17Z</time>
      </trkpt>
      <trkpt lat="42.71449" lon="1.6652">
        <ele>1054.3</ele>
        <time>2020-02-08T09:40:18Z</time>
      </trkpt>
      <trkpt lat="42.71448" lon="1.66519">
        <ele>1054.4</ele>
        <time>2020-02-08T09:40:19Z</time>
      </trkpt>
      <trkpt lat="42.71447" lon="1.66519">
        <ele>1054.4</ele>
        <time>2020-02-08T09:40:20Z</time>
      </trkpt>
      <trkpt lat="42.71446" lon="1.66519">
        <ele>1054.5</ele>
        <time>2020-02-08T09:40:21Z</time>
      </trkpt>
      <trkpt lat="42.71446" lon="1.66519">
        <ele>1054.5</ele>
        <time>2020-02-08T09:40:22Z</time>
      </trkpt>
      <trkpt lat="42.71445" lon="1.66518">
        <ele>1054.5</ele>
        <time>2020-02-08T09:40:23Z</time>
      </trkpt>
      <trkpt lat="42.71444" lon="1.66518">
        <ele>1054.6</ele>
        <time>2020-02-08T09:40:24Z</time>
      </trkpt>
      <trkpt lat="42.71443" lon="1.66518">
        <ele>1054.6</ele>
        <time>2020-02-08T09:40:25Z</time>
      </trkpt>
      <trkpt lat="42.71442" lon="1.66517">
        <ele>1054.6</ele>
        <time>2020-02-08T09:40:26Z</time>
      </trkpt>
      <trkpt lat="42.71441" lon="1.66517">
        <ele>1054.7</ele>
        <time>2020-02-08T09:40:27Z</time>
      </trkpt>
      <trkpt lat="42.7144" lon="1.66517">
        <ele>1054.8</ele>
        <time>2020-02-08T09:40:28Z</time>
      </trkpt>
      <trkpt lat="42.71439" lon="1.66517">
        <ele>1054.9</ele>
        <time>2020-02-08T09:40:29Z</time>
      </trkpt>
      <trkpt lat="42.71438" lon="1.66516">
        <ele>1055.1</ele>
        <time>2020-02-08T09:40:30Z</time>
      </trkpt>
      <trkpt lat="42.71437" lon="1.66516">
        <ele>1055.2</ele>
        <time>2020-02-08T09:40:31Z</time>
      </trkpt>
      <trkpt lat="42.71437" lon="1.66515">
        <ele>1055.3</ele>
        <time>2020-02-08T09:40:32Z</time>
      </trkpt>
      <trkpt lat="42.71436" lon="1.66514">
        <ele>1055.4</ele>
        <time>2020-02-08T09:40:33Z</time>
      </trkpt>
      <trkpt lat="42.71435" lon="1.66514">
        <ele>1055.5</ele>
        <time>2020-02-08T09:40:34Z</time>
      </trkpt>
      <trkpt lat="42.71434" lon="1.66513">
        <ele>1055.7</ele>
        <time>2020-02-08T09:40:35Z</time>
      </trkpt>
      <trkpt lat="42.71433" lon="1.66513">
        <ele>1055.8</ele>
        <time>2020-02-08T09:40:36Z</time>
      </trkpt>
      <trkpt lat="42.71433" lon="1.66512">
        <ele>1055.9</ele>
        <time>2020-02-08T09:40:37Z</time>
      </trkpt>
      <trkpt lat="42.71432" lon="1.66512">
        <ele>1056.1</ele>
        <time>2020-02-08T09:40:38Z</time>
      </trkpt>
      <trkpt lat="42.71431" lon="1.66511">
        <ele>1056.2</ele>
        <time>2020-02-08T09:40:39Z</time>
      </trkpt>
      <trkpt lat="42.7143" lon="1.6651">
        <ele>1056.4</ele>
        <time>2020-02-08T09:40:40Z</time>
      </trkpt>
      <trkpt lat="42.71429" lon="1.6651">
        <ele>1056.5</ele>
        <time>2020-02-08T09:40:41Z</time>
      </trkpt>
      <trkpt lat="42.71429" lon="1.66509">
        <ele>1056.7</ele>
        <time>2020-02-08T09:40:42Z</time>
      </trkpt>
      <trkpt lat="42.71428" lon="1.66508">
        <ele>1056.8</ele>
        <time>2020-02-08T09:40:43Z</time>
      </trkpt>
      <trkpt lat="42.71427" lon="1.66508">
        <ele>1057</ele>
        <time>2020-02-08T09:40:44Z</time>
      </trkpt>
      <trkpt lat="42.71426" lon="1.66507">
        <ele>1057.1</ele>
        <time>2020-02-08T09:40:45Z</time>
      </trkpt>
      <trkpt lat="42.71426" lon="1.66506">
        <ele>1057.3</ele>
        <time>2020-02-08T09:40:46Z</time>
      </trkpt>
      <trkpt lat="42.71425" lon="1.66506">
        <ele>1057.5</ele>
        <time>2020-02-08T09:40:47Z</time>
      </trkpt>
      <trkpt lat="42.71424" lon="1.66505">
        <ele>1057.6</ele>
        <time>2020-02-08T09:40:48Z</time>
      </trkpt>
      <trkpt lat="42.71423" lon="1.66504">
        <ele>1057.8</ele>
        <time>2020-02-08T09:40:49Z</time>
      </trkpt>
      <trkpt lat="42.71419" lon="1.66494">
        <ele>1059.5</ele>
        <time>2020-02-08T09:40:50Z</time>
      </trkpt>
      <trkpt lat="42.71419" lon="1.66494">
        <ele>1059.5</ele>
        <time>2020-02-08T09:40:51Z</time>
      </trkpt>
      <trkpt lat="42.71419" lon="1.66494">
        <ele>1059.5</ele>
        <time>2020-02-08T09:40:52Z</time>
      </trkpt>
      <trkpt lat="42.71419" lon="1.66494">
        <ele>1059.5</ele>
        <time>2020-02-08T09:40:53Z</time>
      </trkpt>
      <trkpt lat="42.71419" lon="1.66494">
        <ele>1059.5</ele>
        <time>2020-02-08T09:40:54Z</time>
      </trkpt>
      <trkpt lat="42.71419" lon="1.66494">
        <ele>1059.5</ele>
        <time>2020-02-08T09:40:55Z</time>
      </trkpt>
      <trkpt lat="42.71419" lon="1.66494">
        <ele>1059.5</ele>
        <time>2020-02-08T09:40:56Z</time>
      </trkpt>
      <trkpt lat="42.71419" lon="1.66494">
        <ele>1059.5</ele>
        <time>2020-02-08T09:40:57Z</time>
      </trkpt>
      <trkpt lat="42.71419" lon="1.66494">
        <ele>1059.5</ele>
        <time>2020-02-08T09:40:58Z</time>
      </trkpt>
      <trkpt lat="42.71419" lon="1.66494">
        <ele>1059.5</ele>
        <time>2020-02-08T09:40:59Z</time>
      </trkpt>
      <trkpt lat="42.71415" lon="1.66481">
        <ele>1061.8</ele>
        <time>2020-02-08T09:41:00Z</time>
      </trkpt>
      <trkpt lat="42.71415" lon="1.66481">
        <ele>1061.8</ele>
        <time>2020-02-08T09:41:01Z</time>
      </trkpt>
      <trkpt lat="42.71415" lon="1.66481">
        <ele>1061.8</ele>
        <time>2020-02-08T09:41:02Z</time>
      </trkpt>
      <trkpt lat="42.71415" lon="1.66481">
        <ele>1061.8</ele>
        <time>2020-02-08T09:41:03Z</time>
      </trkpt>
      <trkpt lat="42.71415" lon="1.66481">
        <ele>1061.8</ele>
        <time>2020-02-08T09:41:04Z</time>
      </trkpt>
      <trkpt lat="42.71415" lon="1.66481">
        <ele>1061.8</ele>
        <time>2020-02-08T09:41:05Z</time>
      </trkpt>
      <trkpt lat="42.71415" lon="1.66481">
        <ele>1061.8</ele>
        <time>2020-02-08T09:41:06Z</time>
      </trkpt>
      <trkpt lat="42.71415" lon="1.66481">
        <ele>1061.8</ele>
        <time>2020-02-08T09:41:07Z</time>
      </trkpt>
      <trkpt lat="42.71415" lon="1.66481">
        <ele>1061.8</ele>
        <time>2020-02-08T09:41:08Z</time>
      </trkpt>
      <trkpt lat="42.71415" lon="1.66481">
        <ele>1061.8</ele>
        <time>2020-02-08T09:41:09Z</time>
      </trkpt>
      <trkpt lat="42.71413" lon="1.66467">
        <ele>1065.2</ele>
        <time>2020-02-08T09:41:10Z</time>
      </trkpt>
      <trkpt lat="42.71413" lon="1.66466">
        <ele>1065.5</ele>
        <time>2020-02-08T09:41:11Z</time>
      </trkpt>
      <trkpt lat="42.71412" lon="1.66465">
        <ele>1065.7</ele>
        <time>2020-02-08T09:41:12Z</time>
      </trkpt>
      <trkpt lat="42.71412" lon="1.66464">
        <ele>1066</ele>
        <time>2020-02-08T09:41:13Z</time>
      </trkpt>
      <trkpt lat="42.71411" lon="1.66463">
        <ele>1066.3</ele>
        <time>2020-02-08T09:41:14Z</time>
      </trkpt>
      <trkpt lat="42.7141" lon="1.66462">
        <ele>1066.5</ele>
        <time>2020-02-08T09:41:15Z</time>
      </trkpt>
      <trkpt lat="42.7141" lon="1.66461">
        <ele>1066.8</ele>
        <time>2020-02-08T09:41:16Z</time>
      </trkpt>
      <trkpt lat="42.71409" lon="1.66459">
        <ele>1067.2</ele>
        <time>2020-02-08T09:41:17Z</time>
      </trkpt>
      <trkpt lat="42.71409" lon="1.66458">
        <ele>1067.5</ele>
        <time>2020-02-08T09:41:18Z</time>
      </trkpt>
      <trkpt lat="42.71408" lon="1.66457">
        <ele>1067.8</ele>
        <time>2020-02-08T09:41:19Z</time>
      </trkpt>
      <trkpt lat="42.71408" lon="1.66456">
        <ele>1068.1</ele>
        <time>2020-02-08T09:41:20Z</time>
      </trkpt>
      <trkpt lat="42.71408" lon="1.66455">
        <ele>1068.4</ele>
        <time>2020-02-08T09:41:21Z</time>
      </trkpt>
      <trkpt lat="42.71408" lon="1.66454">
        <ele>1068.7</ele>
        <time>2020-02-08T09:41:22Z</time>
      </trkpt>
      <trkpt lat="42.71408" lon="1.66452">
        <ele>1069</ele>
        <time>2020-02-08T09:41:23Z</time>
      </trkpt>
      <trkpt lat="42.71408" lon="1.66451">
        <ele>1069.4</ele>
        <time>2020-02-08T09:41:24Z</time>
      </trkpt>
      <trkpt lat="42.71407" lon="1.6645">
        <ele>1069.7</ele>
        <time>2020-02-08T09:41:25Z</time>
      </trkpt>
      <trkpt lat="42.71407" lon="1.66448">
        <ele>1070.1</ele>
        <time>2020-02-08T09:41:26Z</time>
      </trkpt>
      <trkpt lat="42.71407" lon="1.66447">
        <ele>1070.4</ele>
        <time>2020-02-08T09:41:27Z</time>
      </trkpt>
      <trkpt lat="42.71407" lon="1.66446">
        <ele>1070.7</ele>
        <time>2020-02-08T09:41:28Z</time>
      </trkpt>
      <trkpt lat="42.71407" lon="1.66445">
        <ele>1071.1</ele>
        <time>2020-02-08T09:41:29Z</time>
      </trkpt>
      <trkpt lat="42.71407" lon="1.66443">
        <ele>1071.4</ele>
        <time>2020-02-08T09:41:30Z</time>
      </trkpt>
      <trkpt lat="42.71407" lon="1.66442">
        <ele>1071.8</ele>
        <time>2020-02-08T09:41:31Z</time>
      </trkpt>
      <trkpt lat="42.71407" lon="1.66441">
        <ele>1072.3</ele>
        <time>2020-02-08T09:41:32Z</time>
      </trkpt>
      <trkpt lat="42.71407" lon="1.66439">
        <ele>1072.8</ele>
        <time>2020-02-08T09:41:33Z</time>
      </trkpt>
      <trkpt lat="42.71407" lon="1.66438">
        <ele>1073.3</ele>
        <time>2020-02-08T09:41:34Z</time>
      </trkpt>
      <trkpt lat="42.71406" lon="1.66437">
        <ele>1073.8</ele>
        <time>2020-02-08T09:41:35Z</time>
      </trkpt>
      <trkpt lat="42.71406" lon="1.66436">
        <ele>1074.3</ele>
        <time>2020-02-08T09:41:36Z</time>
      </trkpt>
      <trkpt lat="42.71406" lon="1.66434">
        <ele>1074.8</ele>
        <time>2020-02-08T09:41:37Z</time>
      </trkpt>
      <trkpt lat="42.71406" lon="1.66433">
        <ele>1075.3</ele>
        <time>2020-02-08T09:41:38Z</time>
      </trkpt>
      <trkpt lat="42.71406" lon="1.66432">
        <ele>1075.8</ele>
        <time>2020-02-08T09:41:39Z</time>
      </trkpt>
      <trkpt lat="42.71407" lon="1.6643">
        <ele>1076</ele>
        <time>2020-02-08T09:41:40Z</time>
      </trkpt>
      <trkpt lat="42.71407" lon="1.66429">
        <ele>1076.3</ele>
        <time>2020-02-08T09:41:41Z</time>
      </trkpt>
      <trkpt lat="42.71407" lon="1.66428">
        <ele>1076.5</ele>
        <time>2020-02-08T09:41:42Z</time>
      </trkpt>
      <trkpt lat="42.71408" lon="1.66427">
        <ele>1076.8</ele>
        <time>2020-02-08T09:41:43Z</time>
      </trkpt>
      <trkpt lat="42.71408" lon="1.66426">
        <ele>1077</ele>
        <time>2020-02-08T09:41:44Z</time>
      </trkpt>
      <trkpt lat="42.71409" lon="1.66424">
        <ele>1077.3</ele>
        <time>2020-02-08T09:41:45Z</time>
      </trkpt>
      <trkpt lat="42.71409" lon="1.66423">
        <ele>1077.5</ele>
        <time>2020-02-08T09:41:46Z</time>
      </trkpt>
      <trkpt lat="42.7141" lon="1.66422">
        <ele>1077.8</ele>
        <time>2020-02-08T09:41:47Z</time>
      </trkpt>
      <trkpt lat="42.7141" lon="1.66421">
        <ele>1078</ele>
        <time>2020-02-08T09:41:48Z</time>
      </trkpt>
      <trkpt lat="42.71411" lon="1.66419">
        <ele>1078.1</ele>
        <time>2020-02-08T09:41:49Z</time>
      </trkpt>
      <trkpt lat="42.7141" lon="1.66419">
        <ele>1078.2</ele>
        <time>2020-02-08T09:41:50Z</time>
      </trkpt>
      <trkpt lat="42.7141" lon="1.66419">
        <ele>1078.3</ele>
        <time>2020-02-08T09:41:51Z</time>
      </trkpt>
      <trkpt lat="42.7141" lon="1.66418">
        <ele>1078.3</ele>
        <time>2020-02-08T09:41:52Z</time>
      </trkpt>
      <trkpt lat="42.71409" lon="1.66418">
        <ele>1078.4</ele>
        <time>2020-02-08T09:41:53Z</time>
      </trkpt>
      <trkpt lat="42.71409" lon="1.66417">
        <ele>1078.5</ele>
        <time>2020-02-08T09:41:54Z</time>
      </trkpt>
      <trkpt lat="42.71409" lon="1.66417">
        <ele>1078.5</ele>
        <time>2020-02-08T09:41:55Z</time>
      </trkpt>
      <trkpt lat="42.71408" lon="1.66416">
        <ele>1078.6</ele>
        <time>2020-02-08T09:41:56Z</time>
      </trkpt>
      <trkpt lat="42.71408" lon="1.66416">
        <ele>1078.7</ele>
        <time>2020-02-08T09:41:57Z</time>
      </trkpt>
      <trkpt lat="42.71408" lon="1.66415">
        <ele>1078.7</ele>
        <time>2020-02-08T09:41:58Z</time>
      </trkpt>
      <trkpt lat="42.71408" lon="1.66415">
        <ele>1078.6</ele>
        <time>2020-02-08T09:41:59Z</time>
      </trkpt>
      <trkpt lat="42.71407" lon="1.66414">
        <ele>1078.6</ele>
        <time>2020-02-08T09:42:00Z</time>
      </trkpt>
      <trkpt lat="42.71407" lon="1.66414">
        <ele>1078.5</ele>
        <time>2020-02-08T09:42:01Z</time>
      </trkpt>
      <trkpt lat="42.71407" lon="1.66413">
        <ele>1078.5</ele>
        <time>2020-02-08T09:42:02Z</time>
      </trkpt>
      <trkpt lat="42.71406" lon="1.66413">
        <ele>1078.4</ele>
        <time>2020-02-08T09:42:03Z</time>
      </trkpt>
      <trkpt lat="42.71406" lon="1.66413">
        <ele>1078.4</ele>
        <time>2020-02-08T09:42:04Z</time>
      </trkpt>
      <trkpt lat="42.71406" lon="1.66412">
        <ele>1078.3</ele>
        <time>2020-02-08T09:42:05Z</time>
      </trkpt>
      <trkpt lat="42.71405" lon="1.66412">
        <ele>1078.3</ele>
        <time>2020-02-08T09:42:06Z</time>
      </trkpt>
      <trkpt lat="42.71405" lon="1.66411">
        <ele>1078.2</ele>
        <time>2020-02-08T09:42:07Z</time>
      </trkpt>
      <trkpt lat="42.71405" lon="1.66411">
        <ele>1078.2</ele>
        <time>2020-02-08T09:42:08Z</time>
      </trkpt>
      <trkpt lat="42.71404" lon="1.6641">
        <ele>1078.1</ele>
        <time>2020-02-08T09:42:09Z</time>
      </trkpt>
      <trkpt lat="42.71404" lon="1.66411">
        <ele>1078.1</ele>
        <time>2020-02-08T09:42:10Z</time>
      </trkpt>
      <trkpt lat="42.71403" lon="1.66411">
        <ele>1078.2</ele>
        <time>2020-02-08T09:42:11Z</time>
      </trkpt>
      <trkpt lat="42.71402" lon="1.66411">
        <ele>1078.2</ele>
        <time>2020-02-08T09:42:12Z</time>
      </trkpt>
      <trkpt lat="42.71401" lon="1.66412">
        <ele>1078.2</ele>
        <time>2020-02-08T09:42:13Z</time>
      </trkpt>
      <trkpt lat="42.714" lon="1.66412">
        <ele>1078.3</ele>
        <time>2020-02-08T09:42:14Z</time>
      </trkpt>
      <trkpt lat="42.71399" lon="1.66412">
        <ele>1078.3</ele>
        <time>2020-02-08T09:42:15Z</time>
      </trkpt>
      <trkpt lat="42.71398" lon="1.66413">
        <ele>1078.3</ele>
        <time>2020-02-08T09:42:16Z</time>
      </trkpt>
      <trkpt lat="42.71397" lon="1.66413">
        <ele>1078.3</ele>
        <time>2020-02-08T09:42:17Z</time>
      </trkpt>
      <trkpt lat="42.71396" lon="1.66414">
        <ele>1078.2</ele>
        <time>2020-02-08T09:42:18Z</time>
      </trkpt>
      <trkpt lat="42.71395" lon="1.66414">
        <ele>1078.1</ele>
        <time>2020-02-08T09:42:19Z</time>
      </trkpt>
      <trkpt lat="42.71394" lon="1.66413">
        <ele>1078</ele>
        <time>2020-02-08T09:42:20Z</time>
      </trkpt>
      <trkpt lat="42.71394" lon="1.66412">
        <ele>1077.9</ele>
        <time>2020-02-08T09:42:21Z</time>
      </trkpt>
      <trkpt lat="42.71393" lon="1.66412">
        <ele>1077.8</ele>
        <time>2020-02-08T09:42:22Z</time>
      </trkpt>
      <trkpt lat="42.71392" lon="1.66411">
        <ele>1077.8</ele>
        <time>2020-02-08T09:42:23Z</time>
      </trkpt>
      <trkpt lat="42.71391" lon="1.6641">
        <ele>1077.8</ele>
        <time>2020-02-08T09:42:24Z</time>
      </trkpt>
      <trkpt lat="42.71391" lon="1.66409">
        <ele>1078</ele>
        <time>2020-02-08T09:42:25Z</time>
      </trkpt>
      <trkpt lat="42.7139" lon="1.66409">
        <ele>1078.2</ele>
        <time>2020-02-08T09:42:26Z</time>
      </trkpt>
      <trkpt lat="42.71389" lon="1.66408">
        <ele>1078.4</ele>
        <time>2020-02-08T09:42:27Z</time>
      </trkpt>
      <trkpt lat="42.71388" lon="1.66407">
        <ele>1078.6</ele>
        <time>2020-02-08T09:42:28Z</time>
      </trkpt>
      <trkpt lat="42.71387" lon="1.66406">
        <ele>1078.8</ele>
        <time>2020-02-08T09:42:29Z</time>
      </trkpt>
      <trkpt lat="42.71387" lon="1.66406">
        <ele>1079</ele>
        <time>2020-02-08T09:42:30Z</time>
      </trkpt>
      <trkpt lat="42.71386" lon="1.66405">
        <ele>1079.2</ele>
        <time>2020-02-08T09:42:31Z</time>
      </trkpt>
      <trkpt lat="42.71385" lon="1.66404">
        <ele>1079.4</ele>
        <time>2020-02-08T09:42:32Z</time>
      </trkpt>
      <trkpt lat="42.71385" lon="1.66403">
        <ele>1079.6</ele>
        <time>2020-02-08T09:42:33Z</time>
      </trkpt>
      <trkpt lat="42.71384" lon="1.66402">
        <ele>1079.8</ele>
        <time>2020-02-08T09:42:34Z</time>
      </trkpt>
      <trkpt lat="42.71383" lon="1.66401">
        <ele>1080</ele>
        <time>2020-02-08T09:42:35Z</time>
      </trkpt>
      <trkpt lat="42.71383" lon="1.66401">
        <ele>1080.2</ele>
        <time>2020-02-08T09:42:36Z</time>
      </trkpt>
      <trkpt lat="42.71382" lon="1.664">
        <ele>1080.5</ele>
        <time>2020-02-08T09:42:37Z</time>
      </trkpt>
      <trkpt lat="42.71381" lon="1.66399">
        <ele>1080.8</ele>
        <time>2020-02-08T09:42:38Z</time>
      </trkpt>
      <trkpt lat="42.71381" lon="1.66398">
        <ele>1081</ele>
        <time>2020-02-08T09:42:39Z</time>
      </trkpt>
      <trkpt lat="42.7138" lon="1.66398">
        <ele>1081.3</ele>
        <time>2020-02-08T09:42:40Z</time>
      </trkpt>
      <trkpt lat="42.71379" lon="1.66397">
        <ele>1081.6</ele>
        <time>2020-02-08T09:42:41Z</time>
      </trkpt>
      <trkpt lat="42.71378" lon="1.66397">
        <ele>1081.9</ele>
        <time>2020-02-08T09:42:42Z</time>
      </trkpt>
      <trkpt lat="42.71377" lon="1.66396">
        <ele>1082.1</ele>
        <time>2020-02-08T09:42:43Z</time>
      </trkpt>
      <trkpt lat="42.71376" lon="1.66396">
        <ele>1082.4</ele>
        <time>2020-02-08T09:42:44Z</time>
      </trkpt>
      <trkpt lat="42.71376" lon="1.66395">
        <ele>1082.7</ele>
        <time>2020-02-08T09:42:45Z</time>
      </trkpt>
      <trkpt lat="42.71375" lon="1.66395">
        <ele>1083</ele>
        <time>2020-02-08T09:42:46Z</time>
      </trkpt>
      <trkpt lat="42.71374" lon="1.66394">
        <ele>1083.1</ele>
        <time>2020-02-08T09:42:47Z</time>
      </trkpt>
      <trkpt lat="42.71373" lon="1.66393">
        <ele>1083.1</ele>
        <time>2020-02-08T09:42:48Z</time>
      </trkpt>
      <trkpt lat="42.71372" lon="1.66393">
        <ele>1083.1</ele>
        <time>2020-02-08T09:42:49Z</time>
      </trkpt>
      <trkpt lat="42.71371" lon="1.66393">
        <ele>1083.1</ele>
        <time>2020-02-08T09:42:50Z</time>
      </trkpt>
      <trkpt lat="42.7137" lon="1.66393">
        <ele>1083.1</ele>
        <time>2020-02-08T09:42:51Z</time>
      </trkpt>
      <trkpt lat="42.7137" lon="1.66393">
        <ele>1083.1</ele>
        <time>2020-02-08T09:42:52Z</time>
      </trkpt>
      <trkpt lat="42.71369" lon="1.66393">
        <ele>1083.1</ele>
        <time>2020-02-08T09:42:53Z</time>
      </trkpt>
      <trkpt lat="42.71368" lon="1.66392">
        <ele>1083.1</ele>
        <time>2020-02-08T09:42:54Z</time>
      </trkpt>
      <trkpt lat="42.71367" lon="1.66392">
        <ele>1083.2</ele>
        <time>2020-02-08T09:42:55Z</time>
      </trkpt>
      <trkpt lat="42.71366" lon="1.66392">
        <ele>1083.2</ele>
        <time>2020-02-08T09:42:56Z</time>
      </trkpt>
      <trkpt lat="42.71365" lon="1.66392">
        <ele>1083.2</ele>
        <time>2020-02-08T09:42:57Z</time>
      </trkpt>
      <trkpt lat="42.71364" lon="1.66392">
        <ele>1083.3</ele>
        <time>2020-02-08T09:42:58Z</time>
      </trkpt>
      <trkpt lat="42.71363" lon="1.66392">
        <ele>1083.3</ele>
        <time>2020-02-08T09:42:59Z</time>
      </trkpt>
      <trkpt lat="42.71362" lon="1.66393">
        <ele>1083.4</ele>
        <time>2020-02-08T09:43:00Z</time>
      </trkpt>
      <trkpt lat="42.71362" lon="1.66394">
        <ele>1083.5</ele>
        <time>2020-02-08T09:43:01Z</time>
      </trkpt>
      <trkpt lat="42.71361" lon="1.66394">
        <ele>1083.5</ele>
        <time>2020-02-08T09:43:02Z</time>
      </trkpt>
      <trkpt lat="42.7136" lon="1.66395">
        <ele>1083.5</ele>
        <time>2020-02-08T09:43:03Z</time>
      </trkpt>
      <trkpt lat="42.71359" lon="1.66396">
        <ele>1083.4</ele>
        <time>2020-02-08T09:43:04Z</time>
      </trkpt>
      <trkpt lat="42.71358" lon="1.66397">
        <ele>1083.3</ele>
        <time>2020-02-08T09:43:05Z</time>
      </trkpt>
      <trkpt lat="42.71358" lon="1.66398">
        <ele>1083.2</ele>
        <time>2020-02-08T09:43:06Z</time>
      </trkpt>
      <trkpt lat="42.71357" lon="1.66398">
        <ele>1083.2</ele>
        <time>2020-02-08T09:43:07Z</time>
      </trkpt>
      <trkpt lat="42.71356" lon="1.66399">
        <ele>1083.1</ele>
        <time>2020-02-08T09:43:08Z</time>
      </trkpt>
      <trkpt lat="42.71355" lon="1.664">
        <ele>1083</ele>
        <time>2020-02-08T09:43:09Z</time>
      </trkpt>
      <trkpt lat="42.71355" lon="1.66401">
        <ele>1082.9</ele>
        <time>2020-02-08T09:43:10Z</time>
      </trkpt>
      <trkpt lat="42.71354" lon="1.66402">
        <ele>1082.8</ele>
        <time>2020-02-08T09:43:11Z</time>
      </trkpt>
      <trkpt lat="42.71353" lon="1.66403">
        <ele>1082.6</ele>
        <time>2020-02-08T09:43:12Z</time>
      </trkpt>
      <trkpt lat="42.71352" lon="1.66403">
        <ele>1082.3</ele>
        <time>2020-02-08T09:43:13Z</time>
      </trkpt>
      <trkpt lat="42.71351" lon="1.66404">
        <ele>1082.1</ele>
        <time>2020-02-08T09:43:14Z</time>
      </trkpt>
      <trkpt lat="42.71351" lon="1.66405">
        <ele>1081.9</ele>
        <time>2020-02-08T09:43:15Z</time>
      </trkpt>
      <trkpt lat="42.7135" lon="1.66406">
        <ele>1081.6</ele>
        <time>2020-02-08T09:43:16Z</time>
      </trkpt>
      <trkpt lat="42.71349" lon="1.66407">
        <ele>1081.4</ele>
        <time>2020-02-08T09:43:17Z</time>
      </trkpt>
      <trkpt lat="42.71348" lon="1.66407">
        <ele>1081.2</ele>
        <time>2020-02-08T09:43:18Z</time>
      </trkpt>
      <trkpt lat="42.71348" lon="1.66408">
        <ele>1080.9</ele>
        <time>2020-02-08T09:43:19Z</time>
      </trkpt>
      <trkpt lat="42.71347" lon="1.6641">
        <ele>1080.7</ele>
        <time>2020-02-08T09:43:20Z</time>
      </trkpt>
      <trkpt lat="42.71347" lon="1.66411">
        <ele>1080.6</ele>
        <time>2020-02-08T09:43:21Z</time>
      </trkpt>
      <trkpt lat="42.71347" lon="1.66412">
        <ele>1080.6</ele>
        <time>2020-02-08T09:43:22Z</time>
      </trkpt>
      <trkpt lat="42.71347" lon="1.66414">
        <ele>1080.5</ele>
        <time>2020-02-08T09:43:23Z</time>
      </trkpt>
      <trkpt lat="42.71346" lon="1.66415">
        <ele>1080.4</ele>
        <time>2020-02-08T09:43:24Z</time>
      </trkpt>
      <trkpt lat="42.71346" lon="1.66417">
        <ele>1080.4</ele>
        <time>2020-02-08T09:43:25Z</time>
      </trkpt>
      <trkpt lat="42.71346" lon="1.66418">
        <ele>1080.3</ele>
        <time>2020-02-08T09:43:26Z</time>
      </trkpt>
      <trkpt lat="42.71346" lon="1.66419">
        <ele>1080.2</ele>
        <time>2020-02-08T09:43:27Z</time>
      </trkpt>
      <trkpt lat="42.71346" lon="1.66421">
        <ele>1080.2</ele>
        <time>2020-02-08T09:43:28Z</time>
      </trkpt>
      <trkpt lat="42.71345" lon="1.66422">
        <ele>1080.1</ele>
        <time>2020-02-08T09:43:29Z</time>
      </trkpt>
      <trkpt lat="42.71345" lon="1.66423">
        <ele>1079.9</ele>
        <time>2020-02-08T09:43:30Z</time>
      </trkpt>
      <trkpt lat="42.71344" lon="1.66424">
        <ele>1079.7</ele>
        <time>2020-02-08T09:43:31Z</time>
      </trkpt>
      <trkpt lat="42.71344" lon="1.66425">
        <ele>1079.5</ele>
        <time>2020-02-08T09:43:32Z</time>
      </trkpt>
      <trkpt lat="42.71343" lon="1.66426">
        <ele>1079.3</ele>
        <time>2020-02-08T09:43:33Z</time>
      </trkpt>
      <trkpt lat="42.71342" lon="1.66427">
        <ele>1079.2</ele>
        <time>2020-02-08T09:43:34Z</time>
      </trkpt>
      <trkpt lat="42.71342" lon="1.66428">
        <ele>1079</ele>
        <time>2020-02-08T09:43:35Z</time>
      </trkpt>
      <trkpt lat="42.71341" lon="1.66429">
        <ele>1078.8</ele>
        <time>2020-02-08T09:43:36Z</time>
      </trkpt>
      <trkpt lat="42.71341" lon="1.6643">
        <ele>1078.7</ele>
        <time>2020-02-08T09:43:37Z</time>
      </trkpt>
      <trkpt lat="42.7134" lon="1.66431">
        <ele>1078.5</ele>
        <time>2020-02-08T09:43:38Z</time>
      </trkpt>
      <trkpt lat="42.71339" lon="1.66432">
        <ele>1078.3</ele>
        <time>2020-02-08T09:43:39Z</time>
      </trkpt>
      <trkpt lat="42.71339" lon="1.66433">
        <ele>1078.1</ele>
        <time>2020-02-08T09:43:40Z</time>
      </trkpt>
      <trkpt lat="42.71338" lon="1.66434">
        <ele>1078</ele>
        <time>2020-02-08T09:43:41Z</time>
      </trkpt>
      <trkpt lat="42.71337" lon="1.66435">
        <ele>1077.8</ele>
        <time>2020-02-08T09:43:42Z</time>
      </trkpt>
      <trkpt lat="42.71336" lon="1.66435">
        <ele>1077.6</ele>
        <time>2020-02-08T09:43:43Z</time>
      </trkpt>
      <trkpt lat="42.71336" lon="1.66436">
        <ele>1077.5</ele>
        <time>2020-02-08T09:43:44Z</time>
      </trkpt>
      <trkpt lat="42.71335" lon="1.66437">
        <ele>1077.3</ele>
        <time>2020-02-08T09:43:45Z</time>
      </trkpt>
      <trkpt lat="42.71334" lon="1.66438">
        <ele>1077.1</ele>
        <time>2020-02-08T09:43:46Z</time>
      </trkpt>
      <trkpt lat="42.71333" lon="1.66438">
        <ele>1077</ele>
        <time>2020-02-08T09:43:47Z</time>
      </trkpt>
      <trkpt lat="42.71333" lon="1.66439">
        <ele>1077</ele>
        <time>2020-02-08T09:43:48Z</time>
      </trkpt>
      <trkpt lat="42.71332" lon="1.6644">
        <ele>1077</ele>
        <time>2020-02-08T09:43:49Z</time>
      </trkpt>
      <trkpt lat="42.7133" lon="1.66439">
        <ele>1077</ele>
        <time>2020-02-08T09:43:50Z</time>
      </trkpt>
      <trkpt lat="42.71328" lon="1.66439">
        <ele>1077</ele>
        <time>2020-02-08T09:43:51Z</time>
      </trkpt>
      <trkpt lat="42.71326" lon="1.66438">
        <ele>1077</ele>
        <time>2020-02-08T09:43:52Z</time>
      </trkpt>
      <trkpt lat="42.71324" lon="1.66437">
        <ele>1077</ele>
        <time>2020-02-08T09:43:53Z</time>
      </trkpt>
      <trkpt lat="42.71322" lon="1.66437">
        <ele>1077.2</ele>
        <time>2020-02-08T09:43:54Z</time>
      </trkpt>
      <trkpt lat="42.7132" lon="1.66436">
        <ele>1077.5</ele>
        <time>2020-02-08T09:43:55Z</time>
      </trkpt>
      <trkpt lat="42.71318" lon="1.66435">
        <ele>1077.8</ele>
        <time>2020-02-08T09:43:56Z</time>
      </trkpt>
      <trkpt lat="42.71316" lon="1.66435">
        <ele>1078.5</ele>
        <time>2020-02-08T09:43:57Z</time>
      </trkpt>
      <trkpt lat="42.71314" lon="1.66434">
        <ele>1078.8</ele>
        <time>2020-02-08T09:43:58Z</time>
      </trkpt>
      <trkpt lat="42.71313" lon="1.66434">
        <ele>1079.1</ele>
        <time>2020-02-08T09:43:59Z</time>
      </trkpt>
      <trkpt lat="42.71312" lon="1.66434">
        <ele>1079.2</ele>
        <time>2020-02-08T09:44:00Z</time>
      </trkpt>
      <trkpt lat="42.71312" lon="1.66434">
        <ele>1079.2</ele>
        <time>2020-02-08T09:44:01Z</time>
      </trkpt>
      <trkpt lat="42.71311" lon="1.66435">
        <ele>1079.3</ele>
        <time>2020-02-08T09:44:02Z</time>
      </trkpt>
      <trkpt lat="42.71311" lon="1.66435">
        <ele>1079.4</ele>
        <time>2020-02-08T09:44:03Z</time>
      </trkpt>
      <trkpt lat="42.71311" lon="1.66436">
        <ele>1079.4</ele>
        <time>2020-02-08T09:44:04Z</time>
      </trkpt>
      <trkpt lat="42.7131" lon="1.66436">
        <ele>1079.5</ele>
        <time>2020-02-08T09:44:05Z</time>
      </trkpt>
      <trkpt lat="42.7131" lon="1.66436">
        <ele>1079.6</ele>
        <time>2020-02-08T09:44:06Z</time>
      </trkpt>
      <trkpt lat="42.7131" lon="1.66437">
        <ele>1079.7</ele>
        <time>2020-02-08T09:44:07Z</time>
      </trkpt>
      <trkpt lat="42.71309" lon="1.66437">
        <ele>1079.7</ele>
        <time>2020-02-08T09:44:08Z</time>
      </trkpt>
      <trkpt lat="42.71309" lon="1.66437">
        <ele>1079.8</ele>
        <time>2020-02-08T09:44:09Z</time>
      </trkpt>
      <trkpt lat="42.71308" lon="1.66438">
        <ele>1079.9</ele>
        <time>2020-02-08T09:44:10Z</time>
      </trkpt>
      <trkpt lat="42.71308" lon="1.66438">
        <ele>1079.9</ele>
        <time>2020-02-08T09:44:11Z</time>
      </trkpt>
      <trkpt lat="42.71308" lon="1.66439">
        <ele>1080</ele>
        <time>2020-02-08T09:44:12Z</time>
      </trkpt>
      <trkpt lat="42.71307" lon="1.66439">
        <ele>1080.1</ele>
        <time>2020-02-08T09:44:13Z</time>
      </trkpt>
      <trkpt lat="42.71307" lon="1.66439">
        <ele>1080.1</ele>
        <time>2020-02-08T09:44:14Z</time>
      </trkpt>
      <trkpt lat="42.71307" lon="1.6644">
        <ele>1080.2</ele>
        <time>2020-02-08T09:44:15Z</time>
      </trkpt>
      <trkpt lat="42.71306" lon="1.6644">
        <ele>1080.3</ele>
        <time>2020-02-08T09:44:16Z</time>
      </trkpt>
      <trkpt lat="42.71306" lon="1.66441">
        <ele>1080.4</ele>
        <time>2020-02-08T09:44:17Z</time>
      </trkpt>
      <trkpt lat="42.71306" lon="1.66441">
        <ele>1080.4</ele>
        <time>2020-02-08T09:44:18Z</time>
      </trkpt>
      <trkpt lat="42.71305" lon="1.66441">
        <ele>1080.5</ele>
        <time>2020-02-08T09:44:19Z</time>
      </trkpt>
      <trkpt lat="42.71304" lon="1.66441">
        <ele>1080.6</ele>
        <time>2020-02-08T09:44:20Z</time>
      </trkpt>
      <trkpt lat="42.71304" lon="1.6644">
        <ele>1080.8</ele>
        <time>2020-02-08T09:44:21Z</time>
      </trkpt>
      <trkpt lat="42.71303" lon="1.6644">
        <ele>1080.9</ele>
        <time>2020-02-08T09:44:22Z</time>
      </trkpt>
      <trkpt lat="42.71302" lon="1.6644">
        <ele>1081</ele>
        <time>2020-02-08T09:44:23Z</time>
      </trkpt>
      <trkpt lat="42.71301" lon="1.66439">
        <ele>1081.1</ele>
        <time>2020-02-08T09:44:24Z</time>
      </trkpt>
      <trkpt lat="42.713" lon="1.66439">
        <ele>1081.3</ele>
        <time>2020-02-08T09:44:25Z</time>
      </trkpt>
      <trkpt lat="42.713" lon="1.66438">
        <ele>1081.4</ele>
        <time>2020-02-08T09:44:26Z</time>
      </trkpt>
      <trkpt lat="42.71299" lon="1.66438">
        <ele>1081.5</ele>
        <time>2020-02-08T09:44:27Z</time>
      </trkpt>
      <trkpt lat="42.71298" lon="1.66437">
        <ele>1081.6</ele>
        <time>2020-02-08T09:44:28Z</time>
      </trkpt>
      <trkpt lat="42.71297" lon="1.66437">
        <ele>1081.7</ele>
        <time>2020-02-08T09:44:29Z</time>
      </trkpt>
      <trkpt lat="42.71297" lon="1.66437">
        <ele>1081.8</ele>
        <time>2020-02-08T09:44:30Z</time>
      </trkpt>
      <trkpt lat="42.71296" lon="1.66436">
        <ele>1081.8</ele>
        <time>2020-02-08T09:44:31Z</time>
      </trkpt>
      <trkpt lat="42.71295" lon="1.66436">
        <ele>1081.9</ele>
        <time>2020-02-08T09:44:32Z</time>
      </trkpt>
      <trkpt lat="42.71294" lon="1.66435">
        <ele>1082</ele>
        <time>2020-02-08T09:44:33Z</time>
      </trkpt>
      <trkpt lat="42.71293" lon="1.66435">
        <ele>1082</ele>
        <time>2020-02-08T09:44:34Z</time>
      </trkpt>
      <trkpt lat="42.71293" lon="1.66434">
        <ele>1082.1</ele>
        <time>2020-02-08T09:44:35Z</time>
      </trkpt>
      <trkpt lat="42.71292" lon="1.66434">
        <ele>1082.2</ele>
        <time>2020-02-08T09:44:36Z</time>
      </trkpt>
      <trkpt lat="42.71291" lon="1.66434">
        <ele>1082.2</ele>
        <time>2020-02-08T09:44:37Z</time>
      </trkpt>
      <trkpt lat="42.7129" lon="1.66433">
        <ele>1082.3</ele>
        <time>2020-02-08T09:44:38Z</time>
      </trkpt>
      <trkpt lat="42.7129" lon="1.66433">
        <ele>1082.4</ele>
        <time>2020-02-08T09:44:39Z</time>
      </trkpt>
      <trkpt lat="42.71289" lon="1.66431">
        <ele>1082.4</ele>
        <time>2020-02-08T09:44:40Z</time>
      </trkpt>
      <trkpt lat="42.71289" lon="1.6643">
        <ele>1082.5</ele>
        <time>2020-02-08T09:44:41Z</time>
      </trkpt>
      <trkpt lat="42.71289" lon="1.66429">
        <ele>1082.6</ele>
        <time>2020-02-08T09:44:42Z</time>
      </trkpt>
      <trkpt lat="42.71289" lon="1.66428">
        <ele>1082.7</ele>
        <time>2020-02-08T09:44:43Z</time>
      </trkpt>
      <trkpt lat="42.71289" lon="1.66426">
        <ele>1082.7</ele>
        <time>2020-02-08T09:44:44Z</time>
      </trkpt>
      <trkpt lat="42.71289" lon="1.66425">
        <ele>1082.8</ele>
        <time>2020-02-08T09:44:45Z</time>
      </trkpt>
      <trkpt lat="42.71289" lon="1.66424">
        <ele>1082.9</ele>
        <time>2020-02-08T09:44:46Z</time>
      </trkpt>
      <trkpt lat="42.71289" lon="1.66423">
        <ele>1082.9</ele>
        <time>2020-02-08T09:44:47Z</time>
      </trkpt>
      <trkpt lat="42.71289" lon="1.66421">
        <ele>1083</ele>
        <time>2020-02-08T09:44:48Z</time>
      </trkpt>
      <trkpt lat="42.71289" lon="1.6642">
        <ele>1083.1</ele>
        <time>2020-02-08T09:44:49Z</time>
      </trkpt>
      <trkpt lat="42.71289" lon="1.66419">
        <ele>1083.2</ele>
        <time>2020-02-08T09:44:50Z</time>
      </trkpt>
      <trkpt lat="42.71289" lon="1.66418">
        <ele>1083.2</ele>
        <time>2020-02-08T09:44:51Z</time>
      </trkpt>
      <trkpt lat="42.71289" lon="1.66417">
        <ele>1083.3</ele>
        <time>2020-02-08T09:44:52Z</time>
      </trkpt>
      <trkpt lat="42.71289" lon="1.66415">
        <ele>1083.3</ele>
        <time>2020-02-08T09:44:53Z</time>
      </trkpt>
      <trkpt lat="42.7129" lon="1.66414">
        <ele>1083.3</ele>
        <time>2020-02-08T09:44:54Z</time>
      </trkpt>
      <trkpt lat="42.7129" lon="1.66413">
        <ele>1084.6</ele>
        <time>2020-02-08T09:44:55Z</time>
      </trkpt>
      <trkpt lat="42.7129" lon="1.66412">
        <ele>1084.6</ele>
        <time>2020-02-08T09:44:56Z</time>
      </trkpt>
      <trkpt lat="42.7129" lon="1.6641">
        <ele>1084.6</ele>
        <time>2020-02-08T09:44:57Z</time>
      </trkpt>
      <trkpt lat="42.7129" lon="1.66409">
        <ele>1084.2</ele>
        <time>2020-02-08T09:44:58Z</time>
      </trkpt>
      <trkpt lat="42.71291" lon="1.66408">
        <ele>1085.6</ele>
        <time>2020-02-08T09:44:59Z</time>
      </trkpt>
      <trkpt lat="42.71291" lon="1.66407">
        <ele>1085.6</ele>
        <time>2020-02-08T09:45:00Z</time>
      </trkpt>
      <trkpt lat="42.71291" lon="1.66407">
        <ele>1085.6</ele>
        <time>2020-02-08T09:45:01Z</time>
      </trkpt>
      <trkpt lat="42.71292" lon="1.66406">
        <ele>1085.6</ele>
        <time>2020-02-08T09:45:02Z</time>
      </trkpt>
      <trkpt lat="42.71292" lon="1.66406">
        <ele>1085.6</ele>
        <time>2020-02-08T09:45:03Z</time>
      </trkpt>
      <trkpt lat="42.71292" lon="1.66405">
        <ele>1085.6</ele>
        <time>2020-02-08T09:45:04Z</time>
      </trkpt>
      <trkpt lat="42.71292" lon="1.66405">
        <ele>1085.6</ele>
        <time>2020-02-08T09:45:05Z</time>
      </trkpt>
      <trkpt lat="42.71293" lon="1.66404">
        <ele>1085.6</ele>
        <time>2020-02-08T09:45:06Z</time>
      </trkpt>
      <trkpt lat="42.71293" lon="1.66404">
        <ele>1087</ele>
        <time>2020-02-08T09:45:07Z</time>
      </trkpt>
      <trkpt lat="42.71293" lon="1.66403">
        <ele>1087</ele>
        <time>2020-02-08T09:45:08Z</time>
      </trkpt>
      <trkpt lat="42.71294" lon="1.66403">
        <ele>1086.6</ele>
        <time>2020-02-08T09:45:09Z</time>
      </trkpt>
      <trkpt lat="42.71294" lon="1.66402">
        <ele>1086.6</ele>
        <time>2020-02-08T09:45:10Z</time>
      </trkpt>
      <trkpt lat="42.71294" lon="1.66402">
        <ele>1086.6</ele>
        <time>2020-02-08T09:45:11Z</time>
      </trkpt>
      <trkpt lat="42.71295" lon="1.66401">
        <ele>1086.6</ele>
        <time>2020-02-08T09:45:12Z</time>
      </trkpt>
      <trkpt lat="42.71295" lon="1.66401">
        <ele>1086.6</ele>
        <time>2020-02-08T09:45:13Z</time>
      </trkpt>
      <trkpt lat="42.71295" lon="1.664">
        <ele>1086.6</ele>
        <time>2020-02-08T09:45:14Z</time>
      </trkpt>
      <trkpt lat="42.71296" lon="1.664">
        <ele>1088.1</ele>
        <time>2020-02-08T09:45:15Z</time>
      </trkpt>
      <trkpt lat="42.71296" lon="1.66399">
        <ele>1088.1</ele>
        <time>2020-02-08T09:45:16Z</time>
      </trkpt>
      <trkpt lat="42.71296" lon="1.66399">
        <ele>1088.1</ele>
        <time>2020-02-08T09:45:17Z</time>
      </trkpt>
      <trkpt lat="42.71296" lon="1.66398">
        <ele>1088.1</ele>
        <time>2020-02-08T09:45:18Z</time>
      </trkpt>
      <trkpt lat="42.71297" lon="1.66398">
        <ele>1087.7</ele>
        <time>2020-02-08T09:45:19Z</time>
      </trkpt>
      <trkpt lat="42.71297" lon="1.66396">
        <ele>1087.7</ele>
        <time>2020-02-08T09:45:20Z</time>
      </trkpt>
      <trkpt lat="42.71297" lon="1.66395">
        <ele>1089.3</ele>
        <time>2020-02-08T09:45:21Z</time>
      </trkpt>
      <trkpt lat="42.71297" lon="1.66394">
        <ele>1089.3</ele>
        <time>2020-02-08T09:45:22Z</time>
      </trkpt>
      <trkpt lat="42.71297" lon="1.66392">
        <ele>1089.3</ele>
        <time>2020-02-08T09:45:23Z</time>
      </trkpt>
      <trkpt lat="42.71297" lon="1.66391">
        <ele>1090.8</ele>
        <time>2020-02-08T09:45:24Z</time>
      </trkpt>
      <trkpt lat="42.71297" lon="1.6639">
        <ele>1090.8</ele>
        <time>2020-02-08T09:45:25Z</time>
      </trkpt>
      <trkpt lat="42.71297" lon="1.66389">
        <ele>1090.8</ele>
        <time>2020-02-08T09:45:26Z</time>
      </trkpt>
      <trkpt lat="42.71297" lon="1.66387">
        <ele>1090.8</ele>
        <time>2020-02-08T09:45:27Z</time>
      </trkpt>
      <trkpt lat="42.71297" lon="1.66386">
        <ele>1092.4</ele>
        <time>2020-02-08T09:45:28Z</time>
      </trkpt>
      <trkpt lat="42.71297" lon="1.66385">
        <ele>1092.4</ele>
        <time>2020-02-08T09:45:29Z</time>
      </trkpt>
      <trkpt lat="42.71297" lon="1.66384">
        <ele>1092.4</ele>
        <time>2020-02-08T09:45:30Z</time>
      </trkpt>
      <trkpt lat="42.71298" lon="1.66384">
        <ele>1092.4</ele>
        <time>2020-02-08T09:45:31Z</time>
      </trkpt>
      <trkpt lat="42.71298" lon="1.66384">
        <ele>1092.4</ele>
        <time>2020-02-08T09:45:32Z</time>
      </trkpt>
      <trkpt lat="42.71299" lon="1.66384">
        <ele>1092.4</ele>
        <time>2020-02-08T09:45:33Z</time>
      </trkpt>
      <trkpt lat="42.71299" lon="1.66384">
        <ele>1092.4</ele>
        <time>2020-02-08T09:45:34Z</time>
      </trkpt>
      <trkpt lat="42.713" lon="1.66384">
        <ele>1092.4</ele>
        <time>2020-02-08T09:45:35Z</time>
      </trkpt>
      <trkpt lat="42.713" lon="1.66383">
        <ele>1091.9</ele>
        <time>2020-02-08T09:45:36Z</time>
      </trkpt>
      <trkpt lat="42.71301" lon="1.66383">
        <ele>1091.9</ele>
        <time>2020-02-08T09:45:37Z</time>
      </trkpt>
      <trkpt lat="42.71301" lon="1.66383">
        <ele>1091.9</ele>
        <time>2020-02-08T09:45:38Z</time>
      </trkpt>
      <trkpt lat="42.71301" lon="1.66383">
        <ele>1091.9</ele>
        <time>2020-02-08T09:45:39Z</time>
      </trkpt>
      <trkpt lat="42.71302" lon="1.66383">
        <ele>1093.3</ele>
        <time>2020-02-08T09:45:40Z</time>
      </trkpt>
      <trkpt lat="42.71302" lon="1.66383">
        <ele>1093.3</ele>
        <time>2020-02-08T09:45:41Z</time>
      </trkpt>
      <trkpt lat="42.71303" lon="1.66382">
        <ele>1093.3</ele>
        <time>2020-02-08T09:45:42Z</time>
      </trkpt>
      <trkpt lat="42.71303" lon="1.66382">
        <ele>1092.8</ele>
        <time>2020-02-08T09:45:43Z</time>
      </trkpt>
      <trkpt lat="42.71304" lon="1.66382">
        <ele>1092.8</ele>
        <time>2020-02-08T09:45:44Z</time>
      </trkpt>
      <trkpt lat="42.71304" lon="1.66382">
        <ele>1092.8</ele>
        <time>2020-02-08T09:45:45Z</time>
      </trkpt>
      <trkpt lat="42.71304" lon="1.66382">
        <ele>1092.8</ele>
        <time>2020-02-08T09:45:46Z</time>
      </trkpt>
      <trkpt lat="42.71305" lon="1.66382">
        <ele>1092.8</ele>
        <time>2020-02-08T09:45:47Z</time>
      </trkpt>
      <trkpt lat="42.71305" lon="1.66381">
        <ele>1092.8</ele>
        <time>2020-02-08T09:45:48Z</time>
      </trkpt>
      <trkpt lat="42.71306" lon="1.66381">
        <ele>1092.8</ele>
        <time>2020-02-08T09:45:49Z</time>
      </trkpt>
      <trkpt lat="42.71306" lon="1.66382">
        <ele>1092.8</ele>
        <time>2020-02-08T09:45:50Z</time>
      </trkpt>
      <trkpt lat="42.71306" lon="1.66384">
        <ele>1091.3</ele>
        <time>2020-02-08T09:45:51Z</time>
      </trkpt>
      <trkpt lat="42.71305" lon="1.66385">
        <ele>1091.3</ele>
        <time>2020-02-08T09:45:52Z</time>
      </trkpt>
      <trkpt lat="42.71305" lon="1.66386">
        <ele>1091.3</ele>
        <time>2020-02-08T09:45:53Z</time>
      </trkpt>
      <trkpt lat="42.71305" lon="1.66387">
        <ele>1089.8</ele>
        <time>2020-02-08T09:45:54Z</time>
      </trkpt>
      <trkpt lat="42.71305" lon="1.66389">
        <ele>1089.8</ele>
        <time>2020-02-08T09:45:55Z</time>
      </trkpt>
      <trkpt lat="42.71305" lon="1.6639">
        <ele>1089.8</ele>
        <time>2020-02-08T09:45:56Z</time>
      </trkpt>
      <trkpt lat="42.71305" lon="1.66391">
        <ele>1089.8</ele>
        <time>2020-02-08T09:45:57Z</time>
      </trkpt>
      <trkpt lat="42.71305" lon="1.66392">
        <ele>1088.3</ele>
        <time>2020-02-08T09:45:58Z</time>
      </trkpt>
      <trkpt lat="42.71305" lon="1.66394">
        <ele>1088.3</ele>
        <time>2020-02-08T09:45:59Z</time>
      </trkpt>
      <trkpt lat="42.71304" lon="1.66394">
        <ele>1088.3</ele>
        <time>2020-02-08T09:46:00Z</time>
      </trkpt>
      <trkpt lat="42.71303" lon="1.66394">
        <ele>1088.8</ele>
        <time>2020-02-08T09:46:01Z</time>
      </trkpt>
      <trkpt lat="42.71301" lon="1.66395">
        <ele>1088.8</ele>
        <time>2020-02-08T09:46:02Z</time>
      </trkpt>
      <trkpt lat="42.713" lon="1.66395">
        <ele>1088.8</ele>
        <time>2020-02-08T09:46:03Z</time>
      </trkpt>
      <trkpt lat="42.71299" lon="1.66395">
        <ele>1089.3</ele>
        <time>2020-02-08T09:46:04Z</time>
      </trkpt>
      <trkpt lat="42.71298" lon="1.66395">
        <ele>1089.3</ele>
        <time>2020-02-08T09:46:05Z</time>
      </trkpt>
      <trkpt lat="42.71297" lon="1.66396">
        <ele>1089.3</ele>
        <time>2020-02-08T09:46:06Z</time>
      </trkpt>
      <trkpt lat="42.71296" lon="1.66396">
        <ele>1088.1</ele>
        <time>2020-02-08T09:46:07Z</time>
      </trkpt>
      <trkpt lat="42.71295" lon="1.66396">
        <ele>1088.1</ele>
        <time>2020-02-08T09:46:08Z</time>
      </trkpt>
      <trkpt lat="42.71294" lon="1.66396">
        <ele>1088.1</ele>
        <time>2020-02-08T09:46:09Z</time>
      </trkpt>
      <trkpt lat="42.71294" lon="1.66396">
        <ele>1088.1</ele>
        <time>2020-02-08T09:46:10Z</time>
      </trkpt>
      <trkpt lat="42.71293" lon="1.66396">
        <ele>1088.6</ele>
        <time>2020-02-08T09:46:11Z</time>
      </trkpt>
      <trkpt lat="42.71293" lon="1.66396">
        <ele>1088.6</ele>
        <time>2020-02-08T09:46:12Z</time>
      </trkpt>
      <trkpt lat="42.71293" lon="1.66396">
        <ele>1088.6</ele>
        <time>2020-02-08T09:46:13Z</time>
      </trkpt>
      <trkpt lat="42.71292" lon="1.66396">
        <ele>1088.6</ele>
        <time>2020-02-08T09:46:14Z</time>
      </trkpt>
      <trkpt lat="42.71292" lon="1.66396">
        <ele>1088.6</ele>
        <time>2020-02-08T09:46:15Z</time>
      </trkpt>
      <trkpt lat="42.71291" lon="1.66396">
        <ele>1088.6</ele>
        <time>2020-02-08T09:46:16Z</time>
      </trkpt>
      <trkpt lat="42.71291" lon="1.66396">
        <ele>1088.6</ele>
        <time>2020-02-08T09:46:17Z</time>
      </trkpt>
      <trkpt lat="42.7129" lon="1.66396">
        <ele>1089</ele>
        <time>2020-02-08T09:46:18Z</time>
      </trkpt>
      <trkpt lat="42.7129" lon="1.66396">
        <ele>1089</ele>
        <time>2020-02-08T09:46:19Z</time>
      </trkpt>
      <trkpt lat="42.71289" lon="1.66396">
        <ele>1089</ele>
        <time>2020-02-08T09:46:20Z</time>
      </trkpt>
      <trkpt lat="42.71289" lon="1.66396">
        <ele>1089</ele>
        <time>2020-02-08T09:46:21Z</time>
      </trkpt>
      <trkpt lat="42.71289" lon="1.66396">
        <ele>1089</ele>
        <time>2020-02-08T09:46:22Z</time>
      </trkpt>
      <trkpt lat="42.71288" lon="1.66396">
        <ele>1089</ele>
        <time>2020-02-08T09:46:23Z</time>
      </trkpt>
      <trkpt lat="42.71288" lon="1.66396">
        <ele>1089</ele>
        <time>2020-02-08T09:46:24Z</time>
      </trkpt>
      <trkpt lat="42.71287" lon="1.66396">
        <ele>1089.4</ele>
        <time>2020-02-08T09:46:25Z</time>
      </trkpt>
      <trkpt lat="42.71287" lon="1.66396">
        <ele>1089.4</ele>
        <time>2020-02-08T09:46:26Z</time>
      </trkpt>
      <trkpt lat="42.71286" lon="1.66396">
        <ele>1089.4</ele>
        <time>2020-02-08T09:46:27Z</time>
      </trkpt>
      <trkpt lat="42.71286" lon="1.66396">
        <ele>1089.4</ele>
        <time>2020-02-08T09:46:28Z</time>
      </trkpt>
      <trkpt lat="42.71285" lon="1.66396">
        <ele>1089.4</ele>
        <time>2020-02-08T09:46:29Z</time>
      </trkpt>
      <trkpt lat="42.71285" lon="1.66395">
        <ele>1091</ele>
        <time>2020-02-08T09:46:30Z</time>
      </trkpt>
      <trkpt lat="42.71284" lon="1.66393">
        <ele>1091</ele>
        <time>2020-02-08T09:46:31Z</time>
      </trkpt>
      <trkpt lat="42.71284" lon="1.66392">
        <ele>1091.5</ele>
        <time>2020-02-08T09:46:32Z</time>
      </trkpt>
      <trkpt lat="42.71283" lon="1.66391">
        <ele>1093.1</ele>
        <time>2020-02-08T09:46:33Z</time>
      </trkpt>
      <trkpt lat="42.71282" lon="1.6639">
        <ele>1093.1</ele>
        <time>2020-02-08T09:46:34Z</time>
      </trkpt>
      <trkpt lat="42.71282" lon="1.66388">
        <ele>1093.1</ele>
        <time>2020-02-08T09:46:35Z</time>
      </trkpt>
      <trkpt lat="42.71281" lon="1.66387">
        <ele>1094.7</ele>
        <time>2020-02-08T09:46:36Z</time>
      </trkpt>
      <trkpt lat="42.71281" lon="1.66386">
        <ele>1095.2</ele>
        <time>2020-02-08T09:46:37Z</time>
      </trkpt>
      <trkpt lat="42.7128" lon="1.66385">
        <ele>1095.2</ele>
        <time>2020-02-08T09:46:38Z</time>
      </trkpt>
      <trkpt lat="42.71279" lon="1.66383">
        <ele>1095.2</ele>
        <time>2020-02-08T09:46:39Z</time>
      </trkpt>
      <trkpt lat="42.71279" lon="1.66382">
        <ele>1096.7</ele>
        <time>2020-02-08T09:46:40Z</time>
      </trkpt>
      <trkpt lat="42.71279" lon="1.66381">
        <ele>1096.7</ele>
        <time>2020-02-08T09:46:41Z</time>
      </trkpt>
      <trkpt lat="42.71279" lon="1.6638">
        <ele>1096.7</ele>
        <time>2020-02-08T09:46:42Z</time>
      </trkpt>
      <trkpt lat="42.71279" lon="1.66378">
        <ele>1098.2</ele>
        <time>2020-02-08T09:46:43Z</time>
      </trkpt>
      <trkpt lat="42.71279" lon="1.66377">
        <ele>1098.2</ele>
        <time>2020-02-08T09:46:44Z</time>
      </trkpt>
      <trkpt lat="42.71279" lon="1.66376">
        <ele>1098.2</ele>
        <time>2020-02-08T09:46:45Z</time>
      </trkpt>
      <trkpt lat="42.71279" lon="1.66375">
        <ele>1098.2</ele>
        <time>2020-02-08T09:46:46Z</time>
      </trkpt>
      <trkpt lat="42.71278" lon="1.66373">
        <ele>1099.6</ele>
        <time>2020-02-08T09:46:47Z</time>
      </trkpt>
      <trkpt lat="42.71278" lon="1.66372">
        <ele>1099.6</ele>
        <time>2020-02-08T09:46:48Z</time>
      </trkpt>
      <trkpt lat="42.71278" lon="1.66371">
        <ele>1099.6</ele>
        <time>2020-02-08T09:46:49Z</time>
      </trkpt>
      <trkpt lat="42.71278" lon="1.66371">
        <ele>1099.6</ele>
        <time>2020-02-08T09:46:50Z</time>
      </trkpt>
      <trkpt lat="42.71278" lon="1.66371">
        <ele>1099.6</ele>
        <time>2020-02-08T09:46:51Z</time>
      </trkpt>
      <trkpt lat="42.71279" lon="1.6637">
        <ele>1099.6</ele>
        <time>2020-02-08T09:46:52Z</time>
      </trkpt>
      <trkpt lat="42.71279" lon="1.6637">
        <ele>1099.6</ele>
        <time>2020-02-08T09:46:53Z</time>
      </trkpt>
      <trkpt lat="42.71279" lon="1.6637">
        <ele>1099.6</ele>
        <time>2020-02-08T09:46:54Z</time>
      </trkpt>
      <trkpt lat="42.71279" lon="1.6637">
        <ele>1101.1</ele>
        <time>2020-02-08T09:46:55Z</time>
      </trkpt>
      <trkpt lat="42.71279" lon="1.6637">
        <ele>1101.1</ele>
        <time>2020-02-08T09:46:56Z</time>
      </trkpt>
      <trkpt lat="42.71279" lon="1.66369">
        <ele>1101.1</ele>
        <time>2020-02-08T09:46:57Z</time>
      </trkpt>
      <trkpt lat="42.71279" lon="1.66369">
        <ele>1101.1</ele>
        <time>2020-02-08T09:46:58Z</time>
      </trkpt>
      <trkpt lat="42.71279" lon="1.66369">
        <ele>1101.1</ele>
        <time>2020-02-08T09:46:59Z</time>
      </trkpt>
      <trkpt lat="42.7128" lon="1.66369">
        <ele>1101.1</ele>
        <time>2020-02-08T09:47:00Z</time>
      </trkpt>
      <trkpt lat="42.7128" lon="1.66369">
        <ele>1101.1</ele>
        <time>2020-02-08T09:47:01Z</time>
      </trkpt>
      <trkpt lat="42.7128" lon="1.66368">
        <ele>1101.1</ele>
        <time>2020-02-08T09:47:02Z</time>
      </trkpt>
      <trkpt lat="42.7128" lon="1.66368">
        <ele>1101.1</ele>
        <time>2020-02-08T09:47:03Z</time>
      </trkpt>
      <trkpt lat="42.7128" lon="1.66368">
        <ele>1101.1</ele>
        <time>2020-02-08T09:47:04Z</time>
      </trkpt>
      <trkpt lat="42.7128" lon="1.66368">
        <ele>1101.1</ele>
        <time>2020-02-08T09:47:05Z</time>
      </trkpt>
      <trkpt lat="42.7128" lon="1.66368">
        <ele>1101.1</ele>
        <time>2020-02-08T09:47:06Z</time>
      </trkpt>
      <trkpt lat="42.7128" lon="1.66367">
        <ele>1101.1</ele>
        <time>2020-02-08T09:47:07Z</time>
      </trkpt>
      <trkpt lat="42.71281" lon="1.66367">
        <ele>1101.1</ele>
        <time>2020-02-08T09:47:08Z</time>
      </trkpt>
      <trkpt lat="42.71281" lon="1.66367">
        <ele>1101.1</ele>
        <time>2020-02-08T09:47:09Z</time>
      </trkpt>
      <trkpt lat="42.71281" lon="1.66367">
        <ele>1101.1</ele>
        <time>2020-02-08T09:47:10Z</time>
      </trkpt>
      <trkpt lat="42.71281" lon="1.66367">
        <ele>1100.6</ele>
        <time>2020-02-08T09:47:11Z</time>
      </trkpt>
      <trkpt lat="42.71281" lon="1.66366">
        <ele>1100.6</ele>
        <time>2020-02-08T09:47:12Z</time>
      </trkpt>
      <trkpt lat="42.71281" lon="1.66366">
        <ele>1100.6</ele>
        <time>2020-02-08T09:47:13Z</time>
      </trkpt>
      <trkpt lat="42.71281" lon="1.66366">
        <ele>1100.6</ele>
        <time>2020-02-08T09:47:14Z</time>
      </trkpt>
      <trkpt lat="42.71281" lon="1.66366">
        <ele>1100.6</ele>
        <time>2020-02-08T09:47:15Z</time>
      </trkpt>
      <trkpt lat="42.71282" lon="1.66366">
        <ele>1102.1</ele>
        <time>2020-02-08T09:47:16Z</time>
      </trkpt>
      <trkpt lat="42.71282" lon="1.66365">
        <ele>1102.1</ele>
        <time>2020-02-08T09:47:17Z</time>
      </trkpt>
      <trkpt lat="42.71282" lon="1.66365">
        <ele>1102.1</ele>
        <time>2020-02-08T09:47:18Z</time>
      </trkpt>
      <trkpt lat="42.71282" lon="1.66365">
        <ele>1102.1</ele>
        <time>2020-02-08T09:47:19Z</time>
      </trkpt>
      <trkpt lat="42.71282" lon="1.66365">
        <ele>1102.1</ele>
        <time>2020-02-08T09:47:20Z</time>
      </trkpt>
      <trkpt lat="42.71282" lon="1.66365">
        <ele>1102.1</ele>
        <time>2020-02-08T09:47:21Z</time>
      </trkpt>
      <trkpt lat="42.71282" lon="1.66364">
        <ele>1102.1</ele>
        <time>2020-02-08T09:47:22Z</time>
      </trkpt>
      <trkpt lat="42.71282" lon="1.66364">
        <ele>1102.1</ele>
        <time>2020-02-08T09:47:23Z</time>
      </trkpt>
      <trkpt lat="42.71283" lon="1.66364">
        <ele>1102.1</ele>
        <time>2020-02-08T09:47:24Z</time>
      </trkpt>
      <trkpt lat="42.71283" lon="1.66364">
        <ele>1102.1</ele>
        <time>2020-02-08T09:47:25Z</time>
      </trkpt>
      <trkpt lat="42.71283" lon="1.66364">
        <ele>1102.1</ele>
        <time>2020-02-08T09:47:26Z</time>
      </trkpt>
      <trkpt lat="42.71283" lon="1.66363">
        <ele>1102.1</ele>
        <time>2020-02-08T09:47:27Z</time>
      </trkpt>
      <trkpt lat="42.71283" lon="1.66363">
        <ele>1102.1</ele>
        <time>2020-02-08T09:47:28Z</time>
      </trkpt>
      <trkpt lat="42.71283" lon="1.66363">
        <ele>1102.1</ele>
        <time>2020-02-08T09:47:29Z</time>
      </trkpt>
      <trkpt lat="42.71283" lon="1.66363">
        <ele>1102.1</ele>
        <time>2020-02-08T09:47:30Z</time>
      </trkpt>
      <trkpt lat="42.71283" lon="1.66363">
        <ele>1102.1</ele>
        <time>2020-02-08T09:47:31Z</time>
      </trkpt>
      <trkpt lat="42.71283" lon="1.66362">
        <ele>1102.1</ele>
        <time>2020-02-08T09:47:32Z</time>
      </trkpt>
      <trkpt lat="42.71284" lon="1.66362">
        <ele>1102.1</ele>
        <time>2020-02-08T09:47:33Z</time>
      </trkpt>
      <trkpt lat="42.71284" lon="1.66362">
        <ele>1102.1</ele>
        <time>2020-02-08T09:47:34Z</time>
      </trkpt>
      <trkpt lat="42.71284" lon="1.66362">
        <ele>1102.1</ele>
        <time>2020-02-08T09:47:35Z</time>
      </trkpt>
      <trkpt lat="42.71284" lon="1.66362">
        <ele>1102.1</ele>
        <time>2020-02-08T09:47:36Z</time>
      </trkpt>
      <trkpt lat="42.71284" lon="1.66361">
        <ele>1103.1</ele>
        <time>2020-02-08T09:47:37Z</time>
      </trkpt>
      <trkpt lat="42.71284" lon="1.66361">
        <ele>1103.1</ele>
        <time>2020-02-08T09:47:38Z</time>
      </trkpt>
      <trkpt lat="42.71284" lon="1.66361">
        <ele>1103.1</ele>
        <time>2020-02-08T09:47:39Z</time>
      </trkpt>
      <trkpt lat="42.71285" lon="1.6636">
        <ele>1103.1</ele>
        <time>2020-02-08T09:47:40Z</time>
      </trkpt>
      <trkpt lat="42.71285" lon="1.66359">
        <ele>1103.1</ele>
        <time>2020-02-08T09:47:41Z</time>
      </trkpt>
      <trkpt lat="42.71285" lon="1.66357">
        <ele>1103.1</ele>
        <time>2020-02-08T09:47:42Z</time>
      </trkpt>
      <trkpt lat="42.71285" lon="1.66356">
        <ele>1104.7</ele>
        <time>2020-02-08T09:47:43Z</time>
      </trkpt>
      <trkpt lat="42.71286" lon="1.66355">
        <ele>1104.7</ele>
        <time>2020-02-08T09:47:44Z</time>
      </trkpt>
      <trkpt lat="42.71286" lon="1.66354">
        <ele>1104.7</ele>
        <time>2020-02-08T09:47:45Z</time>
      </trkpt>
      <trkpt lat="42.71286" lon="1.66352">
        <ele>1106.2</ele>
        <time>2020-02-08T09:47:46Z</time>
      </trkpt>
      <trkpt lat="42.71286" lon="1.66351">
        <ele>1106.2</ele>
        <time>2020-02-08T09:47:47Z</time>
      </trkpt>
      <trkpt lat="42.71287" lon="1.6635">
        <ele>1106.2</ele>
        <time>2020-02-08T09:47:48Z</time>
      </trkpt>
      <trkpt lat="42.71287" lon="1.66349">
        <ele>1106.2</ele>
        <time>2020-02-08T09:47:49Z</time>
      </trkpt>
      <trkpt lat="42.71287" lon="1.66349">
        <ele>1106.2</ele>
        <time>2020-02-08T09:47:50Z</time>
      </trkpt>
      <trkpt lat="42.71287" lon="1.6635">
        <ele>1106.2</ele>
        <time>2020-02-08T09:47:51Z</time>
      </trkpt>
      <trkpt lat="42.71286" lon="1.66351">
        <ele>1106.2</ele>
        <time>2020-02-08T09:47:52Z</time>
      </trkpt>
      <trkpt lat="42.71286" lon="1.66351">
        <ele>1106.2</ele>
        <time>2020-02-08T09:47:53Z</time>
      </trkpt>
      <trkpt lat="42.71286" lon="1.66352">
        <ele>1106.2</ele>
        <time>2020-02-08T09:47:54Z</time>
      </trkpt>
      <trkpt lat="42.71286" lon="1.66352">
        <ele>1106.2</ele>
        <time>2020-02-08T09:47:55Z</time>
      </trkpt>
      <trkpt lat="42.71286" lon="1.66353">
        <ele>1104.7</ele>
        <time>2020-02-08T09:47:56Z</time>
      </trkpt>
      <trkpt lat="42.71286" lon="1.66353">
        <ele>1104.7</ele>
        <time>2020-02-08T09:47:57Z</time>
      </trkpt>
      <trkpt lat="42.71285" lon="1.66354">
        <ele>1104.7</ele>
        <time>2020-02-08T09:47:58Z</time>
      </trkpt>
      <trkpt lat="42.71285" lon="1.66355">
        <ele>1104.7</ele>
        <time>2020-02-08T09:47:59Z</time>
      </trkpt>
      <trkpt lat="42.71285" lon="1.66355">
        <ele>1104.7</ele>
        <time>2020-02-08T09:48:00Z</time>
      </trkpt>
      <trkpt lat="42.71285" lon="1.66356">
        <ele>1104.7</ele>
        <time>2020-02-08T09:48:01Z</time>
      </trkpt>
      <trkpt lat="42.71285" lon="1.66356">
        <ele>1104.7</ele>
        <time>2020-02-08T09:48:02Z</time>
      </trkpt>
      <trkpt lat="42.71285" lon="1.66357">
        <ele>1104.7</ele>
        <time>2020-02-08T09:48:03Z</time>
      </trkpt>
      <trkpt lat="42.71285" lon="1.66358">
        <ele>1103.1</ele>
        <time>2020-02-08T09:48:04Z</time>
      </trkpt>
      <trkpt lat="42.71284" lon="1.66358">
        <ele>1103.1</ele>
        <time>2020-02-08T09:48:05Z</time>
      </trkpt>
      <trkpt lat="42.71284" lon="1.66359">
        <ele>1103.1</ele>
        <time>2020-02-08T09:48:06Z</time>
      </trkpt>
      <trkpt lat="42.71284" lon="1.66359">
        <ele>1103.6</ele>
        <time>2020-02-08T09:48:07Z</time>
      </trkpt>
      <trkpt lat="42.71284" lon="1.6636">
        <ele>1103.6</ele>
        <time>2020-02-08T09:48:08Z</time>
      </trkpt>
      <trkpt lat="42.71284" lon="1.6636">
        <ele>1103.6</ele>
        <time>2020-02-08T09:48:09Z</time>
      </trkpt>
      <trkpt lat="42.71284" lon="1.66359">
        <ele>1103.6</ele>
        <time>2020-02-08T09:48:10Z</time>
      </trkpt>
      <trkpt lat="42.71284" lon="1.66358">
        <ele>1103.6</ele>
        <time>2020-02-08T09:48:11Z</time>
      </trkpt>
      <trkpt lat="42.71284" lon="1.66357">
        <ele>1105.2</ele>
        <time>2020-02-08T09:48:12Z</time>
      </trkpt>
      <trkpt lat="42.71284" lon="1.66355">
        <ele>1105.2</ele>
        <time>2020-02-08T09:48:13Z</time>
      </trkpt>
      <trkpt lat="42.71284" lon="1.66354">
        <ele>1105.2</ele>
        <time>2020-02-08T09:48:14Z</time>
      </trkpt>
      <trkpt lat="42.71284" lon="1.66353">
        <ele>1105.2</ele>
        <time>2020-02-08T09:48:15Z</time>
      </trkpt>
      <trkpt lat="42.71284" lon="1.66352">
        <ele>1106.8</ele>
        <time>2020-02-08T09:48:16Z</time>
      </trkpt>
      <trkpt lat="42.71284" lon="1.66351">
        <ele>1106.8</ele>
        <time>2020-02-08T09:48:17Z</time>
      </trkpt>
      <trkpt lat="42.71284" lon="1.66349">
        <ele>1106.2</ele>
        <time>2020-02-08T09:48:18Z</time>
      </trkpt>
      <trkpt lat="42.71284" lon="1.66348">
        <ele>1107.8</ele>
        <time>2020-02-08T09:48:19Z</time>
      </trkpt>
      <trkpt lat="42.71284" lon="1.66348">
        <ele>1108.3</ele>
        <time>2020-02-08T09:48:20Z</time>
      </trkpt>
      <trkpt lat="42.71284" lon="1.66348">
        <ele>1108.3</ele>
        <time>2020-02-08T09:48:21Z</time>
      </trkpt>
      <trkpt lat="42.71284" lon="1.66348">
        <ele>1108.3</ele>
        <time>2020-02-08T09:48:22Z</time>
      </trkpt>
      <trkpt lat="42.71284" lon="1.66347">
        <ele>1108.3</ele>
        <time>2020-02-08T09:48:23Z</time>
      </trkpt>
      <trkpt lat="42.71284" lon="1.66347">
        <ele>1108.3</ele>
        <time>2020-02-08T09:48:24Z</time>
      </trkpt>
      <trkpt lat="42.71283" lon="1.66347">
        <ele>1108.3</ele>
        <time>2020-02-08T09:48:25Z</time>
      </trkpt>
      <trkpt lat="42.71283" lon="1.66347">
        <ele>1108.3</ele>
        <time>2020-02-08T09:48:26Z</time>
      </trkpt>
      <trkpt lat="42.71283" lon="1.66347">
        <ele>1108.3</ele>
        <time>2020-02-08T09:48:27Z</time>
      </trkpt>
      <trkpt lat="42.71283" lon="1.66347">
        <ele>1108.3</ele>
        <time>2020-02-08T09:48:28Z</time>
      </trkpt>
      <trkpt lat="42.71283" lon="1.66347">
        <ele>1108.3</ele>
        <time>2020-02-08T09:48:29Z</time>
      </trkpt>
      <trkpt lat="42.71283" lon="1.66347">
        <ele>1108.3</ele>
        <time>2020-02-08T09:48:30Z</time>
      </trkpt>
      <trkpt lat="42.71283" lon="1.66346">
        <ele>1108.3</ele>
        <time>2020-02-08T09:48:31Z</time>
      </trkpt>
      <trkpt lat="42.71283" lon="1.66346">
        <ele>1108.3</ele>
        <time>2020-02-08T09:48:32Z</time>
      </trkpt>
      <trkpt lat="42.71283" lon="1.66346">
        <ele>1108.3</ele>
        <time>2020-02-08T09:48:33Z</time>
      </trkpt>
      <trkpt lat="42.71283" lon="1.66346">
        <ele>1108.3</ele>
        <time>2020-02-08T09:48:34Z</time>
      </trkpt>
      <trkpt lat="42.71282" lon="1.66346">
        <ele>1108.3</ele>
        <time>2020-02-08T09:48:35Z</time>
      </trkpt>
      <trkpt lat="42.71282" lon="1.66346">
        <ele>1108.3</ele>
        <time>2020-02-08T09:48:36Z</time>
      </trkpt>
      <trkpt lat="42.71282" lon="1.66346">
        <ele>1108.3</ele>
        <time>2020-02-08T09:48:37Z</time>
      </trkpt>
      <trkpt lat="42.71282" lon="1.66345">
        <ele>1108.3</ele>
        <time>2020-02-08T09:48:38Z</time>
      </trkpt>
      <trkpt lat="42.71282" lon="1.66345">
        <ele>1108.3</ele>
        <time>2020-02-08T09:48:39Z</time>
      </trkpt>
      <trkpt lat="42.71282" lon="1.66345">
        <ele>1108.3</ele>
        <time>2020-02-08T09:48:40Z</time>
      </trkpt>
      <trkpt lat="42.71282" lon="1.66345">
        <ele>1108.3</ele>
        <time>2020-02-08T09:48:41Z</time>
      </trkpt>
      <trkpt lat="42.71282" lon="1.66345">
        <ele>1108.3</ele>
        <time>2020-02-08T09:48:42Z</time>
      </trkpt>
      <trkpt lat="42.71282" lon="1.66345">
        <ele>1108.3</ele>
        <time>2020-02-08T09:48:43Z</time>
      </trkpt>
      <trkpt lat="42.71281" lon="1.66345">
        <ele>1108.3</ele>
        <time>2020-02-08T09:48:44Z</time>
      </trkpt>
      <trkpt lat="42.71281" lon="1.66344">
        <ele>1108.3</ele>
        <time>2020-02-08T09:48:45Z</time>
      </trkpt>
      <trkpt lat="42.71281" lon="1.66344">
        <ele>1108.3</ele>
        <time>2020-02-08T09:48:46Z</time>
      </trkpt>
      <trkpt lat="42.71281" lon="1.66344">
        <ele>1109.8</ele>
        <time>2020-02-08T09:48:47Z</time>
      </trkpt>
      <trkpt lat="42.71281" lon="1.66344">
        <ele>1109.8</ele>
        <time>2020-02-08T09:48:48Z</time>
      </trkpt>
      <trkpt lat="42.71281" lon="1.66344">
        <ele>1110.4</ele>
        <time>2020-02-08T09:48:49Z</time>
      </trkpt>
      <trkpt lat="42.71281" lon="1.66344">
        <ele>1110.4</ele>
        <time>2020-02-08T09:48:50Z</time>
      </trkpt>
      <trkpt lat="42.71281" lon="1.66344">
        <ele>1110.4</ele>
        <time>2020-02-08T09:48:51Z</time>
      </trkpt>
      <trkpt lat="42.71281" lon="1.66343">
        <ele>1110.4</ele>
        <time>2020-02-08T09:48:52Z</time>
      </trkpt>
      <trkpt lat="42.7128" lon="1.66343">
        <ele>1110.4</ele>
        <time>2020-02-08T09:48:53Z</time>
      </trkpt>
      <trkpt lat="42.7128" lon="1.66343">
        <ele>1110.4</ele>
        <time>2020-02-08T09:48:54Z</time>
      </trkpt>
      <trkpt lat="42.7128" lon="1.66343">
        <ele>1110.4</ele>
        <time>2020-02-08T09:48:55Z</time>
      </trkpt>
      <trkpt lat="42.7128" lon="1.66343">
        <ele>1110.4</ele>
        <time>2020-02-08T09:48:56Z</time>
      </trkpt>
      <trkpt lat="42.7128" lon="1.66343">
        <ele>1110.4</ele>
        <time>2020-02-08T09:48:57Z</time>
      </trkpt>
      <trkpt lat="42.7128" lon="1.66343">
        <ele>1110.4</ele>
        <time>2020-02-08T09:48:58Z</time>
      </trkpt>
      <trkpt lat="42.7128" lon="1.66342">
        <ele>1110.4</ele>
        <time>2020-02-08T09:48:59Z</time>
      </trkpt>
      <trkpt lat="42.7128" lon="1.66342">
        <ele>1110.4</ele>
        <time>2020-02-08T09:49:00Z</time>
      </trkpt>
      <trkpt lat="42.7128" lon="1.66342">
        <ele>1110.4</ele>
        <time>2020-02-08T09:49:01Z</time>
      </trkpt>
      <trkpt lat="42.71279" lon="1.66342">
        <ele>1110.4</ele>
        <time>2020-02-08T09:49:02Z</time>
      </trkpt>
      <trkpt lat="42.71279" lon="1.66342">
        <ele>1110.4</ele>
        <time>2020-02-08T09:49:03Z</time>
      </trkpt>
      <trkpt lat="42.71279" lon="1.66342">
        <ele>1110.4</ele>
        <time>2020-02-08T09:49:04Z</time>
      </trkpt>
      <trkpt lat="42.71279" lon="1.66342">
        <ele>1110.4</ele>
        <time>2020-02-08T09:49:05Z</time>
      </trkpt>
      <trkpt lat="42.71279" lon="1.66341">
        <ele>1110.4</ele>
        <time>2020-02-08T09:49:06Z</time>
      </trkpt>
      <trkpt lat="42.71279" lon="1.66341">
        <ele>1110.4</ele>
        <time>2020-02-08T09:49:07Z</time>
      </trkpt>
      <trkpt lat="42.71279" lon="1.66341">
        <ele>1110.4</ele>
        <time>2020-02-08T09:49:08Z</time>
      </trkpt>
      <trkpt lat="42.71279" lon="1.66341">
        <ele>1110.4</ele>
        <time>2020-02-08T09:49:09Z</time>
      </trkpt>
      <trkpt lat="42.71279" lon="1.66341">
        <ele>1110.4</ele>
        <time>2020-02-08T09:49:10Z</time>
      </trkpt>
      <trkpt lat="42.71278" lon="1.66341">
        <ele>1110.4</ele>
        <time>2020-02-08T09:49:11Z</time>
      </trkpt>
      <trkpt lat="42.71278" lon="1.66341">
        <ele>1110.4</ele>
        <time>2020-02-08T09:49:12Z</time>
      </trkpt>
      <trkpt lat="42.71278" lon="1.6634">
        <ele>1110.4</ele>
        <time>2020-02-08T09:49:13Z</time>
      </trkpt>
      <trkpt lat="42.71278" lon="1.6634">
        <ele>1110.4</ele>
        <time>2020-02-08T09:49:14Z</time>
      </trkpt>
      <trkpt lat="42.71278" lon="1.6634">
        <ele>1110.4</ele>
        <time>2020-02-08T09:49:15Z</time>
      </trkpt>
      <trkpt lat="42.71278" lon="1.6634">
        <ele>1110.4</ele>
        <time>2020-02-08T09:49:16Z</time>
      </trkpt>
      <trkpt lat="42.71278" lon="1.6634">
        <ele>1110.9</ele>
        <time>2020-02-08T09:49:17Z</time>
      </trkpt>
      <trkpt lat="42.71278" lon="1.6634">
        <ele>1112.4</ele>
        <time>2020-02-08T09:49:18Z</time>
      </trkpt>
      <trkpt lat="42.71278" lon="1.6634">
        <ele>1112.4</ele>
        <time>2020-02-08T09:49:19Z</time>
      </trkpt>
      <trkpt lat="42.71278" lon="1.6634">
        <ele>1112.4</ele>
        <time>2020-02-08T09:49:20Z</time>
      </trkpt>
      <trkpt lat="42.71278" lon="1.6634">
        <ele>1112.4</ele>
        <time>2020-02-08T09:49:21Z</time>
      </trkpt>
      <trkpt lat="42.71278" lon="1.6634">
        <ele>1111.8</ele>
        <time>2020-02-08T09:49:22Z</time>
      </trkpt>
      <trkpt lat="42.71278" lon="1.6634">
        <ele>1110.4</ele>
        <time>2020-02-08T09:49:23Z</time>
      </trkpt>
      <trkpt lat="42.71278" lon="1.6634">
        <ele>1110.4</ele>
        <time>2020-02-08T09:49:24Z</time>
      </trkpt>
      <trkpt lat="42.71278" lon="1.6634">
        <ele>1110.4</ele>
        <time>2020-02-08T09:49:25Z</time>
      </trkpt>
      <trkpt lat="42.71278" lon="1.6634">
        <ele>1110.4</ele>
        <time>2020-02-08T09:49:26Z</time>
      </trkpt>
      <trkpt lat="42.71278" lon="1.6634">
        <ele>1110.4</ele>
        <time>2020-02-08T09:49:27Z</time>
      </trkpt>
      <trkpt lat="42.71278" lon="1.6634">
        <ele>1110.4</ele>
        <time>2020-02-08T09:49:28Z</time>
      </trkpt>
      <trkpt lat="42.71278" lon="1.6634">
        <ele>1110.4</ele>
        <time>2020-02-08T09:49:29Z</time>
      </trkpt>
      <trkpt lat="42.71278" lon="1.66341">
        <ele>1110.4</ele>
        <time>2020-02-08T09:49:30Z</time>
      </trkpt>
      <trkpt lat="42.71279" lon="1.66341">
        <ele>1110.4</ele>
        <time>2020-02-08T09:49:31Z</time>
      </trkpt>
      <trkpt lat="42.71279" lon="1.66341">
        <ele>1110.4</ele>
        <time>2020-02-08T09:49:32Z</time>
      </trkpt>
      <trkpt lat="42.71279" lon="1.66341">
        <ele>1110.4</ele>
        <time>2020-02-08T09:49:33Z</time>
      </trkpt>
      <trkpt lat="42.71279" lon="1.66341">
        <ele>1110.4</ele>
        <time>2020-02-08T09:49:34Z</time>
      </trkpt>
      <trkpt lat="42.71279" lon="1.66341">
        <ele>1110.4</ele>
        <time>2020-02-08T09:49:35Z</time>
      </trkpt>
      <trkpt lat="42.71279" lon="1.66341">
        <ele>1110.4</ele>
        <time>2020-02-08T09:49:36Z</time>
      </trkpt>
      <trkpt lat="42.71279" lon="1.66341">
        <ele>1110.4</ele>
        <time>2020-02-08T09:49:37Z</time>
      </trkpt>
      <trkpt lat="42.71279" lon="1.66341">
        <ele>1110.4</ele>
        <time>2020-02-08T09:49:38Z</time>
      </trkpt>
      <trkpt lat="42.71279" lon="1.66341">
        <ele>1110.4</ele>
        <time>2020-02-08T09:49:39Z</time>
      </trkpt>
      <trkpt lat="42.71279" lon="1.66341">
        <ele>1110.4</ele>
        <time>2020-02-08T09:49:40Z</time>
      </trkpt>
      <trkpt lat="42.71279" lon="1.66341">
        <ele>1110.4</ele>
        <time>2020-02-08T09:49:41Z</time>
      </trkpt>
      <trkpt lat="42.71279" lon="1.66341">
        <ele>1110.4</ele>
        <time>2020-02-08T09:49:42Z</time>
      </trkpt>
      <trkpt lat="42.7128" lon="1.66342">
        <ele>1110.4</ele>
        <time>2020-02-08T09:49:43Z</time>
      </trkpt>
      <trkpt lat="42.7128" lon="1.66342">
        <ele>1110.4</ele>
        <time>2020-02-08T09:49:44Z</time>
      </trkpt>
      <trkpt lat="42.7128" lon="1.66342">
        <ele>1110.4</ele>
        <time>2020-02-08T09:49:45Z</time>
      </trkpt>
      <trkpt lat="42.7128" lon="1.66342">
        <ele>1110.4</ele>
        <time>2020-02-08T09:49:46Z</time>
      </trkpt>
      <trkpt lat="42.7128" lon="1.66342">
        <ele>1110.4</ele>
        <time>2020-02-08T09:49:47Z</time>
      </trkpt>
      <trkpt lat="42.7128" lon="1.66342">
        <ele>1110.4</ele>
        <time>2020-02-08T09:49:48Z</time>
      </trkpt>
      <trkpt lat="42.7128" lon="1.66342">
        <ele>1110.4</ele>
        <time>2020-02-08T09:49:49Z</time>
      </trkpt>
      <trkpt lat="42.7128" lon="1.66342">
        <ele>1110.4</ele>
        <time>2020-02-08T09:49:50Z</time>
      </trkpt>
      <trkpt lat="42.7128" lon="1.66342">
        <ele>1110.4</ele>
        <time>2020-02-08T09:49:51Z</time>
      </trkpt>
      <trkpt lat="42.7128" lon="1.66342">
        <ele>1110.4</ele>
        <time>2020-02-08T09:49:52Z</time>
      </trkpt>
      <trkpt lat="42.7128" lon="1.66342">
        <ele>1110.4</ele>
        <time>2020-02-08T09:49:53Z</time>
      </trkpt>
      <trkpt lat="42.71281" lon="1.66342">
        <ele>1110.4</ele>
        <time>2020-02-08T09:49:54Z</time>
      </trkpt>
      <trkpt lat="42.71281" lon="1.66343">
        <ele>1110.4</ele>
        <time>2020-02-08T09:49:55Z</time>
      </trkpt>
      <trkpt lat="42.71281" lon="1.66343">
        <ele>1110.4</ele>
        <time>2020-02-08T09:49:56Z</time>
      </trkpt>
      <trkpt lat="42.71281" lon="1.66343">
        <ele>1110.4</ele>
        <time>2020-02-08T09:49:57Z</time>
      </trkpt>
      <trkpt lat="42.71281" lon="1.66343">
        <ele>1110.4</ele>
        <time>2020-02-08T09:49:58Z</time>
      </trkpt>
      <trkpt lat="42.71281" lon="1.66343">
        <ele>1109.8</ele>
        <time>2020-02-08T09:49:59Z</time>
      </trkpt>
      <trkpt lat="42.71281" lon="1.66343">
        <ele>1109.8</ele>
        <time>2020-02-08T09:50:00Z</time>
      </trkpt>
      <trkpt lat="42.71281" lon="1.66343">
        <ele>1109.8</ele>
        <time>2020-02-08T09:50:01Z</time>
      </trkpt>
      <trkpt lat="42.71281" lon="1.66343">
        <ele>1109.8</ele>
        <time>2020-02-08T09:50:02Z</time>
      </trkpt>
      <trkpt lat="42.71281" lon="1.66343">
        <ele>1109.8</ele>
        <time>2020-02-08T09:50:03Z</time>
      </trkpt>
      <trkpt lat="42.71281" lon="1.66343">
        <ele>1109.8</ele>
        <time>2020-02-08T09:50:04Z</time>
      </trkpt>
      <trkpt lat="42.71281" lon="1.66343">
        <ele>1109.8</ele>
        <time>2020-02-08T09:50:05Z</time>
      </trkpt>
      <trkpt lat="42.71282" lon="1.66343">
        <ele>1109.8</ele>
        <time>2020-02-08T09:50:06Z</time>
      </trkpt>
      <trkpt lat="42.71282" lon="1.66343">
        <ele>1109.8</ele>
        <time>2020-02-08T09:50:07Z</time>
      </trkpt>
      <trkpt lat="42.71282" lon="1.66344">
        <ele>1109.8</ele>
        <time>2020-02-08T09:50:08Z</time>
      </trkpt>
      <trkpt lat="42.71282" lon="1.66344">
        <ele>1109.8</ele>
        <time>2020-02-08T09:50:09Z</time>
      </trkpt>
      <trkpt lat="42.71282" lon="1.66344">
        <ele>1109.8</ele>
        <time>2020-02-08T09:50:10Z</time>
      </trkpt>
      <trkpt lat="42.71282" lon="1.66344">
        <ele>1109.8</ele>
        <time>2020-02-08T09:50:11Z</time>
      </trkpt>
      <trkpt lat="42.71282" lon="1.66344">
        <ele>1109.8</ele>
        <time>2020-02-08T09:50:12Z</time>
      </trkpt>
      <trkpt lat="42.71282" lon="1.66344">
        <ele>1109.8</ele>
        <time>2020-02-08T09:50:13Z</time>
      </trkpt>
      <trkpt lat="42.71282" lon="1.66344">
        <ele>1109.8</ele>
        <time>2020-02-08T09:50:14Z</time>
      </trkpt>
      <trkpt lat="42.71282" lon="1.66344">
        <ele>1109.8</ele>
        <time>2020-02-08T09:50:15Z</time>
      </trkpt>
      <trkpt lat="42.71282" lon="1.66344">
        <ele>1108.3</ele>
        <time>2020-02-08T09:50:16Z</time>
      </trkpt>
      <trkpt lat="42.71282" lon="1.66344">
        <ele>1108.3</ele>
        <time>2020-02-08T09:50:17Z</time>
      </trkpt>
      <trkpt lat="42.71283" lon="1.66344">
        <ele>1108.3</ele>
        <time>2020-02-08T09:50:18Z</time>
      </trkpt>
      <trkpt lat="42.71283" lon="1.66344">
        <ele>1108.3</ele>
        <time>2020-02-08T09:50:19Z</time>
      </trkpt>
      <trkpt lat="42.71283" lon="1.66345">
        <ele>1108.3</ele>
        <time>2020-02-08T09:50:20Z</time>
      </trkpt>
      <trkpt lat="42.71283" lon="1.66345">
        <ele>1108.3</ele>
        <time>2020-02-08T09:50:21Z</time>
      </trkpt>
      <trkpt lat="42.71283" lon="1.66345">
        <ele>1108.3</ele>
        <time>2020-02-08T09:50:22Z</time>
      </trkpt>
      <trkpt lat="42.71283" lon="1.66345">
        <ele>1108.3</ele>
        <time>2020-02-08T09:50:23Z</time>
      </trkpt>
      <trkpt lat="42.71283" lon="1.66345">
        <ele>1108.3</ele>
        <time>2020-02-08T09:50:24Z</time>
      </trkpt>
      <trkpt lat="42.71283" lon="1.66345">
        <ele>1108.3</ele>
        <time>2020-02-08T09:50:25Z</time>
      </trkpt>
      <trkpt lat="42.71283" lon="1.66345">
        <ele>1108.3</ele>
        <time>2020-02-08T09:50:26Z</time>
      </trkpt>
      <trkpt lat="42.71283" lon="1.66345">
        <ele>1108.3</ele>
        <time>2020-02-08T09:50:27Z</time>
      </trkpt>
      <trkpt lat="42.71283" lon="1.66345">
        <ele>1108.3</ele>
        <time>2020-02-08T09:50:28Z</time>
      </trkpt>
      <trkpt lat="42.71283" lon="1.66345">
        <ele>1108.3</ele>
        <time>2020-02-08T09:50:29Z</time>
      </trkpt>
      <trkpt lat="42.71284" lon="1.66345">
        <ele>1108.3</ele>
        <time>2020-02-08T09:50:30Z</time>
      </trkpt>
      <trkpt lat="42.71284" lon="1.66345">
        <ele>1108.3</ele>
        <time>2020-02-08T09:50:31Z</time>
      </trkpt>
      <trkpt lat="42.71284" lon="1.66345">
        <ele>1108.3</ele>
        <time>2020-02-08T09:50:32Z</time>
      </trkpt>
      <trkpt lat="42.71284" lon="1.66346">
        <ele>1108.3</ele>
        <time>2020-02-08T09:50:33Z</time>
      </trkpt>
      <trkpt lat="42.71284" lon="1.66346">
        <ele>1108.3</ele>
        <time>2020-02-08T09:50:34Z</time>
      </trkpt>
      <trkpt lat="42.71284" lon="1.66346">
        <ele>1108.3</ele>
        <time>2020-02-08T09:50:35Z</time>
      </trkpt>
      <trkpt lat="42.71284" lon="1.66346">
        <ele>1108.3</ele>
        <time>2020-02-08T09:50:36Z</time>
      </trkpt>
      <trkpt lat="42.71284" lon="1.66346">
        <ele>1107.8</ele>
        <time>2020-02-08T09:50:37Z</time>
      </trkpt>
      <trkpt lat="42.71284" lon="1.66346">
        <ele>1107.8</ele>
        <time>2020-02-08T09:50:38Z</time>
      </trkpt>
      <trkpt lat="42.71284" lon="1.66346">
        <ele>1107.8</ele>
        <time>2020-02-08T09:50:39Z</time>
      </trkpt>
      <trkpt lat="42.71284" lon="1.66346">
        <ele>1107.8</ele>
        <time>2020-02-08T09:50:40Z</time>
      </trkpt>
      <trkpt lat="42.71284" lon="1.66346">
        <ele>1107.8</ele>
        <time>2020-02-08T09:50:41Z</time>
      </trkpt>
      <trkpt lat="42.71285" lon="1.66346">
        <ele>1107.8</ele>
        <time>2020-02-08T09:50:42Z</time>
      </trkpt>
      <trkpt lat="42.71285" lon="1.66346">
        <ele>1107.8</ele>
        <time>2020-02-08T09:50:43Z</time>
      </trkpt>
      <trkpt lat="42.71285" lon="1.66346">
        <ele>1107.8</ele>
        <time>2020-02-08T09:50:44Z</time>
      </trkpt>
      <trkpt lat="42.71285" lon="1.66347">
        <ele>1107.8</ele>
        <time>2020-02-08T09:50:45Z</time>
      </trkpt>
      <trkpt lat="42.71285" lon="1.66347">
        <ele>1107.8</ele>
        <time>2020-02-08T09:50:46Z</time>
      </trkpt>
      <trkpt lat="42.71285" lon="1.66347">
        <ele>1107.8</ele>
        <time>2020-02-08T09:50:47Z</time>
      </trkpt>
      <trkpt lat="42.71285" lon="1.66347">
        <ele>1107.8</ele>
        <time>2020-02-08T09:50:48Z</time>
      </trkpt>
      <trkpt lat="42.71285" lon="1.66347">
        <ele>1107.8</ele>
        <time>2020-02-08T09:50:49Z</time>
      </trkpt>
      <trkpt lat="42.71285" lon="1.66347">
        <ele>1107.8</ele>
        <time>2020-02-08T09:50:50Z</time>
      </trkpt>
      <trkpt lat="42.71285" lon="1.66347">
        <ele>1107.8</ele>
        <time>2020-02-08T09:50:51Z</time>
      </trkpt>
      <trkpt lat="42.71284" lon="1.66347">
        <ele>1107.8</ele>
        <time>2020-02-08T09:50:52Z</time>
      </trkpt>
      <trkpt lat="42.71284" lon="1.66347">
        <ele>1108.3</ele>
        <time>2020-02-08T09:50:53Z</time>
      </trkpt>
      <trkpt lat="42.71284" lon="1.66347">
        <ele>1108.3</ele>
        <time>2020-02-08T09:50:54Z</time>
      </trkpt>
      <trkpt lat="42.71283" lon="1.66347">
        <ele>1108.3</ele>
        <time>2020-02-08T09:50:55Z</time>
      </trkpt>
      <trkpt lat="42.71283" lon="1.66348">
        <ele>1108.3</ele>
        <time>2020-02-08T09:50:56Z</time>
      </trkpt>
      <trkpt lat="42.71283" lon="1.66348">
        <ele>1108.3</ele>
        <time>2020-02-08T09:50:57Z</time>
      </trkpt>
      <trkpt lat="42.71282" lon="1.66348">
        <ele>1108.3</ele>
        <time>2020-02-08T09:50:58Z</time>
      </trkpt>
      <trkpt lat="42.71282" lon="1.66348">
        <ele>1108.3</ele>
        <time>2020-02-08T09:50:59Z</time>
      </trkpt>
      <trkpt lat="42.71282" lon="1.66348">
        <ele>1108.3</ele>
        <time>2020-02-08T09:51:00Z</time>
      </trkpt>
      <trkpt lat="42.71282" lon="1.66348">
        <ele>1108.3</ele>
        <time>2020-02-08T09:51:01Z</time>
      </trkpt>
      <trkpt lat="42.71281" lon="1.66348">
        <ele>1108.3</ele>
        <time>2020-02-08T09:51:02Z</time>
      </trkpt>
      <trkpt lat="42.71281" lon="1.66348">
        <ele>1108.3</ele>
        <time>2020-02-08T09:51:03Z</time>
      </trkpt>
      <trkpt lat="42.71281" lon="1.66348">
        <ele>1108.8</ele>
        <time>2020-02-08T09:51:04Z</time>
      </trkpt>
      <trkpt lat="42.7128" lon="1.66348">
        <ele>1108.8</ele>
        <time>2020-02-08T09:51:05Z</time>
      </trkpt>
      <trkpt lat="42.7128" lon="1.66348">
        <ele>1108.8</ele>
        <time>2020-02-08T09:51:06Z</time>
      </trkpt>
      <trkpt lat="42.7128" lon="1.66349">
        <ele>1107.3</ele>
        <time>2020-02-08T09:51:07Z</time>
      </trkpt>
      <trkpt lat="42.7128" lon="1.66349">
        <ele>1107.3</ele>
        <time>2020-02-08T09:51:08Z</time>
      </trkpt>
      <trkpt lat="42.71279" lon="1.66349">
        <ele>1107.3</ele>
        <time>2020-02-08T09:51:09Z</time>
      </trkpt>
      <trkpt lat="42.71279" lon="1.66349">
        <ele>1107.3</ele>
        <time>2020-02-08T09:51:10Z</time>
      </trkpt>
      <trkpt lat="42.71279" lon="1.66349">
        <ele>1107.3</ele>
        <time>2020-02-08T09:51:11Z</time>
      </trkpt>
      <trkpt lat="42.71278" lon="1.66349">
        <ele>1107.3</ele>
        <time>2020-02-08T09:51:12Z</time>
      </trkpt>
      <trkpt lat="42.71278" lon="1.66349">
        <ele>1107.3</ele>
        <time>2020-02-08T09:51:13Z</time>
      </trkpt>
      <trkpt lat="42.71278" lon="1.66349">
        <ele>1107.8</ele>
        <time>2020-02-08T09:51:14Z</time>
      </trkpt>
      <trkpt lat="42.71277" lon="1.66349">
        <ele>1107.8</ele>
        <time>2020-02-08T09:51:15Z</time>
      </trkpt>
      <trkpt lat="42.71277" lon="1.66349">
        <ele>1107.8</ele>
        <time>2020-02-08T09:51:16Z</time>
      </trkpt>
      <trkpt lat="42.71277" lon="1.66349">
        <ele>1107.8</ele>
        <time>2020-02-08T09:51:17Z</time>
      </trkpt>
      <trkpt lat="42.71277" lon="1.6635">
        <ele>1107.8</ele>
        <time>2020-02-08T09:51:18Z</time>
      </trkpt>
      <trkpt lat="42.71276" lon="1.6635">
        <ele>1107.8</ele>
        <time>2020-02-08T09:51:19Z</time>
      </trkpt>
      <trkpt lat="42.71276" lon="1.6635">
        <ele>1107.8</ele>
        <time>2020-02-08T09:51:20Z</time>
      </trkpt>
      <trkpt lat="42.71276" lon="1.6635">
        <ele>1107.8</ele>
        <time>2020-02-08T09:51:21Z</time>
      </trkpt>
      <trkpt lat="42.71275" lon="1.6635">
        <ele>1107.8</ele>
        <time>2020-02-08T09:51:22Z</time>
      </trkpt>
      <trkpt lat="42.71275" lon="1.6635">
        <ele>1107.8</ele>
        <time>2020-02-08T09:51:23Z</time>
      </trkpt>
      <trkpt lat="42.71275" lon="1.6635">
        <ele>1107.8</ele>
        <time>2020-02-08T09:51:24Z</time>
      </trkpt>
      <trkpt lat="42.71274" lon="1.66351">
        <ele>1108.2</ele>
        <time>2020-02-08T09:51:25Z</time>
      </trkpt>
      <trkpt lat="42.71274" lon="1.66351">
        <ele>1108.2</ele>
        <time>2020-02-08T09:51:26Z</time>
      </trkpt>
      <trkpt lat="42.71274" lon="1.66351">
        <ele>1108.2</ele>
        <time>2020-02-08T09:51:27Z</time>
      </trkpt>
      <trkpt lat="42.71274" lon="1.66351">
        <ele>1108.2</ele>
        <time>2020-02-08T09:51:28Z</time>
      </trkpt>
      <trkpt lat="42.71273" lon="1.66351">
        <ele>1108.2</ele>
        <time>2020-02-08T09:51:29Z</time>
      </trkpt>
      <trkpt lat="42.71273" lon="1.66351">
        <ele>1108.2</ele>
        <time>2020-02-08T09:51:30Z</time>
      </trkpt>
      <trkpt lat="42.71273" lon="1.66352">
        <ele>1108.2</ele>
        <time>2020-02-08T09:51:31Z</time>
      </trkpt>
      <trkpt lat="42.71272" lon="1.66352">
        <ele>1108.2</ele>
        <time>2020-02-08T09:51:32Z</time>
      </trkpt>
      <trkpt lat="42.71272" lon="1.66352">
        <ele>1108.2</ele>
        <time>2020-02-08T09:51:33Z</time>
      </trkpt>
      <trkpt lat="42.71272" lon="1.66352">
        <ele>1108.2</ele>
        <time>2020-02-08T09:51:34Z</time>
      </trkpt>
      <trkpt lat="42.71272" lon="1.66352">
        <ele>1108.2</ele>
        <time>2020-02-08T09:51:35Z</time>
      </trkpt>
      <trkpt lat="42.71271" lon="1.66352">
        <ele>1108.7</ele>
        <time>2020-02-08T09:51:36Z</time>
      </trkpt>
      <trkpt lat="42.71271" lon="1.66353">
        <ele>1108.7</ele>
        <time>2020-02-08T09:51:37Z</time>
      </trkpt>
      <trkpt lat="42.71271" lon="1.66353">
        <ele>1108.7</ele>
        <time>2020-02-08T09:51:38Z</time>
      </trkpt>
      <trkpt lat="42.7127" lon="1.66353">
        <ele>1107.1</ele>
        <time>2020-02-08T09:51:39Z</time>
      </trkpt>
      <trkpt lat="42.7127" lon="1.66353">
        <ele>1107.1</ele>
        <time>2020-02-08T09:51:40Z</time>
      </trkpt>
      <trkpt lat="42.7127" lon="1.66353">
        <ele>1107.1</ele>
        <time>2020-02-08T09:51:41Z</time>
      </trkpt>
      <trkpt lat="42.7127" lon="1.66353">
        <ele>1107.1</ele>
        <time>2020-02-08T09:51:42Z</time>
      </trkpt>
      <trkpt lat="42.71269" lon="1.66354">
        <ele>1107.1</ele>
        <time>2020-02-08T09:51:43Z</time>
      </trkpt>
      <trkpt lat="42.71269" lon="1.66354">
        <ele>1107.1</ele>
        <time>2020-02-08T09:51:44Z</time>
      </trkpt>
      <trkpt lat="42.71269" lon="1.66354">
        <ele>1107.1</ele>
        <time>2020-02-08T09:51:45Z</time>
      </trkpt>
      <trkpt lat="42.71268" lon="1.66354">
        <ele>1107.1</ele>
        <time>2020-02-08T09:51:46Z</time>
      </trkpt>
      <trkpt lat="42.71268" lon="1.66354">
        <ele>1107.5</ele>
        <time>2020-02-08T09:51:47Z</time>
      </trkpt>
      <trkpt lat="42.71268" lon="1.66354">
        <ele>1107.5</ele>
        <time>2020-02-08T09:51:48Z</time>
      </trkpt>
      <trkpt lat="42.71267" lon="1.66355">
        <ele>1107.5</ele>
        <time>2020-02-08T09:51:49Z</time>
      </trkpt>
      <trkpt lat="42.71267" lon="1.66353">
        <ele>1107.5</ele>
        <time>2020-02-08T09:51:50Z</time>
      </trkpt>
      <trkpt lat="42.71267" lon="1.66352">
        <ele>1109.1</ele>
        <time>2020-02-08T09:51:51Z</time>
      </trkpt>
      <trkpt lat="42.71266" lon="1.66351">
        <ele>1109.1</ele>
        <time>2020-02-08T09:51:52Z</time>
      </trkpt>
      <trkpt lat="42.71266" lon="1.6635">
        <ele>1109.1</ele>
        <time>2020-02-08T09:51:53Z</time>
      </trkpt>
      <trkpt lat="42.71265" lon="1.66348">
        <ele>1111.1</ele>
        <time>2020-02-08T09:51:54Z</time>
      </trkpt>
      <trkpt lat="42.71265" lon="1.66347">
        <ele>1111.1</ele>
        <time>2020-02-08T09:51:55Z</time>
      </trkpt>
      <trkpt lat="42.71264" lon="1.66346">
        <ele>1111.1</ele>
        <time>2020-02-08T09:51:56Z</time>
      </trkpt>
      <trkpt lat="42.71264" lon="1.66345">
        <ele>1111.1</ele>
        <time>2020-02-08T09:51:57Z</time>
      </trkpt>
      <trkpt lat="42.71263" lon="1.66343">
        <ele>1112.7</ele>
        <time>2020-02-08T09:51:58Z</time>
      </trkpt>
      <trkpt lat="42.71263" lon="1.66342">
        <ele>1112.7</ele>
        <time>2020-02-08T09:51:59Z</time>
      </trkpt>
      <trkpt lat="42.71263" lon="1.66342">
        <ele>1112.7</ele>
        <time>2020-02-08T09:52:00Z</time>
      </trkpt>
      <trkpt lat="42.71263" lon="1.66342">
        <ele>1112.7</ele>
        <time>2020-02-08T09:52:01Z</time>
      </trkpt>
      <trkpt lat="42.71263" lon="1.66342">
        <ele>1112.7</ele>
        <time>2020-02-08T09:52:02Z</time>
      </trkpt>
      <trkpt lat="42.71262" lon="1.66343">
        <ele>1112.7</ele>
        <time>2020-02-08T09:52:03Z</time>
      </trkpt>
      <trkpt lat="42.71262" lon="1.66343">
        <ele>1112.7</ele>
        <time>2020-02-08T09:52:04Z</time>
      </trkpt>
      <trkpt lat="42.71262" lon="1.66343">
        <ele>1112.7</ele>
        <time>2020-02-08T09:52:05Z</time>
      </trkpt>
      <trkpt lat="42.71262" lon="1.66343">
        <ele>1112.7</ele>
        <time>2020-02-08T09:52:06Z</time>
      </trkpt>
      <trkpt lat="42.71262" lon="1.66343">
        <ele>1112.7</ele>
        <time>2020-02-08T09:52:07Z</time>
      </trkpt>
      <trkpt lat="42.71262" lon="1.66343">
        <ele>1113.1</ele>
        <time>2020-02-08T09:52:08Z</time>
      </trkpt>
      <trkpt lat="42.71262" lon="1.66343">
        <ele>1113.1</ele>
        <time>2020-02-08T09:52:09Z</time>
      </trkpt>
      <trkpt lat="42.71262" lon="1.66343">
        <ele>1113.1</ele>
        <time>2020-02-08T09:52:10Z</time>
      </trkpt>
      <trkpt lat="42.71262" lon="1.66343">
        <ele>1113.1</ele>
        <time>2020-02-08T09:52:11Z</time>
      </trkpt>
      <trkpt lat="42.71262" lon="1.66343">
        <ele>1113.1</ele>
        <time>2020-02-08T09:52:12Z</time>
      </trkpt>
      <trkpt lat="42.71261" lon="1.66344">
        <ele>1113.1</ele>
        <time>2020-02-08T09:52:13Z</time>
      </trkpt>
      <trkpt lat="42.71261" lon="1.66344">
        <ele>1113.1</ele>
        <time>2020-02-08T09:52:14Z</time>
      </trkpt>
      <trkpt lat="42.71261" lon="1.66344">
        <ele>1113.1</ele>
        <time>2020-02-08T09:52:15Z</time>
      </trkpt>
      <trkpt lat="42.71261" lon="1.66344">
        <ele>1113.1</ele>
        <time>2020-02-08T09:52:16Z</time>
      </trkpt>
      <trkpt lat="42.71261" lon="1.66344">
        <ele>1113.1</ele>
        <time>2020-02-08T09:52:17Z</time>
      </trkpt>
      <trkpt lat="42.71261" lon="1.66344">
        <ele>1113.1</ele>
        <time>2020-02-08T09:52:18Z</time>
      </trkpt>
      <trkpt lat="42.71261" lon="1.66344">
        <ele>1113.1</ele>
        <time>2020-02-08T09:52:19Z</time>
      </trkpt>
      <trkpt lat="42.71261" lon="1.66344">
        <ele>1111.5</ele>
        <time>2020-02-08T09:52:20Z</time>
      </trkpt>
      <trkpt lat="42.71261" lon="1.66344">
        <ele>1111.5</ele>
        <time>2020-02-08T09:52:21Z</time>
      </trkpt>
      <trkpt lat="42.71261" lon="1.66344">
        <ele>1111.5</ele>
        <time>2020-02-08T09:52:22Z</time>
      </trkpt>
      <trkpt lat="42.7126" lon="1.66345">
        <ele>1111.5</ele>
        <time>2020-02-08T09:52:23Z</time>
      </trkpt>
      <trkpt lat="42.7126" lon="1.66345">
        <ele>1111.5</ele>
        <time>2020-02-08T09:52:24Z</time>
      </trkpt>
      <trkpt lat="42.7126" lon="1.66345">
        <ele>1111.5</ele>
        <time>2020-02-08T09:52:25Z</time>
      </trkpt>
      <trkpt lat="42.7126" lon="1.66345">
        <ele>1111.5</ele>
        <time>2020-02-08T09:52:26Z</time>
      </trkpt>
      <trkpt lat="42.7126" lon="1.66345">
        <ele>1111.5</ele>
        <time>2020-02-08T09:52:27Z</time>
      </trkpt>
      <trkpt lat="42.7126" lon="1.66345">
        <ele>1111.5</ele>
        <time>2020-02-08T09:52:28Z</time>
      </trkpt>
      <trkpt lat="42.7126" lon="1.66345">
        <ele>1111.5</ele>
        <time>2020-02-08T09:52:29Z</time>
      </trkpt>
      <trkpt lat="42.7126" lon="1.66345">
        <ele>1111.5</ele>
        <time>2020-02-08T09:52:30Z</time>
      </trkpt>
      <trkpt lat="42.7126" lon="1.66345">
        <ele>1111.5</ele>
        <time>2020-02-08T09:52:31Z</time>
      </trkpt>
      <trkpt lat="42.7126" lon="1.66345">
        <ele>1111.5</ele>
        <time>2020-02-08T09:52:32Z</time>
      </trkpt>
      <trkpt lat="42.71259" lon="1.66346">
        <ele>1111.5</ele>
        <time>2020-02-08T09:52:33Z</time>
      </trkpt>
      <trkpt lat="42.71259" lon="1.66346">
        <ele>1111.5</ele>
        <time>2020-02-08T09:52:34Z</time>
      </trkpt>
      <trkpt lat="42.71259" lon="1.66346">
        <ele>1111.5</ele>
        <time>2020-02-08T09:52:35Z</time>
      </trkpt>
      <trkpt lat="42.71259" lon="1.66346">
        <ele>1111.5</ele>
        <time>2020-02-08T09:52:36Z</time>
      </trkpt>
      <trkpt lat="42.71259" lon="1.66346">
        <ele>1111.5</ele>
        <time>2020-02-08T09:52:37Z</time>
      </trkpt>
      <trkpt lat="42.71259" lon="1.66346">
        <ele>1111.5</ele>
        <time>2020-02-08T09:52:38Z</time>
      </trkpt>
      <trkpt lat="42.71259" lon="1.66346">
        <ele>1111.5</ele>
        <time>2020-02-08T09:52:39Z</time>
      </trkpt>
      <trkpt lat="42.71259" lon="1.66346">
        <ele>1111.5</ele>
        <time>2020-02-08T09:52:40Z</time>
      </trkpt>
      <trkpt lat="42.71259" lon="1.66346">
        <ele>1111.9</ele>
        <time>2020-02-08T09:52:41Z</time>
      </trkpt>
      <trkpt lat="42.71259" lon="1.66346">
        <ele>1111.9</ele>
        <time>2020-02-08T09:52:42Z</time>
      </trkpt>
      <trkpt lat="42.71259" lon="1.66347">
        <ele>1111.9</ele>
        <time>2020-02-08T09:52:43Z</time>
      </trkpt>
      <trkpt lat="42.71258" lon="1.66347">
        <ele>1111.9</ele>
        <time>2020-02-08T09:52:44Z</time>
      </trkpt>
      <trkpt lat="42.71258" lon="1.66347">
        <ele>1111.9</ele>
        <time>2020-02-08T09:52:45Z</time>
      </trkpt>
      <trkpt lat="42.71258" lon="1.66347">
        <ele>1111.9</ele>
        <time>2020-02-08T09:52:46Z</time>
      </trkpt>
      <trkpt lat="42.71258" lon="1.66347">
        <ele>1111.9</ele>
        <time>2020-02-08T09:52:47Z</time>
      </trkpt>
      <trkpt lat="42.71258" lon="1.66347">
        <ele>1111.9</ele>
        <time>2020-02-08T09:52:48Z</time>
      </trkpt>
      <trkpt lat="42.71258" lon="1.66347">
        <ele>1111.9</ele>
        <time>2020-02-08T09:52:49Z</time>
      </trkpt>
      <trkpt lat="42.71258" lon="1.66347">
        <ele>1111.9</ele>
        <time>2020-02-08T09:52:50Z</time>
      </trkpt>
      <trkpt lat="42.71258" lon="1.66347">
        <ele>1111.9</ele>
        <time>2020-02-08T09:52:51Z</time>
      </trkpt>
      <trkpt lat="42.71258" lon="1.66347">
        <ele>1111.9</ele>
        <time>2020-02-08T09:52:52Z</time>
      </trkpt>
      <trkpt lat="42.71258" lon="1.66348">
        <ele>1111.9</ele>
        <time>2020-02-08T09:52:53Z</time>
      </trkpt>
      <trkpt lat="42.71257" lon="1.66348">
        <ele>1111.9</ele>
        <time>2020-02-08T09:52:54Z</time>
      </trkpt>
      <trkpt lat="42.71257" lon="1.66348">
        <ele>1111.9</ele>
        <time>2020-02-08T09:52:55Z</time>
      </trkpt>
      <trkpt lat="42.71257" lon="1.66348">
        <ele>1111.9</ele>
        <time>2020-02-08T09:52:56Z</time>
      </trkpt>
      <trkpt lat="42.71257" lon="1.66348">
        <ele>1111.9</ele>
        <time>2020-02-08T09:52:57Z</time>
      </trkpt>
      <trkpt lat="42.71257" lon="1.66348">
        <ele>1111.9</ele>
        <time>2020-02-08T09:52:58Z</time>
      </trkpt>
      <trkpt lat="42.71257" lon="1.66348">
        <ele>1111.9</ele>
        <time>2020-02-08T09:52:59Z</time>
      </trkpt>
      <trkpt lat="42.71257" lon="1.66348">
        <ele>1111.9</ele>
        <time>2020-02-08T09:53:00Z</time>
      </trkpt>
      <trkpt lat="42.71257" lon="1.66348">
        <ele>1111.9</ele>
        <time>2020-02-08T09:53:01Z</time>
      </trkpt>
      <trkpt lat="42.71257" lon="1.66348">
        <ele>1111.9</ele>
        <time>2020-02-08T09:53:02Z</time>
      </trkpt>
      <trkpt lat="42.71257" lon="1.66349">
        <ele>1110.2</ele>
        <time>2020-02-08T09:53:03Z</time>
      </trkpt>
      <trkpt lat="42.71256" lon="1.66349">
        <ele>1110.2</ele>
        <time>2020-02-08T09:53:04Z</time>
      </trkpt>
      <trkpt lat="42.71256" lon="1.66349">
        <ele>1110.2</ele>
        <time>2020-02-08T09:53:05Z</time>
      </trkpt>
      <trkpt lat="42.71256" lon="1.66349">
        <ele>1110.2</ele>
        <time>2020-02-08T09:53:06Z</time>
      </trkpt>
      <trkpt lat="42.71256" lon="1.66349">
        <ele>1110.2</ele>
        <time>2020-02-08T09:53:07Z</time>
      </trkpt>
      <trkpt lat="42.71256" lon="1.66349">
        <ele>1110.2</ele>
        <time>2020-02-08T09:53:08Z</time>
      </trkpt>
      <trkpt lat="42.71256" lon="1.66349">
        <ele>1110.2</ele>
        <time>2020-02-08T09:53:09Z</time>
      </trkpt>
      <trkpt lat="42.71256" lon="1.66349">
        <ele>1110.2</ele>
        <time>2020-02-08T09:53:10Z</time>
      </trkpt>
      <trkpt lat="42.71256" lon="1.66349">
        <ele>1110.2</ele>
        <time>2020-02-08T09:53:11Z</time>
      </trkpt>
      <trkpt lat="42.71256" lon="1.66349">
        <ele>1110.6</ele>
        <time>2020-02-08T09:53:12Z</time>
      </trkpt>
      <trkpt lat="42.71256" lon="1.6635">
        <ele>1110.6</ele>
        <time>2020-02-08T09:53:13Z</time>
      </trkpt>
      <trkpt lat="42.71255" lon="1.6635">
        <ele>1110.6</ele>
        <time>2020-02-08T09:53:14Z</time>
      </trkpt>
      <trkpt lat="42.71255" lon="1.6635">
        <ele>1110.6</ele>
        <time>2020-02-08T09:53:15Z</time>
      </trkpt>
      <trkpt lat="42.71255" lon="1.6635">
        <ele>1110.6</ele>
        <time>2020-02-08T09:53:16Z</time>
      </trkpt>
      <trkpt lat="42.71255" lon="1.6635">
        <ele>1110.6</ele>
        <time>2020-02-08T09:53:17Z</time>
      </trkpt>
      <trkpt lat="42.71255" lon="1.6635">
        <ele>1110.6</ele>
        <time>2020-02-08T09:53:18Z</time>
      </trkpt>
      <trkpt lat="42.71255" lon="1.6635">
        <ele>1110.6</ele>
        <time>2020-02-08T09:53:19Z</time>
      </trkpt>
      <trkpt lat="42.71254" lon="1.6635">
        <ele>1110.6</ele>
        <time>2020-02-08T09:53:20Z</time>
      </trkpt>
      <trkpt lat="42.71254" lon="1.6635">
        <ele>1110.6</ele>
        <time>2020-02-08T09:53:21Z</time>
      </trkpt>
      <trkpt lat="42.71254" lon="1.6635">
        <ele>1110.6</ele>
        <time>2020-02-08T09:53:22Z</time>
      </trkpt>
      <trkpt lat="42.71253" lon="1.66351">
        <ele>1110.6</ele>
        <time>2020-02-08T09:53:23Z</time>
      </trkpt>
      <trkpt lat="42.71253" lon="1.66351">
        <ele>1110.6</ele>
        <time>2020-02-08T09:53:24Z</time>
      </trkpt>
      <trkpt lat="42.71252" lon="1.66351">
        <ele>1111</ele>
        <time>2020-02-08T09:53:25Z</time>
      </trkpt>
      <trkpt lat="42.71252" lon="1.66351">
        <ele>1111</ele>
        <time>2020-02-08T09:53:26Z</time>
      </trkpt>
      <trkpt lat="42.71251" lon="1.66351">
        <ele>1111</ele>
        <time>2020-02-08T09:53:27Z</time>
      </trkpt>
      <trkpt lat="42.71251" lon="1.66351">
        <ele>1111</ele>
        <time>2020-02-08T09:53:28Z</time>
      </trkpt>
      <trkpt lat="42.7125" lon="1.66351">
        <ele>1111</ele>
        <time>2020-02-08T09:53:29Z</time>
      </trkpt>
      <trkpt lat="42.7125" lon="1.66351">
        <ele>1111</ele>
        <time>2020-02-08T09:53:30Z</time>
      </trkpt>
      <trkpt lat="42.71249" lon="1.66351">
        <ele>1111</ele>
        <time>2020-02-08T09:53:31Z</time>
      </trkpt>
      <trkpt lat="42.71249" lon="1.66351">
        <ele>1111.3</ele>
        <time>2020-02-08T09:53:32Z</time>
      </trkpt>
      <trkpt lat="42.71249" lon="1.66352">
        <ele>1111.3</ele>
        <time>2020-02-08T09:53:33Z</time>
      </trkpt>
      <trkpt lat="42.71248" lon="1.66352">
        <ele>1111.3</ele>
        <time>2020-02-08T09:53:34Z</time>
      </trkpt>
      <trkpt lat="42.71248" lon="1.66352">
        <ele>1111.3</ele>
        <time>2020-02-08T09:53:35Z</time>
      </trkpt>
      <trkpt lat="42.71247" lon="1.66352">
        <ele>1111.3</ele>
        <time>2020-02-08T09:53:36Z</time>
      </trkpt>
      <trkpt lat="42.71247" lon="1.66352">
        <ele>1111.3</ele>
        <time>2020-02-08T09:53:37Z</time>
      </trkpt>
      <trkpt lat="42.71246" lon="1.66352">
        <ele>1111.3</ele>
        <time>2020-02-08T09:53:38Z</time>
      </trkpt>
      <trkpt lat="42.71246" lon="1.66352">
        <ele>1111.6</ele>
        <time>2020-02-08T09:53:39Z</time>
      </trkpt>
      <trkpt lat="42.71245" lon="1.66352">
        <ele>1111.6</ele>
        <time>2020-02-08T09:53:40Z</time>
      </trkpt>
      <trkpt lat="42.71245" lon="1.66352">
        <ele>1111.6</ele>
        <time>2020-02-08T09:53:41Z</time>
      </trkpt>
      <trkpt lat="42.71244" lon="1.66352">
        <ele>1111.6</ele>
        <time>2020-02-08T09:53:42Z</time>
      </trkpt>
      <trkpt lat="42.71244" lon="1.66352">
        <ele>1111.6</ele>
        <time>2020-02-08T09:53:43Z</time>
      </trkpt>
      <trkpt lat="42.71243" lon="1.66352">
        <ele>1111.6</ele>
        <time>2020-02-08T09:53:44Z</time>
      </trkpt>
      <trkpt lat="42.71243" lon="1.66353">
        <ele>1112</ele>
        <time>2020-02-08T09:53:45Z</time>
      </trkpt>
      <trkpt lat="42.71242" lon="1.66353">
        <ele>1112</ele>
        <time>2020-02-08T09:53:46Z</time>
      </trkpt>
      <trkpt lat="42.71242" lon="1.66353">
        <ele>1112</ele>
        <time>2020-02-08T09:53:47Z</time>
      </trkpt>
      <trkpt lat="42.71241" lon="1.66353">
        <ele>1112</ele>
        <time>2020-02-08T09:53:48Z</time>
      </trkpt>
      <trkpt lat="42.71241" lon="1.66353">
        <ele>1112</ele>
        <time>2020-02-08T09:53:49Z</time>
      </trkpt>
      <trkpt lat="42.7124" lon="1.66353">
        <ele>1110.3</ele>
        <time>2020-02-08T09:53:50Z</time>
      </trkpt>
      <trkpt lat="42.7124" lon="1.66353">
        <ele>1110.3</ele>
        <time>2020-02-08T09:53:51Z</time>
      </trkpt>
      <trkpt lat="42.71239" lon="1.66353">
        <ele>1110.6</ele>
        <time>2020-02-08T09:53:52Z</time>
      </trkpt>
      <trkpt lat="42.71239" lon="1.66353">
        <ele>1110.6</ele>
        <time>2020-02-08T09:53:53Z</time>
      </trkpt>
      <trkpt lat="42.71238" lon="1.66353">
        <ele>1110.6</ele>
        <time>2020-02-08T09:53:54Z</time>
      </trkpt>
      <trkpt lat="42.71238" lon="1.66353">
        <ele>1110.6</ele>
        <time>2020-02-08T09:53:55Z</time>
      </trkpt>
      <trkpt lat="42.71237" lon="1.66353">
        <ele>1110.6</ele>
        <time>2020-02-08T09:53:56Z</time>
      </trkpt>
      <trkpt lat="42.71237" lon="1.66353">
        <ele>1110.6</ele>
        <time>2020-02-08T09:53:57Z</time>
      </trkpt>
      <trkpt lat="42.71236" lon="1.66353">
        <ele>1110.8</ele>
        <time>2020-02-08T09:53:58Z</time>
      </trkpt>
      <trkpt lat="42.71236" lon="1.66353">
        <ele>1110.8</ele>
        <time>2020-02-08T09:53:59Z</time>
      </trkpt>
      <trkpt lat="42.71236" lon="1.66353">
        <ele>1110.8</ele>
        <time>2020-02-08T09:54:00Z</time>
      </trkpt>
      <trkpt lat="42.71236" lon="1.66353">
        <ele>1110.8</ele>
        <time>2020-02-08T09:54:01Z</time>
      </trkpt>
      <trkpt lat="42.71236" lon="1.66353">
        <ele>1110.8</ele>
        <time>2020-02-08T09:54:02Z</time>
      </trkpt>
      <trkpt lat="42.71236" lon="1.66353">
        <ele>1110.8</ele>
        <time>2020-02-08T09:54:03Z</time>
      </trkpt>
      <trkpt lat="42.71236" lon="1.66353">
        <ele>1110.8</ele>
        <time>2020-02-08T09:54:04Z</time>
      </trkpt>
      <trkpt lat="42.71236" lon="1.66353">
        <ele>1110.8</ele>
        <time>2020-02-08T09:54:05Z</time>
      </trkpt>
      <trkpt lat="42.71236" lon="1.66353">
        <ele>1110.8</ele>
        <time>2020-02-08T09:54:06Z</time>
      </trkpt>
      <trkpt lat="42.71233" lon="1.66354">
        <ele>1111.1</ele>
        <time>2020-02-08T09:54:07Z</time>
      </trkpt>
      <trkpt lat="42.71233" lon="1.66354">
        <ele>1111.1</ele>
        <time>2020-02-08T09:54:08Z</time>
      </trkpt>
      <trkpt lat="42.71233" lon="1.66354">
        <ele>1111.1</ele>
        <time>2020-02-08T09:54:09Z</time>
      </trkpt>
      <trkpt lat="42.71232" lon="1.66354">
        <ele>1111.1</ele>
        <time>2020-02-08T09:54:10Z</time>
      </trkpt>
      <trkpt lat="42.71232" lon="1.66354">
        <ele>1111.1</ele>
        <time>2020-02-08T09:54:11Z</time>
      </trkpt>
      <trkpt lat="42.71231" lon="1.66353">
        <ele>1111.1</ele>
        <time>2020-02-08T09:54:12Z</time>
      </trkpt>
      <trkpt lat="42.7123" lon="1.66353">
        <ele>1111.3</ele>
        <time>2020-02-08T09:54:13Z</time>
      </trkpt>
      <trkpt lat="42.7123" lon="1.66353">
        <ele>1111.3</ele>
        <time>2020-02-08T09:54:14Z</time>
      </trkpt>
      <trkpt lat="42.71229" lon="1.66353">
        <ele>1111.3</ele>
        <time>2020-02-08T09:54:15Z</time>
      </trkpt>
      <trkpt lat="42.71229" lon="1.66353">
        <ele>1111.3</ele>
        <time>2020-02-08T09:54:16Z</time>
      </trkpt>
      <trkpt lat="42.71228" lon="1.66353">
        <ele>1113</ele>
        <time>2020-02-08T09:54:17Z</time>
      </trkpt>
      <trkpt lat="42.71228" lon="1.66353">
        <ele>1113</ele>
        <time>2020-02-08T09:54:18Z</time>
      </trkpt>
      <trkpt lat="42.71227" lon="1.66352">
        <ele>1113.2</ele>
        <time>2020-02-08T09:54:19Z</time>
      </trkpt>
      <trkpt lat="42.71226" lon="1.66352">
        <ele>1113.2</ele>
        <time>2020-02-08T09:54:20Z</time>
      </trkpt>
      <trkpt lat="42.71226" lon="1.66352">
        <ele>1113.2</ele>
        <time>2020-02-08T09:54:21Z</time>
      </trkpt>
      <trkpt lat="42.71225" lon="1.66352">
        <ele>1113.2</ele>
        <time>2020-02-08T09:54:22Z</time>
      </trkpt>
      <trkpt lat="42.71225" lon="1.66351">
        <ele>1113.2</ele>
        <time>2020-02-08T09:54:23Z</time>
      </trkpt>
      <trkpt lat="42.71224" lon="1.66351">
        <ele>1113.2</ele>
        <time>2020-02-08T09:54:24Z</time>
      </trkpt>
      <trkpt lat="42.71224" lon="1.66351">
        <ele>1113.5</ele>
        <time>2020-02-08T09:54:25Z</time>
      </trkpt>
      <trkpt lat="42.71223" lon="1.66351">
        <ele>1113.5</ele>
        <time>2020-02-08T09:54:26Z</time>
      </trkpt>
      <trkpt lat="42.71223" lon="1.66351">
        <ele>1113.5</ele>
        <time>2020-02-08T09:54:27Z</time>
      </trkpt>
      <trkpt lat="42.71222" lon="1.6635">
        <ele>1113.5</ele>
        <time>2020-02-08T09:54:28Z</time>
      </trkpt>
      <trkpt lat="42.71222" lon="1.6635">
        <ele>1113.5</ele>
        <time>2020-02-08T09:54:29Z</time>
      </trkpt>
      <trkpt lat="42.7122" lon="1.66349">
        <ele>1113.7</ele>
        <time>2020-02-08T09:54:30Z</time>
      </trkpt>
      <trkpt lat="42.7122" lon="1.66349">
        <ele>1113.7</ele>
        <time>2020-02-08T09:54:31Z</time>
      </trkpt>
      <trkpt lat="42.7122" lon="1.66349">
        <ele>1113.7</ele>
        <time>2020-02-08T09:54:32Z</time>
      </trkpt>
      <trkpt lat="42.7122" lon="1.66349">
        <ele>1113.7</ele>
        <time>2020-02-08T09:54:33Z</time>
      </trkpt>
      <trkpt lat="42.7122" lon="1.66349">
        <ele>1113.7</ele>
        <time>2020-02-08T09:54:34Z</time>
      </trkpt>
      <trkpt lat="42.7122" lon="1.66349">
        <ele>1113.7</ele>
        <time>2020-02-08T09:54:35Z</time>
      </trkpt>
      <trkpt lat="42.7122" lon="1.66349">
        <ele>1113.7</ele>
        <time>2020-02-08T09:54:36Z</time>
      </trkpt>
      <trkpt lat="42.71219" lon="1.66348">
        <ele>1115.4</ele>
        <time>2020-02-08T09:54:37Z</time>
      </trkpt>
      <trkpt lat="42.71219" lon="1.66348">
        <ele>1115.4</ele>
        <time>2020-02-08T09:54:38Z</time>
      </trkpt>
      <trkpt lat="42.71219" lon="1.66348">
        <ele>1115.4</ele>
        <time>2020-02-08T09:54:39Z</time>
      </trkpt>
      <trkpt lat="42.71219" lon="1.66348">
        <ele>1115.4</ele>
        <time>2020-02-08T09:54:40Z</time>
      </trkpt>
      <trkpt lat="42.71219" lon="1.66348">
        <ele>1115.4</ele>
        <time>2020-02-08T09:54:41Z</time>
      </trkpt>
      <trkpt lat="42.71219" lon="1.66348">
        <ele>1115.4</ele>
        <time>2020-02-08T09:54:42Z</time>
      </trkpt>
      <trkpt lat="42.71218" lon="1.66348">
        <ele>1115.4</ele>
        <time>2020-02-08T09:54:43Z</time>
      </trkpt>
      <trkpt lat="42.71218" lon="1.66348">
        <ele>1115.4</ele>
        <time>2020-02-08T09:54:44Z</time>
      </trkpt>
      <trkpt lat="42.71218" lon="1.66348">
        <ele>1115.4</ele>
        <time>2020-02-08T09:54:45Z</time>
      </trkpt>
      <trkpt lat="42.71218" lon="1.66348">
        <ele>1115.4</ele>
        <time>2020-02-08T09:54:46Z</time>
      </trkpt>
      <trkpt lat="42.71218" lon="1.66348">
        <ele>1115.4</ele>
        <time>2020-02-08T09:54:47Z</time>
      </trkpt>
      <trkpt lat="42.71218" lon="1.66348">
        <ele>1115.4</ele>
        <time>2020-02-08T09:54:48Z</time>
      </trkpt>
      <trkpt lat="42.71218" lon="1.66348">
        <ele>1115.4</ele>
        <time>2020-02-08T09:54:49Z</time>
      </trkpt>
      <trkpt lat="42.71218" lon="1.66349">
        <ele>1113.7</ele>
        <time>2020-02-08T09:54:50Z</time>
      </trkpt>
      <trkpt lat="42.71218" lon="1.66349">
        <ele>1113.7</ele>
        <time>2020-02-08T09:54:51Z</time>
      </trkpt>
      <trkpt lat="42.71218" lon="1.66349">
        <ele>1113.7</ele>
        <time>2020-02-08T09:54:52Z</time>
      </trkpt>
      <trkpt lat="42.71218" lon="1.66349">
        <ele>1113.7</ele>
        <time>2020-02-08T09:54:53Z</time>
      </trkpt>
      <trkpt lat="42.71218" lon="1.66349">
        <ele>1113.7</ele>
        <time>2020-02-08T09:54:54Z</time>
      </trkpt>
      <trkpt lat="42.71218" lon="1.66349">
        <ele>1113.7</ele>
        <time>2020-02-08T09:54:55Z</time>
      </trkpt>
      <trkpt lat="42.71218" lon="1.66349">
        <ele>1114</ele>
        <time>2020-02-08T09:54:56Z</time>
      </trkpt>
      <trkpt lat="42.71218" lon="1.66349">
        <ele>1114</ele>
        <time>2020-02-08T09:54:57Z</time>
      </trkpt>
      <trkpt lat="42.71218" lon="1.66349">
        <ele>1114</ele>
        <time>2020-02-08T09:54:58Z</time>
      </trkpt>
      <trkpt lat="42.71218" lon="1.66349">
        <ele>1114</ele>
        <time>2020-02-08T09:54:59Z</time>
      </trkpt>
      <trkpt lat="42.71218" lon="1.66349">
        <ele>1114</ele>
        <time>2020-02-08T09:55:00Z</time>
      </trkpt>
      <trkpt lat="42.71218" lon="1.66349">
        <ele>1114</ele>
        <time>2020-02-08T09:55:01Z</time>
      </trkpt>
      <trkpt lat="42.71218" lon="1.66349">
        <ele>1114</ele>
        <time>2020-02-08T09:55:02Z</time>
      </trkpt>
      <trkpt lat="42.71218" lon="1.6635">
        <ele>1114</ele>
        <time>2020-02-08T09:55:03Z</time>
      </trkpt>
      <trkpt lat="42.71217" lon="1.6635">
        <ele>1114</ele>
        <time>2020-02-08T09:55:04Z</time>
      </trkpt>
      <trkpt lat="42.71217" lon="1.6635">
        <ele>1114</ele>
        <time>2020-02-08T09:55:05Z</time>
      </trkpt>
      <trkpt lat="42.71217" lon="1.6635">
        <ele>1114</ele>
        <time>2020-02-08T09:55:06Z</time>
      </trkpt>
      <trkpt lat="42.71217" lon="1.6635">
        <ele>1114</ele>
        <time>2020-02-08T09:55:07Z</time>
      </trkpt>
      <trkpt lat="42.71217" lon="1.6635">
        <ele>1114</ele>
        <time>2020-02-08T09:55:08Z</time>
      </trkpt>
      <trkpt lat="42.71217" lon="1.6635">
        <ele>1114</ele>
        <time>2020-02-08T09:55:09Z</time>
      </trkpt>
      <trkpt lat="42.71217" lon="1.6635">
        <ele>1114</ele>
        <time>2020-02-08T09:55:10Z</time>
      </trkpt>
      <trkpt lat="42.71217" lon="1.6635">
        <ele>1114</ele>
        <time>2020-02-08T09:55:11Z</time>
      </trkpt>
      <trkpt lat="42.71217" lon="1.6635">
        <ele>1114</ele>
        <time>2020-02-08T09:55:12Z</time>
      </trkpt>
      <trkpt lat="42.71217" lon="1.6635">
        <ele>1114</ele>
        <time>2020-02-08T09:55:13Z</time>
      </trkpt>
      <trkpt lat="42.71217" lon="1.6635">
        <ele>1114</ele>
        <time>2020-02-08T09:55:14Z</time>
      </trkpt>
      <trkpt lat="42.71217" lon="1.6635">
        <ele>1114</ele>
        <time>2020-02-08T09:55:15Z</time>
      </trkpt>
      <trkpt lat="42.71217" lon="1.66351">
        <ele>1114</ele>
        <time>2020-02-08T09:55:16Z</time>
      </trkpt>
      <trkpt lat="42.71217" lon="1.66351">
        <ele>1114</ele>
        <time>2020-02-08T09:55:17Z</time>
      </trkpt>
      <trkpt lat="42.71217" lon="1.66351">
        <ele>1114</ele>
        <time>2020-02-08T09:55:18Z</time>
      </trkpt>
      <trkpt lat="42.71217" lon="1.66351">
        <ele>1114</ele>
        <time>2020-02-08T09:55:19Z</time>
      </trkpt>
      <trkpt lat="42.71217" lon="1.66351">
        <ele>1114</ele>
        <time>2020-02-08T09:55:20Z</time>
      </trkpt>
      <trkpt lat="42.71217" lon="1.66351">
        <ele>1114</ele>
        <time>2020-02-08T09:55:21Z</time>
      </trkpt>
      <trkpt lat="42.71217" lon="1.66351">
        <ele>1114</ele>
        <time>2020-02-08T09:55:22Z</time>
      </trkpt>
      <trkpt lat="42.71217" lon="1.66351">
        <ele>1114</ele>
        <time>2020-02-08T09:55:23Z</time>
      </trkpt>
      <trkpt lat="42.71217" lon="1.66351">
        <ele>1114</ele>
        <time>2020-02-08T09:55:24Z</time>
      </trkpt>
      <trkpt lat="42.71217" lon="1.66351">
        <ele>1114</ele>
        <time>2020-02-08T09:55:25Z</time>
      </trkpt>
      <trkpt lat="42.71216" lon="1.66351">
        <ele>1114</ele>
        <time>2020-02-08T09:55:26Z</time>
      </trkpt>
      <trkpt lat="42.71216" lon="1.66351">
        <ele>1114</ele>
        <time>2020-02-08T09:55:27Z</time>
      </trkpt>
      <trkpt lat="42.71216" lon="1.66351">
        <ele>1114</ele>
        <time>2020-02-08T09:55:28Z</time>
      </trkpt>
      <trkpt lat="42.71216" lon="1.66352">
        <ele>1114</ele>
        <time>2020-02-08T09:55:29Z</time>
      </trkpt>
      <trkpt lat="42.71216" lon="1.66352">
        <ele>1114</ele>
        <time>2020-02-08T09:55:30Z</time>
      </trkpt>
      <trkpt lat="42.71216" lon="1.66352">
        <ele>1114</ele>
        <time>2020-02-08T09:55:31Z</time>
      </trkpt>
      <trkpt lat="42.71216" lon="1.66352">
        <ele>1114</ele>
        <time>2020-02-08T09:55:32Z</time>
      </trkpt>
      <trkpt lat="42.71216" lon="1.66352">
        <ele>1114</ele>
        <time>2020-02-08T09:55:33Z</time>
      </trkpt>
      <trkpt lat="42.71216" lon="1.66352">
        <ele>1114</ele>
        <time>2020-02-08T09:55:34Z</time>
      </trkpt>
      <trkpt lat="42.71216" lon="1.66352">
        <ele>1114</ele>
        <time>2020-02-08T09:55:35Z</time>
      </trkpt>
      <trkpt lat="42.71216" lon="1.66352">
        <ele>1114</ele>
        <time>2020-02-08T09:55:36Z</time>
      </trkpt>
      <trkpt lat="42.71216" lon="1.66352">
        <ele>1114</ele>
        <time>2020-02-08T09:55:37Z</time>
      </trkpt>
      <trkpt lat="42.71216" lon="1.66352">
        <ele>1114</ele>
        <time>2020-02-08T09:55:38Z</time>
      </trkpt>
      <trkpt lat="42.71216" lon="1.66352">
        <ele>1114</ele>
        <time>2020-02-08T09:55:39Z</time>
      </trkpt>
      <trkpt lat="42.71216" lon="1.66352">
        <ele>1114</ele>
        <time>2020-02-08T09:55:40Z</time>
      </trkpt>
      <trkpt lat="42.71216" lon="1.66352">
        <ele>1114</ele>
        <time>2020-02-08T09:55:41Z</time>
      </trkpt>
      <trkpt lat="42.71216" lon="1.66353">
        <ele>1114</ele>
        <time>2020-02-08T09:55:42Z</time>
      </trkpt>
      <trkpt lat="42.71216" lon="1.66353">
        <ele>1114</ele>
        <time>2020-02-08T09:55:43Z</time>
      </trkpt>
      <trkpt lat="42.71216" lon="1.66353">
        <ele>1114</ele>
        <time>2020-02-08T09:55:44Z</time>
      </trkpt>
      <trkpt lat="42.71216" lon="1.66353">
        <ele>1114</ele>
        <time>2020-02-08T09:55:45Z</time>
      </trkpt>
      <trkpt lat="42.71216" lon="1.66353">
        <ele>1112.3</ele>
        <time>2020-02-08T09:55:46Z</time>
      </trkpt>
      <trkpt lat="42.71216" lon="1.66353">
        <ele>1112.3</ele>
        <time>2020-02-08T09:55:47Z</time>
      </trkpt>
      <trkpt lat="42.71215" lon="1.66353">
        <ele>1112.3</ele>
        <time>2020-02-08T09:55:48Z</time>
      </trkpt>
      <trkpt lat="42.71215" lon="1.66353">
        <ele>1112.3</ele>
        <time>2020-02-08T09:55:49Z</time>
      </trkpt>
      <trkpt lat="42.71215" lon="1.66353">
        <ele>1112.3</ele>
        <time>2020-02-08T09:55:50Z</time>
      </trkpt>
      <trkpt lat="42.71215" lon="1.66353">
        <ele>1112.3</ele>
        <time>2020-02-08T09:55:51Z</time>
      </trkpt>
      <trkpt lat="42.71215" lon="1.66353">
        <ele>1112.3</ele>
        <time>2020-02-08T09:55:52Z</time>
      </trkpt>
      <trkpt lat="42.71215" lon="1.66353">
        <ele>1112.3</ele>
        <time>2020-02-08T09:55:53Z</time>
      </trkpt>
      <trkpt lat="42.71215" lon="1.66353">
        <ele>1112.3</ele>
        <time>2020-02-08T09:55:54Z</time>
      </trkpt>
      <trkpt lat="42.71215" lon="1.66354">
        <ele>1112.3</ele>
        <time>2020-02-08T09:55:55Z</time>
      </trkpt>
      <trkpt lat="42.71215" lon="1.66354">
        <ele>1112.3</ele>
        <time>2020-02-08T09:55:56Z</time>
      </trkpt>
      <trkpt lat="42.71215" lon="1.66354">
        <ele>1112.3</ele>
        <time>2020-02-08T09:55:57Z</time>
      </trkpt>
      <trkpt lat="42.71215" lon="1.66354">
        <ele>1112.3</ele>
        <time>2020-02-08T09:55:58Z</time>
      </trkpt>
      <trkpt lat="42.71215" lon="1.66354">
        <ele>1112.3</ele>
        <time>2020-02-08T09:55:59Z</time>
      </trkpt>
      <trkpt lat="42.71215" lon="1.66354">
        <ele>1112.3</ele>
        <time>2020-02-08T09:56:00Z</time>
      </trkpt>
      <trkpt lat="42.71215" lon="1.66354">
        <ele>1112.3</ele>
        <time>2020-02-08T09:56:01Z</time>
      </trkpt>
      <trkpt lat="42.71215" lon="1.66354">
        <ele>1112.3</ele>
        <time>2020-02-08T09:56:02Z</time>
      </trkpt>
      <trkpt lat="42.71215" lon="1.66354">
        <ele>1112.3</ele>
        <time>2020-02-08T09:56:03Z</time>
      </trkpt>
      <trkpt lat="42.71215" lon="1.66354">
        <ele>1112.3</ele>
        <time>2020-02-08T09:56:04Z</time>
      </trkpt>
      <trkpt lat="42.71215" lon="1.66354">
        <ele>1112.3</ele>
        <time>2020-02-08T09:56:05Z</time>
      </trkpt>
      <trkpt lat="42.71215" lon="1.66354">
        <ele>1112.3</ele>
        <time>2020-02-08T09:56:06Z</time>
      </trkpt>
      <trkpt lat="42.71215" lon="1.66354">
        <ele>1112.3</ele>
        <time>2020-02-08T09:56:07Z</time>
      </trkpt>
      <trkpt lat="42.71215" lon="1.66354">
        <ele>1112.3</ele>
        <time>2020-02-08T09:56:08Z</time>
      </trkpt>
      <trkpt lat="42.71215" lon="1.66354">
        <ele>1112.3</ele>
        <time>2020-02-08T09:56:09Z</time>
      </trkpt>
      <trkpt lat="42.71215" lon="1.66354">
        <ele>1112.3</ele>
        <time>2020-02-08T09:56:10Z</time>
      </trkpt>
      <trkpt lat="42.71215" lon="1.66354">
        <ele>1112.3</ele>
        <time>2020-02-08T09:56:11Z</time>
      </trkpt>
      <trkpt lat="42.71215" lon="1.66354">
        <ele>1112.3</ele>
        <time>2020-02-08T09:56:12Z</time>
      </trkpt>
      <trkpt lat="42.71215" lon="1.66354">
        <ele>1112.3</ele>
        <time>2020-02-08T09:56:13Z</time>
      </trkpt>
      <trkpt lat="42.71215" lon="1.66354">
        <ele>1112.3</ele>
        <time>2020-02-08T09:56:14Z</time>
      </trkpt>
      <trkpt lat="42.71215" lon="1.66354">
        <ele>1112.3</ele>
        <time>2020-02-08T09:56:15Z</time>
      </trkpt>
      <trkpt lat="42.71215" lon="1.66354">
        <ele>1112.3</ele>
        <time>2020-02-08T09:56:16Z</time>
      </trkpt>
      <trkpt lat="42.71215" lon="1.66354">
        <ele>1112.3</ele>
        <time>2020-02-08T09:56:17Z</time>
      </trkpt>
      <trkpt lat="42.71215" lon="1.66354">
        <ele>1112.3</ele>
        <time>2020-02-08T09:56:18Z</time>
      </trkpt>
      <trkpt lat="42.71215" lon="1.66354">
        <ele>1112.3</ele>
        <time>2020-02-08T09:56:19Z</time>
      </trkpt>
      <trkpt lat="42.71215" lon="1.66354">
        <ele>1112.3</ele>
        <time>2020-02-08T09:56:20Z</time>
      </trkpt>
      <trkpt lat="42.71215" lon="1.66354">
        <ele>1112.3</ele>
        <time>2020-02-08T09:56:21Z</time>
      </trkpt>
      <trkpt lat="42.71215" lon="1.66354">
        <ele>1112.3</ele>
        <time>2020-02-08T09:56:22Z</time>
      </trkpt>
      <trkpt lat="42.71215" lon="1.66354">
        <ele>1112.3</ele>
        <time>2020-02-08T09:56:23Z</time>
      </trkpt>
      <trkpt lat="42.71215" lon="1.66354">
        <ele>1112.3</ele>
        <time>2020-02-08T09:56:24Z</time>
      </trkpt>
      <trkpt lat="42.71215" lon="1.66354">
        <ele>1112.3</ele>
        <time>2020-02-08T09:56:25Z</time>
      </trkpt>
      <trkpt lat="42.71215" lon="1.66354">
        <ele>1112.3</ele>
        <time>2020-02-08T09:56:26Z</time>
      </trkpt>
      <trkpt lat="42.71215" lon="1.66354">
        <ele>1112.3</ele>
        <time>2020-02-08T09:56:27Z</time>
      </trkpt>
      <trkpt lat="42.71215" lon="1.66354">
        <ele>1112.3</ele>
        <time>2020-02-08T09:56:28Z</time>
      </trkpt>
      <trkpt lat="42.71215" lon="1.66354">
        <ele>1112.3</ele>
        <time>2020-02-08T09:56:29Z</time>
      </trkpt>
      <trkpt lat="42.71215" lon="1.66354">
        <ele>1112.3</ele>
        <time>2020-02-08T09:56:30Z</time>
      </trkpt>
      <trkpt lat="42.71215" lon="1.66354">
        <ele>1112.3</ele>
        <time>2020-02-08T09:56:31Z</time>
      </trkpt>
      <trkpt lat="42.71215" lon="1.66354">
        <ele>1112.3</ele>
        <time>2020-02-08T09:56:32Z</time>
      </trkpt>
      <trkpt lat="42.71215" lon="1.66354">
        <ele>1112.3</ele>
        <time>2020-02-08T09:56:33Z</time>
      </trkpt>
      <trkpt lat="42.71215" lon="1.66354">
        <ele>1112.3</ele>
        <time>2020-02-08T09:56:34Z</time>
      </trkpt>
      <trkpt lat="42.71215" lon="1.66354">
        <ele>1112.3</ele>
        <time>2020-02-08T09:56:35Z</time>
      </trkpt>
      <trkpt lat="42.71215" lon="1.66354">
        <ele>1112.3</ele>
        <time>2020-02-08T09:56:36Z</time>
      </trkpt>
      <trkpt lat="42.71215" lon="1.66354">
        <ele>1112.3</ele>
        <time>2020-02-08T09:56:37Z</time>
      </trkpt>
      <trkpt lat="42.71215" lon="1.66354">
        <ele>1112.3</ele>
        <time>2020-02-08T09:56:38Z</time>
      </trkpt>
      <trkpt lat="42.71215" lon="1.66354">
        <ele>1112.3</ele>
        <time>2020-02-08T09:56:39Z</time>
      </trkpt>
      <trkpt lat="42.71215" lon="1.66354">
        <ele>1112.3</ele>
        <time>2020-02-08T09:56:40Z</time>
      </trkpt>
      <trkpt lat="42.71215" lon="1.66354">
        <ele>1112.3</ele>
        <time>2020-02-08T09:56:41Z</time>
      </trkpt>
      <trkpt lat="42.71215" lon="1.66354">
        <ele>1112.3</ele>
        <time>2020-02-08T09:56:42Z</time>
      </trkpt>
      <trkpt lat="42.71215" lon="1.66354">
        <ele>1112.3</ele>
        <time>2020-02-08T09:56:43Z</time>
      </trkpt>
      <trkpt lat="42.71215" lon="1.66354">
        <ele>1112.3</ele>
        <time>2020-02-08T09:56:44Z</time>
      </trkpt>
      <trkpt lat="42.71215" lon="1.66354">
        <ele>1112.3</ele>
        <time>2020-02-08T09:56:45Z</time>
      </trkpt>
      <trkpt lat="42.71215" lon="1.66354">
        <ele>1112.3</ele>
        <time>2020-02-08T09:56:46Z</time>
      </trkpt>
      <trkpt lat="42.71215" lon="1.66354">
        <ele>1112.3</ele>
        <time>2020-02-08T09:56:47Z</time>
      </trkpt>
      <trkpt lat="42.71215" lon="1.66354">
        <ele>1112.3</ele>
        <time>2020-02-08T09:56:48Z</time>
      </trkpt>
      <trkpt lat="42.71215" lon="1.66354">
        <ele>1112.3</ele>
        <time>2020-02-08T09:56:49Z</time>
      </trkpt>
      <trkpt lat="42.71215" lon="1.66354">
        <ele>1112.3</ele>
        <time>2020-02-08T09:56:50Z</time>
      </trkpt>
      <trkpt lat="42.71215" lon="1.66354">
        <ele>1112.3</ele>
        <time>2020-02-08T09:56:51Z</time>
      </trkpt>
      <trkpt lat="42.71215" lon="1.66354">
        <ele>1112.3</ele>
        <time>2020-02-08T09:56:52Z</time>
      </trkpt>
      <trkpt lat="42.71215" lon="1.66354">
        <ele>1112.3</ele>
        <time>2020-02-08T09:56:53Z</time>
      </trkpt>
      <trkpt lat="42.71215" lon="1.66354">
        <ele>1112.3</ele>
        <time>2020-02-08T09:56:54Z</time>
      </trkpt>
      <trkpt lat="42.71215" lon="1.66354">
        <ele>1112.3</ele>
        <time>2020-02-08T09:56:55Z</time>
      </trkpt>
      <trkpt lat="42.71215" lon="1.66354">
        <ele>1112.3</ele>
        <time>2020-02-08T09:56:56Z</time>
      </trkpt>
      <trkpt lat="42.71215" lon="1.66354">
        <ele>1112.3</ele>
        <time>2020-02-08T09:56:57Z</time>
      </trkpt>
      <trkpt lat="42.71215" lon="1.66354">
        <ele>1112.3</ele>
        <time>2020-02-08T09:56:58Z</time>
      </trkpt>
      <trkpt lat="42.71215" lon="1.66354">
        <ele>1112.3</ele>
        <time>2020-02-08T09:56:59Z</time>
      </trkpt>
      <trkpt lat="42.71215" lon="1.66354">
        <ele>1112.3</ele>
        <time>2020-02-08T09:57:00Z</time>
      </trkpt>
      <trkpt lat="42.71215" lon="1.66354">
        <ele>1112.3</ele>
        <time>2020-02-08T09:57:01Z</time>
      </trkpt>
      <trkpt lat="42.71215" lon="1.66354">
        <ele>1112.3</ele>
        <time>2020-02-08T09:57:02Z</time>
      </trkpt>
      <trkpt lat="42.71215" lon="1.66354">
        <ele>1112.3</ele>
        <time>2020-02-08T09:57:03Z</time>
      </trkpt>
      <trkpt lat="42.71215" lon="1.66354">
        <ele>1112.3</ele>
        <time>2020-02-08T09:57:04Z</time>
      </trkpt>
      <trkpt lat="42.71215" lon="1.66354">
        <ele>1112.3</ele>
        <time>2020-02-08T09:57:05Z</time>
      </trkpt>
      <trkpt lat="42.71215" lon="1.66354">
        <ele>1112.3</ele>
        <time>2020-02-08T09:57:06Z</time>
      </trkpt>
      <trkpt lat="42.71215" lon="1.66354">
        <ele>1112.3</ele>
        <time>2020-02-08T09:57:07Z</time>
      </trkpt>
      <trkpt lat="42.71215" lon="1.66354">
        <ele>1112.3</ele>
        <time>2020-02-08T09:57:08Z</time>
      </trkpt>
      <trkpt lat="42.71215" lon="1.66354">
        <ele>1112.3</ele>
        <time>2020-02-08T09:57:09Z</time>
      </trkpt>
      <trkpt lat="42.71215" lon="1.66354">
        <ele>1112.3</ele>
        <time>2020-02-08T09:57:10Z</time>
      </trkpt>
      <trkpt lat="42.71215" lon="1.66354">
        <ele>1112.3</ele>
        <time>2020-02-08T09:57:11Z</time>
      </trkpt>
      <trkpt lat="42.71215" lon="1.66354">
        <ele>1112.3</ele>
        <time>2020-02-08T09:57:12Z</time>
      </trkpt>
      <trkpt lat="42.71215" lon="1.66354">
        <ele>1112.3</ele>
        <time>2020-02-08T09:57:13Z</time>
      </trkpt>
      <trkpt lat="42.71215" lon="1.66354">
        <ele>1112.3</ele>
        <time>2020-02-08T09:57:14Z</time>
      </trkpt>
      <trkpt lat="42.71215" lon="1.66354">
        <ele>1112.3</ele>
        <time>2020-02-08T09:57:15Z</time>
      </trkpt>
      <trkpt lat="42.71215" lon="1.66354">
        <ele>1112.3</ele>
        <time>2020-02-08T09:57:16Z</time>
      </trkpt>
      <trkpt lat="42.71215" lon="1.66354">
        <ele>1112.3</ele>
        <time>2020-02-08T09:57:17Z</time>
      </trkpt>
      <trkpt lat="42.71215" lon="1.66354">
        <ele>1112.3</ele>
        <time>2020-02-08T09:57:18Z</time>
      </trkpt>
      <trkpt lat="42.71215" lon="1.66354">
        <ele>1112.3</ele>
        <time>2020-02-08T09:57:19Z</time>
      </trkpt>
      <trkpt lat="42.71215" lon="1.66354">
        <ele>1112.3</ele>
        <time>2020-02-08T09:57:20Z</time>
      </trkpt>
      <trkpt lat="42.71215" lon="1.66354">
        <ele>1112.3</ele>
        <time>2020-02-08T09:57:21Z</time>
      </trkpt>
      <trkpt lat="42.71215" lon="1.66354">
        <ele>1112.3</ele>
        <time>2020-02-08T09:57:22Z</time>
      </trkpt>
      <trkpt lat="42.71215" lon="1.66354">
        <ele>1112.3</ele>
        <time>2020-02-08T09:57:23Z</time>
      </trkpt>
      <trkpt lat="42.71215" lon="1.66354">
        <ele>1112.3</ele>
        <time>2020-02-08T09:57:24Z</time>
      </trkpt>
      <trkpt lat="42.71215" lon="1.66354">
        <ele>1112.3</ele>
        <time>2020-02-08T09:57:25Z</time>
      </trkpt>
      <trkpt lat="42.71215" lon="1.66354">
        <ele>1112.3</ele>
        <time>2020-02-08T09:57:26Z</time>
      </trkpt>
      <trkpt lat="42.71215" lon="1.66354">
        <ele>1112.3</ele>
        <time>2020-02-08T09:57:27Z</time>
      </trkpt>
      <trkpt lat="42.71215" lon="1.66354">
        <ele>1112.3</ele>
        <time>2020-02-08T09:57:28Z</time>
      </trkpt>
      <trkpt lat="42.71215" lon="1.66354">
        <ele>1112.3</ele>
        <time>2020-02-08T09:57:29Z</time>
      </trkpt>
      <trkpt lat="42.71215" lon="1.66354">
        <ele>1112.3</ele>
        <time>2020-02-08T09:57:30Z</time>
      </trkpt>
      <trkpt lat="42.71215" lon="1.66354">
        <ele>1112.3</ele>
        <time>2020-02-08T09:57:31Z</time>
      </trkpt>
      <trkpt lat="42.71215" lon="1.66354">
        <ele>1112.3</ele>
        <time>2020-02-08T09:57:32Z</time>
      </trkpt>
      <trkpt lat="42.71215" lon="1.66354">
        <ele>1112.3</ele>
        <time>2020-02-08T09:57:33Z</time>
      </trkpt>
      <trkpt lat="42.71215" lon="1.66354">
        <ele>1112.3</ele>
        <time>2020-02-08T09:57:34Z</time>
      </trkpt>
      <trkpt lat="42.71215" lon="1.66354">
        <ele>1112.3</ele>
        <time>2020-02-08T09:57:35Z</time>
      </trkpt>
      <trkpt lat="42.71215" lon="1.66354">
        <ele>1112.3</ele>
        <time>2020-02-08T09:57:36Z</time>
      </trkpt>
      <trkpt lat="42.71215" lon="1.66354">
        <ele>1112.3</ele>
        <time>2020-02-08T09:57:37Z</time>
      </trkpt>
      <trkpt lat="42.71215" lon="1.66354">
        <ele>1112.3</ele>
        <time>2020-02-08T09:57:38Z</time>
      </trkpt>
      <trkpt lat="42.71215" lon="1.66354">
        <ele>1112.3</ele>
        <time>2020-02-08T09:57:39Z</time>
      </trkpt>
      <trkpt lat="42.71215" lon="1.66354">
        <ele>1112.3</ele>
        <time>2020-02-08T09:57:40Z</time>
      </trkpt>
      <trkpt lat="42.71215" lon="1.66354">
        <ele>1112.3</ele>
        <time>2020-02-08T09:57:41Z</time>
      </trkpt>
      <trkpt lat="42.71215" lon="1.66354">
        <ele>1112.3</ele>
        <time>2020-02-08T09:57:42Z</time>
      </trkpt>
      <trkpt lat="42.71215" lon="1.66354">
        <ele>1112.3</ele>
        <time>2020-02-08T09:57:43Z</time>
      </trkpt>
      <trkpt lat="42.71215" lon="1.66354">
        <ele>1112.3</ele>
        <time>2020-02-08T09:57:44Z</time>
      </trkpt>
      <trkpt lat="42.71217" lon="1.66352">
        <ele>1114</ele>
        <time>2020-02-08T09:57:45Z</time>
      </trkpt>
      <trkpt lat="42.71217" lon="1.66352">
        <ele>1114</ele>
        <time>2020-02-08T09:57:46Z</time>
      </trkpt>
      <trkpt lat="42.71217" lon="1.66352">
        <ele>1114</ele>
        <time>2020-02-08T09:57:47Z</time>
      </trkpt>
      <trkpt lat="42.71217" lon="1.66352">
        <ele>1114</ele>
        <time>2020-02-08T09:57:48Z</time>
      </trkpt>
      <trkpt lat="42.71217" lon="1.66352">
        <ele>1114</ele>
        <time>2020-02-08T09:57:49Z</time>
      </trkpt>
      <trkpt lat="42.71217" lon="1.66351">
        <ele>1114</ele>
        <time>2020-02-08T09:57:50Z</time>
      </trkpt>
      <trkpt lat="42.71217" lon="1.66351">
        <ele>1114</ele>
        <time>2020-02-08T09:57:51Z</time>
      </trkpt>
      <trkpt lat="42.71217" lon="1.66351">
        <ele>1114</ele>
        <time>2020-02-08T09:57:52Z</time>
      </trkpt>
      <trkpt lat="42.71217" lon="1.66351">
        <ele>1114</ele>
        <time>2020-02-08T09:57:53Z</time>
      </trkpt>
      <trkpt lat="42.71217" lon="1.6635">
        <ele>1114</ele>
        <time>2020-02-08T09:57:54Z</time>
      </trkpt>
      <trkpt lat="42.71217" lon="1.6635">
        <ele>1114</ele>
        <time>2020-02-08T09:57:55Z</time>
      </trkpt>
      <trkpt lat="42.71217" lon="1.6635">
        <ele>1114</ele>
        <time>2020-02-08T09:57:56Z</time>
      </trkpt>
      <trkpt lat="42.71217" lon="1.6635">
        <ele>1114</ele>
        <time>2020-02-08T09:57:57Z</time>
      </trkpt>
      <trkpt lat="42.71216" lon="1.66349">
        <ele>1114</ele>
        <time>2020-02-08T09:57:58Z</time>
      </trkpt>
      <trkpt lat="42.71216" lon="1.66349">
        <ele>1114</ele>
        <time>2020-02-08T09:57:59Z</time>
      </trkpt>
      <trkpt lat="42.71216" lon="1.66349">
        <ele>1114</ele>
        <time>2020-02-08T09:58:00Z</time>
      </trkpt>
      <trkpt lat="42.71216" lon="1.66349">
        <ele>1114</ele>
        <time>2020-02-08T09:58:01Z</time>
      </trkpt>
      <trkpt lat="42.71216" lon="1.66349">
        <ele>1114</ele>
        <time>2020-02-08T09:58:02Z</time>
      </trkpt>
      <trkpt lat="42.71216" lon="1.66348">
        <ele>1115.6</ele>
        <time>2020-02-08T09:58:03Z</time>
      </trkpt>
      <trkpt lat="42.71216" lon="1.66348">
        <ele>1115.6</ele>
        <time>2020-02-08T09:58:04Z</time>
      </trkpt>
      <trkpt lat="42.71216" lon="1.66348">
        <ele>1115.6</ele>
        <time>2020-02-08T09:58:05Z</time>
      </trkpt>
      <trkpt lat="42.71216" lon="1.66348">
        <ele>1115.6</ele>
        <time>2020-02-08T09:58:06Z</time>
      </trkpt>
      <trkpt lat="42.71216" lon="1.66347">
        <ele>1115.6</ele>
        <time>2020-02-08T09:58:07Z</time>
      </trkpt>
      <trkpt lat="42.71216" lon="1.66347">
        <ele>1115.6</ele>
        <time>2020-02-08T09:58:08Z</time>
      </trkpt>
      <trkpt lat="42.71216" lon="1.66347">
        <ele>1115.6</ele>
        <time>2020-02-08T09:58:09Z</time>
      </trkpt>
      <trkpt lat="42.71216" lon="1.66347">
        <ele>1115.6</ele>
        <time>2020-02-08T09:58:10Z</time>
      </trkpt>
      <trkpt lat="42.71214" lon="1.66345">
        <ele>1115.8</ele>
        <time>2020-02-08T09:58:11Z</time>
      </trkpt>
      <trkpt lat="42.71214" lon="1.66345">
        <ele>1115.8</ele>
        <time>2020-02-08T09:58:12Z</time>
      </trkpt>
      <trkpt lat="42.71214" lon="1.66345">
        <ele>1115.8</ele>
        <time>2020-02-08T09:58:13Z</time>
      </trkpt>
      <trkpt lat="42.71214" lon="1.66345">
        <ele>1115.8</ele>
        <time>2020-02-08T09:58:14Z</time>
      </trkpt>
      <trkpt lat="42.71214" lon="1.66345">
        <ele>1115.8</ele>
        <time>2020-02-08T09:58:15Z</time>
      </trkpt>
      <trkpt lat="42.71214" lon="1.66345">
        <ele>1115.8</ele>
        <time>2020-02-08T09:58:16Z</time>
      </trkpt>
      <trkpt lat="42.71214" lon="1.66345">
        <ele>1115.8</ele>
        <time>2020-02-08T09:58:17Z</time>
      </trkpt>
      <trkpt lat="42.71214" lon="1.66345">
        <ele>1115.8</ele>
        <time>2020-02-08T09:58:18Z</time>
      </trkpt>
      <trkpt lat="42.71214" lon="1.66345">
        <ele>1115.8</ele>
        <time>2020-02-08T09:58:19Z</time>
      </trkpt>
      <trkpt lat="42.71213" lon="1.66344">
        <ele>1115.8</ele>
        <time>2020-02-08T09:58:20Z</time>
      </trkpt>
      <trkpt lat="42.71213" lon="1.66343">
        <ele>1117.5</ele>
        <time>2020-02-08T09:58:21Z</time>
      </trkpt>
      <trkpt lat="42.71212" lon="1.66342">
        <ele>1117.5</ele>
        <time>2020-02-08T09:58:22Z</time>
      </trkpt>
      <trkpt lat="42.71212" lon="1.66341">
        <ele>1117.5</ele>
        <time>2020-02-08T09:58:23Z</time>
      </trkpt>
      <trkpt lat="42.71211" lon="1.6634">
        <ele>1119.3</ele>
        <time>2020-02-08T09:58:24Z</time>
      </trkpt>
      <trkpt lat="42.71211" lon="1.66339">
        <ele>1119.3</ele>
        <time>2020-02-08T09:58:25Z</time>
      </trkpt>
      <trkpt lat="42.7121" lon="1.66338">
        <ele>1119.3</ele>
        <time>2020-02-08T09:58:26Z</time>
      </trkpt>
      <trkpt lat="42.7121" lon="1.66336">
        <ele>1119.3</ele>
        <time>2020-02-08T09:58:27Z</time>
      </trkpt>
      <trkpt lat="42.7121" lon="1.66335">
        <ele>1120.8</ele>
        <time>2020-02-08T09:58:28Z</time>
      </trkpt>
      <trkpt lat="42.71209" lon="1.66334">
        <ele>1120.8</ele>
        <time>2020-02-08T09:58:29Z</time>
      </trkpt>
      <trkpt lat="42.71209" lon="1.66333">
        <ele>1120.8</ele>
        <time>2020-02-08T09:58:30Z</time>
      </trkpt>
      <trkpt lat="42.71209" lon="1.66332">
        <ele>1120.8</ele>
        <time>2020-02-08T09:58:31Z</time>
      </trkpt>
      <trkpt lat="42.71208" lon="1.66331">
        <ele>1122.5</ele>
        <time>2020-02-08T09:58:32Z</time>
      </trkpt>
      <trkpt lat="42.71208" lon="1.6633">
        <ele>1122.5</ele>
        <time>2020-02-08T09:58:33Z</time>
      </trkpt>
      <trkpt lat="42.71208" lon="1.66328">
        <ele>1122.5</ele>
        <time>2020-02-08T09:58:34Z</time>
      </trkpt>
      <trkpt lat="42.71207" lon="1.66327">
        <ele>1122.5</ele>
        <time>2020-02-08T09:58:35Z</time>
      </trkpt>
      <trkpt lat="42.71207" lon="1.66326">
        <ele>1124</ele>
        <time>2020-02-08T09:58:36Z</time>
      </trkpt>
      <trkpt lat="42.71207" lon="1.66325">
        <ele>1124</ele>
        <time>2020-02-08T09:58:37Z</time>
      </trkpt>
      <trkpt lat="42.71207" lon="1.66324">
        <ele>1124</ele>
        <time>2020-02-08T09:58:38Z</time>
      </trkpt>
      <trkpt lat="42.71206" lon="1.66322">
        <ele>1125.5</ele>
        <time>2020-02-08T09:58:39Z</time>
      </trkpt>
      <trkpt lat="42.71207" lon="1.66321">
        <ele>1125.5</ele>
        <time>2020-02-08T09:58:40Z</time>
      </trkpt>
      <trkpt lat="42.71207" lon="1.6632">
        <ele>1125.5</ele>
        <time>2020-02-08T09:58:41Z</time>
      </trkpt>
      <trkpt lat="42.71207" lon="1.66318">
        <ele>1127</ele>
        <time>2020-02-08T09:58:42Z</time>
      </trkpt>
      <trkpt lat="42.71207" lon="1.66317">
        <ele>1127</ele>
        <time>2020-02-08T09:58:43Z</time>
      </trkpt>
      <trkpt lat="42.71208" lon="1.66316">
        <ele>1127</ele>
        <time>2020-02-08T09:58:44Z</time>
      </trkpt>
      <trkpt lat="42.71208" lon="1.66315">
        <ele>1127</ele>
        <time>2020-02-08T09:58:45Z</time>
      </trkpt>
      <trkpt lat="42.71208" lon="1.66313">
        <ele>1128.7</ele>
        <time>2020-02-08T09:58:46Z</time>
      </trkpt>
      <trkpt lat="42.71209" lon="1.66312">
        <ele>1128.4</ele>
        <time>2020-02-08T09:58:47Z</time>
      </trkpt>
      <trkpt lat="42.71209" lon="1.66311">
        <ele>1128.4</ele>
        <time>2020-02-08T09:58:48Z</time>
      </trkpt>
      <trkpt lat="42.71209" lon="1.66309">
        <ele>1130.1</ele>
        <time>2020-02-08T09:58:49Z</time>
      </trkpt>
      <trkpt lat="42.7121" lon="1.66308">
        <ele>1130.1</ele>
        <time>2020-02-08T09:58:50Z</time>
      </trkpt>
      <trkpt lat="42.71211" lon="1.66308">
        <ele>1130.1</ele>
        <time>2020-02-08T09:58:51Z</time>
      </trkpt>
      <trkpt lat="42.71211" lon="1.66307">
        <ele>1130.1</ele>
        <time>2020-02-08T09:58:52Z</time>
      </trkpt>
      <trkpt lat="42.71212" lon="1.66306">
        <ele>1129.8</ele>
        <time>2020-02-08T09:58:53Z</time>
      </trkpt>
      <trkpt lat="42.71213" lon="1.66305">
        <ele>1131.5</ele>
        <time>2020-02-08T09:58:54Z</time>
      </trkpt>
      <trkpt lat="42.71214" lon="1.66304">
        <ele>1131.5</ele>
        <time>2020-02-08T09:58:55Z</time>
      </trkpt>
      <trkpt lat="42.71214" lon="1.66303">
        <ele>1131.5</ele>
        <time>2020-02-08T09:58:56Z</time>
      </trkpt>
      <trkpt lat="42.71215" lon="1.66303">
        <ele>1131.2</ele>
        <time>2020-02-08T09:58:57Z</time>
      </trkpt>
      <trkpt lat="42.71216" lon="1.66302">
        <ele>1131.2</ele>
        <time>2020-02-08T09:58:58Z</time>
      </trkpt>
      <trkpt lat="42.71217" lon="1.66301">
        <ele>1132.8</ele>
        <time>2020-02-08T09:58:59Z</time>
      </trkpt>
      <trkpt lat="42.71217" lon="1.663">
        <ele>1132.8</ele>
        <time>2020-02-08T09:59:00Z</time>
      </trkpt>
      <trkpt lat="42.71217" lon="1.663">
        <ele>1132.8</ele>
        <time>2020-02-08T09:59:01Z</time>
      </trkpt>
      <trkpt lat="42.71216" lon="1.66299">
        <ele>1132.8</ele>
        <time>2020-02-08T09:59:02Z</time>
      </trkpt>
      <trkpt lat="42.71216" lon="1.66298">
        <ele>1132.8</ele>
        <time>2020-02-08T09:59:03Z</time>
      </trkpt>
      <trkpt lat="42.71216" lon="1.66298">
        <ele>1132.8</ele>
        <time>2020-02-08T09:59:04Z</time>
      </trkpt>
      <trkpt lat="42.71216" lon="1.66297">
        <ele>1132.8</ele>
        <time>2020-02-08T09:59:05Z</time>
      </trkpt>
      <trkpt lat="42.71216" lon="1.66296">
        <ele>1134.4</ele>
        <time>2020-02-08T09:59:06Z</time>
      </trkpt>
      <trkpt lat="42.71216" lon="1.66296">
        <ele>1134.4</ele>
        <time>2020-02-08T09:59:07Z</time>
      </trkpt>
      <trkpt lat="42.71216" lon="1.66295">
        <ele>1134.4</ele>
        <time>2020-02-08T09:59:08Z</time>
      </trkpt>
      <trkpt lat="42.71216" lon="1.66295">
        <ele>1134.4</ele>
        <time>2020-02-08T09:59:09Z</time>
      </trkpt>
      <trkpt lat="42.71216" lon="1.66294">
        <ele>1134.4</ele>
        <time>2020-02-08T09:59:10Z</time>
      </trkpt>
      <trkpt lat="42.71216" lon="1.66293">
        <ele>1134.4</ele>
        <time>2020-02-08T09:59:11Z</time>
      </trkpt>
      <trkpt lat="42.71216" lon="1.66293">
        <ele>1134.4</ele>
        <time>2020-02-08T09:59:12Z</time>
      </trkpt>
      <trkpt lat="42.71216" lon="1.66292">
        <ele>1135.9</ele>
        <time>2020-02-08T09:59:13Z</time>
      </trkpt>
      <trkpt lat="42.71216" lon="1.66291">
        <ele>1135.9</ele>
        <time>2020-02-08T09:59:14Z</time>
      </trkpt>
      <trkpt lat="42.71216" lon="1.66291">
        <ele>1135.9</ele>
        <time>2020-02-08T09:59:15Z</time>
      </trkpt>
      <trkpt lat="42.71216" lon="1.6629">
        <ele>1135.9</ele>
        <time>2020-02-08T09:59:16Z</time>
      </trkpt>
      <trkpt lat="42.71215" lon="1.6629">
        <ele>1135.9</ele>
        <time>2020-02-08T09:59:17Z</time>
      </trkpt>
      <trkpt lat="42.71215" lon="1.66289">
        <ele>1135.9</ele>
        <time>2020-02-08T09:59:18Z</time>
      </trkpt>
      <trkpt lat="42.71215" lon="1.66288">
        <ele>1137.3</ele>
        <time>2020-02-08T09:59:19Z</time>
      </trkpt>
      <trkpt lat="42.71216" lon="1.66287">
        <ele>1137.3</ele>
        <time>2020-02-08T09:59:20Z</time>
      </trkpt>
      <trkpt lat="42.71218" lon="1.66286">
        <ele>1137.3</ele>
        <time>2020-02-08T09:59:21Z</time>
      </trkpt>
      <trkpt lat="42.71219" lon="1.66285">
        <ele>1136.9</ele>
        <time>2020-02-08T09:59:22Z</time>
      </trkpt>
      <trkpt lat="42.7122" lon="1.66284">
        <ele>1136.9</ele>
        <time>2020-02-08T09:59:23Z</time>
      </trkpt>
      <trkpt lat="42.71221" lon="1.66283">
        <ele>1138.2</ele>
        <time>2020-02-08T09:59:24Z</time>
      </trkpt>
      <trkpt lat="42.71222" lon="1.66282">
        <ele>1137.8</ele>
        <time>2020-02-08T09:59:25Z</time>
      </trkpt>
      <trkpt lat="42.71223" lon="1.66281">
        <ele>1137.8</ele>
        <time>2020-02-08T09:59:26Z</time>
      </trkpt>
      <trkpt lat="42.71224" lon="1.6628">
        <ele>1137.8</ele>
        <time>2020-02-08T09:59:27Z</time>
      </trkpt>
      <trkpt lat="42.71225" lon="1.66279">
        <ele>1138.7</ele>
        <time>2020-02-08T09:59:28Z</time>
      </trkpt>
      <trkpt lat="42.71226" lon="1.66278">
        <ele>1138.7</ele>
        <time>2020-02-08T09:59:29Z</time>
      </trkpt>
      <trkpt lat="42.71227" lon="1.66277">
        <ele>1138.7</ele>
        <time>2020-02-08T09:59:30Z</time>
      </trkpt>
      <trkpt lat="42.71227" lon="1.66276">
        <ele>1138.4</ele>
        <time>2020-02-08T09:59:31Z</time>
      </trkpt>
      <trkpt lat="42.71228" lon="1.66275">
        <ele>1139.8</ele>
        <time>2020-02-08T09:59:32Z</time>
      </trkpt>
      <trkpt lat="42.71229" lon="1.66274">
        <ele>1139.8</ele>
        <time>2020-02-08T09:59:33Z</time>
      </trkpt>
      <trkpt lat="42.71229" lon="1.66274">
        <ele>1139.8</ele>
        <time>2020-02-08T09:59:34Z</time>
      </trkpt>
      <trkpt lat="42.7123" lon="1.66273">
        <ele>1139.8</ele>
        <time>2020-02-08T09:59:35Z</time>
      </trkpt>
      <trkpt lat="42.71231" lon="1.66272">
        <ele>1139.4</ele>
        <time>2020-02-08T09:59:36Z</time>
      </trkpt>
      <trkpt lat="42.71231" lon="1.66271">
        <ele>1140.9</ele>
        <time>2020-02-08T09:59:37Z</time>
      </trkpt>
      <trkpt lat="42.71232" lon="1.6627">
        <ele>1140.9</ele>
        <time>2020-02-08T09:59:38Z</time>
      </trkpt>
      <trkpt lat="42.71232" lon="1.66269">
        <ele>1140.9</ele>
        <time>2020-02-08T09:59:39Z</time>
      </trkpt>
      <trkpt lat="42.71232" lon="1.66268">
        <ele>1140.9</ele>
        <time>2020-02-08T09:59:40Z</time>
      </trkpt>
      <trkpt lat="42.71231" lon="1.66268">
        <ele>1140.9</ele>
        <time>2020-02-08T09:59:41Z</time>
      </trkpt>
      <trkpt lat="42.7123" lon="1.66267">
        <ele>1141.2</ele>
        <time>2020-02-08T09:59:42Z</time>
      </trkpt>
      <trkpt lat="42.71229" lon="1.66267">
        <ele>1142.7</ele>
        <time>2020-02-08T09:59:43Z</time>
      </trkpt>
      <trkpt lat="42.71228" lon="1.66266">
        <ele>1142.7</ele>
        <time>2020-02-08T09:59:44Z</time>
      </trkpt>
      <trkpt lat="42.71227" lon="1.66266">
        <ele>1142.7</ele>
        <time>2020-02-08T09:59:45Z</time>
      </trkpt>
      <trkpt lat="42.71227" lon="1.66265">
        <ele>1143.1</ele>
        <time>2020-02-08T09:59:46Z</time>
      </trkpt>
      <trkpt lat="42.71226" lon="1.66265">
        <ele>1143.1</ele>
        <time>2020-02-08T09:59:47Z</time>
      </trkpt>
      <trkpt lat="42.71225" lon="1.66264">
        <ele>1143.1</ele>
        <time>2020-02-08T09:59:48Z</time>
      </trkpt>
      <trkpt lat="42.71224" lon="1.66264">
        <ele>1143.6</ele>
        <time>2020-02-08T09:59:49Z</time>
      </trkpt>
      <trkpt lat="42.71224" lon="1.66263">
        <ele>1145.1</ele>
        <time>2020-02-08T09:59:50Z</time>
      </trkpt>
      <trkpt lat="42.71223" lon="1.66261">
        <ele>1145.1</ele>
        <time>2020-02-08T09:59:51Z</time>
      </trkpt>
      <trkpt lat="42.71223" lon="1.6626">
        <ele>1145.1</ele>
        <time>2020-02-08T09:59:52Z</time>
      </trkpt>
      <trkpt lat="42.71223" lon="1.66259">
        <ele>1145.1</ele>
        <time>2020-02-08T09:59:53Z</time>
      </trkpt>
      <trkpt lat="42.71223" lon="1.66258">
        <ele>1146.7</ele>
        <time>2020-02-08T09:59:54Z</time>
      </trkpt>
      <trkpt lat="42.71222" lon="1.66257">
        <ele>1146.7</ele>
        <time>2020-02-08T09:59:55Z</time>
      </trkpt>
      <trkpt lat="42.71222" lon="1.66256">
        <ele>1146.7</ele>
        <time>2020-02-08T09:59:56Z</time>
      </trkpt>
      <trkpt lat="42.71222" lon="1.66254">
        <ele>1146.7</ele>
        <time>2020-02-08T09:59:57Z</time>
      </trkpt>
      <trkpt lat="42.71222" lon="1.66253">
        <ele>1148.2</ele>
        <time>2020-02-08T09:59:58Z</time>
      </trkpt>
      <trkpt lat="42.71221" lon="1.66252">
        <ele>1148.2</ele>
        <time>2020-02-08T09:59:59Z</time>
      </trkpt>
      <trkpt lat="42.71221" lon="1.66251">
        <ele>1148.2</ele>
        <time>2020-02-08T10:00:00Z</time>
      </trkpt>
      <trkpt lat="42.71221" lon="1.66251">
        <ele>1148.2</ele>
        <time>2020-02-08T10:00:01Z</time>
      </trkpt>
      <trkpt lat="42.71221" lon="1.6625">
        <ele>1148.8</ele>
        <time>2020-02-08T10:00:02Z</time>
      </trkpt>
      <trkpt lat="42.71221" lon="1.6625">
        <ele>1150.4</ele>
        <time>2020-02-08T10:00:03Z</time>
      </trkpt>
      <trkpt lat="42.71221" lon="1.66249">
        <ele>1150.4</ele>
        <time>2020-02-08T10:00:04Z</time>
      </trkpt>
      <trkpt lat="42.7122" lon="1.66249">
        <ele>1150.4</ele>
        <time>2020-02-08T10:00:05Z</time>
      </trkpt>
      <trkpt lat="42.7122" lon="1.66248">
        <ele>1150.4</ele>
        <time>2020-02-08T10:00:06Z</time>
      </trkpt>
      <trkpt lat="42.7122" lon="1.66247">
        <ele>1150.4</ele>
        <time>2020-02-08T10:00:07Z</time>
      </trkpt>
      <trkpt lat="42.7122" lon="1.66247">
        <ele>1150.5</ele>
        <time>2020-02-08T10:00:08Z</time>
      </trkpt>
      <trkpt lat="42.7122" lon="1.66246">
        <ele>1150.5</ele>
        <time>2020-02-08T10:00:09Z</time>
      </trkpt>
      <trkpt lat="42.7122" lon="1.66246">
        <ele>1150.5</ele>
        <time>2020-02-08T10:00:10Z</time>
      </trkpt>
      <trkpt lat="42.71219" lon="1.66245">
        <ele>1152.1</ele>
        <time>2020-02-08T10:00:11Z</time>
      </trkpt>
      <trkpt lat="42.71219" lon="1.66245">
        <ele>1152.1</ele>
        <time>2020-02-08T10:00:12Z</time>
      </trkpt>
      <trkpt lat="42.71219" lon="1.66244">
        <ele>1152.1</ele>
        <time>2020-02-08T10:00:13Z</time>
      </trkpt>
      <trkpt lat="42.71219" lon="1.66243">
        <ele>1152.2</ele>
        <time>2020-02-08T10:00:14Z</time>
      </trkpt>
      <trkpt lat="42.71219" lon="1.66243">
        <ele>1152.2</ele>
        <time>2020-02-08T10:00:15Z</time>
      </trkpt>
      <trkpt lat="42.71219" lon="1.66242">
        <ele>1152.3</ele>
        <time>2020-02-08T10:00:16Z</time>
      </trkpt>
      <trkpt lat="42.71218" lon="1.66242">
        <ele>1152.3</ele>
        <time>2020-02-08T10:00:17Z</time>
      </trkpt>
      <trkpt lat="42.71218" lon="1.66241">
        <ele>1153.7</ele>
        <time>2020-02-08T10:00:18Z</time>
      </trkpt>
      <trkpt lat="42.71218" lon="1.66241">
        <ele>1153.8</ele>
        <time>2020-02-08T10:00:19Z</time>
      </trkpt>
      <trkpt lat="42.71218" lon="1.6624">
        <ele>1153.8</ele>
        <time>2020-02-08T10:00:20Z</time>
      </trkpt>
      <trkpt lat="42.71218" lon="1.6624">
        <ele>1154.4</ele>
        <time>2020-02-08T10:00:21Z</time>
      </trkpt>
      <trkpt lat="42.71218" lon="1.6624">
        <ele>1154.5</ele>
        <time>2020-02-08T10:00:22Z</time>
      </trkpt>
      <trkpt lat="42.71218" lon="1.6624">
        <ele>1154.5</ele>
        <time>2020-02-08T10:00:23Z</time>
      </trkpt>
      <trkpt lat="42.71218" lon="1.6624">
        <ele>1154.5</ele>
        <time>2020-02-08T10:00:24Z</time>
      </trkpt>
      <trkpt lat="42.71217" lon="1.6624">
        <ele>1154.6</ele>
        <time>2020-02-08T10:00:25Z</time>
      </trkpt>
      <trkpt lat="42.71217" lon="1.6624">
        <ele>1154.6</ele>
        <time>2020-02-08T10:00:26Z</time>
      </trkpt>
      <trkpt lat="42.71217" lon="1.6624">
        <ele>1154.7</ele>
        <time>2020-02-08T10:00:27Z</time>
      </trkpt>
      <trkpt lat="42.71217" lon="1.6624">
        <ele>1154.7</ele>
        <time>2020-02-08T10:00:28Z</time>
      </trkpt>
      <trkpt lat="42.71217" lon="1.6624">
        <ele>1154.7</ele>
        <time>2020-02-08T10:00:29Z</time>
      </trkpt>
      <trkpt lat="42.71217" lon="1.6624">
        <ele>1154.8</ele>
        <time>2020-02-08T10:00:30Z</time>
      </trkpt>
      <trkpt lat="42.71217" lon="1.6624">
        <ele>1154.8</ele>
        <time>2020-02-08T10:00:31Z</time>
      </trkpt>
      <trkpt lat="42.71217" lon="1.6624">
        <ele>1154.8</ele>
        <time>2020-02-08T10:00:32Z</time>
      </trkpt>
      <trkpt lat="42.71217" lon="1.66239">
        <ele>1154.9</ele>
        <time>2020-02-08T10:00:33Z</time>
      </trkpt>
      <trkpt lat="42.71216" lon="1.66239">
        <ele>1154.9</ele>
        <time>2020-02-08T10:00:34Z</time>
      </trkpt>
      <trkpt lat="42.71216" lon="1.66239">
        <ele>1154.9</ele>
        <time>2020-02-08T10:00:35Z</time>
      </trkpt>
      <trkpt lat="42.71216" lon="1.66239">
        <ele>1155</ele>
        <time>2020-02-08T10:00:36Z</time>
      </trkpt>
      <trkpt lat="42.71216" lon="1.66239">
        <ele>1155</ele>
        <time>2020-02-08T10:00:37Z</time>
      </trkpt>
      <trkpt lat="42.71216" lon="1.66239">
        <ele>1155.1</ele>
        <time>2020-02-08T10:00:38Z</time>
      </trkpt>
      <trkpt lat="42.71216" lon="1.66239">
        <ele>1155.1</ele>
        <time>2020-02-08T10:00:39Z</time>
      </trkpt>
      <trkpt lat="42.71216" lon="1.66239">
        <ele>1155.1</ele>
        <time>2020-02-08T10:00:40Z</time>
      </trkpt>
      <trkpt lat="42.71216" lon="1.66239">
        <ele>1155.2</ele>
        <time>2020-02-08T10:00:41Z</time>
      </trkpt>
      <trkpt lat="42.71216" lon="1.66239">
        <ele>1155.2</ele>
        <time>2020-02-08T10:00:42Z</time>
      </trkpt>
      <trkpt lat="42.71216" lon="1.66239">
        <ele>1155.2</ele>
        <time>2020-02-08T10:00:43Z</time>
      </trkpt>
      <trkpt lat="42.71215" lon="1.66239">
        <ele>1155.3</ele>
        <time>2020-02-08T10:00:44Z</time>
      </trkpt>
      <trkpt lat="42.71215" lon="1.66238">
        <ele>1155.3</ele>
        <time>2020-02-08T10:00:45Z</time>
      </trkpt>
      <trkpt lat="42.71215" lon="1.66238">
        <ele>1155.3</ele>
        <time>2020-02-08T10:00:46Z</time>
      </trkpt>
      <trkpt lat="42.71215" lon="1.66238">
        <ele>1155.4</ele>
        <time>2020-02-08T10:00:47Z</time>
      </trkpt>
      <trkpt lat="42.71215" lon="1.66238">
        <ele>1155.4</ele>
        <time>2020-02-08T10:00:48Z</time>
      </trkpt>
      <trkpt lat="42.71215" lon="1.66238">
        <ele>1155.4</ele>
        <time>2020-02-08T10:00:49Z</time>
      </trkpt>
      <trkpt lat="42.71215" lon="1.66238">
        <ele>1155.5</ele>
        <time>2020-02-08T10:00:50Z</time>
      </trkpt>
      <trkpt lat="42.71215" lon="1.66238">
        <ele>1156.1</ele>
        <time>2020-02-08T10:00:51Z</time>
      </trkpt>
      <trkpt lat="42.71215" lon="1.66238">
        <ele>1156.2</ele>
        <time>2020-02-08T10:00:52Z</time>
      </trkpt>
      <trkpt lat="42.71214" lon="1.66238">
        <ele>1156.2</ele>
        <time>2020-02-08T10:00:53Z</time>
      </trkpt>
      <trkpt lat="42.71214" lon="1.66238">
        <ele>1156.2</ele>
        <time>2020-02-08T10:00:54Z</time>
      </trkpt>
      <trkpt lat="42.71214" lon="1.66238">
        <ele>1156.3</ele>
        <time>2020-02-08T10:00:55Z</time>
      </trkpt>
      <trkpt lat="42.71214" lon="1.66238">
        <ele>1156.3</ele>
        <time>2020-02-08T10:00:56Z</time>
      </trkpt>
      <trkpt lat="42.71214" lon="1.66238">
        <ele>1156.3</ele>
        <time>2020-02-08T10:00:57Z</time>
      </trkpt>
      <trkpt lat="42.71214" lon="1.66237">
        <ele>1156.4</ele>
        <time>2020-02-08T10:00:58Z</time>
      </trkpt>
      <trkpt lat="42.71214" lon="1.66237">
        <ele>1156.4</ele>
        <time>2020-02-08T10:00:59Z</time>
      </trkpt>
      <trkpt lat="42.71214" lon="1.66237">
        <ele>1156.4</ele>
        <time>2020-02-08T10:01:00Z</time>
      </trkpt>
      <trkpt lat="42.71214" lon="1.66237">
        <ele>1156.5</ele>
        <time>2020-02-08T10:01:01Z</time>
      </trkpt>
      <trkpt lat="42.71213" lon="1.66237">
        <ele>1156.5</ele>
        <time>2020-02-08T10:01:02Z</time>
      </trkpt>
      <trkpt lat="42.71213" lon="1.66237">
        <ele>1156.6</ele>
        <time>2020-02-08T10:01:03Z</time>
      </trkpt>
      <trkpt lat="42.71213" lon="1.66237">
        <ele>1156.6</ele>
        <time>2020-02-08T10:01:04Z</time>
      </trkpt>
      <trkpt lat="42.71213" lon="1.66237">
        <ele>1158.1</ele>
        <time>2020-02-08T10:01:05Z</time>
      </trkpt>
      <trkpt lat="42.71213" lon="1.66237">
        <ele>1158.1</ele>
        <time>2020-02-08T10:01:06Z</time>
      </trkpt>
      <trkpt lat="42.71213" lon="1.66237">
        <ele>1158.1</ele>
        <time>2020-02-08T10:01:07Z</time>
      </trkpt>
      <trkpt lat="42.71213" lon="1.66237">
        <ele>1158.2</ele>
        <time>2020-02-08T10:01:08Z</time>
      </trkpt>
      <trkpt lat="42.71213" lon="1.66237">
        <ele>1158.2</ele>
        <time>2020-02-08T10:01:09Z</time>
      </trkpt>
      <trkpt lat="42.71213" lon="1.66235">
        <ele>1158.2</ele>
        <time>2020-02-08T10:01:10Z</time>
      </trkpt>
      <trkpt lat="42.71213" lon="1.66234">
        <ele>1158.3</ele>
        <time>2020-02-08T10:01:11Z</time>
      </trkpt>
      <trkpt lat="42.71213" lon="1.66233">
        <ele>1158.3</ele>
        <time>2020-02-08T10:01:12Z</time>
      </trkpt>
      <trkpt lat="42.71213" lon="1.66232">
        <ele>1159.8</ele>
        <time>2020-02-08T10:01:13Z</time>
      </trkpt>
      <trkpt lat="42.71213" lon="1.6623">
        <ele>1159.9</ele>
        <time>2020-02-08T10:01:14Z</time>
      </trkpt>
      <trkpt lat="42.71213" lon="1.66229">
        <ele>1159.9</ele>
        <time>2020-02-08T10:01:15Z</time>
      </trkpt>
      <trkpt lat="42.71213" lon="1.66228">
        <ele>1161.5</ele>
        <time>2020-02-08T10:01:16Z</time>
      </trkpt>
      <trkpt lat="42.71213" lon="1.66227">
        <ele>1161.5</ele>
        <time>2020-02-08T10:01:17Z</time>
      </trkpt>
      <trkpt lat="42.71213" lon="1.66225">
        <ele>1161.5</ele>
        <time>2020-02-08T10:01:18Z</time>
      </trkpt>
      <trkpt lat="42.71213" lon="1.66224">
        <ele>1161.6</ele>
        <time>2020-02-08T10:01:19Z</time>
      </trkpt>
      <trkpt lat="42.71212" lon="1.66224">
        <ele>1163.2</ele>
        <time>2020-02-08T10:01:20Z</time>
      </trkpt>
      <trkpt lat="42.71212" lon="1.66223">
        <ele>1163.2</ele>
        <time>2020-02-08T10:01:21Z</time>
      </trkpt>
      <trkpt lat="42.71212" lon="1.66222">
        <ele>1163.3</ele>
        <time>2020-02-08T10:01:22Z</time>
      </trkpt>
      <trkpt lat="42.71211" lon="1.66222">
        <ele>1164</ele>
        <time>2020-02-08T10:01:23Z</time>
      </trkpt>
      <trkpt lat="42.71211" lon="1.66221">
        <ele>1164</ele>
        <time>2020-02-08T10:01:24Z</time>
      </trkpt>
      <trkpt lat="42.71211" lon="1.6622">
        <ele>1164</ele>
        <time>2020-02-08T10:01:25Z</time>
      </trkpt>
      <trkpt lat="42.7121" lon="1.6622">
        <ele>1164.1</ele>
        <time>2020-02-08T10:01:26Z</time>
      </trkpt>
      <trkpt lat="42.7121" lon="1.66219">
        <ele>1165.7</ele>
        <time>2020-02-08T10:01:27Z</time>
      </trkpt>
      <trkpt lat="42.7121" lon="1.66219">
        <ele>1165.8</ele>
        <time>2020-02-08T10:01:28Z</time>
      </trkpt>
      <trkpt lat="42.71209" lon="1.66218">
        <ele>1165.8</ele>
        <time>2020-02-08T10:01:29Z</time>
      </trkpt>
      <trkpt lat="42.71209" lon="1.66217">
        <ele>1165.8</ele>
        <time>2020-02-08T10:01:30Z</time>
      </trkpt>
      <trkpt lat="42.71209" lon="1.66217">
        <ele>1165.9</ele>
        <time>2020-02-08T10:01:31Z</time>
      </trkpt>
      <trkpt lat="42.71208" lon="1.66216">
        <ele>1166.6</ele>
        <time>2020-02-08T10:01:32Z</time>
      </trkpt>
      <trkpt lat="42.71208" lon="1.66215">
        <ele>1168.3</ele>
        <time>2020-02-08T10:01:33Z</time>
      </trkpt>
      <trkpt lat="42.71208" lon="1.66215">
        <ele>1168.4</ele>
        <time>2020-02-08T10:01:34Z</time>
      </trkpt>
      <trkpt lat="42.71207" lon="1.66214">
        <ele>1168.4</ele>
        <time>2020-02-08T10:01:35Z</time>
      </trkpt>
      <trkpt lat="42.71207" lon="1.66214">
        <ele>1168.4</ele>
        <time>2020-02-08T10:01:36Z</time>
      </trkpt>
      <trkpt lat="42.71207" lon="1.66213">
        <ele>1168.5</ele>
        <time>2020-02-08T10:01:37Z</time>
      </trkpt>
      <trkpt lat="42.71206" lon="1.66212">
        <ele>1168.5</ele>
        <time>2020-02-08T10:01:38Z</time>
      </trkpt>
      <trkpt lat="42.71206" lon="1.66212">
        <ele>1168.5</ele>
        <time>2020-02-08T10:01:39Z</time>
      </trkpt>
      <trkpt lat="42.71206" lon="1.66211">
        <ele>1170.2</ele>
        <time>2020-02-08T10:01:40Z</time>
      </trkpt>
      <trkpt lat="42.71206" lon="1.6621">
        <ele>1170.2</ele>
        <time>2020-02-08T10:01:41Z</time>
      </trkpt>
      <trkpt lat="42.71206" lon="1.66209">
        <ele>1170.3</ele>
        <time>2020-02-08T10:01:42Z</time>
      </trkpt>
      <trkpt lat="42.71206" lon="1.66208">
        <ele>1170.3</ele>
        <time>2020-02-08T10:01:43Z</time>
      </trkpt>
      <trkpt lat="42.71206" lon="1.66208">
        <ele>1170.3</ele>
        <time>2020-02-08T10:01:44Z</time>
      </trkpt>
      <trkpt lat="42.71206" lon="1.66207">
        <ele>1171.9</ele>
        <time>2020-02-08T10:01:45Z</time>
      </trkpt>
      <trkpt lat="42.71206" lon="1.66206">
        <ele>1171.9</ele>
        <time>2020-02-08T10:01:46Z</time>
      </trkpt>
      <trkpt lat="42.71206" lon="1.66205">
        <ele>1171.9</ele>
        <time>2020-02-08T10:01:47Z</time>
      </trkpt>
      <trkpt lat="42.71207" lon="1.66204">
        <ele>1171.9</ele>
        <time>2020-02-08T10:01:48Z</time>
      </trkpt>
      <trkpt lat="42.71207" lon="1.66203">
        <ele>1171.9</ele>
        <time>2020-02-08T10:01:49Z</time>
      </trkpt>
      <trkpt lat="42.71207" lon="1.66203">
        <ele>1171.9</ele>
        <time>2020-02-08T10:01:50Z</time>
      </trkpt>
      <trkpt lat="42.71207" lon="1.66202">
        <ele>1173.4</ele>
        <time>2020-02-08T10:01:51Z</time>
      </trkpt>
      <trkpt lat="42.71207" lon="1.66201">
        <ele>1173.4</ele>
        <time>2020-02-08T10:01:52Z</time>
      </trkpt>
      <trkpt lat="42.71207" lon="1.662">
        <ele>1173.4</ele>
        <time>2020-02-08T10:01:53Z</time>
      </trkpt>
      <trkpt lat="42.71207" lon="1.66199">
        <ele>1173.4</ele>
        <time>2020-02-08T10:01:54Z</time>
      </trkpt>
      <trkpt lat="42.71207" lon="1.66198">
        <ele>1173.4</ele>
        <time>2020-02-08T10:01:55Z</time>
      </trkpt>
      <trkpt lat="42.71207" lon="1.66198">
        <ele>1174.9</ele>
        <time>2020-02-08T10:01:56Z</time>
      </trkpt>
      <trkpt lat="42.71207" lon="1.66197">
        <ele>1174.9</ele>
        <time>2020-02-08T10:01:57Z</time>
      </trkpt>
      <trkpt lat="42.71207" lon="1.66196">
        <ele>1174.9</ele>
        <time>2020-02-08T10:01:58Z</time>
      </trkpt>
      <trkpt lat="42.71207" lon="1.66195">
        <ele>1174.9</ele>
        <time>2020-02-08T10:01:59Z</time>
      </trkpt>
      <trkpt lat="42.71207" lon="1.66194">
        <ele>1174.9</ele>
        <time>2020-02-08T10:02:00Z</time>
      </trkpt>
      <trkpt lat="42.71207" lon="1.66193">
        <ele>1176.3</ele>
        <time>2020-02-08T10:02:01Z</time>
      </trkpt>
      <trkpt lat="42.71208" lon="1.66193">
        <ele>1176.3</ele>
        <time>2020-02-08T10:02:02Z</time>
      </trkpt>
      <trkpt lat="42.71208" lon="1.66192">
        <ele>1176.3</ele>
        <time>2020-02-08T10:02:03Z</time>
      </trkpt>
      <trkpt lat="42.71208" lon="1.66191">
        <ele>1176.3</ele>
        <time>2020-02-08T10:02:04Z</time>
      </trkpt>
      <trkpt lat="42.71208" lon="1.6619">
        <ele>1176.3</ele>
        <time>2020-02-08T10:02:05Z</time>
      </trkpt>
      <trkpt lat="42.71208" lon="1.66189">
        <ele>1177.8</ele>
        <time>2020-02-08T10:02:06Z</time>
      </trkpt>
      <trkpt lat="42.71208" lon="1.66189">
        <ele>1177.8</ele>
        <time>2020-02-08T10:02:07Z</time>
      </trkpt>
      <trkpt lat="42.71208" lon="1.66188">
        <ele>1177.8</ele>
        <time>2020-02-08T10:02:08Z</time>
      </trkpt>
      <trkpt lat="42.71208" lon="1.66187">
        <ele>1177.8</ele>
        <time>2020-02-08T10:02:09Z</time>
      </trkpt>
      <trkpt lat="42.71207" lon="1.66186">
        <ele>1177.8</ele>
        <time>2020-02-08T10:02:10Z</time>
      </trkpt>
      <trkpt lat="42.71207" lon="1.66185">
        <ele>1179.2</ele>
        <time>2020-02-08T10:02:11Z</time>
      </trkpt>
      <trkpt lat="42.71206" lon="1.66185">
        <ele>1179.2</ele>
        <time>2020-02-08T10:02:12Z</time>
      </trkpt>
      <trkpt lat="42.71205" lon="1.66184">
        <ele>1179.2</ele>
        <time>2020-02-08T10:02:13Z</time>
      </trkpt>
      <trkpt lat="42.71205" lon="1.66183">
        <ele>1180.1</ele>
        <time>2020-02-08T10:02:14Z</time>
      </trkpt>
      <trkpt lat="42.71204" lon="1.66182">
        <ele>1180.1</ele>
        <time>2020-02-08T10:02:15Z</time>
      </trkpt>
      <trkpt lat="42.71203" lon="1.66181">
        <ele>1180.1</ele>
        <time>2020-02-08T10:02:16Z</time>
      </trkpt>
      <trkpt lat="42.71202" lon="1.66181">
        <ele>1181.6</ele>
        <time>2020-02-08T10:02:17Z</time>
      </trkpt>
      <trkpt lat="42.71202" lon="1.6618">
        <ele>1182.6</ele>
        <time>2020-02-08T10:02:18Z</time>
      </trkpt>
      <trkpt lat="42.71201" lon="1.66179">
        <ele>1182.6</ele>
        <time>2020-02-08T10:02:19Z</time>
      </trkpt>
      <trkpt lat="42.71201" lon="1.66179">
        <ele>1182.6</ele>
        <time>2020-02-08T10:02:20Z</time>
      </trkpt>
      <trkpt lat="42.71201" lon="1.6618">
        <ele>1182.6</ele>
        <time>2020-02-08T10:02:21Z</time>
      </trkpt>
      <trkpt lat="42.71201" lon="1.6618">
        <ele>1182.6</ele>
        <time>2020-02-08T10:02:22Z</time>
      </trkpt>
      <trkpt lat="42.71201" lon="1.6618">
        <ele>1182.6</ele>
        <time>2020-02-08T10:02:23Z</time>
      </trkpt>
      <trkpt lat="42.71201" lon="1.66181">
        <ele>1182.6</ele>
        <time>2020-02-08T10:02:24Z</time>
      </trkpt>
      <trkpt lat="42.71201" lon="1.66181">
        <ele>1181</ele>
        <time>2020-02-08T10:02:25Z</time>
      </trkpt>
      <trkpt lat="42.71201" lon="1.66181">
        <ele>1181</ele>
        <time>2020-02-08T10:02:26Z</time>
      </trkpt>
      <trkpt lat="42.71201" lon="1.66182">
        <ele>1181</ele>
        <time>2020-02-08T10:02:27Z</time>
      </trkpt>
      <trkpt lat="42.71201" lon="1.66182">
        <ele>1181</ele>
        <time>2020-02-08T10:02:28Z</time>
      </trkpt>
      <trkpt lat="42.71201" lon="1.66182">
        <ele>1181</ele>
        <time>2020-02-08T10:02:29Z</time>
      </trkpt>
      <trkpt lat="42.71201" lon="1.66183">
        <ele>1181</ele>
        <time>2020-02-08T10:02:30Z</time>
      </trkpt>
      <trkpt lat="42.71201" lon="1.66183">
        <ele>1181</ele>
        <time>2020-02-08T10:02:31Z</time>
      </trkpt>
      <trkpt lat="42.71201" lon="1.66183">
        <ele>1181</ele>
        <time>2020-02-08T10:02:32Z</time>
      </trkpt>
      <trkpt lat="42.71201" lon="1.66184">
        <ele>1181</ele>
        <time>2020-02-08T10:02:33Z</time>
      </trkpt>
      <trkpt lat="42.71201" lon="1.66184">
        <ele>1181</ele>
        <time>2020-02-08T10:02:34Z</time>
      </trkpt>
      <trkpt lat="42.71201" lon="1.66184">
        <ele>1181</ele>
        <time>2020-02-08T10:02:35Z</time>
      </trkpt>
      <trkpt lat="42.71201" lon="1.66185">
        <ele>1181</ele>
        <time>2020-02-08T10:02:36Z</time>
      </trkpt>
      <trkpt lat="42.71201" lon="1.66185">
        <ele>1181</ele>
        <time>2020-02-08T10:02:37Z</time>
      </trkpt>
      <trkpt lat="42.71201" lon="1.66185">
        <ele>1181</ele>
        <time>2020-02-08T10:02:38Z</time>
      </trkpt>
      <trkpt lat="42.71201" lon="1.66186">
        <ele>1179.6</ele>
        <time>2020-02-08T10:02:39Z</time>
      </trkpt>
      <trkpt lat="42.71201" lon="1.66186">
        <ele>1179.6</ele>
        <time>2020-02-08T10:02:40Z</time>
      </trkpt>
      <trkpt lat="42.71201" lon="1.66186">
        <ele>1179.6</ele>
        <time>2020-02-08T10:02:41Z</time>
      </trkpt>
      <trkpt lat="42.71201" lon="1.66187">
        <ele>1179.6</ele>
        <time>2020-02-08T10:02:42Z</time>
      </trkpt>
      <trkpt lat="42.71201" lon="1.66187">
        <ele>1179.6</ele>
        <time>2020-02-08T10:02:43Z</time>
      </trkpt>
      <trkpt lat="42.71201" lon="1.66187">
        <ele>1179.6</ele>
        <time>2020-02-08T10:02:44Z</time>
      </trkpt>
      <trkpt lat="42.712" lon="1.66188">
        <ele>1179.6</ele>
        <time>2020-02-08T10:02:45Z</time>
      </trkpt>
      <trkpt lat="42.712" lon="1.66188">
        <ele>1179.6</ele>
        <time>2020-02-08T10:02:46Z</time>
      </trkpt>
      <trkpt lat="42.712" lon="1.66188">
        <ele>1179.6</ele>
        <time>2020-02-08T10:02:47Z</time>
      </trkpt>
      <trkpt lat="42.712" lon="1.66189">
        <ele>1179.6</ele>
        <time>2020-02-08T10:02:48Z</time>
      </trkpt>
      <trkpt lat="42.712" lon="1.66189">
        <ele>1179.6</ele>
        <time>2020-02-08T10:02:49Z</time>
      </trkpt>
      <trkpt lat="42.712" lon="1.66189">
        <ele>1179.6</ele>
        <time>2020-02-08T10:02:50Z</time>
      </trkpt>
      <trkpt lat="42.712" lon="1.6619">
        <ele>1179.6</ele>
        <time>2020-02-08T10:02:51Z</time>
      </trkpt>
      <trkpt lat="42.712" lon="1.6619">
        <ele>1178.1</ele>
        <time>2020-02-08T10:02:52Z</time>
      </trkpt>
      <trkpt lat="42.712" lon="1.6619">
        <ele>1178.1</ele>
        <time>2020-02-08T10:02:53Z</time>
      </trkpt>
      <trkpt lat="42.712" lon="1.66191">
        <ele>1178.1</ele>
        <time>2020-02-08T10:02:54Z</time>
      </trkpt>
      <trkpt lat="42.712" lon="1.66191">
        <ele>1178.1</ele>
        <time>2020-02-08T10:02:55Z</time>
      </trkpt>
      <trkpt lat="42.712" lon="1.66191">
        <ele>1178.1</ele>
        <time>2020-02-08T10:02:56Z</time>
      </trkpt>
      <trkpt lat="42.712" lon="1.66192">
        <ele>1178.1</ele>
        <time>2020-02-08T10:02:57Z</time>
      </trkpt>
      <trkpt lat="42.712" lon="1.66192">
        <ele>1178.1</ele>
        <time>2020-02-08T10:02:58Z</time>
      </trkpt>
      <trkpt lat="42.712" lon="1.66192">
        <ele>1178.1</ele>
        <time>2020-02-08T10:02:59Z</time>
      </trkpt>
      <trkpt lat="42.712" lon="1.66191">
        <ele>1178.1</ele>
        <time>2020-02-08T10:03:00Z</time>
      </trkpt>
      <trkpt lat="42.712" lon="1.6619">
        <ele>1178.1</ele>
        <time>2020-02-08T10:03:01Z</time>
      </trkpt>
      <trkpt lat="42.71199" lon="1.66189">
        <ele>1179.6</ele>
        <time>2020-02-08T10:03:02Z</time>
      </trkpt>
      <trkpt lat="42.71199" lon="1.66188">
        <ele>1180.6</ele>
        <time>2020-02-08T10:03:03Z</time>
      </trkpt>
      <trkpt lat="42.71198" lon="1.66187">
        <ele>1180.6</ele>
        <time>2020-02-08T10:03:04Z</time>
      </trkpt>
      <trkpt lat="42.71198" lon="1.66186">
        <ele>1180.6</ele>
        <time>2020-02-08T10:03:05Z</time>
      </trkpt>
      <trkpt lat="42.71198" lon="1.66184">
        <ele>1182.1</ele>
        <time>2020-02-08T10:03:06Z</time>
      </trkpt>
      <trkpt lat="42.71197" lon="1.66183">
        <ele>1182.1</ele>
        <time>2020-02-08T10:03:07Z</time>
      </trkpt>
      <trkpt lat="42.71197" lon="1.66182">
        <ele>1182.1</ele>
        <time>2020-02-08T10:03:08Z</time>
      </trkpt>
      <trkpt lat="42.71197" lon="1.66181">
        <ele>1182.1</ele>
        <time>2020-02-08T10:03:09Z</time>
      </trkpt>
      <trkpt lat="42.71197" lon="1.66181">
        <ele>1183.7</ele>
        <time>2020-02-08T10:03:10Z</time>
      </trkpt>
      <trkpt lat="42.71197" lon="1.66181">
        <ele>1183.7</ele>
        <time>2020-02-08T10:03:11Z</time>
      </trkpt>
      <trkpt lat="42.71197" lon="1.6618">
        <ele>1183.7</ele>
        <time>2020-02-08T10:03:12Z</time>
      </trkpt>
      <trkpt lat="42.71197" lon="1.6618">
        <ele>1183.7</ele>
        <time>2020-02-08T10:03:13Z</time>
      </trkpt>
      <trkpt lat="42.71197" lon="1.6618">
        <ele>1183.7</ele>
        <time>2020-02-08T10:03:14Z</time>
      </trkpt>
      <trkpt lat="42.71197" lon="1.66179">
        <ele>1183.7</ele>
        <time>2020-02-08T10:03:15Z</time>
      </trkpt>
      <trkpt lat="42.71197" lon="1.66179">
        <ele>1183.7</ele>
        <time>2020-02-08T10:03:16Z</time>
      </trkpt>
      <trkpt lat="42.71197" lon="1.66179">
        <ele>1183.7</ele>
        <time>2020-02-08T10:03:17Z</time>
      </trkpt>
      <trkpt lat="42.71197" lon="1.66178">
        <ele>1183.7</ele>
        <time>2020-02-08T10:03:18Z</time>
      </trkpt>
      <trkpt lat="42.71197" lon="1.66178">
        <ele>1183.7</ele>
        <time>2020-02-08T10:03:19Z</time>
      </trkpt>
      <trkpt lat="42.71197" lon="1.66178">
        <ele>1183.7</ele>
        <time>2020-02-08T10:03:20Z</time>
      </trkpt>
      <trkpt lat="42.71197" lon="1.66177">
        <ele>1183.7</ele>
        <time>2020-02-08T10:03:21Z</time>
      </trkpt>
      <trkpt lat="42.71197" lon="1.66177">
        <ele>1183.7</ele>
        <time>2020-02-08T10:03:22Z</time>
      </trkpt>
      <trkpt lat="42.71197" lon="1.66177">
        <ele>1183.7</ele>
        <time>2020-02-08T10:03:23Z</time>
      </trkpt>
      <trkpt lat="42.71197" lon="1.66177">
        <ele>1185.2</ele>
        <time>2020-02-08T10:03:24Z</time>
      </trkpt>
      <trkpt lat="42.71197" lon="1.66176">
        <ele>1185.2</ele>
        <time>2020-02-08T10:03:25Z</time>
      </trkpt>
      <trkpt lat="42.71197" lon="1.66176">
        <ele>1185.2</ele>
        <time>2020-02-08T10:03:26Z</time>
      </trkpt>
      <trkpt lat="42.71197" lon="1.66176">
        <ele>1185.2</ele>
        <time>2020-02-08T10:03:27Z</time>
      </trkpt>
      <trkpt lat="42.71197" lon="1.66175">
        <ele>1185.2</ele>
        <time>2020-02-08T10:03:28Z</time>
      </trkpt>
      <trkpt lat="42.71197" lon="1.66175">
        <ele>1185.2</ele>
        <time>2020-02-08T10:03:29Z</time>
      </trkpt>
      <trkpt lat="42.71197" lon="1.66175">
        <ele>1185.2</ele>
        <time>2020-02-08T10:03:30Z</time>
      </trkpt>
      <trkpt lat="42.71197" lon="1.66174">
        <ele>1185.2</ele>
        <time>2020-02-08T10:03:31Z</time>
      </trkpt>
      <trkpt lat="42.71197" lon="1.66174">
        <ele>1185.2</ele>
        <time>2020-02-08T10:03:32Z</time>
      </trkpt>
      <trkpt lat="42.71197" lon="1.66174">
        <ele>1185.2</ele>
        <time>2020-02-08T10:03:33Z</time>
      </trkpt>
      <trkpt lat="42.71197" lon="1.66174">
        <ele>1185.2</ele>
        <time>2020-02-08T10:03:34Z</time>
      </trkpt>
      <trkpt lat="42.71197" lon="1.66173">
        <ele>1185.2</ele>
        <time>2020-02-08T10:03:35Z</time>
      </trkpt>
      <trkpt lat="42.71197" lon="1.66173">
        <ele>1185.2</ele>
        <time>2020-02-08T10:03:36Z</time>
      </trkpt>
      <trkpt lat="42.71197" lon="1.66173">
        <ele>1185.2</ele>
        <time>2020-02-08T10:03:37Z</time>
      </trkpt>
      <trkpt lat="42.71197" lon="1.66172">
        <ele>1186.9</ele>
        <time>2020-02-08T10:03:38Z</time>
      </trkpt>
      <trkpt lat="42.71197" lon="1.66172">
        <ele>1186.9</ele>
        <time>2020-02-08T10:03:39Z</time>
      </trkpt>
      <trkpt lat="42.71197" lon="1.66172">
        <ele>1186.9</ele>
        <time>2020-02-08T10:03:40Z</time>
      </trkpt>
      <trkpt lat="42.71198" lon="1.66171">
        <ele>1186.9</ele>
        <time>2020-02-08T10:03:41Z</time>
      </trkpt>
      <trkpt lat="42.71198" lon="1.66171">
        <ele>1186.9</ele>
        <time>2020-02-08T10:03:42Z</time>
      </trkpt>
      <trkpt lat="42.71198" lon="1.66171">
        <ele>1186.9</ele>
        <time>2020-02-08T10:03:43Z</time>
      </trkpt>
      <trkpt lat="42.71198" lon="1.6617">
        <ele>1186.9</ele>
        <time>2020-02-08T10:03:44Z</time>
      </trkpt>
      <trkpt lat="42.71198" lon="1.6617">
        <ele>1186.9</ele>
        <time>2020-02-08T10:03:45Z</time>
      </trkpt>
      <trkpt lat="42.71198" lon="1.6617">
        <ele>1186.9</ele>
        <time>2020-02-08T10:03:46Z</time>
      </trkpt>
      <trkpt lat="42.71198" lon="1.6617">
        <ele>1186.9</ele>
        <time>2020-02-08T10:03:47Z</time>
      </trkpt>
      <trkpt lat="42.71198" lon="1.66169">
        <ele>1186.9</ele>
        <time>2020-02-08T10:03:48Z</time>
      </trkpt>
      <trkpt lat="42.71198" lon="1.66169">
        <ele>1186.9</ele>
        <time>2020-02-08T10:03:49Z</time>
      </trkpt>
      <trkpt lat="42.71197" lon="1.66168">
        <ele>1186.9</ele>
        <time>2020-02-08T10:03:50Z</time>
      </trkpt>
      <trkpt lat="42.71197" lon="1.66168">
        <ele>1188.6</ele>
        <time>2020-02-08T10:03:51Z</time>
      </trkpt>
      <trkpt lat="42.71197" lon="1.66168">
        <ele>1188.6</ele>
        <time>2020-02-08T10:03:52Z</time>
      </trkpt>
      <trkpt lat="42.71197" lon="1.66167">
        <ele>1188.6</ele>
        <time>2020-02-08T10:03:53Z</time>
      </trkpt>
      <trkpt lat="42.71196" lon="1.66167">
        <ele>1188.6</ele>
        <time>2020-02-08T10:03:54Z</time>
      </trkpt>
      <trkpt lat="42.71196" lon="1.66166">
        <ele>1188.6</ele>
        <time>2020-02-08T10:03:55Z</time>
      </trkpt>
      <trkpt lat="42.71196" lon="1.66166">
        <ele>1189.8</ele>
        <time>2020-02-08T10:03:56Z</time>
      </trkpt>
      <trkpt lat="42.71195" lon="1.66165">
        <ele>1189.8</ele>
        <time>2020-02-08T10:03:57Z</time>
      </trkpt>
      <trkpt lat="42.71195" lon="1.66165">
        <ele>1189.8</ele>
        <time>2020-02-08T10:03:58Z</time>
      </trkpt>
      <trkpt lat="42.71195" lon="1.66164">
        <ele>1189.8</ele>
        <time>2020-02-08T10:03:59Z</time>
      </trkpt>
      <trkpt lat="42.71194" lon="1.66164">
        <ele>1191.4</ele>
        <time>2020-02-08T10:04:00Z</time>
      </trkpt>
      <trkpt lat="42.71194" lon="1.66163">
        <ele>1191.4</ele>
        <time>2020-02-08T10:04:01Z</time>
      </trkpt>
      <trkpt lat="42.71194" lon="1.66163">
        <ele>1191.4</ele>
        <time>2020-02-08T10:04:02Z</time>
      </trkpt>
      <trkpt lat="42.71193" lon="1.66162">
        <ele>1191.4</ele>
        <time>2020-02-08T10:04:03Z</time>
      </trkpt>
      <trkpt lat="42.71193" lon="1.66162">
        <ele>1191.4</ele>
        <time>2020-02-08T10:04:04Z</time>
      </trkpt>
      <trkpt lat="42.71193" lon="1.66161">
        <ele>1191.4</ele>
        <time>2020-02-08T10:04:05Z</time>
      </trkpt>
      <trkpt lat="42.71192" lon="1.66161">
        <ele>1192.7</ele>
        <time>2020-02-08T10:04:06Z</time>
      </trkpt>
      <trkpt lat="42.71192" lon="1.6616">
        <ele>1192.7</ele>
        <time>2020-02-08T10:04:07Z</time>
      </trkpt>
      <trkpt lat="42.71192" lon="1.6616">
        <ele>1192.7</ele>
        <time>2020-02-08T10:04:08Z</time>
      </trkpt>
      <trkpt lat="42.71192" lon="1.6616">
        <ele>1194.3</ele>
        <time>2020-02-08T10:04:09Z</time>
      </trkpt>
      <trkpt lat="42.71192" lon="1.66159">
        <ele>1194.3</ele>
        <time>2020-02-08T10:04:10Z</time>
      </trkpt>
      <trkpt lat="42.71192" lon="1.66159">
        <ele>1194.3</ele>
        <time>2020-02-08T10:04:11Z</time>
      </trkpt>
      <trkpt lat="42.71193" lon="1.66159">
        <ele>1193</ele>
        <time>2020-02-08T10:04:12Z</time>
      </trkpt>
      <trkpt lat="42.71193" lon="1.66158">
        <ele>1193</ele>
        <time>2020-02-08T10:04:13Z</time>
      </trkpt>
      <trkpt lat="42.71194" lon="1.66158">
        <ele>1193</ele>
        <time>2020-02-08T10:04:14Z</time>
      </trkpt>
      <trkpt lat="42.71194" lon="1.66158">
        <ele>1193</ele>
        <time>2020-02-08T10:04:15Z</time>
      </trkpt>
      <trkpt lat="42.71194" lon="1.66157">
        <ele>1193</ele>
        <time>2020-02-08T10:04:16Z</time>
      </trkpt>
      <trkpt lat="42.71195" lon="1.66157">
        <ele>1193</ele>
        <time>2020-02-08T10:04:17Z</time>
      </trkpt>
      <trkpt lat="42.71195" lon="1.66157">
        <ele>1193</ele>
        <time>2020-02-08T10:04:18Z</time>
      </trkpt>
      <trkpt lat="42.71196" lon="1.66156">
        <ele>1193</ele>
        <time>2020-02-08T10:04:19Z</time>
      </trkpt>
      <trkpt lat="42.71196" lon="1.66156">
        <ele>1191.7</ele>
        <time>2020-02-08T10:04:20Z</time>
      </trkpt>
      <trkpt lat="42.71196" lon="1.66156">
        <ele>1191.7</ele>
        <time>2020-02-08T10:04:21Z</time>
      </trkpt>
      <trkpt lat="42.71197" lon="1.66155">
        <ele>1193.2</ele>
        <time>2020-02-08T10:04:22Z</time>
      </trkpt>
      <trkpt lat="42.71197" lon="1.66155">
        <ele>1193.2</ele>
        <time>2020-02-08T10:04:23Z</time>
      </trkpt>
      <trkpt lat="42.71198" lon="1.66155">
        <ele>1193.2</ele>
        <time>2020-02-08T10:04:24Z</time>
      </trkpt>
      <trkpt lat="42.71198" lon="1.66154">
        <ele>1193.2</ele>
        <time>2020-02-08T10:04:25Z</time>
      </trkpt>
      <trkpt lat="42.71198" lon="1.66154">
        <ele>1193.2</ele>
        <time>2020-02-08T10:04:26Z</time>
      </trkpt>
      <trkpt lat="42.71199" lon="1.66154">
        <ele>1193.2</ele>
        <time>2020-02-08T10:04:27Z</time>
      </trkpt>
      <trkpt lat="42.71199" lon="1.66153">
        <ele>1191.9</ele>
        <time>2020-02-08T10:04:28Z</time>
      </trkpt>
      <trkpt lat="42.712" lon="1.66153">
        <ele>1191.9</ele>
        <time>2020-02-08T10:04:29Z</time>
      </trkpt>
      <trkpt lat="42.712" lon="1.66152">
        <ele>1191.9</ele>
        <time>2020-02-08T10:04:30Z</time>
      </trkpt>
      <trkpt lat="42.712" lon="1.66152">
        <ele>1191.9</ele>
        <time>2020-02-08T10:04:31Z</time>
      </trkpt>
      <trkpt lat="42.71199" lon="1.66151">
        <ele>1193.3</ele>
        <time>2020-02-08T10:04:32Z</time>
      </trkpt>
      <trkpt lat="42.71199" lon="1.6615">
        <ele>1193.3</ele>
        <time>2020-02-08T10:04:33Z</time>
      </trkpt>
      <trkpt lat="42.71199" lon="1.6615">
        <ele>1193.3</ele>
        <time>2020-02-08T10:04:34Z</time>
      </trkpt>
      <trkpt lat="42.71199" lon="1.66149">
        <ele>1193.3</ele>
        <time>2020-02-08T10:04:35Z</time>
      </trkpt>
      <trkpt lat="42.71199" lon="1.66149">
        <ele>1193.3</ele>
        <time>2020-02-08T10:04:36Z</time>
      </trkpt>
      <trkpt lat="42.71199" lon="1.66148">
        <ele>1193.3</ele>
        <time>2020-02-08T10:04:37Z</time>
      </trkpt>
      <trkpt lat="42.71199" lon="1.66147">
        <ele>1193.3</ele>
        <time>2020-02-08T10:04:38Z</time>
      </trkpt>
      <trkpt lat="42.71199" lon="1.66147">
        <ele>1194.7</ele>
        <time>2020-02-08T10:04:39Z</time>
      </trkpt>
      <trkpt lat="42.71199" lon="1.66146">
        <ele>1195.9</ele>
        <time>2020-02-08T10:04:40Z</time>
      </trkpt>
      <trkpt lat="42.71199" lon="1.66146">
        <ele>1195.9</ele>
        <time>2020-02-08T10:04:41Z</time>
      </trkpt>
      <trkpt lat="42.71199" lon="1.66145">
        <ele>1195.9</ele>
        <time>2020-02-08T10:04:42Z</time>
      </trkpt>
      <trkpt lat="42.71199" lon="1.66144">
        <ele>1195.9</ele>
        <time>2020-02-08T10:04:43Z</time>
      </trkpt>
      <trkpt lat="42.71199" lon="1.66144">
        <ele>1195.9</ele>
        <time>2020-02-08T10:04:44Z</time>
      </trkpt>
      <trkpt lat="42.71198" lon="1.66143">
        <ele>1195.9</ele>
        <time>2020-02-08T10:04:45Z</time>
      </trkpt>
      <trkpt lat="42.71198" lon="1.66142">
        <ele>1197.4</ele>
        <time>2020-02-08T10:04:46Z</time>
      </trkpt>
      <trkpt lat="42.71198" lon="1.66142">
        <ele>1197.4</ele>
        <time>2020-02-08T10:04:47Z</time>
      </trkpt>
      <trkpt lat="42.71198" lon="1.66141">
        <ele>1197.4</ele>
        <time>2020-02-08T10:04:48Z</time>
      </trkpt>
      <trkpt lat="42.71198" lon="1.66141">
        <ele>1197.4</ele>
        <time>2020-02-08T10:04:49Z</time>
      </trkpt>
      <trkpt lat="42.71199" lon="1.6614">
        <ele>1197.4</ele>
        <time>2020-02-08T10:04:50Z</time>
      </trkpt>
      <trkpt lat="42.71199" lon="1.66139">
        <ele>1196.1</ele>
        <time>2020-02-08T10:04:51Z</time>
      </trkpt>
      <trkpt lat="42.712" lon="1.66138">
        <ele>1197.6</ele>
        <time>2020-02-08T10:04:52Z</time>
      </trkpt>
      <trkpt lat="42.712" lon="1.66137">
        <ele>1197.6</ele>
        <time>2020-02-08T10:04:53Z</time>
      </trkpt>
      <trkpt lat="42.71201" lon="1.66136">
        <ele>1197.6</ele>
        <time>2020-02-08T10:04:54Z</time>
      </trkpt>
      <trkpt lat="42.71201" lon="1.66135">
        <ele>1197.6</ele>
        <time>2020-02-08T10:04:55Z</time>
      </trkpt>
      <trkpt lat="42.71202" lon="1.66134">
        <ele>1199.1</ele>
        <time>2020-02-08T10:04:56Z</time>
      </trkpt>
      <trkpt lat="42.71202" lon="1.66132">
        <ele>1197.9</ele>
        <time>2020-02-08T10:04:57Z</time>
      </trkpt>
      <trkpt lat="42.71203" lon="1.66131">
        <ele>1197.9</ele>
        <time>2020-02-08T10:04:58Z</time>
      </trkpt>
      <trkpt lat="42.71203" lon="1.6613">
        <ele>1197.9</ele>
        <time>2020-02-08T10:04:59Z</time>
      </trkpt>
      <trkpt lat="42.71203" lon="1.6613">
        <ele>1197.9</ele>
        <time>2020-02-08T10:05:00Z</time>
      </trkpt>
      <trkpt lat="42.71203" lon="1.6613">
        <ele>1198</ele>
        <time>2020-02-08T10:05:01Z</time>
      </trkpt>
      <trkpt lat="42.71203" lon="1.6613">
        <ele>1198</ele>
        <time>2020-02-08T10:05:02Z</time>
      </trkpt>
      <trkpt lat="42.71203" lon="1.6613">
        <ele>1198.1</ele>
        <time>2020-02-08T10:05:03Z</time>
      </trkpt>
      <trkpt lat="42.71203" lon="1.6613">
        <ele>1198.1</ele>
        <time>2020-02-08T10:05:04Z</time>
      </trkpt>
      <trkpt lat="42.71203" lon="1.6613">
        <ele>1198.1</ele>
        <time>2020-02-08T10:05:05Z</time>
      </trkpt>
      <trkpt lat="42.71203" lon="1.6613">
        <ele>1198.2</ele>
        <time>2020-02-08T10:05:06Z</time>
      </trkpt>
      <trkpt lat="42.71203" lon="1.6613">
        <ele>1198.2</ele>
        <time>2020-02-08T10:05:07Z</time>
      </trkpt>
      <trkpt lat="42.71203" lon="1.6613">
        <ele>1198.3</ele>
        <time>2020-02-08T10:05:08Z</time>
      </trkpt>
      <trkpt lat="42.71203" lon="1.66129">
        <ele>1198.3</ele>
        <time>2020-02-08T10:05:09Z</time>
      </trkpt>
      <trkpt lat="42.71203" lon="1.66129">
        <ele>1198.4</ele>
        <time>2020-02-08T10:05:10Z</time>
      </trkpt>
      <trkpt lat="42.71203" lon="1.66129">
        <ele>1198.4</ele>
        <time>2020-02-08T10:05:11Z</time>
      </trkpt>
      <trkpt lat="42.71202" lon="1.66129">
        <ele>1198.4</ele>
        <time>2020-02-08T10:05:12Z</time>
      </trkpt>
      <trkpt lat="42.71202" lon="1.66129">
        <ele>1198.5</ele>
        <time>2020-02-08T10:05:13Z</time>
      </trkpt>
      <trkpt lat="42.71202" lon="1.66129">
        <ele>1198.5</ele>
        <time>2020-02-08T10:05:14Z</time>
      </trkpt>
      <trkpt lat="42.71202" lon="1.66129">
        <ele>1198.6</ele>
        <time>2020-02-08T10:05:15Z</time>
      </trkpt>
      <trkpt lat="42.71202" lon="1.66129">
        <ele>1198.6</ele>
        <time>2020-02-08T10:05:16Z</time>
      </trkpt>
      <trkpt lat="42.71202" lon="1.66129">
        <ele>1198.7</ele>
        <time>2020-02-08T10:05:17Z</time>
      </trkpt>
      <trkpt lat="42.71202" lon="1.66128">
        <ele>1198.7</ele>
        <time>2020-02-08T10:05:18Z</time>
      </trkpt>
      <trkpt lat="42.71202" lon="1.66128">
        <ele>1198.8</ele>
        <time>2020-02-08T10:05:19Z</time>
      </trkpt>
      <trkpt lat="42.71202" lon="1.66128">
        <ele>1198.8</ele>
        <time>2020-02-08T10:05:20Z</time>
      </trkpt>
      <trkpt lat="42.71202" lon="1.66128">
        <ele>1198.9</ele>
        <time>2020-02-08T10:05:21Z</time>
      </trkpt>
      <trkpt lat="42.71202" lon="1.66128">
        <ele>1198.9</ele>
        <time>2020-02-08T10:05:22Z</time>
      </trkpt>
      <trkpt lat="42.71202" lon="1.66128">
        <ele>1199</ele>
        <time>2020-02-08T10:05:23Z</time>
      </trkpt>
      <trkpt lat="42.71202" lon="1.66128">
        <ele>1199</ele>
        <time>2020-02-08T10:05:24Z</time>
      </trkpt>
      <trkpt lat="42.71202" lon="1.66128">
        <ele>1199</ele>
        <time>2020-02-08T10:05:25Z</time>
      </trkpt>
      <trkpt lat="42.71201" lon="1.66128">
        <ele>1199.1</ele>
        <time>2020-02-08T10:05:26Z</time>
      </trkpt>
      <trkpt lat="42.71201" lon="1.66128">
        <ele>1199.1</ele>
        <time>2020-02-08T10:05:27Z</time>
      </trkpt>
      <trkpt lat="42.71201" lon="1.66127">
        <ele>1199.2</ele>
        <time>2020-02-08T10:05:28Z</time>
      </trkpt>
      <trkpt lat="42.71201" lon="1.66127">
        <ele>1199.2</ele>
        <time>2020-02-08T10:05:29Z</time>
      </trkpt>
      <trkpt lat="42.71201" lon="1.66127">
        <ele>1199.3</ele>
        <time>2020-02-08T10:05:30Z</time>
      </trkpt>
      <trkpt lat="42.71201" lon="1.66127">
        <ele>1199.3</ele>
        <time>2020-02-08T10:05:31Z</time>
      </trkpt>
      <trkpt lat="42.71201" lon="1.66127">
        <ele>1199.3</ele>
        <time>2020-02-08T10:05:32Z</time>
      </trkpt>
      <trkpt lat="42.71201" lon="1.66127">
        <ele>1199.4</ele>
        <time>2020-02-08T10:05:33Z</time>
      </trkpt>
      <trkpt lat="42.71201" lon="1.66127">
        <ele>1199.4</ele>
        <time>2020-02-08T10:05:34Z</time>
      </trkpt>
      <trkpt lat="42.71201" lon="1.66127">
        <ele>1199.5</ele>
        <time>2020-02-08T10:05:35Z</time>
      </trkpt>
      <trkpt lat="42.71201" lon="1.66127">
        <ele>1199.5</ele>
        <time>2020-02-08T10:05:36Z</time>
      </trkpt>
      <trkpt lat="42.71201" lon="1.66127">
        <ele>1199.6</ele>
        <time>2020-02-08T10:05:37Z</time>
      </trkpt>
      <trkpt lat="42.71201" lon="1.66126">
        <ele>1199.6</ele>
        <time>2020-02-08T10:05:38Z</time>
      </trkpt>
      <trkpt lat="42.71201" lon="1.66126">
        <ele>1199.6</ele>
        <time>2020-02-08T10:05:39Z</time>
      </trkpt>
      <trkpt lat="42.712" lon="1.66126">
        <ele>1199.7</ele>
        <time>2020-02-08T10:05:40Z</time>
      </trkpt>
      <trkpt lat="42.712" lon="1.66126">
        <ele>1199.7</ele>
        <time>2020-02-08T10:05:41Z</time>
      </trkpt>
      <trkpt lat="42.712" lon="1.66126">
        <ele>1199.8</ele>
        <time>2020-02-08T10:05:42Z</time>
      </trkpt>
      <trkpt lat="42.712" lon="1.66126">
        <ele>1199.8</ele>
        <time>2020-02-08T10:05:43Z</time>
      </trkpt>
      <trkpt lat="42.712" lon="1.66126">
        <ele>1199.9</ele>
        <time>2020-02-08T10:05:44Z</time>
      </trkpt>
      <trkpt lat="42.712" lon="1.66126">
        <ele>1199.9</ele>
        <time>2020-02-08T10:05:45Z</time>
      </trkpt>
      <trkpt lat="42.712" lon="1.66126">
        <ele>1200</ele>
        <time>2020-02-08T10:05:46Z</time>
      </trkpt>
      <trkpt lat="42.712" lon="1.66125">
        <ele>1200</ele>
        <time>2020-02-08T10:05:47Z</time>
      </trkpt>
      <trkpt lat="42.712" lon="1.66125">
        <ele>1200</ele>
        <time>2020-02-08T10:05:48Z</time>
      </trkpt>
      <trkpt lat="42.712" lon="1.66125">
        <ele>1200.1</ele>
        <time>2020-02-08T10:05:49Z</time>
      </trkpt>
      <trkpt lat="42.712" lon="1.66125">
        <ele>1200.1</ele>
        <time>2020-02-08T10:05:50Z</time>
      </trkpt>
      <trkpt lat="42.712" lon="1.66125">
        <ele>1200.2</ele>
        <time>2020-02-08T10:05:51Z</time>
      </trkpt>
      <trkpt lat="42.712" lon="1.66125">
        <ele>1200.2</ele>
        <time>2020-02-08T10:05:52Z</time>
      </trkpt>
      <trkpt lat="42.712" lon="1.66125">
        <ele>1200.3</ele>
        <time>2020-02-08T10:05:53Z</time>
      </trkpt>
      <trkpt lat="42.712" lon="1.66125">
        <ele>1200.3</ele>
        <time>2020-02-08T10:05:54Z</time>
      </trkpt>
      <trkpt lat="42.71199" lon="1.66125">
        <ele>1200.4</ele>
        <time>2020-02-08T10:05:55Z</time>
      </trkpt>
      <trkpt lat="42.71199" lon="1.66125">
        <ele>1200.4</ele>
        <time>2020-02-08T10:05:56Z</time>
      </trkpt>
      <trkpt lat="42.71199" lon="1.66124">
        <ele>1200.5</ele>
        <time>2020-02-08T10:05:57Z</time>
      </trkpt>
      <trkpt lat="42.71199" lon="1.66124">
        <ele>1200.5</ele>
        <time>2020-02-08T10:05:58Z</time>
      </trkpt>
      <trkpt lat="42.71199" lon="1.66124">
        <ele>1200.5</ele>
        <time>2020-02-08T10:05:59Z</time>
      </trkpt>
      <trkpt lat="42.71199" lon="1.66124">
        <ele>1200.6</ele>
        <time>2020-02-08T10:06:00Z</time>
      </trkpt>
      <trkpt lat="42.71199" lon="1.66124">
        <ele>1200.6</ele>
        <time>2020-02-08T10:06:01Z</time>
      </trkpt>
      <trkpt lat="42.71199" lon="1.66124">
        <ele>1200.7</ele>
        <time>2020-02-08T10:06:02Z</time>
      </trkpt>
      <trkpt lat="42.71199" lon="1.66124">
        <ele>1200.7</ele>
        <time>2020-02-08T10:06:03Z</time>
      </trkpt>
      <trkpt lat="42.71199" lon="1.66124">
        <ele>1200.7</ele>
        <time>2020-02-08T10:06:04Z</time>
      </trkpt>
      <trkpt lat="42.71199" lon="1.66124">
        <ele>1200.8</ele>
        <time>2020-02-08T10:06:05Z</time>
      </trkpt>
      <trkpt lat="42.71199" lon="1.66124">
        <ele>1200.8</ele>
        <time>2020-02-08T10:06:06Z</time>
      </trkpt>
      <trkpt lat="42.71199" lon="1.66123">
        <ele>1200.9</ele>
        <time>2020-02-08T10:06:07Z</time>
      </trkpt>
      <trkpt lat="42.71199" lon="1.66123">
        <ele>1200.9</ele>
        <time>2020-02-08T10:06:08Z</time>
      </trkpt>
      <trkpt lat="42.71198" lon="1.66123">
        <ele>1201</ele>
        <time>2020-02-08T10:06:09Z</time>
      </trkpt>
      <trkpt lat="42.71198" lon="1.66123">
        <ele>1201</ele>
        <time>2020-02-08T10:06:10Z</time>
      </trkpt>
      <trkpt lat="42.71198" lon="1.66123">
        <ele>1201.1</ele>
        <time>2020-02-08T10:06:11Z</time>
      </trkpt>
      <trkpt lat="42.71198" lon="1.66123">
        <ele>1201.1</ele>
        <time>2020-02-08T10:06:12Z</time>
      </trkpt>
      <trkpt lat="42.71198" lon="1.66123">
        <ele>1201.2</ele>
        <time>2020-02-08T10:06:13Z</time>
      </trkpt>
      <trkpt lat="42.71198" lon="1.66123">
        <ele>1201.2</ele>
        <time>2020-02-08T10:06:14Z</time>
      </trkpt>
      <trkpt lat="42.71198" lon="1.66123">
        <ele>1201.2</ele>
        <time>2020-02-08T10:06:15Z</time>
      </trkpt>
      <trkpt lat="42.71198" lon="1.66122">
        <ele>1201.3</ele>
        <time>2020-02-08T10:06:16Z</time>
      </trkpt>
      <trkpt lat="42.71198" lon="1.66122">
        <ele>1201.3</ele>
        <time>2020-02-08T10:06:17Z</time>
      </trkpt>
      <trkpt lat="42.71198" lon="1.66122">
        <ele>1201.4</ele>
        <time>2020-02-08T10:06:18Z</time>
      </trkpt>
      <trkpt lat="42.71198" lon="1.66122">
        <ele>1201.4</ele>
        <time>2020-02-08T10:06:19Z</time>
      </trkpt>
      <trkpt lat="42.71198" lon="1.66122">
        <ele>1201.5</ele>
        <time>2020-02-08T10:06:20Z</time>
      </trkpt>
      <trkpt lat="42.71198" lon="1.66122">
        <ele>1201.5</ele>
        <time>2020-02-08T10:06:21Z</time>
      </trkpt>
      <trkpt lat="42.71198" lon="1.66122">
        <ele>1201.5</ele>
        <time>2020-02-08T10:06:22Z</time>
      </trkpt>
      <trkpt lat="42.71197" lon="1.66122">
        <ele>1201.6</ele>
        <time>2020-02-08T10:06:23Z</time>
      </trkpt>
      <trkpt lat="42.71197" lon="1.66122">
        <ele>1201.6</ele>
        <time>2020-02-08T10:06:24Z</time>
      </trkpt>
      <trkpt lat="42.71197" lon="1.66122">
        <ele>1201.7</ele>
        <time>2020-02-08T10:06:25Z</time>
      </trkpt>
      <trkpt lat="42.71197" lon="1.66121">
        <ele>1201.7</ele>
        <time>2020-02-08T10:06:26Z</time>
      </trkpt>
      <trkpt lat="42.71197" lon="1.66121">
        <ele>1201.8</ele>
        <time>2020-02-08T10:06:27Z</time>
      </trkpt>
      <trkpt lat="42.71197" lon="1.66121">
        <ele>1201.8</ele>
        <time>2020-02-08T10:06:28Z</time>
      </trkpt>
      <trkpt lat="42.71197" lon="1.66121">
        <ele>1201.8</ele>
        <time>2020-02-08T10:06:29Z</time>
      </trkpt>
      <trkpt lat="42.71197" lon="1.66121">
        <ele>1201.9</ele>
        <time>2020-02-08T10:06:30Z</time>
      </trkpt>
      <trkpt lat="42.71197" lon="1.66121">
        <ele>1201.9</ele>
        <time>2020-02-08T10:06:31Z</time>
      </trkpt>
      <trkpt lat="42.71197" lon="1.66121">
        <ele>1202</ele>
        <time>2020-02-08T10:06:32Z</time>
      </trkpt>
      <trkpt lat="42.71197" lon="1.66121">
        <ele>1202</ele>
        <time>2020-02-08T10:06:33Z</time>
      </trkpt>
      <trkpt lat="42.71197" lon="1.66121">
        <ele>1202.1</ele>
        <time>2020-02-08T10:06:34Z</time>
      </trkpt>
      <trkpt lat="42.71197" lon="1.66121">
        <ele>1202.1</ele>
        <time>2020-02-08T10:06:35Z</time>
      </trkpt>
      <trkpt lat="42.71197" lon="1.6612">
        <ele>1202.1</ele>
        <time>2020-02-08T10:06:36Z</time>
      </trkpt>
      <trkpt lat="42.71196" lon="1.6612">
        <ele>1202.2</ele>
        <time>2020-02-08T10:06:37Z</time>
      </trkpt>
      <trkpt lat="42.71196" lon="1.6612">
        <ele>1202.2</ele>
        <time>2020-02-08T10:06:38Z</time>
      </trkpt>
      <trkpt lat="42.71196" lon="1.6612">
        <ele>1202.3</ele>
        <time>2020-02-08T10:06:39Z</time>
      </trkpt>
      <trkpt lat="42.71196" lon="1.6612">
        <ele>1202.3</ele>
        <time>2020-02-08T10:06:40Z</time>
      </trkpt>
      <trkpt lat="42.71196" lon="1.6612">
        <ele>1202.4</ele>
        <time>2020-02-08T10:06:41Z</time>
      </trkpt>
      <trkpt lat="42.71196" lon="1.6612">
        <ele>1202.4</ele>
        <time>2020-02-08T10:06:42Z</time>
      </trkpt>
      <trkpt lat="42.71196" lon="1.6612">
        <ele>1202.5</ele>
        <time>2020-02-08T10:06:43Z</time>
      </trkpt>
      <trkpt lat="42.71196" lon="1.6612">
        <ele>1202.5</ele>
        <time>2020-02-08T10:06:44Z</time>
      </trkpt>
      <trkpt lat="42.71196" lon="1.66119">
        <ele>1202.6</ele>
        <time>2020-02-08T10:06:45Z</time>
      </trkpt>
      <trkpt lat="42.71196" lon="1.66119">
        <ele>1202.6</ele>
        <time>2020-02-08T10:06:46Z</time>
      </trkpt>
      <trkpt lat="42.71196" lon="1.66119">
        <ele>1202.7</ele>
        <time>2020-02-08T10:06:47Z</time>
      </trkpt>
      <trkpt lat="42.71196" lon="1.66119">
        <ele>1202.7</ele>
        <time>2020-02-08T10:06:48Z</time>
      </trkpt>
      <trkpt lat="42.71196" lon="1.66119">
        <ele>1202.7</ele>
        <time>2020-02-08T10:06:49Z</time>
      </trkpt>
      <trkpt lat="42.71196" lon="1.66119">
        <ele>1202.8</ele>
        <time>2020-02-08T10:06:50Z</time>
      </trkpt>
      <trkpt lat="42.71196" lon="1.66119">
        <ele>1202.8</ele>
        <time>2020-02-08T10:06:51Z</time>
      </trkpt>
      <trkpt lat="42.71195" lon="1.66119">
        <ele>1202.9</ele>
        <time>2020-02-08T10:06:52Z</time>
      </trkpt>
      <trkpt lat="42.71195" lon="1.66119">
        <ele>1202.9</ele>
        <time>2020-02-08T10:06:53Z</time>
      </trkpt>
      <trkpt lat="42.71195" lon="1.66119">
        <ele>1202.9</ele>
        <time>2020-02-08T10:06:54Z</time>
      </trkpt>
      <trkpt lat="42.71195" lon="1.66118">
        <ele>1203</ele>
        <time>2020-02-08T10:06:55Z</time>
      </trkpt>
      <trkpt lat="42.71195" lon="1.66118">
        <ele>1203</ele>
        <time>2020-02-08T10:06:56Z</time>
      </trkpt>
      <trkpt lat="42.71195" lon="1.66118">
        <ele>1203</ele>
        <time>2020-02-08T10:06:57Z</time>
      </trkpt>
      <trkpt lat="42.71195" lon="1.66118">
        <ele>1203</ele>
        <time>2020-02-08T10:06:58Z</time>
      </trkpt>
      <trkpt lat="42.71195" lon="1.66118">
        <ele>1203</ele>
        <time>2020-02-08T10:06:59Z</time>
      </trkpt>
      <trkpt lat="42.71195" lon="1.66118">
        <ele>1203.1</ele>
        <time>2020-02-08T10:07:00Z</time>
      </trkpt>
      <trkpt lat="42.71195" lon="1.66118">
        <ele>1203.1</ele>
        <time>2020-02-08T10:07:01Z</time>
      </trkpt>
      <trkpt lat="42.71195" lon="1.66118">
        <ele>1203.1</ele>
        <time>2020-02-08T10:07:02Z</time>
      </trkpt>
      <trkpt lat="42.71195" lon="1.66118">
        <ele>1203.1</ele>
        <time>2020-02-08T10:07:03Z</time>
      </trkpt>
      <trkpt lat="42.71195" lon="1.66118">
        <ele>1203.1</ele>
        <time>2020-02-08T10:07:04Z</time>
      </trkpt>
      <trkpt lat="42.71195" lon="1.66117">
        <ele>1203.2</ele>
        <time>2020-02-08T10:07:05Z</time>
      </trkpt>
      <trkpt lat="42.71194" lon="1.66117">
        <ele>1203.2</ele>
        <time>2020-02-08T10:07:06Z</time>
      </trkpt>
      <trkpt lat="42.71194" lon="1.66117">
        <ele>1203.2</ele>
        <time>2020-02-08T10:07:07Z</time>
      </trkpt>
      <trkpt lat="42.71194" lon="1.66117">
        <ele>1203.2</ele>
        <time>2020-02-08T10:07:08Z</time>
      </trkpt>
      <trkpt lat="42.71194" lon="1.66117">
        <ele>1203.3</ele>
        <time>2020-02-08T10:07:09Z</time>
      </trkpt>
      <trkpt lat="42.71194" lon="1.66117">
        <ele>1203.3</ele>
        <time>2020-02-08T10:07:10Z</time>
      </trkpt>
      <trkpt lat="42.71194" lon="1.66117">
        <ele>1203.3</ele>
        <time>2020-02-08T10:07:11Z</time>
      </trkpt>
      <trkpt lat="42.71194" lon="1.66117">
        <ele>1203.3</ele>
        <time>2020-02-08T10:07:12Z</time>
      </trkpt>
      <trkpt lat="42.71194" lon="1.66117">
        <ele>1203.3</ele>
        <time>2020-02-08T10:07:13Z</time>
      </trkpt>
      <trkpt lat="42.71194" lon="1.66116">
        <ele>1203.4</ele>
        <time>2020-02-08T10:07:14Z</time>
      </trkpt>
      <trkpt lat="42.71194" lon="1.66116">
        <ele>1203.4</ele>
        <time>2020-02-08T10:07:15Z</time>
      </trkpt>
      <trkpt lat="42.71194" lon="1.66116">
        <ele>1203.4</ele>
        <time>2020-02-08T10:07:16Z</time>
      </trkpt>
      <trkpt lat="42.71194" lon="1.66116">
        <ele>1203.4</ele>
        <time>2020-02-08T10:07:17Z</time>
      </trkpt>
      <trkpt lat="42.71194" lon="1.66116">
        <ele>1203.4</ele>
        <time>2020-02-08T10:07:18Z</time>
      </trkpt>
      <trkpt lat="42.71194" lon="1.66116">
        <ele>1203.5</ele>
        <time>2020-02-08T10:07:19Z</time>
      </trkpt>
      <trkpt lat="42.7119" lon="1.66111">
        <ele>1204.3</ele>
        <time>2020-02-08T10:07:20Z</time>
      </trkpt>
      <trkpt lat="42.7119" lon="1.66111">
        <ele>1204.4</ele>
        <time>2020-02-08T10:07:21Z</time>
      </trkpt>
      <trkpt lat="42.7119" lon="1.66111">
        <ele>1204.4</ele>
        <time>2020-02-08T10:07:22Z</time>
      </trkpt>
      <trkpt lat="42.7119" lon="1.6611">
        <ele>1204.5</ele>
        <time>2020-02-08T10:07:23Z</time>
      </trkpt>
      <trkpt lat="42.71191" lon="1.6611">
        <ele>1204.5</ele>
        <time>2020-02-08T10:07:24Z</time>
      </trkpt>
      <trkpt lat="42.71191" lon="1.6611">
        <ele>1204.6</ele>
        <time>2020-02-08T10:07:25Z</time>
      </trkpt>
      <trkpt lat="42.71191" lon="1.66109">
        <ele>1204.7</ele>
        <time>2020-02-08T10:07:26Z</time>
      </trkpt>
      <trkpt lat="42.71191" lon="1.66109">
        <ele>1204.7</ele>
        <time>2020-02-08T10:07:27Z</time>
      </trkpt>
      <trkpt lat="42.71191" lon="1.66109">
        <ele>1204.8</ele>
        <time>2020-02-08T10:07:28Z</time>
      </trkpt>
      <trkpt lat="42.71191" lon="1.66108">
        <ele>1204.8</ele>
        <time>2020-02-08T10:07:29Z</time>
      </trkpt>
      <trkpt lat="42.71191" lon="1.66108">
        <ele>1204.9</ele>
        <time>2020-02-08T10:07:30Z</time>
      </trkpt>
      <trkpt lat="42.71191" lon="1.66107">
        <ele>1204.9</ele>
        <time>2020-02-08T10:07:31Z</time>
      </trkpt>
      <trkpt lat="42.71191" lon="1.66107">
        <ele>1205</ele>
        <time>2020-02-08T10:07:32Z</time>
      </trkpt>
      <trkpt lat="42.71191" lon="1.66107">
        <ele>1205.1</ele>
        <time>2020-02-08T10:07:33Z</time>
      </trkpt>
      <trkpt lat="42.71192" lon="1.66106">
        <ele>1205.1</ele>
        <time>2020-02-08T10:07:34Z</time>
      </trkpt>
      <trkpt lat="42.71192" lon="1.66106">
        <ele>1205.2</ele>
        <time>2020-02-08T10:07:35Z</time>
      </trkpt>
      <trkpt lat="42.71192" lon="1.66105">
        <ele>1205.2</ele>
        <time>2020-02-08T10:07:36Z</time>
      </trkpt>
      <trkpt lat="42.71192" lon="1.66105">
        <ele>1205.3</ele>
        <time>2020-02-08T10:07:37Z</time>
      </trkpt>
      <trkpt lat="42.71192" lon="1.66105">
        <ele>1205.4</ele>
        <time>2020-02-08T10:07:38Z</time>
      </trkpt>
      <trkpt lat="42.71192" lon="1.66104">
        <ele>1205.4</ele>
        <time>2020-02-08T10:07:39Z</time>
      </trkpt>
      <trkpt lat="42.71193" lon="1.66104">
        <ele>1205.5</ele>
        <time>2020-02-08T10:07:40Z</time>
      </trkpt>
      <trkpt lat="42.71193" lon="1.66104">
        <ele>1205.6</ele>
        <time>2020-02-08T10:07:41Z</time>
      </trkpt>
      <trkpt lat="42.71193" lon="1.66103">
        <ele>1205.6</ele>
        <time>2020-02-08T10:07:42Z</time>
      </trkpt>
      <trkpt lat="42.71193" lon="1.66103">
        <ele>1205.7</ele>
        <time>2020-02-08T10:07:43Z</time>
      </trkpt>
      <trkpt lat="42.71193" lon="1.66102">
        <ele>1205.7</ele>
        <time>2020-02-08T10:07:44Z</time>
      </trkpt>
      <trkpt lat="42.71193" lon="1.66102">
        <ele>1205.8</ele>
        <time>2020-02-08T10:07:45Z</time>
      </trkpt>
      <trkpt lat="42.71194" lon="1.66102">
        <ele>1205.9</ele>
        <time>2020-02-08T10:07:46Z</time>
      </trkpt>
      <trkpt lat="42.71194" lon="1.66101">
        <ele>1206</ele>
        <time>2020-02-08T10:07:47Z</time>
      </trkpt>
      <trkpt lat="42.71194" lon="1.66101">
        <ele>1206.1</ele>
        <time>2020-02-08T10:07:48Z</time>
      </trkpt>
      <trkpt lat="42.71194" lon="1.661">
        <ele>1206.1</ele>
        <time>2020-02-08T10:07:49Z</time>
      </trkpt>
      <trkpt lat="42.71194" lon="1.661">
        <ele>1206.2</ele>
        <time>2020-02-08T10:07:50Z</time>
      </trkpt>
      <trkpt lat="42.71194" lon="1.661">
        <ele>1206.3</ele>
        <time>2020-02-08T10:07:51Z</time>
      </trkpt>
      <trkpt lat="42.71195" lon="1.66099">
        <ele>1206.4</ele>
        <time>2020-02-08T10:07:52Z</time>
      </trkpt>
      <trkpt lat="42.71195" lon="1.66099">
        <ele>1206.5</ele>
        <time>2020-02-08T10:07:53Z</time>
      </trkpt>
      <trkpt lat="42.71195" lon="1.66098">
        <ele>1206.6</ele>
        <time>2020-02-08T10:07:54Z</time>
      </trkpt>
      <trkpt lat="42.71195" lon="1.66098">
        <ele>1206.6</ele>
        <time>2020-02-08T10:07:55Z</time>
      </trkpt>
      <trkpt lat="42.71195" lon="1.66098">
        <ele>1206.7</ele>
        <time>2020-02-08T10:07:56Z</time>
      </trkpt>
      <trkpt lat="42.71195" lon="1.66097">
        <ele>1206.8</ele>
        <time>2020-02-08T10:07:57Z</time>
      </trkpt>
      <trkpt lat="42.71195" lon="1.66097">
        <ele>1206.9</ele>
        <time>2020-02-08T10:07:58Z</time>
      </trkpt>
      <trkpt lat="42.71196" lon="1.66096">
        <ele>1207</ele>
        <time>2020-02-08T10:07:59Z</time>
      </trkpt>
      <trkpt lat="42.71195" lon="1.66096">
        <ele>1207</ele>
        <time>2020-02-08T10:08:00Z</time>
      </trkpt>
      <trkpt lat="42.71195" lon="1.66096">
        <ele>1207.1</ele>
        <time>2020-02-08T10:08:01Z</time>
      </trkpt>
      <trkpt lat="42.71195" lon="1.66096">
        <ele>1207.1</ele>
        <time>2020-02-08T10:08:02Z</time>
      </trkpt>
      <trkpt lat="42.71195" lon="1.66096">
        <ele>1207.2</ele>
        <time>2020-02-08T10:08:03Z</time>
      </trkpt>
      <trkpt lat="42.71195" lon="1.66097">
        <ele>1207.2</ele>
        <time>2020-02-08T10:08:04Z</time>
      </trkpt>
      <trkpt lat="42.71194" lon="1.66097">
        <ele>1207.3</ele>
        <time>2020-02-08T10:08:05Z</time>
      </trkpt>
      <trkpt lat="42.71194" lon="1.66097">
        <ele>1207.4</ele>
        <time>2020-02-08T10:08:06Z</time>
      </trkpt>
      <trkpt lat="42.71194" lon="1.66097">
        <ele>1207.4</ele>
        <time>2020-02-08T10:08:07Z</time>
      </trkpt>
      <trkpt lat="42.71194" lon="1.66097">
        <ele>1207.5</ele>
        <time>2020-02-08T10:08:08Z</time>
      </trkpt>
      <trkpt lat="42.71194" lon="1.66097">
        <ele>1207.5</ele>
        <time>2020-02-08T10:08:09Z</time>
      </trkpt>
      <trkpt lat="42.71193" lon="1.66097">
        <ele>1207.6</ele>
        <time>2020-02-08T10:08:10Z</time>
      </trkpt>
      <trkpt lat="42.71193" lon="1.66097">
        <ele>1207.6</ele>
        <time>2020-02-08T10:08:11Z</time>
      </trkpt>
      <trkpt lat="42.71193" lon="1.66097">
        <ele>1207.7</ele>
        <time>2020-02-08T10:08:12Z</time>
      </trkpt>
      <trkpt lat="42.71193" lon="1.66097">
        <ele>1207.7</ele>
        <time>2020-02-08T10:08:13Z</time>
      </trkpt>
      <trkpt lat="42.71193" lon="1.66097">
        <ele>1207.8</ele>
        <time>2020-02-08T10:08:14Z</time>
      </trkpt>
      <trkpt lat="42.71192" lon="1.66097">
        <ele>1207.8</ele>
        <time>2020-02-08T10:08:15Z</time>
      </trkpt>
      <trkpt lat="42.71192" lon="1.66097">
        <ele>1207.9</ele>
        <time>2020-02-08T10:08:16Z</time>
      </trkpt>
      <trkpt lat="42.71192" lon="1.66097">
        <ele>1207.9</ele>
        <time>2020-02-08T10:08:17Z</time>
      </trkpt>
      <trkpt lat="42.71192" lon="1.66097">
        <ele>1208</ele>
        <time>2020-02-08T10:08:18Z</time>
      </trkpt>
      <trkpt lat="42.71191" lon="1.66097">
        <ele>1208</ele>
        <time>2020-02-08T10:08:19Z</time>
      </trkpt>
      <trkpt lat="42.71191" lon="1.66097">
        <ele>1208.1</ele>
        <time>2020-02-08T10:08:20Z</time>
      </trkpt>
      <trkpt lat="42.71191" lon="1.66097">
        <ele>1208.2</ele>
        <time>2020-02-08T10:08:21Z</time>
      </trkpt>
      <trkpt lat="42.71191" lon="1.66097">
        <ele>1208.2</ele>
        <time>2020-02-08T10:08:22Z</time>
      </trkpt>
      <trkpt lat="42.71191" lon="1.66097">
        <ele>1208.3</ele>
        <time>2020-02-08T10:08:23Z</time>
      </trkpt>
      <trkpt lat="42.7119" lon="1.66097">
        <ele>1208.3</ele>
        <time>2020-02-08T10:08:24Z</time>
      </trkpt>
      <trkpt lat="42.7119" lon="1.66097">
        <ele>1208.4</ele>
        <time>2020-02-08T10:08:25Z</time>
      </trkpt>
      <trkpt lat="42.7119" lon="1.66097">
        <ele>1208.4</ele>
        <time>2020-02-08T10:08:26Z</time>
      </trkpt>
      <trkpt lat="42.7119" lon="1.66097">
        <ele>1208.5</ele>
        <time>2020-02-08T10:08:27Z</time>
      </trkpt>
      <trkpt lat="42.7119" lon="1.66097">
        <ele>1208.5</ele>
        <time>2020-02-08T10:08:28Z</time>
      </trkpt>
      <trkpt lat="42.71189" lon="1.66097">
        <ele>1208.6</ele>
        <time>2020-02-08T10:08:29Z</time>
      </trkpt>
      <trkpt lat="42.71189" lon="1.66097">
        <ele>1208.6</ele>
        <time>2020-02-08T10:08:30Z</time>
      </trkpt>
      <trkpt lat="42.71189" lon="1.66097">
        <ele>1208.7</ele>
        <time>2020-02-08T10:08:31Z</time>
      </trkpt>
      <trkpt lat="42.71189" lon="1.66097">
        <ele>1208.7</ele>
        <time>2020-02-08T10:08:32Z</time>
      </trkpt>
      <trkpt lat="42.71189" lon="1.66097">
        <ele>1208.8</ele>
        <time>2020-02-08T10:08:33Z</time>
      </trkpt>
      <trkpt lat="42.71188" lon="1.66097">
        <ele>1208.8</ele>
        <time>2020-02-08T10:08:34Z</time>
      </trkpt>
      <trkpt lat="42.71188" lon="1.66097">
        <ele>1208.9</ele>
        <time>2020-02-08T10:08:35Z</time>
      </trkpt>
      <trkpt lat="42.71188" lon="1.66097">
        <ele>1208.9</ele>
        <time>2020-02-08T10:08:36Z</time>
      </trkpt>
      <trkpt lat="42.71188" lon="1.66097">
        <ele>1209</ele>
        <time>2020-02-08T10:08:37Z</time>
      </trkpt>
      <trkpt lat="42.71188" lon="1.66097">
        <ele>1209</ele>
        <time>2020-02-08T10:08:38Z</time>
      </trkpt>
      <trkpt lat="42.71187" lon="1.66097">
        <ele>1209.1</ele>
        <time>2020-02-08T10:08:39Z</time>
      </trkpt>
      <trkpt lat="42.71187" lon="1.66097">
        <ele>1209.1</ele>
        <time>2020-02-08T10:08:40Z</time>
      </trkpt>
      <trkpt lat="42.71187" lon="1.66097">
        <ele>1209.2</ele>
        <time>2020-02-08T10:08:41Z</time>
      </trkpt>
      <trkpt lat="42.71187" lon="1.66097">
        <ele>1209.2</ele>
        <time>2020-02-08T10:08:42Z</time>
      </trkpt>
      <trkpt lat="42.71186" lon="1.66097">
        <ele>1209.3</ele>
        <time>2020-02-08T10:08:43Z</time>
      </trkpt>
      <trkpt lat="42.71186" lon="1.66097">
        <ele>1209.4</ele>
        <time>2020-02-08T10:08:44Z</time>
      </trkpt>
      <trkpt lat="42.71186" lon="1.66097">
        <ele>1209.4</ele>
        <time>2020-02-08T10:08:45Z</time>
      </trkpt>
      <trkpt lat="42.71186" lon="1.66097">
        <ele>1209.5</ele>
        <time>2020-02-08T10:08:46Z</time>
      </trkpt>
      <trkpt lat="42.71186" lon="1.66097">
        <ele>1209.5</ele>
        <time>2020-02-08T10:08:47Z</time>
      </trkpt>
      <trkpt lat="42.71185" lon="1.66097">
        <ele>1209.6</ele>
        <time>2020-02-08T10:08:48Z</time>
      </trkpt>
      <trkpt lat="42.71185" lon="1.66097">
        <ele>1209.6</ele>
        <time>2020-02-08T10:08:49Z</time>
      </trkpt>
      <trkpt lat="42.71185" lon="1.66096">
        <ele>1209.7</ele>
        <time>2020-02-08T10:08:50Z</time>
      </trkpt>
      <trkpt lat="42.71186" lon="1.66096">
        <ele>1209.9</ele>
        <time>2020-02-08T10:08:51Z</time>
      </trkpt>
      <trkpt lat="42.71186" lon="1.66095">
        <ele>1210</ele>
        <time>2020-02-08T10:08:52Z</time>
      </trkpt>
      <trkpt lat="42.71186" lon="1.66095">
        <ele>1210.1</ele>
        <time>2020-02-08T10:08:53Z</time>
      </trkpt>
      <trkpt lat="42.71186" lon="1.66094">
        <ele>1210.3</ele>
        <time>2020-02-08T10:08:54Z</time>
      </trkpt>
      <trkpt lat="42.71186" lon="1.66093">
        <ele>1210.4</ele>
        <time>2020-02-08T10:08:55Z</time>
      </trkpt>
      <trkpt lat="42.71186" lon="1.66093">
        <ele>1210.5</ele>
        <time>2020-02-08T10:08:56Z</time>
      </trkpt>
      <trkpt lat="42.71187" lon="1.66092">
        <ele>1210.6</ele>
        <time>2020-02-08T10:08:57Z</time>
      </trkpt>
      <trkpt lat="42.71187" lon="1.66092">
        <ele>1210.8</ele>
        <time>2020-02-08T10:08:58Z</time>
      </trkpt>
      <trkpt lat="42.71187" lon="1.66091">
        <ele>1210.9</ele>
        <time>2020-02-08T10:08:59Z</time>
      </trkpt>
      <trkpt lat="42.71187" lon="1.6609">
        <ele>1211</ele>
        <time>2020-02-08T10:09:00Z</time>
      </trkpt>
      <trkpt lat="42.71187" lon="1.6609">
        <ele>1211.1</ele>
        <time>2020-02-08T10:09:01Z</time>
      </trkpt>
      <trkpt lat="42.71187" lon="1.66089">
        <ele>1211.3</ele>
        <time>2020-02-08T10:09:02Z</time>
      </trkpt>
      <trkpt lat="42.71188" lon="1.66088">
        <ele>1211.4</ele>
        <time>2020-02-08T10:09:03Z</time>
      </trkpt>
      <trkpt lat="42.71188" lon="1.66088">
        <ele>1211.5</ele>
        <time>2020-02-08T10:09:04Z</time>
      </trkpt>
      <trkpt lat="42.71188" lon="1.66087">
        <ele>1211.6</ele>
        <time>2020-02-08T10:09:05Z</time>
      </trkpt>
      <trkpt lat="42.71188" lon="1.66087">
        <ele>1211.8</ele>
        <time>2020-02-08T10:09:06Z</time>
      </trkpt>
      <trkpt lat="42.71188" lon="1.66086">
        <ele>1211.9</ele>
        <time>2020-02-08T10:09:07Z</time>
      </trkpt>
      <trkpt lat="42.71188" lon="1.66085">
        <ele>1212</ele>
        <time>2020-02-08T10:09:08Z</time>
      </trkpt>
      <trkpt lat="42.71189" lon="1.66085">
        <ele>1212.2</ele>
        <time>2020-02-08T10:09:09Z</time>
      </trkpt>
      <trkpt lat="42.71189" lon="1.66084">
        <ele>1212.4</ele>
        <time>2020-02-08T10:09:10Z</time>
      </trkpt>
      <trkpt lat="42.71189" lon="1.66082">
        <ele>1212.6</ele>
        <time>2020-02-08T10:09:11Z</time>
      </trkpt>
      <trkpt lat="42.71189" lon="1.66081">
        <ele>1212.9</ele>
        <time>2020-02-08T10:09:12Z</time>
      </trkpt>
      <trkpt lat="42.7119" lon="1.6608">
        <ele>1213.2</ele>
        <time>2020-02-08T10:09:13Z</time>
      </trkpt>
      <trkpt lat="42.7119" lon="1.66079">
        <ele>1213.4</ele>
        <time>2020-02-08T10:09:14Z</time>
      </trkpt>
      <trkpt lat="42.7119" lon="1.66077">
        <ele>1213.6</ele>
        <time>2020-02-08T10:09:15Z</time>
      </trkpt>
      <trkpt lat="42.71191" lon="1.66076">
        <ele>1213.9</ele>
        <time>2020-02-08T10:09:16Z</time>
      </trkpt>
      <trkpt lat="42.71191" lon="1.66075">
        <ele>1214.2</ele>
        <time>2020-02-08T10:09:17Z</time>
      </trkpt>
      <trkpt lat="42.71191" lon="1.66074">
        <ele>1214.5</ele>
        <time>2020-02-08T10:09:18Z</time>
      </trkpt>
      <trkpt lat="42.71191" lon="1.66073">
        <ele>1214.7</ele>
        <time>2020-02-08T10:09:19Z</time>
      </trkpt>
      <trkpt lat="42.71192" lon="1.66072">
        <ele>1214.9</ele>
        <time>2020-02-08T10:09:20Z</time>
      </trkpt>
      <trkpt lat="42.71192" lon="1.66072">
        <ele>1215</ele>
        <time>2020-02-08T10:09:21Z</time>
      </trkpt>
      <trkpt lat="42.71192" lon="1.66071">
        <ele>1215.2</ele>
        <time>2020-02-08T10:09:22Z</time>
      </trkpt>
      <trkpt lat="42.71192" lon="1.66071">
        <ele>1215.3</ele>
        <time>2020-02-08T10:09:23Z</time>
      </trkpt>
      <trkpt lat="42.71193" lon="1.6607">
        <ele>1215.4</ele>
        <time>2020-02-08T10:09:24Z</time>
      </trkpt>
      <trkpt lat="42.71193" lon="1.66069">
        <ele>1215.6</ele>
        <time>2020-02-08T10:09:25Z</time>
      </trkpt>
      <trkpt lat="42.71193" lon="1.66069">
        <ele>1215.7</ele>
        <time>2020-02-08T10:09:26Z</time>
      </trkpt>
      <trkpt lat="42.71194" lon="1.66068">
        <ele>1215.9</ele>
        <time>2020-02-08T10:09:27Z</time>
      </trkpt>
      <trkpt lat="42.71194" lon="1.66068">
        <ele>1216</ele>
        <time>2020-02-08T10:09:28Z</time>
      </trkpt>
      <trkpt lat="42.71194" lon="1.66067">
        <ele>1216.1</ele>
        <time>2020-02-08T10:09:29Z</time>
      </trkpt>
      <trkpt lat="42.71194" lon="1.66067">
        <ele>1216.3</ele>
        <time>2020-02-08T10:09:30Z</time>
      </trkpt>
      <trkpt lat="42.71195" lon="1.66066">
        <ele>1216.4</ele>
        <time>2020-02-08T10:09:31Z</time>
      </trkpt>
      <trkpt lat="42.71195" lon="1.66066">
        <ele>1216.6</ele>
        <time>2020-02-08T10:09:32Z</time>
      </trkpt>
      <trkpt lat="42.71195" lon="1.66065">
        <ele>1216.7</ele>
        <time>2020-02-08T10:09:33Z</time>
      </trkpt>
      <trkpt lat="42.71196" lon="1.66065">
        <ele>1216.8</ele>
        <time>2020-02-08T10:09:34Z</time>
      </trkpt>
      <trkpt lat="42.71196" lon="1.66064">
        <ele>1217</ele>
        <time>2020-02-08T10:09:35Z</time>
      </trkpt>
      <trkpt lat="42.71196" lon="1.66064">
        <ele>1217.1</ele>
        <time>2020-02-08T10:09:36Z</time>
      </trkpt>
      <trkpt lat="42.71196" lon="1.66063">
        <ele>1217.3</ele>
        <time>2020-02-08T10:09:37Z</time>
      </trkpt>
      <trkpt lat="42.71197" lon="1.66063">
        <ele>1217.4</ele>
        <time>2020-02-08T10:09:38Z</time>
      </trkpt>
      <trkpt lat="42.71197" lon="1.66062">
        <ele>1217.5</ele>
        <time>2020-02-08T10:09:39Z</time>
      </trkpt>
      <trkpt lat="42.71197" lon="1.66064">
        <ele>1217.8</ele>
        <time>2020-02-08T10:09:40Z</time>
      </trkpt>
      <trkpt lat="42.71196" lon="1.66065">
        <ele>1218.1</ele>
        <time>2020-02-08T10:09:41Z</time>
      </trkpt>
      <trkpt lat="42.71196" lon="1.66066">
        <ele>1218.3</ele>
        <time>2020-02-08T10:09:42Z</time>
      </trkpt>
      <trkpt lat="42.71196" lon="1.66067">
        <ele>1218.5</ele>
        <time>2020-02-08T10:09:43Z</time>
      </trkpt>
      <trkpt lat="42.71196" lon="1.66068">
        <ele>1218.7</ele>
        <time>2020-02-08T10:09:44Z</time>
      </trkpt>
      <trkpt lat="42.71195" lon="1.6607">
        <ele>1218.8</ele>
        <time>2020-02-08T10:09:45Z</time>
      </trkpt>
      <trkpt lat="42.71195" lon="1.66071">
        <ele>1219</ele>
        <time>2020-02-08T10:09:46Z</time>
      </trkpt>
      <trkpt lat="42.71195" lon="1.66072">
        <ele>1219.1</ele>
        <time>2020-02-08T10:09:47Z</time>
      </trkpt>
      <trkpt lat="42.71195" lon="1.66073">
        <ele>1219.3</ele>
        <time>2020-02-08T10:09:48Z</time>
      </trkpt>
      <trkpt lat="42.71194" lon="1.66074">
        <ele>1219.5</ele>
        <time>2020-02-08T10:09:49Z</time>
      </trkpt>
      <trkpt lat="42.71194" lon="1.66075">
        <ele>1219.6</ele>
        <time>2020-02-08T10:09:50Z</time>
      </trkpt>
      <trkpt lat="42.71193" lon="1.66075">
        <ele>1219.8</ele>
        <time>2020-02-08T10:09:51Z</time>
      </trkpt>
      <trkpt lat="42.71192" lon="1.66076">
        <ele>1220</ele>
        <time>2020-02-08T10:09:52Z</time>
      </trkpt>
      <trkpt lat="42.71191" lon="1.66076">
        <ele>1220.1</ele>
        <time>2020-02-08T10:09:53Z</time>
      </trkpt>
      <trkpt lat="42.7119" lon="1.66076">
        <ele>1220.3</ele>
        <time>2020-02-08T10:09:54Z</time>
      </trkpt>
      <trkpt lat="42.71189" lon="1.66077">
        <ele>1220.5</ele>
        <time>2020-02-08T10:09:55Z</time>
      </trkpt>
      <trkpt lat="42.71188" lon="1.66077">
        <ele>1220.6</ele>
        <time>2020-02-08T10:09:56Z</time>
      </trkpt>
      <trkpt lat="42.71187" lon="1.66077">
        <ele>1220.8</ele>
        <time>2020-02-08T10:09:57Z</time>
      </trkpt>
      <trkpt lat="42.71186" lon="1.66078">
        <ele>1221</ele>
        <time>2020-02-08T10:09:58Z</time>
      </trkpt>
      <trkpt lat="42.71185" lon="1.66078">
        <ele>1221.2</ele>
        <time>2020-02-08T10:09:59Z</time>
      </trkpt>
      <trkpt lat="42.71185" lon="1.66077">
        <ele>1221.4</ele>
        <time>2020-02-08T10:10:00Z</time>
      </trkpt>
      <trkpt lat="42.71184" lon="1.66075">
        <ele>1221.7</ele>
        <time>2020-02-08T10:10:01Z</time>
      </trkpt>
      <trkpt lat="42.71184" lon="1.66074">
        <ele>1221.9</ele>
        <time>2020-02-08T10:10:02Z</time>
      </trkpt>
      <trkpt lat="42.71184" lon="1.66073">
        <ele>1222.2</ele>
        <time>2020-02-08T10:10:03Z</time>
      </trkpt>
      <trkpt lat="42.71184" lon="1.66071">
        <ele>1222.4</ele>
        <time>2020-02-08T10:10:04Z</time>
      </trkpt>
      <trkpt lat="42.71184" lon="1.6607">
        <ele>1222.6</ele>
        <time>2020-02-08T10:10:05Z</time>
      </trkpt>
      <trkpt lat="42.71183" lon="1.66069">
        <ele>1222.9</ele>
        <time>2020-02-08T10:10:06Z</time>
      </trkpt>
      <trkpt lat="42.71183" lon="1.66067">
        <ele>1223.1</ele>
        <time>2020-02-08T10:10:07Z</time>
      </trkpt>
      <trkpt lat="42.71183" lon="1.66066">
        <ele>1223.3</ele>
        <time>2020-02-08T10:10:08Z</time>
      </trkpt>
      <trkpt lat="42.71183" lon="1.66065">
        <ele>1223.6</ele>
        <time>2020-02-08T10:10:09Z</time>
      </trkpt>
      <trkpt lat="42.71182" lon="1.66063">
        <ele>1223.8</ele>
        <time>2020-02-08T10:10:10Z</time>
      </trkpt>
      <trkpt lat="42.71182" lon="1.66062">
        <ele>1224.1</ele>
        <time>2020-02-08T10:10:11Z</time>
      </trkpt>
      <trkpt lat="42.71182" lon="1.66061">
        <ele>1224.3</ele>
        <time>2020-02-08T10:10:12Z</time>
      </trkpt>
      <trkpt lat="42.71182" lon="1.6606">
        <ele>1224.5</ele>
        <time>2020-02-08T10:10:13Z</time>
      </trkpt>
      <trkpt lat="42.71181" lon="1.66058">
        <ele>1224.8</ele>
        <time>2020-02-08T10:10:14Z</time>
      </trkpt>
      <trkpt lat="42.71181" lon="1.66057">
        <ele>1225</ele>
        <time>2020-02-08T10:10:15Z</time>
      </trkpt>
      <trkpt lat="42.71181" lon="1.66056">
        <ele>1225.2</ele>
        <time>2020-02-08T10:10:16Z</time>
      </trkpt>
      <trkpt lat="42.71181" lon="1.66054">
        <ele>1225.4</ele>
        <time>2020-02-08T10:10:17Z</time>
      </trkpt>
      <trkpt lat="42.7118" lon="1.66053">
        <ele>1225.5</ele>
        <time>2020-02-08T10:10:18Z</time>
      </trkpt>
      <trkpt lat="42.7118" lon="1.66052">
        <ele>1225.7</ele>
        <time>2020-02-08T10:10:19Z</time>
      </trkpt>
      <trkpt lat="42.71181" lon="1.66051">
        <ele>1225.8</ele>
        <time>2020-02-08T10:10:20Z</time>
      </trkpt>
      <trkpt lat="42.71181" lon="1.66049">
        <ele>1226</ele>
        <time>2020-02-08T10:10:21Z</time>
      </trkpt>
      <trkpt lat="42.71181" lon="1.66048">
        <ele>1226.2</ele>
        <time>2020-02-08T10:10:22Z</time>
      </trkpt>
      <trkpt lat="42.71182" lon="1.66047">
        <ele>1226.3</ele>
        <time>2020-02-08T10:10:23Z</time>
      </trkpt>
      <trkpt lat="42.71182" lon="1.66046">
        <ele>1226.5</ele>
        <time>2020-02-08T10:10:24Z</time>
      </trkpt>
      <trkpt lat="42.71183" lon="1.66045">
        <ele>1226.6</ele>
        <time>2020-02-08T10:10:25Z</time>
      </trkpt>
      <trkpt lat="42.71183" lon="1.66044">
        <ele>1226.8</ele>
        <time>2020-02-08T10:10:26Z</time>
      </trkpt>
      <trkpt lat="42.71184" lon="1.66043">
        <ele>1226.9</ele>
        <time>2020-02-08T10:10:27Z</time>
      </trkpt>
      <trkpt lat="42.71184" lon="1.66041">
        <ele>1227.1</ele>
        <time>2020-02-08T10:10:28Z</time>
      </trkpt>
      <trkpt lat="42.71185" lon="1.6604">
        <ele>1227.2</ele>
        <time>2020-02-08T10:10:29Z</time>
      </trkpt>
      <trkpt lat="42.71185" lon="1.66041">
        <ele>1227.3</ele>
        <time>2020-02-08T10:10:30Z</time>
      </trkpt>
      <trkpt lat="42.71184" lon="1.66042">
        <ele>1227.4</ele>
        <time>2020-02-08T10:10:31Z</time>
      </trkpt>
      <trkpt lat="42.71184" lon="1.66042">
        <ele>1227.4</ele>
        <time>2020-02-08T10:10:32Z</time>
      </trkpt>
      <trkpt lat="42.71184" lon="1.66043">
        <ele>1227.5</ele>
        <time>2020-02-08T10:10:33Z</time>
      </trkpt>
      <trkpt lat="42.71184" lon="1.66044">
        <ele>1227.6</ele>
        <time>2020-02-08T10:10:34Z</time>
      </trkpt>
      <trkpt lat="42.71184" lon="1.66044">
        <ele>1227.7</ele>
        <time>2020-02-08T10:10:35Z</time>
      </trkpt>
      <trkpt lat="42.71184" lon="1.66045">
        <ele>1227.7</ele>
        <time>2020-02-08T10:10:36Z</time>
      </trkpt>
      <trkpt lat="42.71184" lon="1.66045">
        <ele>1227.9</ele>
        <time>2020-02-08T10:10:37Z</time>
      </trkpt>
      <trkpt lat="42.71184" lon="1.66046">
        <ele>1228</ele>
        <time>2020-02-08T10:10:38Z</time>
      </trkpt>
      <trkpt lat="42.71184" lon="1.66047">
        <ele>1228.1</ele>
        <time>2020-02-08T10:10:39Z</time>
      </trkpt>
      <trkpt lat="42.71184" lon="1.66047">
        <ele>1228.2</ele>
        <time>2020-02-08T10:10:40Z</time>
      </trkpt>
      <trkpt lat="42.71184" lon="1.66048">
        <ele>1228.3</ele>
        <time>2020-02-08T10:10:41Z</time>
      </trkpt>
      <trkpt lat="42.71184" lon="1.66049">
        <ele>1228.5</ele>
        <time>2020-02-08T10:10:42Z</time>
      </trkpt>
      <trkpt lat="42.71184" lon="1.66049">
        <ele>1228.6</ele>
        <time>2020-02-08T10:10:43Z</time>
      </trkpt>
      <trkpt lat="42.71184" lon="1.6605">
        <ele>1228.7</ele>
        <time>2020-02-08T10:10:44Z</time>
      </trkpt>
      <trkpt lat="42.71184" lon="1.66051">
        <ele>1228.8</ele>
        <time>2020-02-08T10:10:45Z</time>
      </trkpt>
      <trkpt lat="42.71184" lon="1.66051">
        <ele>1228.9</ele>
        <time>2020-02-08T10:10:46Z</time>
      </trkpt>
      <trkpt lat="42.71184" lon="1.66052">
        <ele>1229</ele>
        <time>2020-02-08T10:10:47Z</time>
      </trkpt>
      <trkpt lat="42.71184" lon="1.66052">
        <ele>1229.2</ele>
        <time>2020-02-08T10:10:48Z</time>
      </trkpt>
      <trkpt lat="42.71184" lon="1.66053">
        <ele>1229.3</ele>
        <time>2020-02-08T10:10:49Z</time>
      </trkpt>
      <trkpt lat="42.71183" lon="1.66053">
        <ele>1229.4</ele>
        <time>2020-02-08T10:10:50Z</time>
      </trkpt>
      <trkpt lat="42.71183" lon="1.66053">
        <ele>1229.6</ele>
        <time>2020-02-08T10:10:51Z</time>
      </trkpt>
      <trkpt lat="42.71182" lon="1.66053">
        <ele>1229.7</ele>
        <time>2020-02-08T10:10:52Z</time>
      </trkpt>
      <trkpt lat="42.71182" lon="1.66053">
        <ele>1229.9</ele>
        <time>2020-02-08T10:10:53Z</time>
      </trkpt>
      <trkpt lat="42.71181" lon="1.66052">
        <ele>1230</ele>
        <time>2020-02-08T10:10:54Z</time>
      </trkpt>
      <trkpt lat="42.7118" lon="1.66052">
        <ele>1230.1</ele>
        <time>2020-02-08T10:10:55Z</time>
      </trkpt>
      <trkpt lat="42.7118" lon="1.66052">
        <ele>1230.3</ele>
        <time>2020-02-08T10:10:56Z</time>
      </trkpt>
      <trkpt lat="42.71179" lon="1.66052">
        <ele>1230.4</ele>
        <time>2020-02-08T10:10:57Z</time>
      </trkpt>
      <trkpt lat="42.71179" lon="1.66052">
        <ele>1230.6</ele>
        <time>2020-02-08T10:10:58Z</time>
      </trkpt>
      <trkpt lat="42.71178" lon="1.66052">
        <ele>1230.7</ele>
        <time>2020-02-08T10:10:59Z</time>
      </trkpt>
      <trkpt lat="42.71178" lon="1.66052">
        <ele>1230.9</ele>
        <time>2020-02-08T10:11:00Z</time>
      </trkpt>
      <trkpt lat="42.71177" lon="1.66052">
        <ele>1231</ele>
        <time>2020-02-08T10:11:01Z</time>
      </trkpt>
      <trkpt lat="42.71177" lon="1.66051">
        <ele>1231.1</ele>
        <time>2020-02-08T10:11:02Z</time>
      </trkpt>
      <trkpt lat="42.71176" lon="1.66051">
        <ele>1231.3</ele>
        <time>2020-02-08T10:11:03Z</time>
      </trkpt>
      <trkpt lat="42.71175" lon="1.66051">
        <ele>1231.4</ele>
        <time>2020-02-08T10:11:04Z</time>
      </trkpt>
      <trkpt lat="42.71175" lon="1.66051">
        <ele>1231.6</ele>
        <time>2020-02-08T10:11:05Z</time>
      </trkpt>
      <trkpt lat="42.71174" lon="1.66051">
        <ele>1231.7</ele>
        <time>2020-02-08T10:11:06Z</time>
      </trkpt>
      <trkpt lat="42.71174" lon="1.66051">
        <ele>1231.9</ele>
        <time>2020-02-08T10:11:07Z</time>
      </trkpt>
      <trkpt lat="42.71173" lon="1.66051">
        <ele>1232</ele>
        <time>2020-02-08T10:11:08Z</time>
      </trkpt>
      <trkpt lat="42.71173" lon="1.66051">
        <ele>1232.1</ele>
        <time>2020-02-08T10:11:09Z</time>
      </trkpt>
      <trkpt lat="42.71173" lon="1.6605">
        <ele>1232.2</ele>
        <time>2020-02-08T10:11:10Z</time>
      </trkpt>
      <trkpt lat="42.71173" lon="1.66049">
        <ele>1232.3</ele>
        <time>2020-02-08T10:11:11Z</time>
      </trkpt>
      <trkpt lat="42.71173" lon="1.66049">
        <ele>1232.4</ele>
        <time>2020-02-08T10:11:12Z</time>
      </trkpt>
      <trkpt lat="42.71174" lon="1.66048">
        <ele>1232.4</ele>
        <time>2020-02-08T10:11:13Z</time>
      </trkpt>
      <trkpt lat="42.71174" lon="1.66047">
        <ele>1232.5</ele>
        <time>2020-02-08T10:11:14Z</time>
      </trkpt>
      <trkpt lat="42.71174" lon="1.66047">
        <ele>1232.6</ele>
        <time>2020-02-08T10:11:15Z</time>
      </trkpt>
      <trkpt lat="42.71174" lon="1.66046">
        <ele>1232.7</ele>
        <time>2020-02-08T10:11:16Z</time>
      </trkpt>
      <trkpt lat="42.71175" lon="1.66045">
        <ele>1232.8</ele>
        <time>2020-02-08T10:11:17Z</time>
      </trkpt>
      <trkpt lat="42.71175" lon="1.66045">
        <ele>1232.9</ele>
        <time>2020-02-08T10:11:18Z</time>
      </trkpt>
      <trkpt lat="42.71175" lon="1.66044">
        <ele>1233</ele>
        <time>2020-02-08T10:11:19Z</time>
      </trkpt>
      <trkpt lat="42.71176" lon="1.66043">
        <ele>1233.1</ele>
        <time>2020-02-08T10:11:20Z</time>
      </trkpt>
      <trkpt lat="42.71176" lon="1.66043">
        <ele>1233.2</ele>
        <time>2020-02-08T10:11:21Z</time>
      </trkpt>
      <trkpt lat="42.71176" lon="1.66042">
        <ele>1233.3</ele>
        <time>2020-02-08T10:11:22Z</time>
      </trkpt>
      <trkpt lat="42.71176" lon="1.66041">
        <ele>1233.4</ele>
        <time>2020-02-08T10:11:23Z</time>
      </trkpt>
      <trkpt lat="42.71177" lon="1.66041">
        <ele>1233.5</ele>
        <time>2020-02-08T10:11:24Z</time>
      </trkpt>
      <trkpt lat="42.71177" lon="1.6604">
        <ele>1233.6</ele>
        <time>2020-02-08T10:11:25Z</time>
      </trkpt>
      <trkpt lat="42.71177" lon="1.66039">
        <ele>1233.7</ele>
        <time>2020-02-08T10:11:26Z</time>
      </trkpt>
      <trkpt lat="42.71177" lon="1.66039">
        <ele>1233.8</ele>
        <time>2020-02-08T10:11:27Z</time>
      </trkpt>
      <trkpt lat="42.71178" lon="1.66038">
        <ele>1233.9</ele>
        <time>2020-02-08T10:11:28Z</time>
      </trkpt>
      <trkpt lat="42.71178" lon="1.66037">
        <ele>1234</ele>
        <time>2020-02-08T10:11:29Z</time>
      </trkpt>
      <trkpt lat="42.71178" lon="1.66037">
        <ele>1234</ele>
        <time>2020-02-08T10:11:30Z</time>
      </trkpt>
      <trkpt lat="42.71178" lon="1.66036">
        <ele>1234.1</ele>
        <time>2020-02-08T10:11:31Z</time>
      </trkpt>
      <trkpt lat="42.71178" lon="1.66036">
        <ele>1234.1</ele>
        <time>2020-02-08T10:11:32Z</time>
      </trkpt>
      <trkpt lat="42.71178" lon="1.66036">
        <ele>1234.2</ele>
        <time>2020-02-08T10:11:33Z</time>
      </trkpt>
      <trkpt lat="42.71179" lon="1.66035">
        <ele>1234.2</ele>
        <time>2020-02-08T10:11:34Z</time>
      </trkpt>
      <trkpt lat="42.71179" lon="1.66035">
        <ele>1234.3</ele>
        <time>2020-02-08T10:11:35Z</time>
      </trkpt>
      <trkpt lat="42.71179" lon="1.66035">
        <ele>1234.3</ele>
        <time>2020-02-08T10:11:36Z</time>
      </trkpt>
      <trkpt lat="42.71179" lon="1.66034">
        <ele>1234.4</ele>
        <time>2020-02-08T10:11:37Z</time>
      </trkpt>
      <trkpt lat="42.71179" lon="1.66034">
        <ele>1234.4</ele>
        <time>2020-02-08T10:11:38Z</time>
      </trkpt>
      <trkpt lat="42.71179" lon="1.66033">
        <ele>1234.5</ele>
        <time>2020-02-08T10:11:39Z</time>
      </trkpt>
      <trkpt lat="42.71179" lon="1.66033">
        <ele>1234.5</ele>
        <time>2020-02-08T10:11:40Z</time>
      </trkpt>
      <trkpt lat="42.7118" lon="1.66033">
        <ele>1234.6</ele>
        <time>2020-02-08T10:11:41Z</time>
      </trkpt>
      <trkpt lat="42.7118" lon="1.66032">
        <ele>1234.6</ele>
        <time>2020-02-08T10:11:42Z</time>
      </trkpt>
      <trkpt lat="42.7118" lon="1.66032">
        <ele>1234.7</ele>
        <time>2020-02-08T10:11:43Z</time>
      </trkpt>
      <trkpt lat="42.7118" lon="1.66032">
        <ele>1234.8</ele>
        <time>2020-02-08T10:11:44Z</time>
      </trkpt>
      <trkpt lat="42.7118" lon="1.66031">
        <ele>1234.8</ele>
        <time>2020-02-08T10:11:45Z</time>
      </trkpt>
      <trkpt lat="42.7118" lon="1.66031">
        <ele>1234.9</ele>
        <time>2020-02-08T10:11:46Z</time>
      </trkpt>
      <trkpt lat="42.7118" lon="1.6603">
        <ele>1235</ele>
        <time>2020-02-08T10:11:47Z</time>
      </trkpt>
      <trkpt lat="42.71181" lon="1.6603">
        <ele>1235</ele>
        <time>2020-02-08T10:11:48Z</time>
      </trkpt>
      <trkpt lat="42.71181" lon="1.6603">
        <ele>1235.1</ele>
        <time>2020-02-08T10:11:49Z</time>
      </trkpt>
      <trkpt lat="42.71181" lon="1.66029">
        <ele>1235.2</ele>
        <time>2020-02-08T10:11:50Z</time>
      </trkpt>
      <trkpt lat="42.71181" lon="1.66029">
        <ele>1235.2</ele>
        <time>2020-02-08T10:11:51Z</time>
      </trkpt>
      <trkpt lat="42.71181" lon="1.66029">
        <ele>1235.3</ele>
        <time>2020-02-08T10:11:52Z</time>
      </trkpt>
      <trkpt lat="42.71181" lon="1.66028">
        <ele>1235.4</ele>
        <time>2020-02-08T10:11:53Z</time>
      </trkpt>
      <trkpt lat="42.71181" lon="1.66028">
        <ele>1235.4</ele>
        <time>2020-02-08T10:11:54Z</time>
      </trkpt>
      <trkpt lat="42.71182" lon="1.66027">
        <ele>1235.5</ele>
        <time>2020-02-08T10:11:55Z</time>
      </trkpt>
      <trkpt lat="42.71182" lon="1.66027">
        <ele>1235.6</ele>
        <time>2020-02-08T10:11:56Z</time>
      </trkpt>
      <trkpt lat="42.71182" lon="1.66027">
        <ele>1235.7</ele>
        <time>2020-02-08T10:11:57Z</time>
      </trkpt>
      <trkpt lat="42.71182" lon="1.66026">
        <ele>1235.7</ele>
        <time>2020-02-08T10:11:58Z</time>
      </trkpt>
      <trkpt lat="42.71182" lon="1.66026">
        <ele>1235.8</ele>
        <time>2020-02-08T10:11:59Z</time>
      </trkpt>
      <trkpt lat="42.71183" lon="1.66026">
        <ele>1235.9</ele>
        <time>2020-02-08T10:12:00Z</time>
      </trkpt>
      <trkpt lat="42.71183" lon="1.66025">
        <ele>1236</ele>
        <time>2020-02-08T10:12:01Z</time>
      </trkpt>
      <trkpt lat="42.71183" lon="1.66025">
        <ele>1236.1</ele>
        <time>2020-02-08T10:12:02Z</time>
      </trkpt>
      <trkpt lat="42.71184" lon="1.66024">
        <ele>1236.2</ele>
        <time>2020-02-08T10:12:03Z</time>
      </trkpt>
      <trkpt lat="42.71184" lon="1.66024">
        <ele>1236.3</ele>
        <time>2020-02-08T10:12:04Z</time>
      </trkpt>
      <trkpt lat="42.71184" lon="1.66024">
        <ele>1236.4</ele>
        <time>2020-02-08T10:12:05Z</time>
      </trkpt>
      <trkpt lat="42.71185" lon="1.66023">
        <ele>1236.5</ele>
        <time>2020-02-08T10:12:06Z</time>
      </trkpt>
      <trkpt lat="42.71185" lon="1.66023">
        <ele>1236.6</ele>
        <time>2020-02-08T10:12:07Z</time>
      </trkpt>
      <trkpt lat="42.71185" lon="1.66022">
        <ele>1236.7</ele>
        <time>2020-02-08T10:12:08Z</time>
      </trkpt>
      <trkpt lat="42.71186" lon="1.66022">
        <ele>1236.8</ele>
        <time>2020-02-08T10:12:09Z</time>
      </trkpt>
      <trkpt lat="42.71186" lon="1.66021">
        <ele>1236.9</ele>
        <time>2020-02-08T10:12:10Z</time>
      </trkpt>
      <trkpt lat="42.71187" lon="1.66021">
        <ele>1237.1</ele>
        <time>2020-02-08T10:12:11Z</time>
      </trkpt>
      <trkpt lat="42.71187" lon="1.66021">
        <ele>1237.1</ele>
        <time>2020-02-08T10:12:12Z</time>
      </trkpt>
      <trkpt lat="42.71187" lon="1.6602">
        <ele>1237.3</ele>
        <time>2020-02-08T10:12:13Z</time>
      </trkpt>
      <trkpt lat="42.71188" lon="1.6602">
        <ele>1237.4</ele>
        <time>2020-02-08T10:12:14Z</time>
      </trkpt>
      <trkpt lat="42.71188" lon="1.66019">
        <ele>1237.5</ele>
        <time>2020-02-08T10:12:15Z</time>
      </trkpt>
      <trkpt lat="42.71188" lon="1.66019">
        <ele>1237.6</ele>
        <time>2020-02-08T10:12:16Z</time>
      </trkpt>
      <trkpt lat="42.71189" lon="1.66019">
        <ele>1237.7</ele>
        <time>2020-02-08T10:12:17Z</time>
      </trkpt>
      <trkpt lat="42.71189" lon="1.66018">
        <ele>1237.8</ele>
        <time>2020-02-08T10:12:18Z</time>
      </trkpt>
      <trkpt lat="42.71189" lon="1.66018">
        <ele>1237.9</ele>
        <time>2020-02-08T10:12:19Z</time>
      </trkpt>
      <trkpt lat="42.7119" lon="1.66018">
        <ele>1238</ele>
        <time>2020-02-08T10:12:20Z</time>
      </trkpt>
      <trkpt lat="42.7119" lon="1.66017">
        <ele>1238.1</ele>
        <time>2020-02-08T10:12:21Z</time>
      </trkpt>
      <trkpt lat="42.71191" lon="1.66017">
        <ele>1238.2</ele>
        <time>2020-02-08T10:12:22Z</time>
      </trkpt>
      <trkpt lat="42.71191" lon="1.66017">
        <ele>1238.3</ele>
        <time>2020-02-08T10:12:23Z</time>
      </trkpt>
      <trkpt lat="42.71191" lon="1.66016">
        <ele>1238.4</ele>
        <time>2020-02-08T10:12:24Z</time>
      </trkpt>
      <trkpt lat="42.71192" lon="1.66016">
        <ele>1238.4</ele>
        <time>2020-02-08T10:12:25Z</time>
      </trkpt>
      <trkpt lat="42.71192" lon="1.66016">
        <ele>1238.5</ele>
        <time>2020-02-08T10:12:26Z</time>
      </trkpt>
      <trkpt lat="42.71193" lon="1.66016">
        <ele>1238.6</ele>
        <time>2020-02-08T10:12:27Z</time>
      </trkpt>
      <trkpt lat="42.71193" lon="1.66015">
        <ele>1238.6</ele>
        <time>2020-02-08T10:12:28Z</time>
      </trkpt>
      <trkpt lat="42.71194" lon="1.66015">
        <ele>1238.7</ele>
        <time>2020-02-08T10:12:29Z</time>
      </trkpt>
      <trkpt lat="42.71194" lon="1.66015">
        <ele>1238.8</ele>
        <time>2020-02-08T10:12:30Z</time>
      </trkpt>
      <trkpt lat="42.71194" lon="1.66014">
        <ele>1238.8</ele>
        <time>2020-02-08T10:12:31Z</time>
      </trkpt>
      <trkpt lat="42.71195" lon="1.66014">
        <ele>1238.9</ele>
        <time>2020-02-08T10:12:32Z</time>
      </trkpt>
      <trkpt lat="42.71195" lon="1.66014">
        <ele>1239</ele>
        <time>2020-02-08T10:12:33Z</time>
      </trkpt>
      <trkpt lat="42.71196" lon="1.66014">
        <ele>1239</ele>
        <time>2020-02-08T10:12:34Z</time>
      </trkpt>
      <trkpt lat="42.71196" lon="1.66013">
        <ele>1239.1</ele>
        <time>2020-02-08T10:12:35Z</time>
      </trkpt>
      <trkpt lat="42.71196" lon="1.66013">
        <ele>1239.2</ele>
        <time>2020-02-08T10:12:36Z</time>
      </trkpt>
      <trkpt lat="42.71197" lon="1.66013">
        <ele>1239.2</ele>
        <time>2020-02-08T10:12:37Z</time>
      </trkpt>
      <trkpt lat="42.71197" lon="1.66012">
        <ele>1239.3</ele>
        <time>2020-02-08T10:12:38Z</time>
      </trkpt>
      <trkpt lat="42.71198" lon="1.66012">
        <ele>1239.4</ele>
        <time>2020-02-08T10:12:39Z</time>
      </trkpt>
      <trkpt lat="42.71198" lon="1.66012">
        <ele>1239.4</ele>
        <time>2020-02-08T10:12:40Z</time>
      </trkpt>
      <trkpt lat="42.71197" lon="1.66012">
        <ele>1239.4</ele>
        <time>2020-02-08T10:12:41Z</time>
      </trkpt>
      <trkpt lat="42.71197" lon="1.66012">
        <ele>1239.4</ele>
        <time>2020-02-08T10:12:42Z</time>
      </trkpt>
      <trkpt lat="42.71197" lon="1.66011">
        <ele>1239.4</ele>
        <time>2020-02-08T10:12:43Z</time>
      </trkpt>
      <trkpt lat="42.71197" lon="1.66011">
        <ele>1239.4</ele>
        <time>2020-02-08T10:12:44Z</time>
      </trkpt>
      <trkpt lat="42.71197" lon="1.66011">
        <ele>1239.5</ele>
        <time>2020-02-08T10:12:45Z</time>
      </trkpt>
      <trkpt lat="42.71197" lon="1.66011">
        <ele>1239.5</ele>
        <time>2020-02-08T10:12:46Z</time>
      </trkpt>
      <trkpt lat="42.71197" lon="1.66011">
        <ele>1239.5</ele>
        <time>2020-02-08T10:12:47Z</time>
      </trkpt>
      <trkpt lat="42.71197" lon="1.66011">
        <ele>1239.5</ele>
        <time>2020-02-08T10:12:48Z</time>
      </trkpt>
      <trkpt lat="42.71197" lon="1.66011">
        <ele>1239.5</ele>
        <time>2020-02-08T10:12:49Z</time>
      </trkpt>
      <trkpt lat="42.71197" lon="1.66011">
        <ele>1239.5</ele>
        <time>2020-02-08T10:12:50Z</time>
      </trkpt>
      <trkpt lat="42.71197" lon="1.6601">
        <ele>1239.6</ele>
        <time>2020-02-08T10:12:51Z</time>
      </trkpt>
      <trkpt lat="42.71197" lon="1.6601">
        <ele>1239.6</ele>
        <time>2020-02-08T10:12:52Z</time>
      </trkpt>
      <trkpt lat="42.71197" lon="1.6601">
        <ele>1239.6</ele>
        <time>2020-02-08T10:12:53Z</time>
      </trkpt>
      <trkpt lat="42.71197" lon="1.6601">
        <ele>1239.6</ele>
        <time>2020-02-08T10:12:54Z</time>
      </trkpt>
      <trkpt lat="42.71197" lon="1.6601">
        <ele>1239.6</ele>
        <time>2020-02-08T10:12:55Z</time>
      </trkpt>
      <trkpt lat="42.71197" lon="1.6601">
        <ele>1239.7</ele>
        <time>2020-02-08T10:12:56Z</time>
      </trkpt>
      <trkpt lat="42.71197" lon="1.6601">
        <ele>1239.7</ele>
        <time>2020-02-08T10:12:57Z</time>
      </trkpt>
      <trkpt lat="42.71197" lon="1.66009">
        <ele>1239.7</ele>
        <time>2020-02-08T10:12:58Z</time>
      </trkpt>
      <trkpt lat="42.71197" lon="1.66009">
        <ele>1239.7</ele>
        <time>2020-02-08T10:12:59Z</time>
      </trkpt>
      <trkpt lat="42.71197" lon="1.66009">
        <ele>1239.8</ele>
        <time>2020-02-08T10:13:00Z</time>
      </trkpt>
      <trkpt lat="42.71197" lon="1.66008">
        <ele>1239.8</ele>
        <time>2020-02-08T10:13:01Z</time>
      </trkpt>
      <trkpt lat="42.71197" lon="1.66007">
        <ele>1239.9</ele>
        <time>2020-02-08T10:13:02Z</time>
      </trkpt>
      <trkpt lat="42.71196" lon="1.66007">
        <ele>1240</ele>
        <time>2020-02-08T10:13:03Z</time>
      </trkpt>
      <trkpt lat="42.71196" lon="1.66006">
        <ele>1240.1</ele>
        <time>2020-02-08T10:13:04Z</time>
      </trkpt>
      <trkpt lat="42.71196" lon="1.66005">
        <ele>1240.1</ele>
        <time>2020-02-08T10:13:05Z</time>
      </trkpt>
      <trkpt lat="42.71196" lon="1.66005">
        <ele>1240.2</ele>
        <time>2020-02-08T10:13:06Z</time>
      </trkpt>
      <trkpt lat="42.71196" lon="1.66004">
        <ele>1240.3</ele>
        <time>2020-02-08T10:13:07Z</time>
      </trkpt>
      <trkpt lat="42.71196" lon="1.66003">
        <ele>1240.3</ele>
        <time>2020-02-08T10:13:08Z</time>
      </trkpt>
      <trkpt lat="42.71196" lon="1.66003">
        <ele>1240.4</ele>
        <time>2020-02-08T10:13:09Z</time>
      </trkpt>
      <trkpt lat="42.71196" lon="1.66002">
        <ele>1240.5</ele>
        <time>2020-02-08T10:13:10Z</time>
      </trkpt>
      <trkpt lat="42.71196" lon="1.66001">
        <ele>1240.6</ele>
        <time>2020-02-08T10:13:11Z</time>
      </trkpt>
      <trkpt lat="42.71196" lon="1.66001">
        <ele>1240.6</ele>
        <time>2020-02-08T10:13:12Z</time>
      </trkpt>
      <trkpt lat="42.71196" lon="1.66">
        <ele>1240.7</ele>
        <time>2020-02-08T10:13:13Z</time>
      </trkpt>
      <trkpt lat="42.71196" lon="1.65999">
        <ele>1240.8</ele>
        <time>2020-02-08T10:13:14Z</time>
      </trkpt>
      <trkpt lat="42.71196" lon="1.65999">
        <ele>1240.9</ele>
        <time>2020-02-08T10:13:15Z</time>
      </trkpt>
      <trkpt lat="42.71195" lon="1.65998">
        <ele>1241</ele>
        <time>2020-02-08T10:13:16Z</time>
      </trkpt>
      <trkpt lat="42.71195" lon="1.65997">
        <ele>1241.2</ele>
        <time>2020-02-08T10:13:17Z</time>
      </trkpt>
      <trkpt lat="42.71195" lon="1.65997">
        <ele>1241.3</ele>
        <time>2020-02-08T10:13:18Z</time>
      </trkpt>
      <trkpt lat="42.71195" lon="1.65996">
        <ele>1241.4</ele>
        <time>2020-02-08T10:13:19Z</time>
      </trkpt>
      <trkpt lat="42.71196" lon="1.65996">
        <ele>1241.7</ele>
        <time>2020-02-08T10:13:20Z</time>
      </trkpt>
      <trkpt lat="42.71197" lon="1.65995">
        <ele>1241.9</ele>
        <time>2020-02-08T10:13:21Z</time>
      </trkpt>
      <trkpt lat="42.71198" lon="1.65995">
        <ele>1242.2</ele>
        <time>2020-02-08T10:13:22Z</time>
      </trkpt>
      <trkpt lat="42.712" lon="1.65995">
        <ele>1242.4</ele>
        <time>2020-02-08T10:13:23Z</time>
      </trkpt>
      <trkpt lat="42.71201" lon="1.65994">
        <ele>1242.7</ele>
        <time>2020-02-08T10:13:24Z</time>
      </trkpt>
      <trkpt lat="42.71202" lon="1.65994">
        <ele>1243</ele>
        <time>2020-02-08T10:13:25Z</time>
      </trkpt>
      <trkpt lat="42.71203" lon="1.65993">
        <ele>1243.2</ele>
        <time>2020-02-08T10:13:26Z</time>
      </trkpt>
      <trkpt lat="42.71204" lon="1.65993">
        <ele>1243.5</ele>
        <time>2020-02-08T10:13:27Z</time>
      </trkpt>
      <trkpt lat="42.71205" lon="1.65993">
        <ele>1243.7</ele>
        <time>2020-02-08T10:13:28Z</time>
      </trkpt>
      <trkpt lat="42.71206" lon="1.65992">
        <ele>1244</ele>
        <time>2020-02-08T10:13:29Z</time>
      </trkpt>
      <trkpt lat="42.71206" lon="1.65992">
        <ele>1244.1</ele>
        <time>2020-02-08T10:13:30Z</time>
      </trkpt>
      <trkpt lat="42.71207" lon="1.65992">
        <ele>1244.2</ele>
        <time>2020-02-08T10:13:31Z</time>
      </trkpt>
      <trkpt lat="42.71207" lon="1.65993">
        <ele>1244.3</ele>
        <time>2020-02-08T10:13:32Z</time>
      </trkpt>
      <trkpt lat="42.71208" lon="1.65993">
        <ele>1244.4</ele>
        <time>2020-02-08T10:13:33Z</time>
      </trkpt>
      <trkpt lat="42.71208" lon="1.65993">
        <ele>1244.6</ele>
        <time>2020-02-08T10:13:34Z</time>
      </trkpt>
      <trkpt lat="42.71209" lon="1.65993">
        <ele>1244.7</ele>
        <time>2020-02-08T10:13:35Z</time>
      </trkpt>
      <trkpt lat="42.71209" lon="1.65993">
        <ele>1244.8</ele>
        <time>2020-02-08T10:13:36Z</time>
      </trkpt>
      <trkpt lat="42.7121" lon="1.65993">
        <ele>1244.9</ele>
        <time>2020-02-08T10:13:37Z</time>
      </trkpt>
      <trkpt lat="42.7121" lon="1.65993">
        <ele>1245</ele>
        <time>2020-02-08T10:13:38Z</time>
      </trkpt>
      <trkpt lat="42.71211" lon="1.65993">
        <ele>1245.1</ele>
        <time>2020-02-08T10:13:39Z</time>
      </trkpt>
      <trkpt lat="42.71211" lon="1.65993">
        <ele>1245.2</ele>
        <time>2020-02-08T10:13:40Z</time>
      </trkpt>
      <trkpt lat="42.71211" lon="1.65993">
        <ele>1245.3</ele>
        <time>2020-02-08T10:13:41Z</time>
      </trkpt>
      <trkpt lat="42.71212" lon="1.65993">
        <ele>1245.4</ele>
        <time>2020-02-08T10:13:42Z</time>
      </trkpt>
      <trkpt lat="42.71212" lon="1.65993">
        <ele>1245.5</ele>
        <time>2020-02-08T10:13:43Z</time>
      </trkpt>
      <trkpt lat="42.71213" lon="1.65993">
        <ele>1245.6</ele>
        <time>2020-02-08T10:13:44Z</time>
      </trkpt>
      <trkpt lat="42.71213" lon="1.65994">
        <ele>1245.8</ele>
        <time>2020-02-08T10:13:45Z</time>
      </trkpt>
      <trkpt lat="42.71214" lon="1.65994">
        <ele>1245.9</ele>
        <time>2020-02-08T10:13:46Z</time>
      </trkpt>
      <trkpt lat="42.71214" lon="1.65994">
        <ele>1246</ele>
        <time>2020-02-08T10:13:47Z</time>
      </trkpt>
      <trkpt lat="42.71215" lon="1.65994">
        <ele>1246.1</ele>
        <time>2020-02-08T10:13:48Z</time>
      </trkpt>
      <trkpt lat="42.71215" lon="1.65994">
        <ele>1246.2</ele>
        <time>2020-02-08T10:13:49Z</time>
      </trkpt>
      <trkpt lat="42.71215" lon="1.65994">
        <ele>1246.2</ele>
        <time>2020-02-08T10:13:50Z</time>
      </trkpt>
      <trkpt lat="42.71215" lon="1.65994">
        <ele>1246.2</ele>
        <time>2020-02-08T10:13:51Z</time>
      </trkpt>
      <trkpt lat="42.71215" lon="1.65994">
        <ele>1246.2</ele>
        <time>2020-02-08T10:13:52Z</time>
      </trkpt>
      <trkpt lat="42.71215" lon="1.65994">
        <ele>1246.2</ele>
        <time>2020-02-08T10:13:53Z</time>
      </trkpt>
      <trkpt lat="42.71215" lon="1.65994">
        <ele>1246.2</ele>
        <time>2020-02-08T10:13:54Z</time>
      </trkpt>
      <trkpt lat="42.71215" lon="1.65994">
        <ele>1246.2</ele>
        <time>2020-02-08T10:13:55Z</time>
      </trkpt>
      <trkpt lat="42.71215" lon="1.65994">
        <ele>1246.2</ele>
        <time>2020-02-08T10:13:56Z</time>
      </trkpt>
      <trkpt lat="42.71215" lon="1.65994">
        <ele>1246.2</ele>
        <time>2020-02-08T10:13:57Z</time>
      </trkpt>
      <trkpt lat="42.71215" lon="1.65994">
        <ele>1246.2</ele>
        <time>2020-02-08T10:13:58Z</time>
      </trkpt>
      <trkpt lat="42.71215" lon="1.65994">
        <ele>1246.2</ele>
        <time>2020-02-08T10:13:59Z</time>
      </trkpt>
      <trkpt lat="42.71212" lon="1.65994">
        <ele>1247</ele>
        <time>2020-02-08T10:14:00Z</time>
      </trkpt>
      <trkpt lat="42.71212" lon="1.65994">
        <ele>1247</ele>
        <time>2020-02-08T10:14:01Z</time>
      </trkpt>
      <trkpt lat="42.71212" lon="1.65994">
        <ele>1247</ele>
        <time>2020-02-08T10:14:02Z</time>
      </trkpt>
      <trkpt lat="42.71212" lon="1.65994">
        <ele>1247</ele>
        <time>2020-02-08T10:14:03Z</time>
      </trkpt>
      <trkpt lat="42.71212" lon="1.65994">
        <ele>1247</ele>
        <time>2020-02-08T10:14:04Z</time>
      </trkpt>
      <trkpt lat="42.71212" lon="1.65994">
        <ele>1247</ele>
        <time>2020-02-08T10:14:05Z</time>
      </trkpt>
      <trkpt lat="42.71212" lon="1.65994">
        <ele>1247</ele>
        <time>2020-02-08T10:14:06Z</time>
      </trkpt>
      <trkpt lat="42.71212" lon="1.65994">
        <ele>1247</ele>
        <time>2020-02-08T10:14:07Z</time>
      </trkpt>
      <trkpt lat="42.71212" lon="1.65994">
        <ele>1247</ele>
        <time>2020-02-08T10:14:08Z</time>
      </trkpt>
      <trkpt lat="42.71212" lon="1.65994">
        <ele>1247</ele>
        <time>2020-02-08T10:14:09Z</time>
      </trkpt>
      <trkpt lat="42.71211" lon="1.65994">
        <ele>1247.1</ele>
        <time>2020-02-08T10:14:10Z</time>
      </trkpt>
      <trkpt lat="42.71211" lon="1.65994">
        <ele>1247.2</ele>
        <time>2020-02-08T10:14:11Z</time>
      </trkpt>
      <trkpt lat="42.7121" lon="1.65994">
        <ele>1247.3</ele>
        <time>2020-02-08T10:14:12Z</time>
      </trkpt>
      <trkpt lat="42.7121" lon="1.65994">
        <ele>1247.5</ele>
        <time>2020-02-08T10:14:13Z</time>
      </trkpt>
      <trkpt lat="42.71209" lon="1.65994">
        <ele>1247.6</ele>
        <time>2020-02-08T10:14:14Z</time>
      </trkpt>
      <trkpt lat="42.71209" lon="1.65993">
        <ele>1247.7</ele>
        <time>2020-02-08T10:14:15Z</time>
      </trkpt>
      <trkpt lat="42.71208" lon="1.65993">
        <ele>1247.8</ele>
        <time>2020-02-08T10:14:16Z</time>
      </trkpt>
      <trkpt lat="42.71208" lon="1.65993">
        <ele>1247.9</ele>
        <time>2020-02-08T10:14:17Z</time>
      </trkpt>
      <trkpt lat="42.71207" lon="1.65993">
        <ele>1248.1</ele>
        <time>2020-02-08T10:14:18Z</time>
      </trkpt>
      <trkpt lat="42.71207" lon="1.65993">
        <ele>1248.1</ele>
        <time>2020-02-08T10:14:19Z</time>
      </trkpt>
      <trkpt lat="42.71206" lon="1.65993">
        <ele>1248.3</ele>
        <time>2020-02-08T10:14:20Z</time>
      </trkpt>
      <trkpt lat="42.71206" lon="1.65993">
        <ele>1248.4</ele>
        <time>2020-02-08T10:14:21Z</time>
      </trkpt>
      <trkpt lat="42.71205" lon="1.65993">
        <ele>1248.5</ele>
        <time>2020-02-08T10:14:22Z</time>
      </trkpt>
      <trkpt lat="42.71205" lon="1.65992">
        <ele>1248.6</ele>
        <time>2020-02-08T10:14:23Z</time>
      </trkpt>
      <trkpt lat="42.71204" lon="1.65992">
        <ele>1248.7</ele>
        <time>2020-02-08T10:14:24Z</time>
      </trkpt>
      <trkpt lat="42.71204" lon="1.65992">
        <ele>1248.8</ele>
        <time>2020-02-08T10:14:25Z</time>
      </trkpt>
      <trkpt lat="42.71203" lon="1.65992">
        <ele>1248.9</ele>
        <time>2020-02-08T10:14:26Z</time>
      </trkpt>
      <trkpt lat="42.71203" lon="1.65992">
        <ele>1249</ele>
        <time>2020-02-08T10:14:27Z</time>
      </trkpt>
      <trkpt lat="42.71202" lon="1.65992">
        <ele>1249.1</ele>
        <time>2020-02-08T10:14:28Z</time>
      </trkpt>
      <trkpt lat="42.71202" lon="1.65992">
        <ele>1249.2</ele>
        <time>2020-02-08T10:14:29Z</time>
      </trkpt>
      <trkpt lat="42.71201" lon="1.65992">
        <ele>1249.3</ele>
        <time>2020-02-08T10:14:30Z</time>
      </trkpt>
      <trkpt lat="42.712" lon="1.65992">
        <ele>1249.5</ele>
        <time>2020-02-08T10:14:31Z</time>
      </trkpt>
      <trkpt lat="42.712" lon="1.65992">
        <ele>1249.6</ele>
        <time>2020-02-08T10:14:32Z</time>
      </trkpt>
      <trkpt lat="42.71199" lon="1.65993">
        <ele>1249.7</ele>
        <time>2020-02-08T10:14:33Z</time>
      </trkpt>
      <trkpt lat="42.71198" lon="1.65993">
        <ele>1249.8</ele>
        <time>2020-02-08T10:14:34Z</time>
      </trkpt>
      <trkpt lat="42.71198" lon="1.65993">
        <ele>1249.9</ele>
        <time>2020-02-08T10:14:35Z</time>
      </trkpt>
      <trkpt lat="42.71197" lon="1.65993">
        <ele>1250.1</ele>
        <time>2020-02-08T10:14:36Z</time>
      </trkpt>
      <trkpt lat="42.71196" lon="1.65993">
        <ele>1250.2</ele>
        <time>2020-02-08T10:14:37Z</time>
      </trkpt>
      <trkpt lat="42.71196" lon="1.65994">
        <ele>1250.3</ele>
        <time>2020-02-08T10:14:38Z</time>
      </trkpt>
      <trkpt lat="42.71195" lon="1.65994">
        <ele>1250.4</ele>
        <time>2020-02-08T10:14:39Z</time>
      </trkpt>
      <trkpt lat="42.71192" lon="1.65994">
        <ele>1251</ele>
        <time>2020-02-08T10:14:40Z</time>
      </trkpt>
      <trkpt lat="42.71191" lon="1.65995">
        <ele>1251.1</ele>
        <time>2020-02-08T10:14:41Z</time>
      </trkpt>
      <trkpt lat="42.71191" lon="1.65995">
        <ele>1251.2</ele>
        <time>2020-02-08T10:14:42Z</time>
      </trkpt>
      <trkpt lat="42.7119" lon="1.65995">
        <ele>1251.2</ele>
        <time>2020-02-08T10:14:43Z</time>
      </trkpt>
      <trkpt lat="42.7119" lon="1.65995">
        <ele>1251.3</ele>
        <time>2020-02-08T10:14:44Z</time>
      </trkpt>
      <trkpt lat="42.7119" lon="1.65995">
        <ele>1251.4</ele>
        <time>2020-02-08T10:14:45Z</time>
      </trkpt>
      <trkpt lat="42.71189" lon="1.65995">
        <ele>1251.5</ele>
        <time>2020-02-08T10:14:46Z</time>
      </trkpt>
      <trkpt lat="42.71189" lon="1.65995">
        <ele>1251.5</ele>
        <time>2020-02-08T10:14:47Z</time>
      </trkpt>
      <trkpt lat="42.71189" lon="1.65995">
        <ele>1251.6</ele>
        <time>2020-02-08T10:14:48Z</time>
      </trkpt>
      <trkpt lat="42.71188" lon="1.65996">
        <ele>1251.7</ele>
        <time>2020-02-08T10:14:49Z</time>
      </trkpt>
      <trkpt lat="42.71187" lon="1.65995">
        <ele>1251.8</ele>
        <time>2020-02-08T10:14:50Z</time>
      </trkpt>
      <trkpt lat="42.71186" lon="1.65995">
        <ele>1252</ele>
        <time>2020-02-08T10:14:51Z</time>
      </trkpt>
      <trkpt lat="42.71185" lon="1.65994">
        <ele>1252.3</ele>
        <time>2020-02-08T10:14:52Z</time>
      </trkpt>
      <trkpt lat="42.71184" lon="1.65994">
        <ele>1252.5</ele>
        <time>2020-02-08T10:14:53Z</time>
      </trkpt>
      <trkpt lat="42.71183" lon="1.65993">
        <ele>1252.8</ele>
        <time>2020-02-08T10:14:54Z</time>
      </trkpt>
      <trkpt lat="42.71183" lon="1.65993">
        <ele>1253</ele>
        <time>2020-02-08T10:14:55Z</time>
      </trkpt>
      <trkpt lat="42.71182" lon="1.65992">
        <ele>1253.3</ele>
        <time>2020-02-08T10:14:56Z</time>
      </trkpt>
      <trkpt lat="42.71181" lon="1.65992">
        <ele>1253.5</ele>
        <time>2020-02-08T10:14:57Z</time>
      </trkpt>
      <trkpt lat="42.7118" lon="1.65991">
        <ele>1253.8</ele>
        <time>2020-02-08T10:14:58Z</time>
      </trkpt>
      <trkpt lat="42.71179" lon="1.65991">
        <ele>1254</ele>
        <time>2020-02-08T10:14:59Z</time>
      </trkpt>
      <trkpt lat="42.71178" lon="1.65991">
        <ele>1254.2</ele>
        <time>2020-02-08T10:15:00Z</time>
      </trkpt>
      <trkpt lat="42.71178" lon="1.65991">
        <ele>1254.3</ele>
        <time>2020-02-08T10:15:01Z</time>
      </trkpt>
      <trkpt lat="42.71177" lon="1.65992">
        <ele>1254.4</ele>
        <time>2020-02-08T10:15:02Z</time>
      </trkpt>
      <trkpt lat="42.71177" lon="1.65992">
        <ele>1254.5</ele>
        <time>2020-02-08T10:15:03Z</time>
      </trkpt>
      <trkpt lat="42.71176" lon="1.65992">
        <ele>1254.7</ele>
        <time>2020-02-08T10:15:04Z</time>
      </trkpt>
      <trkpt lat="42.71176" lon="1.65993">
        <ele>1254.8</ele>
        <time>2020-02-08T10:15:05Z</time>
      </trkpt>
      <trkpt lat="42.71176" lon="1.65993">
        <ele>1254.9</ele>
        <time>2020-02-08T10:15:06Z</time>
      </trkpt>
      <trkpt lat="42.71175" lon="1.65993">
        <ele>1255.1</ele>
        <time>2020-02-08T10:15:07Z</time>
      </trkpt>
      <trkpt lat="42.71175" lon="1.65993">
        <ele>1255.2</ele>
        <time>2020-02-08T10:15:08Z</time>
      </trkpt>
      <trkpt lat="42.71174" lon="1.65994">
        <ele>1255.3</ele>
        <time>2020-02-08T10:15:09Z</time>
      </trkpt>
      <trkpt lat="42.71174" lon="1.65994">
        <ele>1255.4</ele>
        <time>2020-02-08T10:15:10Z</time>
      </trkpt>
      <trkpt lat="42.71173" lon="1.65994">
        <ele>1255.6</ele>
        <time>2020-02-08T10:15:11Z</time>
      </trkpt>
      <trkpt lat="42.71173" lon="1.65995">
        <ele>1255.7</ele>
        <time>2020-02-08T10:15:12Z</time>
      </trkpt>
      <trkpt lat="42.71172" lon="1.65995">
        <ele>1255.8</ele>
        <time>2020-02-08T10:15:13Z</time>
      </trkpt>
      <trkpt lat="42.71172" lon="1.65995">
        <ele>1255.9</ele>
        <time>2020-02-08T10:15:14Z</time>
      </trkpt>
      <trkpt lat="42.71171" lon="1.65996">
        <ele>1256.1</ele>
        <time>2020-02-08T10:15:15Z</time>
      </trkpt>
      <trkpt lat="42.71171" lon="1.65996">
        <ele>1256.2</ele>
        <time>2020-02-08T10:15:16Z</time>
      </trkpt>
      <trkpt lat="42.71171" lon="1.65996">
        <ele>1256.3</ele>
        <time>2020-02-08T10:15:17Z</time>
      </trkpt>
      <trkpt lat="42.7117" lon="1.65996">
        <ele>1256.4</ele>
        <time>2020-02-08T10:15:18Z</time>
      </trkpt>
      <trkpt lat="42.7117" lon="1.65997">
        <ele>1256.6</ele>
        <time>2020-02-08T10:15:19Z</time>
      </trkpt>
      <trkpt lat="42.71169" lon="1.65997">
        <ele>1256.9</ele>
        <time>2020-02-08T10:15:20Z</time>
      </trkpt>
      <trkpt lat="42.71168" lon="1.65997">
        <ele>1257.1</ele>
        <time>2020-02-08T10:15:21Z</time>
      </trkpt>
      <trkpt lat="42.71167" lon="1.65997">
        <ele>1257.4</ele>
        <time>2020-02-08T10:15:22Z</time>
      </trkpt>
      <trkpt lat="42.71166" lon="1.65997">
        <ele>1257.7</ele>
        <time>2020-02-08T10:15:23Z</time>
      </trkpt>
      <trkpt lat="42.71165" lon="1.65997">
        <ele>1257.9</ele>
        <time>2020-02-08T10:15:24Z</time>
      </trkpt>
      <trkpt lat="42.71163" lon="1.65997">
        <ele>1258.2</ele>
        <time>2020-02-08T10:15:25Z</time>
      </trkpt>
      <trkpt lat="42.71162" lon="1.65997">
        <ele>1258.5</ele>
        <time>2020-02-08T10:15:26Z</time>
      </trkpt>
      <trkpt lat="42.71161" lon="1.65997">
        <ele>1258.8</ele>
        <time>2020-02-08T10:15:27Z</time>
      </trkpt>
      <trkpt lat="42.7116" lon="1.65996">
        <ele>1259</ele>
        <time>2020-02-08T10:15:28Z</time>
      </trkpt>
      <trkpt lat="42.71159" lon="1.65996">
        <ele>1259.3</ele>
        <time>2020-02-08T10:15:29Z</time>
      </trkpt>
      <trkpt lat="42.71159" lon="1.65995">
        <ele>1259.6</ele>
        <time>2020-02-08T10:15:30Z</time>
      </trkpt>
      <trkpt lat="42.71158" lon="1.65994">
        <ele>1259.8</ele>
        <time>2020-02-08T10:15:31Z</time>
      </trkpt>
      <trkpt lat="42.71158" lon="1.65993">
        <ele>1260</ele>
        <time>2020-02-08T10:15:32Z</time>
      </trkpt>
      <trkpt lat="42.71157" lon="1.65992">
        <ele>1260.3</ele>
        <time>2020-02-08T10:15:33Z</time>
      </trkpt>
      <trkpt lat="42.71157" lon="1.65991">
        <ele>1260.5</ele>
        <time>2020-02-08T10:15:34Z</time>
      </trkpt>
      <trkpt lat="42.71156" lon="1.6599">
        <ele>1260.8</ele>
        <time>2020-02-08T10:15:35Z</time>
      </trkpt>
      <trkpt lat="42.71155" lon="1.65989">
        <ele>1261</ele>
        <time>2020-02-08T10:15:36Z</time>
      </trkpt>
      <trkpt lat="42.71155" lon="1.65988">
        <ele>1261.2</ele>
        <time>2020-02-08T10:15:37Z</time>
      </trkpt>
      <trkpt lat="42.71154" lon="1.65987">
        <ele>1261.4</ele>
        <time>2020-02-08T10:15:38Z</time>
      </trkpt>
      <trkpt lat="42.71154" lon="1.65986">
        <ele>1261.6</ele>
        <time>2020-02-08T10:15:39Z</time>
      </trkpt>
      <trkpt lat="42.71153" lon="1.65987">
        <ele>1261.8</ele>
        <time>2020-02-08T10:15:40Z</time>
      </trkpt>
      <trkpt lat="42.71152" lon="1.65988">
        <ele>1261.9</ele>
        <time>2020-02-08T10:15:41Z</time>
      </trkpt>
      <trkpt lat="42.71151" lon="1.65989">
        <ele>1262.1</ele>
        <time>2020-02-08T10:15:42Z</time>
      </trkpt>
      <trkpt lat="42.71151" lon="1.65989">
        <ele>1262.3</ele>
        <time>2020-02-08T10:15:43Z</time>
      </trkpt>
      <trkpt lat="42.7115" lon="1.6599">
        <ele>1262.5</ele>
        <time>2020-02-08T10:15:44Z</time>
      </trkpt>
      <trkpt lat="42.71149" lon="1.65991">
        <ele>1262.7</ele>
        <time>2020-02-08T10:15:45Z</time>
      </trkpt>
      <trkpt lat="42.71148" lon="1.65991">
        <ele>1262.8</ele>
        <time>2020-02-08T10:15:46Z</time>
      </trkpt>
      <trkpt lat="42.71147" lon="1.65992">
        <ele>1263</ele>
        <time>2020-02-08T10:15:47Z</time>
      </trkpt>
      <trkpt lat="42.71147" lon="1.65993">
        <ele>1263.2</ele>
        <time>2020-02-08T10:15:48Z</time>
      </trkpt>
      <trkpt lat="42.71146" lon="1.65994">
        <ele>1263.4</ele>
        <time>2020-02-08T10:15:49Z</time>
      </trkpt>
      <trkpt lat="42.71145" lon="1.65993">
        <ele>1263.6</ele>
        <time>2020-02-08T10:15:50Z</time>
      </trkpt>
      <trkpt lat="42.71144" lon="1.65992">
        <ele>1263.8</ele>
        <time>2020-02-08T10:15:51Z</time>
      </trkpt>
      <trkpt lat="42.71143" lon="1.65992">
        <ele>1264</ele>
        <time>2020-02-08T10:15:52Z</time>
      </trkpt>
      <trkpt lat="42.71142" lon="1.65991">
        <ele>1264.2</ele>
        <time>2020-02-08T10:15:53Z</time>
      </trkpt>
      <trkpt lat="42.71141" lon="1.65991">
        <ele>1264.4</ele>
        <time>2020-02-08T10:15:54Z</time>
      </trkpt>
      <trkpt lat="42.7114" lon="1.6599">
        <ele>1264.6</ele>
        <time>2020-02-08T10:15:55Z</time>
      </trkpt>
      <trkpt lat="42.71139" lon="1.6599">
        <ele>1264.8</ele>
        <time>2020-02-08T10:15:56Z</time>
      </trkpt>
      <trkpt lat="42.71138" lon="1.65989">
        <ele>1265.1</ele>
        <time>2020-02-08T10:15:57Z</time>
      </trkpt>
      <trkpt lat="42.71137" lon="1.65988">
        <ele>1265.4</ele>
        <time>2020-02-08T10:15:58Z</time>
      </trkpt>
      <trkpt lat="42.71136" lon="1.65988">
        <ele>1265.6</ele>
        <time>2020-02-08T10:15:59Z</time>
      </trkpt>
      <trkpt lat="42.71136" lon="1.65987">
        <ele>1265.8</ele>
        <time>2020-02-08T10:16:00Z</time>
      </trkpt>
      <trkpt lat="42.71135" lon="1.65986">
        <ele>1266.1</ele>
        <time>2020-02-08T10:16:01Z</time>
      </trkpt>
      <trkpt lat="42.71135" lon="1.65985">
        <ele>1266.3</ele>
        <time>2020-02-08T10:16:02Z</time>
      </trkpt>
      <trkpt lat="42.71134" lon="1.65984">
        <ele>1266.5</ele>
        <time>2020-02-08T10:16:03Z</time>
      </trkpt>
      <trkpt lat="42.71133" lon="1.65983">
        <ele>1266.8</ele>
        <time>2020-02-08T10:16:04Z</time>
      </trkpt>
      <trkpt lat="42.71133" lon="1.65982">
        <ele>1267</ele>
        <time>2020-02-08T10:16:05Z</time>
      </trkpt>
      <trkpt lat="42.71132" lon="1.65981">
        <ele>1267.2</ele>
        <time>2020-02-08T10:16:06Z</time>
      </trkpt>
      <trkpt lat="42.71131" lon="1.6598">
        <ele>1267.5</ele>
        <time>2020-02-08T10:16:07Z</time>
      </trkpt>
      <trkpt lat="42.71131" lon="1.65979">
        <ele>1267.7</ele>
        <time>2020-02-08T10:16:08Z</time>
      </trkpt>
      <trkpt lat="42.7113" lon="1.65978">
        <ele>1267.9</ele>
        <time>2020-02-08T10:16:09Z</time>
      </trkpt>
      <trkpt lat="42.7113" lon="1.65978">
        <ele>1268</ele>
        <time>2020-02-08T10:16:10Z</time>
      </trkpt>
      <trkpt lat="42.71131" lon="1.65978">
        <ele>1268.2</ele>
        <time>2020-02-08T10:16:11Z</time>
      </trkpt>
      <trkpt lat="42.71131" lon="1.65977">
        <ele>1268.3</ele>
        <time>2020-02-08T10:16:12Z</time>
      </trkpt>
      <trkpt lat="42.71131" lon="1.65977">
        <ele>1268.4</ele>
        <time>2020-02-08T10:16:13Z</time>
      </trkpt>
      <trkpt lat="42.71132" lon="1.65976">
        <ele>1268.5</ele>
        <time>2020-02-08T10:16:14Z</time>
      </trkpt>
      <trkpt lat="42.71132" lon="1.65976">
        <ele>1268.6</ele>
        <time>2020-02-08T10:16:15Z</time>
      </trkpt>
      <trkpt lat="42.71133" lon="1.65975">
        <ele>1268.7</ele>
        <time>2020-02-08T10:16:16Z</time>
      </trkpt>
      <trkpt lat="42.71133" lon="1.65975">
        <ele>1268.9</ele>
        <time>2020-02-08T10:16:17Z</time>
      </trkpt>
      <trkpt lat="42.71133" lon="1.65975">
        <ele>1269</ele>
        <time>2020-02-08T10:16:18Z</time>
      </trkpt>
      <trkpt lat="42.71134" lon="1.65974">
        <ele>1269.1</ele>
        <time>2020-02-08T10:16:19Z</time>
      </trkpt>
      <trkpt lat="42.71134" lon="1.65974">
        <ele>1269.2</ele>
        <time>2020-02-08T10:16:20Z</time>
      </trkpt>
      <trkpt lat="42.71134" lon="1.65973">
        <ele>1269.2</ele>
        <time>2020-02-08T10:16:21Z</time>
      </trkpt>
      <trkpt lat="42.71135" lon="1.65973">
        <ele>1269.3</ele>
        <time>2020-02-08T10:16:22Z</time>
      </trkpt>
      <trkpt lat="42.71135" lon="1.65972">
        <ele>1269.4</ele>
        <time>2020-02-08T10:16:23Z</time>
      </trkpt>
      <trkpt lat="42.71135" lon="1.65972">
        <ele>1269.5</ele>
        <time>2020-02-08T10:16:24Z</time>
      </trkpt>
      <trkpt lat="42.71136" lon="1.65971">
        <ele>1269.6</ele>
        <time>2020-02-08T10:16:25Z</time>
      </trkpt>
      <trkpt lat="42.71136" lon="1.65971">
        <ele>1269.7</ele>
        <time>2020-02-08T10:16:26Z</time>
      </trkpt>
      <trkpt lat="42.71136" lon="1.65971">
        <ele>1269.8</ele>
        <time>2020-02-08T10:16:27Z</time>
      </trkpt>
      <trkpt lat="42.71137" lon="1.6597">
        <ele>1269.9</ele>
        <time>2020-02-08T10:16:28Z</time>
      </trkpt>
      <trkpt lat="42.71137" lon="1.6597">
        <ele>1270</ele>
        <time>2020-02-08T10:16:29Z</time>
      </trkpt>
      <trkpt lat="42.71137" lon="1.6597">
        <ele>1270.1</ele>
        <time>2020-02-08T10:16:30Z</time>
      </trkpt>
      <trkpt lat="42.71136" lon="1.6597">
        <ele>1270.2</ele>
        <time>2020-02-08T10:16:31Z</time>
      </trkpt>
      <trkpt lat="42.71136" lon="1.6597">
        <ele>1270.2</ele>
        <time>2020-02-08T10:16:32Z</time>
      </trkpt>
      <trkpt lat="42.71135" lon="1.65971">
        <ele>1270.3</ele>
        <time>2020-02-08T10:16:33Z</time>
      </trkpt>
      <trkpt lat="42.71135" lon="1.65971">
        <ele>1270.4</ele>
        <time>2020-02-08T10:16:34Z</time>
      </trkpt>
      <trkpt lat="42.71134" lon="1.65971">
        <ele>1270.5</ele>
        <time>2020-02-08T10:16:35Z</time>
      </trkpt>
      <trkpt lat="42.71134" lon="1.65971">
        <ele>1270.6</ele>
        <time>2020-02-08T10:16:36Z</time>
      </trkpt>
      <trkpt lat="42.71134" lon="1.65971">
        <ele>1270.7</ele>
        <time>2020-02-08T10:16:37Z</time>
      </trkpt>
      <trkpt lat="42.71133" lon="1.65972">
        <ele>1270.8</ele>
        <time>2020-02-08T10:16:38Z</time>
      </trkpt>
      <trkpt lat="42.71133" lon="1.65972">
        <ele>1270.9</ele>
        <time>2020-02-08T10:16:39Z</time>
      </trkpt>
      <trkpt lat="42.71132" lon="1.65972">
        <ele>1271</ele>
        <time>2020-02-08T10:16:40Z</time>
      </trkpt>
      <trkpt lat="42.71132" lon="1.65972">
        <ele>1271.1</ele>
        <time>2020-02-08T10:16:41Z</time>
      </trkpt>
      <trkpt lat="42.71131" lon="1.65973">
        <ele>1271.2</ele>
        <time>2020-02-08T10:16:42Z</time>
      </trkpt>
      <trkpt lat="42.71131" lon="1.65973">
        <ele>1271.3</ele>
        <time>2020-02-08T10:16:43Z</time>
      </trkpt>
      <trkpt lat="42.7113" lon="1.65973">
        <ele>1271.3</ele>
        <time>2020-02-08T10:16:44Z</time>
      </trkpt>
      <trkpt lat="42.7113" lon="1.65973">
        <ele>1271.4</ele>
        <time>2020-02-08T10:16:45Z</time>
      </trkpt>
      <trkpt lat="42.7113" lon="1.65973">
        <ele>1271.5</ele>
        <time>2020-02-08T10:16:46Z</time>
      </trkpt>
      <trkpt lat="42.71129" lon="1.65974">
        <ele>1271.6</ele>
        <time>2020-02-08T10:16:47Z</time>
      </trkpt>
      <trkpt lat="42.71129" lon="1.65974">
        <ele>1271.7</ele>
        <time>2020-02-08T10:16:48Z</time>
      </trkpt>
      <trkpt lat="42.71128" lon="1.65974">
        <ele>1271.8</ele>
        <time>2020-02-08T10:16:49Z</time>
      </trkpt>
      <trkpt lat="42.7112" lon="1.65968">
        <ele>1274.4</ele>
        <time>2020-02-08T10:16:50Z</time>
      </trkpt>
      <trkpt lat="42.7112" lon="1.65968">
        <ele>1274.4</ele>
        <time>2020-02-08T10:16:51Z</time>
      </trkpt>
      <trkpt lat="42.7112" lon="1.65968">
        <ele>1274.4</ele>
        <time>2020-02-08T10:16:52Z</time>
      </trkpt>
      <trkpt lat="42.7112" lon="1.65968">
        <ele>1274.4</ele>
        <time>2020-02-08T10:16:53Z</time>
      </trkpt>
      <trkpt lat="42.7112" lon="1.65968">
        <ele>1274.4</ele>
        <time>2020-02-08T10:16:54Z</time>
      </trkpt>
      <trkpt lat="42.7112" lon="1.65968">
        <ele>1274.4</ele>
        <time>2020-02-08T10:16:55Z</time>
      </trkpt>
      <trkpt lat="42.7112" lon="1.65968">
        <ele>1274.4</ele>
        <time>2020-02-08T10:16:56Z</time>
      </trkpt>
      <trkpt lat="42.7112" lon="1.65968">
        <ele>1274.4</ele>
        <time>2020-02-08T10:16:57Z</time>
      </trkpt>
      <trkpt lat="42.7112" lon="1.65968">
        <ele>1274.4</ele>
        <time>2020-02-08T10:16:58Z</time>
      </trkpt>
      <trkpt lat="42.7112" lon="1.65968">
        <ele>1274.4</ele>
        <time>2020-02-08T10:16:59Z</time>
      </trkpt>
      <trkpt lat="42.7112" lon="1.65965">
        <ele>1275</ele>
        <time>2020-02-08T10:17:00Z</time>
      </trkpt>
      <trkpt lat="42.7112" lon="1.65963">
        <ele>1275.6</ele>
        <time>2020-02-08T10:17:01Z</time>
      </trkpt>
      <trkpt lat="42.7112" lon="1.6596">
        <ele>1276.2</ele>
        <time>2020-02-08T10:17:02Z</time>
      </trkpt>
      <trkpt lat="42.7112" lon="1.65958">
        <ele>1276.8</ele>
        <time>2020-02-08T10:17:03Z</time>
      </trkpt>
      <trkpt lat="42.7112" lon="1.65956">
        <ele>1277.3</ele>
        <time>2020-02-08T10:17:04Z</time>
      </trkpt>
      <trkpt lat="42.7112" lon="1.65953">
        <ele>1277.9</ele>
        <time>2020-02-08T10:17:05Z</time>
      </trkpt>
      <trkpt lat="42.7112" lon="1.65951">
        <ele>1278.4</ele>
        <time>2020-02-08T10:17:06Z</time>
      </trkpt>
      <trkpt lat="42.7112" lon="1.65948">
        <ele>1278.7</ele>
        <time>2020-02-08T10:17:07Z</time>
      </trkpt>
      <trkpt lat="42.7112" lon="1.65946">
        <ele>1279.1</ele>
        <time>2020-02-08T10:17:08Z</time>
      </trkpt>
      <trkpt lat="42.7112" lon="1.65944">
        <ele>1279.4</ele>
        <time>2020-02-08T10:17:09Z</time>
      </trkpt>
      <trkpt lat="42.7112" lon="1.65944">
        <ele>1279.4</ele>
        <time>2020-02-08T10:17:10Z</time>
      </trkpt>
      <trkpt lat="42.7112" lon="1.65944">
        <ele>1279.4</ele>
        <time>2020-02-08T10:17:11Z</time>
      </trkpt>
      <trkpt lat="42.7112" lon="1.65944">
        <ele>1279.4</ele>
        <time>2020-02-08T10:17:12Z</time>
      </trkpt>
      <trkpt lat="42.7112" lon="1.65944">
        <ele>1279.4</ele>
        <time>2020-02-08T10:17:13Z</time>
      </trkpt>
      <trkpt lat="42.7112" lon="1.65944">
        <ele>1279.4</ele>
        <time>2020-02-08T10:17:14Z</time>
      </trkpt>
      <trkpt lat="42.7112" lon="1.65944">
        <ele>1279.4</ele>
        <time>2020-02-08T10:17:15Z</time>
      </trkpt>
      <trkpt lat="42.7112" lon="1.65944">
        <ele>1279.4</ele>
        <time>2020-02-08T10:17:16Z</time>
      </trkpt>
      <trkpt lat="42.7112" lon="1.65944">
        <ele>1279.4</ele>
        <time>2020-02-08T10:17:17Z</time>
      </trkpt>
      <trkpt lat="42.7112" lon="1.65944">
        <ele>1279.4</ele>
        <time>2020-02-08T10:17:18Z</time>
      </trkpt>
      <trkpt lat="42.7112" lon="1.65944">
        <ele>1279.4</ele>
        <time>2020-02-08T10:17:19Z</time>
      </trkpt>
      <trkpt lat="42.71121" lon="1.65945">
        <ele>1279.6</ele>
        <time>2020-02-08T10:17:20Z</time>
      </trkpt>
      <trkpt lat="42.71121" lon="1.65946">
        <ele>1279.8</ele>
        <time>2020-02-08T10:17:21Z</time>
      </trkpt>
      <trkpt lat="42.71122" lon="1.65947">
        <ele>1280</ele>
        <time>2020-02-08T10:17:22Z</time>
      </trkpt>
      <trkpt lat="42.71122" lon="1.65948">
        <ele>1280.2</ele>
        <time>2020-02-08T10:17:23Z</time>
      </trkpt>
      <trkpt lat="42.71123" lon="1.65949">
        <ele>1280.4</ele>
        <time>2020-02-08T10:17:24Z</time>
      </trkpt>
      <trkpt lat="42.71123" lon="1.65951">
        <ele>1280.6</ele>
        <time>2020-02-08T10:17:25Z</time>
      </trkpt>
      <trkpt lat="42.71123" lon="1.65952">
        <ele>1280.8</ele>
        <time>2020-02-08T10:17:26Z</time>
      </trkpt>
      <trkpt lat="42.71124" lon="1.65953">
        <ele>1281</ele>
        <time>2020-02-08T10:17:27Z</time>
      </trkpt>
      <trkpt lat="42.71124" lon="1.65954">
        <ele>1281.2</ele>
        <time>2020-02-08T10:17:28Z</time>
      </trkpt>
      <trkpt lat="42.71125" lon="1.65955">
        <ele>1281.4</ele>
        <time>2020-02-08T10:17:29Z</time>
      </trkpt>
      <trkpt lat="42.71124" lon="1.65955">
        <ele>1281.5</ele>
        <time>2020-02-08T10:17:30Z</time>
      </trkpt>
      <trkpt lat="42.71124" lon="1.65955">
        <ele>1281.6</ele>
        <time>2020-02-08T10:17:31Z</time>
      </trkpt>
      <trkpt lat="42.71123" lon="1.65955">
        <ele>1281.6</ele>
        <time>2020-02-08T10:17:32Z</time>
      </trkpt>
      <trkpt lat="42.71123" lon="1.65955">
        <ele>1281.7</ele>
        <time>2020-02-08T10:17:33Z</time>
      </trkpt>
      <trkpt lat="42.71122" lon="1.65955">
        <ele>1281.9</ele>
        <time>2020-02-08T10:17:34Z</time>
      </trkpt>
      <trkpt lat="42.71122" lon="1.65955">
        <ele>1282</ele>
        <time>2020-02-08T10:17:35Z</time>
      </trkpt>
      <trkpt lat="42.71121" lon="1.65955">
        <ele>1282.1</ele>
        <time>2020-02-08T10:17:36Z</time>
      </trkpt>
      <trkpt lat="42.71121" lon="1.65955">
        <ele>1282.2</ele>
        <time>2020-02-08T10:17:37Z</time>
      </trkpt>
      <trkpt lat="42.7112" lon="1.65955">
        <ele>1282.3</ele>
        <time>2020-02-08T10:17:38Z</time>
      </trkpt>
      <trkpt lat="42.7112" lon="1.65955">
        <ele>1282.5</ele>
        <time>2020-02-08T10:17:39Z</time>
      </trkpt>
      <trkpt lat="42.71119" lon="1.65955">
        <ele>1282.6</ele>
        <time>2020-02-08T10:17:40Z</time>
      </trkpt>
      <trkpt lat="42.71119" lon="1.65955">
        <ele>1282.7</ele>
        <time>2020-02-08T10:17:41Z</time>
      </trkpt>
      <trkpt lat="42.71118" lon="1.65955">
        <ele>1282.8</ele>
        <time>2020-02-08T10:17:42Z</time>
      </trkpt>
      <trkpt lat="42.71118" lon="1.65955">
        <ele>1283</ele>
        <time>2020-02-08T10:17:43Z</time>
      </trkpt>
      <trkpt lat="42.71117" lon="1.65955">
        <ele>1283.1</ele>
        <time>2020-02-08T10:17:44Z</time>
      </trkpt>
      <trkpt lat="42.71117" lon="1.65955">
        <ele>1283.2</ele>
        <time>2020-02-08T10:17:45Z</time>
      </trkpt>
      <trkpt lat="42.71116" lon="1.65955">
        <ele>1283.4</ele>
        <time>2020-02-08T10:17:46Z</time>
      </trkpt>
      <trkpt lat="42.71116" lon="1.65955">
        <ele>1283.5</ele>
        <time>2020-02-08T10:17:47Z</time>
      </trkpt>
      <trkpt lat="42.71115" lon="1.65955">
        <ele>1283.6</ele>
        <time>2020-02-08T10:17:48Z</time>
      </trkpt>
      <trkpt lat="42.71115" lon="1.65955">
        <ele>1283.7</ele>
        <time>2020-02-08T10:17:49Z</time>
      </trkpt>
      <trkpt lat="42.71115" lon="1.65954">
        <ele>1283.9</ele>
        <time>2020-02-08T10:17:50Z</time>
      </trkpt>
      <trkpt lat="42.71114" lon="1.65954">
        <ele>1284.1</ele>
        <time>2020-02-08T10:17:51Z</time>
      </trkpt>
      <trkpt lat="42.71114" lon="1.65953">
        <ele>1284.2</ele>
        <time>2020-02-08T10:17:52Z</time>
      </trkpt>
      <trkpt lat="42.71114" lon="1.65952">
        <ele>1284.4</ele>
        <time>2020-02-08T10:17:53Z</time>
      </trkpt>
      <trkpt lat="42.71113" lon="1.65951">
        <ele>1284.6</ele>
        <time>2020-02-08T10:17:54Z</time>
      </trkpt>
      <trkpt lat="42.71113" lon="1.6595">
        <ele>1284.7</ele>
        <time>2020-02-08T10:17:55Z</time>
      </trkpt>
      <trkpt lat="42.71113" lon="1.6595">
        <ele>1284.9</ele>
        <time>2020-02-08T10:17:56Z</time>
      </trkpt>
      <trkpt lat="42.71113" lon="1.65949">
        <ele>1285.1</ele>
        <time>2020-02-08T10:17:57Z</time>
      </trkpt>
      <trkpt lat="42.71112" lon="1.65948">
        <ele>1285.3</ele>
        <time>2020-02-08T10:17:58Z</time>
      </trkpt>
      <trkpt lat="42.71112" lon="1.65947">
        <ele>1285.5</ele>
        <time>2020-02-08T10:17:59Z</time>
      </trkpt>
      <trkpt lat="42.71112" lon="1.65946">
        <ele>1285.6</ele>
        <time>2020-02-08T10:18:00Z</time>
      </trkpt>
      <trkpt lat="42.71111" lon="1.65945">
        <ele>1285.8</ele>
        <time>2020-02-08T10:18:01Z</time>
      </trkpt>
      <trkpt lat="42.71111" lon="1.65945">
        <ele>1286</ele>
        <time>2020-02-08T10:18:02Z</time>
      </trkpt>
      <trkpt lat="42.71111" lon="1.65944">
        <ele>1286.1</ele>
        <time>2020-02-08T10:18:03Z</time>
      </trkpt>
      <trkpt lat="42.7111" lon="1.65943">
        <ele>1286.3</ele>
        <time>2020-02-08T10:18:04Z</time>
      </trkpt>
      <trkpt lat="42.7111" lon="1.65942">
        <ele>1286.5</ele>
        <time>2020-02-08T10:18:05Z</time>
      </trkpt>
      <trkpt lat="42.7111" lon="1.65941">
        <ele>1286.6</ele>
        <time>2020-02-08T10:18:06Z</time>
      </trkpt>
      <trkpt lat="42.7111" lon="1.65941">
        <ele>1286.8</ele>
        <time>2020-02-08T10:18:07Z</time>
      </trkpt>
      <trkpt lat="42.71109" lon="1.6594">
        <ele>1287</ele>
        <time>2020-02-08T10:18:08Z</time>
      </trkpt>
      <trkpt lat="42.71109" lon="1.65939">
        <ele>1287.2</ele>
        <time>2020-02-08T10:18:09Z</time>
      </trkpt>
      <trkpt lat="42.71109" lon="1.65938">
        <ele>1287.3</ele>
        <time>2020-02-08T10:18:10Z</time>
      </trkpt>
      <trkpt lat="42.71109" lon="1.65938">
        <ele>1287.4</ele>
        <time>2020-02-08T10:18:11Z</time>
      </trkpt>
      <trkpt lat="42.7111" lon="1.65937">
        <ele>1287.5</ele>
        <time>2020-02-08T10:18:12Z</time>
      </trkpt>
      <trkpt lat="42.7111" lon="1.65937">
        <ele>1287.7</ele>
        <time>2020-02-08T10:18:13Z</time>
      </trkpt>
      <trkpt lat="42.7111" lon="1.65936">
        <ele>1287.8</ele>
        <time>2020-02-08T10:18:14Z</time>
      </trkpt>
      <trkpt lat="42.7111" lon="1.65935">
        <ele>1287.9</ele>
        <time>2020-02-08T10:18:15Z</time>
      </trkpt>
      <trkpt lat="42.7111" lon="1.65935">
        <ele>1288</ele>
        <time>2020-02-08T10:18:16Z</time>
      </trkpt>
      <trkpt lat="42.71111" lon="1.65934">
        <ele>1288.2</ele>
        <time>2020-02-08T10:18:17Z</time>
      </trkpt>
      <trkpt lat="42.71111" lon="1.65934">
        <ele>1288.3</ele>
        <time>2020-02-08T10:18:18Z</time>
      </trkpt>
      <trkpt lat="42.71111" lon="1.65933">
        <ele>1288.4</ele>
        <time>2020-02-08T10:18:19Z</time>
      </trkpt>
      <trkpt lat="42.71111" lon="1.65932">
        <ele>1288.5</ele>
        <time>2020-02-08T10:18:20Z</time>
      </trkpt>
      <trkpt lat="42.71111" lon="1.65932">
        <ele>1288.7</ele>
        <time>2020-02-08T10:18:21Z</time>
      </trkpt>
      <trkpt lat="42.71111" lon="1.65931">
        <ele>1288.8</ele>
        <time>2020-02-08T10:18:22Z</time>
      </trkpt>
      <trkpt lat="42.71112" lon="1.65931">
        <ele>1288.9</ele>
        <time>2020-02-08T10:18:23Z</time>
      </trkpt>
      <trkpt lat="42.71112" lon="1.6593">
        <ele>1289</ele>
        <time>2020-02-08T10:18:24Z</time>
      </trkpt>
      <trkpt lat="42.71112" lon="1.65929">
        <ele>1289.2</ele>
        <time>2020-02-08T10:18:25Z</time>
      </trkpt>
      <trkpt lat="42.71112" lon="1.65929">
        <ele>1289.3</ele>
        <time>2020-02-08T10:18:26Z</time>
      </trkpt>
      <trkpt lat="42.71112" lon="1.65928">
        <ele>1289.4</ele>
        <time>2020-02-08T10:18:27Z</time>
      </trkpt>
      <trkpt lat="42.71113" lon="1.65928">
        <ele>1289.6</ele>
        <time>2020-02-08T10:18:28Z</time>
      </trkpt>
      <trkpt lat="42.71113" lon="1.65927">
        <ele>1289.7</ele>
        <time>2020-02-08T10:18:29Z</time>
      </trkpt>
      <trkpt lat="42.71113" lon="1.65928">
        <ele>1289.9</ele>
        <time>2020-02-08T10:18:30Z</time>
      </trkpt>
      <trkpt lat="42.71113" lon="1.6593">
        <ele>1290.2</ele>
        <time>2020-02-08T10:18:31Z</time>
      </trkpt>
      <trkpt lat="42.71113" lon="1.65931">
        <ele>1290.4</ele>
        <time>2020-02-08T10:18:32Z</time>
      </trkpt>
      <trkpt lat="42.71114" lon="1.65932">
        <ele>1290.7</ele>
        <time>2020-02-08T10:18:33Z</time>
      </trkpt>
      <trkpt lat="42.71114" lon="1.65933">
        <ele>1290.9</ele>
        <time>2020-02-08T10:18:34Z</time>
      </trkpt>
      <trkpt lat="42.71114" lon="1.65935">
        <ele>1291.2</ele>
        <time>2020-02-08T10:18:35Z</time>
      </trkpt>
      <trkpt lat="42.71114" lon="1.65936">
        <ele>1291.4</ele>
        <time>2020-02-08T10:18:36Z</time>
      </trkpt>
      <trkpt lat="42.71114" lon="1.65937">
        <ele>1291.6</ele>
        <time>2020-02-08T10:18:37Z</time>
      </trkpt>
      <trkpt lat="42.71114" lon="1.65939">
        <ele>1291.8</ele>
        <time>2020-02-08T10:18:38Z</time>
      </trkpt>
      <trkpt lat="42.71115" lon="1.6594">
        <ele>1292</ele>
        <time>2020-02-08T10:18:39Z</time>
      </trkpt>
      <trkpt lat="42.71114" lon="1.6594">
        <ele>1292.2</ele>
        <time>2020-02-08T10:18:40Z</time>
      </trkpt>
      <trkpt lat="42.71113" lon="1.6594">
        <ele>1292.3</ele>
        <time>2020-02-08T10:18:41Z</time>
      </trkpt>
      <trkpt lat="42.71112" lon="1.6594">
        <ele>1292.5</ele>
        <time>2020-02-08T10:18:42Z</time>
      </trkpt>
      <trkpt lat="42.71111" lon="1.6594">
        <ele>1292.7</ele>
        <time>2020-02-08T10:18:43Z</time>
      </trkpt>
      <trkpt lat="42.7111" lon="1.6594">
        <ele>1292.9</ele>
        <time>2020-02-08T10:18:44Z</time>
      </trkpt>
      <trkpt lat="42.71109" lon="1.6594">
        <ele>1293.1</ele>
        <time>2020-02-08T10:18:45Z</time>
      </trkpt>
      <trkpt lat="42.71108" lon="1.6594">
        <ele>1293.3</ele>
        <time>2020-02-08T10:18:46Z</time>
      </trkpt>
      <trkpt lat="42.71107" lon="1.6594">
        <ele>1293.4</ele>
        <time>2020-02-08T10:18:47Z</time>
      </trkpt>
      <trkpt lat="42.71107" lon="1.6594">
        <ele>1293.6</ele>
        <time>2020-02-08T10:18:48Z</time>
      </trkpt>
      <trkpt lat="42.71106" lon="1.6594">
        <ele>1293.8</ele>
        <time>2020-02-08T10:18:49Z</time>
      </trkpt>
      <trkpt lat="42.71105" lon="1.6594">
        <ele>1293.8</ele>
        <time>2020-02-08T10:18:50Z</time>
      </trkpt>
      <trkpt lat="42.71105" lon="1.6594">
        <ele>1293.9</ele>
        <time>2020-02-08T10:18:51Z</time>
      </trkpt>
      <trkpt lat="42.71105" lon="1.6594">
        <ele>1293.9</ele>
        <time>2020-02-08T10:18:52Z</time>
      </trkpt>
      <trkpt lat="42.71105" lon="1.6594">
        <ele>1294</ele>
        <time>2020-02-08T10:18:53Z</time>
      </trkpt>
      <trkpt lat="42.71105" lon="1.6594">
        <ele>1294</ele>
        <time>2020-02-08T10:18:54Z</time>
      </trkpt>
      <trkpt lat="42.71104" lon="1.6594">
        <ele>1294.1</ele>
        <time>2020-02-08T10:18:55Z</time>
      </trkpt>
      <trkpt lat="42.71104" lon="1.6594">
        <ele>1294.1</ele>
        <time>2020-02-08T10:18:56Z</time>
      </trkpt>
      <trkpt lat="42.71104" lon="1.6594">
        <ele>1294.2</ele>
        <time>2020-02-08T10:18:57Z</time>
      </trkpt>
      <trkpt lat="42.71104" lon="1.6594">
        <ele>1294.2</ele>
        <time>2020-02-08T10:18:58Z</time>
      </trkpt>
      <trkpt lat="42.71103" lon="1.6594">
        <ele>1294.2</ele>
        <time>2020-02-08T10:18:59Z</time>
      </trkpt>
      <trkpt lat="42.71103" lon="1.6594">
        <ele>1294.3</ele>
        <time>2020-02-08T10:19:00Z</time>
      </trkpt>
      <trkpt lat="42.71103" lon="1.6594">
        <ele>1294.3</ele>
        <time>2020-02-08T10:19:01Z</time>
      </trkpt>
      <trkpt lat="42.71103" lon="1.6594">
        <ele>1294.4</ele>
        <time>2020-02-08T10:19:02Z</time>
      </trkpt>
      <trkpt lat="42.71103" lon="1.6594">
        <ele>1294.4</ele>
        <time>2020-02-08T10:19:03Z</time>
      </trkpt>
      <trkpt lat="42.71102" lon="1.6594">
        <ele>1294.5</ele>
        <time>2020-02-08T10:19:04Z</time>
      </trkpt>
      <trkpt lat="42.71102" lon="1.6594">
        <ele>1294.5</ele>
        <time>2020-02-08T10:19:05Z</time>
      </trkpt>
      <trkpt lat="42.71102" lon="1.6594">
        <ele>1294.6</ele>
        <time>2020-02-08T10:19:06Z</time>
      </trkpt>
      <trkpt lat="42.71102" lon="1.6594">
        <ele>1294.6</ele>
        <time>2020-02-08T10:19:07Z</time>
      </trkpt>
      <trkpt lat="42.71101" lon="1.6594">
        <ele>1294.7</ele>
        <time>2020-02-08T10:19:08Z</time>
      </trkpt>
      <trkpt lat="42.71101" lon="1.6594">
        <ele>1294.7</ele>
        <time>2020-02-08T10:19:09Z</time>
      </trkpt>
      <trkpt lat="42.71101" lon="1.6594">
        <ele>1294.7</ele>
        <time>2020-02-08T10:19:10Z</time>
      </trkpt>
      <trkpt lat="42.71101" lon="1.6594">
        <ele>1294.8</ele>
        <time>2020-02-08T10:19:11Z</time>
      </trkpt>
      <trkpt lat="42.711" lon="1.6594">
        <ele>1294.8</ele>
        <time>2020-02-08T10:19:12Z</time>
      </trkpt>
      <trkpt lat="42.711" lon="1.65941">
        <ele>1294.9</ele>
        <time>2020-02-08T10:19:13Z</time>
      </trkpt>
      <trkpt lat="42.711" lon="1.65941">
        <ele>1294.9</ele>
        <time>2020-02-08T10:19:14Z</time>
      </trkpt>
      <trkpt lat="42.711" lon="1.65941">
        <ele>1295</ele>
        <time>2020-02-08T10:19:15Z</time>
      </trkpt>
      <trkpt lat="42.711" lon="1.65941">
        <ele>1295.1</ele>
        <time>2020-02-08T10:19:16Z</time>
      </trkpt>
      <trkpt lat="42.71099" lon="1.65941">
        <ele>1295.1</ele>
        <time>2020-02-08T10:19:17Z</time>
      </trkpt>
      <trkpt lat="42.71099" lon="1.65941">
        <ele>1295.2</ele>
        <time>2020-02-08T10:19:18Z</time>
      </trkpt>
      <trkpt lat="42.71099" lon="1.65941">
        <ele>1295.2</ele>
        <time>2020-02-08T10:19:19Z</time>
      </trkpt>
      <trkpt lat="42.71099" lon="1.65941">
        <ele>1295.3</ele>
        <time>2020-02-08T10:19:20Z</time>
      </trkpt>
      <trkpt lat="42.71098" lon="1.65941">
        <ele>1295.4</ele>
        <time>2020-02-08T10:19:21Z</time>
      </trkpt>
      <trkpt lat="42.71098" lon="1.65941">
        <ele>1295.4</ele>
        <time>2020-02-08T10:19:22Z</time>
      </trkpt>
      <trkpt lat="42.71098" lon="1.65941">
        <ele>1295.5</ele>
        <time>2020-02-08T10:19:23Z</time>
      </trkpt>
      <trkpt lat="42.71098" lon="1.65941">
        <ele>1295.6</ele>
        <time>2020-02-08T10:19:24Z</time>
      </trkpt>
      <trkpt lat="42.71098" lon="1.65941">
        <ele>1295.6</ele>
        <time>2020-02-08T10:19:25Z</time>
      </trkpt>
      <trkpt lat="42.71097" lon="1.65941">
        <ele>1295.7</ele>
        <time>2020-02-08T10:19:26Z</time>
      </trkpt>
      <trkpt lat="42.71097" lon="1.65941">
        <ele>1295.8</ele>
        <time>2020-02-08T10:19:27Z</time>
      </trkpt>
      <trkpt lat="42.71097" lon="1.65941">
        <ele>1295.8</ele>
        <time>2020-02-08T10:19:28Z</time>
      </trkpt>
      <trkpt lat="42.71097" lon="1.65941">
        <ele>1295.9</ele>
        <time>2020-02-08T10:19:29Z</time>
      </trkpt>
      <trkpt lat="42.71097" lon="1.6594">
        <ele>1296</ele>
        <time>2020-02-08T10:19:30Z</time>
      </trkpt>
      <trkpt lat="42.71096" lon="1.6594">
        <ele>1296.1</ele>
        <time>2020-02-08T10:19:31Z</time>
      </trkpt>
      <trkpt lat="42.71096" lon="1.6594">
        <ele>1296.1</ele>
        <time>2020-02-08T10:19:32Z</time>
      </trkpt>
      <trkpt lat="42.71096" lon="1.6594">
        <ele>1296.2</ele>
        <time>2020-02-08T10:19:33Z</time>
      </trkpt>
      <trkpt lat="42.71096" lon="1.65939">
        <ele>1296.3</ele>
        <time>2020-02-08T10:19:34Z</time>
      </trkpt>
      <trkpt lat="42.71096" lon="1.65939">
        <ele>1296.4</ele>
        <time>2020-02-08T10:19:35Z</time>
      </trkpt>
      <trkpt lat="42.71096" lon="1.65939">
        <ele>1296.4</ele>
        <time>2020-02-08T10:19:36Z</time>
      </trkpt>
      <trkpt lat="42.71095" lon="1.65938">
        <ele>1296.5</ele>
        <time>2020-02-08T10:19:37Z</time>
      </trkpt>
      <trkpt lat="42.71095" lon="1.65938">
        <ele>1296.6</ele>
        <time>2020-02-08T10:19:38Z</time>
      </trkpt>
      <trkpt lat="42.71095" lon="1.65938">
        <ele>1296.7</ele>
        <time>2020-02-08T10:19:39Z</time>
      </trkpt>
      <trkpt lat="42.71095" lon="1.65937">
        <ele>1296.8</ele>
        <time>2020-02-08T10:19:40Z</time>
      </trkpt>
      <trkpt lat="42.71095" lon="1.65937">
        <ele>1296.8</ele>
        <time>2020-02-08T10:19:41Z</time>
      </trkpt>
      <trkpt lat="42.71095" lon="1.65937">
        <ele>1296.9</ele>
        <time>2020-02-08T10:19:42Z</time>
      </trkpt>
      <trkpt lat="42.71095" lon="1.65937">
        <ele>1297</ele>
        <time>2020-02-08T10:19:43Z</time>
      </trkpt>
      <trkpt lat="42.71094" lon="1.65936">
        <ele>1297.1</ele>
        <time>2020-02-08T10:19:44Z</time>
      </trkpt>
      <trkpt lat="42.71094" lon="1.65936">
        <ele>1297.2</ele>
        <time>2020-02-08T10:19:45Z</time>
      </trkpt>
      <trkpt lat="42.71094" lon="1.65936">
        <ele>1297.2</ele>
        <time>2020-02-08T10:19:46Z</time>
      </trkpt>
      <trkpt lat="42.71094" lon="1.65935">
        <ele>1297.3</ele>
        <time>2020-02-08T10:19:47Z</time>
      </trkpt>
      <trkpt lat="42.71094" lon="1.65935">
        <ele>1297.4</ele>
        <time>2020-02-08T10:19:48Z</time>
      </trkpt>
      <trkpt lat="42.71094" lon="1.65935">
        <ele>1297.5</ele>
        <time>2020-02-08T10:19:49Z</time>
      </trkpt>
      <trkpt lat="42.71094" lon="1.65934">
        <ele>1297.6</ele>
        <time>2020-02-08T10:19:50Z</time>
      </trkpt>
      <trkpt lat="42.71093" lon="1.65934">
        <ele>1297.6</ele>
        <time>2020-02-08T10:19:51Z</time>
      </trkpt>
      <trkpt lat="42.71093" lon="1.65934">
        <ele>1297.7</ele>
        <time>2020-02-08T10:19:52Z</time>
      </trkpt>
      <trkpt lat="42.71093" lon="1.65933">
        <ele>1297.8</ele>
        <time>2020-02-08T10:19:53Z</time>
      </trkpt>
      <trkpt lat="42.71093" lon="1.65933">
        <ele>1297.9</ele>
        <time>2020-02-08T10:19:54Z</time>
      </trkpt>
      <trkpt lat="42.71093" lon="1.65933">
        <ele>1298</ele>
        <time>2020-02-08T10:19:55Z</time>
      </trkpt>
      <trkpt lat="42.71093" lon="1.65933">
        <ele>1298</ele>
        <time>2020-02-08T10:19:56Z</time>
      </trkpt>
      <trkpt lat="42.71092" lon="1.65932">
        <ele>1298.1</ele>
        <time>2020-02-08T10:19:57Z</time>
      </trkpt>
      <trkpt lat="42.71092" lon="1.65932">
        <ele>1298.2</ele>
        <time>2020-02-08T10:19:58Z</time>
      </trkpt>
      <trkpt lat="42.71092" lon="1.65932">
        <ele>1298.3</ele>
        <time>2020-02-08T10:19:59Z</time>
      </trkpt>
      <trkpt lat="42.71092" lon="1.65931">
        <ele>1298.5</ele>
        <time>2020-02-08T10:20:00Z</time>
      </trkpt>
      <trkpt lat="42.71091" lon="1.6593">
        <ele>1298.8</ele>
        <time>2020-02-08T10:20:01Z</time>
      </trkpt>
      <trkpt lat="42.7109" lon="1.65929">
        <ele>1299.1</ele>
        <time>2020-02-08T10:20:02Z</time>
      </trkpt>
      <trkpt lat="42.7109" lon="1.65928">
        <ele>1299.3</ele>
        <time>2020-02-08T10:20:03Z</time>
      </trkpt>
      <trkpt lat="42.71089" lon="1.65927">
        <ele>1299.6</ele>
        <time>2020-02-08T10:20:04Z</time>
      </trkpt>
      <trkpt lat="42.71088" lon="1.65926">
        <ele>1299.9</ele>
        <time>2020-02-08T10:20:05Z</time>
      </trkpt>
      <trkpt lat="42.71088" lon="1.65925">
        <ele>1300.1</ele>
        <time>2020-02-08T10:20:06Z</time>
      </trkpt>
      <trkpt lat="42.71087" lon="1.65924">
        <ele>1300.4</ele>
        <time>2020-02-08T10:20:07Z</time>
      </trkpt>
      <trkpt lat="42.71086" lon="1.65923">
        <ele>1300.7</ele>
        <time>2020-02-08T10:20:08Z</time>
      </trkpt>
      <trkpt lat="42.71086" lon="1.65922">
        <ele>1300.9</ele>
        <time>2020-02-08T10:20:09Z</time>
      </trkpt>
      <trkpt lat="42.71086" lon="1.65922">
        <ele>1301.1</ele>
        <time>2020-02-08T10:20:10Z</time>
      </trkpt>
      <trkpt lat="42.71086" lon="1.65921">
        <ele>1301.2</ele>
        <time>2020-02-08T10:20:11Z</time>
      </trkpt>
      <trkpt lat="42.71086" lon="1.65921">
        <ele>1301.3</ele>
        <time>2020-02-08T10:20:12Z</time>
      </trkpt>
      <trkpt lat="42.71086" lon="1.6592">
        <ele>1301.5</ele>
        <time>2020-02-08T10:20:13Z</time>
      </trkpt>
      <trkpt lat="42.71086" lon="1.65919">
        <ele>1301.6</ele>
        <time>2020-02-08T10:20:14Z</time>
      </trkpt>
      <trkpt lat="42.71086" lon="1.65919">
        <ele>1301.7</ele>
        <time>2020-02-08T10:20:15Z</time>
      </trkpt>
      <trkpt lat="42.71086" lon="1.65918">
        <ele>1301.9</ele>
        <time>2020-02-08T10:20:16Z</time>
      </trkpt>
      <trkpt lat="42.71086" lon="1.65917">
        <ele>1302</ele>
        <time>2020-02-08T10:20:17Z</time>
      </trkpt>
      <trkpt lat="42.71087" lon="1.65917">
        <ele>1302.1</ele>
        <time>2020-02-08T10:20:18Z</time>
      </trkpt>
      <trkpt lat="42.71087" lon="1.65916">
        <ele>1302.3</ele>
        <time>2020-02-08T10:20:19Z</time>
      </trkpt>
      <trkpt lat="42.71087" lon="1.65916">
        <ele>1302.4</ele>
        <time>2020-02-08T10:20:20Z</time>
      </trkpt>
      <trkpt lat="42.71087" lon="1.65915">
        <ele>1302.5</ele>
        <time>2020-02-08T10:20:21Z</time>
      </trkpt>
      <trkpt lat="42.71087" lon="1.65914">
        <ele>1302.7</ele>
        <time>2020-02-08T10:20:22Z</time>
      </trkpt>
      <trkpt lat="42.71087" lon="1.65914">
        <ele>1302.8</ele>
        <time>2020-02-08T10:20:23Z</time>
      </trkpt>
      <trkpt lat="42.71087" lon="1.65913">
        <ele>1302.9</ele>
        <time>2020-02-08T10:20:24Z</time>
      </trkpt>
      <trkpt lat="42.71087" lon="1.65912">
        <ele>1303.1</ele>
        <time>2020-02-08T10:20:25Z</time>
      </trkpt>
      <trkpt lat="42.71087" lon="1.65912">
        <ele>1303.2</ele>
        <time>2020-02-08T10:20:26Z</time>
      </trkpt>
      <trkpt lat="42.71087" lon="1.65911">
        <ele>1303.3</ele>
        <time>2020-02-08T10:20:27Z</time>
      </trkpt>
      <trkpt lat="42.71087" lon="1.65911">
        <ele>1303.5</ele>
        <time>2020-02-08T10:20:28Z</time>
      </trkpt>
      <trkpt lat="42.71087" lon="1.6591">
        <ele>1303.6</ele>
        <time>2020-02-08T10:20:29Z</time>
      </trkpt>
      <trkpt lat="42.71087" lon="1.6591">
        <ele>1303.7</ele>
        <time>2020-02-08T10:20:30Z</time>
      </trkpt>
      <trkpt lat="42.71087" lon="1.65911">
        <ele>1303.9</ele>
        <time>2020-02-08T10:20:31Z</time>
      </trkpt>
      <trkpt lat="42.71086" lon="1.65911">
        <ele>1304</ele>
        <time>2020-02-08T10:20:32Z</time>
      </trkpt>
      <trkpt lat="42.71086" lon="1.65912">
        <ele>1304.2</ele>
        <time>2020-02-08T10:20:33Z</time>
      </trkpt>
      <trkpt lat="42.71086" lon="1.65912">
        <ele>1304.3</ele>
        <time>2020-02-08T10:20:34Z</time>
      </trkpt>
      <trkpt lat="42.71085" lon="1.65913">
        <ele>1304.5</ele>
        <time>2020-02-08T10:20:35Z</time>
      </trkpt>
      <trkpt lat="42.71085" lon="1.65913">
        <ele>1304.6</ele>
        <time>2020-02-08T10:20:36Z</time>
      </trkpt>
      <trkpt lat="42.71084" lon="1.65914">
        <ele>1304.7</ele>
        <time>2020-02-08T10:20:37Z</time>
      </trkpt>
      <trkpt lat="42.71084" lon="1.65914">
        <ele>1304.9</ele>
        <time>2020-02-08T10:20:38Z</time>
      </trkpt>
      <trkpt lat="42.71084" lon="1.65915">
        <ele>1305</ele>
        <time>2020-02-08T10:20:39Z</time>
      </trkpt>
      <trkpt lat="42.71083" lon="1.65915">
        <ele>1305.2</ele>
        <time>2020-02-08T10:20:40Z</time>
      </trkpt>
      <trkpt lat="42.71083" lon="1.65916">
        <ele>1305.3</ele>
        <time>2020-02-08T10:20:41Z</time>
      </trkpt>
      <trkpt lat="42.71083" lon="1.65916">
        <ele>1305.4</ele>
        <time>2020-02-08T10:20:42Z</time>
      </trkpt>
      <trkpt lat="42.71082" lon="1.65917">
        <ele>1305.5</ele>
        <time>2020-02-08T10:20:43Z</time>
      </trkpt>
      <trkpt lat="42.71082" lon="1.65917">
        <ele>1305.6</ele>
        <time>2020-02-08T10:20:44Z</time>
      </trkpt>
      <trkpt lat="42.71082" lon="1.65918">
        <ele>1305.8</ele>
        <time>2020-02-08T10:20:45Z</time>
      </trkpt>
      <trkpt lat="42.71081" lon="1.65918">
        <ele>1305.9</ele>
        <time>2020-02-08T10:20:46Z</time>
      </trkpt>
      <trkpt lat="42.71081" lon="1.65919">
        <ele>1306</ele>
        <time>2020-02-08T10:20:47Z</time>
      </trkpt>
      <trkpt lat="42.71081" lon="1.65919">
        <ele>1306</ele>
        <time>2020-02-08T10:20:48Z</time>
      </trkpt>
      <trkpt lat="42.7108" lon="1.65919">
        <ele>1306.1</ele>
        <time>2020-02-08T10:20:49Z</time>
      </trkpt>
      <trkpt lat="42.7108" lon="1.65918">
        <ele>1306.4</ele>
        <time>2020-02-08T10:20:50Z</time>
      </trkpt>
      <trkpt lat="42.71079" lon="1.65917">
        <ele>1306.6</ele>
        <time>2020-02-08T10:20:51Z</time>
      </trkpt>
      <trkpt lat="42.71079" lon="1.65916">
        <ele>1306.9</ele>
        <time>2020-02-08T10:20:52Z</time>
      </trkpt>
      <trkpt lat="42.71078" lon="1.65915">
        <ele>1307.2</ele>
        <time>2020-02-08T10:20:53Z</time>
      </trkpt>
      <trkpt lat="42.71078" lon="1.65914">
        <ele>1307.4</ele>
        <time>2020-02-08T10:20:54Z</time>
      </trkpt>
      <trkpt lat="42.71078" lon="1.65912">
        <ele>1307.7</ele>
        <time>2020-02-08T10:20:55Z</time>
      </trkpt>
      <trkpt lat="42.71077" lon="1.65911">
        <ele>1307.9</ele>
        <time>2020-02-08T10:20:56Z</time>
      </trkpt>
      <trkpt lat="42.71077" lon="1.6591">
        <ele>1308.1</ele>
        <time>2020-02-08T10:20:57Z</time>
      </trkpt>
      <trkpt lat="42.71076" lon="1.65909">
        <ele>1308.4</ele>
        <time>2020-02-08T10:20:58Z</time>
      </trkpt>
      <trkpt lat="42.71076" lon="1.65908">
        <ele>1308.6</ele>
        <time>2020-02-08T10:20:59Z</time>
      </trkpt>
      <trkpt lat="42.71077" lon="1.65907">
        <ele>1308.8</ele>
        <time>2020-02-08T10:21:00Z</time>
      </trkpt>
      <trkpt lat="42.71078" lon="1.65907">
        <ele>1309.1</ele>
        <time>2020-02-08T10:21:01Z</time>
      </trkpt>
      <trkpt lat="42.71079" lon="1.65907">
        <ele>1309.3</ele>
        <time>2020-02-08T10:21:02Z</time>
      </trkpt>
      <trkpt lat="42.7108" lon="1.65907">
        <ele>1309.5</ele>
        <time>2020-02-08T10:21:03Z</time>
      </trkpt>
      <trkpt lat="42.71081" lon="1.65906">
        <ele>1309.7</ele>
        <time>2020-02-08T10:21:04Z</time>
      </trkpt>
      <trkpt lat="42.71082" lon="1.65906">
        <ele>1309.9</ele>
        <time>2020-02-08T10:21:05Z</time>
      </trkpt>
      <trkpt lat="42.71083" lon="1.65906">
        <ele>1310</ele>
        <time>2020-02-08T10:21:06Z</time>
      </trkpt>
      <trkpt lat="42.71084" lon="1.65906">
        <ele>1310.1</ele>
        <time>2020-02-08T10:21:07Z</time>
      </trkpt>
      <trkpt lat="42.71085" lon="1.65905">
        <ele>1310.3</ele>
        <time>2020-02-08T10:21:08Z</time>
      </trkpt>
      <trkpt lat="42.71086" lon="1.65905">
        <ele>1310.3</ele>
        <time>2020-02-08T10:21:09Z</time>
      </trkpt>
      <trkpt lat="42.71085" lon="1.65905">
        <ele>1310.3</ele>
        <time>2020-02-08T10:21:10Z</time>
      </trkpt>
      <trkpt lat="42.71085" lon="1.65905">
        <ele>1310.3</ele>
        <time>2020-02-08T10:21:11Z</time>
      </trkpt>
      <trkpt lat="42.71085" lon="1.65905">
        <ele>1310.3</ele>
        <time>2020-02-08T10:21:12Z</time>
      </trkpt>
      <trkpt lat="42.71085" lon="1.65904">
        <ele>1310.2</ele>
        <time>2020-02-08T10:21:13Z</time>
      </trkpt>
      <trkpt lat="42.71084" lon="1.65904">
        <ele>1310.1</ele>
        <time>2020-02-08T10:21:14Z</time>
      </trkpt>
      <trkpt lat="42.71084" lon="1.65904">
        <ele>1310.1</ele>
        <time>2020-02-08T10:21:15Z</time>
      </trkpt>
      <trkpt lat="42.71084" lon="1.65904">
        <ele>1310.1</ele>
        <time>2020-02-08T10:21:16Z</time>
      </trkpt>
      <trkpt lat="42.71083" lon="1.65904">
        <ele>1310</ele>
        <time>2020-02-08T10:21:17Z</time>
      </trkpt>
      <trkpt lat="42.71083" lon="1.65904">
        <ele>1309.9</ele>
        <time>2020-02-08T10:21:18Z</time>
      </trkpt>
      <trkpt lat="42.71083" lon="1.65904">
        <ele>1309.9</ele>
        <time>2020-02-08T10:21:19Z</time>
      </trkpt>
      <trkpt lat="42.71083" lon="1.65903">
        <ele>1309.8</ele>
        <time>2020-02-08T10:21:20Z</time>
      </trkpt>
      <trkpt lat="42.71082" lon="1.65903">
        <ele>1309.8</ele>
        <time>2020-02-08T10:21:21Z</time>
      </trkpt>
      <trkpt lat="42.71082" lon="1.65903">
        <ele>1309.8</ele>
        <time>2020-02-08T10:21:22Z</time>
      </trkpt>
      <trkpt lat="42.71082" lon="1.65903">
        <ele>1309.7</ele>
        <time>2020-02-08T10:21:23Z</time>
      </trkpt>
      <trkpt lat="42.71082" lon="1.65903">
        <ele>1309.6</ele>
        <time>2020-02-08T10:21:24Z</time>
      </trkpt>
      <trkpt lat="42.71081" lon="1.65903">
        <ele>1309.6</ele>
        <time>2020-02-08T10:21:25Z</time>
      </trkpt>
      <trkpt lat="42.71081" lon="1.65902">
        <ele>1309.5</ele>
        <time>2020-02-08T10:21:26Z</time>
      </trkpt>
      <trkpt lat="42.71081" lon="1.65902">
        <ele>1309.5</ele>
        <time>2020-02-08T10:21:27Z</time>
      </trkpt>
      <trkpt lat="42.7108" lon="1.65902">
        <ele>1309.4</ele>
        <time>2020-02-08T10:21:28Z</time>
      </trkpt>
      <trkpt lat="42.7108" lon="1.65902">
        <ele>1309.4</ele>
        <time>2020-02-08T10:21:29Z</time>
      </trkpt>
      <trkpt lat="42.7108" lon="1.65902">
        <ele>1309.3</ele>
        <time>2020-02-08T10:21:30Z</time>
      </trkpt>
      <trkpt lat="42.7108" lon="1.65902">
        <ele>1309.3</ele>
        <time>2020-02-08T10:21:31Z</time>
      </trkpt>
      <trkpt lat="42.71079" lon="1.65902">
        <ele>1309.2</ele>
        <time>2020-02-08T10:21:32Z</time>
      </trkpt>
      <trkpt lat="42.71079" lon="1.65901">
        <ele>1309.1</ele>
        <time>2020-02-08T10:21:33Z</time>
      </trkpt>
      <trkpt lat="42.71079" lon="1.65901">
        <ele>1309.1</ele>
        <time>2020-02-08T10:21:34Z</time>
      </trkpt>
      <trkpt lat="42.71078" lon="1.65901">
        <ele>1309</ele>
        <time>2020-02-08T10:21:35Z</time>
      </trkpt>
      <trkpt lat="42.71078" lon="1.65901">
        <ele>1309</ele>
        <time>2020-02-08T10:21:36Z</time>
      </trkpt>
      <trkpt lat="42.71078" lon="1.65901">
        <ele>1308.9</ele>
        <time>2020-02-08T10:21:37Z</time>
      </trkpt>
      <trkpt lat="42.71078" lon="1.65901">
        <ele>1308.8</ele>
        <time>2020-02-08T10:21:38Z</time>
      </trkpt>
      <trkpt lat="42.71077" lon="1.659">
        <ele>1308.8</ele>
        <time>2020-02-08T10:21:39Z</time>
      </trkpt>
      <trkpt lat="42.71076" lon="1.65899">
        <ele>1308.9</ele>
        <time>2020-02-08T10:21:40Z</time>
      </trkpt>
      <trkpt lat="42.71076" lon="1.65898">
        <ele>1309</ele>
        <time>2020-02-08T10:21:41Z</time>
      </trkpt>
      <trkpt lat="42.71075" lon="1.65897">
        <ele>1309.1</ele>
        <time>2020-02-08T10:21:42Z</time>
      </trkpt>
      <trkpt lat="42.71074" lon="1.65896">
        <ele>1309.1</ele>
        <time>2020-02-08T10:21:43Z</time>
      </trkpt>
      <trkpt lat="42.71073" lon="1.65895">
        <ele>1309.3</ele>
        <time>2020-02-08T10:21:44Z</time>
      </trkpt>
      <trkpt lat="42.71072" lon="1.65894">
        <ele>1309.4</ele>
        <time>2020-02-08T10:21:45Z</time>
      </trkpt>
      <trkpt lat="42.71071" lon="1.65893">
        <ele>1309.5</ele>
        <time>2020-02-08T10:21:46Z</time>
      </trkpt>
      <trkpt lat="42.71071" lon="1.65892">
        <ele>1309.6</ele>
        <time>2020-02-08T10:21:47Z</time>
      </trkpt>
      <trkpt lat="42.7107" lon="1.65891">
        <ele>1309.7</ele>
        <time>2020-02-08T10:21:48Z</time>
      </trkpt>
      <trkpt lat="42.71069" lon="1.6589">
        <ele>1309.8</ele>
        <time>2020-02-08T10:21:49Z</time>
      </trkpt>
      <trkpt lat="42.71069" lon="1.6589">
        <ele>1309.7</ele>
        <time>2020-02-08T10:21:50Z</time>
      </trkpt>
      <trkpt lat="42.71069" lon="1.6589">
        <ele>1309.6</ele>
        <time>2020-02-08T10:21:51Z</time>
      </trkpt>
      <trkpt lat="42.71069" lon="1.65889">
        <ele>1309.5</ele>
        <time>2020-02-08T10:21:52Z</time>
      </trkpt>
      <trkpt lat="42.71069" lon="1.65889">
        <ele>1309.3</ele>
        <time>2020-02-08T10:21:53Z</time>
      </trkpt>
      <trkpt lat="42.71069" lon="1.65889">
        <ele>1309.2</ele>
        <time>2020-02-08T10:21:54Z</time>
      </trkpt>
      <trkpt lat="42.71069" lon="1.65889">
        <ele>1309.2</ele>
        <time>2020-02-08T10:21:55Z</time>
      </trkpt>
      <trkpt lat="42.71069" lon="1.65889">
        <ele>1309.1</ele>
        <time>2020-02-08T10:21:56Z</time>
      </trkpt>
      <trkpt lat="42.71069" lon="1.65888">
        <ele>1308.9</ele>
        <time>2020-02-08T10:21:57Z</time>
      </trkpt>
      <trkpt lat="42.71069" lon="1.65888">
        <ele>1308.9</ele>
        <time>2020-02-08T10:21:58Z</time>
      </trkpt>
      <trkpt lat="42.71069" lon="1.65888">
        <ele>1308.8</ele>
        <time>2020-02-08T10:21:59Z</time>
      </trkpt>
      <trkpt lat="42.71069" lon="1.65888">
        <ele>1308.7</ele>
        <time>2020-02-08T10:22:00Z</time>
      </trkpt>
      <trkpt lat="42.71069" lon="1.65887">
        <ele>1308.6</ele>
        <time>2020-02-08T10:22:01Z</time>
      </trkpt>
      <trkpt lat="42.71069" lon="1.65887">
        <ele>1308.4</ele>
        <time>2020-02-08T10:22:02Z</time>
      </trkpt>
      <trkpt lat="42.71069" lon="1.65887">
        <ele>1308.4</ele>
        <time>2020-02-08T10:22:03Z</time>
      </trkpt>
      <trkpt lat="42.71069" lon="1.65887">
        <ele>1308.3</ele>
        <time>2020-02-08T10:22:04Z</time>
      </trkpt>
      <trkpt lat="42.71069" lon="1.65887">
        <ele>1308.1</ele>
        <time>2020-02-08T10:22:05Z</time>
      </trkpt>
      <trkpt lat="42.71069" lon="1.65886">
        <ele>1308.1</ele>
        <time>2020-02-08T10:22:06Z</time>
      </trkpt>
      <trkpt lat="42.71069" lon="1.65886">
        <ele>1308</ele>
        <time>2020-02-08T10:22:07Z</time>
      </trkpt>
      <trkpt lat="42.71069" lon="1.65886">
        <ele>1307.9</ele>
        <time>2020-02-08T10:22:08Z</time>
      </trkpt>
      <trkpt lat="42.71069" lon="1.65886">
        <ele>1307.8</ele>
        <time>2020-02-08T10:22:09Z</time>
      </trkpt>
      <trkpt lat="42.71069" lon="1.65885">
        <ele>1307.7</ele>
        <time>2020-02-08T10:22:10Z</time>
      </trkpt>
      <trkpt lat="42.71069" lon="1.65885">
        <ele>1307.6</ele>
        <time>2020-02-08T10:22:11Z</time>
      </trkpt>
      <trkpt lat="42.71069" lon="1.65885">
        <ele>1307.5</ele>
        <time>2020-02-08T10:22:12Z</time>
      </trkpt>
      <trkpt lat="42.71069" lon="1.65885">
        <ele>1307.3</ele>
        <time>2020-02-08T10:22:13Z</time>
      </trkpt>
      <trkpt lat="42.71069" lon="1.65884">
        <ele>1307.3</ele>
        <time>2020-02-08T10:22:14Z</time>
      </trkpt>
      <trkpt lat="42.71069" lon="1.65884">
        <ele>1307.2</ele>
        <time>2020-02-08T10:22:15Z</time>
      </trkpt>
      <trkpt lat="42.71069" lon="1.65884">
        <ele>1307.1</ele>
        <time>2020-02-08T10:22:16Z</time>
      </trkpt>
      <trkpt lat="42.71069" lon="1.65884">
        <ele>1307</ele>
        <time>2020-02-08T10:22:17Z</time>
      </trkpt>
      <trkpt lat="42.71069" lon="1.65884">
        <ele>1306.9</ele>
        <time>2020-02-08T10:22:18Z</time>
      </trkpt>
      <trkpt lat="42.71069" lon="1.65883">
        <ele>1306.8</ele>
        <time>2020-02-08T10:22:19Z</time>
      </trkpt>
      <trkpt lat="42.71069" lon="1.65883">
        <ele>1306.7</ele>
        <time>2020-02-08T10:22:20Z</time>
      </trkpt>
      <trkpt lat="42.71069" lon="1.65883">
        <ele>1306.5</ele>
        <time>2020-02-08T10:22:21Z</time>
      </trkpt>
      <trkpt lat="42.71069" lon="1.65883">
        <ele>1306.5</ele>
        <time>2020-02-08T10:22:22Z</time>
      </trkpt>
      <trkpt lat="42.71069" lon="1.65882">
        <ele>1306.5</ele>
        <time>2020-02-08T10:22:23Z</time>
      </trkpt>
      <trkpt lat="42.71069" lon="1.65882">
        <ele>1306.5</ele>
        <time>2020-02-08T10:22:24Z</time>
      </trkpt>
      <trkpt lat="42.71069" lon="1.65882">
        <ele>1306.6</ele>
        <time>2020-02-08T10:22:25Z</time>
      </trkpt>
      <trkpt lat="42.71069" lon="1.65882">
        <ele>1306.6</ele>
        <time>2020-02-08T10:22:26Z</time>
      </trkpt>
      <trkpt lat="42.71069" lon="1.65882">
        <ele>1306.7</ele>
        <time>2020-02-08T10:22:27Z</time>
      </trkpt>
      <trkpt lat="42.71069" lon="1.65881">
        <ele>1306.7</ele>
        <time>2020-02-08T10:22:28Z</time>
      </trkpt>
      <trkpt lat="42.71069" lon="1.65881">
        <ele>1306.7</ele>
        <time>2020-02-08T10:22:29Z</time>
      </trkpt>
      <trkpt lat="42.71069" lon="1.65881">
        <ele>1306.8</ele>
        <time>2020-02-08T10:22:30Z</time>
      </trkpt>
      <trkpt lat="42.71069" lon="1.65881">
        <ele>1306.8</ele>
        <time>2020-02-08T10:22:31Z</time>
      </trkpt>
      <trkpt lat="42.71069" lon="1.6588">
        <ele>1306.9</ele>
        <time>2020-02-08T10:22:32Z</time>
      </trkpt>
      <trkpt lat="42.71069" lon="1.6588">
        <ele>1306.9</ele>
        <time>2020-02-08T10:22:33Z</time>
      </trkpt>
      <trkpt lat="42.71069" lon="1.6588">
        <ele>1306.9</ele>
        <time>2020-02-08T10:22:34Z</time>
      </trkpt>
      <trkpt lat="42.71069" lon="1.6588">
        <ele>1307</ele>
        <time>2020-02-08T10:22:35Z</time>
      </trkpt>
      <trkpt lat="42.71069" lon="1.6588">
        <ele>1307</ele>
        <time>2020-02-08T10:22:36Z</time>
      </trkpt>
      <trkpt lat="42.71069" lon="1.65879">
        <ele>1307</ele>
        <time>2020-02-08T10:22:37Z</time>
      </trkpt>
      <trkpt lat="42.71069" lon="1.65879">
        <ele>1307.1</ele>
        <time>2020-02-08T10:22:38Z</time>
      </trkpt>
      <trkpt lat="42.71069" lon="1.65879">
        <ele>1307.1</ele>
        <time>2020-02-08T10:22:39Z</time>
      </trkpt>
      <trkpt lat="42.71068" lon="1.65879">
        <ele>1307.4</ele>
        <time>2020-02-08T10:22:40Z</time>
      </trkpt>
      <trkpt lat="42.71067" lon="1.65878">
        <ele>1307.6</ele>
        <time>2020-02-08T10:22:41Z</time>
      </trkpt>
      <trkpt lat="42.71066" lon="1.65878">
        <ele>1307.8</ele>
        <time>2020-02-08T10:22:42Z</time>
      </trkpt>
      <trkpt lat="42.71065" lon="1.65878">
        <ele>1308.1</ele>
        <time>2020-02-08T10:22:43Z</time>
      </trkpt>
      <trkpt lat="42.71063" lon="1.65877">
        <ele>1308.3</ele>
        <time>2020-02-08T10:22:44Z</time>
      </trkpt>
      <trkpt lat="42.71062" lon="1.65877">
        <ele>1308.6</ele>
        <time>2020-02-08T10:22:45Z</time>
      </trkpt>
      <trkpt lat="42.71061" lon="1.65877">
        <ele>1308.8</ele>
        <time>2020-02-08T10:22:46Z</time>
      </trkpt>
      <trkpt lat="42.7106" lon="1.65877">
        <ele>1309.1</ele>
        <time>2020-02-08T10:22:47Z</time>
      </trkpt>
      <trkpt lat="42.71059" lon="1.65876">
        <ele>1309.3</ele>
        <time>2020-02-08T10:22:48Z</time>
      </trkpt>
      <trkpt lat="42.71058" lon="1.65876">
        <ele>1309.5</ele>
        <time>2020-02-08T10:22:49Z</time>
      </trkpt>
      <trkpt lat="42.71058" lon="1.65875">
        <ele>1309.6</ele>
        <time>2020-02-08T10:22:50Z</time>
      </trkpt>
      <trkpt lat="42.71058" lon="1.65875">
        <ele>1309.7</ele>
        <time>2020-02-08T10:22:51Z</time>
      </trkpt>
      <trkpt lat="42.71058" lon="1.65874">
        <ele>1309.8</ele>
        <time>2020-02-08T10:22:52Z</time>
      </trkpt>
      <trkpt lat="42.71058" lon="1.65874">
        <ele>1309.9</ele>
        <time>2020-02-08T10:22:53Z</time>
      </trkpt>
      <trkpt lat="42.71058" lon="1.65873">
        <ele>1310</ele>
        <time>2020-02-08T10:22:54Z</time>
      </trkpt>
      <trkpt lat="42.71058" lon="1.65873">
        <ele>1310.1</ele>
        <time>2020-02-08T10:22:55Z</time>
      </trkpt>
      <trkpt lat="42.71058" lon="1.65872">
        <ele>1310.2</ele>
        <time>2020-02-08T10:22:56Z</time>
      </trkpt>
      <trkpt lat="42.71058" lon="1.65871">
        <ele>1310.3</ele>
        <time>2020-02-08T10:22:57Z</time>
      </trkpt>
      <trkpt lat="42.71058" lon="1.65871">
        <ele>1310.4</ele>
        <time>2020-02-08T10:22:58Z</time>
      </trkpt>
      <trkpt lat="42.71058" lon="1.6587">
        <ele>1310.5</ele>
        <time>2020-02-08T10:22:59Z</time>
      </trkpt>
      <trkpt lat="42.71058" lon="1.6587">
        <ele>1310.6</ele>
        <time>2020-02-08T10:23:00Z</time>
      </trkpt>
      <trkpt lat="42.71058" lon="1.65869">
        <ele>1310.7</ele>
        <time>2020-02-08T10:23:01Z</time>
      </trkpt>
      <trkpt lat="42.71058" lon="1.65868">
        <ele>1310.8</ele>
        <time>2020-02-08T10:23:02Z</time>
      </trkpt>
      <trkpt lat="42.71059" lon="1.65868">
        <ele>1310.9</ele>
        <time>2020-02-08T10:23:03Z</time>
      </trkpt>
      <trkpt lat="42.71059" lon="1.65867">
        <ele>1311</ele>
        <time>2020-02-08T10:23:04Z</time>
      </trkpt>
      <trkpt lat="42.71059" lon="1.65867">
        <ele>1311.1</ele>
        <time>2020-02-08T10:23:05Z</time>
      </trkpt>
      <trkpt lat="42.71059" lon="1.65866">
        <ele>1311.2</ele>
        <time>2020-02-08T10:23:06Z</time>
      </trkpt>
      <trkpt lat="42.71059" lon="1.65866">
        <ele>1311.3</ele>
        <time>2020-02-08T10:23:07Z</time>
      </trkpt>
      <trkpt lat="42.71059" lon="1.65865">
        <ele>1311.3</ele>
        <time>2020-02-08T10:23:08Z</time>
      </trkpt>
      <trkpt lat="42.71059" lon="1.65864">
        <ele>1311.4</ele>
        <time>2020-02-08T10:23:09Z</time>
      </trkpt>
      <trkpt lat="42.71059" lon="1.65863">
        <ele>1311.7</ele>
        <time>2020-02-08T10:23:10Z</time>
      </trkpt>
      <trkpt lat="42.7106" lon="1.65862">
        <ele>1311.9</ele>
        <time>2020-02-08T10:23:11Z</time>
      </trkpt>
      <trkpt lat="42.7106" lon="1.65861">
        <ele>1312.1</ele>
        <time>2020-02-08T10:23:12Z</time>
      </trkpt>
      <trkpt lat="42.7106" lon="1.6586">
        <ele>1312.3</ele>
        <time>2020-02-08T10:23:13Z</time>
      </trkpt>
      <trkpt lat="42.71061" lon="1.65859">
        <ele>1312.5</ele>
        <time>2020-02-08T10:23:14Z</time>
      </trkpt>
      <trkpt lat="42.71061" lon="1.65857">
        <ele>1312.6</ele>
        <time>2020-02-08T10:23:15Z</time>
      </trkpt>
      <trkpt lat="42.71062" lon="1.65856">
        <ele>1312.8</ele>
        <time>2020-02-08T10:23:16Z</time>
      </trkpt>
      <trkpt lat="42.71062" lon="1.65855">
        <ele>1312.9</ele>
        <time>2020-02-08T10:23:17Z</time>
      </trkpt>
      <trkpt lat="42.71063" lon="1.65854">
        <ele>1313.1</ele>
        <time>2020-02-08T10:23:18Z</time>
      </trkpt>
      <trkpt lat="42.71063" lon="1.65853">
        <ele>1313.2</ele>
        <time>2020-02-08T10:23:19Z</time>
      </trkpt>
      <trkpt lat="42.71063" lon="1.65852">
        <ele>1313.2</ele>
        <time>2020-02-08T10:23:20Z</time>
      </trkpt>
      <trkpt lat="42.71063" lon="1.65852">
        <ele>1313.3</ele>
        <time>2020-02-08T10:23:21Z</time>
      </trkpt>
      <trkpt lat="42.71063" lon="1.65852">
        <ele>1313.3</ele>
        <time>2020-02-08T10:23:22Z</time>
      </trkpt>
      <trkpt lat="42.71062" lon="1.65852">
        <ele>1313.3</ele>
        <time>2020-02-08T10:23:23Z</time>
      </trkpt>
      <trkpt lat="42.71062" lon="1.65852">
        <ele>1313.3</ele>
        <time>2020-02-08T10:23:24Z</time>
      </trkpt>
      <trkpt lat="42.71062" lon="1.65852">
        <ele>1313.4</ele>
        <time>2020-02-08T10:23:25Z</time>
      </trkpt>
      <trkpt lat="42.71062" lon="1.65852">
        <ele>1313.4</ele>
        <time>2020-02-08T10:23:26Z</time>
      </trkpt>
      <trkpt lat="42.71062" lon="1.65851">
        <ele>1313.4</ele>
        <time>2020-02-08T10:23:27Z</time>
      </trkpt>
      <trkpt lat="42.71062" lon="1.65851">
        <ele>1313.4</ele>
        <time>2020-02-08T10:23:28Z</time>
      </trkpt>
      <trkpt lat="42.71062" lon="1.65851">
        <ele>1313.5</ele>
        <time>2020-02-08T10:23:29Z</time>
      </trkpt>
      <trkpt lat="42.71062" lon="1.65851">
        <ele>1313.5</ele>
        <time>2020-02-08T10:23:30Z</time>
      </trkpt>
      <trkpt lat="42.71062" lon="1.65851">
        <ele>1313.5</ele>
        <time>2020-02-08T10:23:31Z</time>
      </trkpt>
      <trkpt lat="42.71061" lon="1.65851">
        <ele>1313.5</ele>
        <time>2020-02-08T10:23:32Z</time>
      </trkpt>
      <trkpt lat="42.71061" lon="1.6585">
        <ele>1313.6</ele>
        <time>2020-02-08T10:23:33Z</time>
      </trkpt>
      <trkpt lat="42.71061" lon="1.6585">
        <ele>1313.6</ele>
        <time>2020-02-08T10:23:34Z</time>
      </trkpt>
      <trkpt lat="42.71061" lon="1.6585">
        <ele>1313.6</ele>
        <time>2020-02-08T10:23:35Z</time>
      </trkpt>
      <trkpt lat="42.71061" lon="1.6585">
        <ele>1313.6</ele>
        <time>2020-02-08T10:23:36Z</time>
      </trkpt>
      <trkpt lat="42.71061" lon="1.6585">
        <ele>1313.7</ele>
        <time>2020-02-08T10:23:37Z</time>
      </trkpt>
      <trkpt lat="42.71061" lon="1.6585">
        <ele>1313.7</ele>
        <time>2020-02-08T10:23:38Z</time>
      </trkpt>
      <trkpt lat="42.71061" lon="1.6585">
        <ele>1313.7</ele>
        <time>2020-02-08T10:23:39Z</time>
      </trkpt>
      <trkpt lat="42.7106" lon="1.65849">
        <ele>1313.7</ele>
        <time>2020-02-08T10:23:40Z</time>
      </trkpt>
      <trkpt lat="42.7106" lon="1.65849">
        <ele>1313.8</ele>
        <time>2020-02-08T10:23:41Z</time>
      </trkpt>
      <trkpt lat="42.7106" lon="1.65849">
        <ele>1313.8</ele>
        <time>2020-02-08T10:23:42Z</time>
      </trkpt>
      <trkpt lat="42.7106" lon="1.65849">
        <ele>1313.8</ele>
        <time>2020-02-08T10:23:43Z</time>
      </trkpt>
      <trkpt lat="42.7106" lon="1.65849">
        <ele>1313.9</ele>
        <time>2020-02-08T10:23:44Z</time>
      </trkpt>
      <trkpt lat="42.7106" lon="1.65849">
        <ele>1313.9</ele>
        <time>2020-02-08T10:23:45Z</time>
      </trkpt>
      <trkpt lat="42.7106" lon="1.65849">
        <ele>1313.9</ele>
        <time>2020-02-08T10:23:46Z</time>
      </trkpt>
      <trkpt lat="42.7106" lon="1.65848">
        <ele>1313.9</ele>
        <time>2020-02-08T10:23:47Z</time>
      </trkpt>
      <trkpt lat="42.71059" lon="1.65848">
        <ele>1314</ele>
        <time>2020-02-08T10:23:48Z</time>
      </trkpt>
      <trkpt lat="42.71059" lon="1.65848">
        <ele>1314</ele>
        <time>2020-02-08T10:23:49Z</time>
      </trkpt>
      <trkpt lat="42.71059" lon="1.65848">
        <ele>1314</ele>
        <time>2020-02-08T10:23:50Z</time>
      </trkpt>
      <trkpt lat="42.71059" lon="1.65848">
        <ele>1314</ele>
        <time>2020-02-08T10:23:51Z</time>
      </trkpt>
      <trkpt lat="42.71059" lon="1.65848">
        <ele>1314.1</ele>
        <time>2020-02-08T10:23:52Z</time>
      </trkpt>
      <trkpt lat="42.71059" lon="1.65848">
        <ele>1314.1</ele>
        <time>2020-02-08T10:23:53Z</time>
      </trkpt>
      <trkpt lat="42.71059" lon="1.65847">
        <ele>1314.1</ele>
        <time>2020-02-08T10:23:54Z</time>
      </trkpt>
      <trkpt lat="42.71059" lon="1.65847">
        <ele>1314.1</ele>
        <time>2020-02-08T10:23:55Z</time>
      </trkpt>
      <trkpt lat="42.71059" lon="1.65847">
        <ele>1314.2</ele>
        <time>2020-02-08T10:23:56Z</time>
      </trkpt>
      <trkpt lat="42.71058" lon="1.65847">
        <ele>1314.2</ele>
        <time>2020-02-08T10:23:57Z</time>
      </trkpt>
      <trkpt lat="42.71058" lon="1.65847">
        <ele>1314.2</ele>
        <time>2020-02-08T10:23:58Z</time>
      </trkpt>
      <trkpt lat="42.71058" lon="1.65847">
        <ele>1314.2</ele>
        <time>2020-02-08T10:23:59Z</time>
      </trkpt>
      <trkpt lat="42.71058" lon="1.65847">
        <ele>1314.3</ele>
        <time>2020-02-08T10:24:00Z</time>
      </trkpt>
      <trkpt lat="42.71058" lon="1.65846">
        <ele>1314.3</ele>
        <time>2020-02-08T10:24:01Z</time>
      </trkpt>
      <trkpt lat="42.71058" lon="1.65846">
        <ele>1314.3</ele>
        <time>2020-02-08T10:24:02Z</time>
      </trkpt>
      <trkpt lat="42.71058" lon="1.65846">
        <ele>1314.3</ele>
        <time>2020-02-08T10:24:03Z</time>
      </trkpt>
      <trkpt lat="42.71058" lon="1.65846">
        <ele>1314.4</ele>
        <time>2020-02-08T10:24:04Z</time>
      </trkpt>
      <trkpt lat="42.71057" lon="1.65846">
        <ele>1314.4</ele>
        <time>2020-02-08T10:24:05Z</time>
      </trkpt>
      <trkpt lat="42.71057" lon="1.65846">
        <ele>1314.4</ele>
        <time>2020-02-08T10:24:06Z</time>
      </trkpt>
      <trkpt lat="42.71057" lon="1.65846">
        <ele>1314.4</ele>
        <time>2020-02-08T10:24:07Z</time>
      </trkpt>
      <trkpt lat="42.71057" lon="1.65845">
        <ele>1314.5</ele>
        <time>2020-02-08T10:24:08Z</time>
      </trkpt>
      <trkpt lat="42.71057" lon="1.65845">
        <ele>1314.5</ele>
        <time>2020-02-08T10:24:09Z</time>
      </trkpt>
      <trkpt lat="42.71057" lon="1.65845">
        <ele>1314.5</ele>
        <time>2020-02-08T10:24:10Z</time>
      </trkpt>
      <trkpt lat="42.71057" lon="1.65845">
        <ele>1314.5</ele>
        <time>2020-02-08T10:24:11Z</time>
      </trkpt>
      <trkpt lat="42.71057" lon="1.65845">
        <ele>1314.6</ele>
        <time>2020-02-08T10:24:12Z</time>
      </trkpt>
      <trkpt lat="42.71056" lon="1.65845">
        <ele>1314.6</ele>
        <time>2020-02-08T10:24:13Z</time>
      </trkpt>
      <trkpt lat="42.71056" lon="1.65844">
        <ele>1314.6</ele>
        <time>2020-02-08T10:24:14Z</time>
      </trkpt>
      <trkpt lat="42.71056" lon="1.65844">
        <ele>1314.6</ele>
        <time>2020-02-08T10:24:15Z</time>
      </trkpt>
      <trkpt lat="42.71056" lon="1.65844">
        <ele>1314.7</ele>
        <time>2020-02-08T10:24:16Z</time>
      </trkpt>
      <trkpt lat="42.71056" lon="1.65844">
        <ele>1314.7</ele>
        <time>2020-02-08T10:24:17Z</time>
      </trkpt>
      <trkpt lat="42.71056" lon="1.65844">
        <ele>1314.7</ele>
        <time>2020-02-08T10:24:18Z</time>
      </trkpt>
      <trkpt lat="42.71056" lon="1.65844">
        <ele>1314.7</ele>
        <time>2020-02-08T10:24:19Z</time>
      </trkpt>
      <trkpt lat="42.71056" lon="1.65844">
        <ele>1314.8</ele>
        <time>2020-02-08T10:24:20Z</time>
      </trkpt>
      <trkpt lat="42.71056" lon="1.65844">
        <ele>1314.8</ele>
        <time>2020-02-08T10:24:21Z</time>
      </trkpt>
      <trkpt lat="42.71056" lon="1.65844">
        <ele>1314.8</ele>
        <time>2020-02-08T10:24:22Z</time>
      </trkpt>
      <trkpt lat="42.71056" lon="1.65844">
        <ele>1314.9</ele>
        <time>2020-02-08T10:24:23Z</time>
      </trkpt>
      <trkpt lat="42.71057" lon="1.65844">
        <ele>1314.9</ele>
        <time>2020-02-08T10:24:24Z</time>
      </trkpt>
      <trkpt lat="42.71057" lon="1.65844">
        <ele>1314.9</ele>
        <time>2020-02-08T10:24:25Z</time>
      </trkpt>
      <trkpt lat="42.71057" lon="1.65844">
        <ele>1314.9</ele>
        <time>2020-02-08T10:24:26Z</time>
      </trkpt>
      <trkpt lat="42.71057" lon="1.65844">
        <ele>1314.9</ele>
        <time>2020-02-08T10:24:27Z</time>
      </trkpt>
      <trkpt lat="42.71057" lon="1.65844">
        <ele>1315</ele>
        <time>2020-02-08T10:24:28Z</time>
      </trkpt>
      <trkpt lat="42.71057" lon="1.65844">
        <ele>1315</ele>
        <time>2020-02-08T10:24:29Z</time>
      </trkpt>
      <trkpt lat="42.71058" lon="1.65844">
        <ele>1315</ele>
        <time>2020-02-08T10:24:30Z</time>
      </trkpt>
      <trkpt lat="42.71058" lon="1.65844">
        <ele>1315.1</ele>
        <time>2020-02-08T10:24:31Z</time>
      </trkpt>
      <trkpt lat="42.71058" lon="1.65844">
        <ele>1315.1</ele>
        <time>2020-02-08T10:24:32Z</time>
      </trkpt>
      <trkpt lat="42.71058" lon="1.65844">
        <ele>1315.1</ele>
        <time>2020-02-08T10:24:33Z</time>
      </trkpt>
      <trkpt lat="42.71058" lon="1.65844">
        <ele>1315.1</ele>
        <time>2020-02-08T10:24:34Z</time>
      </trkpt>
      <trkpt lat="42.71058" lon="1.65843">
        <ele>1315.2</ele>
        <time>2020-02-08T10:24:35Z</time>
      </trkpt>
      <trkpt lat="42.71059" lon="1.65843">
        <ele>1315.2</ele>
        <time>2020-02-08T10:24:36Z</time>
      </trkpt>
      <trkpt lat="42.71059" lon="1.65843">
        <ele>1315.2</ele>
        <time>2020-02-08T10:24:37Z</time>
      </trkpt>
      <trkpt lat="42.71059" lon="1.65843">
        <ele>1315.2</ele>
        <time>2020-02-08T10:24:38Z</time>
      </trkpt>
      <trkpt lat="42.71059" lon="1.65843">
        <ele>1315.3</ele>
        <time>2020-02-08T10:24:39Z</time>
      </trkpt>
      <trkpt lat="42.71059" lon="1.65843">
        <ele>1315.3</ele>
        <time>2020-02-08T10:24:40Z</time>
      </trkpt>
      <trkpt lat="42.71059" lon="1.65843">
        <ele>1315.3</ele>
        <time>2020-02-08T10:24:41Z</time>
      </trkpt>
      <trkpt lat="42.7106" lon="1.65843">
        <ele>1315.3</ele>
        <time>2020-02-08T10:24:42Z</time>
      </trkpt>
      <trkpt lat="42.7106" lon="1.65843">
        <ele>1315.4</ele>
        <time>2020-02-08T10:24:43Z</time>
      </trkpt>
      <trkpt lat="42.7106" lon="1.65843">
        <ele>1315.4</ele>
        <time>2020-02-08T10:24:44Z</time>
      </trkpt>
      <trkpt lat="42.7106" lon="1.65843">
        <ele>1315.4</ele>
        <time>2020-02-08T10:24:45Z</time>
      </trkpt>
      <trkpt lat="42.7106" lon="1.65843">
        <ele>1315.4</ele>
        <time>2020-02-08T10:24:46Z</time>
      </trkpt>
      <trkpt lat="42.7106" lon="1.65843">
        <ele>1315.5</ele>
        <time>2020-02-08T10:24:47Z</time>
      </trkpt>
      <trkpt lat="42.7106" lon="1.65843">
        <ele>1315.5</ele>
        <time>2020-02-08T10:24:48Z</time>
      </trkpt>
      <trkpt lat="42.71061" lon="1.65843">
        <ele>1315.5</ele>
        <time>2020-02-08T10:24:49Z</time>
      </trkpt>
      <trkpt lat="42.71061" lon="1.65843">
        <ele>1315.5</ele>
        <time>2020-02-08T10:24:50Z</time>
      </trkpt>
      <trkpt lat="42.71061" lon="1.65844">
        <ele>1315.6</ele>
        <time>2020-02-08T10:24:51Z</time>
      </trkpt>
      <trkpt lat="42.7106" lon="1.65844">
        <ele>1315.6</ele>
        <time>2020-02-08T10:24:52Z</time>
      </trkpt>
      <trkpt lat="42.7106" lon="1.65844">
        <ele>1315.6</ele>
        <time>2020-02-08T10:24:53Z</time>
      </trkpt>
      <trkpt lat="42.7106" lon="1.65844">
        <ele>1315.6</ele>
        <time>2020-02-08T10:24:54Z</time>
      </trkpt>
      <trkpt lat="42.7106" lon="1.65844">
        <ele>1315.6</ele>
        <time>2020-02-08T10:24:55Z</time>
      </trkpt>
      <trkpt lat="42.7106" lon="1.65844">
        <ele>1315.7</ele>
        <time>2020-02-08T10:24:56Z</time>
      </trkpt>
      <trkpt lat="42.7106" lon="1.65844">
        <ele>1315.7</ele>
        <time>2020-02-08T10:24:57Z</time>
      </trkpt>
      <trkpt lat="42.7106" lon="1.65845">
        <ele>1315.7</ele>
        <time>2020-02-08T10:24:58Z</time>
      </trkpt>
      <trkpt lat="42.7106" lon="1.65845">
        <ele>1315.7</ele>
        <time>2020-02-08T10:24:59Z</time>
      </trkpt>
      <trkpt lat="42.7106" lon="1.65845">
        <ele>1315.8</ele>
        <time>2020-02-08T10:25:00Z</time>
      </trkpt>
      <trkpt lat="42.7106" lon="1.65845">
        <ele>1315.8</ele>
        <time>2020-02-08T10:25:01Z</time>
      </trkpt>
      <trkpt lat="42.7106" lon="1.65845">
        <ele>1315.8</ele>
        <time>2020-02-08T10:25:02Z</time>
      </trkpt>
      <trkpt lat="42.7106" lon="1.65845">
        <ele>1315.8</ele>
        <time>2020-02-08T10:25:03Z</time>
      </trkpt>
      <trkpt lat="42.7106" lon="1.65846">
        <ele>1315.8</ele>
        <time>2020-02-08T10:25:04Z</time>
      </trkpt>
      <trkpt lat="42.71059" lon="1.65846">
        <ele>1315.9</ele>
        <time>2020-02-08T10:25:05Z</time>
      </trkpt>
      <trkpt lat="42.71059" lon="1.65846">
        <ele>1315.9</ele>
        <time>2020-02-08T10:25:06Z</time>
      </trkpt>
      <trkpt lat="42.71059" lon="1.65846">
        <ele>1315.9</ele>
        <time>2020-02-08T10:25:07Z</time>
      </trkpt>
      <trkpt lat="42.71059" lon="1.65846">
        <ele>1315.9</ele>
        <time>2020-02-08T10:25:08Z</time>
      </trkpt>
      <trkpt lat="42.71059" lon="1.65846">
        <ele>1315.9</ele>
        <time>2020-02-08T10:25:09Z</time>
      </trkpt>
      <trkpt lat="42.71059" lon="1.65846">
        <ele>1316</ele>
        <time>2020-02-08T10:25:10Z</time>
      </trkpt>
      <trkpt lat="42.71059" lon="1.65847">
        <ele>1316</ele>
        <time>2020-02-08T10:25:11Z</time>
      </trkpt>
      <trkpt lat="42.71059" lon="1.65847">
        <ele>1316</ele>
        <time>2020-02-08T10:25:12Z</time>
      </trkpt>
      <trkpt lat="42.71059" lon="1.65847">
        <ele>1316</ele>
        <time>2020-02-08T10:25:13Z</time>
      </trkpt>
      <trkpt lat="42.71059" lon="1.65847">
        <ele>1316.1</ele>
        <time>2020-02-08T10:25:14Z</time>
      </trkpt>
      <trkpt lat="42.71059" lon="1.65847">
        <ele>1316.1</ele>
        <time>2020-02-08T10:25:15Z</time>
      </trkpt>
      <trkpt lat="42.71059" lon="1.65847">
        <ele>1316.1</ele>
        <time>2020-02-08T10:25:16Z</time>
      </trkpt>
      <trkpt lat="42.71059" lon="1.65847">
        <ele>1316.1</ele>
        <time>2020-02-08T10:25:17Z</time>
      </trkpt>
      <trkpt lat="42.71059" lon="1.65848">
        <ele>1316.1</ele>
        <time>2020-02-08T10:25:18Z</time>
      </trkpt>
      <trkpt lat="42.71058" lon="1.65848">
        <ele>1316.2</ele>
        <time>2020-02-08T10:25:19Z</time>
      </trkpt>
      <trkpt lat="42.71058" lon="1.65848">
        <ele>1316.2</ele>
        <time>2020-02-08T10:25:20Z</time>
      </trkpt>
      <trkpt lat="42.71058" lon="1.65848">
        <ele>1316.2</ele>
        <time>2020-02-08T10:25:21Z</time>
      </trkpt>
      <trkpt lat="42.71058" lon="1.65848">
        <ele>1316.2</ele>
        <time>2020-02-08T10:25:22Z</time>
      </trkpt>
      <trkpt lat="42.71058" lon="1.65848">
        <ele>1316.2</ele>
        <time>2020-02-08T10:25:23Z</time>
      </trkpt>
      <trkpt lat="42.71058" lon="1.65849">
        <ele>1316.3</ele>
        <time>2020-02-08T10:25:24Z</time>
      </trkpt>
      <trkpt lat="42.71058" lon="1.65849">
        <ele>1316.3</ele>
        <time>2020-02-08T10:25:25Z</time>
      </trkpt>
      <trkpt lat="42.71058" lon="1.65849">
        <ele>1316.3</ele>
        <time>2020-02-08T10:25:26Z</time>
      </trkpt>
      <trkpt lat="42.71058" lon="1.65849">
        <ele>1316.3</ele>
        <time>2020-02-08T10:25:27Z</time>
      </trkpt>
      <trkpt lat="42.71058" lon="1.65849">
        <ele>1316.4</ele>
        <time>2020-02-08T10:25:28Z</time>
      </trkpt>
      <trkpt lat="42.71058" lon="1.65849">
        <ele>1316.4</ele>
        <time>2020-02-08T10:25:29Z</time>
      </trkpt>
      <trkpt lat="42.71058" lon="1.65849">
        <ele>1316.4</ele>
        <time>2020-02-08T10:25:30Z</time>
      </trkpt>
      <trkpt lat="42.71058" lon="1.6585">
        <ele>1316.4</ele>
        <time>2020-02-08T10:25:31Z</time>
      </trkpt>
      <trkpt lat="42.71058" lon="1.6585">
        <ele>1316.4</ele>
        <time>2020-02-08T10:25:32Z</time>
      </trkpt>
      <trkpt lat="42.71057" lon="1.6585">
        <ele>1316.5</ele>
        <time>2020-02-08T10:25:33Z</time>
      </trkpt>
      <trkpt lat="42.71057" lon="1.6585">
        <ele>1316.5</ele>
        <time>2020-02-08T10:25:34Z</time>
      </trkpt>
      <trkpt lat="42.71057" lon="1.6585">
        <ele>1316.5</ele>
        <time>2020-02-08T10:25:35Z</time>
      </trkpt>
      <trkpt lat="42.71057" lon="1.6585">
        <ele>1316.5</ele>
        <time>2020-02-08T10:25:36Z</time>
      </trkpt>
      <trkpt lat="42.71057" lon="1.65851">
        <ele>1316.6</ele>
        <time>2020-02-08T10:25:37Z</time>
      </trkpt>
      <trkpt lat="42.71057" lon="1.65851">
        <ele>1316.6</ele>
        <time>2020-02-08T10:25:38Z</time>
      </trkpt>
      <trkpt lat="42.71057" lon="1.65851">
        <ele>1316.6</ele>
        <time>2020-02-08T10:25:39Z</time>
      </trkpt>
      <trkpt lat="42.71057" lon="1.65851">
        <ele>1316.6</ele>
        <time>2020-02-08T10:25:40Z</time>
      </trkpt>
      <trkpt lat="42.71057" lon="1.65851">
        <ele>1316.6</ele>
        <time>2020-02-08T10:25:41Z</time>
      </trkpt>
      <trkpt lat="42.71057" lon="1.65851">
        <ele>1316.7</ele>
        <time>2020-02-08T10:25:42Z</time>
      </trkpt>
      <trkpt lat="42.71057" lon="1.65851">
        <ele>1316.7</ele>
        <time>2020-02-08T10:25:43Z</time>
      </trkpt>
      <trkpt lat="42.71057" lon="1.65852">
        <ele>1316.7</ele>
        <time>2020-02-08T10:25:44Z</time>
      </trkpt>
      <trkpt lat="42.71057" lon="1.65852">
        <ele>1316.7</ele>
        <time>2020-02-08T10:25:45Z</time>
      </trkpt>
      <trkpt lat="42.71056" lon="1.65852">
        <ele>1316.7</ele>
        <time>2020-02-08T10:25:46Z</time>
      </trkpt>
      <trkpt lat="42.71056" lon="1.65852">
        <ele>1316.8</ele>
        <time>2020-02-08T10:25:47Z</time>
      </trkpt>
      <trkpt lat="42.71056" lon="1.65852">
        <ele>1316.8</ele>
        <time>2020-02-08T10:25:48Z</time>
      </trkpt>
      <trkpt lat="42.71056" lon="1.65852">
        <ele>1316.8</ele>
        <time>2020-02-08T10:25:49Z</time>
      </trkpt>
      <trkpt lat="42.71056" lon="1.65852">
        <ele>1316.8</ele>
        <time>2020-02-08T10:25:50Z</time>
      </trkpt>
      <trkpt lat="42.71056" lon="1.65853">
        <ele>1316.9</ele>
        <time>2020-02-08T10:25:51Z</time>
      </trkpt>
      <trkpt lat="42.71056" lon="1.65853">
        <ele>1316.9</ele>
        <time>2020-02-08T10:25:52Z</time>
      </trkpt>
      <trkpt lat="42.71056" lon="1.65853">
        <ele>1316.9</ele>
        <time>2020-02-08T10:25:53Z</time>
      </trkpt>
      <trkpt lat="42.71056" lon="1.65853">
        <ele>1316.9</ele>
        <time>2020-02-08T10:25:54Z</time>
      </trkpt>
      <trkpt lat="42.71056" lon="1.65853">
        <ele>1316.9</ele>
        <time>2020-02-08T10:25:55Z</time>
      </trkpt>
      <trkpt lat="42.71056" lon="1.65853">
        <ele>1317</ele>
        <time>2020-02-08T10:25:56Z</time>
      </trkpt>
      <trkpt lat="42.71056" lon="1.65854">
        <ele>1317</ele>
        <time>2020-02-08T10:25:57Z</time>
      </trkpt>
      <trkpt lat="42.71056" lon="1.65854">
        <ele>1317</ele>
        <time>2020-02-08T10:25:58Z</time>
      </trkpt>
      <trkpt lat="42.71056" lon="1.65854">
        <ele>1317</ele>
        <time>2020-02-08T10:25:59Z</time>
      </trkpt>
      <trkpt lat="42.71055" lon="1.65854">
        <ele>1317</ele>
        <time>2020-02-08T10:26:00Z</time>
      </trkpt>
      <trkpt lat="42.71055" lon="1.65854">
        <ele>1317.1</ele>
        <time>2020-02-08T10:26:01Z</time>
      </trkpt>
      <trkpt lat="42.71055" lon="1.65854">
        <ele>1317.1</ele>
        <time>2020-02-08T10:26:02Z</time>
      </trkpt>
      <trkpt lat="42.71055" lon="1.65853">
        <ele>1317.1</ele>
        <time>2020-02-08T10:26:03Z</time>
      </trkpt>
      <trkpt lat="42.71055" lon="1.65853">
        <ele>1317.1</ele>
        <time>2020-02-08T10:26:04Z</time>
      </trkpt>
      <trkpt lat="42.71055" lon="1.65853">
        <ele>1317.1</ele>
        <time>2020-02-08T10:26:05Z</time>
      </trkpt>
      <trkpt lat="42.71055" lon="1.65853">
        <ele>1317.1</ele>
        <time>2020-02-08T10:26:06Z</time>
      </trkpt>
      <trkpt lat="42.71055" lon="1.65853">
        <ele>1317.2</ele>
        <time>2020-02-08T10:26:07Z</time>
      </trkpt>
      <trkpt lat="42.71055" lon="1.65853">
        <ele>1317.2</ele>
        <time>2020-02-08T10:26:08Z</time>
      </trkpt>
      <trkpt lat="42.71055" lon="1.65853">
        <ele>1317.2</ele>
        <time>2020-02-08T10:26:09Z</time>
      </trkpt>
      <trkpt lat="42.71055" lon="1.65853">
        <ele>1317.2</ele>
        <time>2020-02-08T10:26:10Z</time>
      </trkpt>
      <trkpt lat="42.71055" lon="1.65853">
        <ele>1317.2</ele>
        <time>2020-02-08T10:26:11Z</time>
      </trkpt>
      <trkpt lat="42.71055" lon="1.65853">
        <ele>1317.2</ele>
        <time>2020-02-08T10:26:12Z</time>
      </trkpt>
      <trkpt lat="42.71055" lon="1.65853">
        <ele>1317.3</ele>
        <time>2020-02-08T10:26:13Z</time>
      </trkpt>
      <trkpt lat="42.71055" lon="1.65852">
        <ele>1317.3</ele>
        <time>2020-02-08T10:26:14Z</time>
      </trkpt>
      <trkpt lat="42.71055" lon="1.65852">
        <ele>1317.3</ele>
        <time>2020-02-08T10:26:15Z</time>
      </trkpt>
      <trkpt lat="42.71054" lon="1.65852">
        <ele>1317.3</ele>
        <time>2020-02-08T10:26:16Z</time>
      </trkpt>
      <trkpt lat="42.71054" lon="1.65852">
        <ele>1317.3</ele>
        <time>2020-02-08T10:26:17Z</time>
      </trkpt>
      <trkpt lat="42.71054" lon="1.65852">
        <ele>1317.3</ele>
        <time>2020-02-08T10:26:18Z</time>
      </trkpt>
      <trkpt lat="42.71054" lon="1.65852">
        <ele>1317.4</ele>
        <time>2020-02-08T10:26:19Z</time>
      </trkpt>
      <trkpt lat="42.71054" lon="1.65852">
        <ele>1317.4</ele>
        <time>2020-02-08T10:26:20Z</time>
      </trkpt>
      <trkpt lat="42.71054" lon="1.65852">
        <ele>1317.4</ele>
        <time>2020-02-08T10:26:21Z</time>
      </trkpt>
      <trkpt lat="42.71054" lon="1.65852">
        <ele>1317.4</ele>
        <time>2020-02-08T10:26:22Z</time>
      </trkpt>
      <trkpt lat="42.71054" lon="1.65852">
        <ele>1317.4</ele>
        <time>2020-02-08T10:26:23Z</time>
      </trkpt>
      <trkpt lat="42.71054" lon="1.65851">
        <ele>1317.4</ele>
        <time>2020-02-08T10:26:24Z</time>
      </trkpt>
      <trkpt lat="42.71054" lon="1.65851">
        <ele>1317.5</ele>
        <time>2020-02-08T10:26:25Z</time>
      </trkpt>
      <trkpt lat="42.71054" lon="1.65851">
        <ele>1317.5</ele>
        <time>2020-02-08T10:26:26Z</time>
      </trkpt>
      <trkpt lat="42.71054" lon="1.65851">
        <ele>1317.5</ele>
        <time>2020-02-08T10:26:27Z</time>
      </trkpt>
      <trkpt lat="42.71054" lon="1.65851">
        <ele>1317.5</ele>
        <time>2020-02-08T10:26:28Z</time>
      </trkpt>
      <trkpt lat="42.71054" lon="1.65851">
        <ele>1317.5</ele>
        <time>2020-02-08T10:26:29Z</time>
      </trkpt>
      <trkpt lat="42.71054" lon="1.65851">
        <ele>1317.5</ele>
        <time>2020-02-08T10:26:30Z</time>
      </trkpt>
      <trkpt lat="42.71054" lon="1.65851">
        <ele>1317.6</ele>
        <time>2020-02-08T10:26:31Z</time>
      </trkpt>
      <trkpt lat="42.71053" lon="1.65851">
        <ele>1317.6</ele>
        <time>2020-02-08T10:26:32Z</time>
      </trkpt>
      <trkpt lat="42.71053" lon="1.65851">
        <ele>1317.6</ele>
        <time>2020-02-08T10:26:33Z</time>
      </trkpt>
      <trkpt lat="42.71053" lon="1.6585">
        <ele>1317.6</ele>
        <time>2020-02-08T10:26:34Z</time>
      </trkpt>
      <trkpt lat="42.71053" lon="1.6585">
        <ele>1317.6</ele>
        <time>2020-02-08T10:26:35Z</time>
      </trkpt>
      <trkpt lat="42.71053" lon="1.6585">
        <ele>1317.6</ele>
        <time>2020-02-08T10:26:36Z</time>
      </trkpt>
      <trkpt lat="42.71053" lon="1.6585">
        <ele>1317.6</ele>
        <time>2020-02-08T10:26:37Z</time>
      </trkpt>
      <trkpt lat="42.71053" lon="1.6585">
        <ele>1317.7</ele>
        <time>2020-02-08T10:26:38Z</time>
      </trkpt>
      <trkpt lat="42.71053" lon="1.6585">
        <ele>1317.7</ele>
        <time>2020-02-08T10:26:39Z</time>
      </trkpt>
      <trkpt lat="42.71053" lon="1.6585">
        <ele>1317.7</ele>
        <time>2020-02-08T10:26:40Z</time>
      </trkpt>
      <trkpt lat="42.71053" lon="1.6585">
        <ele>1317.7</ele>
        <time>2020-02-08T10:26:41Z</time>
      </trkpt>
      <trkpt lat="42.71053" lon="1.6585">
        <ele>1317.7</ele>
        <time>2020-02-08T10:26:42Z</time>
      </trkpt>
      <trkpt lat="42.71053" lon="1.6585">
        <ele>1317.8</ele>
        <time>2020-02-08T10:26:43Z</time>
      </trkpt>
      <trkpt lat="42.71053" lon="1.6585">
        <ele>1317.8</ele>
        <time>2020-02-08T10:26:44Z</time>
      </trkpt>
      <trkpt lat="42.71053" lon="1.65849">
        <ele>1317.8</ele>
        <time>2020-02-08T10:26:45Z</time>
      </trkpt>
      <trkpt lat="42.71053" lon="1.65849">
        <ele>1317.8</ele>
        <time>2020-02-08T10:26:46Z</time>
      </trkpt>
      <trkpt lat="42.71052" lon="1.65849">
        <ele>1317.8</ele>
        <time>2020-02-08T10:26:47Z</time>
      </trkpt>
      <trkpt lat="42.71052" lon="1.65849">
        <ele>1317.8</ele>
        <time>2020-02-08T10:26:48Z</time>
      </trkpt>
      <trkpt lat="42.71052" lon="1.65849">
        <ele>1317.9</ele>
        <time>2020-02-08T10:26:49Z</time>
      </trkpt>
      <trkpt lat="42.71053" lon="1.65849">
        <ele>1317.9</ele>
        <time>2020-02-08T10:26:50Z</time>
      </trkpt>
      <trkpt lat="42.71053" lon="1.6585">
        <ele>1318</ele>
        <time>2020-02-08T10:26:51Z</time>
      </trkpt>
      <trkpt lat="42.71054" lon="1.6585">
        <ele>1318.1</ele>
        <time>2020-02-08T10:26:52Z</time>
      </trkpt>
      <trkpt lat="42.71054" lon="1.6585">
        <ele>1318.2</ele>
        <time>2020-02-08T10:26:53Z</time>
      </trkpt>
      <trkpt lat="42.71054" lon="1.65851">
        <ele>1318.2</ele>
        <time>2020-02-08T10:26:54Z</time>
      </trkpt>
      <trkpt lat="42.71055" lon="1.65851">
        <ele>1318.3</ele>
        <time>2020-02-08T10:26:55Z</time>
      </trkpt>
      <trkpt lat="42.71055" lon="1.65851">
        <ele>1318.4</ele>
        <time>2020-02-08T10:26:56Z</time>
      </trkpt>
      <trkpt lat="42.71056" lon="1.65852">
        <ele>1318.5</ele>
        <time>2020-02-08T10:26:57Z</time>
      </trkpt>
      <trkpt lat="42.71056" lon="1.65852">
        <ele>1318.5</ele>
        <time>2020-02-08T10:26:58Z</time>
      </trkpt>
      <trkpt lat="42.71056" lon="1.65852">
        <ele>1318.6</ele>
        <time>2020-02-08T10:26:59Z</time>
      </trkpt>
      <trkpt lat="42.71057" lon="1.65853">
        <ele>1318.7</ele>
        <time>2020-02-08T10:27:00Z</time>
      </trkpt>
      <trkpt lat="42.71057" lon="1.65853">
        <ele>1318.8</ele>
        <time>2020-02-08T10:27:01Z</time>
      </trkpt>
      <trkpt lat="42.71058" lon="1.65853">
        <ele>1318.8</ele>
        <time>2020-02-08T10:27:02Z</time>
      </trkpt>
      <trkpt lat="42.71058" lon="1.65854">
        <ele>1318.9</ele>
        <time>2020-02-08T10:27:03Z</time>
      </trkpt>
      <trkpt lat="42.71058" lon="1.65854">
        <ele>1319</ele>
        <time>2020-02-08T10:27:04Z</time>
      </trkpt>
      <trkpt lat="42.71059" lon="1.65854">
        <ele>1319.1</ele>
        <time>2020-02-08T10:27:05Z</time>
      </trkpt>
      <trkpt lat="42.71059" lon="1.65855">
        <ele>1319.1</ele>
        <time>2020-02-08T10:27:06Z</time>
      </trkpt>
      <trkpt lat="42.7106" lon="1.65855">
        <ele>1319.2</ele>
        <time>2020-02-08T10:27:07Z</time>
      </trkpt>
      <trkpt lat="42.7106" lon="1.65856">
        <ele>1319.3</ele>
        <time>2020-02-08T10:27:08Z</time>
      </trkpt>
      <trkpt lat="42.7106" lon="1.65856">
        <ele>1319.4</ele>
        <time>2020-02-08T10:27:09Z</time>
      </trkpt>
      <trkpt lat="42.7106" lon="1.65855">
        <ele>1319.4</ele>
        <time>2020-02-08T10:27:10Z</time>
      </trkpt>
      <trkpt lat="42.71061" lon="1.65855">
        <ele>1319.5</ele>
        <time>2020-02-08T10:27:11Z</time>
      </trkpt>
      <trkpt lat="42.71061" lon="1.65855">
        <ele>1319.5</ele>
        <time>2020-02-08T10:27:12Z</time>
      </trkpt>
      <trkpt lat="42.71061" lon="1.65854">
        <ele>1319.6</ele>
        <time>2020-02-08T10:27:13Z</time>
      </trkpt>
      <trkpt lat="42.71061" lon="1.65854">
        <ele>1319.6</ele>
        <time>2020-02-08T10:27:14Z</time>
      </trkpt>
      <trkpt lat="42.71061" lon="1.65854">
        <ele>1319.7</ele>
        <time>2020-02-08T10:27:15Z</time>
      </trkpt>
      <trkpt lat="42.71061" lon="1.65853">
        <ele>1319.7</ele>
        <time>2020-02-08T10:27:16Z</time>
      </trkpt>
      <trkpt lat="42.71061" lon="1.65853">
        <ele>1319.8</ele>
        <time>2020-02-08T10:27:17Z</time>
      </trkpt>
      <trkpt lat="42.71061" lon="1.65852">
        <ele>1319.8</ele>
        <time>2020-02-08T10:27:18Z</time>
      </trkpt>
      <trkpt lat="42.71061" lon="1.65852">
        <ele>1319.9</ele>
        <time>2020-02-08T10:27:19Z</time>
      </trkpt>
      <trkpt lat="42.71062" lon="1.65852">
        <ele>1319.9</ele>
        <time>2020-02-08T10:27:20Z</time>
      </trkpt>
      <trkpt lat="42.71062" lon="1.65851">
        <ele>1320</ele>
        <time>2020-02-08T10:27:21Z</time>
      </trkpt>
      <trkpt lat="42.71062" lon="1.65851">
        <ele>1320</ele>
        <time>2020-02-08T10:27:22Z</time>
      </trkpt>
      <trkpt lat="42.71062" lon="1.6585">
        <ele>1320.1</ele>
        <time>2020-02-08T10:27:23Z</time>
      </trkpt>
      <trkpt lat="42.71062" lon="1.6585">
        <ele>1320.1</ele>
        <time>2020-02-08T10:27:24Z</time>
      </trkpt>
      <trkpt lat="42.71062" lon="1.6585">
        <ele>1320.2</ele>
        <time>2020-02-08T10:27:25Z</time>
      </trkpt>
      <trkpt lat="42.71062" lon="1.65849">
        <ele>1320.2</ele>
        <time>2020-02-08T10:27:26Z</time>
      </trkpt>
      <trkpt lat="42.71062" lon="1.65849">
        <ele>1320.3</ele>
        <time>2020-02-08T10:27:27Z</time>
      </trkpt>
      <trkpt lat="42.71063" lon="1.65849">
        <ele>1320.3</ele>
        <time>2020-02-08T10:27:28Z</time>
      </trkpt>
      <trkpt lat="42.71063" lon="1.65848">
        <ele>1320.4</ele>
        <time>2020-02-08T10:27:29Z</time>
      </trkpt>
      <trkpt lat="42.71063" lon="1.65848">
        <ele>1320.4</ele>
        <time>2020-02-08T10:27:30Z</time>
      </trkpt>
      <trkpt lat="42.71063" lon="1.65847">
        <ele>1320.5</ele>
        <time>2020-02-08T10:27:31Z</time>
      </trkpt>
      <trkpt lat="42.71063" lon="1.65847">
        <ele>1320.5</ele>
        <time>2020-02-08T10:27:32Z</time>
      </trkpt>
      <trkpt lat="42.71063" lon="1.65847">
        <ele>1320.6</ele>
        <time>2020-02-08T10:27:33Z</time>
      </trkpt>
      <trkpt lat="42.71063" lon="1.65846">
        <ele>1320.6</ele>
        <time>2020-02-08T10:27:34Z</time>
      </trkpt>
      <trkpt lat="42.71063" lon="1.65846">
        <ele>1320.7</ele>
        <time>2020-02-08T10:27:35Z</time>
      </trkpt>
      <trkpt lat="42.71063" lon="1.65845">
        <ele>1320.7</ele>
        <time>2020-02-08T10:27:36Z</time>
      </trkpt>
      <trkpt lat="42.71064" lon="1.65845">
        <ele>1320.8</ele>
        <time>2020-02-08T10:27:37Z</time>
      </trkpt>
      <trkpt lat="42.71064" lon="1.65845">
        <ele>1320.8</ele>
        <time>2020-02-08T10:27:38Z</time>
      </trkpt>
      <trkpt lat="42.71064" lon="1.65844">
        <ele>1320.9</ele>
        <time>2020-02-08T10:27:39Z</time>
      </trkpt>
      <trkpt lat="42.71064" lon="1.65844">
        <ele>1320.9</ele>
        <time>2020-02-08T10:27:40Z</time>
      </trkpt>
      <trkpt lat="42.71064" lon="1.65844">
        <ele>1320.9</ele>
        <time>2020-02-08T10:27:41Z</time>
      </trkpt>
      <trkpt lat="42.71064" lon="1.65844">
        <ele>1320.9</ele>
        <time>2020-02-08T10:27:42Z</time>
      </trkpt>
      <trkpt lat="42.71064" lon="1.65845">
        <ele>1321</ele>
        <time>2020-02-08T10:27:43Z</time>
      </trkpt>
      <trkpt lat="42.71065" lon="1.65845">
        <ele>1321</ele>
        <time>2020-02-08T10:27:44Z</time>
      </trkpt>
      <trkpt lat="42.71065" lon="1.65845">
        <ele>1321</ele>
        <time>2020-02-08T10:27:45Z</time>
      </trkpt>
      <trkpt lat="42.71065" lon="1.65845">
        <ele>1321.1</ele>
        <time>2020-02-08T10:27:46Z</time>
      </trkpt>
      <trkpt lat="42.71065" lon="1.65845">
        <ele>1321.1</ele>
        <time>2020-02-08T10:27:47Z</time>
      </trkpt>
      <trkpt lat="42.71065" lon="1.65845">
        <ele>1321.1</ele>
        <time>2020-02-08T10:27:48Z</time>
      </trkpt>
      <trkpt lat="42.71065" lon="1.65845">
        <ele>1321.1</ele>
        <time>2020-02-08T10:27:49Z</time>
      </trkpt>
      <trkpt lat="42.71066" lon="1.65845">
        <ele>1321.2</ele>
        <time>2020-02-08T10:27:50Z</time>
      </trkpt>
      <trkpt lat="42.71066" lon="1.65845">
        <ele>1321.2</ele>
        <time>2020-02-08T10:27:51Z</time>
      </trkpt>
      <trkpt lat="42.71066" lon="1.65845">
        <ele>1321.2</ele>
        <time>2020-02-08T10:27:52Z</time>
      </trkpt>
      <trkpt lat="42.71066" lon="1.65845">
        <ele>1321.3</ele>
        <time>2020-02-08T10:27:53Z</time>
      </trkpt>
      <trkpt lat="42.71066" lon="1.65845">
        <ele>1321.3</ele>
        <time>2020-02-08T10:27:54Z</time>
      </trkpt>
      <trkpt lat="42.71067" lon="1.65845">
        <ele>1321.3</ele>
        <time>2020-02-08T10:27:55Z</time>
      </trkpt>
      <trkpt lat="42.71067" lon="1.65845">
        <ele>1321.3</ele>
        <time>2020-02-08T10:27:56Z</time>
      </trkpt>
      <trkpt lat="42.71067" lon="1.65845">
        <ele>1321.4</ele>
        <time>2020-02-08T10:27:57Z</time>
      </trkpt>
      <trkpt lat="42.71067" lon="1.65846">
        <ele>1321.4</ele>
        <time>2020-02-08T10:27:58Z</time>
      </trkpt>
      <trkpt lat="42.71067" lon="1.65846">
        <ele>1321.4</ele>
        <time>2020-02-08T10:27:59Z</time>
      </trkpt>
      <trkpt lat="42.71067" lon="1.65846">
        <ele>1321.5</ele>
        <time>2020-02-08T10:28:00Z</time>
      </trkpt>
      <trkpt lat="42.71068" lon="1.65846">
        <ele>1321.5</ele>
        <time>2020-02-08T10:28:01Z</time>
      </trkpt>
      <trkpt lat="42.71068" lon="1.65846">
        <ele>1321.5</ele>
        <time>2020-02-08T10:28:02Z</time>
      </trkpt>
      <trkpt lat="42.71068" lon="1.65846">
        <ele>1321.5</ele>
        <time>2020-02-08T10:28:03Z</time>
      </trkpt>
      <trkpt lat="42.71068" lon="1.65846">
        <ele>1321.6</ele>
        <time>2020-02-08T10:28:04Z</time>
      </trkpt>
      <trkpt lat="42.71068" lon="1.65846">
        <ele>1321.6</ele>
        <time>2020-02-08T10:28:05Z</time>
      </trkpt>
      <trkpt lat="42.71068" lon="1.65846">
        <ele>1321.6</ele>
        <time>2020-02-08T10:28:06Z</time>
      </trkpt>
      <trkpt lat="42.71069" lon="1.65846">
        <ele>1321.7</ele>
        <time>2020-02-08T10:28:07Z</time>
      </trkpt>
      <trkpt lat="42.71069" lon="1.65846">
        <ele>1321.7</ele>
        <time>2020-02-08T10:28:08Z</time>
      </trkpt>
      <trkpt lat="42.71069" lon="1.65846">
        <ele>1321.7</ele>
        <time>2020-02-08T10:28:09Z</time>
      </trkpt>
      <trkpt lat="42.71069" lon="1.65846">
        <ele>1321.8</ele>
        <time>2020-02-08T10:28:10Z</time>
      </trkpt>
      <trkpt lat="42.71069" lon="1.65846">
        <ele>1321.8</ele>
        <time>2020-02-08T10:28:11Z</time>
      </trkpt>
      <trkpt lat="42.71069" lon="1.65846">
        <ele>1321.8</ele>
        <time>2020-02-08T10:28:12Z</time>
      </trkpt>
      <trkpt lat="42.7107" lon="1.65846">
        <ele>1321.8</ele>
        <time>2020-02-08T10:28:13Z</time>
      </trkpt>
      <trkpt lat="42.7107" lon="1.65847">
        <ele>1321.9</ele>
        <time>2020-02-08T10:28:14Z</time>
      </trkpt>
      <trkpt lat="42.7107" lon="1.65847">
        <ele>1321.9</ele>
        <time>2020-02-08T10:28:15Z</time>
      </trkpt>
      <trkpt lat="42.7107" lon="1.65847">
        <ele>1321.9</ele>
        <time>2020-02-08T10:28:16Z</time>
      </trkpt>
      <trkpt lat="42.7107" lon="1.65847">
        <ele>1321.9</ele>
        <time>2020-02-08T10:28:17Z</time>
      </trkpt>
      <trkpt lat="42.7107" lon="1.65847">
        <ele>1322</ele>
        <time>2020-02-08T10:28:18Z</time>
      </trkpt>
      <trkpt lat="42.71071" lon="1.65847">
        <ele>1322</ele>
        <time>2020-02-08T10:28:19Z</time>
      </trkpt>
      <trkpt lat="42.71071" lon="1.65847">
        <ele>1322</ele>
        <time>2020-02-08T10:28:20Z</time>
      </trkpt>
      <trkpt lat="42.71071" lon="1.65847">
        <ele>1322</ele>
        <time>2020-02-08T10:28:21Z</time>
      </trkpt>
      <trkpt lat="42.71071" lon="1.65847">
        <ele>1322</ele>
        <time>2020-02-08T10:28:22Z</time>
      </trkpt>
      <trkpt lat="42.71071" lon="1.65847">
        <ele>1322.1</ele>
        <time>2020-02-08T10:28:23Z</time>
      </trkpt>
      <trkpt lat="42.71071" lon="1.65847">
        <ele>1322.1</ele>
        <time>2020-02-08T10:28:24Z</time>
      </trkpt>
      <trkpt lat="42.71072" lon="1.65847">
        <ele>1322.1</ele>
        <time>2020-02-08T10:28:25Z</time>
      </trkpt>
      <trkpt lat="42.71072" lon="1.65847">
        <ele>1322.1</ele>
        <time>2020-02-08T10:28:26Z</time>
      </trkpt>
      <trkpt lat="42.71072" lon="1.65847">
        <ele>1322.2</ele>
        <time>2020-02-08T10:28:27Z</time>
      </trkpt>
      <trkpt lat="42.71072" lon="1.65847">
        <ele>1322.2</ele>
        <time>2020-02-08T10:28:28Z</time>
      </trkpt>
      <trkpt lat="42.71072" lon="1.65848">
        <ele>1322.2</ele>
        <time>2020-02-08T10:28:29Z</time>
      </trkpt>
      <trkpt lat="42.71073" lon="1.65848">
        <ele>1322.2</ele>
        <time>2020-02-08T10:28:30Z</time>
      </trkpt>
      <trkpt lat="42.71073" lon="1.65848">
        <ele>1322.3</ele>
        <time>2020-02-08T10:28:31Z</time>
      </trkpt>
      <trkpt lat="42.71073" lon="1.65848">
        <ele>1322.3</ele>
        <time>2020-02-08T10:28:32Z</time>
      </trkpt>
      <trkpt lat="42.71073" lon="1.65848">
        <ele>1322.3</ele>
        <time>2020-02-08T10:28:33Z</time>
      </trkpt>
      <trkpt lat="42.71074" lon="1.65848">
        <ele>1322.3</ele>
        <time>2020-02-08T10:28:34Z</time>
      </trkpt>
      <trkpt lat="42.71074" lon="1.65848">
        <ele>1322.4</ele>
        <time>2020-02-08T10:28:35Z</time>
      </trkpt>
      <trkpt lat="42.71074" lon="1.65848">
        <ele>1322.4</ele>
        <time>2020-02-08T10:28:36Z</time>
      </trkpt>
      <trkpt lat="42.71074" lon="1.65848">
        <ele>1322.4</ele>
        <time>2020-02-08T10:28:37Z</time>
      </trkpt>
      <trkpt lat="42.71074" lon="1.65848">
        <ele>1322.5</ele>
        <time>2020-02-08T10:28:38Z</time>
      </trkpt>
      <trkpt lat="42.71075" lon="1.65848">
        <ele>1322.5</ele>
        <time>2020-02-08T10:28:39Z</time>
      </trkpt>
      <trkpt lat="42.71075" lon="1.65848">
        <ele>1322.5</ele>
        <time>2020-02-08T10:28:40Z</time>
      </trkpt>
      <trkpt lat="42.71075" lon="1.65848">
        <ele>1322.5</ele>
        <time>2020-02-08T10:28:41Z</time>
      </trkpt>
      <trkpt lat="42.71075" lon="1.65848">
        <ele>1322.6</ele>
        <time>2020-02-08T10:28:42Z</time>
      </trkpt>
      <trkpt lat="42.71076" lon="1.65848">
        <ele>1322.6</ele>
        <time>2020-02-08T10:28:43Z</time>
      </trkpt>
      <trkpt lat="42.71076" lon="1.65849">
        <ele>1322.6</ele>
        <time>2020-02-08T10:28:44Z</time>
      </trkpt>
      <trkpt lat="42.71076" lon="1.65849">
        <ele>1322.7</ele>
        <time>2020-02-08T10:28:45Z</time>
      </trkpt>
      <trkpt lat="42.71076" lon="1.65849">
        <ele>1322.7</ele>
        <time>2020-02-08T10:28:46Z</time>
      </trkpt>
      <trkpt lat="42.71076" lon="1.65849">
        <ele>1322.7</ele>
        <time>2020-02-08T10:28:47Z</time>
      </trkpt>
      <trkpt lat="42.71077" lon="1.65849">
        <ele>1322.7</ele>
        <time>2020-02-08T10:28:48Z</time>
      </trkpt>
      <trkpt lat="42.71077" lon="1.65849">
        <ele>1322.8</ele>
        <time>2020-02-08T10:28:49Z</time>
      </trkpt>
      <trkpt lat="42.71077" lon="1.65849">
        <ele>1322.8</ele>
        <time>2020-02-08T10:28:50Z</time>
      </trkpt>
      <trkpt lat="42.71077" lon="1.65849">
        <ele>1322.8</ele>
        <time>2020-02-08T10:28:51Z</time>
      </trkpt>
      <trkpt lat="42.71078" lon="1.65849">
        <ele>1322.9</ele>
        <time>2020-02-08T10:28:52Z</time>
      </trkpt>
      <trkpt lat="42.71078" lon="1.65849">
        <ele>1322.9</ele>
        <time>2020-02-08T10:28:53Z</time>
      </trkpt>
      <trkpt lat="42.71078" lon="1.65849">
        <ele>1322.9</ele>
        <time>2020-02-08T10:28:54Z</time>
      </trkpt>
      <trkpt lat="42.71078" lon="1.65849">
        <ele>1322.9</ele>
        <time>2020-02-08T10:28:55Z</time>
      </trkpt>
      <trkpt lat="42.71079" lon="1.65849">
        <ele>1323</ele>
        <time>2020-02-08T10:28:56Z</time>
      </trkpt>
      <trkpt lat="42.71079" lon="1.65849">
        <ele>1323</ele>
        <time>2020-02-08T10:28:57Z</time>
      </trkpt>
      <trkpt lat="42.71079" lon="1.6585">
        <ele>1323</ele>
        <time>2020-02-08T10:28:58Z</time>
      </trkpt>
      <trkpt lat="42.71079" lon="1.6585">
        <ele>1323.1</ele>
        <time>2020-02-08T10:28:59Z</time>
      </trkpt>
      <trkpt lat="42.71079" lon="1.6585">
        <ele>1323.1</ele>
        <time>2020-02-08T10:29:00Z</time>
      </trkpt>
      <trkpt lat="42.7108" lon="1.6585">
        <ele>1323.1</ele>
        <time>2020-02-08T10:29:01Z</time>
      </trkpt>
      <trkpt lat="42.7108" lon="1.6585">
        <ele>1323.1</ele>
        <time>2020-02-08T10:29:02Z</time>
      </trkpt>
      <trkpt lat="42.7108" lon="1.6585">
        <ele>1323.2</ele>
        <time>2020-02-08T10:29:03Z</time>
      </trkpt>
      <trkpt lat="42.7108" lon="1.6585">
        <ele>1323.2</ele>
        <time>2020-02-08T10:29:04Z</time>
      </trkpt>
      <trkpt lat="42.71081" lon="1.6585">
        <ele>1323.2</ele>
        <time>2020-02-08T10:29:05Z</time>
      </trkpt>
      <trkpt lat="42.71081" lon="1.6585">
        <ele>1323.3</ele>
        <time>2020-02-08T10:29:06Z</time>
      </trkpt>
      <trkpt lat="42.71081" lon="1.6585">
        <ele>1323.3</ele>
        <time>2020-02-08T10:29:07Z</time>
      </trkpt>
      <trkpt lat="42.71081" lon="1.6585">
        <ele>1323.3</ele>
        <time>2020-02-08T10:29:08Z</time>
      </trkpt>
      <trkpt lat="42.71082" lon="1.6585">
        <ele>1323.3</ele>
        <time>2020-02-08T10:29:09Z</time>
      </trkpt>
      <trkpt lat="42.71082" lon="1.6585">
        <ele>1323.3</ele>
        <time>2020-02-08T10:29:10Z</time>
      </trkpt>
      <trkpt lat="42.71082" lon="1.6585">
        <ele>1323.3</ele>
        <time>2020-02-08T10:29:11Z</time>
      </trkpt>
      <trkpt lat="42.71082" lon="1.6585">
        <ele>1323.4</ele>
        <time>2020-02-08T10:29:12Z</time>
      </trkpt>
      <trkpt lat="42.71081" lon="1.6585">
        <ele>1323.4</ele>
        <time>2020-02-08T10:29:13Z</time>
      </trkpt>
      <trkpt lat="42.71081" lon="1.6585">
        <ele>1323.4</ele>
        <time>2020-02-08T10:29:14Z</time>
      </trkpt>
      <trkpt lat="42.71081" lon="1.6585">
        <ele>1323.4</ele>
        <time>2020-02-08T10:29:15Z</time>
      </trkpt>
      <trkpt lat="42.71081" lon="1.6585">
        <ele>1323.4</ele>
        <time>2020-02-08T10:29:16Z</time>
      </trkpt>
      <trkpt lat="42.71081" lon="1.6585">
        <ele>1323.4</ele>
        <time>2020-02-08T10:29:17Z</time>
      </trkpt>
      <trkpt lat="42.71081" lon="1.6585">
        <ele>1323.4</ele>
        <time>2020-02-08T10:29:18Z</time>
      </trkpt>
      <trkpt lat="42.71081" lon="1.6585">
        <ele>1323.4</ele>
        <time>2020-02-08T10:29:19Z</time>
      </trkpt>
      <trkpt lat="42.71081" lon="1.6585">
        <ele>1323.4</ele>
        <time>2020-02-08T10:29:20Z</time>
      </trkpt>
      <trkpt lat="42.71081" lon="1.6585">
        <ele>1323.4</ele>
        <time>2020-02-08T10:29:21Z</time>
      </trkpt>
      <trkpt lat="42.71081" lon="1.65849">
        <ele>1323.4</ele>
        <time>2020-02-08T10:29:22Z</time>
      </trkpt>
      <trkpt lat="42.71081" lon="1.65849">
        <ele>1323.4</ele>
        <time>2020-02-08T10:29:23Z</time>
      </trkpt>
      <trkpt lat="42.71081" lon="1.65849">
        <ele>1323.4</ele>
        <time>2020-02-08T10:29:24Z</time>
      </trkpt>
      <trkpt lat="42.71081" lon="1.65849">
        <ele>1323.5</ele>
        <time>2020-02-08T10:29:25Z</time>
      </trkpt>
      <trkpt lat="42.71081" lon="1.65849">
        <ele>1323.5</ele>
        <time>2020-02-08T10:29:26Z</time>
      </trkpt>
      <trkpt lat="42.71081" lon="1.65849">
        <ele>1323.5</ele>
        <time>2020-02-08T10:29:27Z</time>
      </trkpt>
      <trkpt lat="42.71081" lon="1.65849">
        <ele>1323.5</ele>
        <time>2020-02-08T10:29:28Z</time>
      </trkpt>
      <trkpt lat="42.71081" lon="1.65849">
        <ele>1323.5</ele>
        <time>2020-02-08T10:29:29Z</time>
      </trkpt>
      <trkpt lat="42.71081" lon="1.65849">
        <ele>1323.5</ele>
        <time>2020-02-08T10:29:30Z</time>
      </trkpt>
      <trkpt lat="42.71081" lon="1.65849">
        <ele>1323.5</ele>
        <time>2020-02-08T10:29:31Z</time>
      </trkpt>
      <trkpt lat="42.71081" lon="1.65849">
        <ele>1323.5</ele>
        <time>2020-02-08T10:29:32Z</time>
      </trkpt>
      <trkpt lat="42.71081" lon="1.65849">
        <ele>1323.5</ele>
        <time>2020-02-08T10:29:33Z</time>
      </trkpt>
      <trkpt lat="42.71081" lon="1.65849">
        <ele>1323.5</ele>
        <time>2020-02-08T10:29:34Z</time>
      </trkpt>
      <trkpt lat="42.71081" lon="1.65849">
        <ele>1323.5</ele>
        <time>2020-02-08T10:29:35Z</time>
      </trkpt>
      <trkpt lat="42.71081" lon="1.65849">
        <ele>1323.5</ele>
        <time>2020-02-08T10:29:36Z</time>
      </trkpt>
      <trkpt lat="42.71081" lon="1.65849">
        <ele>1323.5</ele>
        <time>2020-02-08T10:29:37Z</time>
      </trkpt>
      <trkpt lat="42.71081" lon="1.65849">
        <ele>1323.5</ele>
        <time>2020-02-08T10:29:38Z</time>
      </trkpt>
      <trkpt lat="42.71081" lon="1.65848">
        <ele>1323.5</ele>
        <time>2020-02-08T10:29:39Z</time>
      </trkpt>
      <trkpt lat="42.71081" lon="1.65848">
        <ele>1323.5</ele>
        <time>2020-02-08T10:29:40Z</time>
      </trkpt>
      <trkpt lat="42.71081" lon="1.65848">
        <ele>1323.6</ele>
        <time>2020-02-08T10:29:41Z</time>
      </trkpt>
      <trkpt lat="42.71081" lon="1.65848">
        <ele>1323.6</ele>
        <time>2020-02-08T10:29:42Z</time>
      </trkpt>
      <trkpt lat="42.71081" lon="1.65848">
        <ele>1323.6</ele>
        <time>2020-02-08T10:29:43Z</time>
      </trkpt>
      <trkpt lat="42.71081" lon="1.65848">
        <ele>1323.6</ele>
        <time>2020-02-08T10:29:44Z</time>
      </trkpt>
      <trkpt lat="42.71081" lon="1.65848">
        <ele>1323.6</ele>
        <time>2020-02-08T10:29:45Z</time>
      </trkpt>
      <trkpt lat="42.71081" lon="1.65848">
        <ele>1323.6</ele>
        <time>2020-02-08T10:29:46Z</time>
      </trkpt>
      <trkpt lat="42.71081" lon="1.65848">
        <ele>1323.6</ele>
        <time>2020-02-08T10:29:47Z</time>
      </trkpt>
      <trkpt lat="42.71081" lon="1.65848">
        <ele>1323.6</ele>
        <time>2020-02-08T10:29:48Z</time>
      </trkpt>
      <trkpt lat="42.71081" lon="1.65848">
        <ele>1323.6</ele>
        <time>2020-02-08T10:29:49Z</time>
      </trkpt>
      <trkpt lat="42.71081" lon="1.65848">
        <ele>1323.6</ele>
        <time>2020-02-08T10:29:50Z</time>
      </trkpt>
      <trkpt lat="42.71081" lon="1.65848">
        <ele>1323.6</ele>
        <time>2020-02-08T10:29:51Z</time>
      </trkpt>
      <trkpt lat="42.71081" lon="1.65848">
        <ele>1323.6</ele>
        <time>2020-02-08T10:29:52Z</time>
      </trkpt>
      <trkpt lat="42.71081" lon="1.65848">
        <ele>1323.6</ele>
        <time>2020-02-08T10:29:53Z</time>
      </trkpt>
      <trkpt lat="42.71081" lon="1.65848">
        <ele>1323.6</ele>
        <time>2020-02-08T10:29:54Z</time>
      </trkpt>
      <trkpt lat="42.71081" lon="1.65848">
        <ele>1323.6</ele>
        <time>2020-02-08T10:29:55Z</time>
      </trkpt>
      <trkpt lat="42.71081" lon="1.65847">
        <ele>1323.6</ele>
        <time>2020-02-08T10:29:56Z</time>
      </trkpt>
      <trkpt lat="42.71081" lon="1.65847">
        <ele>1323.7</ele>
        <time>2020-02-08T10:29:57Z</time>
      </trkpt>
      <trkpt lat="42.71081" lon="1.65847">
        <ele>1323.7</ele>
        <time>2020-02-08T10:29:58Z</time>
      </trkpt>
      <trkpt lat="42.71081" lon="1.65847">
        <ele>1323.7</ele>
        <time>2020-02-08T10:29:59Z</time>
      </trkpt>
      <trkpt lat="42.71081" lon="1.65847">
        <ele>1323.7</ele>
        <time>2020-02-08T10:30:00Z</time>
      </trkpt>
      <trkpt lat="42.71081" lon="1.65847">
        <ele>1323.7</ele>
        <time>2020-02-08T10:30:01Z</time>
      </trkpt>
      <trkpt lat="42.71081" lon="1.65847">
        <ele>1323.7</ele>
        <time>2020-02-08T10:30:02Z</time>
      </trkpt>
      <trkpt lat="42.71081" lon="1.65847">
        <ele>1323.7</ele>
        <time>2020-02-08T10:30:03Z</time>
      </trkpt>
      <trkpt lat="42.71081" lon="1.65847">
        <ele>1323.7</ele>
        <time>2020-02-08T10:30:04Z</time>
      </trkpt>
      <trkpt lat="42.71081" lon="1.65847">
        <ele>1323.7</ele>
        <time>2020-02-08T10:30:05Z</time>
      </trkpt>
      <trkpt lat="42.71081" lon="1.65847">
        <ele>1323.7</ele>
        <time>2020-02-08T10:30:06Z</time>
      </trkpt>
      <trkpt lat="42.71081" lon="1.65847">
        <ele>1323.7</ele>
        <time>2020-02-08T10:30:07Z</time>
      </trkpt>
      <trkpt lat="42.71081" lon="1.65847">
        <ele>1323.7</ele>
        <time>2020-02-08T10:30:08Z</time>
      </trkpt>
      <trkpt lat="42.71081" lon="1.65847">
        <ele>1323.7</ele>
        <time>2020-02-08T10:30:09Z</time>
      </trkpt>
      <trkpt lat="42.71081" lon="1.65847">
        <ele>1323.7</ele>
        <time>2020-02-08T10:30:10Z</time>
      </trkpt>
      <trkpt lat="42.71081" lon="1.65847">
        <ele>1323.8</ele>
        <time>2020-02-08T10:30:11Z</time>
      </trkpt>
      <trkpt lat="42.71081" lon="1.65846">
        <ele>1323.8</ele>
        <time>2020-02-08T10:30:12Z</time>
      </trkpt>
      <trkpt lat="42.71081" lon="1.65846">
        <ele>1323.8</ele>
        <time>2020-02-08T10:30:13Z</time>
      </trkpt>
      <trkpt lat="42.71081" lon="1.65846">
        <ele>1323.8</ele>
        <time>2020-02-08T10:30:14Z</time>
      </trkpt>
      <trkpt lat="42.71081" lon="1.65846">
        <ele>1323.8</ele>
        <time>2020-02-08T10:30:15Z</time>
      </trkpt>
      <trkpt lat="42.7108" lon="1.65846">
        <ele>1323.8</ele>
        <time>2020-02-08T10:30:16Z</time>
      </trkpt>
      <trkpt lat="42.7108" lon="1.65846">
        <ele>1323.8</ele>
        <time>2020-02-08T10:30:17Z</time>
      </trkpt>
      <trkpt lat="42.7108" lon="1.65846">
        <ele>1323.8</ele>
        <time>2020-02-08T10:30:18Z</time>
      </trkpt>
      <trkpt lat="42.7108" lon="1.65846">
        <ele>1323.8</ele>
        <time>2020-02-08T10:30:19Z</time>
      </trkpt>
      <trkpt lat="42.7108" lon="1.65846">
        <ele>1323.8</ele>
        <time>2020-02-08T10:30:20Z</time>
      </trkpt>
      <trkpt lat="42.7108" lon="1.65846">
        <ele>1323.8</ele>
        <time>2020-02-08T10:30:21Z</time>
      </trkpt>
      <trkpt lat="42.7108" lon="1.65846">
        <ele>1323.8</ele>
        <time>2020-02-08T10:30:22Z</time>
      </trkpt>
      <trkpt lat="42.7108" lon="1.65846">
        <ele>1323.8</ele>
        <time>2020-02-08T10:30:23Z</time>
      </trkpt>
      <trkpt lat="42.7108" lon="1.65846">
        <ele>1323.8</ele>
        <time>2020-02-08T10:30:24Z</time>
      </trkpt>
      <trkpt lat="42.7108" lon="1.65846">
        <ele>1323.8</ele>
        <time>2020-02-08T10:30:25Z</time>
      </trkpt>
      <trkpt lat="42.7108" lon="1.65846">
        <ele>1323.9</ele>
        <time>2020-02-08T10:30:26Z</time>
      </trkpt>
      <trkpt lat="42.7108" lon="1.65846">
        <ele>1323.9</ele>
        <time>2020-02-08T10:30:27Z</time>
      </trkpt>
      <trkpt lat="42.7108" lon="1.65846">
        <ele>1323.9</ele>
        <time>2020-02-08T10:30:28Z</time>
      </trkpt>
      <trkpt lat="42.7108" lon="1.65845">
        <ele>1323.9</ele>
        <time>2020-02-08T10:30:29Z</time>
      </trkpt>
      <trkpt lat="42.7108" lon="1.65845">
        <ele>1323.9</ele>
        <time>2020-02-08T10:30:30Z</time>
      </trkpt>
      <trkpt lat="42.7108" lon="1.65845">
        <ele>1323.9</ele>
        <time>2020-02-08T10:30:31Z</time>
      </trkpt>
      <trkpt lat="42.7108" lon="1.65845">
        <ele>1323.9</ele>
        <time>2020-02-08T10:30:32Z</time>
      </trkpt>
      <trkpt lat="42.7108" lon="1.65845">
        <ele>1323.9</ele>
        <time>2020-02-08T10:30:33Z</time>
      </trkpt>
      <trkpt lat="42.7108" lon="1.65845">
        <ele>1323.9</ele>
        <time>2020-02-08T10:30:34Z</time>
      </trkpt>
      <trkpt lat="42.7108" lon="1.65845">
        <ele>1323.9</ele>
        <time>2020-02-08T10:30:35Z</time>
      </trkpt>
      <trkpt lat="42.7108" lon="1.65845">
        <ele>1323.9</ele>
        <time>2020-02-08T10:30:36Z</time>
      </trkpt>
      <trkpt lat="42.7108" lon="1.65845">
        <ele>1323.9</ele>
        <time>2020-02-08T10:30:37Z</time>
      </trkpt>
      <trkpt lat="42.7108" lon="1.65845">
        <ele>1323.9</ele>
        <time>2020-02-08T10:30:38Z</time>
      </trkpt>
      <trkpt lat="42.7108" lon="1.65845">
        <ele>1323.9</ele>
        <time>2020-02-08T10:30:39Z</time>
      </trkpt>
      <trkpt lat="42.7108" lon="1.65845">
        <ele>1323.9</ele>
        <time>2020-02-08T10:30:40Z</time>
      </trkpt>
      <trkpt lat="42.7108" lon="1.65845">
        <ele>1323.9</ele>
        <time>2020-02-08T10:30:41Z</time>
      </trkpt>
      <trkpt lat="42.7108" lon="1.65845">
        <ele>1323.9</ele>
        <time>2020-02-08T10:30:42Z</time>
      </trkpt>
      <trkpt lat="42.7108" lon="1.65845">
        <ele>1324</ele>
        <time>2020-02-08T10:30:43Z</time>
      </trkpt>
      <trkpt lat="42.7108" lon="1.65845">
        <ele>1324</ele>
        <time>2020-02-08T10:30:44Z</time>
      </trkpt>
      <trkpt lat="42.7108" lon="1.65845">
        <ele>1324</ele>
        <time>2020-02-08T10:30:45Z</time>
      </trkpt>
      <trkpt lat="42.7108" lon="1.65844">
        <ele>1324</ele>
        <time>2020-02-08T10:30:46Z</time>
      </trkpt>
      <trkpt lat="42.7108" lon="1.65844">
        <ele>1324</ele>
        <time>2020-02-08T10:30:47Z</time>
      </trkpt>
      <trkpt lat="42.7108" lon="1.65844">
        <ele>1324</ele>
        <time>2020-02-08T10:30:48Z</time>
      </trkpt>
      <trkpt lat="42.7108" lon="1.65844">
        <ele>1324</ele>
        <time>2020-02-08T10:30:49Z</time>
      </trkpt>
      <trkpt lat="42.7108" lon="1.65844">
        <ele>1324</ele>
        <time>2020-02-08T10:30:50Z</time>
      </trkpt>
      <trkpt lat="42.7108" lon="1.65844">
        <ele>1324</ele>
        <time>2020-02-08T10:30:51Z</time>
      </trkpt>
      <trkpt lat="42.7108" lon="1.65844">
        <ele>1324</ele>
        <time>2020-02-08T10:30:52Z</time>
      </trkpt>
      <trkpt lat="42.7108" lon="1.65844">
        <ele>1324</ele>
        <time>2020-02-08T10:30:53Z</time>
      </trkpt>
      <trkpt lat="42.7108" lon="1.65844">
        <ele>1324</ele>
        <time>2020-02-08T10:30:54Z</time>
      </trkpt>
      <trkpt lat="42.7108" lon="1.65844">
        <ele>1324</ele>
        <time>2020-02-08T10:30:55Z</time>
      </trkpt>
      <trkpt lat="42.7108" lon="1.65844">
        <ele>1324</ele>
        <time>2020-02-08T10:30:56Z</time>
      </trkpt>
      <trkpt lat="42.7108" lon="1.65844">
        <ele>1324</ele>
        <time>2020-02-08T10:30:57Z</time>
      </trkpt>
      <trkpt lat="42.7108" lon="1.65844">
        <ele>1324.1</ele>
        <time>2020-02-08T10:30:58Z</time>
      </trkpt>
      <trkpt lat="42.7108" lon="1.65844">
        <ele>1324.1</ele>
        <time>2020-02-08T10:30:59Z</time>
      </trkpt>
      <trkpt lat="42.7108" lon="1.65844">
        <ele>1324.1</ele>
        <time>2020-02-08T10:31:00Z</time>
      </trkpt>
      <trkpt lat="42.7108" lon="1.65844">
        <ele>1324.1</ele>
        <time>2020-02-08T10:31:01Z</time>
      </trkpt>
      <trkpt lat="42.7108" lon="1.65844">
        <ele>1324.1</ele>
        <time>2020-02-08T10:31:02Z</time>
      </trkpt>
      <trkpt lat="42.7108" lon="1.65843">
        <ele>1324.1</ele>
        <time>2020-02-08T10:31:03Z</time>
      </trkpt>
      <trkpt lat="42.7108" lon="1.65843">
        <ele>1324.1</ele>
        <time>2020-02-08T10:31:04Z</time>
      </trkpt>
      <trkpt lat="42.7108" lon="1.65843">
        <ele>1324.1</ele>
        <time>2020-02-08T10:31:05Z</time>
      </trkpt>
      <trkpt lat="42.7108" lon="1.65843">
        <ele>1324.1</ele>
        <time>2020-02-08T10:31:06Z</time>
      </trkpt>
      <trkpt lat="42.7108" lon="1.65843">
        <ele>1324.1</ele>
        <time>2020-02-08T10:31:07Z</time>
      </trkpt>
      <trkpt lat="42.7108" lon="1.65843">
        <ele>1324.1</ele>
        <time>2020-02-08T10:31:08Z</time>
      </trkpt>
      <trkpt lat="42.7108" lon="1.65843">
        <ele>1324.1</ele>
        <time>2020-02-08T10:31:09Z</time>
      </trkpt>
      <trkpt lat="42.7108" lon="1.65843">
        <ele>1324.1</ele>
        <time>2020-02-08T10:31:10Z</time>
      </trkpt>
      <trkpt lat="42.7108" lon="1.65843">
        <ele>1324.1</ele>
        <time>2020-02-08T10:31:11Z</time>
      </trkpt>
      <trkpt lat="42.7108" lon="1.65843">
        <ele>1324.2</ele>
        <time>2020-02-08T10:31:12Z</time>
      </trkpt>
      <trkpt lat="42.7108" lon="1.65843">
        <ele>1324.2</ele>
        <time>2020-02-08T10:31:13Z</time>
      </trkpt>
      <trkpt lat="42.7108" lon="1.65843">
        <ele>1324.2</ele>
        <time>2020-02-08T10:31:14Z</time>
      </trkpt>
      <trkpt lat="42.7108" lon="1.65843">
        <ele>1324.2</ele>
        <time>2020-02-08T10:31:15Z</time>
      </trkpt>
      <trkpt lat="42.7108" lon="1.65843">
        <ele>1324.2</ele>
        <time>2020-02-08T10:31:16Z</time>
      </trkpt>
      <trkpt lat="42.7108" lon="1.65843">
        <ele>1324.2</ele>
        <time>2020-02-08T10:31:17Z</time>
      </trkpt>
      <trkpt lat="42.71079" lon="1.65843">
        <ele>1324.2</ele>
        <time>2020-02-08T10:31:18Z</time>
      </trkpt>
      <trkpt lat="42.71079" lon="1.65843">
        <ele>1324.2</ele>
        <time>2020-02-08T10:31:19Z</time>
      </trkpt>
      <trkpt lat="42.71079" lon="1.65842">
        <ele>1324.2</ele>
        <time>2020-02-08T10:31:20Z</time>
      </trkpt>
      <trkpt lat="42.71079" lon="1.65842">
        <ele>1324.2</ele>
        <time>2020-02-08T10:31:21Z</time>
      </trkpt>
      <trkpt lat="42.71079" lon="1.65842">
        <ele>1324.2</ele>
        <time>2020-02-08T10:31:22Z</time>
      </trkpt>
      <trkpt lat="42.71079" lon="1.65842">
        <ele>1324.2</ele>
        <time>2020-02-08T10:31:23Z</time>
      </trkpt>
      <trkpt lat="42.71079" lon="1.65842">
        <ele>1324.2</ele>
        <time>2020-02-08T10:31:24Z</time>
      </trkpt>
      <trkpt lat="42.71079" lon="1.65842">
        <ele>1324.2</ele>
        <time>2020-02-08T10:31:25Z</time>
      </trkpt>
      <trkpt lat="42.71079" lon="1.65842">
        <ele>1324.2</ele>
        <time>2020-02-08T10:31:26Z</time>
      </trkpt>
      <trkpt lat="42.71079" lon="1.65842">
        <ele>1324.2</ele>
        <time>2020-02-08T10:31:27Z</time>
      </trkpt>
      <trkpt lat="42.71079" lon="1.65842">
        <ele>1324.3</ele>
        <time>2020-02-08T10:31:28Z</time>
      </trkpt>
      <trkpt lat="42.71079" lon="1.65842">
        <ele>1324.3</ele>
        <time>2020-02-08T10:31:29Z</time>
      </trkpt>
      <trkpt lat="42.71079" lon="1.65842">
        <ele>1324.3</ele>
        <time>2020-02-08T10:31:30Z</time>
      </trkpt>
      <trkpt lat="42.71079" lon="1.65842">
        <ele>1324.3</ele>
        <time>2020-02-08T10:31:31Z</time>
      </trkpt>
      <trkpt lat="42.71079" lon="1.65842">
        <ele>1324.3</ele>
        <time>2020-02-08T10:31:32Z</time>
      </trkpt>
      <trkpt lat="42.71079" lon="1.65842">
        <ele>1324.3</ele>
        <time>2020-02-08T10:31:33Z</time>
      </trkpt>
      <trkpt lat="42.71079" lon="1.65842">
        <ele>1324.3</ele>
        <time>2020-02-08T10:31:34Z</time>
      </trkpt>
      <trkpt lat="42.71079" lon="1.65842">
        <ele>1324.3</ele>
        <time>2020-02-08T10:31:35Z</time>
      </trkpt>
      <trkpt lat="42.71079" lon="1.65841">
        <ele>1324.3</ele>
        <time>2020-02-08T10:31:36Z</time>
      </trkpt>
      <trkpt lat="42.71079" lon="1.65841">
        <ele>1324.3</ele>
        <time>2020-02-08T10:31:37Z</time>
      </trkpt>
      <trkpt lat="42.71079" lon="1.65841">
        <ele>1324.3</ele>
        <time>2020-02-08T10:31:38Z</time>
      </trkpt>
      <trkpt lat="42.71079" lon="1.65841">
        <ele>1324.3</ele>
        <time>2020-02-08T10:31:39Z</time>
      </trkpt>
      <trkpt lat="42.71079" lon="1.65841">
        <ele>1324.3</ele>
        <time>2020-02-08T10:31:40Z</time>
      </trkpt>
      <trkpt lat="42.71079" lon="1.65841">
        <ele>1324.3</ele>
        <time>2020-02-08T10:31:41Z</time>
      </trkpt>
      <trkpt lat="42.71079" lon="1.65841">
        <ele>1324.3</ele>
        <time>2020-02-08T10:31:42Z</time>
      </trkpt>
      <trkpt lat="42.71079" lon="1.65841">
        <ele>1324.4</ele>
        <time>2020-02-08T10:31:43Z</time>
      </trkpt>
      <trkpt lat="42.71079" lon="1.65841">
        <ele>1324.4</ele>
        <time>2020-02-08T10:31:44Z</time>
      </trkpt>
      <trkpt lat="42.71079" lon="1.65841">
        <ele>1324.4</ele>
        <time>2020-02-08T10:31:45Z</time>
      </trkpt>
      <trkpt lat="42.71079" lon="1.65841">
        <ele>1324.4</ele>
        <time>2020-02-08T10:31:46Z</time>
      </trkpt>
      <trkpt lat="42.71079" lon="1.65841">
        <ele>1324.4</ele>
        <time>2020-02-08T10:31:47Z</time>
      </trkpt>
      <trkpt lat="42.71079" lon="1.65841">
        <ele>1324.4</ele>
        <time>2020-02-08T10:31:48Z</time>
      </trkpt>
      <trkpt lat="42.71079" lon="1.65841">
        <ele>1324.4</ele>
        <time>2020-02-08T10:31:49Z</time>
      </trkpt>
      <trkpt lat="42.71079" lon="1.65841">
        <ele>1324.4</ele>
        <time>2020-02-08T10:31:50Z</time>
      </trkpt>
      <trkpt lat="42.71079" lon="1.65841">
        <ele>1324.4</ele>
        <time>2020-02-08T10:31:51Z</time>
      </trkpt>
      <trkpt lat="42.71079" lon="1.65841">
        <ele>1324.4</ele>
        <time>2020-02-08T10:31:52Z</time>
      </trkpt>
      <trkpt lat="42.71079" lon="1.6584">
        <ele>1324.4</ele>
        <time>2020-02-08T10:31:53Z</time>
      </trkpt>
      <trkpt lat="42.71079" lon="1.6584">
        <ele>1324.4</ele>
        <time>2020-02-08T10:31:54Z</time>
      </trkpt>
      <trkpt lat="42.71079" lon="1.6584">
        <ele>1324.4</ele>
        <time>2020-02-08T10:31:55Z</time>
      </trkpt>
      <trkpt lat="42.71079" lon="1.6584">
        <ele>1324.4</ele>
        <time>2020-02-08T10:31:56Z</time>
      </trkpt>
      <trkpt lat="42.71079" lon="1.6584">
        <ele>1324.5</ele>
        <time>2020-02-08T10:31:57Z</time>
      </trkpt>
      <trkpt lat="42.71079" lon="1.6584">
        <ele>1324.5</ele>
        <time>2020-02-08T10:31:58Z</time>
      </trkpt>
      <trkpt lat="42.71079" lon="1.6584">
        <ele>1324.5</ele>
        <time>2020-02-08T10:31:59Z</time>
      </trkpt>
      <trkpt lat="42.71079" lon="1.6584">
        <ele>1324.5</ele>
        <time>2020-02-08T10:32:00Z</time>
      </trkpt>
      <trkpt lat="42.71079" lon="1.6584">
        <ele>1324.5</ele>
        <time>2020-02-08T10:32:01Z</time>
      </trkpt>
      <trkpt lat="42.71079" lon="1.6584">
        <ele>1324.5</ele>
        <time>2020-02-08T10:32:02Z</time>
      </trkpt>
      <trkpt lat="42.71079" lon="1.6584">
        <ele>1324.5</ele>
        <time>2020-02-08T10:32:03Z</time>
      </trkpt>
      <trkpt lat="42.71079" lon="1.6584">
        <ele>1324.5</ele>
        <time>2020-02-08T10:32:04Z</time>
      </trkpt>
      <trkpt lat="42.71079" lon="1.6584">
        <ele>1324.5</ele>
        <time>2020-02-08T10:32:05Z</time>
      </trkpt>
      <trkpt lat="42.71079" lon="1.6584">
        <ele>1324.5</ele>
        <time>2020-02-08T10:32:06Z</time>
      </trkpt>
      <trkpt lat="42.71079" lon="1.6584">
        <ele>1324.5</ele>
        <time>2020-02-08T10:32:07Z</time>
      </trkpt>
      <trkpt lat="42.71079" lon="1.6584">
        <ele>1324.5</ele>
        <time>2020-02-08T10:32:08Z</time>
      </trkpt>
      <trkpt lat="42.71079" lon="1.6584">
        <ele>1324.5</ele>
        <time>2020-02-08T10:32:09Z</time>
      </trkpt>
      <trkpt lat="42.71079" lon="1.65839">
        <ele>1324.5</ele>
        <time>2020-02-08T10:32:10Z</time>
      </trkpt>
      <trkpt lat="42.71079" lon="1.65839">
        <ele>1324.5</ele>
        <time>2020-02-08T10:32:11Z</time>
      </trkpt>
      <trkpt lat="42.71079" lon="1.65839">
        <ele>1324.6</ele>
        <time>2020-02-08T10:32:12Z</time>
      </trkpt>
      <trkpt lat="42.71079" lon="1.65839">
        <ele>1324.6</ele>
        <time>2020-02-08T10:32:13Z</time>
      </trkpt>
      <trkpt lat="42.71079" lon="1.65839">
        <ele>1324.6</ele>
        <time>2020-02-08T10:32:14Z</time>
      </trkpt>
      <trkpt lat="42.71079" lon="1.65839">
        <ele>1324.6</ele>
        <time>2020-02-08T10:32:15Z</time>
      </trkpt>
      <trkpt lat="42.71079" lon="1.65839">
        <ele>1324.6</ele>
        <time>2020-02-08T10:32:16Z</time>
      </trkpt>
      <trkpt lat="42.71079" lon="1.65839">
        <ele>1324.6</ele>
        <time>2020-02-08T10:32:17Z</time>
      </trkpt>
      <trkpt lat="42.71079" lon="1.65839">
        <ele>1324.6</ele>
        <time>2020-02-08T10:32:18Z</time>
      </trkpt>
      <trkpt lat="42.71079" lon="1.65839">
        <ele>1324.6</ele>
        <time>2020-02-08T10:32:19Z</time>
      </trkpt>
      <trkpt lat="42.71079" lon="1.65839">
        <ele>1324.6</ele>
        <time>2020-02-08T10:32:20Z</time>
      </trkpt>
      <trkpt lat="42.71078" lon="1.65839">
        <ele>1324.6</ele>
        <time>2020-02-08T10:32:21Z</time>
      </trkpt>
      <trkpt lat="42.71078" lon="1.65839">
        <ele>1324.6</ele>
        <time>2020-02-08T10:32:22Z</time>
      </trkpt>
      <trkpt lat="42.71078" lon="1.65839">
        <ele>1324.6</ele>
        <time>2020-02-08T10:32:23Z</time>
      </trkpt>
      <trkpt lat="42.71078" lon="1.65839">
        <ele>1324.6</ele>
        <time>2020-02-08T10:32:24Z</time>
      </trkpt>
      <trkpt lat="42.71078" lon="1.65839">
        <ele>1324.6</ele>
        <time>2020-02-08T10:32:25Z</time>
      </trkpt>
      <trkpt lat="42.71078" lon="1.65839">
        <ele>1324.6</ele>
        <time>2020-02-08T10:32:26Z</time>
      </trkpt>
      <trkpt lat="42.71078" lon="1.65838">
        <ele>1324.7</ele>
        <time>2020-02-08T10:32:27Z</time>
      </trkpt>
      <trkpt lat="42.71078" lon="1.65838">
        <ele>1324.7</ele>
        <time>2020-02-08T10:32:28Z</time>
      </trkpt>
      <trkpt lat="42.71078" lon="1.65838">
        <ele>1324.7</ele>
        <time>2020-02-08T10:32:29Z</time>
      </trkpt>
      <trkpt lat="42.71078" lon="1.65838">
        <ele>1324.7</ele>
        <time>2020-02-08T10:32:30Z</time>
      </trkpt>
      <trkpt lat="42.71078" lon="1.65838">
        <ele>1324.7</ele>
        <time>2020-02-08T10:32:31Z</time>
      </trkpt>
      <trkpt lat="42.71078" lon="1.65838">
        <ele>1324.7</ele>
        <time>2020-02-08T10:32:32Z</time>
      </trkpt>
      <trkpt lat="42.71078" lon="1.65838">
        <ele>1324.7</ele>
        <time>2020-02-08T10:32:33Z</time>
      </trkpt>
      <trkpt lat="42.71078" lon="1.65838">
        <ele>1324.7</ele>
        <time>2020-02-08T10:32:34Z</time>
      </trkpt>
      <trkpt lat="42.71078" lon="1.65838">
        <ele>1324.7</ele>
        <time>2020-02-08T10:32:35Z</time>
      </trkpt>
      <trkpt lat="42.71078" lon="1.65838">
        <ele>1324.7</ele>
        <time>2020-02-08T10:32:36Z</time>
      </trkpt>
      <trkpt lat="42.71078" lon="1.65838">
        <ele>1324.7</ele>
        <time>2020-02-08T10:32:37Z</time>
      </trkpt>
      <trkpt lat="42.71078" lon="1.65838">
        <ele>1324.7</ele>
        <time>2020-02-08T10:32:38Z</time>
      </trkpt>
      <trkpt lat="42.71078" lon="1.65838">
        <ele>1324.7</ele>
        <time>2020-02-08T10:32:39Z</time>
      </trkpt>
      <trkpt lat="42.71078" lon="1.65838">
        <ele>1324.7</ele>
        <time>2020-02-08T10:32:40Z</time>
      </trkpt>
      <trkpt lat="42.71078" lon="1.65838">
        <ele>1324.7</ele>
        <time>2020-02-08T10:32:41Z</time>
      </trkpt>
      <trkpt lat="42.71078" lon="1.65838">
        <ele>1324.8</ele>
        <time>2020-02-08T10:32:42Z</time>
      </trkpt>
      <trkpt lat="42.71078" lon="1.65838">
        <ele>1324.8</ele>
        <time>2020-02-08T10:32:43Z</time>
      </trkpt>
      <trkpt lat="42.71078" lon="1.65837">
        <ele>1324.8</ele>
        <time>2020-02-08T10:32:44Z</time>
      </trkpt>
      <trkpt lat="42.71078" lon="1.65837">
        <ele>1324.8</ele>
        <time>2020-02-08T10:32:45Z</time>
      </trkpt>
      <trkpt lat="42.71078" lon="1.65837">
        <ele>1324.8</ele>
        <time>2020-02-08T10:32:46Z</time>
      </trkpt>
      <trkpt lat="42.71078" lon="1.65837">
        <ele>1324.8</ele>
        <time>2020-02-08T10:32:47Z</time>
      </trkpt>
      <trkpt lat="42.71078" lon="1.65837">
        <ele>1324.8</ele>
        <time>2020-02-08T10:32:48Z</time>
      </trkpt>
      <trkpt lat="42.71078" lon="1.65837">
        <ele>1324.8</ele>
        <time>2020-02-08T10:32:49Z</time>
      </trkpt>
      <trkpt lat="42.71078" lon="1.65837">
        <ele>1324.8</ele>
        <time>2020-02-08T10:32:50Z</time>
      </trkpt>
      <trkpt lat="42.71078" lon="1.65837">
        <ele>1324.8</ele>
        <time>2020-02-08T10:32:51Z</time>
      </trkpt>
      <trkpt lat="42.71078" lon="1.65837">
        <ele>1324.8</ele>
        <time>2020-02-08T10:32:52Z</time>
      </trkpt>
      <trkpt lat="42.71078" lon="1.65837">
        <ele>1324.8</ele>
        <time>2020-02-08T10:32:53Z</time>
      </trkpt>
      <trkpt lat="42.71078" lon="1.65837">
        <ele>1324.8</ele>
        <time>2020-02-08T10:32:54Z</time>
      </trkpt>
      <trkpt lat="42.71078" lon="1.65837">
        <ele>1324.8</ele>
        <time>2020-02-08T10:32:55Z</time>
      </trkpt>
      <trkpt lat="42.71078" lon="1.65837">
        <ele>1324.8</ele>
        <time>2020-02-08T10:32:56Z</time>
      </trkpt>
      <trkpt lat="42.71078" lon="1.65837">
        <ele>1324.8</ele>
        <time>2020-02-08T10:32:57Z</time>
      </trkpt>
      <trkpt lat="42.71078" lon="1.65837">
        <ele>1324.8</ele>
        <time>2020-02-08T10:32:58Z</time>
      </trkpt>
      <trkpt lat="42.71078" lon="1.65837">
        <ele>1324.8</ele>
        <time>2020-02-08T10:32:59Z</time>
      </trkpt>
      <trkpt lat="42.71078" lon="1.65837">
        <ele>1324.8</ele>
        <time>2020-02-08T10:33:00Z</time>
      </trkpt>
      <trkpt lat="42.71078" lon="1.65837">
        <ele>1324.8</ele>
        <time>2020-02-08T10:33:01Z</time>
      </trkpt>
      <trkpt lat="42.71078" lon="1.65837">
        <ele>1324.8</ele>
        <time>2020-02-08T10:33:02Z</time>
      </trkpt>
      <trkpt lat="42.71078" lon="1.65837">
        <ele>1324.8</ele>
        <time>2020-02-08T10:33:03Z</time>
      </trkpt>
      <trkpt lat="42.71078" lon="1.65837">
        <ele>1324.8</ele>
        <time>2020-02-08T10:33:04Z</time>
      </trkpt>
      <trkpt lat="42.71078" lon="1.65837">
        <ele>1324.8</ele>
        <time>2020-02-08T10:33:05Z</time>
      </trkpt>
      <trkpt lat="42.71078" lon="1.65837">
        <ele>1324.8</ele>
        <time>2020-02-08T10:33:06Z</time>
      </trkpt>
      <trkpt lat="42.71078" lon="1.65837">
        <ele>1324.8</ele>
        <time>2020-02-08T10:33:07Z</time>
      </trkpt>
      <trkpt lat="42.71078" lon="1.65837">
        <ele>1324.8</ele>
        <time>2020-02-08T10:33:08Z</time>
      </trkpt>
      <trkpt lat="42.71078" lon="1.65837">
        <ele>1324.8</ele>
        <time>2020-02-08T10:33:09Z</time>
      </trkpt>
      <trkpt lat="42.71078" lon="1.65837">
        <ele>1324.8</ele>
        <time>2020-02-08T10:33:10Z</time>
      </trkpt>
      <trkpt lat="42.71078" lon="1.65837">
        <ele>1324.8</ele>
        <time>2020-02-08T10:33:11Z</time>
      </trkpt>
      <trkpt lat="42.71078" lon="1.65837">
        <ele>1324.8</ele>
        <time>2020-02-08T10:33:12Z</time>
      </trkpt>
      <trkpt lat="42.71078" lon="1.65837">
        <ele>1324.8</ele>
        <time>2020-02-08T10:33:13Z</time>
      </trkpt>
      <trkpt lat="42.71078" lon="1.65837">
        <ele>1324.8</ele>
        <time>2020-02-08T10:33:14Z</time>
      </trkpt>
      <trkpt lat="42.71078" lon="1.65837">
        <ele>1324.8</ele>
        <time>2020-02-08T10:33:15Z</time>
      </trkpt>
      <trkpt lat="42.71077" lon="1.65841">
        <ele>1325.1</ele>
        <time>2020-02-08T10:33:16Z</time>
      </trkpt>
      <trkpt lat="42.71077" lon="1.65841">
        <ele>1325.1</ele>
        <time>2020-02-08T10:33:17Z</time>
      </trkpt>
      <trkpt lat="42.71077" lon="1.65841">
        <ele>1325.1</ele>
        <time>2020-02-08T10:33:18Z</time>
      </trkpt>
      <trkpt lat="42.71077" lon="1.65841">
        <ele>1325.1</ele>
        <time>2020-02-08T10:33:19Z</time>
      </trkpt>
      <trkpt lat="42.71077" lon="1.65841">
        <ele>1325.1</ele>
        <time>2020-02-08T10:33:20Z</time>
      </trkpt>
      <trkpt lat="42.71077" lon="1.65841">
        <ele>1325.1</ele>
        <time>2020-02-08T10:33:21Z</time>
      </trkpt>
      <trkpt lat="42.71077" lon="1.65841">
        <ele>1325.1</ele>
        <time>2020-02-08T10:33:22Z</time>
      </trkpt>
      <trkpt lat="42.71077" lon="1.65841">
        <ele>1325.1</ele>
        <time>2020-02-08T10:33:23Z</time>
      </trkpt>
      <trkpt lat="42.71077" lon="1.65841">
        <ele>1325.1</ele>
        <time>2020-02-08T10:33:24Z</time>
      </trkpt>
      <trkpt lat="42.71077" lon="1.65841">
        <ele>1325.1</ele>
        <time>2020-02-08T10:33:25Z</time>
      </trkpt>
      <trkpt lat="42.71077" lon="1.65841">
        <ele>1325.1</ele>
        <time>2020-02-08T10:33:26Z</time>
      </trkpt>
      <trkpt lat="42.71077" lon="1.65841">
        <ele>1325.1</ele>
        <time>2020-02-08T10:33:27Z</time>
      </trkpt>
      <trkpt lat="42.71077" lon="1.65841">
        <ele>1325.1</ele>
        <time>2020-02-08T10:33:28Z</time>
      </trkpt>
      <trkpt lat="42.71077" lon="1.65841">
        <ele>1325.1</ele>
        <time>2020-02-08T10:33:29Z</time>
      </trkpt>
      <trkpt lat="42.71077" lon="1.65841">
        <ele>1325.1</ele>
        <time>2020-02-08T10:33:30Z</time>
      </trkpt>
      <trkpt lat="42.71077" lon="1.65841">
        <ele>1325.1</ele>
        <time>2020-02-08T10:33:31Z</time>
      </trkpt>
      <trkpt lat="42.71077" lon="1.65841">
        <ele>1325.1</ele>
        <time>2020-02-08T10:33:32Z</time>
      </trkpt>
      <trkpt lat="42.71077" lon="1.65841">
        <ele>1325.1</ele>
        <time>2020-02-08T10:33:33Z</time>
      </trkpt>
      <trkpt lat="42.71077" lon="1.65841">
        <ele>1325.1</ele>
        <time>2020-02-08T10:33:34Z</time>
      </trkpt>
      <trkpt lat="42.71077" lon="1.65841">
        <ele>1325.1</ele>
        <time>2020-02-08T10:33:35Z</time>
      </trkpt>
      <trkpt lat="42.71077" lon="1.65841">
        <ele>1325.1</ele>
        <time>2020-02-08T10:33:36Z</time>
      </trkpt>
      <trkpt lat="42.71077" lon="1.65841">
        <ele>1325.1</ele>
        <time>2020-02-08T10:33:37Z</time>
      </trkpt>
      <trkpt lat="42.71077" lon="1.65841">
        <ele>1325.1</ele>
        <time>2020-02-08T10:33:38Z</time>
      </trkpt>
      <trkpt lat="42.71077" lon="1.65841">
        <ele>1325.1</ele>
        <time>2020-02-08T10:33:39Z</time>
      </trkpt>
      <trkpt lat="42.71077" lon="1.65841">
        <ele>1325.1</ele>
        <time>2020-02-08T10:33:40Z</time>
      </trkpt>
      <trkpt lat="42.71077" lon="1.65841">
        <ele>1325.1</ele>
        <time>2020-02-08T10:33:41Z</time>
      </trkpt>
      <trkpt lat="42.71077" lon="1.65841">
        <ele>1325.1</ele>
        <time>2020-02-08T10:33:42Z</time>
      </trkpt>
      <trkpt lat="42.71077" lon="1.65841">
        <ele>1325.1</ele>
        <time>2020-02-08T10:33:43Z</time>
      </trkpt>
      <trkpt lat="42.71077" lon="1.65841">
        <ele>1325.1</ele>
        <time>2020-02-08T10:33:44Z</time>
      </trkpt>
      <trkpt lat="42.71077" lon="1.65841">
        <ele>1325.1</ele>
        <time>2020-02-08T10:33:45Z</time>
      </trkpt>
      <trkpt lat="42.71077" lon="1.65841">
        <ele>1325.1</ele>
        <time>2020-02-08T10:33:46Z</time>
      </trkpt>
      <trkpt lat="42.71077" lon="1.65841">
        <ele>1325.1</ele>
        <time>2020-02-08T10:33:47Z</time>
      </trkpt>
      <trkpt lat="42.71077" lon="1.65841">
        <ele>1325.1</ele>
        <time>2020-02-08T10:33:48Z</time>
      </trkpt>
      <trkpt lat="42.71077" lon="1.65841">
        <ele>1325.1</ele>
        <time>2020-02-08T10:33:49Z</time>
      </trkpt>
      <trkpt lat="42.71077" lon="1.65841">
        <ele>1325.1</ele>
        <time>2020-02-08T10:33:50Z</time>
      </trkpt>
      <trkpt lat="42.71077" lon="1.65841">
        <ele>1325.1</ele>
        <time>2020-02-08T10:33:51Z</time>
      </trkpt>
      <trkpt lat="42.71077" lon="1.65841">
        <ele>1325.1</ele>
        <time>2020-02-08T10:33:52Z</time>
      </trkpt>
      <trkpt lat="42.71077" lon="1.65841">
        <ele>1325.1</ele>
        <time>2020-02-08T10:33:53Z</time>
      </trkpt>
      <trkpt lat="42.71077" lon="1.65841">
        <ele>1325.1</ele>
        <time>2020-02-08T10:33:54Z</time>
      </trkpt>
      <trkpt lat="42.71077" lon="1.65841">
        <ele>1325.1</ele>
        <time>2020-02-08T10:33:55Z</time>
      </trkpt>
      <trkpt lat="42.71077" lon="1.65841">
        <ele>1325.1</ele>
        <time>2020-02-08T10:33:56Z</time>
      </trkpt>
      <trkpt lat="42.7108" lon="1.65837">
        <ele>1325.6</ele>
        <time>2020-02-08T10:33:57Z</time>
      </trkpt>
      <trkpt lat="42.7108" lon="1.65837">
        <ele>1325.6</ele>
        <time>2020-02-08T10:33:58Z</time>
      </trkpt>
      <trkpt lat="42.7108" lon="1.65837">
        <ele>1325.6</ele>
        <time>2020-02-08T10:33:59Z</time>
      </trkpt>
      <trkpt lat="42.7108" lon="1.65837">
        <ele>1325.6</ele>
        <time>2020-02-08T10:34:00Z</time>
      </trkpt>
      <trkpt lat="42.7108" lon="1.65837">
        <ele>1325.6</ele>
        <time>2020-02-08T10:34:01Z</time>
      </trkpt>
      <trkpt lat="42.7108" lon="1.65837">
        <ele>1325.6</ele>
        <time>2020-02-08T10:34:02Z</time>
      </trkpt>
      <trkpt lat="42.7108" lon="1.65837">
        <ele>1325.6</ele>
        <time>2020-02-08T10:34:03Z</time>
      </trkpt>
      <trkpt lat="42.7108" lon="1.65837">
        <ele>1325.6</ele>
        <time>2020-02-08T10:34:04Z</time>
      </trkpt>
      <trkpt lat="42.7108" lon="1.65837">
        <ele>1325.6</ele>
        <time>2020-02-08T10:34:05Z</time>
      </trkpt>
      <trkpt lat="42.7108" lon="1.65837">
        <ele>1325.6</ele>
        <time>2020-02-08T10:34:06Z</time>
      </trkpt>
      <trkpt lat="42.7108" lon="1.65837">
        <ele>1325.6</ele>
        <time>2020-02-08T10:34:07Z</time>
      </trkpt>
      <trkpt lat="42.7108" lon="1.65837">
        <ele>1325.6</ele>
        <time>2020-02-08T10:34:08Z</time>
      </trkpt>
      <trkpt lat="42.7108" lon="1.65837">
        <ele>1325.6</ele>
        <time>2020-02-08T10:34:09Z</time>
      </trkpt>
      <trkpt lat="42.7108" lon="1.65837">
        <ele>1325.6</ele>
        <time>2020-02-08T10:34:10Z</time>
      </trkpt>
      <trkpt lat="42.7108" lon="1.65837">
        <ele>1325.6</ele>
        <time>2020-02-08T10:34:11Z</time>
      </trkpt>
      <trkpt lat="42.7108" lon="1.65837">
        <ele>1325.6</ele>
        <time>2020-02-08T10:34:12Z</time>
      </trkpt>
      <trkpt lat="42.7108" lon="1.65837">
        <ele>1325.6</ele>
        <time>2020-02-08T10:34:13Z</time>
      </trkpt>
      <trkpt lat="42.7108" lon="1.65837">
        <ele>1325.6</ele>
        <time>2020-02-08T10:34:14Z</time>
      </trkpt>
      <trkpt lat="42.7108" lon="1.65837">
        <ele>1325.6</ele>
        <time>2020-02-08T10:34:15Z</time>
      </trkpt>
      <trkpt lat="42.7108" lon="1.65837">
        <ele>1325.6</ele>
        <time>2020-02-08T10:34:16Z</time>
      </trkpt>
      <trkpt lat="42.7108" lon="1.65837">
        <ele>1325.6</ele>
        <time>2020-02-08T10:34:17Z</time>
      </trkpt>
      <trkpt lat="42.7108" lon="1.65837">
        <ele>1325.6</ele>
        <time>2020-02-08T10:34:18Z</time>
      </trkpt>
      <trkpt lat="42.7108" lon="1.65837">
        <ele>1325.6</ele>
        <time>2020-02-08T10:34:19Z</time>
      </trkpt>
      <trkpt lat="42.71081" lon="1.65837">
        <ele>1325.6</ele>
        <time>2020-02-08T10:34:20Z</time>
      </trkpt>
      <trkpt lat="42.71081" lon="1.65837">
        <ele>1325.6</ele>
        <time>2020-02-08T10:34:21Z</time>
      </trkpt>
      <trkpt lat="42.71081" lon="1.65837">
        <ele>1325.6</ele>
        <time>2020-02-08T10:34:22Z</time>
      </trkpt>
      <trkpt lat="42.71081" lon="1.65837">
        <ele>1325.6</ele>
        <time>2020-02-08T10:34:23Z</time>
      </trkpt>
      <trkpt lat="42.71081" lon="1.65837">
        <ele>1325.6</ele>
        <time>2020-02-08T10:34:24Z</time>
      </trkpt>
      <trkpt lat="42.71081" lon="1.65837">
        <ele>1325.6</ele>
        <time>2020-02-08T10:34:25Z</time>
      </trkpt>
      <trkpt lat="42.71081" lon="1.65837">
        <ele>1325.6</ele>
        <time>2020-02-08T10:34:26Z</time>
      </trkpt>
      <trkpt lat="42.71081" lon="1.65837">
        <ele>1325.6</ele>
        <time>2020-02-08T10:34:27Z</time>
      </trkpt>
      <trkpt lat="42.71081" lon="1.65837">
        <ele>1325.6</ele>
        <time>2020-02-08T10:34:28Z</time>
      </trkpt>
      <trkpt lat="42.71081" lon="1.65837">
        <ele>1325.6</ele>
        <time>2020-02-08T10:34:29Z</time>
      </trkpt>
      <trkpt lat="42.71081" lon="1.65837">
        <ele>1325.6</ele>
        <time>2020-02-08T10:34:30Z</time>
      </trkpt>
      <trkpt lat="42.71081" lon="1.65837">
        <ele>1325.6</ele>
        <time>2020-02-08T10:34:31Z</time>
      </trkpt>
      <trkpt lat="42.71081" lon="1.65837">
        <ele>1325.6</ele>
        <time>2020-02-08T10:34:32Z</time>
      </trkpt>
      <trkpt lat="42.71081" lon="1.65837">
        <ele>1325.6</ele>
        <time>2020-02-08T10:34:33Z</time>
      </trkpt>
      <trkpt lat="42.71081" lon="1.65837">
        <ele>1325.6</ele>
        <time>2020-02-08T10:34:34Z</time>
      </trkpt>
      <trkpt lat="42.71081" lon="1.65837">
        <ele>1325.6</ele>
        <time>2020-02-08T10:34:35Z</time>
      </trkpt>
      <trkpt lat="42.71081" lon="1.65837">
        <ele>1325.7</ele>
        <time>2020-02-08T10:34:36Z</time>
      </trkpt>
      <trkpt lat="42.71081" lon="1.65837">
        <ele>1325.7</ele>
        <time>2020-02-08T10:34:37Z</time>
      </trkpt>
      <trkpt lat="42.71081" lon="1.65837">
        <ele>1325.7</ele>
        <time>2020-02-08T10:34:38Z</time>
      </trkpt>
      <trkpt lat="42.71081" lon="1.65838">
        <ele>1325.7</ele>
        <time>2020-02-08T10:34:39Z</time>
      </trkpt>
      <trkpt lat="42.71081" lon="1.65838">
        <ele>1325.7</ele>
        <time>2020-02-08T10:34:40Z</time>
      </trkpt>
      <trkpt lat="42.71081" lon="1.65838">
        <ele>1325.7</ele>
        <time>2020-02-08T10:34:41Z</time>
      </trkpt>
      <trkpt lat="42.71081" lon="1.65838">
        <ele>1325.7</ele>
        <time>2020-02-08T10:34:42Z</time>
      </trkpt>
      <trkpt lat="42.71081" lon="1.65838">
        <ele>1325.7</ele>
        <time>2020-02-08T10:34:43Z</time>
      </trkpt>
      <trkpt lat="42.71081" lon="1.65838">
        <ele>1325.7</ele>
        <time>2020-02-08T10:34:44Z</time>
      </trkpt>
      <trkpt lat="42.71081" lon="1.65838">
        <ele>1325.7</ele>
        <time>2020-02-08T10:34:45Z</time>
      </trkpt>
      <trkpt lat="42.71081" lon="1.65838">
        <ele>1325.7</ele>
        <time>2020-02-08T10:34:46Z</time>
      </trkpt>
      <trkpt lat="42.71081" lon="1.65838">
        <ele>1325.7</ele>
        <time>2020-02-08T10:34:47Z</time>
      </trkpt>
      <trkpt lat="42.71081" lon="1.65838">
        <ele>1325.7</ele>
        <time>2020-02-08T10:34:48Z</time>
      </trkpt>
      <trkpt lat="42.71081" lon="1.65838">
        <ele>1325.7</ele>
        <time>2020-02-08T10:34:49Z</time>
      </trkpt>
      <trkpt lat="42.71081" lon="1.65838">
        <ele>1325.7</ele>
        <time>2020-02-08T10:34:50Z</time>
      </trkpt>
      <trkpt lat="42.71081" lon="1.65838">
        <ele>1325.7</ele>
        <time>2020-02-08T10:34:51Z</time>
      </trkpt>
      <trkpt lat="42.71081" lon="1.65838">
        <ele>1325.7</ele>
        <time>2020-02-08T10:34:52Z</time>
      </trkpt>
      <trkpt lat="42.71081" lon="1.65838">
        <ele>1325.7</ele>
        <time>2020-02-08T10:34:53Z</time>
      </trkpt>
      <trkpt lat="42.71081" lon="1.65838">
        <ele>1325.7</ele>
        <time>2020-02-08T10:34:54Z</time>
      </trkpt>
      <trkpt lat="42.71081" lon="1.65838">
        <ele>1325.7</ele>
        <time>2020-02-08T10:34:55Z</time>
      </trkpt>
      <trkpt lat="42.71081" lon="1.65838">
        <ele>1325.7</ele>
        <time>2020-02-08T10:34:56Z</time>
      </trkpt>
      <trkpt lat="42.71081" lon="1.65838">
        <ele>1325.7</ele>
        <time>2020-02-08T10:34:57Z</time>
      </trkpt>
      <trkpt lat="42.71081" lon="1.65838">
        <ele>1325.7</ele>
        <time>2020-02-08T10:34:58Z</time>
      </trkpt>
      <trkpt lat="42.71081" lon="1.65838">
        <ele>1325.7</ele>
        <time>2020-02-08T10:34:59Z</time>
      </trkpt>
      <trkpt lat="42.71081" lon="1.65838">
        <ele>1325.7</ele>
        <time>2020-02-08T10:35:00Z</time>
      </trkpt>
      <trkpt lat="42.71081" lon="1.65838">
        <ele>1325.7</ele>
        <time>2020-02-08T10:35:01Z</time>
      </trkpt>
      <trkpt lat="42.71081" lon="1.65838">
        <ele>1325.7</ele>
        <time>2020-02-08T10:35:02Z</time>
      </trkpt>
      <trkpt lat="42.71081" lon="1.65838">
        <ele>1325.7</ele>
        <time>2020-02-08T10:35:03Z</time>
      </trkpt>
      <trkpt lat="42.71081" lon="1.65838">
        <ele>1325.7</ele>
        <time>2020-02-08T10:35:04Z</time>
      </trkpt>
      <trkpt lat="42.71081" lon="1.65838">
        <ele>1325.7</ele>
        <time>2020-02-08T10:35:05Z</time>
      </trkpt>
      <trkpt lat="42.71081" lon="1.65838">
        <ele>1325.7</ele>
        <time>2020-02-08T10:35:06Z</time>
      </trkpt>
      <trkpt lat="42.71081" lon="1.65838">
        <ele>1325.7</ele>
        <time>2020-02-08T10:35:07Z</time>
      </trkpt>
      <trkpt lat="42.71081" lon="1.65838">
        <ele>1325.7</ele>
        <time>2020-02-08T10:35:08Z</time>
      </trkpt>
      <trkpt lat="42.71081" lon="1.65838">
        <ele>1325.7</ele>
        <time>2020-02-08T10:35:09Z</time>
      </trkpt>
      <trkpt lat="42.71081" lon="1.65838">
        <ele>1325.7</ele>
        <time>2020-02-08T10:35:10Z</time>
      </trkpt>
      <trkpt lat="42.71081" lon="1.65838">
        <ele>1325.7</ele>
        <time>2020-02-08T10:35:11Z</time>
      </trkpt>
      <trkpt lat="42.71081" lon="1.65838">
        <ele>1325.7</ele>
        <time>2020-02-08T10:35:12Z</time>
      </trkpt>
      <trkpt lat="42.71081" lon="1.65838">
        <ele>1325.7</ele>
        <time>2020-02-08T10:35:13Z</time>
      </trkpt>
      <trkpt lat="42.71081" lon="1.65838">
        <ele>1325.7</ele>
        <time>2020-02-08T10:35:14Z</time>
      </trkpt>
      <trkpt lat="42.71081" lon="1.65838">
        <ele>1325.7</ele>
        <time>2020-02-08T10:35:15Z</time>
      </trkpt>
      <trkpt lat="42.71081" lon="1.65838">
        <ele>1325.7</ele>
        <time>2020-02-08T10:35:16Z</time>
      </trkpt>
      <trkpt lat="42.71081" lon="1.65838">
        <ele>1325.7</ele>
        <time>2020-02-08T10:35:17Z</time>
      </trkpt>
      <trkpt lat="42.71081" lon="1.65838">
        <ele>1325.7</ele>
        <time>2020-02-08T10:35:18Z</time>
      </trkpt>
      <trkpt lat="42.71081" lon="1.65838">
        <ele>1325.7</ele>
        <time>2020-02-08T10:35:19Z</time>
      </trkpt>
      <trkpt lat="42.71081" lon="1.65838">
        <ele>1325.7</ele>
        <time>2020-02-08T10:35:20Z</time>
      </trkpt>
      <trkpt lat="42.71081" lon="1.65838">
        <ele>1325.7</ele>
        <time>2020-02-08T10:35:21Z</time>
      </trkpt>
      <trkpt lat="42.71081" lon="1.65838">
        <ele>1325.7</ele>
        <time>2020-02-08T10:35:22Z</time>
      </trkpt>
      <trkpt lat="42.71081" lon="1.65838">
        <ele>1325.7</ele>
        <time>2020-02-08T10:35:23Z</time>
      </trkpt>
      <trkpt lat="42.71081" lon="1.65838">
        <ele>1325.7</ele>
        <time>2020-02-08T10:35:24Z</time>
      </trkpt>
      <trkpt lat="42.71081" lon="1.65838">
        <ele>1325.7</ele>
        <time>2020-02-08T10:35:25Z</time>
      </trkpt>
      <trkpt lat="42.71081" lon="1.65838">
        <ele>1325.7</ele>
        <time>2020-02-08T10:35:26Z</time>
      </trkpt>
      <trkpt lat="42.71081" lon="1.65838">
        <ele>1325.7</ele>
        <time>2020-02-08T10:35:27Z</time>
      </trkpt>
      <trkpt lat="42.71081" lon="1.65838">
        <ele>1325.7</ele>
        <time>2020-02-08T10:35:28Z</time>
      </trkpt>
      <trkpt lat="42.71081" lon="1.65838">
        <ele>1325.7</ele>
        <time>2020-02-08T10:35:29Z</time>
      </trkpt>
      <trkpt lat="42.71081" lon="1.65838">
        <ele>1325.7</ele>
        <time>2020-02-08T10:35:30Z</time>
      </trkpt>
      <trkpt lat="42.71081" lon="1.65838">
        <ele>1325.7</ele>
        <time>2020-02-08T10:35:31Z</time>
      </trkpt>
      <trkpt lat="42.71081" lon="1.65838">
        <ele>1325.8</ele>
        <time>2020-02-08T10:35:32Z</time>
      </trkpt>
      <trkpt lat="42.71081" lon="1.65838">
        <ele>1325.8</ele>
        <time>2020-02-08T10:35:33Z</time>
      </trkpt>
      <trkpt lat="42.71081" lon="1.65838">
        <ele>1325.8</ele>
        <time>2020-02-08T10:35:34Z</time>
      </trkpt>
      <trkpt lat="42.71081" lon="1.65838">
        <ele>1325.8</ele>
        <time>2020-02-08T10:35:35Z</time>
      </trkpt>
      <trkpt lat="42.71081" lon="1.65838">
        <ele>1325.8</ele>
        <time>2020-02-08T10:35:36Z</time>
      </trkpt>
      <trkpt lat="42.71081" lon="1.65838">
        <ele>1325.8</ele>
        <time>2020-02-08T10:35:37Z</time>
      </trkpt>
      <trkpt lat="42.71081" lon="1.65838">
        <ele>1325.8</ele>
        <time>2020-02-08T10:35:38Z</time>
      </trkpt>
      <trkpt lat="42.71081" lon="1.65838">
        <ele>1325.8</ele>
        <time>2020-02-08T10:35:39Z</time>
      </trkpt>
      <trkpt lat="42.71082" lon="1.65838">
        <ele>1325.8</ele>
        <time>2020-02-08T10:35:40Z</time>
      </trkpt>
      <trkpt lat="42.71082" lon="1.65838">
        <ele>1325.8</ele>
        <time>2020-02-08T10:35:41Z</time>
      </trkpt>
      <trkpt lat="42.71082" lon="1.65838">
        <ele>1325.8</ele>
        <time>2020-02-08T10:35:42Z</time>
      </trkpt>
      <trkpt lat="42.71082" lon="1.65838">
        <ele>1325.8</ele>
        <time>2020-02-08T10:35:43Z</time>
      </trkpt>
      <trkpt lat="42.71082" lon="1.65838">
        <ele>1325.8</ele>
        <time>2020-02-08T10:35:44Z</time>
      </trkpt>
      <trkpt lat="42.71082" lon="1.65838">
        <ele>1325.8</ele>
        <time>2020-02-08T10:35:45Z</time>
      </trkpt>
      <trkpt lat="42.71082" lon="1.65838">
        <ele>1325.8</ele>
        <time>2020-02-08T10:35:46Z</time>
      </trkpt>
      <trkpt lat="42.71082" lon="1.65838">
        <ele>1325.8</ele>
        <time>2020-02-08T10:35:47Z</time>
      </trkpt>
      <trkpt lat="42.71082" lon="1.65838">
        <ele>1325.8</ele>
        <time>2020-02-08T10:35:48Z</time>
      </trkpt>
      <trkpt lat="42.71082" lon="1.65838">
        <ele>1325.8</ele>
        <time>2020-02-08T10:35:49Z</time>
      </trkpt>
      <trkpt lat="42.71082" lon="1.65838">
        <ele>1325.8</ele>
        <time>2020-02-08T10:35:50Z</time>
      </trkpt>
      <trkpt lat="42.71082" lon="1.65838">
        <ele>1325.8</ele>
        <time>2020-02-08T10:35:51Z</time>
      </trkpt>
      <trkpt lat="42.71082" lon="1.65838">
        <ele>1325.8</ele>
        <time>2020-02-08T10:35:52Z</time>
      </trkpt>
      <trkpt lat="42.71082" lon="1.65838">
        <ele>1325.8</ele>
        <time>2020-02-08T10:35:53Z</time>
      </trkpt>
      <trkpt lat="42.71082" lon="1.65838">
        <ele>1325.8</ele>
        <time>2020-02-08T10:35:54Z</time>
      </trkpt>
      <trkpt lat="42.71082" lon="1.65838">
        <ele>1325.8</ele>
        <time>2020-02-08T10:35:55Z</time>
      </trkpt>
      <trkpt lat="42.71082" lon="1.65838">
        <ele>1325.8</ele>
        <time>2020-02-08T10:35:56Z</time>
      </trkpt>
      <trkpt lat="42.71082" lon="1.65838">
        <ele>1325.8</ele>
        <time>2020-02-08T10:35:57Z</time>
      </trkpt>
      <trkpt lat="42.71082" lon="1.65838">
        <ele>1325.8</ele>
        <time>2020-02-08T10:35:58Z</time>
      </trkpt>
      <trkpt lat="42.71082" lon="1.65838">
        <ele>1325.8</ele>
        <time>2020-02-08T10:35:59Z</time>
      </trkpt>
      <trkpt lat="42.71082" lon="1.65838">
        <ele>1325.8</ele>
        <time>2020-02-08T10:36:00Z</time>
      </trkpt>
      <trkpt lat="42.71082" lon="1.65838">
        <ele>1325.8</ele>
        <time>2020-02-08T10:36:01Z</time>
      </trkpt>
      <trkpt lat="42.71082" lon="1.65838">
        <ele>1325.8</ele>
        <time>2020-02-08T10:36:02Z</time>
      </trkpt>
      <trkpt lat="42.71082" lon="1.65838">
        <ele>1325.8</ele>
        <time>2020-02-08T10:36:03Z</time>
      </trkpt>
      <trkpt lat="42.71082" lon="1.65838">
        <ele>1325.8</ele>
        <time>2020-02-08T10:36:04Z</time>
      </trkpt>
      <trkpt lat="42.71082" lon="1.65838">
        <ele>1325.8</ele>
        <time>2020-02-08T10:36:05Z</time>
      </trkpt>
      <trkpt lat="42.71082" lon="1.65838">
        <ele>1325.8</ele>
        <time>2020-02-08T10:36:06Z</time>
      </trkpt>
      <trkpt lat="42.71082" lon="1.65838">
        <ele>1325.8</ele>
        <time>2020-02-08T10:36:07Z</time>
      </trkpt>
      <trkpt lat="42.71082" lon="1.65838">
        <ele>1325.8</ele>
        <time>2020-02-08T10:36:08Z</time>
      </trkpt>
      <trkpt lat="42.71082" lon="1.65838">
        <ele>1325.8</ele>
        <time>2020-02-08T10:36:09Z</time>
      </trkpt>
      <trkpt lat="42.71082" lon="1.65838">
        <ele>1325.8</ele>
        <time>2020-02-08T10:36:10Z</time>
      </trkpt>
      <trkpt lat="42.71082" lon="1.65838">
        <ele>1325.8</ele>
        <time>2020-02-08T10:36:11Z</time>
      </trkpt>
      <trkpt lat="42.71082" lon="1.65838">
        <ele>1325.8</ele>
        <time>2020-02-08T10:36:12Z</time>
      </trkpt>
      <trkpt lat="42.71082" lon="1.65838">
        <ele>1325.8</ele>
        <time>2020-02-08T10:36:13Z</time>
      </trkpt>
      <trkpt lat="42.71082" lon="1.65838">
        <ele>1325.8</ele>
        <time>2020-02-08T10:36:14Z</time>
      </trkpt>
      <trkpt lat="42.71082" lon="1.65838">
        <ele>1325.8</ele>
        <time>2020-02-08T10:36:15Z</time>
      </trkpt>
      <trkpt lat="42.71082" lon="1.65838">
        <ele>1325.8</ele>
        <time>2020-02-08T10:36:16Z</time>
      </trkpt>
      <trkpt lat="42.71082" lon="1.65838">
        <ele>1325.8</ele>
        <time>2020-02-08T10:36:17Z</time>
      </trkpt>
      <trkpt lat="42.71082" lon="1.65838">
        <ele>1325.8</ele>
        <time>2020-02-08T10:36:18Z</time>
      </trkpt>
      <trkpt lat="42.71082" lon="1.65838">
        <ele>1325.8</ele>
        <time>2020-02-08T10:36:19Z</time>
      </trkpt>
      <trkpt lat="42.71082" lon="1.65838">
        <ele>1325.8</ele>
        <time>2020-02-08T10:36:20Z</time>
      </trkpt>
      <trkpt lat="42.71082" lon="1.65838">
        <ele>1325.8</ele>
        <time>2020-02-08T10:36:21Z</time>
      </trkpt>
      <trkpt lat="42.71082" lon="1.65838">
        <ele>1325.8</ele>
        <time>2020-02-08T10:36:22Z</time>
      </trkpt>
      <trkpt lat="42.71082" lon="1.65838">
        <ele>1325.8</ele>
        <time>2020-02-08T10:36:23Z</time>
      </trkpt>
      <trkpt lat="42.71082" lon="1.65838">
        <ele>1325.9</ele>
        <time>2020-02-08T10:36:24Z</time>
      </trkpt>
      <trkpt lat="42.71082" lon="1.65838">
        <ele>1325.9</ele>
        <time>2020-02-08T10:36:25Z</time>
      </trkpt>
      <trkpt lat="42.71082" lon="1.65838">
        <ele>1325.9</ele>
        <time>2020-02-08T10:36:26Z</time>
      </trkpt>
      <trkpt lat="42.71082" lon="1.65838">
        <ele>1325.9</ele>
        <time>2020-02-08T10:36:27Z</time>
      </trkpt>
      <trkpt lat="42.71082" lon="1.65838">
        <ele>1325.9</ele>
        <time>2020-02-08T10:36:28Z</time>
      </trkpt>
      <trkpt lat="42.71082" lon="1.65838">
        <ele>1325.9</ele>
        <time>2020-02-08T10:36:29Z</time>
      </trkpt>
      <trkpt lat="42.71082" lon="1.65838">
        <ele>1325.9</ele>
        <time>2020-02-08T10:36:30Z</time>
      </trkpt>
      <trkpt lat="42.71082" lon="1.65838">
        <ele>1325.9</ele>
        <time>2020-02-08T10:36:31Z</time>
      </trkpt>
      <trkpt lat="42.71082" lon="1.65838">
        <ele>1325.9</ele>
        <time>2020-02-08T10:36:32Z</time>
      </trkpt>
      <trkpt lat="42.71082" lon="1.65838">
        <ele>1325.9</ele>
        <time>2020-02-08T10:36:33Z</time>
      </trkpt>
      <trkpt lat="42.71082" lon="1.65838">
        <ele>1325.9</ele>
        <time>2020-02-08T10:36:34Z</time>
      </trkpt>
      <trkpt lat="42.71082" lon="1.65838">
        <ele>1325.9</ele>
        <time>2020-02-08T10:36:35Z</time>
      </trkpt>
      <trkpt lat="42.71082" lon="1.65838">
        <ele>1325.9</ele>
        <time>2020-02-08T10:36:36Z</time>
      </trkpt>
      <trkpt lat="42.71082" lon="1.65838">
        <ele>1325.9</ele>
        <time>2020-02-08T10:36:37Z</time>
      </trkpt>
      <trkpt lat="42.71082" lon="1.65838">
        <ele>1325.9</ele>
        <time>2020-02-08T10:36:38Z</time>
      </trkpt>
      <trkpt lat="42.71082" lon="1.65838">
        <ele>1325.9</ele>
        <time>2020-02-08T10:36:39Z</time>
      </trkpt>
      <trkpt lat="42.71082" lon="1.65838">
        <ele>1325.9</ele>
        <time>2020-02-08T10:36:40Z</time>
      </trkpt>
      <trkpt lat="42.71082" lon="1.65838">
        <ele>1325.9</ele>
        <time>2020-02-08T10:36:41Z</time>
      </trkpt>
      <trkpt lat="42.71082" lon="1.65838">
        <ele>1325.9</ele>
        <time>2020-02-08T10:36:42Z</time>
      </trkpt>
      <trkpt lat="42.71082" lon="1.65838">
        <ele>1325.9</ele>
        <time>2020-02-08T10:36:43Z</time>
      </trkpt>
      <trkpt lat="42.71082" lon="1.65838">
        <ele>1325.9</ele>
        <time>2020-02-08T10:36:44Z</time>
      </trkpt>
      <trkpt lat="42.71082" lon="1.65838">
        <ele>1325.9</ele>
        <time>2020-02-08T10:36:45Z</time>
      </trkpt>
      <trkpt lat="42.71082" lon="1.65838">
        <ele>1325.9</ele>
        <time>2020-02-08T10:36:46Z</time>
      </trkpt>
      <trkpt lat="42.71082" lon="1.65838">
        <ele>1325.9</ele>
        <time>2020-02-08T10:36:47Z</time>
      </trkpt>
      <trkpt lat="42.71082" lon="1.65838">
        <ele>1325.9</ele>
        <time>2020-02-08T10:36:48Z</time>
      </trkpt>
      <trkpt lat="42.71082" lon="1.65838">
        <ele>1325.9</ele>
        <time>2020-02-08T10:36:49Z</time>
      </trkpt>
      <trkpt lat="42.71082" lon="1.65838">
        <ele>1325.9</ele>
        <time>2020-02-08T10:36:50Z</time>
      </trkpt>
      <trkpt lat="42.71082" lon="1.65838">
        <ele>1325.9</ele>
        <time>2020-02-08T10:36:51Z</time>
      </trkpt>
      <trkpt lat="42.71082" lon="1.65838">
        <ele>1325.9</ele>
        <time>2020-02-08T10:36:52Z</time>
      </trkpt>
      <trkpt lat="42.71082" lon="1.65838">
        <ele>1325.9</ele>
        <time>2020-02-08T10:36:53Z</time>
      </trkpt>
      <trkpt lat="42.71082" lon="1.65838">
        <ele>1325.9</ele>
        <time>2020-02-08T10:36:54Z</time>
      </trkpt>
      <trkpt lat="42.71082" lon="1.65838">
        <ele>1325.9</ele>
        <time>2020-02-08T10:36:55Z</time>
      </trkpt>
      <trkpt lat="42.71082" lon="1.65838">
        <ele>1325.9</ele>
        <time>2020-02-08T10:36:56Z</time>
      </trkpt>
      <trkpt lat="42.71082" lon="1.65838">
        <ele>1325.9</ele>
        <time>2020-02-08T10:36:57Z</time>
      </trkpt>
      <trkpt lat="42.71082" lon="1.65838">
        <ele>1325.9</ele>
        <time>2020-02-08T10:36:58Z</time>
      </trkpt>
      <trkpt lat="42.71082" lon="1.65838">
        <ele>1325.9</ele>
        <time>2020-02-08T10:36:59Z</time>
      </trkpt>
      <trkpt lat="42.71082" lon="1.65838">
        <ele>1325.9</ele>
        <time>2020-02-08T10:37:00Z</time>
      </trkpt>
      <trkpt lat="42.71083" lon="1.65838">
        <ele>1325.9</ele>
        <time>2020-02-08T10:37:01Z</time>
      </trkpt>
      <trkpt lat="42.71083" lon="1.65838">
        <ele>1325.9</ele>
        <time>2020-02-08T10:37:02Z</time>
      </trkpt>
      <trkpt lat="42.71083" lon="1.65838">
        <ele>1325.9</ele>
        <time>2020-02-08T10:37:03Z</time>
      </trkpt>
      <trkpt lat="42.71083" lon="1.65838">
        <ele>1325.9</ele>
        <time>2020-02-08T10:37:04Z</time>
      </trkpt>
      <trkpt lat="42.71083" lon="1.65838">
        <ele>1325.9</ele>
        <time>2020-02-08T10:37:05Z</time>
      </trkpt>
      <trkpt lat="42.71083" lon="1.65838">
        <ele>1325.9</ele>
        <time>2020-02-08T10:37:06Z</time>
      </trkpt>
      <trkpt lat="42.71083" lon="1.65838">
        <ele>1325.9</ele>
        <time>2020-02-08T10:37:07Z</time>
      </trkpt>
      <trkpt lat="42.71083" lon="1.65838">
        <ele>1325.9</ele>
        <time>2020-02-08T10:37:08Z</time>
      </trkpt>
      <trkpt lat="42.71083" lon="1.65838">
        <ele>1325.9</ele>
        <time>2020-02-08T10:37:09Z</time>
      </trkpt>
      <trkpt lat="42.71083" lon="1.65838">
        <ele>1325.9</ele>
        <time>2020-02-08T10:37:10Z</time>
      </trkpt>
      <trkpt lat="42.71083" lon="1.65838">
        <ele>1325.9</ele>
        <time>2020-02-08T10:37:11Z</time>
      </trkpt>
      <trkpt lat="42.71083" lon="1.65838">
        <ele>1325.9</ele>
        <time>2020-02-08T10:37:12Z</time>
      </trkpt>
      <trkpt lat="42.71083" lon="1.65838">
        <ele>1325.9</ele>
        <time>2020-02-08T10:37:13Z</time>
      </trkpt>
      <trkpt lat="42.71083" lon="1.65838">
        <ele>1325.9</ele>
        <time>2020-02-08T10:37:14Z</time>
      </trkpt>
      <trkpt lat="42.71083" lon="1.65838">
        <ele>1325.9</ele>
        <time>2020-02-08T10:37:15Z</time>
      </trkpt>
      <trkpt lat="42.71083" lon="1.65838">
        <ele>1325.9</ele>
        <time>2020-02-08T10:37:16Z</time>
      </trkpt>
      <trkpt lat="42.71083" lon="1.65838">
        <ele>1325.9</ele>
        <time>2020-02-08T10:37:17Z</time>
      </trkpt>
      <trkpt lat="42.71083" lon="1.65838">
        <ele>1325.9</ele>
        <time>2020-02-08T10:37:18Z</time>
      </trkpt>
      <trkpt lat="42.71083" lon="1.65838">
        <ele>1325.9</ele>
        <time>2020-02-08T10:37:19Z</time>
      </trkpt>
      <trkpt lat="42.71083" lon="1.65838">
        <ele>1325.9</ele>
        <time>2020-02-08T10:37:20Z</time>
      </trkpt>
      <trkpt lat="42.71083" lon="1.65838">
        <ele>1325.9</ele>
        <time>2020-02-08T10:37:21Z</time>
      </trkpt>
      <trkpt lat="42.71083" lon="1.65838">
        <ele>1325.9</ele>
        <time>2020-02-08T10:37:22Z</time>
      </trkpt>
      <trkpt lat="42.71083" lon="1.65838">
        <ele>1325.9</ele>
        <time>2020-02-08T10:37:23Z</time>
      </trkpt>
      <trkpt lat="42.71083" lon="1.65838">
        <ele>1325.9</ele>
        <time>2020-02-08T10:37:24Z</time>
      </trkpt>
      <trkpt lat="42.71083" lon="1.65838">
        <ele>1326</ele>
        <time>2020-02-08T10:37:25Z</time>
      </trkpt>
      <trkpt lat="42.71083" lon="1.65838">
        <ele>1326</ele>
        <time>2020-02-08T10:37:26Z</time>
      </trkpt>
      <trkpt lat="42.71083" lon="1.65838">
        <ele>1326</ele>
        <time>2020-02-08T10:37:27Z</time>
      </trkpt>
      <trkpt lat="42.71083" lon="1.65838">
        <ele>1326</ele>
        <time>2020-02-08T10:37:28Z</time>
      </trkpt>
      <trkpt lat="42.71083" lon="1.65838">
        <ele>1326</ele>
        <time>2020-02-08T10:37:29Z</time>
      </trkpt>
      <trkpt lat="42.71083" lon="1.65838">
        <ele>1326</ele>
        <time>2020-02-08T10:37:30Z</time>
      </trkpt>
      <trkpt lat="42.71083" lon="1.65838">
        <ele>1326</ele>
        <time>2020-02-08T10:37:31Z</time>
      </trkpt>
      <trkpt lat="42.71083" lon="1.65838">
        <ele>1326</ele>
        <time>2020-02-08T10:37:32Z</time>
      </trkpt>
      <trkpt lat="42.71083" lon="1.65838">
        <ele>1326</ele>
        <time>2020-02-08T10:37:33Z</time>
      </trkpt>
      <trkpt lat="42.71083" lon="1.65838">
        <ele>1326</ele>
        <time>2020-02-08T10:37:34Z</time>
      </trkpt>
      <trkpt lat="42.71083" lon="1.65838">
        <ele>1326</ele>
        <time>2020-02-08T10:37:35Z</time>
      </trkpt>
      <trkpt lat="42.71083" lon="1.65838">
        <ele>1326</ele>
        <time>2020-02-08T10:37:36Z</time>
      </trkpt>
      <trkpt lat="42.71083" lon="1.65838">
        <ele>1326</ele>
        <time>2020-02-08T10:37:37Z</time>
      </trkpt>
      <trkpt lat="42.71083" lon="1.65838">
        <ele>1326</ele>
        <time>2020-02-08T10:37:38Z</time>
      </trkpt>
      <trkpt lat="42.71083" lon="1.65838">
        <ele>1326</ele>
        <time>2020-02-08T10:37:39Z</time>
      </trkpt>
      <trkpt lat="42.71083" lon="1.65838">
        <ele>1326</ele>
        <time>2020-02-08T10:37:40Z</time>
      </trkpt>
      <trkpt lat="42.71083" lon="1.65838">
        <ele>1326</ele>
        <time>2020-02-08T10:37:41Z</time>
      </trkpt>
      <trkpt lat="42.71083" lon="1.65838">
        <ele>1326</ele>
        <time>2020-02-08T10:37:42Z</time>
      </trkpt>
      <trkpt lat="42.71083" lon="1.65838">
        <ele>1326</ele>
        <time>2020-02-08T10:37:43Z</time>
      </trkpt>
      <trkpt lat="42.71083" lon="1.65838">
        <ele>1326</ele>
        <time>2020-02-08T10:37:44Z</time>
      </trkpt>
      <trkpt lat="42.71083" lon="1.65838">
        <ele>1326</ele>
        <time>2020-02-08T10:37:45Z</time>
      </trkpt>
      <trkpt lat="42.71083" lon="1.65838">
        <ele>1326</ele>
        <time>2020-02-08T10:37:46Z</time>
      </trkpt>
      <trkpt lat="42.71083" lon="1.65838">
        <ele>1326</ele>
        <time>2020-02-08T10:37:47Z</time>
      </trkpt>
      <trkpt lat="42.71083" lon="1.65838">
        <ele>1326</ele>
        <time>2020-02-08T10:37:48Z</time>
      </trkpt>
      <trkpt lat="42.71083" lon="1.65838">
        <ele>1326</ele>
        <time>2020-02-08T10:37:49Z</time>
      </trkpt>
      <trkpt lat="42.71083" lon="1.65838">
        <ele>1326</ele>
        <time>2020-02-08T10:37:50Z</time>
      </trkpt>
      <trkpt lat="42.71083" lon="1.65838">
        <ele>1326</ele>
        <time>2020-02-08T10:37:51Z</time>
      </trkpt>
      <trkpt lat="42.71083" lon="1.65838">
        <ele>1326</ele>
        <time>2020-02-08T10:37:52Z</time>
      </trkpt>
      <trkpt lat="42.71083" lon="1.65838">
        <ele>1326</ele>
        <time>2020-02-08T10:37:53Z</time>
      </trkpt>
      <trkpt lat="42.71083" lon="1.65838">
        <ele>1326</ele>
        <time>2020-02-08T10:37:54Z</time>
      </trkpt>
      <trkpt lat="42.71083" lon="1.65838">
        <ele>1326</ele>
        <time>2020-02-08T10:37:55Z</time>
      </trkpt>
      <trkpt lat="42.71083" lon="1.65838">
        <ele>1326</ele>
        <time>2020-02-08T10:37:56Z</time>
      </trkpt>
      <trkpt lat="42.71083" lon="1.65838">
        <ele>1326</ele>
        <time>2020-02-08T10:37:57Z</time>
      </trkpt>
      <trkpt lat="42.71083" lon="1.65838">
        <ele>1326</ele>
        <time>2020-02-08T10:37:58Z</time>
      </trkpt>
      <trkpt lat="42.71083" lon="1.65838">
        <ele>1326</ele>
        <time>2020-02-08T10:37:59Z</time>
      </trkpt>
      <trkpt lat="42.71083" lon="1.65838">
        <ele>1326</ele>
        <time>2020-02-08T10:38:00Z</time>
      </trkpt>
      <trkpt lat="42.71083" lon="1.65838">
        <ele>1326</ele>
        <time>2020-02-08T10:38:01Z</time>
      </trkpt>
      <trkpt lat="42.71083" lon="1.65838">
        <ele>1326</ele>
        <time>2020-02-08T10:38:02Z</time>
      </trkpt>
      <trkpt lat="42.71083" lon="1.65838">
        <ele>1326</ele>
        <time>2020-02-08T10:38:03Z</time>
      </trkpt>
      <trkpt lat="42.71083" lon="1.65838">
        <ele>1326</ele>
        <time>2020-02-08T10:38:04Z</time>
      </trkpt>
      <trkpt lat="42.71083" lon="1.65838">
        <ele>1326</ele>
        <time>2020-02-08T10:38:05Z</time>
      </trkpt>
      <trkpt lat="42.71083" lon="1.65838">
        <ele>1326</ele>
        <time>2020-02-08T10:38:06Z</time>
      </trkpt>
      <trkpt lat="42.71083" lon="1.65838">
        <ele>1326</ele>
        <time>2020-02-08T10:38:07Z</time>
      </trkpt>
      <trkpt lat="42.71083" lon="1.65838">
        <ele>1326</ele>
        <time>2020-02-08T10:38:08Z</time>
      </trkpt>
      <trkpt lat="42.71083" lon="1.65838">
        <ele>1326</ele>
        <time>2020-02-08T10:38:09Z</time>
      </trkpt>
      <trkpt lat="42.71083" lon="1.65838">
        <ele>1326</ele>
        <time>2020-02-08T10:38:10Z</time>
      </trkpt>
      <trkpt lat="42.71083" lon="1.65838">
        <ele>1326</ele>
        <time>2020-02-08T10:38:11Z</time>
      </trkpt>
      <trkpt lat="42.71083" lon="1.65838">
        <ele>1326</ele>
        <time>2020-02-08T10:38:12Z</time>
      </trkpt>
      <trkpt lat="42.71083" lon="1.65838">
        <ele>1326</ele>
        <time>2020-02-08T10:38:13Z</time>
      </trkpt>
      <trkpt lat="42.71083" lon="1.65838">
        <ele>1326.1</ele>
        <time>2020-02-08T10:38:14Z</time>
      </trkpt>
      <trkpt lat="42.71083" lon="1.65838">
        <ele>1326.1</ele>
        <time>2020-02-08T10:38:15Z</time>
      </trkpt>
      <trkpt lat="42.71083" lon="1.65838">
        <ele>1326.1</ele>
        <time>2020-02-08T10:38:16Z</time>
      </trkpt>
      <trkpt lat="42.71083" lon="1.65838">
        <ele>1326.1</ele>
        <time>2020-02-08T10:38:17Z</time>
      </trkpt>
      <trkpt lat="42.71083" lon="1.65838">
        <ele>1326.1</ele>
        <time>2020-02-08T10:38:18Z</time>
      </trkpt>
      <trkpt lat="42.71083" lon="1.65838">
        <ele>1326.1</ele>
        <time>2020-02-08T10:38:19Z</time>
      </trkpt>
      <trkpt lat="42.71083" lon="1.65838">
        <ele>1326.1</ele>
        <time>2020-02-08T10:38:20Z</time>
      </trkpt>
      <trkpt lat="42.71083" lon="1.65838">
        <ele>1326.1</ele>
        <time>2020-02-08T10:38:21Z</time>
      </trkpt>
      <trkpt lat="42.71084" lon="1.65838">
        <ele>1326.1</ele>
        <time>2020-02-08T10:38:22Z</time>
      </trkpt>
      <trkpt lat="42.71084" lon="1.65838">
        <ele>1326.1</ele>
        <time>2020-02-08T10:38:23Z</time>
      </trkpt>
      <trkpt lat="42.71084" lon="1.65838">
        <ele>1326.1</ele>
        <time>2020-02-08T10:38:24Z</time>
      </trkpt>
      <trkpt lat="42.71084" lon="1.65838">
        <ele>1326.1</ele>
        <time>2020-02-08T10:38:25Z</time>
      </trkpt>
      <trkpt lat="42.71084" lon="1.65838">
        <ele>1326.1</ele>
        <time>2020-02-08T10:38:26Z</time>
      </trkpt>
      <trkpt lat="42.71084" lon="1.65838">
        <ele>1326.1</ele>
        <time>2020-02-08T10:38:27Z</time>
      </trkpt>
      <trkpt lat="42.71084" lon="1.65838">
        <ele>1326.1</ele>
        <time>2020-02-08T10:38:28Z</time>
      </trkpt>
      <trkpt lat="42.71084" lon="1.65838">
        <ele>1326.1</ele>
        <time>2020-02-08T10:38:29Z</time>
      </trkpt>
      <trkpt lat="42.71084" lon="1.65838">
        <ele>1326.1</ele>
        <time>2020-02-08T10:38:30Z</time>
      </trkpt>
      <trkpt lat="42.71084" lon="1.65838">
        <ele>1326.1</ele>
        <time>2020-02-08T10:38:31Z</time>
      </trkpt>
      <trkpt lat="42.71084" lon="1.65838">
        <ele>1326.1</ele>
        <time>2020-02-08T10:38:32Z</time>
      </trkpt>
      <trkpt lat="42.71084" lon="1.65838">
        <ele>1326.1</ele>
        <time>2020-02-08T10:38:33Z</time>
      </trkpt>
      <trkpt lat="42.71084" lon="1.65838">
        <ele>1326.1</ele>
        <time>2020-02-08T10:38:34Z</time>
      </trkpt>
      <trkpt lat="42.71084" lon="1.65838">
        <ele>1326.1</ele>
        <time>2020-02-08T10:38:35Z</time>
      </trkpt>
      <trkpt lat="42.71084" lon="1.65838">
        <ele>1326.1</ele>
        <time>2020-02-08T10:38:36Z</time>
      </trkpt>
      <trkpt lat="42.71084" lon="1.65838">
        <ele>1326.1</ele>
        <time>2020-02-08T10:38:37Z</time>
      </trkpt>
      <trkpt lat="42.71084" lon="1.65838">
        <ele>1326.1</ele>
        <time>2020-02-08T10:38:38Z</time>
      </trkpt>
      <trkpt lat="42.71084" lon="1.65838">
        <ele>1326.1</ele>
        <time>2020-02-08T10:38:39Z</time>
      </trkpt>
      <trkpt lat="42.71084" lon="1.65838">
        <ele>1326.1</ele>
        <time>2020-02-08T10:38:40Z</time>
      </trkpt>
      <trkpt lat="42.71084" lon="1.65838">
        <ele>1326.1</ele>
        <time>2020-02-08T10:38:41Z</time>
      </trkpt>
      <trkpt lat="42.71084" lon="1.65838">
        <ele>1326.1</ele>
        <time>2020-02-08T10:38:42Z</time>
      </trkpt>
      <trkpt lat="42.71084" lon="1.65838">
        <ele>1326.1</ele>
        <time>2020-02-08T10:38:43Z</time>
      </trkpt>
      <trkpt lat="42.71084" lon="1.65838">
        <ele>1326.1</ele>
        <time>2020-02-08T10:38:44Z</time>
      </trkpt>
      <trkpt lat="42.71084" lon="1.65838">
        <ele>1326.1</ele>
        <time>2020-02-08T10:38:45Z</time>
      </trkpt>
      <trkpt lat="42.71084" lon="1.65838">
        <ele>1326.1</ele>
        <time>2020-02-08T10:38:46Z</time>
      </trkpt>
      <trkpt lat="42.71084" lon="1.65838">
        <ele>1326.1</ele>
        <time>2020-02-08T10:38:47Z</time>
      </trkpt>
      <trkpt lat="42.71084" lon="1.65838">
        <ele>1326.1</ele>
        <time>2020-02-08T10:38:48Z</time>
      </trkpt>
      <trkpt lat="42.71084" lon="1.65838">
        <ele>1326.1</ele>
        <time>2020-02-08T10:38:49Z</time>
      </trkpt>
      <trkpt lat="42.71084" lon="1.65838">
        <ele>1326.1</ele>
        <time>2020-02-08T10:38:50Z</time>
      </trkpt>
      <trkpt lat="42.71084" lon="1.65838">
        <ele>1326.1</ele>
        <time>2020-02-08T10:38:51Z</time>
      </trkpt>
      <trkpt lat="42.71084" lon="1.65838">
        <ele>1326.1</ele>
        <time>2020-02-08T10:38:52Z</time>
      </trkpt>
      <trkpt lat="42.71084" lon="1.65838">
        <ele>1326.1</ele>
        <time>2020-02-08T10:38:53Z</time>
      </trkpt>
      <trkpt lat="42.71084" lon="1.65838">
        <ele>1326.1</ele>
        <time>2020-02-08T10:38:54Z</time>
      </trkpt>
      <trkpt lat="42.71084" lon="1.65838">
        <ele>1326.1</ele>
        <time>2020-02-08T10:38:55Z</time>
      </trkpt>
      <trkpt lat="42.71084" lon="1.65838">
        <ele>1326.1</ele>
        <time>2020-02-08T10:38:56Z</time>
      </trkpt>
      <trkpt lat="42.71084" lon="1.65838">
        <ele>1326.1</ele>
        <time>2020-02-08T10:38:57Z</time>
      </trkpt>
      <trkpt lat="42.71084" lon="1.65838">
        <ele>1326.1</ele>
        <time>2020-02-08T10:38:58Z</time>
      </trkpt>
      <trkpt lat="42.71084" lon="1.65838">
        <ele>1326.1</ele>
        <time>2020-02-08T10:38:59Z</time>
      </trkpt>
      <trkpt lat="42.71084" lon="1.65838">
        <ele>1326.1</ele>
        <time>2020-02-08T10:39:00Z</time>
      </trkpt>
      <trkpt lat="42.71084" lon="1.65838">
        <ele>1326.1</ele>
        <time>2020-02-08T10:39:01Z</time>
      </trkpt>
      <trkpt lat="42.71084" lon="1.65839">
        <ele>1326.1</ele>
        <time>2020-02-08T10:39:02Z</time>
      </trkpt>
      <trkpt lat="42.71084" lon="1.65839">
        <ele>1326.1</ele>
        <time>2020-02-08T10:39:03Z</time>
      </trkpt>
      <trkpt lat="42.71084" lon="1.65839">
        <ele>1326.1</ele>
        <time>2020-02-08T10:39:04Z</time>
      </trkpt>
      <trkpt lat="42.71084" lon="1.65839">
        <ele>1326.1</ele>
        <time>2020-02-08T10:39:05Z</time>
      </trkpt>
      <trkpt lat="42.71084" lon="1.65839">
        <ele>1326.1</ele>
        <time>2020-02-08T10:39:06Z</time>
      </trkpt>
      <trkpt lat="42.71084" lon="1.65839">
        <ele>1326.1</ele>
        <time>2020-02-08T10:39:07Z</time>
      </trkpt>
      <trkpt lat="42.71084" lon="1.65839">
        <ele>1326.1</ele>
        <time>2020-02-08T10:39:08Z</time>
      </trkpt>
      <trkpt lat="42.71084" lon="1.65839">
        <ele>1326.1</ele>
        <time>2020-02-08T10:39:09Z</time>
      </trkpt>
      <trkpt lat="42.71084" lon="1.65839">
        <ele>1326.1</ele>
        <time>2020-02-08T10:39:10Z</time>
      </trkpt>
      <trkpt lat="42.71084" lon="1.65839">
        <ele>1326.1</ele>
        <time>2020-02-08T10:39:11Z</time>
      </trkpt>
      <trkpt lat="42.71084" lon="1.65839">
        <ele>1326.1</ele>
        <time>2020-02-08T10:39:12Z</time>
      </trkpt>
      <trkpt lat="42.71084" lon="1.65839">
        <ele>1326.1</ele>
        <time>2020-02-08T10:39:13Z</time>
      </trkpt>
      <trkpt lat="42.71084" lon="1.65839">
        <ele>1326.1</ele>
        <time>2020-02-08T10:39:14Z</time>
      </trkpt>
      <trkpt lat="42.71084" lon="1.65839">
        <ele>1326.1</ele>
        <time>2020-02-08T10:39:15Z</time>
      </trkpt>
      <trkpt lat="42.71084" lon="1.65839">
        <ele>1326.1</ele>
        <time>2020-02-08T10:39:16Z</time>
      </trkpt>
      <trkpt lat="42.71084" lon="1.65839">
        <ele>1326.1</ele>
        <time>2020-02-08T10:39:17Z</time>
      </trkpt>
      <trkpt lat="42.71084" lon="1.65839">
        <ele>1326.2</ele>
        <time>2020-02-08T10:39:18Z</time>
      </trkpt>
      <trkpt lat="42.71084" lon="1.65839">
        <ele>1326.2</ele>
        <time>2020-02-08T10:39:19Z</time>
      </trkpt>
      <trkpt lat="42.71084" lon="1.65839">
        <ele>1326.2</ele>
        <time>2020-02-08T10:39:20Z</time>
      </trkpt>
      <trkpt lat="42.71084" lon="1.65839">
        <ele>1326.2</ele>
        <time>2020-02-08T10:39:21Z</time>
      </trkpt>
      <trkpt lat="42.71084" lon="1.65839">
        <ele>1326.2</ele>
        <time>2020-02-08T10:39:22Z</time>
      </trkpt>
      <trkpt lat="42.71084" lon="1.65839">
        <ele>1326.2</ele>
        <time>2020-02-08T10:39:23Z</time>
      </trkpt>
      <trkpt lat="42.71084" lon="1.65839">
        <ele>1326.2</ele>
        <time>2020-02-08T10:39:24Z</time>
      </trkpt>
      <trkpt lat="42.71084" lon="1.65839">
        <ele>1326.2</ele>
        <time>2020-02-08T10:39:25Z</time>
      </trkpt>
      <trkpt lat="42.71084" lon="1.65839">
        <ele>1326.2</ele>
        <time>2020-02-08T10:39:26Z</time>
      </trkpt>
      <trkpt lat="42.71084" lon="1.65839">
        <ele>1326.2</ele>
        <time>2020-02-08T10:39:27Z</time>
      </trkpt>
      <trkpt lat="42.71084" lon="1.65839">
        <ele>1326.2</ele>
        <time>2020-02-08T10:39:28Z</time>
      </trkpt>
      <trkpt lat="42.71084" lon="1.65839">
        <ele>1326.2</ele>
        <time>2020-02-08T10:39:29Z</time>
      </trkpt>
      <trkpt lat="42.71084" lon="1.65839">
        <ele>1326.2</ele>
        <time>2020-02-08T10:39:30Z</time>
      </trkpt>
      <trkpt lat="42.71084" lon="1.65839">
        <ele>1326.2</ele>
        <time>2020-02-08T10:39:31Z</time>
      </trkpt>
      <trkpt lat="42.71084" lon="1.65839">
        <ele>1326.2</ele>
        <time>2020-02-08T10:39:32Z</time>
      </trkpt>
      <trkpt lat="42.71084" lon="1.65839">
        <ele>1326.2</ele>
        <time>2020-02-08T10:39:33Z</time>
      </trkpt>
      <trkpt lat="42.71084" lon="1.65839">
        <ele>1326.2</ele>
        <time>2020-02-08T10:39:34Z</time>
      </trkpt>
      <trkpt lat="42.71084" lon="1.65839">
        <ele>1326.2</ele>
        <time>2020-02-08T10:39:35Z</time>
      </trkpt>
      <trkpt lat="42.71084" lon="1.65839">
        <ele>1326.2</ele>
        <time>2020-02-08T10:39:36Z</time>
      </trkpt>
      <trkpt lat="42.71084" lon="1.65839">
        <ele>1326.2</ele>
        <time>2020-02-08T10:39:37Z</time>
      </trkpt>
      <trkpt lat="42.71084" lon="1.65839">
        <ele>1326.2</ele>
        <time>2020-02-08T10:39:38Z</time>
      </trkpt>
      <trkpt lat="42.71084" lon="1.65839">
        <ele>1326.2</ele>
        <time>2020-02-08T10:39:39Z</time>
      </trkpt>
      <trkpt lat="42.71084" lon="1.65839">
        <ele>1326.2</ele>
        <time>2020-02-08T10:39:40Z</time>
      </trkpt>
      <trkpt lat="42.71084" lon="1.65839">
        <ele>1326.2</ele>
        <time>2020-02-08T10:39:41Z</time>
      </trkpt>
      <trkpt lat="42.71085" lon="1.65839">
        <ele>1326.2</ele>
        <time>2020-02-08T10:39:42Z</time>
      </trkpt>
      <trkpt lat="42.71085" lon="1.65839">
        <ele>1326.2</ele>
        <time>2020-02-08T10:39:43Z</time>
      </trkpt>
      <trkpt lat="42.71085" lon="1.65839">
        <ele>1326.2</ele>
        <time>2020-02-08T10:39:44Z</time>
      </trkpt>
      <trkpt lat="42.71085" lon="1.65839">
        <ele>1326.2</ele>
        <time>2020-02-08T10:39:45Z</time>
      </trkpt>
      <trkpt lat="42.71085" lon="1.65839">
        <ele>1326.2</ele>
        <time>2020-02-08T10:39:46Z</time>
      </trkpt>
      <trkpt lat="42.71085" lon="1.65839">
        <ele>1326.2</ele>
        <time>2020-02-08T10:39:47Z</time>
      </trkpt>
      <trkpt lat="42.71085" lon="1.65839">
        <ele>1326.2</ele>
        <time>2020-02-08T10:39:48Z</time>
      </trkpt>
      <trkpt lat="42.71085" lon="1.65839">
        <ele>1326.2</ele>
        <time>2020-02-08T10:39:49Z</time>
      </trkpt>
      <trkpt lat="42.71085" lon="1.65839">
        <ele>1326.2</ele>
        <time>2020-02-08T10:39:50Z</time>
      </trkpt>
      <trkpt lat="42.71085" lon="1.65839">
        <ele>1326.2</ele>
        <time>2020-02-08T10:39:51Z</time>
      </trkpt>
      <trkpt lat="42.71085" lon="1.65839">
        <ele>1326.2</ele>
        <time>2020-02-08T10:39:52Z</time>
      </trkpt>
      <trkpt lat="42.71085" lon="1.65839">
        <ele>1326.2</ele>
        <time>2020-02-08T10:39:53Z</time>
      </trkpt>
      <trkpt lat="42.71085" lon="1.65839">
        <ele>1326.2</ele>
        <time>2020-02-08T10:39:54Z</time>
      </trkpt>
      <trkpt lat="42.71085" lon="1.65839">
        <ele>1326.2</ele>
        <time>2020-02-08T10:39:55Z</time>
      </trkpt>
      <trkpt lat="42.71085" lon="1.65839">
        <ele>1326.2</ele>
        <time>2020-02-08T10:39:56Z</time>
      </trkpt>
      <trkpt lat="42.71085" lon="1.65839">
        <ele>1326.2</ele>
        <time>2020-02-08T10:39:57Z</time>
      </trkpt>
      <trkpt lat="42.71085" lon="1.65839">
        <ele>1326.2</ele>
        <time>2020-02-08T10:39:58Z</time>
      </trkpt>
      <trkpt lat="42.71085" lon="1.65839">
        <ele>1326.2</ele>
        <time>2020-02-08T10:39:59Z</time>
      </trkpt>
      <trkpt lat="42.71085" lon="1.65839">
        <ele>1326.2</ele>
        <time>2020-02-08T10:40:00Z</time>
      </trkpt>
      <trkpt lat="42.71085" lon="1.65839">
        <ele>1326.2</ele>
        <time>2020-02-08T10:40:01Z</time>
      </trkpt>
      <trkpt lat="42.71085" lon="1.65839">
        <ele>1326.2</ele>
        <time>2020-02-08T10:40:02Z</time>
      </trkpt>
      <trkpt lat="42.71085" lon="1.65839">
        <ele>1326.2</ele>
        <time>2020-02-08T10:40:03Z</time>
      </trkpt>
      <trkpt lat="42.71085" lon="1.65839">
        <ele>1326.2</ele>
        <time>2020-02-08T10:40:04Z</time>
      </trkpt>
      <trkpt lat="42.71085" lon="1.65839">
        <ele>1326.2</ele>
        <time>2020-02-08T10:40:05Z</time>
      </trkpt>
      <trkpt lat="42.71085" lon="1.65839">
        <ele>1326.2</ele>
        <time>2020-02-08T10:40:06Z</time>
      </trkpt>
      <trkpt lat="42.71085" lon="1.65839">
        <ele>1326.2</ele>
        <time>2020-02-08T10:40:07Z</time>
      </trkpt>
      <trkpt lat="42.71085" lon="1.65839">
        <ele>1326.2</ele>
        <time>2020-02-08T10:40:08Z</time>
      </trkpt>
      <trkpt lat="42.71085" lon="1.65839">
        <ele>1326.2</ele>
        <time>2020-02-08T10:40:09Z</time>
      </trkpt>
      <trkpt lat="42.71085" lon="1.65839">
        <ele>1326.2</ele>
        <time>2020-02-08T10:40:10Z</time>
      </trkpt>
      <trkpt lat="42.71085" lon="1.65839">
        <ele>1326.2</ele>
        <time>2020-02-08T10:40:11Z</time>
      </trkpt>
      <trkpt lat="42.71085" lon="1.65839">
        <ele>1326.2</ele>
        <time>2020-02-08T10:40:12Z</time>
      </trkpt>
      <trkpt lat="42.71085" lon="1.65839">
        <ele>1326.2</ele>
        <time>2020-02-08T10:40:13Z</time>
      </trkpt>
      <trkpt lat="42.71085" lon="1.65839">
        <ele>1326.3</ele>
        <time>2020-02-08T10:40:14Z</time>
      </trkpt>
      <trkpt lat="42.71085" lon="1.65839">
        <ele>1326.3</ele>
        <time>2020-02-08T10:40:15Z</time>
      </trkpt>
      <trkpt lat="42.71085" lon="1.65839">
        <ele>1326.3</ele>
        <time>2020-02-08T10:40:16Z</time>
      </trkpt>
      <trkpt lat="42.71085" lon="1.65839">
        <ele>1326.3</ele>
        <time>2020-02-08T10:40:17Z</time>
      </trkpt>
      <trkpt lat="42.71085" lon="1.65839">
        <ele>1326.3</ele>
        <time>2020-02-08T10:40:18Z</time>
      </trkpt>
      <trkpt lat="42.71085" lon="1.65839">
        <ele>1326.3</ele>
        <time>2020-02-08T10:40:19Z</time>
      </trkpt>
      <trkpt lat="42.71085" lon="1.65839">
        <ele>1326.3</ele>
        <time>2020-02-08T10:40:20Z</time>
      </trkpt>
      <trkpt lat="42.71085" lon="1.65839">
        <ele>1326.3</ele>
        <time>2020-02-08T10:40:21Z</time>
      </trkpt>
      <trkpt lat="42.71085" lon="1.65839">
        <ele>1326.3</ele>
        <time>2020-02-08T10:40:22Z</time>
      </trkpt>
      <trkpt lat="42.71085" lon="1.65839">
        <ele>1326.3</ele>
        <time>2020-02-08T10:40:23Z</time>
      </trkpt>
      <trkpt lat="42.71085" lon="1.65839">
        <ele>1326.3</ele>
        <time>2020-02-08T10:40:24Z</time>
      </trkpt>
      <trkpt lat="42.71085" lon="1.65839">
        <ele>1326.3</ele>
        <time>2020-02-08T10:40:25Z</time>
      </trkpt>
      <trkpt lat="42.71085" lon="1.65839">
        <ele>1326.3</ele>
        <time>2020-02-08T10:40:26Z</time>
      </trkpt>
      <trkpt lat="42.71085" lon="1.65839">
        <ele>1326.3</ele>
        <time>2020-02-08T10:40:27Z</time>
      </trkpt>
      <trkpt lat="42.71085" lon="1.65839">
        <ele>1326.3</ele>
        <time>2020-02-08T10:40:28Z</time>
      </trkpt>
      <trkpt lat="42.71085" lon="1.65839">
        <ele>1326.3</ele>
        <time>2020-02-08T10:40:29Z</time>
      </trkpt>
      <trkpt lat="42.71085" lon="1.65839">
        <ele>1326.3</ele>
        <time>2020-02-08T10:40:30Z</time>
      </trkpt>
      <trkpt lat="42.71085" lon="1.65839">
        <ele>1326.3</ele>
        <time>2020-02-08T10:40:31Z</time>
      </trkpt>
      <trkpt lat="42.71085" lon="1.65839">
        <ele>1326.3</ele>
        <time>2020-02-08T10:40:32Z</time>
      </trkpt>
      <trkpt lat="42.71085" lon="1.65839">
        <ele>1326.3</ele>
        <time>2020-02-08T10:40:33Z</time>
      </trkpt>
      <trkpt lat="42.71085" lon="1.65839">
        <ele>1326.3</ele>
        <time>2020-02-08T10:40:34Z</time>
      </trkpt>
      <trkpt lat="42.71085" lon="1.65839">
        <ele>1326.3</ele>
        <time>2020-02-08T10:40:35Z</time>
      </trkpt>
      <trkpt lat="42.71085" lon="1.65839">
        <ele>1326.3</ele>
        <time>2020-02-08T10:40:36Z</time>
      </trkpt>
      <trkpt lat="42.71085" lon="1.65839">
        <ele>1326.3</ele>
        <time>2020-02-08T10:40:37Z</time>
      </trkpt>
      <trkpt lat="42.71085" lon="1.65839">
        <ele>1326.3</ele>
        <time>2020-02-08T10:40:38Z</time>
      </trkpt>
      <trkpt lat="42.71085" lon="1.65839">
        <ele>1326.3</ele>
        <time>2020-02-08T10:40:39Z</time>
      </trkpt>
      <trkpt lat="42.71085" lon="1.65839">
        <ele>1326.3</ele>
        <time>2020-02-08T10:40:40Z</time>
      </trkpt>
      <trkpt lat="42.71085" lon="1.65839">
        <ele>1326.3</ele>
        <time>2020-02-08T10:40:41Z</time>
      </trkpt>
      <trkpt lat="42.71085" lon="1.65839">
        <ele>1326.3</ele>
        <time>2020-02-08T10:40:42Z</time>
      </trkpt>
      <trkpt lat="42.71085" lon="1.65839">
        <ele>1326.3</ele>
        <time>2020-02-08T10:40:43Z</time>
      </trkpt>
      <trkpt lat="42.71085" lon="1.65839">
        <ele>1326.3</ele>
        <time>2020-02-08T10:40:44Z</time>
      </trkpt>
      <trkpt lat="42.71085" lon="1.65839">
        <ele>1326.3</ele>
        <time>2020-02-08T10:40:45Z</time>
      </trkpt>
      <trkpt lat="42.71085" lon="1.65839">
        <ele>1326.3</ele>
        <time>2020-02-08T10:40:46Z</time>
      </trkpt>
      <trkpt lat="42.71085" lon="1.65839">
        <ele>1326.3</ele>
        <time>2020-02-08T10:40:47Z</time>
      </trkpt>
      <trkpt lat="42.71085" lon="1.65839">
        <ele>1326.3</ele>
        <time>2020-02-08T10:40:48Z</time>
      </trkpt>
      <trkpt lat="42.71085" lon="1.65839">
        <ele>1326.3</ele>
        <time>2020-02-08T10:40:49Z</time>
      </trkpt>
      <trkpt lat="42.71085" lon="1.65839">
        <ele>1326.3</ele>
        <time>2020-02-08T10:40:50Z</time>
      </trkpt>
      <trkpt lat="42.71085" lon="1.65839">
        <ele>1326.3</ele>
        <time>2020-02-08T10:40:51Z</time>
      </trkpt>
      <trkpt lat="42.71085" lon="1.65839">
        <ele>1326.3</ele>
        <time>2020-02-08T10:40:52Z</time>
      </trkpt>
      <trkpt lat="42.71085" lon="1.65839">
        <ele>1326.3</ele>
        <time>2020-02-08T10:40:53Z</time>
      </trkpt>
      <trkpt lat="42.71085" lon="1.65839">
        <ele>1326.3</ele>
        <time>2020-02-08T10:40:54Z</time>
      </trkpt>
      <trkpt lat="42.71085" lon="1.65839">
        <ele>1326.3</ele>
        <time>2020-02-08T10:40:55Z</time>
      </trkpt>
      <trkpt lat="42.71085" lon="1.65839">
        <ele>1326.3</ele>
        <time>2020-02-08T10:40:56Z</time>
      </trkpt>
      <trkpt lat="42.71085" lon="1.65839">
        <ele>1326.3</ele>
        <time>2020-02-08T10:40:57Z</time>
      </trkpt>
      <trkpt lat="42.71085" lon="1.65839">
        <ele>1326.3</ele>
        <time>2020-02-08T10:40:58Z</time>
      </trkpt>
      <trkpt lat="42.71085" lon="1.65839">
        <ele>1326.3</ele>
        <time>2020-02-08T10:40:59Z</time>
      </trkpt>
      <trkpt lat="42.71085" lon="1.65839">
        <ele>1326.3</ele>
        <time>2020-02-08T10:41:00Z</time>
      </trkpt>
      <trkpt lat="42.71085" lon="1.65839">
        <ele>1326.3</ele>
        <time>2020-02-08T10:41:01Z</time>
      </trkpt>
      <trkpt lat="42.71085" lon="1.65839">
        <ele>1326.3</ele>
        <time>2020-02-08T10:41:02Z</time>
      </trkpt>
      <trkpt lat="42.71086" lon="1.65839">
        <ele>1326.3</ele>
        <time>2020-02-08T10:41:03Z</time>
      </trkpt>
      <trkpt lat="42.71086" lon="1.65839">
        <ele>1326.3</ele>
        <time>2020-02-08T10:41:04Z</time>
      </trkpt>
      <trkpt lat="42.71086" lon="1.65839">
        <ele>1326.3</ele>
        <time>2020-02-08T10:41:05Z</time>
      </trkpt>
      <trkpt lat="42.71086" lon="1.65839">
        <ele>1326.3</ele>
        <time>2020-02-08T10:41:06Z</time>
      </trkpt>
      <trkpt lat="42.71086" lon="1.65839">
        <ele>1326.3</ele>
        <time>2020-02-08T10:41:07Z</time>
      </trkpt>
      <trkpt lat="42.71086" lon="1.65839">
        <ele>1326.3</ele>
        <time>2020-02-08T10:41:08Z</time>
      </trkpt>
      <trkpt lat="42.71086" lon="1.65839">
        <ele>1326.3</ele>
        <time>2020-02-08T10:41:09Z</time>
      </trkpt>
      <trkpt lat="42.71086" lon="1.65839">
        <ele>1326.3</ele>
        <time>2020-02-08T10:41:10Z</time>
      </trkpt>
      <trkpt lat="42.71086" lon="1.65839">
        <ele>1326.4</ele>
        <time>2020-02-08T10:41:11Z</time>
      </trkpt>
      <trkpt lat="42.71086" lon="1.65839">
        <ele>1326.4</ele>
        <time>2020-02-08T10:41:12Z</time>
      </trkpt>
      <trkpt lat="42.71086" lon="1.65839">
        <ele>1326.4</ele>
        <time>2020-02-08T10:41:13Z</time>
      </trkpt>
      <trkpt lat="42.71086" lon="1.65839">
        <ele>1326.4</ele>
        <time>2020-02-08T10:41:14Z</time>
      </trkpt>
      <trkpt lat="42.71086" lon="1.65839">
        <ele>1326.4</ele>
        <time>2020-02-08T10:41:15Z</time>
      </trkpt>
      <trkpt lat="42.71086" lon="1.65839">
        <ele>1326.4</ele>
        <time>2020-02-08T10:41:16Z</time>
      </trkpt>
      <trkpt lat="42.71086" lon="1.65839">
        <ele>1326.4</ele>
        <time>2020-02-08T10:41:17Z</time>
      </trkpt>
      <trkpt lat="42.71086" lon="1.65839">
        <ele>1326.4</ele>
        <time>2020-02-08T10:41:18Z</time>
      </trkpt>
      <trkpt lat="42.71086" lon="1.65839">
        <ele>1326.4</ele>
        <time>2020-02-08T10:41:19Z</time>
      </trkpt>
      <trkpt lat="42.71086" lon="1.65839">
        <ele>1326.5</ele>
        <time>2020-02-08T10:41:20Z</time>
      </trkpt>
      <trkpt lat="42.71086" lon="1.65839">
        <ele>1326.5</ele>
        <time>2020-02-08T10:41:21Z</time>
      </trkpt>
      <trkpt lat="42.71086" lon="1.65839">
        <ele>1326.6</ele>
        <time>2020-02-08T10:41:22Z</time>
      </trkpt>
      <trkpt lat="42.71086" lon="1.65839">
        <ele>1326.6</ele>
        <time>2020-02-08T10:41:23Z</time>
      </trkpt>
      <trkpt lat="42.71086" lon="1.65839">
        <ele>1326.7</ele>
        <time>2020-02-08T10:41:24Z</time>
      </trkpt>
      <trkpt lat="42.71086" lon="1.65839">
        <ele>1326.7</ele>
        <time>2020-02-08T10:41:25Z</time>
      </trkpt>
      <trkpt lat="42.71086" lon="1.65839">
        <ele>1326.8</ele>
        <time>2020-02-08T10:41:26Z</time>
      </trkpt>
      <trkpt lat="42.71086" lon="1.65839">
        <ele>1326.8</ele>
        <time>2020-02-08T10:41:27Z</time>
      </trkpt>
      <trkpt lat="42.71086" lon="1.65839">
        <ele>1326.9</ele>
        <time>2020-02-08T10:41:28Z</time>
      </trkpt>
      <trkpt lat="42.71086" lon="1.65839">
        <ele>1326.9</ele>
        <time>2020-02-08T10:41:29Z</time>
      </trkpt>
      <trkpt lat="42.71086" lon="1.65839">
        <ele>1326.9</ele>
        <time>2020-02-08T10:41:30Z</time>
      </trkpt>
      <trkpt lat="42.71086" lon="1.65839">
        <ele>1327</ele>
        <time>2020-02-08T10:41:31Z</time>
      </trkpt>
      <trkpt lat="42.71086" lon="1.65839">
        <ele>1327</ele>
        <time>2020-02-08T10:41:32Z</time>
      </trkpt>
      <trkpt lat="42.71086" lon="1.65839">
        <ele>1327.1</ele>
        <time>2020-02-08T10:41:33Z</time>
      </trkpt>
      <trkpt lat="42.71086" lon="1.65839">
        <ele>1327.1</ele>
        <time>2020-02-08T10:41:34Z</time>
      </trkpt>
      <trkpt lat="42.71086" lon="1.65839">
        <ele>1327.2</ele>
        <time>2020-02-08T10:41:35Z</time>
      </trkpt>
      <trkpt lat="42.71086" lon="1.65839">
        <ele>1327.2</ele>
        <time>2020-02-08T10:41:36Z</time>
      </trkpt>
      <trkpt lat="42.71086" lon="1.65839">
        <ele>1327.3</ele>
        <time>2020-02-08T10:41:37Z</time>
      </trkpt>
      <trkpt lat="42.71086" lon="1.65839">
        <ele>1327.3</ele>
        <time>2020-02-08T10:41:38Z</time>
      </trkpt>
      <trkpt lat="42.71086" lon="1.65839">
        <ele>1327.3</ele>
        <time>2020-02-08T10:41:39Z</time>
      </trkpt>
      <trkpt lat="42.71086" lon="1.65839">
        <ele>1327.4</ele>
        <time>2020-02-08T10:41:40Z</time>
      </trkpt>
      <trkpt lat="42.71086" lon="1.65839">
        <ele>1327.4</ele>
        <time>2020-02-08T10:41:41Z</time>
      </trkpt>
      <trkpt lat="42.71086" lon="1.65839">
        <ele>1327.5</ele>
        <time>2020-02-08T10:41:42Z</time>
      </trkpt>
      <trkpt lat="42.71086" lon="1.65839">
        <ele>1327.5</ele>
        <time>2020-02-08T10:41:43Z</time>
      </trkpt>
      <trkpt lat="42.71086" lon="1.65839">
        <ele>1327.6</ele>
        <time>2020-02-08T10:41:44Z</time>
      </trkpt>
      <trkpt lat="42.71086" lon="1.65839">
        <ele>1327.6</ele>
        <time>2020-02-08T10:41:45Z</time>
      </trkpt>
      <trkpt lat="42.71086" lon="1.65839">
        <ele>1327.7</ele>
        <time>2020-02-08T10:41:46Z</time>
      </trkpt>
      <trkpt lat="42.71086" lon="1.65839">
        <ele>1327.7</ele>
        <time>2020-02-08T10:41:47Z</time>
      </trkpt>
      <trkpt lat="42.71086" lon="1.65839">
        <ele>1327.8</ele>
        <time>2020-02-08T10:41:48Z</time>
      </trkpt>
      <trkpt lat="42.71086" lon="1.65839">
        <ele>1327.8</ele>
        <time>2020-02-08T10:41:49Z</time>
      </trkpt>
      <trkpt lat="42.71086" lon="1.65839">
        <ele>1327.8</ele>
        <time>2020-02-08T10:41:50Z</time>
      </trkpt>
      <trkpt lat="42.71086" lon="1.65839">
        <ele>1327.9</ele>
        <time>2020-02-08T10:41:51Z</time>
      </trkpt>
      <trkpt lat="42.71086" lon="1.65839">
        <ele>1327.9</ele>
        <time>2020-02-08T10:41:52Z</time>
      </trkpt>
      <trkpt lat="42.71086" lon="1.65839">
        <ele>1328</ele>
        <time>2020-02-08T10:41:53Z</time>
      </trkpt>
      <trkpt lat="42.71086" lon="1.65839">
        <ele>1328</ele>
        <time>2020-02-08T10:41:54Z</time>
      </trkpt>
      <trkpt lat="42.71086" lon="1.65839">
        <ele>1328.1</ele>
        <time>2020-02-08T10:41:55Z</time>
      </trkpt>
      <trkpt lat="42.71086" lon="1.65839">
        <ele>1328.1</ele>
        <time>2020-02-08T10:41:56Z</time>
      </trkpt>
      <trkpt lat="42.71086" lon="1.65839">
        <ele>1328.2</ele>
        <time>2020-02-08T10:41:57Z</time>
      </trkpt>
      <trkpt lat="42.71086" lon="1.65839">
        <ele>1328.2</ele>
        <time>2020-02-08T10:41:58Z</time>
      </trkpt>
      <trkpt lat="42.71086" lon="1.65839">
        <ele>1328.2</ele>
        <time>2020-02-08T10:41:59Z</time>
      </trkpt>
      <trkpt lat="42.71086" lon="1.65839">
        <ele>1328.3</ele>
        <time>2020-02-08T10:42:00Z</time>
      </trkpt>
      <trkpt lat="42.71086" lon="1.65839">
        <ele>1328.3</ele>
        <time>2020-02-08T10:42:01Z</time>
      </trkpt>
      <trkpt lat="42.71086" lon="1.65839">
        <ele>1328.4</ele>
        <time>2020-02-08T10:42:02Z</time>
      </trkpt>
      <trkpt lat="42.71086" lon="1.65839">
        <ele>1328.4</ele>
        <time>2020-02-08T10:42:03Z</time>
      </trkpt>
      <trkpt lat="42.71086" lon="1.65839">
        <ele>1328.5</ele>
        <time>2020-02-08T10:42:04Z</time>
      </trkpt>
      <trkpt lat="42.71086" lon="1.65839">
        <ele>1328.5</ele>
        <time>2020-02-08T10:42:05Z</time>
      </trkpt>
      <trkpt lat="42.71086" lon="1.65839">
        <ele>1328.6</ele>
        <time>2020-02-08T10:42:06Z</time>
      </trkpt>
      <trkpt lat="42.71086" lon="1.65839">
        <ele>1328.7</ele>
        <time>2020-02-08T10:42:07Z</time>
      </trkpt>
      <trkpt lat="42.71086" lon="1.65839">
        <ele>1328.7</ele>
        <time>2020-02-08T10:42:08Z</time>
      </trkpt>
      <trkpt lat="42.71086" lon="1.65839">
        <ele>1328.7</ele>
        <time>2020-02-08T10:42:09Z</time>
      </trkpt>
      <trkpt lat="42.71086" lon="1.65839">
        <ele>1328.8</ele>
        <time>2020-02-08T10:42:10Z</time>
      </trkpt>
      <trkpt lat="42.71086" lon="1.65839">
        <ele>1328.8</ele>
        <time>2020-02-08T10:42:11Z</time>
      </trkpt>
      <trkpt lat="42.71086" lon="1.65839">
        <ele>1328.9</ele>
        <time>2020-02-08T10:42:12Z</time>
      </trkpt>
      <trkpt lat="42.71086" lon="1.65839">
        <ele>1328.9</ele>
        <time>2020-02-08T10:42:13Z</time>
      </trkpt>
      <trkpt lat="42.71086" lon="1.65839">
        <ele>1329</ele>
        <time>2020-02-08T10:42:14Z</time>
      </trkpt>
      <trkpt lat="42.71086" lon="1.65839">
        <ele>1329</ele>
        <time>2020-02-08T10:42:15Z</time>
      </trkpt>
      <trkpt lat="42.71086" lon="1.65839">
        <ele>1329.1</ele>
        <time>2020-02-08T10:42:16Z</time>
      </trkpt>
      <trkpt lat="42.71086" lon="1.65839">
        <ele>1329.1</ele>
        <time>2020-02-08T10:42:17Z</time>
      </trkpt>
      <trkpt lat="42.71086" lon="1.65839">
        <ele>1329.1</ele>
        <time>2020-02-08T10:42:18Z</time>
      </trkpt>
      <trkpt lat="42.71086" lon="1.65839">
        <ele>1329.2</ele>
        <time>2020-02-08T10:42:19Z</time>
      </trkpt>
      <trkpt lat="42.71086" lon="1.65839">
        <ele>1329.2</ele>
        <time>2020-02-08T10:42:20Z</time>
      </trkpt>
      <trkpt lat="42.71086" lon="1.65839">
        <ele>1329.3</ele>
        <time>2020-02-08T10:42:21Z</time>
      </trkpt>
      <trkpt lat="42.71086" lon="1.6584">
        <ele>1329.4</ele>
        <time>2020-02-08T10:42:22Z</time>
      </trkpt>
      <trkpt lat="42.71086" lon="1.6584">
        <ele>1329.5</ele>
        <time>2020-02-08T10:42:23Z</time>
      </trkpt>
      <trkpt lat="42.71086" lon="1.6584">
        <ele>1329.5</ele>
        <time>2020-02-08T10:42:24Z</time>
      </trkpt>
      <trkpt lat="42.71085" lon="1.6584">
        <ele>1329.5</ele>
        <time>2020-02-08T10:42:25Z</time>
      </trkpt>
      <trkpt lat="42.71085" lon="1.6584">
        <ele>1329.6</ele>
        <time>2020-02-08T10:42:26Z</time>
      </trkpt>
      <trkpt lat="42.71085" lon="1.6584">
        <ele>1329.7</ele>
        <time>2020-02-08T10:42:27Z</time>
      </trkpt>
      <trkpt lat="42.71085" lon="1.6584">
        <ele>1329.8</ele>
        <time>2020-02-08T10:42:28Z</time>
      </trkpt>
      <trkpt lat="42.71085" lon="1.6584">
        <ele>1329.8</ele>
        <time>2020-02-08T10:42:29Z</time>
      </trkpt>
      <trkpt lat="42.71084" lon="1.6584">
        <ele>1329.9</ele>
        <time>2020-02-08T10:42:30Z</time>
      </trkpt>
      <trkpt lat="42.71084" lon="1.6584">
        <ele>1329.9</ele>
        <time>2020-02-08T10:42:31Z</time>
      </trkpt>
      <trkpt lat="42.71084" lon="1.6584">
        <ele>1330</ele>
        <time>2020-02-08T10:42:32Z</time>
      </trkpt>
      <trkpt lat="42.71084" lon="1.65841">
        <ele>1330</ele>
        <time>2020-02-08T10:42:33Z</time>
      </trkpt>
      <trkpt lat="42.71084" lon="1.65841">
        <ele>1330.1</ele>
        <time>2020-02-08T10:42:34Z</time>
      </trkpt>
      <trkpt lat="42.71083" lon="1.65841">
        <ele>1330.2</ele>
        <time>2020-02-08T10:42:35Z</time>
      </trkpt>
      <trkpt lat="42.71083" lon="1.65841">
        <ele>1330.3</ele>
        <time>2020-02-08T10:42:36Z</time>
      </trkpt>
      <trkpt lat="42.71083" lon="1.65841">
        <ele>1330.3</ele>
        <time>2020-02-08T10:42:37Z</time>
      </trkpt>
      <trkpt lat="42.71083" lon="1.65841">
        <ele>1330.3</ele>
        <time>2020-02-08T10:42:38Z</time>
      </trkpt>
      <trkpt lat="42.71083" lon="1.65841">
        <ele>1330.4</ele>
        <time>2020-02-08T10:42:39Z</time>
      </trkpt>
      <trkpt lat="42.71083" lon="1.65841">
        <ele>1330.4</ele>
        <time>2020-02-08T10:42:40Z</time>
      </trkpt>
      <trkpt lat="42.71082" lon="1.65841">
        <ele>1330.6</ele>
        <time>2020-02-08T10:42:41Z</time>
      </trkpt>
      <trkpt lat="42.71082" lon="1.65841">
        <ele>1330.6</ele>
        <time>2020-02-08T10:42:42Z</time>
      </trkpt>
      <trkpt lat="42.71082" lon="1.65842">
        <ele>1330.7</ele>
        <time>2020-02-08T10:42:43Z</time>
      </trkpt>
      <trkpt lat="42.71082" lon="1.65842">
        <ele>1330.7</ele>
        <time>2020-02-08T10:42:44Z</time>
      </trkpt>
      <trkpt lat="42.71082" lon="1.65842">
        <ele>1330.8</ele>
        <time>2020-02-08T10:42:45Z</time>
      </trkpt>
      <trkpt lat="42.71081" lon="1.65842">
        <ele>1330.8</ele>
        <time>2020-02-08T10:42:46Z</time>
      </trkpt>
      <trkpt lat="42.71081" lon="1.65842">
        <ele>1330.8</ele>
        <time>2020-02-08T10:42:47Z</time>
      </trkpt>
      <trkpt lat="42.71081" lon="1.65842">
        <ele>1331</ele>
        <time>2020-02-08T10:42:48Z</time>
      </trkpt>
      <trkpt lat="42.71081" lon="1.65842">
        <ele>1331</ele>
        <time>2020-02-08T10:42:49Z</time>
      </trkpt>
      <trkpt lat="42.71081" lon="1.65842">
        <ele>1331.1</ele>
        <time>2020-02-08T10:42:50Z</time>
      </trkpt>
      <trkpt lat="42.7108" lon="1.65842">
        <ele>1331.1</ele>
        <time>2020-02-08T10:42:51Z</time>
      </trkpt>
      <trkpt lat="42.7108" lon="1.65842">
        <ele>1331.2</ele>
        <time>2020-02-08T10:42:52Z</time>
      </trkpt>
      <trkpt lat="42.7108" lon="1.65843">
        <ele>1331.2</ele>
        <time>2020-02-08T10:42:53Z</time>
      </trkpt>
      <trkpt lat="42.7108" lon="1.65843">
        <ele>1331.2</ele>
        <time>2020-02-08T10:42:54Z</time>
      </trkpt>
      <trkpt lat="42.7108" lon="1.65843">
        <ele>1331.4</ele>
        <time>2020-02-08T10:42:55Z</time>
      </trkpt>
      <trkpt lat="42.7108" lon="1.65843">
        <ele>1331.4</ele>
        <time>2020-02-08T10:42:56Z</time>
      </trkpt>
      <trkpt lat="42.71079" lon="1.65843">
        <ele>1331.5</ele>
        <time>2020-02-08T10:42:57Z</time>
      </trkpt>
      <trkpt lat="42.71079" lon="1.65843">
        <ele>1331.5</ele>
        <time>2020-02-08T10:42:58Z</time>
      </trkpt>
      <trkpt lat="42.71079" lon="1.65843">
        <ele>1331.5</ele>
        <time>2020-02-08T10:42:59Z</time>
      </trkpt>
      <trkpt lat="42.71079" lon="1.65843">
        <ele>1331.5</ele>
        <time>2020-02-08T10:43:00Z</time>
      </trkpt>
      <trkpt lat="42.71079" lon="1.65843">
        <ele>1331.5</ele>
        <time>2020-02-08T10:43:01Z</time>
      </trkpt>
      <trkpt lat="42.71078" lon="1.65843">
        <ele>1331.6</ele>
        <time>2020-02-08T10:43:02Z</time>
      </trkpt>
      <trkpt lat="42.71078" lon="1.65843">
        <ele>1331.6</ele>
        <time>2020-02-08T10:43:03Z</time>
      </trkpt>
      <trkpt lat="42.71078" lon="1.65844">
        <ele>1331.6</ele>
        <time>2020-02-08T10:43:04Z</time>
      </trkpt>
      <trkpt lat="42.71078" lon="1.65844">
        <ele>1331.6</ele>
        <time>2020-02-08T10:43:05Z</time>
      </trkpt>
      <trkpt lat="42.71078" lon="1.65844">
        <ele>1331.6</ele>
        <time>2020-02-08T10:43:06Z</time>
      </trkpt>
      <trkpt lat="42.71078" lon="1.65844">
        <ele>1331.6</ele>
        <time>2020-02-08T10:43:07Z</time>
      </trkpt>
      <trkpt lat="42.71077" lon="1.65844">
        <ele>1331.7</ele>
        <time>2020-02-08T10:43:08Z</time>
      </trkpt>
      <trkpt lat="42.71077" lon="1.65844">
        <ele>1331.7</ele>
        <time>2020-02-08T10:43:09Z</time>
      </trkpt>
      <trkpt lat="42.71078" lon="1.65844">
        <ele>1331.7</ele>
        <time>2020-02-08T10:43:10Z</time>
      </trkpt>
      <trkpt lat="42.71078" lon="1.65844">
        <ele>1331.7</ele>
        <time>2020-02-08T10:43:11Z</time>
      </trkpt>
      <trkpt lat="42.71078" lon="1.65844">
        <ele>1331.8</ele>
        <time>2020-02-08T10:43:12Z</time>
      </trkpt>
      <trkpt lat="42.71079" lon="1.65844">
        <ele>1331.8</ele>
        <time>2020-02-08T10:43:13Z</time>
      </trkpt>
      <trkpt lat="42.71079" lon="1.65844">
        <ele>1331.8</ele>
        <time>2020-02-08T10:43:14Z</time>
      </trkpt>
      <trkpt lat="42.71079" lon="1.65844">
        <ele>1331.8</ele>
        <time>2020-02-08T10:43:15Z</time>
      </trkpt>
      <trkpt lat="42.7108" lon="1.65844">
        <ele>1331.9</ele>
        <time>2020-02-08T10:43:16Z</time>
      </trkpt>
      <trkpt lat="42.7108" lon="1.65844">
        <ele>1331.9</ele>
        <time>2020-02-08T10:43:17Z</time>
      </trkpt>
      <trkpt lat="42.71081" lon="1.65844">
        <ele>1331.9</ele>
        <time>2020-02-08T10:43:18Z</time>
      </trkpt>
      <trkpt lat="42.71081" lon="1.65844">
        <ele>1332</ele>
        <time>2020-02-08T10:43:19Z</time>
      </trkpt>
      <trkpt lat="42.71081" lon="1.65844">
        <ele>1332</ele>
        <time>2020-02-08T10:43:20Z</time>
      </trkpt>
      <trkpt lat="42.71082" lon="1.65844">
        <ele>1332</ele>
        <time>2020-02-08T10:43:21Z</time>
      </trkpt>
      <trkpt lat="42.71082" lon="1.65844">
        <ele>1332</ele>
        <time>2020-02-08T10:43:22Z</time>
      </trkpt>
      <trkpt lat="42.71082" lon="1.65844">
        <ele>1332.1</ele>
        <time>2020-02-08T10:43:23Z</time>
      </trkpt>
      <trkpt lat="42.71083" lon="1.65844">
        <ele>1332.1</ele>
        <time>2020-02-08T10:43:24Z</time>
      </trkpt>
      <trkpt lat="42.71083" lon="1.65844">
        <ele>1332.1</ele>
        <time>2020-02-08T10:43:25Z</time>
      </trkpt>
      <trkpt lat="42.71083" lon="1.65843">
        <ele>1332.1</ele>
        <time>2020-02-08T10:43:26Z</time>
      </trkpt>
      <trkpt lat="42.71084" lon="1.65843">
        <ele>1332.2</ele>
        <time>2020-02-08T10:43:27Z</time>
      </trkpt>
      <trkpt lat="42.71084" lon="1.65843">
        <ele>1332.2</ele>
        <time>2020-02-08T10:43:28Z</time>
      </trkpt>
      <trkpt lat="42.71085" lon="1.65843">
        <ele>1332.2</ele>
        <time>2020-02-08T10:43:29Z</time>
      </trkpt>
      <trkpt lat="42.71085" lon="1.65843">
        <ele>1332.3</ele>
        <time>2020-02-08T10:43:30Z</time>
      </trkpt>
      <trkpt lat="42.71085" lon="1.65843">
        <ele>1332.3</ele>
        <time>2020-02-08T10:43:31Z</time>
      </trkpt>
      <trkpt lat="42.71086" lon="1.65843">
        <ele>1332.3</ele>
        <time>2020-02-08T10:43:32Z</time>
      </trkpt>
      <trkpt lat="42.71086" lon="1.65843">
        <ele>1332.4</ele>
        <time>2020-02-08T10:43:33Z</time>
      </trkpt>
      <trkpt lat="42.71086" lon="1.65843">
        <ele>1332.4</ele>
        <time>2020-02-08T10:43:34Z</time>
      </trkpt>
      <trkpt lat="42.71087" lon="1.65843">
        <ele>1332.4</ele>
        <time>2020-02-08T10:43:35Z</time>
      </trkpt>
      <trkpt lat="42.71087" lon="1.65843">
        <ele>1332.4</ele>
        <time>2020-02-08T10:43:36Z</time>
      </trkpt>
      <trkpt lat="42.71088" lon="1.65843">
        <ele>1332.5</ele>
        <time>2020-02-08T10:43:37Z</time>
      </trkpt>
      <trkpt lat="42.71088" lon="1.65843">
        <ele>1332.5</ele>
        <time>2020-02-08T10:43:38Z</time>
      </trkpt>
      <trkpt lat="42.71088" lon="1.65843">
        <ele>1332.5</ele>
        <time>2020-02-08T10:43:39Z</time>
      </trkpt>
      <trkpt lat="42.71088" lon="1.65843">
        <ele>1332.6</ele>
        <time>2020-02-08T10:43:40Z</time>
      </trkpt>
      <trkpt lat="42.71087" lon="1.65843">
        <ele>1332.6</ele>
        <time>2020-02-08T10:43:41Z</time>
      </trkpt>
      <trkpt lat="42.71086" lon="1.65843">
        <ele>1332.7</ele>
        <time>2020-02-08T10:43:42Z</time>
      </trkpt>
      <trkpt lat="42.71085" lon="1.65843">
        <ele>1332.7</ele>
        <time>2020-02-08T10:43:43Z</time>
      </trkpt>
      <trkpt lat="42.71085" lon="1.65843">
        <ele>1332.8</ele>
        <time>2020-02-08T10:43:44Z</time>
      </trkpt>
      <trkpt lat="42.71084" lon="1.65842">
        <ele>1332.8</ele>
        <time>2020-02-08T10:43:45Z</time>
      </trkpt>
      <trkpt lat="42.71083" lon="1.65842">
        <ele>1332.9</ele>
        <time>2020-02-08T10:43:46Z</time>
      </trkpt>
      <trkpt lat="42.71083" lon="1.65842">
        <ele>1333</ele>
        <time>2020-02-08T10:43:47Z</time>
      </trkpt>
      <trkpt lat="42.71082" lon="1.65842">
        <ele>1333</ele>
        <time>2020-02-08T10:43:48Z</time>
      </trkpt>
      <trkpt lat="42.71081" lon="1.65842">
        <ele>1333.1</ele>
        <time>2020-02-08T10:43:49Z</time>
      </trkpt>
      <trkpt lat="42.7108" lon="1.65842">
        <ele>1333.1</ele>
        <time>2020-02-08T10:43:50Z</time>
      </trkpt>
      <trkpt lat="42.7108" lon="1.65842">
        <ele>1333.2</ele>
        <time>2020-02-08T10:43:51Z</time>
      </trkpt>
      <trkpt lat="42.71079" lon="1.65842">
        <ele>1333.2</ele>
        <time>2020-02-08T10:43:52Z</time>
      </trkpt>
      <trkpt lat="42.71078" lon="1.65842">
        <ele>1333.3</ele>
        <time>2020-02-08T10:43:53Z</time>
      </trkpt>
      <trkpt lat="42.71078" lon="1.65842">
        <ele>1333.3</ele>
        <time>2020-02-08T10:43:54Z</time>
      </trkpt>
      <trkpt lat="42.71077" lon="1.65842">
        <ele>1333.4</ele>
        <time>2020-02-08T10:43:55Z</time>
      </trkpt>
      <trkpt lat="42.71076" lon="1.65841">
        <ele>1333.4</ele>
        <time>2020-02-08T10:43:56Z</time>
      </trkpt>
      <trkpt lat="42.71075" lon="1.65841">
        <ele>1333.5</ele>
        <time>2020-02-08T10:43:57Z</time>
      </trkpt>
      <trkpt lat="42.71075" lon="1.65841">
        <ele>1333.5</ele>
        <time>2020-02-08T10:43:58Z</time>
      </trkpt>
      <trkpt lat="42.71074" lon="1.65841">
        <ele>1333.6</ele>
        <time>2020-02-08T10:43:59Z</time>
      </trkpt>
      <trkpt lat="42.71073" lon="1.65841">
        <ele>1333.6</ele>
        <time>2020-02-08T10:44:00Z</time>
      </trkpt>
      <trkpt lat="42.71072" lon="1.65841">
        <ele>1333.6</ele>
        <time>2020-02-08T10:44:01Z</time>
      </trkpt>
      <trkpt lat="42.71072" lon="1.65841">
        <ele>1333.7</ele>
        <time>2020-02-08T10:44:02Z</time>
      </trkpt>
      <trkpt lat="42.71071" lon="1.65841">
        <ele>1333.7</ele>
        <time>2020-02-08T10:44:03Z</time>
      </trkpt>
      <trkpt lat="42.7107" lon="1.65841">
        <ele>1333.7</ele>
        <time>2020-02-08T10:44:04Z</time>
      </trkpt>
      <trkpt lat="42.7107" lon="1.65841">
        <ele>1333.8</ele>
        <time>2020-02-08T10:44:05Z</time>
      </trkpt>
      <trkpt lat="42.71069" lon="1.6584">
        <ele>1333.8</ele>
        <time>2020-02-08T10:44:06Z</time>
      </trkpt>
      <trkpt lat="42.71068" lon="1.6584">
        <ele>1333.9</ele>
        <time>2020-02-08T10:44:07Z</time>
      </trkpt>
      <trkpt lat="42.71067" lon="1.6584">
        <ele>1333.9</ele>
        <time>2020-02-08T10:44:08Z</time>
      </trkpt>
      <trkpt lat="42.71067" lon="1.6584">
        <ele>1333.9</ele>
        <time>2020-02-08T10:44:09Z</time>
      </trkpt>
      <trkpt lat="42.71067" lon="1.6584">
        <ele>1333.9</ele>
        <time>2020-02-08T10:44:10Z</time>
      </trkpt>
      <trkpt lat="42.71067" lon="1.6584">
        <ele>1334</ele>
        <time>2020-02-08T10:44:11Z</time>
      </trkpt>
      <trkpt lat="42.71067" lon="1.6584">
        <ele>1334</ele>
        <time>2020-02-08T10:44:12Z</time>
      </trkpt>
      <trkpt lat="42.71068" lon="1.6584">
        <ele>1334</ele>
        <time>2020-02-08T10:44:13Z</time>
      </trkpt>
      <trkpt lat="42.71068" lon="1.6584">
        <ele>1334</ele>
        <time>2020-02-08T10:44:14Z</time>
      </trkpt>
      <trkpt lat="42.71068" lon="1.6584">
        <ele>1334</ele>
        <time>2020-02-08T10:44:15Z</time>
      </trkpt>
      <trkpt lat="42.71068" lon="1.6584">
        <ele>1334</ele>
        <time>2020-02-08T10:44:16Z</time>
      </trkpt>
      <trkpt lat="42.71069" lon="1.65839">
        <ele>1334</ele>
        <time>2020-02-08T10:44:17Z</time>
      </trkpt>
      <trkpt lat="42.71069" lon="1.65839">
        <ele>1334</ele>
        <time>2020-02-08T10:44:18Z</time>
      </trkpt>
      <trkpt lat="42.71069" lon="1.65839">
        <ele>1334.1</ele>
        <time>2020-02-08T10:44:19Z</time>
      </trkpt>
      <trkpt lat="42.71069" lon="1.65839">
        <ele>1334.1</ele>
        <time>2020-02-08T10:44:20Z</time>
      </trkpt>
      <trkpt lat="42.71069" lon="1.65839">
        <ele>1334.1</ele>
        <time>2020-02-08T10:44:21Z</time>
      </trkpt>
      <trkpt lat="42.7107" lon="1.65839">
        <ele>1334.1</ele>
        <time>2020-02-08T10:44:22Z</time>
      </trkpt>
      <trkpt lat="42.7107" lon="1.65839">
        <ele>1334.1</ele>
        <time>2020-02-08T10:44:23Z</time>
      </trkpt>
      <trkpt lat="42.7107" lon="1.65839">
        <ele>1334.1</ele>
        <time>2020-02-08T10:44:24Z</time>
      </trkpt>
      <trkpt lat="42.7107" lon="1.65839">
        <ele>1334.1</ele>
        <time>2020-02-08T10:44:25Z</time>
      </trkpt>
      <trkpt lat="42.71071" lon="1.65839">
        <ele>1334.1</ele>
        <time>2020-02-08T10:44:26Z</time>
      </trkpt>
      <trkpt lat="42.71071" lon="1.65839">
        <ele>1334.2</ele>
        <time>2020-02-08T10:44:27Z</time>
      </trkpt>
      <trkpt lat="42.71071" lon="1.65838">
        <ele>1334.2</ele>
        <time>2020-02-08T10:44:28Z</time>
      </trkpt>
      <trkpt lat="42.71071" lon="1.65838">
        <ele>1334.2</ele>
        <time>2020-02-08T10:44:29Z</time>
      </trkpt>
      <trkpt lat="42.71072" lon="1.65838">
        <ele>1334.2</ele>
        <time>2020-02-08T10:44:30Z</time>
      </trkpt>
      <trkpt lat="42.71072" lon="1.65838">
        <ele>1334.2</ele>
        <time>2020-02-08T10:44:31Z</time>
      </trkpt>
      <trkpt lat="42.71072" lon="1.65838">
        <ele>1334.2</ele>
        <time>2020-02-08T10:44:32Z</time>
      </trkpt>
      <trkpt lat="42.71072" lon="1.65838">
        <ele>1334.2</ele>
        <time>2020-02-08T10:44:33Z</time>
      </trkpt>
      <trkpt lat="42.71073" lon="1.65838">
        <ele>1334.3</ele>
        <time>2020-02-08T10:44:34Z</time>
      </trkpt>
      <trkpt lat="42.71073" lon="1.65838">
        <ele>1334.3</ele>
        <time>2020-02-08T10:44:35Z</time>
      </trkpt>
      <trkpt lat="42.71073" lon="1.65838">
        <ele>1334.3</ele>
        <time>2020-02-08T10:44:36Z</time>
      </trkpt>
      <trkpt lat="42.71073" lon="1.65838">
        <ele>1334.3</ele>
        <time>2020-02-08T10:44:37Z</time>
      </trkpt>
      <trkpt lat="42.71073" lon="1.65838">
        <ele>1334.3</ele>
        <time>2020-02-08T10:44:38Z</time>
      </trkpt>
      <trkpt lat="42.71074" lon="1.65838">
        <ele>1334.3</ele>
        <time>2020-02-08T10:44:39Z</time>
      </trkpt>
      <trkpt lat="42.71074" lon="1.65837">
        <ele>1334.3</ele>
        <time>2020-02-08T10:44:40Z</time>
      </trkpt>
      <trkpt lat="42.71074" lon="1.65837">
        <ele>1334.3</ele>
        <time>2020-02-08T10:44:41Z</time>
      </trkpt>
      <trkpt lat="42.71074" lon="1.65837">
        <ele>1334.4</ele>
        <time>2020-02-08T10:44:42Z</time>
      </trkpt>
      <trkpt lat="42.71075" lon="1.65837">
        <ele>1334.4</ele>
        <time>2020-02-08T10:44:43Z</time>
      </trkpt>
      <trkpt lat="42.71075" lon="1.65837">
        <ele>1334.4</ele>
        <time>2020-02-08T10:44:44Z</time>
      </trkpt>
      <trkpt lat="42.71075" lon="1.65837">
        <ele>1334.4</ele>
        <time>2020-02-08T10:44:45Z</time>
      </trkpt>
      <trkpt lat="42.71075" lon="1.65837">
        <ele>1334.4</ele>
        <time>2020-02-08T10:44:46Z</time>
      </trkpt>
      <trkpt lat="42.71076" lon="1.65837">
        <ele>1334.4</ele>
        <time>2020-02-08T10:44:47Z</time>
      </trkpt>
      <trkpt lat="42.71076" lon="1.65837">
        <ele>1334.4</ele>
        <time>2020-02-08T10:44:48Z</time>
      </trkpt>
      <trkpt lat="42.71076" lon="1.65837">
        <ele>1334.4</ele>
        <time>2020-02-08T10:44:49Z</time>
      </trkpt>
      <trkpt lat="42.71076" lon="1.65837">
        <ele>1334.5</ele>
        <time>2020-02-08T10:44:50Z</time>
      </trkpt>
      <trkpt lat="42.71077" lon="1.65836">
        <ele>1334.5</ele>
        <time>2020-02-08T10:44:51Z</time>
      </trkpt>
      <trkpt lat="42.71077" lon="1.65836">
        <ele>1334.5</ele>
        <time>2020-02-08T10:44:52Z</time>
      </trkpt>
      <trkpt lat="42.71077" lon="1.65836">
        <ele>1334.5</ele>
        <time>2020-02-08T10:44:53Z</time>
      </trkpt>
      <trkpt lat="42.71077" lon="1.65836">
        <ele>1334.5</ele>
        <time>2020-02-08T10:44:54Z</time>
      </trkpt>
      <trkpt lat="42.71078" lon="1.65836">
        <ele>1334.5</ele>
        <time>2020-02-08T10:44:55Z</time>
      </trkpt>
      <trkpt lat="42.71078" lon="1.65836">
        <ele>1334.5</ele>
        <time>2020-02-08T10:44:56Z</time>
      </trkpt>
      <trkpt lat="42.71078" lon="1.65836">
        <ele>1334.5</ele>
        <time>2020-02-08T10:44:57Z</time>
      </trkpt>
      <trkpt lat="42.71078" lon="1.65836">
        <ele>1334.6</ele>
        <time>2020-02-08T10:44:58Z</time>
      </trkpt>
      <trkpt lat="42.71078" lon="1.65836">
        <ele>1334.6</ele>
        <time>2020-02-08T10:44:59Z</time>
      </trkpt>
      <trkpt lat="42.71079" lon="1.65836">
        <ele>1334.6</ele>
        <time>2020-02-08T10:45:00Z</time>
      </trkpt>
      <trkpt lat="42.7108" lon="1.65837">
        <ele>1334.7</ele>
        <time>2020-02-08T10:45:01Z</time>
      </trkpt>
      <trkpt lat="42.71081" lon="1.65837">
        <ele>1334.7</ele>
        <time>2020-02-08T10:45:02Z</time>
      </trkpt>
      <trkpt lat="42.71082" lon="1.65838">
        <ele>1334.8</ele>
        <time>2020-02-08T10:45:03Z</time>
      </trkpt>
      <trkpt lat="42.71083" lon="1.65838">
        <ele>1334.8</ele>
        <time>2020-02-08T10:45:04Z</time>
      </trkpt>
      <trkpt lat="42.71084" lon="1.65839">
        <ele>1334.9</ele>
        <time>2020-02-08T10:45:05Z</time>
      </trkpt>
      <trkpt lat="42.71085" lon="1.65839">
        <ele>1334.9</ele>
        <time>2020-02-08T10:45:06Z</time>
      </trkpt>
      <trkpt lat="42.71086" lon="1.6584">
        <ele>1335</ele>
        <time>2020-02-08T10:45:07Z</time>
      </trkpt>
      <trkpt lat="42.71087" lon="1.6584">
        <ele>1335</ele>
        <time>2020-02-08T10:45:08Z</time>
      </trkpt>
      <trkpt lat="42.71088" lon="1.65841">
        <ele>1335.1</ele>
        <time>2020-02-08T10:45:09Z</time>
      </trkpt>
      <trkpt lat="42.71087" lon="1.6584">
        <ele>1335.2</ele>
        <time>2020-02-08T10:45:10Z</time>
      </trkpt>
      <trkpt lat="42.71085" lon="1.6584">
        <ele>1335.2</ele>
        <time>2020-02-08T10:45:11Z</time>
      </trkpt>
      <trkpt lat="42.71084" lon="1.65839">
        <ele>1335.3</ele>
        <time>2020-02-08T10:45:12Z</time>
      </trkpt>
      <trkpt lat="42.71082" lon="1.65839">
        <ele>1335.4</ele>
        <time>2020-02-08T10:45:13Z</time>
      </trkpt>
      <trkpt lat="42.71081" lon="1.65839">
        <ele>1335.5</ele>
        <time>2020-02-08T10:45:14Z</time>
      </trkpt>
      <trkpt lat="42.7108" lon="1.65838">
        <ele>1335.5</ele>
        <time>2020-02-08T10:45:15Z</time>
      </trkpt>
      <trkpt lat="42.71078" lon="1.65838">
        <ele>1335.6</ele>
        <time>2020-02-08T10:45:16Z</time>
      </trkpt>
      <trkpt lat="42.71077" lon="1.65838">
        <ele>1335.7</ele>
        <time>2020-02-08T10:45:17Z</time>
      </trkpt>
      <trkpt lat="42.71075" lon="1.65837">
        <ele>1335.7</ele>
        <time>2020-02-08T10:45:18Z</time>
      </trkpt>
      <trkpt lat="42.71074" lon="1.65837">
        <ele>1335.8</ele>
        <time>2020-02-08T10:45:19Z</time>
      </trkpt>
      <trkpt lat="42.71074" lon="1.65837">
        <ele>1335.8</ele>
        <time>2020-02-08T10:45:20Z</time>
      </trkpt>
      <trkpt lat="42.71075" lon="1.65837">
        <ele>1335.8</ele>
        <time>2020-02-08T10:45:21Z</time>
      </trkpt>
      <trkpt lat="42.71075" lon="1.65837">
        <ele>1335.8</ele>
        <time>2020-02-08T10:45:22Z</time>
      </trkpt>
      <trkpt lat="42.71075" lon="1.65837">
        <ele>1335.8</ele>
        <time>2020-02-08T10:45:23Z</time>
      </trkpt>
      <trkpt lat="42.71075" lon="1.65837">
        <ele>1335.8</ele>
        <time>2020-02-08T10:45:24Z</time>
      </trkpt>
      <trkpt lat="42.71075" lon="1.65837">
        <ele>1335.8</ele>
        <time>2020-02-08T10:45:25Z</time>
      </trkpt>
      <trkpt lat="42.71076" lon="1.65837">
        <ele>1335.8</ele>
        <time>2020-02-08T10:45:26Z</time>
      </trkpt>
      <trkpt lat="42.71076" lon="1.65838">
        <ele>1335.8</ele>
        <time>2020-02-08T10:45:27Z</time>
      </trkpt>
      <trkpt lat="42.71076" lon="1.65838">
        <ele>1335.8</ele>
        <time>2020-02-08T10:45:28Z</time>
      </trkpt>
      <trkpt lat="42.71076" lon="1.65838">
        <ele>1335.8</ele>
        <time>2020-02-08T10:45:29Z</time>
      </trkpt>
      <trkpt lat="42.71077" lon="1.65838">
        <ele>1335.8</ele>
        <time>2020-02-08T10:45:30Z</time>
      </trkpt>
      <trkpt lat="42.71077" lon="1.65838">
        <ele>1335.8</ele>
        <time>2020-02-08T10:45:31Z</time>
      </trkpt>
      <trkpt lat="42.71077" lon="1.65838">
        <ele>1335.8</ele>
        <time>2020-02-08T10:45:32Z</time>
      </trkpt>
      <trkpt lat="42.71077" lon="1.65838">
        <ele>1335.9</ele>
        <time>2020-02-08T10:45:33Z</time>
      </trkpt>
      <trkpt lat="42.71078" lon="1.65838">
        <ele>1335.9</ele>
        <time>2020-02-08T10:45:34Z</time>
      </trkpt>
      <trkpt lat="42.71078" lon="1.65838">
        <ele>1335.9</ele>
        <time>2020-02-08T10:45:35Z</time>
      </trkpt>
      <trkpt lat="42.71078" lon="1.65838">
        <ele>1335.9</ele>
        <time>2020-02-08T10:45:36Z</time>
      </trkpt>
      <trkpt lat="42.71078" lon="1.65839">
        <ele>1335.9</ele>
        <time>2020-02-08T10:45:37Z</time>
      </trkpt>
      <trkpt lat="42.71079" lon="1.65839">
        <ele>1335.9</ele>
        <time>2020-02-08T10:45:38Z</time>
      </trkpt>
      <trkpt lat="42.71079" lon="1.65839">
        <ele>1335.9</ele>
        <time>2020-02-08T10:45:39Z</time>
      </trkpt>
      <trkpt lat="42.71079" lon="1.65839">
        <ele>1335.9</ele>
        <time>2020-02-08T10:45:40Z</time>
      </trkpt>
      <trkpt lat="42.71079" lon="1.65839">
        <ele>1335.9</ele>
        <time>2020-02-08T10:45:41Z</time>
      </trkpt>
      <trkpt lat="42.7108" lon="1.65839">
        <ele>1335.9</ele>
        <time>2020-02-08T10:45:42Z</time>
      </trkpt>
      <trkpt lat="42.7108" lon="1.65839">
        <ele>1335.9</ele>
        <time>2020-02-08T10:45:43Z</time>
      </trkpt>
      <trkpt lat="42.7108" lon="1.65839">
        <ele>1335.9</ele>
        <time>2020-02-08T10:45:44Z</time>
      </trkpt>
      <trkpt lat="42.7108" lon="1.65839">
        <ele>1335.9</ele>
        <time>2020-02-08T10:45:45Z</time>
      </trkpt>
      <trkpt lat="42.71081" lon="1.65839">
        <ele>1335.9</ele>
        <time>2020-02-08T10:45:46Z</time>
      </trkpt>
      <trkpt lat="42.71081" lon="1.65839">
        <ele>1335.9</ele>
        <time>2020-02-08T10:45:47Z</time>
      </trkpt>
      <trkpt lat="42.71081" lon="1.6584">
        <ele>1336</ele>
        <time>2020-02-08T10:45:48Z</time>
      </trkpt>
      <trkpt lat="42.71081" lon="1.6584">
        <ele>1336</ele>
        <time>2020-02-08T10:45:49Z</time>
      </trkpt>
      <trkpt lat="42.71081" lon="1.6584">
        <ele>1336</ele>
        <time>2020-02-08T10:45:50Z</time>
      </trkpt>
      <trkpt lat="42.71082" lon="1.6584">
        <ele>1336</ele>
        <time>2020-02-08T10:45:51Z</time>
      </trkpt>
      <trkpt lat="42.71082" lon="1.6584">
        <ele>1336</ele>
        <time>2020-02-08T10:45:52Z</time>
      </trkpt>
      <trkpt lat="42.71082" lon="1.6584">
        <ele>1336</ele>
        <time>2020-02-08T10:45:53Z</time>
      </trkpt>
      <trkpt lat="42.71082" lon="1.6584">
        <ele>1336</ele>
        <time>2020-02-08T10:45:54Z</time>
      </trkpt>
      <trkpt lat="42.71083" lon="1.6584">
        <ele>1336</ele>
        <time>2020-02-08T10:45:55Z</time>
      </trkpt>
      <trkpt lat="42.71083" lon="1.6584">
        <ele>1336</ele>
        <time>2020-02-08T10:45:56Z</time>
      </trkpt>
      <trkpt lat="42.71083" lon="1.6584">
        <ele>1336</ele>
        <time>2020-02-08T10:45:57Z</time>
      </trkpt>
      <trkpt lat="42.71083" lon="1.65841">
        <ele>1336</ele>
        <time>2020-02-08T10:45:58Z</time>
      </trkpt>
      <trkpt lat="42.71084" lon="1.65841">
        <ele>1336</ele>
        <time>2020-02-08T10:45:59Z</time>
      </trkpt>
      <trkpt lat="42.71084" lon="1.65841">
        <ele>1336</ele>
        <time>2020-02-08T10:46:00Z</time>
      </trkpt>
      <trkpt lat="42.71084" lon="1.65841">
        <ele>1336.1</ele>
        <time>2020-02-08T10:46:01Z</time>
      </trkpt>
      <trkpt lat="42.71085" lon="1.65841">
        <ele>1336.1</ele>
        <time>2020-02-08T10:46:02Z</time>
      </trkpt>
      <trkpt lat="42.71085" lon="1.65842">
        <ele>1336.1</ele>
        <time>2020-02-08T10:46:03Z</time>
      </trkpt>
      <trkpt lat="42.71086" lon="1.65842">
        <ele>1336.1</ele>
        <time>2020-02-08T10:46:04Z</time>
      </trkpt>
      <trkpt lat="42.71086" lon="1.65842">
        <ele>1336.1</ele>
        <time>2020-02-08T10:46:05Z</time>
      </trkpt>
      <trkpt lat="42.71087" lon="1.65843">
        <ele>1336.1</ele>
        <time>2020-02-08T10:46:06Z</time>
      </trkpt>
      <trkpt lat="42.71087" lon="1.65843">
        <ele>1336.1</ele>
        <time>2020-02-08T10:46:07Z</time>
      </trkpt>
      <trkpt lat="42.71087" lon="1.65843">
        <ele>1336.1</ele>
        <time>2020-02-08T10:46:08Z</time>
      </trkpt>
      <trkpt lat="42.71088" lon="1.65843">
        <ele>1336.2</ele>
        <time>2020-02-08T10:46:09Z</time>
      </trkpt>
      <trkpt lat="42.71088" lon="1.65844">
        <ele>1336.2</ele>
        <time>2020-02-08T10:46:10Z</time>
      </trkpt>
      <trkpt lat="42.71089" lon="1.65844">
        <ele>1336.2</ele>
        <time>2020-02-08T10:46:11Z</time>
      </trkpt>
      <trkpt lat="42.71089" lon="1.65844">
        <ele>1336.2</ele>
        <time>2020-02-08T10:46:12Z</time>
      </trkpt>
      <trkpt lat="42.71089" lon="1.65845">
        <ele>1336.2</ele>
        <time>2020-02-08T10:46:13Z</time>
      </trkpt>
      <trkpt lat="42.7109" lon="1.65845">
        <ele>1336.2</ele>
        <time>2020-02-08T10:46:14Z</time>
      </trkpt>
      <trkpt lat="42.7109" lon="1.65845">
        <ele>1336.2</ele>
        <time>2020-02-08T10:46:15Z</time>
      </trkpt>
      <trkpt lat="42.71091" lon="1.65845">
        <ele>1336.3</ele>
        <time>2020-02-08T10:46:16Z</time>
      </trkpt>
      <trkpt lat="42.71091" lon="1.65846">
        <ele>1336.3</ele>
        <time>2020-02-08T10:46:17Z</time>
      </trkpt>
      <trkpt lat="42.71092" lon="1.65846">
        <ele>1336.3</ele>
        <time>2020-02-08T10:46:18Z</time>
      </trkpt>
      <trkpt lat="42.71092" lon="1.65846">
        <ele>1336.3</ele>
        <time>2020-02-08T10:46:19Z</time>
      </trkpt>
      <trkpt lat="42.71091" lon="1.65846">
        <ele>1336.3</ele>
        <time>2020-02-08T10:46:20Z</time>
      </trkpt>
      <trkpt lat="42.71091" lon="1.65847">
        <ele>1336.3</ele>
        <time>2020-02-08T10:46:21Z</time>
      </trkpt>
      <trkpt lat="42.7109" lon="1.65847">
        <ele>1336.3</ele>
        <time>2020-02-08T10:46:22Z</time>
      </trkpt>
      <trkpt lat="42.7109" lon="1.65847">
        <ele>1336.3</ele>
        <time>2020-02-08T10:46:23Z</time>
      </trkpt>
      <trkpt lat="42.71089" lon="1.65847">
        <ele>1336.4</ele>
        <time>2020-02-08T10:46:24Z</time>
      </trkpt>
      <trkpt lat="42.71089" lon="1.65848">
        <ele>1336.4</ele>
        <time>2020-02-08T10:46:25Z</time>
      </trkpt>
      <trkpt lat="42.71088" lon="1.65848">
        <ele>1336.4</ele>
        <time>2020-02-08T10:46:26Z</time>
      </trkpt>
      <trkpt lat="42.71088" lon="1.65848">
        <ele>1336.4</ele>
        <time>2020-02-08T10:46:27Z</time>
      </trkpt>
      <trkpt lat="42.71087" lon="1.65848">
        <ele>1336.4</ele>
        <time>2020-02-08T10:46:28Z</time>
      </trkpt>
      <trkpt lat="42.71087" lon="1.65848">
        <ele>1336.4</ele>
        <time>2020-02-08T10:46:29Z</time>
      </trkpt>
      <trkpt lat="42.71086" lon="1.65849">
        <ele>1336.5</ele>
        <time>2020-02-08T10:46:30Z</time>
      </trkpt>
      <trkpt lat="42.71086" lon="1.65849">
        <ele>1336.5</ele>
        <time>2020-02-08T10:46:31Z</time>
      </trkpt>
      <trkpt lat="42.71085" lon="1.65849">
        <ele>1336.5</ele>
        <time>2020-02-08T10:46:32Z</time>
      </trkpt>
      <trkpt lat="42.71085" lon="1.65849">
        <ele>1336.5</ele>
        <time>2020-02-08T10:46:33Z</time>
      </trkpt>
      <trkpt lat="42.71084" lon="1.65849">
        <ele>1336.5</ele>
        <time>2020-02-08T10:46:34Z</time>
      </trkpt>
      <trkpt lat="42.71084" lon="1.6585">
        <ele>1336.5</ele>
        <time>2020-02-08T10:46:35Z</time>
      </trkpt>
      <trkpt lat="42.71083" lon="1.6585">
        <ele>1336.5</ele>
        <time>2020-02-08T10:46:36Z</time>
      </trkpt>
      <trkpt lat="42.71083" lon="1.6585">
        <ele>1336.6</ele>
        <time>2020-02-08T10:46:37Z</time>
      </trkpt>
      <trkpt lat="42.71082" lon="1.6585">
        <ele>1336.6</ele>
        <time>2020-02-08T10:46:38Z</time>
      </trkpt>
      <trkpt lat="42.71082" lon="1.65851">
        <ele>1336.6</ele>
        <time>2020-02-08T10:46:39Z</time>
      </trkpt>
      <trkpt lat="42.71081" lon="1.65851">
        <ele>1336.6</ele>
        <time>2020-02-08T10:46:40Z</time>
      </trkpt>
      <trkpt lat="42.71081" lon="1.65851">
        <ele>1336.6</ele>
        <time>2020-02-08T10:46:41Z</time>
      </trkpt>
      <trkpt lat="42.7108" lon="1.65851">
        <ele>1336.6</ele>
        <time>2020-02-08T10:46:42Z</time>
      </trkpt>
      <trkpt lat="42.7108" lon="1.65851">
        <ele>1336.6</ele>
        <time>2020-02-08T10:46:43Z</time>
      </trkpt>
      <trkpt lat="42.7108" lon="1.65851">
        <ele>1336.6</ele>
        <time>2020-02-08T10:46:44Z</time>
      </trkpt>
      <trkpt lat="42.71079" lon="1.65852">
        <ele>1336.7</ele>
        <time>2020-02-08T10:46:45Z</time>
      </trkpt>
      <trkpt lat="42.71079" lon="1.65852">
        <ele>1336.7</ele>
        <time>2020-02-08T10:46:46Z</time>
      </trkpt>
      <trkpt lat="42.71078" lon="1.65852">
        <ele>1336.7</ele>
        <time>2020-02-08T10:46:47Z</time>
      </trkpt>
      <trkpt lat="42.71078" lon="1.65852">
        <ele>1336.7</ele>
        <time>2020-02-08T10:46:48Z</time>
      </trkpt>
      <trkpt lat="42.71077" lon="1.65852">
        <ele>1336.7</ele>
        <time>2020-02-08T10:46:49Z</time>
      </trkpt>
      <trkpt lat="42.71077" lon="1.65852">
        <ele>1336.7</ele>
        <time>2020-02-08T10:46:50Z</time>
      </trkpt>
      <trkpt lat="42.71076" lon="1.65853">
        <ele>1336.7</ele>
        <time>2020-02-08T10:46:51Z</time>
      </trkpt>
      <trkpt lat="42.71076" lon="1.65853">
        <ele>1336.8</ele>
        <time>2020-02-08T10:46:52Z</time>
      </trkpt>
      <trkpt lat="42.71075" lon="1.65853">
        <ele>1336.8</ele>
        <time>2020-02-08T10:46:53Z</time>
      </trkpt>
      <trkpt lat="42.71075" lon="1.65853">
        <ele>1336.8</ele>
        <time>2020-02-08T10:46:54Z</time>
      </trkpt>
      <trkpt lat="42.71074" lon="1.65853">
        <ele>1336.8</ele>
        <time>2020-02-08T10:46:55Z</time>
      </trkpt>
      <trkpt lat="42.71074" lon="1.65853">
        <ele>1336.8</ele>
        <time>2020-02-08T10:46:56Z</time>
      </trkpt>
      <trkpt lat="42.71073" lon="1.65854">
        <ele>1336.8</ele>
        <time>2020-02-08T10:46:57Z</time>
      </trkpt>
      <trkpt lat="42.71073" lon="1.65854">
        <ele>1336.8</ele>
        <time>2020-02-08T10:46:58Z</time>
      </trkpt>
      <trkpt lat="42.71072" lon="1.65854">
        <ele>1336.9</ele>
        <time>2020-02-08T10:46:59Z</time>
      </trkpt>
      <trkpt lat="42.71073" lon="1.65854">
        <ele>1336.9</ele>
        <time>2020-02-08T10:47:00Z</time>
      </trkpt>
      <trkpt lat="42.71073" lon="1.65854">
        <ele>1336.9</ele>
        <time>2020-02-08T10:47:01Z</time>
      </trkpt>
      <trkpt lat="42.71073" lon="1.65854">
        <ele>1336.9</ele>
        <time>2020-02-08T10:47:02Z</time>
      </trkpt>
      <trkpt lat="42.71073" lon="1.65853">
        <ele>1337</ele>
        <time>2020-02-08T10:47:03Z</time>
      </trkpt>
      <trkpt lat="42.71074" lon="1.65853">
        <ele>1337</ele>
        <time>2020-02-08T10:47:04Z</time>
      </trkpt>
      <trkpt lat="42.71074" lon="1.65853">
        <ele>1337</ele>
        <time>2020-02-08T10:47:05Z</time>
      </trkpt>
      <trkpt lat="42.71074" lon="1.65853">
        <ele>1337</ele>
        <time>2020-02-08T10:47:06Z</time>
      </trkpt>
      <trkpt lat="42.71074" lon="1.65853">
        <ele>1337</ele>
        <time>2020-02-08T10:47:07Z</time>
      </trkpt>
      <trkpt lat="42.71074" lon="1.65853">
        <ele>1337.1</ele>
        <time>2020-02-08T10:47:08Z</time>
      </trkpt>
      <trkpt lat="42.71075" lon="1.65853">
        <ele>1337.1</ele>
        <time>2020-02-08T10:47:09Z</time>
      </trkpt>
      <trkpt lat="42.71075" lon="1.65853">
        <ele>1337.1</ele>
        <time>2020-02-08T10:47:10Z</time>
      </trkpt>
      <trkpt lat="42.71075" lon="1.65852">
        <ele>1337.1</ele>
        <time>2020-02-08T10:47:11Z</time>
      </trkpt>
      <trkpt lat="42.71075" lon="1.65852">
        <ele>1337.2</ele>
        <time>2020-02-08T10:47:12Z</time>
      </trkpt>
      <trkpt lat="42.71075" lon="1.65852">
        <ele>1337.2</ele>
        <time>2020-02-08T10:47:13Z</time>
      </trkpt>
      <trkpt lat="42.71076" lon="1.65852">
        <ele>1337.2</ele>
        <time>2020-02-08T10:47:14Z</time>
      </trkpt>
      <trkpt lat="42.71076" lon="1.65852">
        <ele>1337.2</ele>
        <time>2020-02-08T10:47:15Z</time>
      </trkpt>
      <trkpt lat="42.71076" lon="1.65852">
        <ele>1337.3</ele>
        <time>2020-02-08T10:47:16Z</time>
      </trkpt>
      <trkpt lat="42.71076" lon="1.65852">
        <ele>1337.3</ele>
        <time>2020-02-08T10:47:17Z</time>
      </trkpt>
      <trkpt lat="42.71077" lon="1.65852">
        <ele>1337.3</ele>
        <time>2020-02-08T10:47:18Z</time>
      </trkpt>
      <trkpt lat="42.71077" lon="1.65851">
        <ele>1337.3</ele>
        <time>2020-02-08T10:47:19Z</time>
      </trkpt>
      <trkpt lat="42.71077" lon="1.65851">
        <ele>1337.3</ele>
        <time>2020-02-08T10:47:20Z</time>
      </trkpt>
      <trkpt lat="42.71077" lon="1.65851">
        <ele>1337.4</ele>
        <time>2020-02-08T10:47:21Z</time>
      </trkpt>
      <trkpt lat="42.71077" lon="1.65851">
        <ele>1337.4</ele>
        <time>2020-02-08T10:47:22Z</time>
      </trkpt>
      <trkpt lat="42.71078" lon="1.65851">
        <ele>1337.4</ele>
        <time>2020-02-08T10:47:23Z</time>
      </trkpt>
      <trkpt lat="42.71078" lon="1.65851">
        <ele>1337.4</ele>
        <time>2020-02-08T10:47:24Z</time>
      </trkpt>
      <trkpt lat="42.71078" lon="1.65851">
        <ele>1337.5</ele>
        <time>2020-02-08T10:47:25Z</time>
      </trkpt>
      <trkpt lat="42.71078" lon="1.65851">
        <ele>1337.5</ele>
        <time>2020-02-08T10:47:26Z</time>
      </trkpt>
      <trkpt lat="42.71078" lon="1.6585">
        <ele>1337.5</ele>
        <time>2020-02-08T10:47:27Z</time>
      </trkpt>
      <trkpt lat="42.71079" lon="1.6585">
        <ele>1337.5</ele>
        <time>2020-02-08T10:47:28Z</time>
      </trkpt>
      <trkpt lat="42.71079" lon="1.6585">
        <ele>1337.5</ele>
        <time>2020-02-08T10:47:29Z</time>
      </trkpt>
      <trkpt lat="42.71079" lon="1.6585">
        <ele>1337.6</ele>
        <time>2020-02-08T10:47:30Z</time>
      </trkpt>
      <trkpt lat="42.71079" lon="1.6585">
        <ele>1337.6</ele>
        <time>2020-02-08T10:47:31Z</time>
      </trkpt>
      <trkpt lat="42.7108" lon="1.6585">
        <ele>1337.6</ele>
        <time>2020-02-08T10:47:32Z</time>
      </trkpt>
      <trkpt lat="42.7108" lon="1.6585">
        <ele>1337.6</ele>
        <time>2020-02-08T10:47:33Z</time>
      </trkpt>
      <trkpt lat="42.7108" lon="1.65849">
        <ele>1337.7</ele>
        <time>2020-02-08T10:47:34Z</time>
      </trkpt>
      <trkpt lat="42.7108" lon="1.65849">
        <ele>1337.7</ele>
        <time>2020-02-08T10:47:35Z</time>
      </trkpt>
      <trkpt lat="42.7108" lon="1.65849">
        <ele>1337.7</ele>
        <time>2020-02-08T10:47:36Z</time>
      </trkpt>
      <trkpt lat="42.71081" lon="1.65849">
        <ele>1337.7</ele>
        <time>2020-02-08T10:47:37Z</time>
      </trkpt>
      <trkpt lat="42.71081" lon="1.65849">
        <ele>1337.8</ele>
        <time>2020-02-08T10:47:38Z</time>
      </trkpt>
      <trkpt lat="42.71081" lon="1.65849">
        <ele>1337.8</ele>
        <time>2020-02-08T10:47:39Z</time>
      </trkpt>
      <trkpt lat="42.71081" lon="1.65849">
        <ele>1337.8</ele>
        <time>2020-02-08T10:47:40Z</time>
      </trkpt>
      <trkpt lat="42.71081" lon="1.65849">
        <ele>1337.8</ele>
        <time>2020-02-08T10:47:41Z</time>
      </trkpt>
      <trkpt lat="42.71081" lon="1.65849">
        <ele>1337.8</ele>
        <time>2020-02-08T10:47:42Z</time>
      </trkpt>
      <trkpt lat="42.71081" lon="1.65849">
        <ele>1337.8</ele>
        <time>2020-02-08T10:47:43Z</time>
      </trkpt>
      <trkpt lat="42.71081" lon="1.65848">
        <ele>1337.8</ele>
        <time>2020-02-08T10:47:44Z</time>
      </trkpt>
      <trkpt lat="42.71081" lon="1.65848">
        <ele>1337.8</ele>
        <time>2020-02-08T10:47:45Z</time>
      </trkpt>
      <trkpt lat="42.71081" lon="1.65848">
        <ele>1337.8</ele>
        <time>2020-02-08T10:47:46Z</time>
      </trkpt>
      <trkpt lat="42.71081" lon="1.65848">
        <ele>1337.8</ele>
        <time>2020-02-08T10:47:47Z</time>
      </trkpt>
      <trkpt lat="42.71081" lon="1.65848">
        <ele>1337.8</ele>
        <time>2020-02-08T10:47:48Z</time>
      </trkpt>
      <trkpt lat="42.71081" lon="1.65848">
        <ele>1337.8</ele>
        <time>2020-02-08T10:47:49Z</time>
      </trkpt>
      <trkpt lat="42.71081" lon="1.65848">
        <ele>1337.8</ele>
        <time>2020-02-08T10:47:50Z</time>
      </trkpt>
      <trkpt lat="42.71081" lon="1.65848">
        <ele>1337.9</ele>
        <time>2020-02-08T10:47:51Z</time>
      </trkpt>
      <trkpt lat="42.71081" lon="1.65848">
        <ele>1337.9</ele>
        <time>2020-02-08T10:47:52Z</time>
      </trkpt>
      <trkpt lat="42.71081" lon="1.65848">
        <ele>1337.9</ele>
        <time>2020-02-08T10:47:53Z</time>
      </trkpt>
      <trkpt lat="42.71081" lon="1.65848">
        <ele>1337.9</ele>
        <time>2020-02-08T10:47:54Z</time>
      </trkpt>
      <trkpt lat="42.71081" lon="1.65847">
        <ele>1337.9</ele>
        <time>2020-02-08T10:47:55Z</time>
      </trkpt>
      <trkpt lat="42.71081" lon="1.65847">
        <ele>1337.9</ele>
        <time>2020-02-08T10:47:56Z</time>
      </trkpt>
      <trkpt lat="42.71081" lon="1.65847">
        <ele>1337.9</ele>
        <time>2020-02-08T10:47:57Z</time>
      </trkpt>
      <trkpt lat="42.71081" lon="1.65847">
        <ele>1337.9</ele>
        <time>2020-02-08T10:47:58Z</time>
      </trkpt>
      <trkpt lat="42.71081" lon="1.65847">
        <ele>1337.9</ele>
        <time>2020-02-08T10:47:59Z</time>
      </trkpt>
      <trkpt lat="42.71081" lon="1.65847">
        <ele>1337.9</ele>
        <time>2020-02-08T10:48:00Z</time>
      </trkpt>
      <trkpt lat="42.71081" lon="1.65847">
        <ele>1337.9</ele>
        <time>2020-02-08T10:48:01Z</time>
      </trkpt>
      <trkpt lat="42.71081" lon="1.65847">
        <ele>1337.9</ele>
        <time>2020-02-08T10:48:02Z</time>
      </trkpt>
      <trkpt lat="42.71081" lon="1.65847">
        <ele>1337.9</ele>
        <time>2020-02-08T10:48:03Z</time>
      </trkpt>
      <trkpt lat="42.71081" lon="1.65847">
        <ele>1337.9</ele>
        <time>2020-02-08T10:48:04Z</time>
      </trkpt>
      <trkpt lat="42.71081" lon="1.65847">
        <ele>1337.9</ele>
        <time>2020-02-08T10:48:05Z</time>
      </trkpt>
      <trkpt lat="42.71081" lon="1.65847">
        <ele>1337.9</ele>
        <time>2020-02-08T10:48:06Z</time>
      </trkpt>
      <trkpt lat="42.71081" lon="1.65846">
        <ele>1338</ele>
        <time>2020-02-08T10:48:07Z</time>
      </trkpt>
      <trkpt lat="42.71081" lon="1.65846">
        <ele>1338</ele>
        <time>2020-02-08T10:48:08Z</time>
      </trkpt>
      <trkpt lat="42.71081" lon="1.65846">
        <ele>1338</ele>
        <time>2020-02-08T10:48:09Z</time>
      </trkpt>
      <trkpt lat="42.71081" lon="1.65846">
        <ele>1338</ele>
        <time>2020-02-08T10:48:10Z</time>
      </trkpt>
      <trkpt lat="42.71081" lon="1.65846">
        <ele>1338</ele>
        <time>2020-02-08T10:48:11Z</time>
      </trkpt>
      <trkpt lat="42.71081" lon="1.65846">
        <ele>1338</ele>
        <time>2020-02-08T10:48:12Z</time>
      </trkpt>
      <trkpt lat="42.71081" lon="1.65846">
        <ele>1338</ele>
        <time>2020-02-08T10:48:13Z</time>
      </trkpt>
      <trkpt lat="42.71081" lon="1.65846">
        <ele>1338</ele>
        <time>2020-02-08T10:48:14Z</time>
      </trkpt>
      <trkpt lat="42.71081" lon="1.65846">
        <ele>1338</ele>
        <time>2020-02-08T10:48:15Z</time>
      </trkpt>
      <trkpt lat="42.71081" lon="1.65846">
        <ele>1338</ele>
        <time>2020-02-08T10:48:16Z</time>
      </trkpt>
      <trkpt lat="42.71081" lon="1.65846">
        <ele>1338</ele>
        <time>2020-02-08T10:48:17Z</time>
      </trkpt>
      <trkpt lat="42.71081" lon="1.65846">
        <ele>1338</ele>
        <time>2020-02-08T10:48:18Z</time>
      </trkpt>
      <trkpt lat="42.71081" lon="1.65845">
        <ele>1338</ele>
        <time>2020-02-08T10:48:19Z</time>
      </trkpt>
      <trkpt lat="42.71081" lon="1.65845">
        <ele>1338</ele>
        <time>2020-02-08T10:48:20Z</time>
      </trkpt>
      <trkpt lat="42.71081" lon="1.65845">
        <ele>1338</ele>
        <time>2020-02-08T10:48:21Z</time>
      </trkpt>
      <trkpt lat="42.71081" lon="1.65845">
        <ele>1338.1</ele>
        <time>2020-02-08T10:48:22Z</time>
      </trkpt>
      <trkpt lat="42.71081" lon="1.65845">
        <ele>1338.1</ele>
        <time>2020-02-08T10:48:23Z</time>
      </trkpt>
      <trkpt lat="42.71081" lon="1.65845">
        <ele>1338.1</ele>
        <time>2020-02-08T10:48:24Z</time>
      </trkpt>
      <trkpt lat="42.71081" lon="1.65845">
        <ele>1338.1</ele>
        <time>2020-02-08T10:48:25Z</time>
      </trkpt>
      <trkpt lat="42.71081" lon="1.65845">
        <ele>1338.1</ele>
        <time>2020-02-08T10:48:26Z</time>
      </trkpt>
      <trkpt lat="42.71081" lon="1.65845">
        <ele>1338.1</ele>
        <time>2020-02-08T10:48:27Z</time>
      </trkpt>
      <trkpt lat="42.71081" lon="1.65845">
        <ele>1338.1</ele>
        <time>2020-02-08T10:48:28Z</time>
      </trkpt>
      <trkpt lat="42.71081" lon="1.65845">
        <ele>1338.1</ele>
        <time>2020-02-08T10:48:29Z</time>
      </trkpt>
      <trkpt lat="42.71081" lon="1.65845">
        <ele>1338.1</ele>
        <time>2020-02-08T10:48:30Z</time>
      </trkpt>
      <trkpt lat="42.71081" lon="1.65844">
        <ele>1338.1</ele>
        <time>2020-02-08T10:48:31Z</time>
      </trkpt>
      <trkpt lat="42.71081" lon="1.65844">
        <ele>1338.1</ele>
        <time>2020-02-08T10:48:32Z</time>
      </trkpt>
      <trkpt lat="42.71081" lon="1.65844">
        <ele>1338.1</ele>
        <time>2020-02-08T10:48:33Z</time>
      </trkpt>
      <trkpt lat="42.71081" lon="1.65844">
        <ele>1338.1</ele>
        <time>2020-02-08T10:48:34Z</time>
      </trkpt>
      <trkpt lat="42.71081" lon="1.65844">
        <ele>1338.1</ele>
        <time>2020-02-08T10:48:35Z</time>
      </trkpt>
      <trkpt lat="42.71081" lon="1.65844">
        <ele>1338.1</ele>
        <time>2020-02-08T10:48:36Z</time>
      </trkpt>
      <trkpt lat="42.71081" lon="1.65844">
        <ele>1338.2</ele>
        <time>2020-02-08T10:48:37Z</time>
      </trkpt>
      <trkpt lat="42.71081" lon="1.65844">
        <ele>1338.2</ele>
        <time>2020-02-08T10:48:38Z</time>
      </trkpt>
      <trkpt lat="42.71081" lon="1.65844">
        <ele>1338.2</ele>
        <time>2020-02-08T10:48:39Z</time>
      </trkpt>
      <trkpt lat="42.71081" lon="1.65844">
        <ele>1338.2</ele>
        <time>2020-02-08T10:48:40Z</time>
      </trkpt>
      <trkpt lat="42.71081" lon="1.65844">
        <ele>1338.2</ele>
        <time>2020-02-08T10:48:41Z</time>
      </trkpt>
      <trkpt lat="42.7108" lon="1.65844">
        <ele>1338.2</ele>
        <time>2020-02-08T10:48:42Z</time>
      </trkpt>
      <trkpt lat="42.7108" lon="1.65843">
        <ele>1338.2</ele>
        <time>2020-02-08T10:48:43Z</time>
      </trkpt>
      <trkpt lat="42.7108" lon="1.65843">
        <ele>1338.2</ele>
        <time>2020-02-08T10:48:44Z</time>
      </trkpt>
      <trkpt lat="42.7108" lon="1.65843">
        <ele>1338.2</ele>
        <time>2020-02-08T10:48:45Z</time>
      </trkpt>
      <trkpt lat="42.7108" lon="1.65843">
        <ele>1338.2</ele>
        <time>2020-02-08T10:48:46Z</time>
      </trkpt>
      <trkpt lat="42.7108" lon="1.65843">
        <ele>1338.2</ele>
        <time>2020-02-08T10:48:47Z</time>
      </trkpt>
      <trkpt lat="42.7108" lon="1.65843">
        <ele>1338.2</ele>
        <time>2020-02-08T10:48:48Z</time>
      </trkpt>
      <trkpt lat="42.7108" lon="1.65843">
        <ele>1338.2</ele>
        <time>2020-02-08T10:48:49Z</time>
      </trkpt>
      <trkpt lat="42.7108" lon="1.65843">
        <ele>1338.2</ele>
        <time>2020-02-08T10:48:50Z</time>
      </trkpt>
      <trkpt lat="42.7108" lon="1.65843">
        <ele>1338.2</ele>
        <time>2020-02-08T10:48:51Z</time>
      </trkpt>
      <trkpt lat="42.7108" lon="1.65843">
        <ele>1338.3</ele>
        <time>2020-02-08T10:48:52Z</time>
      </trkpt>
      <trkpt lat="42.7108" lon="1.65843">
        <ele>1338.3</ele>
        <time>2020-02-08T10:48:53Z</time>
      </trkpt>
      <trkpt lat="42.7108" lon="1.65843">
        <ele>1338.3</ele>
        <time>2020-02-08T10:48:54Z</time>
      </trkpt>
      <trkpt lat="42.7108" lon="1.65842">
        <ele>1338.3</ele>
        <time>2020-02-08T10:48:55Z</time>
      </trkpt>
      <trkpt lat="42.7108" lon="1.65842">
        <ele>1338.3</ele>
        <time>2020-02-08T10:48:56Z</time>
      </trkpt>
      <trkpt lat="42.7108" lon="1.65842">
        <ele>1338.3</ele>
        <time>2020-02-08T10:48:57Z</time>
      </trkpt>
      <trkpt lat="42.7108" lon="1.65842">
        <ele>1338.3</ele>
        <time>2020-02-08T10:48:58Z</time>
      </trkpt>
      <trkpt lat="42.7108" lon="1.65842">
        <ele>1338.3</ele>
        <time>2020-02-08T10:48:59Z</time>
      </trkpt>
      <trkpt lat="42.7108" lon="1.65842">
        <ele>1338.3</ele>
        <time>2020-02-08T10:49:00Z</time>
      </trkpt>
      <trkpt lat="42.7108" lon="1.65842">
        <ele>1338.3</ele>
        <time>2020-02-08T10:49:01Z</time>
      </trkpt>
      <trkpt lat="42.7108" lon="1.65842">
        <ele>1338.3</ele>
        <time>2020-02-08T10:49:02Z</time>
      </trkpt>
      <trkpt lat="42.7108" lon="1.65842">
        <ele>1338.3</ele>
        <time>2020-02-08T10:49:03Z</time>
      </trkpt>
      <trkpt lat="42.7108" lon="1.65842">
        <ele>1338.3</ele>
        <time>2020-02-08T10:49:04Z</time>
      </trkpt>
      <trkpt lat="42.7108" lon="1.65842">
        <ele>1338.3</ele>
        <time>2020-02-08T10:49:05Z</time>
      </trkpt>
      <trkpt lat="42.7108" lon="1.65842">
        <ele>1338.3</ele>
        <time>2020-02-08T10:49:06Z</time>
      </trkpt>
      <trkpt lat="42.7108" lon="1.65841">
        <ele>1338.3</ele>
        <time>2020-02-08T10:49:07Z</time>
      </trkpt>
      <trkpt lat="42.7108" lon="1.65841">
        <ele>1338.4</ele>
        <time>2020-02-08T10:49:08Z</time>
      </trkpt>
      <trkpt lat="42.7108" lon="1.65841">
        <ele>1338.4</ele>
        <time>2020-02-08T10:49:09Z</time>
      </trkpt>
      <trkpt lat="42.7108" lon="1.65841">
        <ele>1338.4</ele>
        <time>2020-02-08T10:49:10Z</time>
      </trkpt>
      <trkpt lat="42.7108" lon="1.65841">
        <ele>1338.4</ele>
        <time>2020-02-08T10:49:11Z</time>
      </trkpt>
      <trkpt lat="42.7108" lon="1.65841">
        <ele>1338.4</ele>
        <time>2020-02-08T10:49:12Z</time>
      </trkpt>
      <trkpt lat="42.7108" lon="1.65841">
        <ele>1338.4</ele>
        <time>2020-02-08T10:49:13Z</time>
      </trkpt>
      <trkpt lat="42.7108" lon="1.65841">
        <ele>1338.4</ele>
        <time>2020-02-08T10:49:14Z</time>
      </trkpt>
      <trkpt lat="42.7108" lon="1.65841">
        <ele>1338.4</ele>
        <time>2020-02-08T10:49:15Z</time>
      </trkpt>
      <trkpt lat="42.7108" lon="1.65841">
        <ele>1338.4</ele>
        <time>2020-02-08T10:49:16Z</time>
      </trkpt>
      <trkpt lat="42.7108" lon="1.65841">
        <ele>1338.4</ele>
        <time>2020-02-08T10:49:17Z</time>
      </trkpt>
      <trkpt lat="42.7108" lon="1.6584">
        <ele>1338.4</ele>
        <time>2020-02-08T10:49:18Z</time>
      </trkpt>
      <trkpt lat="42.7108" lon="1.6584">
        <ele>1338.4</ele>
        <time>2020-02-08T10:49:19Z</time>
      </trkpt>
      <trkpt lat="42.7108" lon="1.6584">
        <ele>1338.4</ele>
        <time>2020-02-08T10:49:20Z</time>
      </trkpt>
      <trkpt lat="42.7108" lon="1.6584">
        <ele>1338.4</ele>
        <time>2020-02-08T10:49:21Z</time>
      </trkpt>
      <trkpt lat="42.7108" lon="1.6584">
        <ele>1338.4</ele>
        <time>2020-02-08T10:49:22Z</time>
      </trkpt>
      <trkpt lat="42.7108" lon="1.6584">
        <ele>1338.5</ele>
        <time>2020-02-08T10:49:23Z</time>
      </trkpt>
      <trkpt lat="42.7108" lon="1.6584">
        <ele>1338.5</ele>
        <time>2020-02-08T10:49:24Z</time>
      </trkpt>
      <trkpt lat="42.7108" lon="1.6584">
        <ele>1338.5</ele>
        <time>2020-02-08T10:49:25Z</time>
      </trkpt>
      <trkpt lat="42.7108" lon="1.6584">
        <ele>1338.5</ele>
        <time>2020-02-08T10:49:26Z</time>
      </trkpt>
      <trkpt lat="42.7108" lon="1.6584">
        <ele>1338.5</ele>
        <time>2020-02-08T10:49:27Z</time>
      </trkpt>
      <trkpt lat="42.7108" lon="1.6584">
        <ele>1338.5</ele>
        <time>2020-02-08T10:49:28Z</time>
      </trkpt>
      <trkpt lat="42.7108" lon="1.6584">
        <ele>1338.5</ele>
        <time>2020-02-08T10:49:29Z</time>
      </trkpt>
      <trkpt lat="42.7108" lon="1.65839">
        <ele>1338.5</ele>
        <time>2020-02-08T10:49:30Z</time>
      </trkpt>
      <trkpt lat="42.7108" lon="1.65839">
        <ele>1338.5</ele>
        <time>2020-02-08T10:49:31Z</time>
      </trkpt>
      <trkpt lat="42.7108" lon="1.65839">
        <ele>1338.5</ele>
        <time>2020-02-08T10:49:32Z</time>
      </trkpt>
      <trkpt lat="42.7108" lon="1.65839">
        <ele>1338.5</ele>
        <time>2020-02-08T10:49:33Z</time>
      </trkpt>
      <trkpt lat="42.7108" lon="1.65839">
        <ele>1338.5</ele>
        <time>2020-02-08T10:49:34Z</time>
      </trkpt>
      <trkpt lat="42.7108" lon="1.65839">
        <ele>1338.5</ele>
        <time>2020-02-08T10:49:35Z</time>
      </trkpt>
      <trkpt lat="42.7108" lon="1.65839">
        <ele>1338.5</ele>
        <time>2020-02-08T10:49:36Z</time>
      </trkpt>
      <trkpt lat="42.7108" lon="1.65839">
        <ele>1338.5</ele>
        <time>2020-02-08T10:49:37Z</time>
      </trkpt>
      <trkpt lat="42.7108" lon="1.65839">
        <ele>1338.5</ele>
        <time>2020-02-08T10:49:38Z</time>
      </trkpt>
      <trkpt lat="42.7108" lon="1.65839">
        <ele>1338.6</ele>
        <time>2020-02-08T10:49:39Z</time>
      </trkpt>
      <trkpt lat="42.7108" lon="1.65839">
        <ele>1338.6</ele>
        <time>2020-02-08T10:49:40Z</time>
      </trkpt>
      <trkpt lat="42.7108" lon="1.65839">
        <ele>1338.6</ele>
        <time>2020-02-08T10:49:41Z</time>
      </trkpt>
      <trkpt lat="42.7108" lon="1.65838">
        <ele>1338.6</ele>
        <time>2020-02-08T10:49:42Z</time>
      </trkpt>
      <trkpt lat="42.7108" lon="1.65838">
        <ele>1338.6</ele>
        <time>2020-02-08T10:49:43Z</time>
      </trkpt>
      <trkpt lat="42.7108" lon="1.65838">
        <ele>1338.6</ele>
        <time>2020-02-08T10:49:44Z</time>
      </trkpt>
      <trkpt lat="42.7108" lon="1.65838">
        <ele>1338.6</ele>
        <time>2020-02-08T10:49:45Z</time>
      </trkpt>
      <trkpt lat="42.7108" lon="1.65838">
        <ele>1338.6</ele>
        <time>2020-02-08T10:49:46Z</time>
      </trkpt>
      <trkpt lat="42.7108" lon="1.65838">
        <ele>1338.6</ele>
        <time>2020-02-08T10:49:47Z</time>
      </trkpt>
      <trkpt lat="42.7108" lon="1.65838">
        <ele>1338.6</ele>
        <time>2020-02-08T10:49:48Z</time>
      </trkpt>
      <trkpt lat="42.7108" lon="1.65838">
        <ele>1338.6</ele>
        <time>2020-02-08T10:49:49Z</time>
      </trkpt>
      <trkpt lat="42.7108" lon="1.65838">
        <ele>1338.6</ele>
        <time>2020-02-08T10:49:50Z</time>
      </trkpt>
      <trkpt lat="42.7108" lon="1.65838">
        <ele>1338.6</ele>
        <time>2020-02-08T10:49:51Z</time>
      </trkpt>
      <trkpt lat="42.7108" lon="1.65838">
        <ele>1338.6</ele>
        <time>2020-02-08T10:49:52Z</time>
      </trkpt>
      <trkpt lat="42.7108" lon="1.65838">
        <ele>1338.7</ele>
        <time>2020-02-08T10:49:53Z</time>
      </trkpt>
      <trkpt lat="42.7108" lon="1.65837">
        <ele>1338.7</ele>
        <time>2020-02-08T10:49:54Z</time>
      </trkpt>
      <trkpt lat="42.7108" lon="1.65837">
        <ele>1338.7</ele>
        <time>2020-02-08T10:49:55Z</time>
      </trkpt>
      <trkpt lat="42.7108" lon="1.65837">
        <ele>1338.7</ele>
        <time>2020-02-08T10:49:56Z</time>
      </trkpt>
      <trkpt lat="42.7108" lon="1.65837">
        <ele>1338.7</ele>
        <time>2020-02-08T10:49:57Z</time>
      </trkpt>
      <trkpt lat="42.7108" lon="1.65837">
        <ele>1338.7</ele>
        <time>2020-02-08T10:49:58Z</time>
      </trkpt>
      <trkpt lat="42.7108" lon="1.65837">
        <ele>1338.7</ele>
        <time>2020-02-08T10:49:59Z</time>
      </trkpt>
      <trkpt lat="42.7108" lon="1.65837">
        <ele>1338.7</ele>
        <time>2020-02-08T10:50:00Z</time>
      </trkpt>
      <trkpt lat="42.7108" lon="1.65837">
        <ele>1338.7</ele>
        <time>2020-02-08T10:50:01Z</time>
      </trkpt>
      <trkpt lat="42.7108" lon="1.65837">
        <ele>1338.7</ele>
        <time>2020-02-08T10:50:02Z</time>
      </trkpt>
      <trkpt lat="42.7108" lon="1.65837">
        <ele>1338.7</ele>
        <time>2020-02-08T10:50:03Z</time>
      </trkpt>
      <trkpt lat="42.7108" lon="1.65837">
        <ele>1338.7</ele>
        <time>2020-02-08T10:50:04Z</time>
      </trkpt>
      <trkpt lat="42.7108" lon="1.65837">
        <ele>1338.7</ele>
        <time>2020-02-08T10:50:05Z</time>
      </trkpt>
      <trkpt lat="42.7108" lon="1.65836">
        <ele>1338.7</ele>
        <time>2020-02-08T10:50:06Z</time>
      </trkpt>
      <trkpt lat="42.7108" lon="1.65836">
        <ele>1338.7</ele>
        <time>2020-02-08T10:50:07Z</time>
      </trkpt>
      <trkpt lat="42.7108" lon="1.65836">
        <ele>1338.7</ele>
        <time>2020-02-08T10:50:08Z</time>
      </trkpt>
      <trkpt lat="42.7108" lon="1.65836">
        <ele>1338.8</ele>
        <time>2020-02-08T10:50:09Z</time>
      </trkpt>
      <trkpt lat="42.7108" lon="1.65836">
        <ele>1338.8</ele>
        <time>2020-02-08T10:50:10Z</time>
      </trkpt>
      <trkpt lat="42.7108" lon="1.65836">
        <ele>1338.8</ele>
        <time>2020-02-08T10:50:11Z</time>
      </trkpt>
      <trkpt lat="42.7108" lon="1.65836">
        <ele>1338.8</ele>
        <time>2020-02-08T10:50:12Z</time>
      </trkpt>
      <trkpt lat="42.7108" lon="1.65836">
        <ele>1338.8</ele>
        <time>2020-02-08T10:50:13Z</time>
      </trkpt>
      <trkpt lat="42.7108" lon="1.65836">
        <ele>1338.8</ele>
        <time>2020-02-08T10:50:14Z</time>
      </trkpt>
      <trkpt lat="42.7108" lon="1.65836">
        <ele>1338.8</ele>
        <time>2020-02-08T10:50:15Z</time>
      </trkpt>
      <trkpt lat="42.7108" lon="1.65836">
        <ele>1338.8</ele>
        <time>2020-02-08T10:50:16Z</time>
      </trkpt>
      <trkpt lat="42.7108" lon="1.65836">
        <ele>1338.8</ele>
        <time>2020-02-08T10:50:17Z</time>
      </trkpt>
      <trkpt lat="42.7108" lon="1.65835">
        <ele>1338.8</ele>
        <time>2020-02-08T10:50:18Z</time>
      </trkpt>
      <trkpt lat="42.7108" lon="1.65835">
        <ele>1338.8</ele>
        <time>2020-02-08T10:50:19Z</time>
      </trkpt>
      <trkpt lat="42.71079" lon="1.65835">
        <ele>1338.9</ele>
        <time>2020-02-08T10:50:20Z</time>
      </trkpt>
      <trkpt lat="42.71079" lon="1.65835">
        <ele>1338.9</ele>
        <time>2020-02-08T10:50:21Z</time>
      </trkpt>
      <trkpt lat="42.71079" lon="1.65835">
        <ele>1338.9</ele>
        <time>2020-02-08T10:50:22Z</time>
      </trkpt>
      <trkpt lat="42.71078" lon="1.65835">
        <ele>1338.9</ele>
        <time>2020-02-08T10:50:23Z</time>
      </trkpt>
      <trkpt lat="42.71078" lon="1.65834">
        <ele>1339</ele>
        <time>2020-02-08T10:50:24Z</time>
      </trkpt>
      <trkpt lat="42.71078" lon="1.65834">
        <ele>1339</ele>
        <time>2020-02-08T10:50:25Z</time>
      </trkpt>
      <trkpt lat="42.71078" lon="1.65834">
        <ele>1339</ele>
        <time>2020-02-08T10:50:26Z</time>
      </trkpt>
      <trkpt lat="42.71077" lon="1.65834">
        <ele>1339.1</ele>
        <time>2020-02-08T10:50:27Z</time>
      </trkpt>
      <trkpt lat="42.71077" lon="1.65834">
        <ele>1339.1</ele>
        <time>2020-02-08T10:50:28Z</time>
      </trkpt>
      <trkpt lat="42.71077" lon="1.65833">
        <ele>1339.1</ele>
        <time>2020-02-08T10:50:29Z</time>
      </trkpt>
      <trkpt lat="42.71076" lon="1.65833">
        <ele>1339.2</ele>
        <time>2020-02-08T10:50:30Z</time>
      </trkpt>
      <trkpt lat="42.71076" lon="1.65833">
        <ele>1339.2</ele>
        <time>2020-02-08T10:50:31Z</time>
      </trkpt>
      <trkpt lat="42.71076" lon="1.65833">
        <ele>1339.2</ele>
        <time>2020-02-08T10:50:32Z</time>
      </trkpt>
      <trkpt lat="42.71076" lon="1.65833">
        <ele>1339.3</ele>
        <time>2020-02-08T10:50:33Z</time>
      </trkpt>
      <trkpt lat="42.71075" lon="1.65833">
        <ele>1339.3</ele>
        <time>2020-02-08T10:50:34Z</time>
      </trkpt>
      <trkpt lat="42.71075" lon="1.65832">
        <ele>1339.3</ele>
        <time>2020-02-08T10:50:35Z</time>
      </trkpt>
      <trkpt lat="42.71075" lon="1.65832">
        <ele>1339.4</ele>
        <time>2020-02-08T10:50:36Z</time>
      </trkpt>
      <trkpt lat="42.71074" lon="1.65832">
        <ele>1339.4</ele>
        <time>2020-02-08T10:50:37Z</time>
      </trkpt>
      <trkpt lat="42.71074" lon="1.65832">
        <ele>1339.4</ele>
        <time>2020-02-08T10:50:38Z</time>
      </trkpt>
      <trkpt lat="42.71074" lon="1.65832">
        <ele>1339.5</ele>
        <time>2020-02-08T10:50:39Z</time>
      </trkpt>
      <trkpt lat="42.71073" lon="1.65831">
        <ele>1339.5</ele>
        <time>2020-02-08T10:50:40Z</time>
      </trkpt>
      <trkpt lat="42.71073" lon="1.65831">
        <ele>1339.5</ele>
        <time>2020-02-08T10:50:41Z</time>
      </trkpt>
      <trkpt lat="42.71073" lon="1.65831">
        <ele>1339.5</ele>
        <time>2020-02-08T10:50:42Z</time>
      </trkpt>
      <trkpt lat="42.71073" lon="1.65831">
        <ele>1339.6</ele>
        <time>2020-02-08T10:50:43Z</time>
      </trkpt>
      <trkpt lat="42.71072" lon="1.65831">
        <ele>1339.6</ele>
        <time>2020-02-08T10:50:44Z</time>
      </trkpt>
      <trkpt lat="42.71072" lon="1.6583">
        <ele>1339.6</ele>
        <time>2020-02-08T10:50:45Z</time>
      </trkpt>
      <trkpt lat="42.71072" lon="1.6583">
        <ele>1339.7</ele>
        <time>2020-02-08T10:50:46Z</time>
      </trkpt>
      <trkpt lat="42.71071" lon="1.6583">
        <ele>1339.7</ele>
        <time>2020-02-08T10:50:47Z</time>
      </trkpt>
      <trkpt lat="42.71071" lon="1.6583">
        <ele>1339.7</ele>
        <time>2020-02-08T10:50:48Z</time>
      </trkpt>
      <trkpt lat="42.71071" lon="1.6583">
        <ele>1339.8</ele>
        <time>2020-02-08T10:50:49Z</time>
      </trkpt>
      <trkpt lat="42.71071" lon="1.65831">
        <ele>1339.9</ele>
        <time>2020-02-08T10:50:50Z</time>
      </trkpt>
      <trkpt lat="42.71072" lon="1.65832">
        <ele>1339.9</ele>
        <time>2020-02-08T10:50:51Z</time>
      </trkpt>
      <trkpt lat="42.71072" lon="1.65833">
        <ele>1340</ele>
        <time>2020-02-08T10:50:52Z</time>
      </trkpt>
      <trkpt lat="42.71072" lon="1.65834">
        <ele>1340.1</ele>
        <time>2020-02-08T10:50:53Z</time>
      </trkpt>
      <trkpt lat="42.71073" lon="1.65835">
        <ele>1340.2</ele>
        <time>2020-02-08T10:50:54Z</time>
      </trkpt>
      <trkpt lat="42.71073" lon="1.65837">
        <ele>1340.3</ele>
        <time>2020-02-08T10:50:55Z</time>
      </trkpt>
      <trkpt lat="42.71074" lon="1.65838">
        <ele>1340.4</ele>
        <time>2020-02-08T10:50:56Z</time>
      </trkpt>
      <trkpt lat="42.71074" lon="1.65839">
        <ele>1340.5</ele>
        <time>2020-02-08T10:50:57Z</time>
      </trkpt>
      <trkpt lat="42.71074" lon="1.6584">
        <ele>1340.6</ele>
        <time>2020-02-08T10:50:58Z</time>
      </trkpt>
      <trkpt lat="42.71075" lon="1.65841">
        <ele>1340.7</ele>
        <time>2020-02-08T10:50:59Z</time>
      </trkpt>
      <trkpt lat="42.71075" lon="1.65841">
        <ele>1340.7</ele>
        <time>2020-02-08T10:51:00Z</time>
      </trkpt>
      <trkpt lat="42.71075" lon="1.65841">
        <ele>1340.7</ele>
        <time>2020-02-08T10:51:01Z</time>
      </trkpt>
      <trkpt lat="42.71075" lon="1.65841">
        <ele>1340.7</ele>
        <time>2020-02-08T10:51:02Z</time>
      </trkpt>
      <trkpt lat="42.71076" lon="1.65842">
        <ele>1340.8</ele>
        <time>2020-02-08T10:51:03Z</time>
      </trkpt>
      <trkpt lat="42.71076" lon="1.65842">
        <ele>1340.8</ele>
        <time>2020-02-08T10:51:04Z</time>
      </trkpt>
      <trkpt lat="42.71076" lon="1.65842">
        <ele>1340.8</ele>
        <time>2020-02-08T10:51:05Z</time>
      </trkpt>
      <trkpt lat="42.71076" lon="1.65842">
        <ele>1340.8</ele>
        <time>2020-02-08T10:51:06Z</time>
      </trkpt>
      <trkpt lat="42.71076" lon="1.65842">
        <ele>1340.8</ele>
        <time>2020-02-08T10:51:07Z</time>
      </trkpt>
      <trkpt lat="42.71077" lon="1.65842">
        <ele>1340.9</ele>
        <time>2020-02-08T10:51:08Z</time>
      </trkpt>
      <trkpt lat="42.71077" lon="1.65842">
        <ele>1340.9</ele>
        <time>2020-02-08T10:51:09Z</time>
      </trkpt>
      <trkpt lat="42.71077" lon="1.65843">
        <ele>1340.9</ele>
        <time>2020-02-08T10:51:10Z</time>
      </trkpt>
      <trkpt lat="42.71077" lon="1.65843">
        <ele>1340.9</ele>
        <time>2020-02-08T10:51:11Z</time>
      </trkpt>
      <trkpt lat="42.71078" lon="1.65843">
        <ele>1341</ele>
        <time>2020-02-08T10:51:12Z</time>
      </trkpt>
      <trkpt lat="42.71078" lon="1.65843">
        <ele>1341</ele>
        <time>2020-02-08T10:51:13Z</time>
      </trkpt>
      <trkpt lat="42.71078" lon="1.65843">
        <ele>1341</ele>
        <time>2020-02-08T10:51:14Z</time>
      </trkpt>
      <trkpt lat="42.71078" lon="1.65843">
        <ele>1341</ele>
        <time>2020-02-08T10:51:15Z</time>
      </trkpt>
      <trkpt lat="42.71078" lon="1.65844">
        <ele>1341</ele>
        <time>2020-02-08T10:51:16Z</time>
      </trkpt>
      <trkpt lat="42.71079" lon="1.65844">
        <ele>1341</ele>
        <time>2020-02-08T10:51:17Z</time>
      </trkpt>
      <trkpt lat="42.71079" lon="1.65844">
        <ele>1341</ele>
        <time>2020-02-08T10:51:18Z</time>
      </trkpt>
      <trkpt lat="42.71079" lon="1.65844">
        <ele>1341.1</ele>
        <time>2020-02-08T10:51:19Z</time>
      </trkpt>
      <trkpt lat="42.71079" lon="1.65844">
        <ele>1341.1</ele>
        <time>2020-02-08T10:51:20Z</time>
      </trkpt>
      <trkpt lat="42.71079" lon="1.65844">
        <ele>1341.1</ele>
        <time>2020-02-08T10:51:21Z</time>
      </trkpt>
      <trkpt lat="42.7108" lon="1.65844">
        <ele>1341.1</ele>
        <time>2020-02-08T10:51:22Z</time>
      </trkpt>
      <trkpt lat="42.7108" lon="1.65845">
        <ele>1341.1</ele>
        <time>2020-02-08T10:51:23Z</time>
      </trkpt>
      <trkpt lat="42.7108" lon="1.65845">
        <ele>1341.1</ele>
        <time>2020-02-08T10:51:24Z</time>
      </trkpt>
      <trkpt lat="42.7108" lon="1.65845">
        <ele>1341.2</ele>
        <time>2020-02-08T10:51:25Z</time>
      </trkpt>
      <trkpt lat="42.71081" lon="1.65845">
        <ele>1341.2</ele>
        <time>2020-02-08T10:51:26Z</time>
      </trkpt>
      <trkpt lat="42.71081" lon="1.65845">
        <ele>1341.2</ele>
        <time>2020-02-08T10:51:27Z</time>
      </trkpt>
      <trkpt lat="42.71081" lon="1.65845">
        <ele>1341.2</ele>
        <time>2020-02-08T10:51:28Z</time>
      </trkpt>
      <trkpt lat="42.71081" lon="1.65845">
        <ele>1341.2</ele>
        <time>2020-02-08T10:51:29Z</time>
      </trkpt>
      <trkpt lat="42.71081" lon="1.65846">
        <ele>1341.2</ele>
        <time>2020-02-08T10:51:30Z</time>
      </trkpt>
      <trkpt lat="42.71082" lon="1.65846">
        <ele>1341.2</ele>
        <time>2020-02-08T10:51:31Z</time>
      </trkpt>
      <trkpt lat="42.71082" lon="1.65846">
        <ele>1341.3</ele>
        <time>2020-02-08T10:51:32Z</time>
      </trkpt>
      <trkpt lat="42.71082" lon="1.65846">
        <ele>1341.3</ele>
        <time>2020-02-08T10:51:33Z</time>
      </trkpt>
      <trkpt lat="42.71082" lon="1.65846">
        <ele>1341.3</ele>
        <time>2020-02-08T10:51:34Z</time>
      </trkpt>
      <trkpt lat="42.71082" lon="1.65846">
        <ele>1341.3</ele>
        <time>2020-02-08T10:51:35Z</time>
      </trkpt>
      <trkpt lat="42.71083" lon="1.65846">
        <ele>1341.3</ele>
        <time>2020-02-08T10:51:36Z</time>
      </trkpt>
      <trkpt lat="42.71083" lon="1.65847">
        <ele>1341.3</ele>
        <time>2020-02-08T10:51:37Z</time>
      </trkpt>
      <trkpt lat="42.71083" lon="1.65847">
        <ele>1341.3</ele>
        <time>2020-02-08T10:51:38Z</time>
      </trkpt>
      <trkpt lat="42.71083" lon="1.65847">
        <ele>1341.4</ele>
        <time>2020-02-08T10:51:39Z</time>
      </trkpt>
      <trkpt lat="42.71082" lon="1.65847">
        <ele>1341.4</ele>
        <time>2020-02-08T10:51:40Z</time>
      </trkpt>
      <trkpt lat="42.71081" lon="1.65848">
        <ele>1341.5</ele>
        <time>2020-02-08T10:51:41Z</time>
      </trkpt>
      <trkpt lat="42.7108" lon="1.65849">
        <ele>1341.6</ele>
        <time>2020-02-08T10:51:42Z</time>
      </trkpt>
      <trkpt lat="42.71079" lon="1.65849">
        <ele>1341.6</ele>
        <time>2020-02-08T10:51:43Z</time>
      </trkpt>
      <trkpt lat="42.71078" lon="1.6585">
        <ele>1341.7</ele>
        <time>2020-02-08T10:51:44Z</time>
      </trkpt>
      <trkpt lat="42.71077" lon="1.6585">
        <ele>1341.8</ele>
        <time>2020-02-08T10:51:45Z</time>
      </trkpt>
      <trkpt lat="42.71076" lon="1.65851">
        <ele>1341.9</ele>
        <time>2020-02-08T10:51:46Z</time>
      </trkpt>
      <trkpt lat="42.71075" lon="1.65852">
        <ele>1341.9</ele>
        <time>2020-02-08T10:51:47Z</time>
      </trkpt>
      <trkpt lat="42.71074" lon="1.65852">
        <ele>1342</ele>
        <time>2020-02-08T10:51:48Z</time>
      </trkpt>
      <trkpt lat="42.71073" lon="1.65853">
        <ele>1342.1</ele>
        <time>2020-02-08T10:51:49Z</time>
      </trkpt>
      <trkpt lat="42.71072" lon="1.65852">
        <ele>1342.1</ele>
        <time>2020-02-08T10:51:50Z</time>
      </trkpt>
      <trkpt lat="42.71072" lon="1.65851">
        <ele>1342.2</ele>
        <time>2020-02-08T10:51:51Z</time>
      </trkpt>
      <trkpt lat="42.71071" lon="1.65851">
        <ele>1342.2</ele>
        <time>2020-02-08T10:51:52Z</time>
      </trkpt>
      <trkpt lat="42.71071" lon="1.6585">
        <ele>1342.2</ele>
        <time>2020-02-08T10:51:53Z</time>
      </trkpt>
      <trkpt lat="42.71071" lon="1.6585">
        <ele>1342.3</ele>
        <time>2020-02-08T10:51:54Z</time>
      </trkpt>
      <trkpt lat="42.7107" lon="1.65849">
        <ele>1342.3</ele>
        <time>2020-02-08T10:51:55Z</time>
      </trkpt>
      <trkpt lat="42.7107" lon="1.65848">
        <ele>1342.3</ele>
        <time>2020-02-08T10:51:56Z</time>
      </trkpt>
      <trkpt lat="42.71069" lon="1.65848">
        <ele>1342.4</ele>
        <time>2020-02-08T10:51:57Z</time>
      </trkpt>
      <trkpt lat="42.71069" lon="1.65847">
        <ele>1342.4</ele>
        <time>2020-02-08T10:51:58Z</time>
      </trkpt>
      <trkpt lat="42.71069" lon="1.65846">
        <ele>1342.5</ele>
        <time>2020-02-08T10:51:59Z</time>
      </trkpt>
      <trkpt lat="42.71068" lon="1.65846">
        <ele>1342.5</ele>
        <time>2020-02-08T10:52:00Z</time>
      </trkpt>
      <trkpt lat="42.71068" lon="1.65845">
        <ele>1342.5</ele>
        <time>2020-02-08T10:52:01Z</time>
      </trkpt>
      <trkpt lat="42.71067" lon="1.65844">
        <ele>1342.6</ele>
        <time>2020-02-08T10:52:02Z</time>
      </trkpt>
      <trkpt lat="42.71067" lon="1.65844">
        <ele>1342.6</ele>
        <time>2020-02-08T10:52:03Z</time>
      </trkpt>
      <trkpt lat="42.71067" lon="1.65843">
        <ele>1342.7</ele>
        <time>2020-02-08T10:52:04Z</time>
      </trkpt>
      <trkpt lat="42.71066" lon="1.65843">
        <ele>1342.7</ele>
        <time>2020-02-08T10:52:05Z</time>
      </trkpt>
      <trkpt lat="42.71066" lon="1.65842">
        <ele>1342.7</ele>
        <time>2020-02-08T10:52:06Z</time>
      </trkpt>
      <trkpt lat="42.71065" lon="1.65841">
        <ele>1342.8</ele>
        <time>2020-02-08T10:52:07Z</time>
      </trkpt>
      <trkpt lat="42.71065" lon="1.65841">
        <ele>1342.8</ele>
        <time>2020-02-08T10:52:08Z</time>
      </trkpt>
      <trkpt lat="42.71065" lon="1.6584">
        <ele>1342.8</ele>
        <time>2020-02-08T10:52:09Z</time>
      </trkpt>
      <trkpt lat="42.71065" lon="1.65841">
        <ele>1342.9</ele>
        <time>2020-02-08T10:52:10Z</time>
      </trkpt>
      <trkpt lat="42.71064" lon="1.65841">
        <ele>1342.9</ele>
        <time>2020-02-08T10:52:11Z</time>
      </trkpt>
      <trkpt lat="42.71064" lon="1.65842">
        <ele>1342.9</ele>
        <time>2020-02-08T10:52:12Z</time>
      </trkpt>
      <trkpt lat="42.71064" lon="1.65843">
        <ele>1343</ele>
        <time>2020-02-08T10:52:13Z</time>
      </trkpt>
      <trkpt lat="42.71064" lon="1.65843">
        <ele>1343</ele>
        <time>2020-02-08T10:52:14Z</time>
      </trkpt>
      <trkpt lat="42.71064" lon="1.65844">
        <ele>1343</ele>
        <time>2020-02-08T10:52:15Z</time>
      </trkpt>
      <trkpt lat="42.71064" lon="1.65845">
        <ele>1343.1</ele>
        <time>2020-02-08T10:52:16Z</time>
      </trkpt>
      <trkpt lat="42.71064" lon="1.65845">
        <ele>1343.1</ele>
        <time>2020-02-08T10:52:17Z</time>
      </trkpt>
      <trkpt lat="42.71063" lon="1.65846">
        <ele>1343.1</ele>
        <time>2020-02-08T10:52:18Z</time>
      </trkpt>
      <trkpt lat="42.71063" lon="1.65846">
        <ele>1343.2</ele>
        <time>2020-02-08T10:52:19Z</time>
      </trkpt>
      <trkpt lat="42.71063" lon="1.65847">
        <ele>1343.2</ele>
        <time>2020-02-08T10:52:20Z</time>
      </trkpt>
      <trkpt lat="42.71063" lon="1.65848">
        <ele>1343.2</ele>
        <time>2020-02-08T10:52:21Z</time>
      </trkpt>
      <trkpt lat="42.71063" lon="1.65848">
        <ele>1343.2</ele>
        <time>2020-02-08T10:52:22Z</time>
      </trkpt>
      <trkpt lat="42.71063" lon="1.65849">
        <ele>1343.3</ele>
        <time>2020-02-08T10:52:23Z</time>
      </trkpt>
      <trkpt lat="42.71063" lon="1.6585">
        <ele>1343.3</ele>
        <time>2020-02-08T10:52:24Z</time>
      </trkpt>
      <trkpt lat="42.71062" lon="1.6585">
        <ele>1343.3</ele>
        <time>2020-02-08T10:52:25Z</time>
      </trkpt>
      <trkpt lat="42.71062" lon="1.65851">
        <ele>1343.4</ele>
        <time>2020-02-08T10:52:26Z</time>
      </trkpt>
      <trkpt lat="42.71062" lon="1.65852">
        <ele>1343.4</ele>
        <time>2020-02-08T10:52:27Z</time>
      </trkpt>
      <trkpt lat="42.71062" lon="1.65852">
        <ele>1343.4</ele>
        <time>2020-02-08T10:52:28Z</time>
      </trkpt>
      <trkpt lat="42.71062" lon="1.65853">
        <ele>1343.5</ele>
        <time>2020-02-08T10:52:29Z</time>
      </trkpt>
      <trkpt lat="42.71062" lon="1.65853">
        <ele>1343.5</ele>
        <time>2020-02-08T10:52:30Z</time>
      </trkpt>
      <trkpt lat="42.71062" lon="1.65853">
        <ele>1343.5</ele>
        <time>2020-02-08T10:52:31Z</time>
      </trkpt>
      <trkpt lat="42.71063" lon="1.65853">
        <ele>1343.5</ele>
        <time>2020-02-08T10:52:32Z</time>
      </trkpt>
      <trkpt lat="42.71063" lon="1.65853">
        <ele>1343.5</ele>
        <time>2020-02-08T10:52:33Z</time>
      </trkpt>
      <trkpt lat="42.71063" lon="1.65853">
        <ele>1343.6</ele>
        <time>2020-02-08T10:52:34Z</time>
      </trkpt>
      <trkpt lat="42.71064" lon="1.65853">
        <ele>1343.6</ele>
        <time>2020-02-08T10:52:35Z</time>
      </trkpt>
      <trkpt lat="42.71064" lon="1.65853">
        <ele>1343.6</ele>
        <time>2020-02-08T10:52:36Z</time>
      </trkpt>
      <trkpt lat="42.71064" lon="1.65853">
        <ele>1343.6</ele>
        <time>2020-02-08T10:52:37Z</time>
      </trkpt>
      <trkpt lat="42.71065" lon="1.65853">
        <ele>1343.6</ele>
        <time>2020-02-08T10:52:38Z</time>
      </trkpt>
      <trkpt lat="42.71065" lon="1.65853">
        <ele>1343.6</ele>
        <time>2020-02-08T10:52:39Z</time>
      </trkpt>
      <trkpt lat="42.71065" lon="1.65853">
        <ele>1343.7</ele>
        <time>2020-02-08T10:52:40Z</time>
      </trkpt>
      <trkpt lat="42.71065" lon="1.65853">
        <ele>1343.7</ele>
        <time>2020-02-08T10:52:41Z</time>
      </trkpt>
      <trkpt lat="42.71066" lon="1.65853">
        <ele>1343.7</ele>
        <time>2020-02-08T10:52:42Z</time>
      </trkpt>
      <trkpt lat="42.71066" lon="1.65853">
        <ele>1343.7</ele>
        <time>2020-02-08T10:52:43Z</time>
      </trkpt>
      <trkpt lat="42.71066" lon="1.65853">
        <ele>1343.7</ele>
        <time>2020-02-08T10:52:44Z</time>
      </trkpt>
      <trkpt lat="42.71067" lon="1.65853">
        <ele>1343.8</ele>
        <time>2020-02-08T10:52:45Z</time>
      </trkpt>
      <trkpt lat="42.71067" lon="1.65853">
        <ele>1343.8</ele>
        <time>2020-02-08T10:52:46Z</time>
      </trkpt>
      <trkpt lat="42.71067" lon="1.65853">
        <ele>1343.8</ele>
        <time>2020-02-08T10:52:47Z</time>
      </trkpt>
      <trkpt lat="42.71068" lon="1.65853">
        <ele>1343.8</ele>
        <time>2020-02-08T10:52:48Z</time>
      </trkpt>
      <trkpt lat="42.71068" lon="1.65853">
        <ele>1343.8</ele>
        <time>2020-02-08T10:52:49Z</time>
      </trkpt>
      <trkpt lat="42.71068" lon="1.65853">
        <ele>1343.9</ele>
        <time>2020-02-08T10:52:50Z</time>
      </trkpt>
      <trkpt lat="42.71069" lon="1.65853">
        <ele>1343.9</ele>
        <time>2020-02-08T10:52:51Z</time>
      </trkpt>
      <trkpt lat="42.71069" lon="1.65853">
        <ele>1343.9</ele>
        <time>2020-02-08T10:52:52Z</time>
      </trkpt>
      <trkpt lat="42.71069" lon="1.65853">
        <ele>1343.9</ele>
        <time>2020-02-08T10:52:53Z</time>
      </trkpt>
      <trkpt lat="42.71069" lon="1.65853">
        <ele>1343.9</ele>
        <time>2020-02-08T10:52:54Z</time>
      </trkpt>
      <trkpt lat="42.7107" lon="1.65853">
        <ele>1344</ele>
        <time>2020-02-08T10:52:55Z</time>
      </trkpt>
      <trkpt lat="42.7107" lon="1.65853">
        <ele>1344</ele>
        <time>2020-02-08T10:52:56Z</time>
      </trkpt>
      <trkpt lat="42.7107" lon="1.65853">
        <ele>1344</ele>
        <time>2020-02-08T10:52:57Z</time>
      </trkpt>
      <trkpt lat="42.71071" lon="1.65853">
        <ele>1344</ele>
        <time>2020-02-08T10:52:58Z</time>
      </trkpt>
      <trkpt lat="42.71071" lon="1.65853">
        <ele>1344</ele>
        <time>2020-02-08T10:52:59Z</time>
      </trkpt>
      <trkpt lat="42.71071" lon="1.65852">
        <ele>1344.1</ele>
        <time>2020-02-08T10:53:00Z</time>
      </trkpt>
      <trkpt lat="42.71072" lon="1.65852">
        <ele>1344.1</ele>
        <time>2020-02-08T10:53:01Z</time>
      </trkpt>
      <trkpt lat="42.71072" lon="1.65852">
        <ele>1344.1</ele>
        <time>2020-02-08T10:53:02Z</time>
      </trkpt>
      <trkpt lat="42.71072" lon="1.65851">
        <ele>1344.1</ele>
        <time>2020-02-08T10:53:03Z</time>
      </trkpt>
      <trkpt lat="42.71073" lon="1.65851">
        <ele>1344.2</ele>
        <time>2020-02-08T10:53:04Z</time>
      </trkpt>
      <trkpt lat="42.71073" lon="1.6585">
        <ele>1344.2</ele>
        <time>2020-02-08T10:53:05Z</time>
      </trkpt>
      <trkpt lat="42.71074" lon="1.6585">
        <ele>1344.2</ele>
        <time>2020-02-08T10:53:06Z</time>
      </trkpt>
      <trkpt lat="42.71074" lon="1.65849">
        <ele>1344.3</ele>
        <time>2020-02-08T10:53:07Z</time>
      </trkpt>
      <trkpt lat="42.71074" lon="1.65849">
        <ele>1344.3</ele>
        <time>2020-02-08T10:53:08Z</time>
      </trkpt>
      <trkpt lat="42.71075" lon="1.65849">
        <ele>1344.3</ele>
        <time>2020-02-08T10:53:09Z</time>
      </trkpt>
      <trkpt lat="42.71075" lon="1.65848">
        <ele>1344.4</ele>
        <time>2020-02-08T10:53:10Z</time>
      </trkpt>
      <trkpt lat="42.71076" lon="1.65848">
        <ele>1344.4</ele>
        <time>2020-02-08T10:53:11Z</time>
      </trkpt>
      <trkpt lat="42.71076" lon="1.65847">
        <ele>1344.4</ele>
        <time>2020-02-08T10:53:12Z</time>
      </trkpt>
      <trkpt lat="42.71076" lon="1.65847">
        <ele>1344.4</ele>
        <time>2020-02-08T10:53:13Z</time>
      </trkpt>
      <trkpt lat="42.71077" lon="1.65847">
        <ele>1344.5</ele>
        <time>2020-02-08T10:53:14Z</time>
      </trkpt>
      <trkpt lat="42.71077" lon="1.65846">
        <ele>1344.5</ele>
        <time>2020-02-08T10:53:15Z</time>
      </trkpt>
      <trkpt lat="42.71077" lon="1.65846">
        <ele>1344.5</ele>
        <time>2020-02-08T10:53:16Z</time>
      </trkpt>
      <trkpt lat="42.71078" lon="1.65845">
        <ele>1344.6</ele>
        <time>2020-02-08T10:53:17Z</time>
      </trkpt>
      <trkpt lat="42.71078" lon="1.65845">
        <ele>1344.6</ele>
        <time>2020-02-08T10:53:18Z</time>
      </trkpt>
      <trkpt lat="42.71079" lon="1.65845">
        <ele>1344.6</ele>
        <time>2020-02-08T10:53:19Z</time>
      </trkpt>
      <trkpt lat="42.71079" lon="1.65846">
        <ele>1344.7</ele>
        <time>2020-02-08T10:53:20Z</time>
      </trkpt>
      <trkpt lat="42.71078" lon="1.65847">
        <ele>1344.7</ele>
        <time>2020-02-08T10:53:21Z</time>
      </trkpt>
      <trkpt lat="42.71078" lon="1.65848">
        <ele>1344.8</ele>
        <time>2020-02-08T10:53:22Z</time>
      </trkpt>
      <trkpt lat="42.71078" lon="1.6585">
        <ele>1344.9</ele>
        <time>2020-02-08T10:53:23Z</time>
      </trkpt>
      <trkpt lat="42.71078" lon="1.65851">
        <ele>1344.9</ele>
        <time>2020-02-08T10:53:24Z</time>
      </trkpt>
      <trkpt lat="42.71078" lon="1.65852">
        <ele>1345</ele>
        <time>2020-02-08T10:53:25Z</time>
      </trkpt>
      <trkpt lat="42.71078" lon="1.65853">
        <ele>1345</ele>
        <time>2020-02-08T10:53:26Z</time>
      </trkpt>
      <trkpt lat="42.71078" lon="1.65855">
        <ele>1345.1</ele>
        <time>2020-02-08T10:53:27Z</time>
      </trkpt>
      <trkpt lat="42.71078" lon="1.65856">
        <ele>1345.2</ele>
        <time>2020-02-08T10:53:28Z</time>
      </trkpt>
      <trkpt lat="42.71078" lon="1.65857">
        <ele>1345.2</ele>
        <time>2020-02-08T10:53:29Z</time>
      </trkpt>
      <trkpt lat="42.71078" lon="1.65856">
        <ele>1345.2</ele>
        <time>2020-02-08T10:53:30Z</time>
      </trkpt>
      <trkpt lat="42.71078" lon="1.65855">
        <ele>1345.3</ele>
        <time>2020-02-08T10:53:31Z</time>
      </trkpt>
      <trkpt lat="42.71078" lon="1.65855">
        <ele>1345.3</ele>
        <time>2020-02-08T10:53:32Z</time>
      </trkpt>
      <trkpt lat="42.71077" lon="1.65854">
        <ele>1345.4</ele>
        <time>2020-02-08T10:53:33Z</time>
      </trkpt>
      <trkpt lat="42.71077" lon="1.65853">
        <ele>1345.4</ele>
        <time>2020-02-08T10:53:34Z</time>
      </trkpt>
      <trkpt lat="42.71077" lon="1.65852">
        <ele>1345.4</ele>
        <time>2020-02-08T10:53:35Z</time>
      </trkpt>
      <trkpt lat="42.71077" lon="1.65851">
        <ele>1345.5</ele>
        <time>2020-02-08T10:53:36Z</time>
      </trkpt>
      <trkpt lat="42.71076" lon="1.65851">
        <ele>1345.5</ele>
        <time>2020-02-08T10:53:37Z</time>
      </trkpt>
      <trkpt lat="42.71076" lon="1.6585">
        <ele>1345.6</ele>
        <time>2020-02-08T10:53:38Z</time>
      </trkpt>
      <trkpt lat="42.71076" lon="1.65849">
        <ele>1345.6</ele>
        <time>2020-02-08T10:53:39Z</time>
      </trkpt>
      <trkpt lat="42.71076" lon="1.65848">
        <ele>1345.6</ele>
        <time>2020-02-08T10:53:40Z</time>
      </trkpt>
      <trkpt lat="42.71075" lon="1.65847">
        <ele>1345.7</ele>
        <time>2020-02-08T10:53:41Z</time>
      </trkpt>
      <trkpt lat="42.71075" lon="1.65846">
        <ele>1345.7</ele>
        <time>2020-02-08T10:53:42Z</time>
      </trkpt>
      <trkpt lat="42.71075" lon="1.65846">
        <ele>1345.8</ele>
        <time>2020-02-08T10:53:43Z</time>
      </trkpt>
      <trkpt lat="42.71075" lon="1.65845">
        <ele>1345.8</ele>
        <time>2020-02-08T10:53:44Z</time>
      </trkpt>
      <trkpt lat="42.71074" lon="1.65844">
        <ele>1345.8</ele>
        <time>2020-02-08T10:53:45Z</time>
      </trkpt>
      <trkpt lat="42.71074" lon="1.65843">
        <ele>1345.9</ele>
        <time>2020-02-08T10:53:46Z</time>
      </trkpt>
      <trkpt lat="42.71074" lon="1.65842">
        <ele>1345.9</ele>
        <time>2020-02-08T10:53:47Z</time>
      </trkpt>
      <trkpt lat="42.71074" lon="1.65842">
        <ele>1346</ele>
        <time>2020-02-08T10:53:48Z</time>
      </trkpt>
      <trkpt lat="42.71073" lon="1.65841">
        <ele>1346</ele>
        <time>2020-02-08T10:53:49Z</time>
      </trkpt>
      <trkpt lat="42.71073" lon="1.65841">
        <ele>1346</ele>
        <time>2020-02-08T10:53:50Z</time>
      </trkpt>
      <trkpt lat="42.71074" lon="1.65841">
        <ele>1346</ele>
        <time>2020-02-08T10:53:51Z</time>
      </trkpt>
      <trkpt lat="42.71074" lon="1.65841">
        <ele>1346</ele>
        <time>2020-02-08T10:53:52Z</time>
      </trkpt>
      <trkpt lat="42.71074" lon="1.65841">
        <ele>1346</ele>
        <time>2020-02-08T10:53:53Z</time>
      </trkpt>
      <trkpt lat="42.71074" lon="1.65841">
        <ele>1346</ele>
        <time>2020-02-08T10:53:54Z</time>
      </trkpt>
      <trkpt lat="42.71074" lon="1.65841">
        <ele>1346</ele>
        <time>2020-02-08T10:53:55Z</time>
      </trkpt>
      <trkpt lat="42.71074" lon="1.65841">
        <ele>1346</ele>
        <time>2020-02-08T10:53:56Z</time>
      </trkpt>
      <trkpt lat="42.71074" lon="1.65841">
        <ele>1346.1</ele>
        <time>2020-02-08T10:53:57Z</time>
      </trkpt>
      <trkpt lat="42.71074" lon="1.65841">
        <ele>1346.1</ele>
        <time>2020-02-08T10:53:58Z</time>
      </trkpt>
      <trkpt lat="42.71074" lon="1.65842">
        <ele>1346.1</ele>
        <time>2020-02-08T10:53:59Z</time>
      </trkpt>
      <trkpt lat="42.71074" lon="1.65842">
        <ele>1346.1</ele>
        <time>2020-02-08T10:54:00Z</time>
      </trkpt>
      <trkpt lat="42.71074" lon="1.65842">
        <ele>1346.1</ele>
        <time>2020-02-08T10:54:01Z</time>
      </trkpt>
      <trkpt lat="42.71074" lon="1.65842">
        <ele>1346.1</ele>
        <time>2020-02-08T10:54:02Z</time>
      </trkpt>
      <trkpt lat="42.71074" lon="1.65842">
        <ele>1346.1</ele>
        <time>2020-02-08T10:54:03Z</time>
      </trkpt>
      <trkpt lat="42.71074" lon="1.65842">
        <ele>1346.1</ele>
        <time>2020-02-08T10:54:04Z</time>
      </trkpt>
      <trkpt lat="42.71074" lon="1.65842">
        <ele>1346.1</ele>
        <time>2020-02-08T10:54:05Z</time>
      </trkpt>
      <trkpt lat="42.71074" lon="1.65842">
        <ele>1346.1</ele>
        <time>2020-02-08T10:54:06Z</time>
      </trkpt>
      <trkpt lat="42.71074" lon="1.65842">
        <ele>1346.1</ele>
        <time>2020-02-08T10:54:07Z</time>
      </trkpt>
      <trkpt lat="42.71074" lon="1.65842">
        <ele>1346.1</ele>
        <time>2020-02-08T10:54:08Z</time>
      </trkpt>
      <trkpt lat="42.71074" lon="1.65842">
        <ele>1346.1</ele>
        <time>2020-02-08T10:54:09Z</time>
      </trkpt>
      <trkpt lat="42.71074" lon="1.65842">
        <ele>1346.1</ele>
        <time>2020-02-08T10:54:10Z</time>
      </trkpt>
      <trkpt lat="42.71074" lon="1.65843">
        <ele>1346.1</ele>
        <time>2020-02-08T10:54:11Z</time>
      </trkpt>
      <trkpt lat="42.71074" lon="1.65843">
        <ele>1346.1</ele>
        <time>2020-02-08T10:54:12Z</time>
      </trkpt>
      <trkpt lat="42.71075" lon="1.65843">
        <ele>1346.1</ele>
        <time>2020-02-08T10:54:13Z</time>
      </trkpt>
      <trkpt lat="42.71075" lon="1.65843">
        <ele>1346.1</ele>
        <time>2020-02-08T10:54:14Z</time>
      </trkpt>
      <trkpt lat="42.71075" lon="1.65843">
        <ele>1346.1</ele>
        <time>2020-02-08T10:54:15Z</time>
      </trkpt>
      <trkpt lat="42.71075" lon="1.65843">
        <ele>1346.2</ele>
        <time>2020-02-08T10:54:16Z</time>
      </trkpt>
      <trkpt lat="42.71075" lon="1.65843">
        <ele>1346.2</ele>
        <time>2020-02-08T10:54:17Z</time>
      </trkpt>
      <trkpt lat="42.71075" lon="1.65843">
        <ele>1346.2</ele>
        <time>2020-02-08T10:54:18Z</time>
      </trkpt>
      <trkpt lat="42.71075" lon="1.65843">
        <ele>1346.2</ele>
        <time>2020-02-08T10:54:19Z</time>
      </trkpt>
      <trkpt lat="42.71075" lon="1.65843">
        <ele>1346.2</ele>
        <time>2020-02-08T10:54:20Z</time>
      </trkpt>
      <trkpt lat="42.71075" lon="1.65843">
        <ele>1346.2</ele>
        <time>2020-02-08T10:54:21Z</time>
      </trkpt>
      <trkpt lat="42.71075" lon="1.65843">
        <ele>1346.2</ele>
        <time>2020-02-08T10:54:22Z</time>
      </trkpt>
      <trkpt lat="42.71075" lon="1.65844">
        <ele>1346.2</ele>
        <time>2020-02-08T10:54:23Z</time>
      </trkpt>
      <trkpt lat="42.71075" lon="1.65844">
        <ele>1346.2</ele>
        <time>2020-02-08T10:54:24Z</time>
      </trkpt>
      <trkpt lat="42.71075" lon="1.65844">
        <ele>1346.2</ele>
        <time>2020-02-08T10:54:25Z</time>
      </trkpt>
      <trkpt lat="42.71075" lon="1.65844">
        <ele>1346.2</ele>
        <time>2020-02-08T10:54:26Z</time>
      </trkpt>
      <trkpt lat="42.71075" lon="1.65844">
        <ele>1346.2</ele>
        <time>2020-02-08T10:54:27Z</time>
      </trkpt>
      <trkpt lat="42.71075" lon="1.65844">
        <ele>1346.2</ele>
        <time>2020-02-08T10:54:28Z</time>
      </trkpt>
      <trkpt lat="42.71075" lon="1.65844">
        <ele>1346.2</ele>
        <time>2020-02-08T10:54:29Z</time>
      </trkpt>
      <trkpt lat="42.71075" lon="1.65844">
        <ele>1346.2</ele>
        <time>2020-02-08T10:54:30Z</time>
      </trkpt>
      <trkpt lat="42.71075" lon="1.65844">
        <ele>1346.2</ele>
        <time>2020-02-08T10:54:31Z</time>
      </trkpt>
      <trkpt lat="42.71075" lon="1.65844">
        <ele>1346.2</ele>
        <time>2020-02-08T10:54:32Z</time>
      </trkpt>
      <trkpt lat="42.71075" lon="1.65844">
        <ele>1346.2</ele>
        <time>2020-02-08T10:54:33Z</time>
      </trkpt>
      <trkpt lat="42.71075" lon="1.65844">
        <ele>1346.2</ele>
        <time>2020-02-08T10:54:34Z</time>
      </trkpt>
      <trkpt lat="42.71075" lon="1.65845">
        <ele>1346.3</ele>
        <time>2020-02-08T10:54:35Z</time>
      </trkpt>
      <trkpt lat="42.71076" lon="1.65845">
        <ele>1346.3</ele>
        <time>2020-02-08T10:54:36Z</time>
      </trkpt>
      <trkpt lat="42.71076" lon="1.65845">
        <ele>1346.3</ele>
        <time>2020-02-08T10:54:37Z</time>
      </trkpt>
      <trkpt lat="42.71076" lon="1.65845">
        <ele>1346.3</ele>
        <time>2020-02-08T10:54:38Z</time>
      </trkpt>
      <trkpt lat="42.71076" lon="1.65845">
        <ele>1346.3</ele>
        <time>2020-02-08T10:54:39Z</time>
      </trkpt>
      <trkpt lat="42.71076" lon="1.65845">
        <ele>1346.3</ele>
        <time>2020-02-08T10:54:40Z</time>
      </trkpt>
      <trkpt lat="42.71076" lon="1.65845">
        <ele>1346.3</ele>
        <time>2020-02-08T10:54:41Z</time>
      </trkpt>
      <trkpt lat="42.71076" lon="1.65845">
        <ele>1346.3</ele>
        <time>2020-02-08T10:54:42Z</time>
      </trkpt>
      <trkpt lat="42.71076" lon="1.65845">
        <ele>1346.3</ele>
        <time>2020-02-08T10:54:43Z</time>
      </trkpt>
      <trkpt lat="42.71076" lon="1.65845">
        <ele>1346.3</ele>
        <time>2020-02-08T10:54:44Z</time>
      </trkpt>
      <trkpt lat="42.71076" lon="1.65845">
        <ele>1346.3</ele>
        <time>2020-02-08T10:54:45Z</time>
      </trkpt>
      <trkpt lat="42.71076" lon="1.65845">
        <ele>1346.3</ele>
        <time>2020-02-08T10:54:46Z</time>
      </trkpt>
      <trkpt lat="42.71076" lon="1.65845">
        <ele>1346.3</ele>
        <time>2020-02-08T10:54:47Z</time>
      </trkpt>
      <trkpt lat="42.71076" lon="1.65846">
        <ele>1346.3</ele>
        <time>2020-02-08T10:54:48Z</time>
      </trkpt>
      <trkpt lat="42.71076" lon="1.65846">
        <ele>1346.3</ele>
        <time>2020-02-08T10:54:49Z</time>
      </trkpt>
      <trkpt lat="42.71076" lon="1.65846">
        <ele>1346.3</ele>
        <time>2020-02-08T10:54:50Z</time>
      </trkpt>
      <trkpt lat="42.71076" lon="1.65846">
        <ele>1346.3</ele>
        <time>2020-02-08T10:54:51Z</time>
      </trkpt>
      <trkpt lat="42.71076" lon="1.65846">
        <ele>1346.3</ele>
        <time>2020-02-08T10:54:52Z</time>
      </trkpt>
      <trkpt lat="42.71076" lon="1.65846">
        <ele>1346.3</ele>
        <time>2020-02-08T10:54:53Z</time>
      </trkpt>
      <trkpt lat="42.71076" lon="1.65846">
        <ele>1346.3</ele>
        <time>2020-02-08T10:54:54Z</time>
      </trkpt>
      <trkpt lat="42.71076" lon="1.65846">
        <ele>1346.3</ele>
        <time>2020-02-08T10:54:55Z</time>
      </trkpt>
      <trkpt lat="42.71076" lon="1.65846">
        <ele>1346.3</ele>
        <time>2020-02-08T10:54:56Z</time>
      </trkpt>
      <trkpt lat="42.71076" lon="1.65846">
        <ele>1346.3</ele>
        <time>2020-02-08T10:54:57Z</time>
      </trkpt>
      <trkpt lat="42.71076" lon="1.65846">
        <ele>1346.3</ele>
        <time>2020-02-08T10:54:58Z</time>
      </trkpt>
      <trkpt lat="42.71077" lon="1.65846">
        <ele>1346.3</ele>
        <time>2020-02-08T10:54:59Z</time>
      </trkpt>
      <trkpt lat="42.71077" lon="1.65847">
        <ele>1346.3</ele>
        <time>2020-02-08T10:55:00Z</time>
      </trkpt>
      <trkpt lat="42.71077" lon="1.65847">
        <ele>1346.3</ele>
        <time>2020-02-08T10:55:01Z</time>
      </trkpt>
      <trkpt lat="42.71077" lon="1.65847">
        <ele>1346.3</ele>
        <time>2020-02-08T10:55:02Z</time>
      </trkpt>
      <trkpt lat="42.71077" lon="1.65847">
        <ele>1346.3</ele>
        <time>2020-02-08T10:55:03Z</time>
      </trkpt>
      <trkpt lat="42.71077" lon="1.65847">
        <ele>1346.4</ele>
        <time>2020-02-08T10:55:04Z</time>
      </trkpt>
      <trkpt lat="42.71077" lon="1.65847">
        <ele>1346.4</ele>
        <time>2020-02-08T10:55:05Z</time>
      </trkpt>
      <trkpt lat="42.71077" lon="1.65847">
        <ele>1346.4</ele>
        <time>2020-02-08T10:55:06Z</time>
      </trkpt>
      <trkpt lat="42.71077" lon="1.65847">
        <ele>1346.4</ele>
        <time>2020-02-08T10:55:07Z</time>
      </trkpt>
      <trkpt lat="42.71077" lon="1.65847">
        <ele>1346.4</ele>
        <time>2020-02-08T10:55:08Z</time>
      </trkpt>
      <trkpt lat="42.71077" lon="1.65847">
        <ele>1346.4</ele>
        <time>2020-02-08T10:55:09Z</time>
      </trkpt>
      <trkpt lat="42.71077" lon="1.65847">
        <ele>1346.4</ele>
        <time>2020-02-08T10:55:10Z</time>
      </trkpt>
      <trkpt lat="42.71077" lon="1.65847">
        <ele>1346.4</ele>
        <time>2020-02-08T10:55:11Z</time>
      </trkpt>
      <trkpt lat="42.71077" lon="1.65848">
        <ele>1346.4</ele>
        <time>2020-02-08T10:55:12Z</time>
      </trkpt>
      <trkpt lat="42.71077" lon="1.65848">
        <ele>1346.4</ele>
        <time>2020-02-08T10:55:13Z</time>
      </trkpt>
      <trkpt lat="42.71077" lon="1.65848">
        <ele>1346.4</ele>
        <time>2020-02-08T10:55:14Z</time>
      </trkpt>
      <trkpt lat="42.71077" lon="1.65848">
        <ele>1346.4</ele>
        <time>2020-02-08T10:55:15Z</time>
      </trkpt>
      <trkpt lat="42.71077" lon="1.65848">
        <ele>1346.4</ele>
        <time>2020-02-08T10:55:16Z</time>
      </trkpt>
      <trkpt lat="42.71077" lon="1.65848">
        <ele>1346.4</ele>
        <time>2020-02-08T10:55:17Z</time>
      </trkpt>
      <trkpt lat="42.71077" lon="1.65848">
        <ele>1346.4</ele>
        <time>2020-02-08T10:55:18Z</time>
      </trkpt>
      <trkpt lat="42.71077" lon="1.65848">
        <ele>1346.4</ele>
        <time>2020-02-08T10:55:19Z</time>
      </trkpt>
      <trkpt lat="42.71077" lon="1.65848">
        <ele>1346.4</ele>
        <time>2020-02-08T10:55:20Z</time>
      </trkpt>
      <trkpt lat="42.71077" lon="1.65848">
        <ele>1346.4</ele>
        <time>2020-02-08T10:55:21Z</time>
      </trkpt>
      <trkpt lat="42.71078" lon="1.65848">
        <ele>1346.4</ele>
        <time>2020-02-08T10:55:22Z</time>
      </trkpt>
      <trkpt lat="42.71078" lon="1.65848">
        <ele>1346.4</ele>
        <time>2020-02-08T10:55:23Z</time>
      </trkpt>
      <trkpt lat="42.71078" lon="1.65848">
        <ele>1346.4</ele>
        <time>2020-02-08T10:55:24Z</time>
      </trkpt>
      <trkpt lat="42.71078" lon="1.65849">
        <ele>1346.4</ele>
        <time>2020-02-08T10:55:25Z</time>
      </trkpt>
      <trkpt lat="42.71078" lon="1.65849">
        <ele>1346.4</ele>
        <time>2020-02-08T10:55:26Z</time>
      </trkpt>
      <trkpt lat="42.71078" lon="1.65849">
        <ele>1346.4</ele>
        <time>2020-02-08T10:55:27Z</time>
      </trkpt>
      <trkpt lat="42.71078" lon="1.65849">
        <ele>1346.4</ele>
        <time>2020-02-08T10:55:28Z</time>
      </trkpt>
      <trkpt lat="42.71078" lon="1.65849">
        <ele>1346.4</ele>
        <time>2020-02-08T10:55:29Z</time>
      </trkpt>
      <trkpt lat="42.71078" lon="1.65849">
        <ele>1346.4</ele>
        <time>2020-02-08T10:55:30Z</time>
      </trkpt>
      <trkpt lat="42.71078" lon="1.65849">
        <ele>1346.5</ele>
        <time>2020-02-08T10:55:31Z</time>
      </trkpt>
      <trkpt lat="42.71078" lon="1.65849">
        <ele>1346.5</ele>
        <time>2020-02-08T10:55:32Z</time>
      </trkpt>
      <trkpt lat="42.71078" lon="1.65849">
        <ele>1346.5</ele>
        <time>2020-02-08T10:55:33Z</time>
      </trkpt>
      <trkpt lat="42.71078" lon="1.65849">
        <ele>1346.5</ele>
        <time>2020-02-08T10:55:34Z</time>
      </trkpt>
      <trkpt lat="42.71078" lon="1.65849">
        <ele>1346.5</ele>
        <time>2020-02-08T10:55:35Z</time>
      </trkpt>
      <trkpt lat="42.71078" lon="1.65849">
        <ele>1346.5</ele>
        <time>2020-02-08T10:55:36Z</time>
      </trkpt>
      <trkpt lat="42.71078" lon="1.6585">
        <ele>1346.5</ele>
        <time>2020-02-08T10:55:37Z</time>
      </trkpt>
      <trkpt lat="42.71078" lon="1.6585">
        <ele>1346.5</ele>
        <time>2020-02-08T10:55:38Z</time>
      </trkpt>
      <trkpt lat="42.71078" lon="1.6585">
        <ele>1346.5</ele>
        <time>2020-02-08T10:55:39Z</time>
      </trkpt>
      <trkpt lat="42.71078" lon="1.6585">
        <ele>1346.5</ele>
        <time>2020-02-08T10:55:40Z</time>
      </trkpt>
      <trkpt lat="42.71078" lon="1.6585">
        <ele>1346.5</ele>
        <time>2020-02-08T10:55:41Z</time>
      </trkpt>
      <trkpt lat="42.71078" lon="1.6585">
        <ele>1346.5</ele>
        <time>2020-02-08T10:55:42Z</time>
      </trkpt>
      <trkpt lat="42.71078" lon="1.6585">
        <ele>1346.5</ele>
        <time>2020-02-08T10:55:43Z</time>
      </trkpt>
      <trkpt lat="42.71078" lon="1.6585">
        <ele>1346.5</ele>
        <time>2020-02-08T10:55:44Z</time>
      </trkpt>
      <trkpt lat="42.71079" lon="1.6585">
        <ele>1346.5</ele>
        <time>2020-02-08T10:55:45Z</time>
      </trkpt>
      <trkpt lat="42.71079" lon="1.6585">
        <ele>1346.5</ele>
        <time>2020-02-08T10:55:46Z</time>
      </trkpt>
      <trkpt lat="42.71079" lon="1.6585">
        <ele>1346.5</ele>
        <time>2020-02-08T10:55:47Z</time>
      </trkpt>
      <trkpt lat="42.71079" lon="1.6585">
        <ele>1346.5</ele>
        <time>2020-02-08T10:55:48Z</time>
      </trkpt>
      <trkpt lat="42.71079" lon="1.65851">
        <ele>1346.5</ele>
        <time>2020-02-08T10:55:49Z</time>
      </trkpt>
      <trkpt lat="42.71079" lon="1.65851">
        <ele>1346.5</ele>
        <time>2020-02-08T10:55:50Z</time>
      </trkpt>
      <trkpt lat="42.71079" lon="1.65851">
        <ele>1346.5</ele>
        <time>2020-02-08T10:55:51Z</time>
      </trkpt>
      <trkpt lat="42.71079" lon="1.65851">
        <ele>1346.5</ele>
        <time>2020-02-08T10:55:52Z</time>
      </trkpt>
      <trkpt lat="42.71079" lon="1.65851">
        <ele>1346.5</ele>
        <time>2020-02-08T10:55:53Z</time>
      </trkpt>
      <trkpt lat="42.71079" lon="1.65851">
        <ele>1346.5</ele>
        <time>2020-02-08T10:55:54Z</time>
      </trkpt>
      <trkpt lat="42.71079" lon="1.65851">
        <ele>1346.5</ele>
        <time>2020-02-08T10:55:55Z</time>
      </trkpt>
      <trkpt lat="42.71079" lon="1.65851">
        <ele>1346.5</ele>
        <time>2020-02-08T10:55:56Z</time>
      </trkpt>
      <trkpt lat="42.71079" lon="1.65851">
        <ele>1346.5</ele>
        <time>2020-02-08T10:55:57Z</time>
      </trkpt>
      <trkpt lat="42.71079" lon="1.65851">
        <ele>1346.5</ele>
        <time>2020-02-08T10:55:58Z</time>
      </trkpt>
      <trkpt lat="42.71079" lon="1.65851">
        <ele>1346.5</ele>
        <time>2020-02-08T10:55:59Z</time>
      </trkpt>
      <trkpt lat="42.71079" lon="1.6585">
        <ele>1346.6</ele>
        <time>2020-02-08T10:56:00Z</time>
      </trkpt>
      <trkpt lat="42.71079" lon="1.65849">
        <ele>1346.6</ele>
        <time>2020-02-08T10:56:01Z</time>
      </trkpt>
      <trkpt lat="42.71078" lon="1.65848">
        <ele>1346.7</ele>
        <time>2020-02-08T10:56:02Z</time>
      </trkpt>
      <trkpt lat="42.71078" lon="1.65847">
        <ele>1346.7</ele>
        <time>2020-02-08T10:56:03Z</time>
      </trkpt>
      <trkpt lat="42.71078" lon="1.65845">
        <ele>1346.7</ele>
        <time>2020-02-08T10:56:04Z</time>
      </trkpt>
      <trkpt lat="42.71077" lon="1.65844">
        <ele>1346.8</ele>
        <time>2020-02-08T10:56:05Z</time>
      </trkpt>
      <trkpt lat="42.71077" lon="1.65843">
        <ele>1346.8</ele>
        <time>2020-02-08T10:56:06Z</time>
      </trkpt>
      <trkpt lat="42.71077" lon="1.65842">
        <ele>1346.8</ele>
        <time>2020-02-08T10:56:07Z</time>
      </trkpt>
      <trkpt lat="42.71076" lon="1.65841">
        <ele>1346.9</ele>
        <time>2020-02-08T10:56:08Z</time>
      </trkpt>
      <trkpt lat="42.71076" lon="1.65839">
        <ele>1346.9</ele>
        <time>2020-02-08T10:56:09Z</time>
      </trkpt>
      <trkpt lat="42.71075" lon="1.65839">
        <ele>1347</ele>
        <time>2020-02-08T10:56:10Z</time>
      </trkpt>
      <trkpt lat="42.71074" lon="1.65838">
        <ele>1347</ele>
        <time>2020-02-08T10:56:11Z</time>
      </trkpt>
      <trkpt lat="42.71073" lon="1.65838">
        <ele>1347</ele>
        <time>2020-02-08T10:56:12Z</time>
      </trkpt>
      <trkpt lat="42.71072" lon="1.65837">
        <ele>1347.1</ele>
        <time>2020-02-08T10:56:13Z</time>
      </trkpt>
      <trkpt lat="42.71071" lon="1.65836">
        <ele>1347.1</ele>
        <time>2020-02-08T10:56:14Z</time>
      </trkpt>
      <trkpt lat="42.7107" lon="1.65836">
        <ele>1347.2</ele>
        <time>2020-02-08T10:56:15Z</time>
      </trkpt>
      <trkpt lat="42.71069" lon="1.65835">
        <ele>1347.2</ele>
        <time>2020-02-08T10:56:16Z</time>
      </trkpt>
      <trkpt lat="42.71068" lon="1.65835">
        <ele>1347.3</ele>
        <time>2020-02-08T10:56:17Z</time>
      </trkpt>
      <trkpt lat="42.71067" lon="1.65834">
        <ele>1347.3</ele>
        <time>2020-02-08T10:56:18Z</time>
      </trkpt>
      <trkpt lat="42.71067" lon="1.65833">
        <ele>1347.3</ele>
        <time>2020-02-08T10:56:19Z</time>
      </trkpt>
      <trkpt lat="42.71067" lon="1.65833">
        <ele>1347.4</ele>
        <time>2020-02-08T10:56:20Z</time>
      </trkpt>
      <trkpt lat="42.71067" lon="1.65833">
        <ele>1347.4</ele>
        <time>2020-02-08T10:56:21Z</time>
      </trkpt>
      <trkpt lat="42.71067" lon="1.65833">
        <ele>1347.4</ele>
        <time>2020-02-08T10:56:22Z</time>
      </trkpt>
      <trkpt lat="42.71068" lon="1.65833">
        <ele>1347.4</ele>
        <time>2020-02-08T10:56:23Z</time>
      </trkpt>
      <trkpt lat="42.71068" lon="1.65833">
        <ele>1347.4</ele>
        <time>2020-02-08T10:56:24Z</time>
      </trkpt>
      <trkpt lat="42.71068" lon="1.65833">
        <ele>1347.4</ele>
        <time>2020-02-08T10:56:25Z</time>
      </trkpt>
      <trkpt lat="42.71069" lon="1.65833">
        <ele>1347.4</ele>
        <time>2020-02-08T10:56:26Z</time>
      </trkpt>
      <trkpt lat="42.71069" lon="1.65833">
        <ele>1347.4</ele>
        <time>2020-02-08T10:56:27Z</time>
      </trkpt>
      <trkpt lat="42.71069" lon="1.65833">
        <ele>1347.5</ele>
        <time>2020-02-08T10:56:28Z</time>
      </trkpt>
      <trkpt lat="42.7107" lon="1.65833">
        <ele>1347.5</ele>
        <time>2020-02-08T10:56:29Z</time>
      </trkpt>
      <trkpt lat="42.7107" lon="1.65833">
        <ele>1347.5</ele>
        <time>2020-02-08T10:56:30Z</time>
      </trkpt>
      <trkpt lat="42.7107" lon="1.65833">
        <ele>1347.5</ele>
        <time>2020-02-08T10:56:31Z</time>
      </trkpt>
      <trkpt lat="42.71071" lon="1.65833">
        <ele>1347.5</ele>
        <time>2020-02-08T10:56:32Z</time>
      </trkpt>
      <trkpt lat="42.71071" lon="1.65833">
        <ele>1347.5</ele>
        <time>2020-02-08T10:56:33Z</time>
      </trkpt>
      <trkpt lat="42.71071" lon="1.65833">
        <ele>1347.5</ele>
        <time>2020-02-08T10:56:34Z</time>
      </trkpt>
      <trkpt lat="42.71072" lon="1.65833">
        <ele>1347.5</ele>
        <time>2020-02-08T10:56:35Z</time>
      </trkpt>
      <trkpt lat="42.71072" lon="1.65833">
        <ele>1347.6</ele>
        <time>2020-02-08T10:56:36Z</time>
      </trkpt>
      <trkpt lat="42.71072" lon="1.65833">
        <ele>1347.6</ele>
        <time>2020-02-08T10:56:37Z</time>
      </trkpt>
      <trkpt lat="42.71073" lon="1.65833">
        <ele>1347.6</ele>
        <time>2020-02-08T10:56:38Z</time>
      </trkpt>
      <trkpt lat="42.71073" lon="1.65832">
        <ele>1347.6</ele>
        <time>2020-02-08T10:56:39Z</time>
      </trkpt>
      <trkpt lat="42.71073" lon="1.65832">
        <ele>1347.6</ele>
        <time>2020-02-08T10:56:40Z</time>
      </trkpt>
      <trkpt lat="42.71073" lon="1.65832">
        <ele>1347.6</ele>
        <time>2020-02-08T10:56:41Z</time>
      </trkpt>
      <trkpt lat="42.71074" lon="1.65832">
        <ele>1347.6</ele>
        <time>2020-02-08T10:56:42Z</time>
      </trkpt>
      <trkpt lat="42.71074" lon="1.65832">
        <ele>1347.7</ele>
        <time>2020-02-08T10:56:43Z</time>
      </trkpt>
      <trkpt lat="42.71074" lon="1.65832">
        <ele>1347.7</ele>
        <time>2020-02-08T10:56:44Z</time>
      </trkpt>
      <trkpt lat="42.71075" lon="1.65832">
        <ele>1347.7</ele>
        <time>2020-02-08T10:56:45Z</time>
      </trkpt>
      <trkpt lat="42.71075" lon="1.65832">
        <ele>1347.7</ele>
        <time>2020-02-08T10:56:46Z</time>
      </trkpt>
      <trkpt lat="42.71075" lon="1.65832">
        <ele>1347.7</ele>
        <time>2020-02-08T10:56:47Z</time>
      </trkpt>
      <trkpt lat="42.71076" lon="1.65832">
        <ele>1347.7</ele>
        <time>2020-02-08T10:56:48Z</time>
      </trkpt>
      <trkpt lat="42.71076" lon="1.65832">
        <ele>1347.7</ele>
        <time>2020-02-08T10:56:49Z</time>
      </trkpt>
      <trkpt lat="42.71077" lon="1.65831">
        <ele>1347.8</ele>
        <time>2020-02-08T10:56:50Z</time>
      </trkpt>
      <trkpt lat="42.71077" lon="1.6583">
        <ele>1347.8</ele>
        <time>2020-02-08T10:56:51Z</time>
      </trkpt>
      <trkpt lat="42.71078" lon="1.6583">
        <ele>1347.8</ele>
        <time>2020-02-08T10:56:52Z</time>
      </trkpt>
      <trkpt lat="42.71079" lon="1.65829">
        <ele>1347.9</ele>
        <time>2020-02-08T10:56:53Z</time>
      </trkpt>
      <trkpt lat="42.7108" lon="1.65828">
        <ele>1347.9</ele>
        <time>2020-02-08T10:56:54Z</time>
      </trkpt>
      <trkpt lat="42.7108" lon="1.65827">
        <ele>1348</ele>
        <time>2020-02-08T10:56:55Z</time>
      </trkpt>
      <trkpt lat="42.71081" lon="1.65827">
        <ele>1348</ele>
        <time>2020-02-08T10:56:56Z</time>
      </trkpt>
      <trkpt lat="42.71082" lon="1.65826">
        <ele>1348</ele>
        <time>2020-02-08T10:56:57Z</time>
      </trkpt>
      <trkpt lat="42.71082" lon="1.65825">
        <ele>1348.1</ele>
        <time>2020-02-08T10:56:58Z</time>
      </trkpt>
      <trkpt lat="42.71083" lon="1.65824">
        <ele>1348.1</ele>
        <time>2020-02-08T10:56:59Z</time>
      </trkpt>
      <trkpt lat="42.71083" lon="1.65824">
        <ele>1348.2</ele>
        <time>2020-02-08T10:57:00Z</time>
      </trkpt>
      <trkpt lat="42.71083" lon="1.65824">
        <ele>1348.2</ele>
        <time>2020-02-08T10:57:01Z</time>
      </trkpt>
      <trkpt lat="42.71083" lon="1.65823">
        <ele>1348.2</ele>
        <time>2020-02-08T10:57:02Z</time>
      </trkpt>
      <trkpt lat="42.71083" lon="1.65823">
        <ele>1348.2</ele>
        <time>2020-02-08T10:57:03Z</time>
      </trkpt>
      <trkpt lat="42.71083" lon="1.65823">
        <ele>1348.2</ele>
        <time>2020-02-08T10:57:04Z</time>
      </trkpt>
      <trkpt lat="42.71083" lon="1.65822">
        <ele>1348.2</ele>
        <time>2020-02-08T10:57:05Z</time>
      </trkpt>
      <trkpt lat="42.71083" lon="1.65822">
        <ele>1348.2</ele>
        <time>2020-02-08T10:57:06Z</time>
      </trkpt>
      <trkpt lat="42.71083" lon="1.65822">
        <ele>1348.2</ele>
        <time>2020-02-08T10:57:07Z</time>
      </trkpt>
      <trkpt lat="42.71083" lon="1.65821">
        <ele>1348.3</ele>
        <time>2020-02-08T10:57:08Z</time>
      </trkpt>
      <trkpt lat="42.71083" lon="1.65821">
        <ele>1348.3</ele>
        <time>2020-02-08T10:57:09Z</time>
      </trkpt>
      <trkpt lat="42.71083" lon="1.65821">
        <ele>1348.3</ele>
        <time>2020-02-08T10:57:10Z</time>
      </trkpt>
      <trkpt lat="42.71083" lon="1.6582">
        <ele>1348.3</ele>
        <time>2020-02-08T10:57:11Z</time>
      </trkpt>
      <trkpt lat="42.71083" lon="1.6582">
        <ele>1348.3</ele>
        <time>2020-02-08T10:57:12Z</time>
      </trkpt>
      <trkpt lat="42.71083" lon="1.6582">
        <ele>1348.3</ele>
        <time>2020-02-08T10:57:13Z</time>
      </trkpt>
      <trkpt lat="42.71083" lon="1.65819">
        <ele>1348.3</ele>
        <time>2020-02-08T10:57:14Z</time>
      </trkpt>
      <trkpt lat="42.71083" lon="1.65819">
        <ele>1348.4</ele>
        <time>2020-02-08T10:57:15Z</time>
      </trkpt>
      <trkpt lat="42.71083" lon="1.65819">
        <ele>1348.4</ele>
        <time>2020-02-08T10:57:16Z</time>
      </trkpt>
      <trkpt lat="42.71083" lon="1.65818">
        <ele>1348.4</ele>
        <time>2020-02-08T10:57:17Z</time>
      </trkpt>
      <trkpt lat="42.71083" lon="1.65818">
        <ele>1348.4</ele>
        <time>2020-02-08T10:57:18Z</time>
      </trkpt>
      <trkpt lat="42.71083" lon="1.65818">
        <ele>1348.4</ele>
        <time>2020-02-08T10:57:19Z</time>
      </trkpt>
      <trkpt lat="42.71083" lon="1.65818">
        <ele>1348.4</ele>
        <time>2020-02-08T10:57:20Z</time>
      </trkpt>
      <trkpt lat="42.71083" lon="1.65817">
        <ele>1348.4</ele>
        <time>2020-02-08T10:57:21Z</time>
      </trkpt>
      <trkpt lat="42.71083" lon="1.65817">
        <ele>1348.5</ele>
        <time>2020-02-08T10:57:22Z</time>
      </trkpt>
      <trkpt lat="42.71083" lon="1.65817">
        <ele>1348.5</ele>
        <time>2020-02-08T10:57:23Z</time>
      </trkpt>
      <trkpt lat="42.71083" lon="1.65816">
        <ele>1348.5</ele>
        <time>2020-02-08T10:57:24Z</time>
      </trkpt>
      <trkpt lat="42.71083" lon="1.65816">
        <ele>1348.5</ele>
        <time>2020-02-08T10:57:25Z</time>
      </trkpt>
      <trkpt lat="42.71083" lon="1.65816">
        <ele>1348.5</ele>
        <time>2020-02-08T10:57:26Z</time>
      </trkpt>
      <trkpt lat="42.71083" lon="1.65815">
        <ele>1348.5</ele>
        <time>2020-02-08T10:57:27Z</time>
      </trkpt>
      <trkpt lat="42.71083" lon="1.65815">
        <ele>1348.5</ele>
        <time>2020-02-08T10:57:28Z</time>
      </trkpt>
      <trkpt lat="42.71084" lon="1.65815">
        <ele>1348.5</ele>
        <time>2020-02-08T10:57:29Z</time>
      </trkpt>
      <trkpt lat="42.71084" lon="1.65814">
        <ele>1348.6</ele>
        <time>2020-02-08T10:57:30Z</time>
      </trkpt>
      <trkpt lat="42.71084" lon="1.65814">
        <ele>1348.6</ele>
        <time>2020-02-08T10:57:31Z</time>
      </trkpt>
      <trkpt lat="42.71084" lon="1.65814">
        <ele>1348.6</ele>
        <time>2020-02-08T10:57:32Z</time>
      </trkpt>
      <trkpt lat="42.71084" lon="1.65813">
        <ele>1348.6</ele>
        <time>2020-02-08T10:57:33Z</time>
      </trkpt>
      <trkpt lat="42.71084" lon="1.65813">
        <ele>1348.6</ele>
        <time>2020-02-08T10:57:34Z</time>
      </trkpt>
      <trkpt lat="42.71084" lon="1.65813">
        <ele>1348.6</ele>
        <time>2020-02-08T10:57:35Z</time>
      </trkpt>
      <trkpt lat="42.71084" lon="1.65812">
        <ele>1348.6</ele>
        <time>2020-02-08T10:57:36Z</time>
      </trkpt>
      <trkpt lat="42.71084" lon="1.65812">
        <ele>1348.7</ele>
        <time>2020-02-08T10:57:37Z</time>
      </trkpt>
      <trkpt lat="42.71084" lon="1.65812">
        <ele>1348.7</ele>
        <time>2020-02-08T10:57:38Z</time>
      </trkpt>
      <trkpt lat="42.71084" lon="1.65812">
        <ele>1348.7</ele>
        <time>2020-02-08T10:57:39Z</time>
      </trkpt>
      <trkpt lat="42.71084" lon="1.6581">
        <ele>1348.7</ele>
        <time>2020-02-08T10:57:40Z</time>
      </trkpt>
      <trkpt lat="42.71084" lon="1.65809">
        <ele>1348.8</ele>
        <time>2020-02-08T10:57:41Z</time>
      </trkpt>
      <trkpt lat="42.71084" lon="1.65807">
        <ele>1348.9</ele>
        <time>2020-02-08T10:57:42Z</time>
      </trkpt>
      <trkpt lat="42.71084" lon="1.65806">
        <ele>1348.9</ele>
        <time>2020-02-08T10:57:43Z</time>
      </trkpt>
      <trkpt lat="42.71084" lon="1.65805">
        <ele>1349</ele>
        <time>2020-02-08T10:57:44Z</time>
      </trkpt>
      <trkpt lat="42.71084" lon="1.65803">
        <ele>1349</ele>
        <time>2020-02-08T10:57:45Z</time>
      </trkpt>
      <trkpt lat="42.71084" lon="1.65802">
        <ele>1349.1</ele>
        <time>2020-02-08T10:57:46Z</time>
      </trkpt>
      <trkpt lat="42.71084" lon="1.658">
        <ele>1349.2</ele>
        <time>2020-02-08T10:57:47Z</time>
      </trkpt>
      <trkpt lat="42.71085" lon="1.65799">
        <ele>1349.2</ele>
        <time>2020-02-08T10:57:48Z</time>
      </trkpt>
      <trkpt lat="42.71085" lon="1.65798">
        <ele>1349.3</ele>
        <time>2020-02-08T10:57:49Z</time>
      </trkpt>
      <trkpt lat="42.71085" lon="1.65796">
        <ele>1349.3</ele>
        <time>2020-02-08T10:57:50Z</time>
      </trkpt>
      <trkpt lat="42.71085" lon="1.65795">
        <ele>1349.4</ele>
        <time>2020-02-08T10:57:51Z</time>
      </trkpt>
      <trkpt lat="42.71085" lon="1.65794">
        <ele>1349.4</ele>
        <time>2020-02-08T10:57:52Z</time>
      </trkpt>
      <trkpt lat="42.71085" lon="1.65793">
        <ele>1349.5</ele>
        <time>2020-02-08T10:57:53Z</time>
      </trkpt>
      <trkpt lat="42.71086" lon="1.65791">
        <ele>1349.5</ele>
        <time>2020-02-08T10:57:54Z</time>
      </trkpt>
      <trkpt lat="42.71086" lon="1.6579">
        <ele>1349.6</ele>
        <time>2020-02-08T10:57:55Z</time>
      </trkpt>
      <trkpt lat="42.71086" lon="1.65789">
        <ele>1349.7</ele>
        <time>2020-02-08T10:57:56Z</time>
      </trkpt>
      <trkpt lat="42.71086" lon="1.65788">
        <ele>1349.7</ele>
        <time>2020-02-08T10:57:57Z</time>
      </trkpt>
      <trkpt lat="42.71086" lon="1.65786">
        <ele>1349.8</ele>
        <time>2020-02-08T10:57:58Z</time>
      </trkpt>
      <trkpt lat="42.71086" lon="1.65785">
        <ele>1349.8</ele>
        <time>2020-02-08T10:57:59Z</time>
      </trkpt>
      <trkpt lat="42.71086" lon="1.65784">
        <ele>1349.9</ele>
        <time>2020-02-08T10:58:00Z</time>
      </trkpt>
      <trkpt lat="42.71086" lon="1.65783">
        <ele>1349.9</ele>
        <time>2020-02-08T10:58:01Z</time>
      </trkpt>
      <trkpt lat="42.71086" lon="1.65782">
        <ele>1349.9</ele>
        <time>2020-02-08T10:58:02Z</time>
      </trkpt>
      <trkpt lat="42.71086" lon="1.65782">
        <ele>1350</ele>
        <time>2020-02-08T10:58:03Z</time>
      </trkpt>
      <trkpt lat="42.71086" lon="1.65781">
        <ele>1350</ele>
        <time>2020-02-08T10:58:04Z</time>
      </trkpt>
      <trkpt lat="42.71086" lon="1.6578">
        <ele>1350</ele>
        <time>2020-02-08T10:58:05Z</time>
      </trkpt>
      <trkpt lat="42.71085" lon="1.65779">
        <ele>1350.1</ele>
        <time>2020-02-08T10:58:06Z</time>
      </trkpt>
      <trkpt lat="42.71085" lon="1.65778">
        <ele>1350.1</ele>
        <time>2020-02-08T10:58:07Z</time>
      </trkpt>
      <trkpt lat="42.71085" lon="1.65777">
        <ele>1350.2</ele>
        <time>2020-02-08T10:58:08Z</time>
      </trkpt>
      <trkpt lat="42.71085" lon="1.65776">
        <ele>1350.2</ele>
        <time>2020-02-08T10:58:09Z</time>
      </trkpt>
      <trkpt lat="42.71085" lon="1.65775">
        <ele>1350.2</ele>
        <time>2020-02-08T10:58:10Z</time>
      </trkpt>
      <trkpt lat="42.71085" lon="1.65775">
        <ele>1350.3</ele>
        <time>2020-02-08T10:58:11Z</time>
      </trkpt>
      <trkpt lat="42.71085" lon="1.65774">
        <ele>1350.3</ele>
        <time>2020-02-08T10:58:12Z</time>
      </trkpt>
      <trkpt lat="42.71084" lon="1.65773">
        <ele>1350.4</ele>
        <time>2020-02-08T10:58:13Z</time>
      </trkpt>
      <trkpt lat="42.71084" lon="1.65772">
        <ele>1350.4</ele>
        <time>2020-02-08T10:58:14Z</time>
      </trkpt>
      <trkpt lat="42.71084" lon="1.65771">
        <ele>1350.4</ele>
        <time>2020-02-08T10:58:15Z</time>
      </trkpt>
      <trkpt lat="42.71084" lon="1.6577">
        <ele>1350.5</ele>
        <time>2020-02-08T10:58:16Z</time>
      </trkpt>
      <trkpt lat="42.71084" lon="1.65769">
        <ele>1350.5</ele>
        <time>2020-02-08T10:58:17Z</time>
      </trkpt>
      <trkpt lat="42.71084" lon="1.65769">
        <ele>1350.5</ele>
        <time>2020-02-08T10:58:18Z</time>
      </trkpt>
      <trkpt lat="42.71084" lon="1.65768">
        <ele>1350.6</ele>
        <time>2020-02-08T10:58:19Z</time>
      </trkpt>
      <trkpt lat="42.71083" lon="1.65767">
        <ele>1350.6</ele>
        <time>2020-02-08T10:58:20Z</time>
      </trkpt>
      <trkpt lat="42.71083" lon="1.65766">
        <ele>1350.7</ele>
        <time>2020-02-08T10:58:21Z</time>
      </trkpt>
      <trkpt lat="42.71083" lon="1.65765">
        <ele>1350.7</ele>
        <time>2020-02-08T10:58:22Z</time>
      </trkpt>
      <trkpt lat="42.71083" lon="1.65764">
        <ele>1350.7</ele>
        <time>2020-02-08T10:58:23Z</time>
      </trkpt>
      <trkpt lat="42.71083" lon="1.65763">
        <ele>1350.8</ele>
        <time>2020-02-08T10:58:24Z</time>
      </trkpt>
      <trkpt lat="42.71083" lon="1.65762">
        <ele>1350.8</ele>
        <time>2020-02-08T10:58:25Z</time>
      </trkpt>
      <trkpt lat="42.71082" lon="1.65762">
        <ele>1350.9</ele>
        <time>2020-02-08T10:58:26Z</time>
      </trkpt>
      <trkpt lat="42.71082" lon="1.65761">
        <ele>1350.9</ele>
        <time>2020-02-08T10:58:27Z</time>
      </trkpt>
      <trkpt lat="42.71082" lon="1.6576">
        <ele>1350.9</ele>
        <time>2020-02-08T10:58:28Z</time>
      </trkpt>
      <trkpt lat="42.71082" lon="1.65759">
        <ele>1351</ele>
        <time>2020-02-08T10:58:29Z</time>
      </trkpt>
      <trkpt lat="42.71082" lon="1.65759">
        <ele>1351</ele>
        <time>2020-02-08T10:58:30Z</time>
      </trkpt>
      <trkpt lat="42.71082" lon="1.65758">
        <ele>1351</ele>
        <time>2020-02-08T10:58:31Z</time>
      </trkpt>
      <trkpt lat="42.71081" lon="1.65758">
        <ele>1351</ele>
        <time>2020-02-08T10:58:32Z</time>
      </trkpt>
      <trkpt lat="42.71081" lon="1.65757">
        <ele>1351.1</ele>
        <time>2020-02-08T10:58:33Z</time>
      </trkpt>
      <trkpt lat="42.71081" lon="1.65757">
        <ele>1351.1</ele>
        <time>2020-02-08T10:58:34Z</time>
      </trkpt>
      <trkpt lat="42.71081" lon="1.65757">
        <ele>1351.1</ele>
        <time>2020-02-08T10:58:35Z</time>
      </trkpt>
      <trkpt lat="42.71081" lon="1.65756">
        <ele>1351.1</ele>
        <time>2020-02-08T10:58:36Z</time>
      </trkpt>
      <trkpt lat="42.71081" lon="1.65756">
        <ele>1351.1</ele>
        <time>2020-02-08T10:58:37Z</time>
      </trkpt>
      <trkpt lat="42.7108" lon="1.65756">
        <ele>1351.2</ele>
        <time>2020-02-08T10:58:38Z</time>
      </trkpt>
      <trkpt lat="42.7108" lon="1.65755">
        <ele>1351.2</ele>
        <time>2020-02-08T10:58:39Z</time>
      </trkpt>
      <trkpt lat="42.7108" lon="1.65755">
        <ele>1351.2</ele>
        <time>2020-02-08T10:58:40Z</time>
      </trkpt>
      <trkpt lat="42.7108" lon="1.65754">
        <ele>1351.2</ele>
        <time>2020-02-08T10:58:41Z</time>
      </trkpt>
      <trkpt lat="42.7108" lon="1.65754">
        <ele>1351.2</ele>
        <time>2020-02-08T10:58:42Z</time>
      </trkpt>
      <trkpt lat="42.71079" lon="1.65754">
        <ele>1351.3</ele>
        <time>2020-02-08T10:58:43Z</time>
      </trkpt>
      <trkpt lat="42.71079" lon="1.65753">
        <ele>1351.3</ele>
        <time>2020-02-08T10:58:44Z</time>
      </trkpt>
      <trkpt lat="42.71079" lon="1.65753">
        <ele>1351.3</ele>
        <time>2020-02-08T10:58:45Z</time>
      </trkpt>
      <trkpt lat="42.71079" lon="1.65753">
        <ele>1351.3</ele>
        <time>2020-02-08T10:58:46Z</time>
      </trkpt>
      <trkpt lat="42.71079" lon="1.65752">
        <ele>1351.3</ele>
        <time>2020-02-08T10:58:47Z</time>
      </trkpt>
      <trkpt lat="42.71078" lon="1.65752">
        <ele>1351.4</ele>
        <time>2020-02-08T10:58:48Z</time>
      </trkpt>
      <trkpt lat="42.71078" lon="1.65751">
        <ele>1351.4</ele>
        <time>2020-02-08T10:58:49Z</time>
      </trkpt>
      <trkpt lat="42.71078" lon="1.65751">
        <ele>1351.4</ele>
        <time>2020-02-08T10:58:50Z</time>
      </trkpt>
      <trkpt lat="42.71078" lon="1.65751">
        <ele>1351.4</ele>
        <time>2020-02-08T10:58:51Z</time>
      </trkpt>
      <trkpt lat="42.71078" lon="1.6575">
        <ele>1351.4</ele>
        <time>2020-02-08T10:58:52Z</time>
      </trkpt>
      <trkpt lat="42.71077" lon="1.6575">
        <ele>1351.5</ele>
        <time>2020-02-08T10:58:53Z</time>
      </trkpt>
      <trkpt lat="42.71077" lon="1.6575">
        <ele>1351.5</ele>
        <time>2020-02-08T10:58:54Z</time>
      </trkpt>
      <trkpt lat="42.71077" lon="1.65749">
        <ele>1351.5</ele>
        <time>2020-02-08T10:58:55Z</time>
      </trkpt>
      <trkpt lat="42.71077" lon="1.65749">
        <ele>1351.5</ele>
        <time>2020-02-08T10:58:56Z</time>
      </trkpt>
      <trkpt lat="42.71077" lon="1.65748">
        <ele>1351.5</ele>
        <time>2020-02-08T10:58:57Z</time>
      </trkpt>
      <trkpt lat="42.71076" lon="1.65748">
        <ele>1351.6</ele>
        <time>2020-02-08T10:58:58Z</time>
      </trkpt>
      <trkpt lat="42.71076" lon="1.65748">
        <ele>1351.6</ele>
        <time>2020-02-08T10:58:59Z</time>
      </trkpt>
      <trkpt lat="42.71076" lon="1.65746">
        <ele>1351.6</ele>
        <time>2020-02-08T10:59:00Z</time>
      </trkpt>
      <trkpt lat="42.71077" lon="1.65745">
        <ele>1351.7</ele>
        <time>2020-02-08T10:59:01Z</time>
      </trkpt>
      <trkpt lat="42.71077" lon="1.65744">
        <ele>1351.7</ele>
        <time>2020-02-08T10:59:02Z</time>
      </trkpt>
      <trkpt lat="42.71077" lon="1.65742">
        <ele>1351.8</ele>
        <time>2020-02-08T10:59:03Z</time>
      </trkpt>
      <trkpt lat="42.71077" lon="1.65741">
        <ele>1351.9</ele>
        <time>2020-02-08T10:59:04Z</time>
      </trkpt>
      <trkpt lat="42.71077" lon="1.6574">
        <ele>1351.9</ele>
        <time>2020-02-08T10:59:05Z</time>
      </trkpt>
      <trkpt lat="42.71077" lon="1.65739">
        <ele>1352</ele>
        <time>2020-02-08T10:59:06Z</time>
      </trkpt>
      <trkpt lat="42.71078" lon="1.65737">
        <ele>1352</ele>
        <time>2020-02-08T10:59:07Z</time>
      </trkpt>
      <trkpt lat="42.71078" lon="1.65736">
        <ele>1352.1</ele>
        <time>2020-02-08T10:59:08Z</time>
      </trkpt>
      <trkpt lat="42.71078" lon="1.65735">
        <ele>1352.1</ele>
        <time>2020-02-08T10:59:09Z</time>
      </trkpt>
      <trkpt lat="42.71078" lon="1.65734">
        <ele>1352.2</ele>
        <time>2020-02-08T10:59:10Z</time>
      </trkpt>
      <trkpt lat="42.71078" lon="1.65733">
        <ele>1352.2</ele>
        <time>2020-02-08T10:59:11Z</time>
      </trkpt>
      <trkpt lat="42.71078" lon="1.65733">
        <ele>1352.2</ele>
        <time>2020-02-08T10:59:12Z</time>
      </trkpt>
      <trkpt lat="42.71078" lon="1.65732">
        <ele>1352.3</ele>
        <time>2020-02-08T10:59:13Z</time>
      </trkpt>
      <trkpt lat="42.71079" lon="1.65732">
        <ele>1352.3</ele>
        <time>2020-02-08T10:59:14Z</time>
      </trkpt>
      <trkpt lat="42.71079" lon="1.65731">
        <ele>1352.3</ele>
        <time>2020-02-08T10:59:15Z</time>
      </trkpt>
      <trkpt lat="42.71079" lon="1.6573">
        <ele>1352.3</ele>
        <time>2020-02-08T10:59:16Z</time>
      </trkpt>
      <trkpt lat="42.71079" lon="1.6573">
        <ele>1352.4</ele>
        <time>2020-02-08T10:59:17Z</time>
      </trkpt>
      <trkpt lat="42.71079" lon="1.65729">
        <ele>1352.4</ele>
        <time>2020-02-08T10:59:18Z</time>
      </trkpt>
      <trkpt lat="42.71079" lon="1.65728">
        <ele>1352.4</ele>
        <time>2020-02-08T10:59:19Z</time>
      </trkpt>
      <trkpt lat="42.71079" lon="1.65728">
        <ele>1352.5</ele>
        <time>2020-02-08T10:59:20Z</time>
      </trkpt>
      <trkpt lat="42.71079" lon="1.65727">
        <ele>1352.5</ele>
        <time>2020-02-08T10:59:21Z</time>
      </trkpt>
      <trkpt lat="42.7108" lon="1.65726">
        <ele>1352.5</ele>
        <time>2020-02-08T10:59:22Z</time>
      </trkpt>
      <trkpt lat="42.7108" lon="1.65726">
        <ele>1352.6</ele>
        <time>2020-02-08T10:59:23Z</time>
      </trkpt>
      <trkpt lat="42.7108" lon="1.65725">
        <ele>1352.6</ele>
        <time>2020-02-08T10:59:24Z</time>
      </trkpt>
      <trkpt lat="42.7108" lon="1.65725">
        <ele>1352.6</ele>
        <time>2020-02-08T10:59:25Z</time>
      </trkpt>
      <trkpt lat="42.7108" lon="1.65724">
        <ele>1352.6</ele>
        <time>2020-02-08T10:59:26Z</time>
      </trkpt>
      <trkpt lat="42.7108" lon="1.65723">
        <ele>1352.7</ele>
        <time>2020-02-08T10:59:27Z</time>
      </trkpt>
      <trkpt lat="42.7108" lon="1.65723">
        <ele>1352.7</ele>
        <time>2020-02-08T10:59:28Z</time>
      </trkpt>
      <trkpt lat="42.7108" lon="1.65722">
        <ele>1352.7</ele>
        <time>2020-02-08T10:59:29Z</time>
      </trkpt>
      <trkpt lat="42.71081" lon="1.65721">
        <ele>1352.8</ele>
        <time>2020-02-08T10:59:30Z</time>
      </trkpt>
      <trkpt lat="42.71081" lon="1.65719">
        <ele>1352.8</ele>
        <time>2020-02-08T10:59:31Z</time>
      </trkpt>
      <trkpt lat="42.71081" lon="1.65718">
        <ele>1352.9</ele>
        <time>2020-02-08T10:59:32Z</time>
      </trkpt>
      <trkpt lat="42.71081" lon="1.65716">
        <ele>1353</ele>
        <time>2020-02-08T10:59:33Z</time>
      </trkpt>
      <trkpt lat="42.71081" lon="1.65715">
        <ele>1353</ele>
        <time>2020-02-08T10:59:34Z</time>
      </trkpt>
      <trkpt lat="42.71081" lon="1.65714">
        <ele>1353.1</ele>
        <time>2020-02-08T10:59:35Z</time>
      </trkpt>
      <trkpt lat="42.71082" lon="1.65712">
        <ele>1353.2</ele>
        <time>2020-02-08T10:59:36Z</time>
      </trkpt>
      <trkpt lat="42.71082" lon="1.65711">
        <ele>1353.3</ele>
        <time>2020-02-08T10:59:37Z</time>
      </trkpt>
      <trkpt lat="42.71082" lon="1.65709">
        <ele>1353.3</ele>
        <time>2020-02-08T10:59:38Z</time>
      </trkpt>
      <trkpt lat="42.71082" lon="1.65708">
        <ele>1353.4</ele>
        <time>2020-02-08T10:59:39Z</time>
      </trkpt>
      <trkpt lat="42.71082" lon="1.65707">
        <ele>1353.5</ele>
        <time>2020-02-08T10:59:40Z</time>
      </trkpt>
      <trkpt lat="42.71082" lon="1.65705">
        <ele>1353.5</ele>
        <time>2020-02-08T10:59:41Z</time>
      </trkpt>
      <trkpt lat="42.71082" lon="1.65704">
        <ele>1353.6</ele>
        <time>2020-02-08T10:59:42Z</time>
      </trkpt>
      <trkpt lat="42.71082" lon="1.65703">
        <ele>1353.7</ele>
        <time>2020-02-08T10:59:43Z</time>
      </trkpt>
      <trkpt lat="42.71082" lon="1.65701">
        <ele>1353.8</ele>
        <time>2020-02-08T10:59:44Z</time>
      </trkpt>
      <trkpt lat="42.71082" lon="1.657">
        <ele>1353.8</ele>
        <time>2020-02-08T10:59:45Z</time>
      </trkpt>
      <trkpt lat="42.71082" lon="1.65699">
        <ele>1353.9</ele>
        <time>2020-02-08T10:59:46Z</time>
      </trkpt>
      <trkpt lat="42.71082" lon="1.65697">
        <ele>1354</ele>
        <time>2020-02-08T10:59:47Z</time>
      </trkpt>
      <trkpt lat="42.71082" lon="1.65696">
        <ele>1354</ele>
        <time>2020-02-08T10:59:48Z</time>
      </trkpt>
      <trkpt lat="42.71082" lon="1.65695">
        <ele>1354.1</ele>
        <time>2020-02-08T10:59:49Z</time>
      </trkpt>
      <trkpt lat="42.71083" lon="1.65695">
        <ele>1354.2</ele>
        <time>2020-02-08T10:59:50Z</time>
      </trkpt>
      <trkpt lat="42.71083" lon="1.65696">
        <ele>1354.2</ele>
        <time>2020-02-08T10:59:51Z</time>
      </trkpt>
      <trkpt lat="42.71083" lon="1.65696">
        <ele>1354.2</ele>
        <time>2020-02-08T10:59:52Z</time>
      </trkpt>
      <trkpt lat="42.71084" lon="1.65697">
        <ele>1354.3</ele>
        <time>2020-02-08T10:59:53Z</time>
      </trkpt>
      <trkpt lat="42.71084" lon="1.65697">
        <ele>1354.3</ele>
        <time>2020-02-08T10:59:54Z</time>
      </trkpt>
      <trkpt lat="42.71084" lon="1.65698">
        <ele>1354.3</ele>
        <time>2020-02-08T10:59:55Z</time>
      </trkpt>
      <trkpt lat="42.71085" lon="1.65698">
        <ele>1354.4</ele>
        <time>2020-02-08T10:59:56Z</time>
      </trkpt>
      <trkpt lat="42.71085" lon="1.65699">
        <ele>1354.4</ele>
        <time>2020-02-08T10:59:57Z</time>
      </trkpt>
      <trkpt lat="42.71085" lon="1.65699">
        <ele>1354.4</ele>
        <time>2020-02-08T10:59:58Z</time>
      </trkpt>
      <trkpt lat="42.71086" lon="1.65699">
        <ele>1354.5</ele>
        <time>2020-02-08T10:59:59Z</time>
      </trkpt>
      <trkpt lat="42.71086" lon="1.657">
        <ele>1354.5</ele>
        <time>2020-02-08T11:00:00Z</time>
      </trkpt>
      <trkpt lat="42.71086" lon="1.657">
        <ele>1354.5</ele>
        <time>2020-02-08T11:00:01Z</time>
      </trkpt>
      <trkpt lat="42.71087" lon="1.65701">
        <ele>1354.6</ele>
        <time>2020-02-08T11:00:02Z</time>
      </trkpt>
      <trkpt lat="42.71087" lon="1.65701">
        <ele>1354.6</ele>
        <time>2020-02-08T11:00:03Z</time>
      </trkpt>
      <trkpt lat="42.71087" lon="1.65702">
        <ele>1354.7</ele>
        <time>2020-02-08T11:00:04Z</time>
      </trkpt>
      <trkpt lat="42.71088" lon="1.65702">
        <ele>1354.7</ele>
        <time>2020-02-08T11:00:05Z</time>
      </trkpt>
      <trkpt lat="42.71088" lon="1.65703">
        <ele>1354.7</ele>
        <time>2020-02-08T11:00:06Z</time>
      </trkpt>
      <trkpt lat="42.71088" lon="1.65703">
        <ele>1354.8</ele>
        <time>2020-02-08T11:00:07Z</time>
      </trkpt>
      <trkpt lat="42.71089" lon="1.65704">
        <ele>1354.8</ele>
        <time>2020-02-08T11:00:08Z</time>
      </trkpt>
      <trkpt lat="42.71089" lon="1.65704">
        <ele>1354.8</ele>
        <time>2020-02-08T11:00:09Z</time>
      </trkpt>
      <trkpt lat="42.71089" lon="1.65704">
        <ele>1354.9</ele>
        <time>2020-02-08T11:00:10Z</time>
      </trkpt>
      <trkpt lat="42.71089" lon="1.65703">
        <ele>1354.9</ele>
        <time>2020-02-08T11:00:11Z</time>
      </trkpt>
      <trkpt lat="42.71089" lon="1.65703">
        <ele>1354.9</ele>
        <time>2020-02-08T11:00:12Z</time>
      </trkpt>
      <trkpt lat="42.71089" lon="1.65703">
        <ele>1354.9</ele>
        <time>2020-02-08T11:00:13Z</time>
      </trkpt>
      <trkpt lat="42.71089" lon="1.65702">
        <ele>1354.9</ele>
        <time>2020-02-08T11:00:14Z</time>
      </trkpt>
      <trkpt lat="42.71089" lon="1.65702">
        <ele>1355</ele>
        <time>2020-02-08T11:00:15Z</time>
      </trkpt>
      <trkpt lat="42.71088" lon="1.65701">
        <ele>1355</ele>
        <time>2020-02-08T11:00:16Z</time>
      </trkpt>
      <trkpt lat="42.71088" lon="1.65701">
        <ele>1355</ele>
        <time>2020-02-08T11:00:17Z</time>
      </trkpt>
      <trkpt lat="42.71088" lon="1.65701">
        <ele>1355</ele>
        <time>2020-02-08T11:00:18Z</time>
      </trkpt>
      <trkpt lat="42.71088" lon="1.657">
        <ele>1355.1</ele>
        <time>2020-02-08T11:00:19Z</time>
      </trkpt>
      <trkpt lat="42.71088" lon="1.657">
        <ele>1355.1</ele>
        <time>2020-02-08T11:00:20Z</time>
      </trkpt>
      <trkpt lat="42.71088" lon="1.65699">
        <ele>1355.1</ele>
        <time>2020-02-08T11:00:21Z</time>
      </trkpt>
      <trkpt lat="42.71088" lon="1.65699">
        <ele>1355.1</ele>
        <time>2020-02-08T11:00:22Z</time>
      </trkpt>
      <trkpt lat="42.71088" lon="1.65699">
        <ele>1355.1</ele>
        <time>2020-02-08T11:00:23Z</time>
      </trkpt>
      <trkpt lat="42.71088" lon="1.65698">
        <ele>1355.2</ele>
        <time>2020-02-08T11:00:24Z</time>
      </trkpt>
      <trkpt lat="42.71087" lon="1.65698">
        <ele>1355.2</ele>
        <time>2020-02-08T11:00:25Z</time>
      </trkpt>
      <trkpt lat="42.71087" lon="1.65698">
        <ele>1355.2</ele>
        <time>2020-02-08T11:00:26Z</time>
      </trkpt>
      <trkpt lat="42.71087" lon="1.65697">
        <ele>1355.2</ele>
        <time>2020-02-08T11:00:27Z</time>
      </trkpt>
      <trkpt lat="42.71087" lon="1.65697">
        <ele>1355.3</ele>
        <time>2020-02-08T11:00:28Z</time>
      </trkpt>
      <trkpt lat="42.71087" lon="1.65696">
        <ele>1355.3</ele>
        <time>2020-02-08T11:00:29Z</time>
      </trkpt>
      <trkpt lat="42.71087" lon="1.65696">
        <ele>1355.3</ele>
        <time>2020-02-08T11:00:30Z</time>
      </trkpt>
      <trkpt lat="42.71087" lon="1.65696">
        <ele>1355.3</ele>
        <time>2020-02-08T11:00:31Z</time>
      </trkpt>
      <trkpt lat="42.71087" lon="1.65695">
        <ele>1355.3</ele>
        <time>2020-02-08T11:00:32Z</time>
      </trkpt>
      <trkpt lat="42.71087" lon="1.65695">
        <ele>1355.4</ele>
        <time>2020-02-08T11:00:33Z</time>
      </trkpt>
      <trkpt lat="42.71086" lon="1.65694">
        <ele>1355.4</ele>
        <time>2020-02-08T11:00:34Z</time>
      </trkpt>
      <trkpt lat="42.71086" lon="1.65694">
        <ele>1355.4</ele>
        <time>2020-02-08T11:00:35Z</time>
      </trkpt>
      <trkpt lat="42.71086" lon="1.65694">
        <ele>1355.4</ele>
        <time>2020-02-08T11:00:36Z</time>
      </trkpt>
      <trkpt lat="42.71086" lon="1.65693">
        <ele>1355.5</ele>
        <time>2020-02-08T11:00:37Z</time>
      </trkpt>
      <trkpt lat="42.71086" lon="1.65693">
        <ele>1355.5</ele>
        <time>2020-02-08T11:00:38Z</time>
      </trkpt>
      <trkpt lat="42.71086" lon="1.65693">
        <ele>1355.5</ele>
        <time>2020-02-08T11:00:39Z</time>
      </trkpt>
      <trkpt lat="42.71085" lon="1.65694">
        <ele>1355.6</ele>
        <time>2020-02-08T11:00:40Z</time>
      </trkpt>
      <trkpt lat="42.71085" lon="1.65695">
        <ele>1355.6</ele>
        <time>2020-02-08T11:00:41Z</time>
      </trkpt>
      <trkpt lat="42.71084" lon="1.65696">
        <ele>1355.7</ele>
        <time>2020-02-08T11:00:42Z</time>
      </trkpt>
      <trkpt lat="42.71084" lon="1.65697">
        <ele>1355.8</ele>
        <time>2020-02-08T11:00:43Z</time>
      </trkpt>
      <trkpt lat="42.71083" lon="1.65698">
        <ele>1355.9</ele>
        <time>2020-02-08T11:00:44Z</time>
      </trkpt>
      <trkpt lat="42.71083" lon="1.65699">
        <ele>1355.9</ele>
        <time>2020-02-08T11:00:45Z</time>
      </trkpt>
      <trkpt lat="42.71082" lon="1.657">
        <ele>1356</ele>
        <time>2020-02-08T11:00:46Z</time>
      </trkpt>
      <trkpt lat="42.71081" lon="1.65702">
        <ele>1356.1</ele>
        <time>2020-02-08T11:00:47Z</time>
      </trkpt>
      <trkpt lat="42.71081" lon="1.65703">
        <ele>1356.2</ele>
        <time>2020-02-08T11:00:48Z</time>
      </trkpt>
      <trkpt lat="42.7108" lon="1.65704">
        <ele>1356.2</ele>
        <time>2020-02-08T11:00:49Z</time>
      </trkpt>
      <trkpt lat="42.71081" lon="1.65704">
        <ele>1356.3</ele>
        <time>2020-02-08T11:00:50Z</time>
      </trkpt>
      <trkpt lat="42.71081" lon="1.65705">
        <ele>1356.3</ele>
        <time>2020-02-08T11:00:51Z</time>
      </trkpt>
      <trkpt lat="42.71082" lon="1.65705">
        <ele>1356.3</ele>
        <time>2020-02-08T11:00:52Z</time>
      </trkpt>
      <trkpt lat="42.71082" lon="1.65705">
        <ele>1356.4</ele>
        <time>2020-02-08T11:00:53Z</time>
      </trkpt>
      <trkpt lat="42.71082" lon="1.65706">
        <ele>1356.4</ele>
        <time>2020-02-08T11:00:54Z</time>
      </trkpt>
      <trkpt lat="42.71083" lon="1.65706">
        <ele>1356.5</ele>
        <time>2020-02-08T11:00:55Z</time>
      </trkpt>
      <trkpt lat="42.71083" lon="1.65707">
        <ele>1356.5</ele>
        <time>2020-02-08T11:00:56Z</time>
      </trkpt>
      <trkpt lat="42.71084" lon="1.65707">
        <ele>1356.5</ele>
        <time>2020-02-08T11:00:57Z</time>
      </trkpt>
      <trkpt lat="42.71084" lon="1.65707">
        <ele>1356.6</ele>
        <time>2020-02-08T11:00:58Z</time>
      </trkpt>
      <trkpt lat="42.71085" lon="1.65708">
        <ele>1356.6</ele>
        <time>2020-02-08T11:00:59Z</time>
      </trkpt>
      <trkpt lat="42.71085" lon="1.65708">
        <ele>1356.7</ele>
        <time>2020-02-08T11:01:00Z</time>
      </trkpt>
      <trkpt lat="42.71085" lon="1.65709">
        <ele>1356.7</ele>
        <time>2020-02-08T11:01:01Z</time>
      </trkpt>
      <trkpt lat="42.71086" lon="1.65709">
        <ele>1356.7</ele>
        <time>2020-02-08T11:01:02Z</time>
      </trkpt>
      <trkpt lat="42.71086" lon="1.65709">
        <ele>1356.8</ele>
        <time>2020-02-08T11:01:03Z</time>
      </trkpt>
      <trkpt lat="42.71087" lon="1.6571">
        <ele>1356.8</ele>
        <time>2020-02-08T11:01:04Z</time>
      </trkpt>
      <trkpt lat="42.71087" lon="1.6571">
        <ele>1356.8</ele>
        <time>2020-02-08T11:01:05Z</time>
      </trkpt>
      <trkpt lat="42.71088" lon="1.65711">
        <ele>1356.9</ele>
        <time>2020-02-08T11:01:06Z</time>
      </trkpt>
      <trkpt lat="42.71088" lon="1.65711">
        <ele>1356.9</ele>
        <time>2020-02-08T11:01:07Z</time>
      </trkpt>
      <trkpt lat="42.71088" lon="1.65711">
        <ele>1357</ele>
        <time>2020-02-08T11:01:08Z</time>
      </trkpt>
      <trkpt lat="42.71089" lon="1.65712">
        <ele>1357</ele>
        <time>2020-02-08T11:01:09Z</time>
      </trkpt>
      <trkpt lat="42.71089" lon="1.65712">
        <ele>1357</ele>
        <time>2020-02-08T11:01:10Z</time>
      </trkpt>
      <trkpt lat="42.7109" lon="1.65712">
        <ele>1357.1</ele>
        <time>2020-02-08T11:01:11Z</time>
      </trkpt>
      <trkpt lat="42.71091" lon="1.65712">
        <ele>1357.1</ele>
        <time>2020-02-08T11:01:12Z</time>
      </trkpt>
      <trkpt lat="42.71091" lon="1.65712">
        <ele>1357.2</ele>
        <time>2020-02-08T11:01:13Z</time>
      </trkpt>
      <trkpt lat="42.71092" lon="1.65712">
        <ele>1357.2</ele>
        <time>2020-02-08T11:01:14Z</time>
      </trkpt>
      <trkpt lat="42.71093" lon="1.65712">
        <ele>1357.3</ele>
        <time>2020-02-08T11:01:15Z</time>
      </trkpt>
      <trkpt lat="42.71093" lon="1.65712">
        <ele>1357.3</ele>
        <time>2020-02-08T11:01:16Z</time>
      </trkpt>
      <trkpt lat="42.71094" lon="1.65711">
        <ele>1357.4</ele>
        <time>2020-02-08T11:01:17Z</time>
      </trkpt>
      <trkpt lat="42.71095" lon="1.65711">
        <ele>1357.4</ele>
        <time>2020-02-08T11:01:18Z</time>
      </trkpt>
      <trkpt lat="42.71095" lon="1.65711">
        <ele>1357.5</ele>
        <time>2020-02-08T11:01:19Z</time>
      </trkpt>
      <trkpt lat="42.71096" lon="1.65711">
        <ele>1357.5</ele>
        <time>2020-02-08T11:01:20Z</time>
      </trkpt>
      <trkpt lat="42.71096" lon="1.65711">
        <ele>1357.6</ele>
        <time>2020-02-08T11:01:21Z</time>
      </trkpt>
      <trkpt lat="42.71097" lon="1.65711">
        <ele>1357.6</ele>
        <time>2020-02-08T11:01:22Z</time>
      </trkpt>
      <trkpt lat="42.71098" lon="1.65711">
        <ele>1357.7</ele>
        <time>2020-02-08T11:01:23Z</time>
      </trkpt>
      <trkpt lat="42.71098" lon="1.65711">
        <ele>1357.7</ele>
        <time>2020-02-08T11:01:24Z</time>
      </trkpt>
      <trkpt lat="42.71099" lon="1.65711">
        <ele>1357.8</ele>
        <time>2020-02-08T11:01:25Z</time>
      </trkpt>
      <trkpt lat="42.711" lon="1.65711">
        <ele>1357.8</ele>
        <time>2020-02-08T11:01:26Z</time>
      </trkpt>
      <trkpt lat="42.711" lon="1.65711">
        <ele>1357.9</ele>
        <time>2020-02-08T11:01:27Z</time>
      </trkpt>
      <trkpt lat="42.71101" lon="1.65711">
        <ele>1357.9</ele>
        <time>2020-02-08T11:01:28Z</time>
      </trkpt>
      <trkpt lat="42.71102" lon="1.65711">
        <ele>1357.9</ele>
        <time>2020-02-08T11:01:29Z</time>
      </trkpt>
      <trkpt lat="42.71102" lon="1.65711">
        <ele>1358</ele>
        <time>2020-02-08T11:01:30Z</time>
      </trkpt>
      <trkpt lat="42.71103" lon="1.65711">
        <ele>1358</ele>
        <time>2020-02-08T11:01:31Z</time>
      </trkpt>
      <trkpt lat="42.71103" lon="1.65711">
        <ele>1358.1</ele>
        <time>2020-02-08T11:01:32Z</time>
      </trkpt>
      <trkpt lat="42.71104" lon="1.65711">
        <ele>1358.1</ele>
        <time>2020-02-08T11:01:33Z</time>
      </trkpt>
      <trkpt lat="42.71105" lon="1.65711">
        <ele>1358.2</ele>
        <time>2020-02-08T11:01:34Z</time>
      </trkpt>
      <trkpt lat="42.71105" lon="1.65711">
        <ele>1358.2</ele>
        <time>2020-02-08T11:01:35Z</time>
      </trkpt>
      <trkpt lat="42.71106" lon="1.65711">
        <ele>1358.3</ele>
        <time>2020-02-08T11:01:36Z</time>
      </trkpt>
      <trkpt lat="42.71107" lon="1.6571">
        <ele>1358.3</ele>
        <time>2020-02-08T11:01:37Z</time>
      </trkpt>
      <trkpt lat="42.71107" lon="1.6571">
        <ele>1358.4</ele>
        <time>2020-02-08T11:01:38Z</time>
      </trkpt>
      <trkpt lat="42.71108" lon="1.6571">
        <ele>1358.4</ele>
        <time>2020-02-08T11:01:39Z</time>
      </trkpt>
      <trkpt lat="42.71107" lon="1.65709">
        <ele>1358.5</ele>
        <time>2020-02-08T11:01:40Z</time>
      </trkpt>
      <trkpt lat="42.71106" lon="1.65708">
        <ele>1358.6</ele>
        <time>2020-02-08T11:01:41Z</time>
      </trkpt>
      <trkpt lat="42.71106" lon="1.65707">
        <ele>1358.7</ele>
        <time>2020-02-08T11:01:42Z</time>
      </trkpt>
      <trkpt lat="42.71105" lon="1.65707">
        <ele>1358.7</ele>
        <time>2020-02-08T11:01:43Z</time>
      </trkpt>
      <trkpt lat="42.71104" lon="1.65706">
        <ele>1358.8</ele>
        <time>2020-02-08T11:01:44Z</time>
      </trkpt>
      <trkpt lat="42.71103" lon="1.65705">
        <ele>1358.9</ele>
        <time>2020-02-08T11:01:45Z</time>
      </trkpt>
      <trkpt lat="42.71102" lon="1.65704">
        <ele>1359</ele>
        <time>2020-02-08T11:01:46Z</time>
      </trkpt>
      <trkpt lat="42.71102" lon="1.65703">
        <ele>1359</ele>
        <time>2020-02-08T11:01:47Z</time>
      </trkpt>
      <trkpt lat="42.71101" lon="1.65702">
        <ele>1359.1</ele>
        <time>2020-02-08T11:01:48Z</time>
      </trkpt>
      <trkpt lat="42.711" lon="1.65701">
        <ele>1359.2</ele>
        <time>2020-02-08T11:01:49Z</time>
      </trkpt>
      <trkpt lat="42.71099" lon="1.65702">
        <ele>1359.3</ele>
        <time>2020-02-08T11:01:50Z</time>
      </trkpt>
      <trkpt lat="42.71098" lon="1.65703">
        <ele>1359.4</ele>
        <time>2020-02-08T11:01:51Z</time>
      </trkpt>
      <trkpt lat="42.71097" lon="1.65704">
        <ele>1359.4</ele>
        <time>2020-02-08T11:01:52Z</time>
      </trkpt>
      <trkpt lat="42.71096" lon="1.65705">
        <ele>1359.5</ele>
        <time>2020-02-08T11:01:53Z</time>
      </trkpt>
      <trkpt lat="42.71095" lon="1.65706">
        <ele>1359.6</ele>
        <time>2020-02-08T11:01:54Z</time>
      </trkpt>
      <trkpt lat="42.71094" lon="1.65706">
        <ele>1359.9</ele>
        <time>2020-02-08T11:01:55Z</time>
      </trkpt>
      <trkpt lat="42.71093" lon="1.65707">
        <ele>1360</ele>
        <time>2020-02-08T11:01:56Z</time>
      </trkpt>
      <trkpt lat="42.71092" lon="1.65708">
        <ele>1360.3</ele>
        <time>2020-02-08T11:01:57Z</time>
      </trkpt>
      <trkpt lat="42.71091" lon="1.65709">
        <ele>1360.5</ele>
        <time>2020-02-08T11:01:58Z</time>
      </trkpt>
      <trkpt lat="42.7109" lon="1.6571">
        <ele>1360.7</ele>
        <time>2020-02-08T11:01:59Z</time>
      </trkpt>
      <trkpt lat="42.7109" lon="1.6571">
        <ele>1360.8</ele>
        <time>2020-02-08T11:02:00Z</time>
      </trkpt>
      <trkpt lat="42.7109" lon="1.6571">
        <ele>1361</ele>
        <time>2020-02-08T11:02:01Z</time>
      </trkpt>
      <trkpt lat="42.7109" lon="1.6571">
        <ele>1361.2</ele>
        <time>2020-02-08T11:02:02Z</time>
      </trkpt>
      <trkpt lat="42.7109" lon="1.6571">
        <ele>1361.3</ele>
        <time>2020-02-08T11:02:03Z</time>
      </trkpt>
      <trkpt lat="42.7109" lon="1.6571">
        <ele>1361.5</ele>
        <time>2020-02-08T11:02:04Z</time>
      </trkpt>
      <trkpt lat="42.7109" lon="1.6571">
        <ele>1361.6</ele>
        <time>2020-02-08T11:02:05Z</time>
      </trkpt>
      <trkpt lat="42.7109" lon="1.6571">
        <ele>1361.8</ele>
        <time>2020-02-08T11:02:06Z</time>
      </trkpt>
      <trkpt lat="42.7109" lon="1.6571">
        <ele>1361.9</ele>
        <time>2020-02-08T11:02:07Z</time>
      </trkpt>
      <trkpt lat="42.7109" lon="1.6571">
        <ele>1362.1</ele>
        <time>2020-02-08T11:02:08Z</time>
      </trkpt>
      <trkpt lat="42.7109" lon="1.6571">
        <ele>1362.3</ele>
        <time>2020-02-08T11:02:09Z</time>
      </trkpt>
      <trkpt lat="42.71091" lon="1.6571">
        <ele>1362.5</ele>
        <time>2020-02-08T11:02:10Z</time>
      </trkpt>
      <trkpt lat="42.71092" lon="1.6571">
        <ele>1362.7</ele>
        <time>2020-02-08T11:02:11Z</time>
      </trkpt>
      <trkpt lat="42.71093" lon="1.6571">
        <ele>1363</ele>
        <time>2020-02-08T11:02:12Z</time>
      </trkpt>
      <trkpt lat="42.71094" lon="1.6571">
        <ele>1363.2</ele>
        <time>2020-02-08T11:02:13Z</time>
      </trkpt>
      <trkpt lat="42.71095" lon="1.6571">
        <ele>1363.4</ele>
        <time>2020-02-08T11:02:14Z</time>
      </trkpt>
      <trkpt lat="42.71096" lon="1.6571">
        <ele>1363.7</ele>
        <time>2020-02-08T11:02:15Z</time>
      </trkpt>
      <trkpt lat="42.71097" lon="1.6571">
        <ele>1363.9</ele>
        <time>2020-02-08T11:02:16Z</time>
      </trkpt>
      <trkpt lat="42.71098" lon="1.65709">
        <ele>1364.2</ele>
        <time>2020-02-08T11:02:17Z</time>
      </trkpt>
      <trkpt lat="42.71099" lon="1.65709">
        <ele>1364.4</ele>
        <time>2020-02-08T11:02:18Z</time>
      </trkpt>
      <trkpt lat="42.711" lon="1.65709">
        <ele>1364.8</ele>
        <time>2020-02-08T11:02:19Z</time>
      </trkpt>
      <trkpt lat="42.71099" lon="1.65709">
        <ele>1365.1</ele>
        <time>2020-02-08T11:02:20Z</time>
      </trkpt>
      <trkpt lat="42.71098" lon="1.65708">
        <ele>1365.3</ele>
        <time>2020-02-08T11:02:21Z</time>
      </trkpt>
      <trkpt lat="42.71097" lon="1.65707">
        <ele>1365.6</ele>
        <time>2020-02-08T11:02:22Z</time>
      </trkpt>
      <trkpt lat="42.71096" lon="1.65707">
        <ele>1365.9</ele>
        <time>2020-02-08T11:02:23Z</time>
      </trkpt>
      <trkpt lat="42.71095" lon="1.65706">
        <ele>1366.2</ele>
        <time>2020-02-08T11:02:24Z</time>
      </trkpt>
      <trkpt lat="42.71095" lon="1.65705">
        <ele>1366.5</ele>
        <time>2020-02-08T11:02:25Z</time>
      </trkpt>
      <trkpt lat="42.71094" lon="1.65705">
        <ele>1366.8</ele>
        <time>2020-02-08T11:02:26Z</time>
      </trkpt>
      <trkpt lat="42.71093" lon="1.65704">
        <ele>1367.1</ele>
        <time>2020-02-08T11:02:27Z</time>
      </trkpt>
      <trkpt lat="42.71092" lon="1.65703">
        <ele>1367.4</ele>
        <time>2020-02-08T11:02:28Z</time>
      </trkpt>
      <trkpt lat="42.71091" lon="1.65703">
        <ele>1367.7</ele>
        <time>2020-02-08T11:02:29Z</time>
      </trkpt>
      <trkpt lat="42.71091" lon="1.65703">
        <ele>1367.9</ele>
        <time>2020-02-08T11:02:30Z</time>
      </trkpt>
      <trkpt lat="42.71091" lon="1.65703">
        <ele>1368.2</ele>
        <time>2020-02-08T11:02:31Z</time>
      </trkpt>
      <trkpt lat="42.71091" lon="1.65703">
        <ele>1368.4</ele>
        <time>2020-02-08T11:02:32Z</time>
      </trkpt>
      <trkpt lat="42.71091" lon="1.65703">
        <ele>1368.5</ele>
        <time>2020-02-08T11:02:33Z</time>
      </trkpt>
      <trkpt lat="42.71091" lon="1.65703">
        <ele>1368.7</ele>
        <time>2020-02-08T11:02:34Z</time>
      </trkpt>
      <trkpt lat="42.71091" lon="1.65703">
        <ele>1369</ele>
        <time>2020-02-08T11:02:35Z</time>
      </trkpt>
      <trkpt lat="42.71091" lon="1.65704">
        <ele>1369.2</ele>
        <time>2020-02-08T11:02:36Z</time>
      </trkpt>
      <trkpt lat="42.71091" lon="1.65704">
        <ele>1369.4</ele>
        <time>2020-02-08T11:02:37Z</time>
      </trkpt>
      <trkpt lat="42.71091" lon="1.65704">
        <ele>1369.5</ele>
        <time>2020-02-08T11:02:38Z</time>
      </trkpt>
      <trkpt lat="42.71091" lon="1.65704">
        <ele>1369.8</ele>
        <time>2020-02-08T11:02:39Z</time>
      </trkpt>
      <trkpt lat="42.71091" lon="1.65704">
        <ele>1370</ele>
        <time>2020-02-08T11:02:40Z</time>
      </trkpt>
      <trkpt lat="42.71091" lon="1.65704">
        <ele>1370.2</ele>
        <time>2020-02-08T11:02:41Z</time>
      </trkpt>
      <trkpt lat="42.71091" lon="1.65704">
        <ele>1370.4</ele>
        <time>2020-02-08T11:02:42Z</time>
      </trkpt>
      <trkpt lat="42.71091" lon="1.65704">
        <ele>1370.6</ele>
        <time>2020-02-08T11:02:43Z</time>
      </trkpt>
      <trkpt lat="42.71091" lon="1.65704">
        <ele>1370.8</ele>
        <time>2020-02-08T11:02:44Z</time>
      </trkpt>
      <trkpt lat="42.71091" lon="1.65705">
        <ele>1371</ele>
        <time>2020-02-08T11:02:45Z</time>
      </trkpt>
      <trkpt lat="42.71091" lon="1.65705">
        <ele>1371.2</ele>
        <time>2020-02-08T11:02:46Z</time>
      </trkpt>
      <trkpt lat="42.71091" lon="1.65705">
        <ele>1371.4</ele>
        <time>2020-02-08T11:02:47Z</time>
      </trkpt>
      <trkpt lat="42.71091" lon="1.65705">
        <ele>1371.6</ele>
        <time>2020-02-08T11:02:48Z</time>
      </trkpt>
      <trkpt lat="42.71091" lon="1.65705">
        <ele>1371.8</ele>
        <time>2020-02-08T11:02:49Z</time>
      </trkpt>
      <trkpt lat="42.71091" lon="1.65705">
        <ele>1372</ele>
        <time>2020-02-08T11:02:50Z</time>
      </trkpt>
      <trkpt lat="42.71091" lon="1.65705">
        <ele>1372.3</ele>
        <time>2020-02-08T11:02:51Z</time>
      </trkpt>
      <trkpt lat="42.71091" lon="1.65705">
        <ele>1372.5</ele>
        <time>2020-02-08T11:02:52Z</time>
      </trkpt>
      <trkpt lat="42.71091" lon="1.65705">
        <ele>1372.7</ele>
        <time>2020-02-08T11:02:53Z</time>
      </trkpt>
      <trkpt lat="42.71091" lon="1.65706">
        <ele>1372.9</ele>
        <time>2020-02-08T11:02:54Z</time>
      </trkpt>
      <trkpt lat="42.71091" lon="1.65706">
        <ele>1373.1</ele>
        <time>2020-02-08T11:02:55Z</time>
      </trkpt>
      <trkpt lat="42.71091" lon="1.65706">
        <ele>1373.3</ele>
        <time>2020-02-08T11:02:56Z</time>
      </trkpt>
      <trkpt lat="42.71091" lon="1.65706">
        <ele>1373.5</ele>
        <time>2020-02-08T11:02:57Z</time>
      </trkpt>
      <trkpt lat="42.71091" lon="1.65706">
        <ele>1373.7</ele>
        <time>2020-02-08T11:02:58Z</time>
      </trkpt>
      <trkpt lat="42.71091" lon="1.65706">
        <ele>1373.9</ele>
        <time>2020-02-08T11:02:59Z</time>
      </trkpt>
      <trkpt lat="42.71091" lon="1.65706">
        <ele>1374.2</ele>
        <time>2020-02-08T11:03:00Z</time>
      </trkpt>
      <trkpt lat="42.71091" lon="1.65706">
        <ele>1374.4</ele>
        <time>2020-02-08T11:03:01Z</time>
      </trkpt>
      <trkpt lat="42.71091" lon="1.65706">
        <ele>1374.6</ele>
        <time>2020-02-08T11:03:02Z</time>
      </trkpt>
      <trkpt lat="42.71091" lon="1.65707">
        <ele>1374.8</ele>
        <time>2020-02-08T11:03:03Z</time>
      </trkpt>
      <trkpt lat="42.71091" lon="1.65707">
        <ele>1375</ele>
        <time>2020-02-08T11:03:04Z</time>
      </trkpt>
      <trkpt lat="42.71091" lon="1.65707">
        <ele>1375.3</ele>
        <time>2020-02-08T11:03:05Z</time>
      </trkpt>
      <trkpt lat="42.71091" lon="1.65707">
        <ele>1375.5</ele>
        <time>2020-02-08T11:03:06Z</time>
      </trkpt>
      <trkpt lat="42.71091" lon="1.65707">
        <ele>1375.7</ele>
        <time>2020-02-08T11:03:07Z</time>
      </trkpt>
      <trkpt lat="42.71091" lon="1.65707">
        <ele>1375.9</ele>
        <time>2020-02-08T11:03:08Z</time>
      </trkpt>
      <trkpt lat="42.71091" lon="1.65707">
        <ele>1376.1</ele>
        <time>2020-02-08T11:03:09Z</time>
      </trkpt>
      <trkpt lat="42.71091" lon="1.65707">
        <ele>1376.3</ele>
        <time>2020-02-08T11:03:10Z</time>
      </trkpt>
      <trkpt lat="42.71091" lon="1.65707">
        <ele>1376.5</ele>
        <time>2020-02-08T11:03:11Z</time>
      </trkpt>
      <trkpt lat="42.71091" lon="1.65708">
        <ele>1376.7</ele>
        <time>2020-02-08T11:03:12Z</time>
      </trkpt>
      <trkpt lat="42.71091" lon="1.65708">
        <ele>1377</ele>
        <time>2020-02-08T11:03:13Z</time>
      </trkpt>
      <trkpt lat="42.71091" lon="1.65708">
        <ele>1377.2</ele>
        <time>2020-02-08T11:03:14Z</time>
      </trkpt>
      <trkpt lat="42.71091" lon="1.65708">
        <ele>1377.4</ele>
        <time>2020-02-08T11:03:15Z</time>
      </trkpt>
      <trkpt lat="42.71091" lon="1.65708">
        <ele>1377.6</ele>
        <time>2020-02-08T11:03:16Z</time>
      </trkpt>
      <trkpt lat="42.71091" lon="1.65708">
        <ele>1377.9</ele>
        <time>2020-02-08T11:03:17Z</time>
      </trkpt>
      <trkpt lat="42.71091" lon="1.65708">
        <ele>1378.1</ele>
        <time>2020-02-08T11:03:18Z</time>
      </trkpt>
      <trkpt lat="42.71091" lon="1.65708">
        <ele>1378.3</ele>
        <time>2020-02-08T11:03:19Z</time>
      </trkpt>
      <trkpt lat="42.71091" lon="1.65708">
        <ele>1378.5</ele>
        <time>2020-02-08T11:03:20Z</time>
      </trkpt>
      <trkpt lat="42.71091" lon="1.65709">
        <ele>1378.8</ele>
        <time>2020-02-08T11:03:21Z</time>
      </trkpt>
      <trkpt lat="42.71091" lon="1.65709">
        <ele>1379</ele>
        <time>2020-02-08T11:03:22Z</time>
      </trkpt>
      <trkpt lat="42.71091" lon="1.65709">
        <ele>1379.2</ele>
        <time>2020-02-08T11:03:23Z</time>
      </trkpt>
      <trkpt lat="42.71091" lon="1.65709">
        <ele>1379.4</ele>
        <time>2020-02-08T11:03:24Z</time>
      </trkpt>
      <trkpt lat="42.71091" lon="1.65709">
        <ele>1379.6</ele>
        <time>2020-02-08T11:03:25Z</time>
      </trkpt>
      <trkpt lat="42.71091" lon="1.65709">
        <ele>1379.9</ele>
        <time>2020-02-08T11:03:26Z</time>
      </trkpt>
      <trkpt lat="42.71091" lon="1.65709">
        <ele>1380.1</ele>
        <time>2020-02-08T11:03:27Z</time>
      </trkpt>
      <trkpt lat="42.71091" lon="1.65709">
        <ele>1380.3</ele>
        <time>2020-02-08T11:03:28Z</time>
      </trkpt>
      <trkpt lat="42.71091" lon="1.65709">
        <ele>1380.5</ele>
        <time>2020-02-08T11:03:29Z</time>
      </trkpt>
      <trkpt lat="42.71091" lon="1.6571">
        <ele>1380.8</ele>
        <time>2020-02-08T11:03:30Z</time>
      </trkpt>
      <trkpt lat="42.71091" lon="1.6571">
        <ele>1381</ele>
        <time>2020-02-08T11:03:31Z</time>
      </trkpt>
      <trkpt lat="42.71091" lon="1.6571">
        <ele>1381.2</ele>
        <time>2020-02-08T11:03:32Z</time>
      </trkpt>
      <trkpt lat="42.71091" lon="1.6571">
        <ele>1381.4</ele>
        <time>2020-02-08T11:03:33Z</time>
      </trkpt>
      <trkpt lat="42.71092" lon="1.6571">
        <ele>1381.7</ele>
        <time>2020-02-08T11:03:34Z</time>
      </trkpt>
      <trkpt lat="42.71092" lon="1.6571">
        <ele>1381.7</ele>
        <time>2020-02-08T11:03:35Z</time>
      </trkpt>
      <trkpt lat="42.71092" lon="1.6571">
        <ele>1381.7</ele>
        <time>2020-02-08T11:03:36Z</time>
      </trkpt>
      <trkpt lat="42.71092" lon="1.6571">
        <ele>1381.7</ele>
        <time>2020-02-08T11:03:37Z</time>
      </trkpt>
      <trkpt lat="42.71092" lon="1.6571">
        <ele>1381.8</ele>
        <time>2020-02-08T11:03:38Z</time>
      </trkpt>
      <trkpt lat="42.71092" lon="1.65711">
        <ele>1381.8</ele>
        <time>2020-02-08T11:03:39Z</time>
      </trkpt>
      <trkpt lat="42.71092" lon="1.65711">
        <ele>1381.8</ele>
        <time>2020-02-08T11:03:40Z</time>
      </trkpt>
      <trkpt lat="42.71092" lon="1.65711">
        <ele>1381.8</ele>
        <time>2020-02-08T11:03:41Z</time>
      </trkpt>
      <trkpt lat="42.71092" lon="1.65711">
        <ele>1381.8</ele>
        <time>2020-02-08T11:03:42Z</time>
      </trkpt>
      <trkpt lat="42.71092" lon="1.65711">
        <ele>1381.9</ele>
        <time>2020-02-08T11:03:43Z</time>
      </trkpt>
      <trkpt lat="42.71092" lon="1.65711">
        <ele>1381.9</ele>
        <time>2020-02-08T11:03:44Z</time>
      </trkpt>
      <trkpt lat="42.71092" lon="1.65711">
        <ele>1381.9</ele>
        <time>2020-02-08T11:03:45Z</time>
      </trkpt>
      <trkpt lat="42.71092" lon="1.65711">
        <ele>1381.9</ele>
        <time>2020-02-08T11:03:46Z</time>
      </trkpt>
      <trkpt lat="42.71092" lon="1.65711">
        <ele>1382</ele>
        <time>2020-02-08T11:03:47Z</time>
      </trkpt>
      <trkpt lat="42.71092" lon="1.65712">
        <ele>1382</ele>
        <time>2020-02-08T11:03:48Z</time>
      </trkpt>
      <trkpt lat="42.71092" lon="1.65712">
        <ele>1382</ele>
        <time>2020-02-08T11:03:49Z</time>
      </trkpt>
      <trkpt lat="42.71092" lon="1.65712">
        <ele>1382</ele>
        <time>2020-02-08T11:03:50Z</time>
      </trkpt>
      <trkpt lat="42.71092" lon="1.65712">
        <ele>1382</ele>
        <time>2020-02-08T11:03:51Z</time>
      </trkpt>
      <trkpt lat="42.71092" lon="1.65712">
        <ele>1382.1</ele>
        <time>2020-02-08T11:03:52Z</time>
      </trkpt>
      <trkpt lat="42.71092" lon="1.65712">
        <ele>1382.1</ele>
        <time>2020-02-08T11:03:53Z</time>
      </trkpt>
      <trkpt lat="42.71092" lon="1.65712">
        <ele>1382.1</ele>
        <time>2020-02-08T11:03:54Z</time>
      </trkpt>
      <trkpt lat="42.71092" lon="1.65712">
        <ele>1382.2</ele>
        <time>2020-02-08T11:03:55Z</time>
      </trkpt>
      <trkpt lat="42.71092" lon="1.65712">
        <ele>1382.2</ele>
        <time>2020-02-08T11:03:56Z</time>
      </trkpt>
      <trkpt lat="42.71092" lon="1.65713">
        <ele>1382.2</ele>
        <time>2020-02-08T11:03:57Z</time>
      </trkpt>
      <trkpt lat="42.71092" lon="1.65713">
        <ele>1382.2</ele>
        <time>2020-02-08T11:03:58Z</time>
      </trkpt>
      <trkpt lat="42.71092" lon="1.65713">
        <ele>1382.2</ele>
        <time>2020-02-08T11:03:59Z</time>
      </trkpt>
      <trkpt lat="42.71092" lon="1.65713">
        <ele>1382.3</ele>
        <time>2020-02-08T11:04:00Z</time>
      </trkpt>
      <trkpt lat="42.71092" lon="1.65713">
        <ele>1382.3</ele>
        <time>2020-02-08T11:04:01Z</time>
      </trkpt>
      <trkpt lat="42.71092" lon="1.65713">
        <ele>1382.3</ele>
        <time>2020-02-08T11:04:02Z</time>
      </trkpt>
      <trkpt lat="42.71092" lon="1.65713">
        <ele>1382.3</ele>
        <time>2020-02-08T11:04:03Z</time>
      </trkpt>
      <trkpt lat="42.71092" lon="1.65713">
        <ele>1382.4</ele>
        <time>2020-02-08T11:04:04Z</time>
      </trkpt>
      <trkpt lat="42.71092" lon="1.65713">
        <ele>1382.4</ele>
        <time>2020-02-08T11:04:05Z</time>
      </trkpt>
      <trkpt lat="42.71092" lon="1.65714">
        <ele>1382.4</ele>
        <time>2020-02-08T11:04:06Z</time>
      </trkpt>
      <trkpt lat="42.71092" lon="1.65714">
        <ele>1382.4</ele>
        <time>2020-02-08T11:04:07Z</time>
      </trkpt>
      <trkpt lat="42.71092" lon="1.65714">
        <ele>1382.4</ele>
        <time>2020-02-08T11:04:08Z</time>
      </trkpt>
      <trkpt lat="42.71092" lon="1.65714">
        <ele>1382.5</ele>
        <time>2020-02-08T11:04:09Z</time>
      </trkpt>
      <trkpt lat="42.71092" lon="1.65714">
        <ele>1382.5</ele>
        <time>2020-02-08T11:04:10Z</time>
      </trkpt>
      <trkpt lat="42.71092" lon="1.65714">
        <ele>1382.5</ele>
        <time>2020-02-08T11:04:11Z</time>
      </trkpt>
      <trkpt lat="42.71092" lon="1.65714">
        <ele>1382.6</ele>
        <time>2020-02-08T11:04:12Z</time>
      </trkpt>
      <trkpt lat="42.71092" lon="1.65714">
        <ele>1382.6</ele>
        <time>2020-02-08T11:04:13Z</time>
      </trkpt>
      <trkpt lat="42.71092" lon="1.65714">
        <ele>1382.6</ele>
        <time>2020-02-08T11:04:14Z</time>
      </trkpt>
      <trkpt lat="42.71092" lon="1.65715">
        <ele>1382.6</ele>
        <time>2020-02-08T11:04:15Z</time>
      </trkpt>
      <trkpt lat="42.71092" lon="1.65715">
        <ele>1382.6</ele>
        <time>2020-02-08T11:04:16Z</time>
      </trkpt>
      <trkpt lat="42.71092" lon="1.65715">
        <ele>1382.7</ele>
        <time>2020-02-08T11:04:17Z</time>
      </trkpt>
      <trkpt lat="42.71092" lon="1.65715">
        <ele>1382.7</ele>
        <time>2020-02-08T11:04:18Z</time>
      </trkpt>
      <trkpt lat="42.71092" lon="1.65715">
        <ele>1382.7</ele>
        <time>2020-02-08T11:04:19Z</time>
      </trkpt>
      <trkpt lat="42.71092" lon="1.65715">
        <ele>1382.8</ele>
        <time>2020-02-08T11:04:20Z</time>
      </trkpt>
      <trkpt lat="42.71092" lon="1.65715">
        <ele>1382.8</ele>
        <time>2020-02-08T11:04:21Z</time>
      </trkpt>
      <trkpt lat="42.71092" lon="1.65715">
        <ele>1382.8</ele>
        <time>2020-02-08T11:04:22Z</time>
      </trkpt>
      <trkpt lat="42.71092" lon="1.65715">
        <ele>1382.8</ele>
        <time>2020-02-08T11:04:23Z</time>
      </trkpt>
      <trkpt lat="42.71092" lon="1.65716">
        <ele>1382.8</ele>
        <time>2020-02-08T11:04:24Z</time>
      </trkpt>
      <trkpt lat="42.71092" lon="1.65716">
        <ele>1382.9</ele>
        <time>2020-02-08T11:04:25Z</time>
      </trkpt>
      <trkpt lat="42.71092" lon="1.65716">
        <ele>1382.9</ele>
        <time>2020-02-08T11:04:26Z</time>
      </trkpt>
      <trkpt lat="42.71092" lon="1.65716">
        <ele>1382.9</ele>
        <time>2020-02-08T11:04:27Z</time>
      </trkpt>
      <trkpt lat="42.71092" lon="1.65716">
        <ele>1382.9</ele>
        <time>2020-02-08T11:04:28Z</time>
      </trkpt>
      <trkpt lat="42.71092" lon="1.65716">
        <ele>1383</ele>
        <time>2020-02-08T11:04:29Z</time>
      </trkpt>
      <trkpt lat="42.71092" lon="1.65716">
        <ele>1383</ele>
        <time>2020-02-08T11:04:30Z</time>
      </trkpt>
      <trkpt lat="42.71092" lon="1.65716">
        <ele>1383</ele>
        <time>2020-02-08T11:04:31Z</time>
      </trkpt>
      <trkpt lat="42.71092" lon="1.65716">
        <ele>1383</ele>
        <time>2020-02-08T11:04:32Z</time>
      </trkpt>
      <trkpt lat="42.71092" lon="1.65717">
        <ele>1383.1</ele>
        <time>2020-02-08T11:04:33Z</time>
      </trkpt>
      <trkpt lat="42.71092" lon="1.65717">
        <ele>1383.1</ele>
        <time>2020-02-08T11:04:34Z</time>
      </trkpt>
      <trkpt lat="42.71092" lon="1.65717">
        <ele>1383.1</ele>
        <time>2020-02-08T11:04:35Z</time>
      </trkpt>
      <trkpt lat="42.71092" lon="1.65717">
        <ele>1383.1</ele>
        <time>2020-02-08T11:04:36Z</time>
      </trkpt>
      <trkpt lat="42.71092" lon="1.65717">
        <ele>1383.2</ele>
        <time>2020-02-08T11:04:37Z</time>
      </trkpt>
      <trkpt lat="42.71092" lon="1.65717">
        <ele>1383.2</ele>
        <time>2020-02-08T11:04:38Z</time>
      </trkpt>
      <trkpt lat="42.71092" lon="1.65717">
        <ele>1383.2</ele>
        <time>2020-02-08T11:04:39Z</time>
      </trkpt>
      <trkpt lat="42.71092" lon="1.65716">
        <ele>1383.4</ele>
        <time>2020-02-08T11:04:40Z</time>
      </trkpt>
      <trkpt lat="42.71093" lon="1.65715">
        <ele>1383.6</ele>
        <time>2020-02-08T11:04:41Z</time>
      </trkpt>
      <trkpt lat="42.71093" lon="1.65714">
        <ele>1383.8</ele>
        <time>2020-02-08T11:04:42Z</time>
      </trkpt>
      <trkpt lat="42.71094" lon="1.65713">
        <ele>1384</ele>
        <time>2020-02-08T11:04:43Z</time>
      </trkpt>
      <trkpt lat="42.71094" lon="1.65712">
        <ele>1384.1</ele>
        <time>2020-02-08T11:04:44Z</time>
      </trkpt>
      <trkpt lat="42.71095" lon="1.65711">
        <ele>1384.3</ele>
        <time>2020-02-08T11:04:45Z</time>
      </trkpt>
      <trkpt lat="42.71095" lon="1.6571">
        <ele>1384.5</ele>
        <time>2020-02-08T11:04:46Z</time>
      </trkpt>
      <trkpt lat="42.71096" lon="1.65709">
        <ele>1384.7</ele>
        <time>2020-02-08T11:04:47Z</time>
      </trkpt>
      <trkpt lat="42.71096" lon="1.65708">
        <ele>1384.9</ele>
        <time>2020-02-08T11:04:48Z</time>
      </trkpt>
      <trkpt lat="42.71097" lon="1.65707">
        <ele>1385</ele>
        <time>2020-02-08T11:04:49Z</time>
      </trkpt>
      <trkpt lat="42.71096" lon="1.65706">
        <ele>1385.1</ele>
        <time>2020-02-08T11:04:50Z</time>
      </trkpt>
      <trkpt lat="42.71096" lon="1.65706">
        <ele>1385.2</ele>
        <time>2020-02-08T11:04:51Z</time>
      </trkpt>
      <trkpt lat="42.71096" lon="1.65706">
        <ele>1385.2</ele>
        <time>2020-02-08T11:04:52Z</time>
      </trkpt>
      <trkpt lat="42.71096" lon="1.65705">
        <ele>1385.3</ele>
        <time>2020-02-08T11:04:53Z</time>
      </trkpt>
      <trkpt lat="42.71096" lon="1.65705">
        <ele>1385.4</ele>
        <time>2020-02-08T11:04:54Z</time>
      </trkpt>
      <trkpt lat="42.71095" lon="1.65704">
        <ele>1385.4</ele>
        <time>2020-02-08T11:04:55Z</time>
      </trkpt>
      <trkpt lat="42.71095" lon="1.65704">
        <ele>1385.5</ele>
        <time>2020-02-08T11:04:56Z</time>
      </trkpt>
      <trkpt lat="42.71095" lon="1.65704">
        <ele>1385.5</ele>
        <time>2020-02-08T11:04:57Z</time>
      </trkpt>
      <trkpt lat="42.71095" lon="1.65703">
        <ele>1385.6</ele>
        <time>2020-02-08T11:04:58Z</time>
      </trkpt>
      <trkpt lat="42.71095" lon="1.65703">
        <ele>1385.7</ele>
        <time>2020-02-08T11:04:59Z</time>
      </trkpt>
      <trkpt lat="42.71094" lon="1.65703">
        <ele>1385.8</ele>
        <time>2020-02-08T11:05:00Z</time>
      </trkpt>
      <trkpt lat="42.71094" lon="1.65702">
        <ele>1385.9</ele>
        <time>2020-02-08T11:05:01Z</time>
      </trkpt>
      <trkpt lat="42.71094" lon="1.65702">
        <ele>1386</ele>
        <time>2020-02-08T11:05:02Z</time>
      </trkpt>
      <trkpt lat="42.71094" lon="1.65702">
        <ele>1386.1</ele>
        <time>2020-02-08T11:05:03Z</time>
      </trkpt>
      <trkpt lat="42.71094" lon="1.65701">
        <ele>1386.2</ele>
        <time>2020-02-08T11:05:04Z</time>
      </trkpt>
      <trkpt lat="42.71093" lon="1.65701">
        <ele>1386.3</ele>
        <time>2020-02-08T11:05:05Z</time>
      </trkpt>
      <trkpt lat="42.71093" lon="1.65701">
        <ele>1386.4</ele>
        <time>2020-02-08T11:05:06Z</time>
      </trkpt>
      <trkpt lat="42.71093" lon="1.657">
        <ele>1386.5</ele>
        <time>2020-02-08T11:05:07Z</time>
      </trkpt>
      <trkpt lat="42.71093" lon="1.657">
        <ele>1386.7</ele>
        <time>2020-02-08T11:05:08Z</time>
      </trkpt>
      <trkpt lat="42.71093" lon="1.657">
        <ele>1386.8</ele>
        <time>2020-02-08T11:05:09Z</time>
      </trkpt>
      <trkpt lat="42.71092" lon="1.65699">
        <ele>1386.9</ele>
        <time>2020-02-08T11:05:10Z</time>
      </trkpt>
      <trkpt lat="42.71092" lon="1.65699">
        <ele>1387</ele>
        <time>2020-02-08T11:05:11Z</time>
      </trkpt>
      <trkpt lat="42.71092" lon="1.65699">
        <ele>1387.1</ele>
        <time>2020-02-08T11:05:12Z</time>
      </trkpt>
      <trkpt lat="42.71092" lon="1.65698">
        <ele>1387.2</ele>
        <time>2020-02-08T11:05:13Z</time>
      </trkpt>
      <trkpt lat="42.71092" lon="1.65698">
        <ele>1387.3</ele>
        <time>2020-02-08T11:05:14Z</time>
      </trkpt>
      <trkpt lat="42.71091" lon="1.65698">
        <ele>1387.4</ele>
        <time>2020-02-08T11:05:15Z</time>
      </trkpt>
      <trkpt lat="42.71091" lon="1.65697">
        <ele>1387.5</ele>
        <time>2020-02-08T11:05:16Z</time>
      </trkpt>
      <trkpt lat="42.71091" lon="1.65697">
        <ele>1387.6</ele>
        <time>2020-02-08T11:05:17Z</time>
      </trkpt>
      <trkpt lat="42.71091" lon="1.65697">
        <ele>1387.7</ele>
        <time>2020-02-08T11:05:18Z</time>
      </trkpt>
      <trkpt lat="42.71091" lon="1.65696">
        <ele>1387.9</ele>
        <time>2020-02-08T11:05:19Z</time>
      </trkpt>
      <trkpt lat="42.7109" lon="1.65696">
        <ele>1388</ele>
        <time>2020-02-08T11:05:20Z</time>
      </trkpt>
      <trkpt lat="42.7109" lon="1.65696">
        <ele>1388.1</ele>
        <time>2020-02-08T11:05:21Z</time>
      </trkpt>
      <trkpt lat="42.7109" lon="1.65695">
        <ele>1388.2</ele>
        <time>2020-02-08T11:05:22Z</time>
      </trkpt>
      <trkpt lat="42.7109" lon="1.65695">
        <ele>1388.3</ele>
        <time>2020-02-08T11:05:23Z</time>
      </trkpt>
      <trkpt lat="42.71089" lon="1.65695">
        <ele>1388.4</ele>
        <time>2020-02-08T11:05:24Z</time>
      </trkpt>
      <trkpt lat="42.71089" lon="1.65694">
        <ele>1388.5</ele>
        <time>2020-02-08T11:05:25Z</time>
      </trkpt>
      <trkpt lat="42.71089" lon="1.65694">
        <ele>1388.7</ele>
        <time>2020-02-08T11:05:26Z</time>
      </trkpt>
      <trkpt lat="42.71089" lon="1.65694">
        <ele>1388.8</ele>
        <time>2020-02-08T11:05:27Z</time>
      </trkpt>
      <trkpt lat="42.71089" lon="1.65693">
        <ele>1388.9</ele>
        <time>2020-02-08T11:05:28Z</time>
      </trkpt>
      <trkpt lat="42.71088" lon="1.65693">
        <ele>1389</ele>
        <time>2020-02-08T11:05:29Z</time>
      </trkpt>
      <trkpt lat="42.71088" lon="1.65693">
        <ele>1389.1</ele>
        <time>2020-02-08T11:05:30Z</time>
      </trkpt>
      <trkpt lat="42.71088" lon="1.65693">
        <ele>1389.1</ele>
        <time>2020-02-08T11:05:31Z</time>
      </trkpt>
      <trkpt lat="42.71088" lon="1.65694">
        <ele>1389.2</ele>
        <time>2020-02-08T11:05:32Z</time>
      </trkpt>
      <trkpt lat="42.71088" lon="1.65694">
        <ele>1389.3</ele>
        <time>2020-02-08T11:05:33Z</time>
      </trkpt>
      <trkpt lat="42.71088" lon="1.65694">
        <ele>1389.3</ele>
        <time>2020-02-08T11:05:34Z</time>
      </trkpt>
      <trkpt lat="42.71088" lon="1.65695">
        <ele>1389.4</ele>
        <time>2020-02-08T11:05:35Z</time>
      </trkpt>
      <trkpt lat="42.71089" lon="1.65695">
        <ele>1389.5</ele>
        <time>2020-02-08T11:05:36Z</time>
      </trkpt>
      <trkpt lat="42.71089" lon="1.65695">
        <ele>1389.6</ele>
        <time>2020-02-08T11:05:37Z</time>
      </trkpt>
      <trkpt lat="42.71089" lon="1.65695">
        <ele>1389.6</ele>
        <time>2020-02-08T11:05:38Z</time>
      </trkpt>
      <trkpt lat="42.71089" lon="1.65696">
        <ele>1389.7</ele>
        <time>2020-02-08T11:05:39Z</time>
      </trkpt>
      <trkpt lat="42.71089" lon="1.65696">
        <ele>1389.8</ele>
        <time>2020-02-08T11:05:40Z</time>
      </trkpt>
      <trkpt lat="42.71089" lon="1.65696">
        <ele>1389.8</ele>
        <time>2020-02-08T11:05:41Z</time>
      </trkpt>
      <trkpt lat="42.71089" lon="1.65697">
        <ele>1389.9</ele>
        <time>2020-02-08T11:05:42Z</time>
      </trkpt>
      <trkpt lat="42.71089" lon="1.65697">
        <ele>1389.9</ele>
        <time>2020-02-08T11:05:43Z</time>
      </trkpt>
      <trkpt lat="42.71089" lon="1.65697">
        <ele>1390</ele>
        <time>2020-02-08T11:05:44Z</time>
      </trkpt>
      <trkpt lat="42.71089" lon="1.65697">
        <ele>1390</ele>
        <time>2020-02-08T11:05:45Z</time>
      </trkpt>
      <trkpt lat="42.71089" lon="1.65698">
        <ele>1390.1</ele>
        <time>2020-02-08T11:05:46Z</time>
      </trkpt>
      <trkpt lat="42.71089" lon="1.65698">
        <ele>1390.1</ele>
        <time>2020-02-08T11:05:47Z</time>
      </trkpt>
      <trkpt lat="42.71089" lon="1.65698">
        <ele>1390.2</ele>
        <time>2020-02-08T11:05:48Z</time>
      </trkpt>
      <trkpt lat="42.71089" lon="1.65699">
        <ele>1390.2</ele>
        <time>2020-02-08T11:05:49Z</time>
      </trkpt>
      <trkpt lat="42.71089" lon="1.65699">
        <ele>1390.3</ele>
        <time>2020-02-08T11:05:50Z</time>
      </trkpt>
      <trkpt lat="42.71089" lon="1.65699">
        <ele>1390.3</ele>
        <time>2020-02-08T11:05:51Z</time>
      </trkpt>
      <trkpt lat="42.71089" lon="1.65699">
        <ele>1390.4</ele>
        <time>2020-02-08T11:05:52Z</time>
      </trkpt>
      <trkpt lat="42.71089" lon="1.657">
        <ele>1390.4</ele>
        <time>2020-02-08T11:05:53Z</time>
      </trkpt>
      <trkpt lat="42.71089" lon="1.657">
        <ele>1390.5</ele>
        <time>2020-02-08T11:05:54Z</time>
      </trkpt>
      <trkpt lat="42.71089" lon="1.657">
        <ele>1390.5</ele>
        <time>2020-02-08T11:05:55Z</time>
      </trkpt>
      <trkpt lat="42.71089" lon="1.65701">
        <ele>1390.6</ele>
        <time>2020-02-08T11:05:56Z</time>
      </trkpt>
      <trkpt lat="42.71089" lon="1.65701">
        <ele>1390.7</ele>
        <time>2020-02-08T11:05:57Z</time>
      </trkpt>
      <trkpt lat="42.71089" lon="1.65701">
        <ele>1390.7</ele>
        <time>2020-02-08T11:05:58Z</time>
      </trkpt>
      <trkpt lat="42.71089" lon="1.65701">
        <ele>1390.7</ele>
        <time>2020-02-08T11:05:59Z</time>
      </trkpt>
      <trkpt lat="42.71089" lon="1.65702">
        <ele>1390.8</ele>
        <time>2020-02-08T11:06:00Z</time>
      </trkpt>
      <trkpt lat="42.71089" lon="1.65702">
        <ele>1390.9</ele>
        <time>2020-02-08T11:06:01Z</time>
      </trkpt>
      <trkpt lat="42.71089" lon="1.65702">
        <ele>1390.9</ele>
        <time>2020-02-08T11:06:02Z</time>
      </trkpt>
      <trkpt lat="42.71089" lon="1.65703">
        <ele>1391</ele>
        <time>2020-02-08T11:06:03Z</time>
      </trkpt>
      <trkpt lat="42.71089" lon="1.65703">
        <ele>1391</ele>
        <time>2020-02-08T11:06:04Z</time>
      </trkpt>
      <trkpt lat="42.71089" lon="1.65703">
        <ele>1391.1</ele>
        <time>2020-02-08T11:06:05Z</time>
      </trkpt>
      <trkpt lat="42.71089" lon="1.65704">
        <ele>1391.1</ele>
        <time>2020-02-08T11:06:06Z</time>
      </trkpt>
      <trkpt lat="42.71089" lon="1.65704">
        <ele>1391.2</ele>
        <time>2020-02-08T11:06:07Z</time>
      </trkpt>
      <trkpt lat="42.71089" lon="1.65704">
        <ele>1391.2</ele>
        <time>2020-02-08T11:06:08Z</time>
      </trkpt>
      <trkpt lat="42.71089" lon="1.65704">
        <ele>1391.3</ele>
        <time>2020-02-08T11:06:09Z</time>
      </trkpt>
      <trkpt lat="42.71089" lon="1.65705">
        <ele>1391.3</ele>
        <time>2020-02-08T11:06:10Z</time>
      </trkpt>
      <trkpt lat="42.71089" lon="1.65705">
        <ele>1391.4</ele>
        <time>2020-02-08T11:06:11Z</time>
      </trkpt>
      <trkpt lat="42.71089" lon="1.65705">
        <ele>1391.4</ele>
        <time>2020-02-08T11:06:12Z</time>
      </trkpt>
      <trkpt lat="42.71089" lon="1.65706">
        <ele>1391.5</ele>
        <time>2020-02-08T11:06:13Z</time>
      </trkpt>
      <trkpt lat="42.71089" lon="1.65706">
        <ele>1391.5</ele>
        <time>2020-02-08T11:06:14Z</time>
      </trkpt>
      <trkpt lat="42.71089" lon="1.65706">
        <ele>1391.6</ele>
        <time>2020-02-08T11:06:15Z</time>
      </trkpt>
      <trkpt lat="42.71089" lon="1.65706">
        <ele>1391.6</ele>
        <time>2020-02-08T11:06:16Z</time>
      </trkpt>
      <trkpt lat="42.71089" lon="1.65707">
        <ele>1391.7</ele>
        <time>2020-02-08T11:06:17Z</time>
      </trkpt>
      <trkpt lat="42.71089" lon="1.65707">
        <ele>1391.7</ele>
        <time>2020-02-08T11:06:18Z</time>
      </trkpt>
      <trkpt lat="42.71089" lon="1.65707">
        <ele>1391.8</ele>
        <time>2020-02-08T11:06:19Z</time>
      </trkpt>
      <trkpt lat="42.71089" lon="1.65708">
        <ele>1392</ele>
        <time>2020-02-08T11:06:20Z</time>
      </trkpt>
      <trkpt lat="42.71088" lon="1.6571">
        <ele>1392.2</ele>
        <time>2020-02-08T11:06:21Z</time>
      </trkpt>
      <trkpt lat="42.71088" lon="1.65711">
        <ele>1392.5</ele>
        <time>2020-02-08T11:06:22Z</time>
      </trkpt>
      <trkpt lat="42.71088" lon="1.65712">
        <ele>1392.7</ele>
        <time>2020-02-08T11:06:23Z</time>
      </trkpt>
      <trkpt lat="42.71088" lon="1.65713">
        <ele>1393</ele>
        <time>2020-02-08T11:06:24Z</time>
      </trkpt>
      <trkpt lat="42.71087" lon="1.65715">
        <ele>1393.3</ele>
        <time>2020-02-08T11:06:25Z</time>
      </trkpt>
      <trkpt lat="42.71087" lon="1.65716">
        <ele>1393.6</ele>
        <time>2020-02-08T11:06:26Z</time>
      </trkpt>
      <trkpt lat="42.71087" lon="1.65717">
        <ele>1393.9</ele>
        <time>2020-02-08T11:06:27Z</time>
      </trkpt>
      <trkpt lat="42.71087" lon="1.65718">
        <ele>1394.2</ele>
        <time>2020-02-08T11:06:28Z</time>
      </trkpt>
      <trkpt lat="42.71087" lon="1.65719">
        <ele>1394.5</ele>
        <time>2020-02-08T11:06:29Z</time>
      </trkpt>
      <trkpt lat="42.71086" lon="1.65719">
        <ele>1394.6</ele>
        <time>2020-02-08T11:06:30Z</time>
      </trkpt>
      <trkpt lat="42.71086" lon="1.65718">
        <ele>1394.8</ele>
        <time>2020-02-08T11:06:31Z</time>
      </trkpt>
      <trkpt lat="42.71086" lon="1.65718">
        <ele>1394.9</ele>
        <time>2020-02-08T11:06:32Z</time>
      </trkpt>
      <trkpt lat="42.71086" lon="1.65717">
        <ele>1395.1</ele>
        <time>2020-02-08T11:06:33Z</time>
      </trkpt>
      <trkpt lat="42.71085" lon="1.65717">
        <ele>1395.2</ele>
        <time>2020-02-08T11:06:34Z</time>
      </trkpt>
      <trkpt lat="42.71085" lon="1.65716">
        <ele>1395.4</ele>
        <time>2020-02-08T11:06:35Z</time>
      </trkpt>
      <trkpt lat="42.71085" lon="1.65716">
        <ele>1395.5</ele>
        <time>2020-02-08T11:06:36Z</time>
      </trkpt>
      <trkpt lat="42.71085" lon="1.65715">
        <ele>1395.7</ele>
        <time>2020-02-08T11:06:37Z</time>
      </trkpt>
      <trkpt lat="42.71084" lon="1.65714">
        <ele>1395.8</ele>
        <time>2020-02-08T11:06:38Z</time>
      </trkpt>
      <trkpt lat="42.71084" lon="1.65714">
        <ele>1396</ele>
        <time>2020-02-08T11:06:39Z</time>
      </trkpt>
      <trkpt lat="42.71084" lon="1.65713">
        <ele>1396.2</ele>
        <time>2020-02-08T11:06:40Z</time>
      </trkpt>
      <trkpt lat="42.71084" lon="1.65713">
        <ele>1396.3</ele>
        <time>2020-02-08T11:06:41Z</time>
      </trkpt>
      <trkpt lat="42.71083" lon="1.65712">
        <ele>1396.4</ele>
        <time>2020-02-08T11:06:42Z</time>
      </trkpt>
      <trkpt lat="42.71083" lon="1.65712">
        <ele>1396.5</ele>
        <time>2020-02-08T11:06:43Z</time>
      </trkpt>
      <trkpt lat="42.71083" lon="1.65711">
        <ele>1396.6</ele>
        <time>2020-02-08T11:06:44Z</time>
      </trkpt>
      <trkpt lat="42.71083" lon="1.65711">
        <ele>1396.7</ele>
        <time>2020-02-08T11:06:45Z</time>
      </trkpt>
      <trkpt lat="42.71082" lon="1.6571">
        <ele>1396.8</ele>
        <time>2020-02-08T11:06:46Z</time>
      </trkpt>
      <trkpt lat="42.71082" lon="1.6571">
        <ele>1396.9</ele>
        <time>2020-02-08T11:06:47Z</time>
      </trkpt>
      <trkpt lat="42.71082" lon="1.65709">
        <ele>1397</ele>
        <time>2020-02-08T11:06:48Z</time>
      </trkpt>
      <trkpt lat="42.71082" lon="1.65708">
        <ele>1397.1</ele>
        <time>2020-02-08T11:06:49Z</time>
      </trkpt>
      <trkpt lat="42.71081" lon="1.65708">
        <ele>1397.2</ele>
        <time>2020-02-08T11:06:50Z</time>
      </trkpt>
      <trkpt lat="42.71081" lon="1.65707">
        <ele>1397.3</ele>
        <time>2020-02-08T11:06:51Z</time>
      </trkpt>
      <trkpt lat="42.71081" lon="1.65707">
        <ele>1397.4</ele>
        <time>2020-02-08T11:06:52Z</time>
      </trkpt>
      <trkpt lat="42.71081" lon="1.65706">
        <ele>1397.5</ele>
        <time>2020-02-08T11:06:53Z</time>
      </trkpt>
      <trkpt lat="42.71081" lon="1.65705">
        <ele>1397.6</ele>
        <time>2020-02-08T11:06:54Z</time>
      </trkpt>
      <trkpt lat="42.71081" lon="1.65705">
        <ele>1397.7</ele>
        <time>2020-02-08T11:06:55Z</time>
      </trkpt>
      <trkpt lat="42.71081" lon="1.65704">
        <ele>1397.8</ele>
        <time>2020-02-08T11:06:56Z</time>
      </trkpt>
      <trkpt lat="42.71081" lon="1.65704">
        <ele>1397.9</ele>
        <time>2020-02-08T11:06:57Z</time>
      </trkpt>
      <trkpt lat="42.71081" lon="1.65703">
        <ele>1398</ele>
        <time>2020-02-08T11:06:58Z</time>
      </trkpt>
      <trkpt lat="42.71081" lon="1.65702">
        <ele>1398.1</ele>
        <time>2020-02-08T11:06:59Z</time>
      </trkpt>
      <trkpt lat="42.71081" lon="1.65702">
        <ele>1398.2</ele>
        <time>2020-02-08T11:07:00Z</time>
      </trkpt>
      <trkpt lat="42.71081" lon="1.65701">
        <ele>1398.3</ele>
        <time>2020-02-08T11:07:01Z</time>
      </trkpt>
      <trkpt lat="42.71081" lon="1.65701">
        <ele>1398.4</ele>
        <time>2020-02-08T11:07:02Z</time>
      </trkpt>
      <trkpt lat="42.7108" lon="1.657">
        <ele>1398.5</ele>
        <time>2020-02-08T11:07:03Z</time>
      </trkpt>
      <trkpt lat="42.7108" lon="1.65699">
        <ele>1398.6</ele>
        <time>2020-02-08T11:07:04Z</time>
      </trkpt>
      <trkpt lat="42.7108" lon="1.65699">
        <ele>1398.7</ele>
        <time>2020-02-08T11:07:05Z</time>
      </trkpt>
      <trkpt lat="42.7108" lon="1.65698">
        <ele>1398.8</ele>
        <time>2020-02-08T11:07:06Z</time>
      </trkpt>
      <trkpt lat="42.7108" lon="1.65698">
        <ele>1398.9</ele>
        <time>2020-02-08T11:07:07Z</time>
      </trkpt>
      <trkpt lat="42.7108" lon="1.65697">
        <ele>1399</ele>
        <time>2020-02-08T11:07:08Z</time>
      </trkpt>
      <trkpt lat="42.7108" lon="1.65696">
        <ele>1399.1</ele>
        <time>2020-02-08T11:07:09Z</time>
      </trkpt>
      <trkpt lat="42.7108" lon="1.65695">
        <ele>1399.3</ele>
        <time>2020-02-08T11:07:10Z</time>
      </trkpt>
      <trkpt lat="42.7108" lon="1.65694">
        <ele>1399.4</ele>
        <time>2020-02-08T11:07:11Z</time>
      </trkpt>
      <trkpt lat="42.7108" lon="1.65693">
        <ele>1399.6</ele>
        <time>2020-02-08T11:07:12Z</time>
      </trkpt>
      <trkpt lat="42.7108" lon="1.65691">
        <ele>1399.8</ele>
        <time>2020-02-08T11:07:13Z</time>
      </trkpt>
      <trkpt lat="42.71079" lon="1.6569">
        <ele>1400</ele>
        <time>2020-02-08T11:07:14Z</time>
      </trkpt>
      <trkpt lat="42.71079" lon="1.65689">
        <ele>1400.1</ele>
        <time>2020-02-08T11:07:15Z</time>
      </trkpt>
      <trkpt lat="42.71079" lon="1.65688">
        <ele>1400.3</ele>
        <time>2020-02-08T11:07:16Z</time>
      </trkpt>
      <trkpt lat="42.71079" lon="1.65686">
        <ele>1400.5</ele>
        <time>2020-02-08T11:07:17Z</time>
      </trkpt>
      <trkpt lat="42.71079" lon="1.65685">
        <ele>1400.7</ele>
        <time>2020-02-08T11:07:18Z</time>
      </trkpt>
      <trkpt lat="42.71079" lon="1.65684">
        <ele>1400.8</ele>
        <time>2020-02-08T11:07:19Z</time>
      </trkpt>
      <trkpt lat="42.71079" lon="1.65683">
        <ele>1400.9</ele>
        <time>2020-02-08T11:07:20Z</time>
      </trkpt>
      <trkpt lat="42.71079" lon="1.65683">
        <ele>1401</ele>
        <time>2020-02-08T11:07:21Z</time>
      </trkpt>
      <trkpt lat="42.71079" lon="1.65682">
        <ele>1401.1</ele>
        <time>2020-02-08T11:07:22Z</time>
      </trkpt>
      <trkpt lat="42.7108" lon="1.65682">
        <ele>1401.2</ele>
        <time>2020-02-08T11:07:23Z</time>
      </trkpt>
      <trkpt lat="42.7108" lon="1.65681">
        <ele>1401.3</ele>
        <time>2020-02-08T11:07:24Z</time>
      </trkpt>
      <trkpt lat="42.7108" lon="1.6568">
        <ele>1401.4</ele>
        <time>2020-02-08T11:07:25Z</time>
      </trkpt>
      <trkpt lat="42.7108" lon="1.6568">
        <ele>1401.5</ele>
        <time>2020-02-08T11:07:26Z</time>
      </trkpt>
      <trkpt lat="42.7108" lon="1.65679">
        <ele>1401.6</ele>
        <time>2020-02-08T11:07:27Z</time>
      </trkpt>
      <trkpt lat="42.7108" lon="1.65679">
        <ele>1401.7</ele>
        <time>2020-02-08T11:07:28Z</time>
      </trkpt>
      <trkpt lat="42.71081" lon="1.65678">
        <ele>1401.8</ele>
        <time>2020-02-08T11:07:29Z</time>
      </trkpt>
      <trkpt lat="42.71081" lon="1.65678">
        <ele>1402</ele>
        <time>2020-02-08T11:07:30Z</time>
      </trkpt>
      <trkpt lat="42.71081" lon="1.65677">
        <ele>1402.1</ele>
        <time>2020-02-08T11:07:31Z</time>
      </trkpt>
      <trkpt lat="42.71081" lon="1.65676">
        <ele>1402.2</ele>
        <time>2020-02-08T11:07:32Z</time>
      </trkpt>
      <trkpt lat="42.71081" lon="1.65676">
        <ele>1402.3</ele>
        <time>2020-02-08T11:07:33Z</time>
      </trkpt>
      <trkpt lat="42.71081" lon="1.65675">
        <ele>1402.4</ele>
        <time>2020-02-08T11:07:34Z</time>
      </trkpt>
      <trkpt lat="42.71082" lon="1.65675">
        <ele>1402.5</ele>
        <time>2020-02-08T11:07:35Z</time>
      </trkpt>
      <trkpt lat="42.71082" lon="1.65674">
        <ele>1402.6</ele>
        <time>2020-02-08T11:07:36Z</time>
      </trkpt>
      <trkpt lat="42.71082" lon="1.65674">
        <ele>1402.7</ele>
        <time>2020-02-08T11:07:37Z</time>
      </trkpt>
      <trkpt lat="42.71082" lon="1.65673">
        <ele>1402.8</ele>
        <time>2020-02-08T11:07:38Z</time>
      </trkpt>
      <trkpt lat="42.71082" lon="1.65672">
        <ele>1402.9</ele>
        <time>2020-02-08T11:07:39Z</time>
      </trkpt>
      <trkpt lat="42.71083" lon="1.65671">
        <ele>1403.2</ele>
        <time>2020-02-08T11:07:40Z</time>
      </trkpt>
      <trkpt lat="42.71084" lon="1.65671">
        <ele>1403.4</ele>
        <time>2020-02-08T11:07:41Z</time>
      </trkpt>
      <trkpt lat="42.71084" lon="1.6567">
        <ele>1403.6</ele>
        <time>2020-02-08T11:07:42Z</time>
      </trkpt>
      <trkpt lat="42.71085" lon="1.65669">
        <ele>1403.8</ele>
        <time>2020-02-08T11:07:43Z</time>
      </trkpt>
      <trkpt lat="42.71086" lon="1.65668">
        <ele>1404</ele>
        <time>2020-02-08T11:07:44Z</time>
      </trkpt>
      <trkpt lat="42.71086" lon="1.65667">
        <ele>1404.2</ele>
        <time>2020-02-08T11:07:45Z</time>
      </trkpt>
      <trkpt lat="42.71087" lon="1.65666">
        <ele>1404.4</ele>
        <time>2020-02-08T11:07:46Z</time>
      </trkpt>
      <trkpt lat="42.71087" lon="1.65665">
        <ele>1404.6</ele>
        <time>2020-02-08T11:07:47Z</time>
      </trkpt>
      <trkpt lat="42.71088" lon="1.65664">
        <ele>1404.8</ele>
        <time>2020-02-08T11:07:48Z</time>
      </trkpt>
      <trkpt lat="42.71089" lon="1.65664">
        <ele>1405</ele>
        <time>2020-02-08T11:07:49Z</time>
      </trkpt>
      <trkpt lat="42.71084" lon="1.65652">
        <ele>1407</ele>
        <time>2020-02-08T11:07:50Z</time>
      </trkpt>
      <trkpt lat="42.71084" lon="1.65652">
        <ele>1407</ele>
        <time>2020-02-08T11:07:51Z</time>
      </trkpt>
      <trkpt lat="42.71084" lon="1.65652">
        <ele>1407</ele>
        <time>2020-02-08T11:07:52Z</time>
      </trkpt>
      <trkpt lat="42.71084" lon="1.65652">
        <ele>1407</ele>
        <time>2020-02-08T11:07:53Z</time>
      </trkpt>
      <trkpt lat="42.71084" lon="1.65652">
        <ele>1407</ele>
        <time>2020-02-08T11:07:54Z</time>
      </trkpt>
      <trkpt lat="42.71084" lon="1.65652">
        <ele>1407</ele>
        <time>2020-02-08T11:07:55Z</time>
      </trkpt>
      <trkpt lat="42.71084" lon="1.65652">
        <ele>1407</ele>
        <time>2020-02-08T11:07:56Z</time>
      </trkpt>
      <trkpt lat="42.71084" lon="1.65652">
        <ele>1407</ele>
        <time>2020-02-08T11:07:57Z</time>
      </trkpt>
      <trkpt lat="42.71084" lon="1.65652">
        <ele>1407</ele>
        <time>2020-02-08T11:07:58Z</time>
      </trkpt>
      <trkpt lat="42.71084" lon="1.65652">
        <ele>1407</ele>
        <time>2020-02-08T11:07:59Z</time>
      </trkpt>
      <trkpt lat="42.71084" lon="1.65652">
        <ele>1407.1</ele>
        <time>2020-02-08T11:08:00Z</time>
      </trkpt>
      <trkpt lat="42.71084" lon="1.65652">
        <ele>1407.1</ele>
        <time>2020-02-08T11:08:01Z</time>
      </trkpt>
      <trkpt lat="42.71085" lon="1.65651">
        <ele>1407.2</ele>
        <time>2020-02-08T11:08:02Z</time>
      </trkpt>
      <trkpt lat="42.71085" lon="1.65651">
        <ele>1407.2</ele>
        <time>2020-02-08T11:08:03Z</time>
      </trkpt>
      <trkpt lat="42.71086" lon="1.65651">
        <ele>1407.3</ele>
        <time>2020-02-08T11:08:04Z</time>
      </trkpt>
      <trkpt lat="42.71086" lon="1.65651">
        <ele>1407.3</ele>
        <time>2020-02-08T11:08:05Z</time>
      </trkpt>
      <trkpt lat="42.71086" lon="1.6565">
        <ele>1407.4</ele>
        <time>2020-02-08T11:08:06Z</time>
      </trkpt>
      <trkpt lat="42.71087" lon="1.6565">
        <ele>1407.5</ele>
        <time>2020-02-08T11:08:07Z</time>
      </trkpt>
      <trkpt lat="42.71087" lon="1.6565">
        <ele>1407.5</ele>
        <time>2020-02-08T11:08:08Z</time>
      </trkpt>
      <trkpt lat="42.71088" lon="1.6565">
        <ele>1407.6</ele>
        <time>2020-02-08T11:08:09Z</time>
      </trkpt>
      <trkpt lat="42.71088" lon="1.65649">
        <ele>1407.6</ele>
        <time>2020-02-08T11:08:10Z</time>
      </trkpt>
      <trkpt lat="42.71088" lon="1.65649">
        <ele>1407.7</ele>
        <time>2020-02-08T11:08:11Z</time>
      </trkpt>
      <trkpt lat="42.71089" lon="1.65649">
        <ele>1407.7</ele>
        <time>2020-02-08T11:08:12Z</time>
      </trkpt>
      <trkpt lat="42.71089" lon="1.65648">
        <ele>1407.8</ele>
        <time>2020-02-08T11:08:13Z</time>
      </trkpt>
      <trkpt lat="42.7109" lon="1.65648">
        <ele>1407.8</ele>
        <time>2020-02-08T11:08:14Z</time>
      </trkpt>
      <trkpt lat="42.7109" lon="1.65648">
        <ele>1407.9</ele>
        <time>2020-02-08T11:08:15Z</time>
      </trkpt>
      <trkpt lat="42.71091" lon="1.65648">
        <ele>1407.9</ele>
        <time>2020-02-08T11:08:16Z</time>
      </trkpt>
      <trkpt lat="42.71091" lon="1.65647">
        <ele>1408</ele>
        <time>2020-02-08T11:08:17Z</time>
      </trkpt>
      <trkpt lat="42.71091" lon="1.65647">
        <ele>1408</ele>
        <time>2020-02-08T11:08:18Z</time>
      </trkpt>
      <trkpt lat="42.71092" lon="1.65647">
        <ele>1408.1</ele>
        <time>2020-02-08T11:08:19Z</time>
      </trkpt>
      <trkpt lat="42.71092" lon="1.65647">
        <ele>1408.1</ele>
        <time>2020-02-08T11:08:20Z</time>
      </trkpt>
      <trkpt lat="42.71092" lon="1.65646">
        <ele>1408.1</ele>
        <time>2020-02-08T11:08:21Z</time>
      </trkpt>
      <trkpt lat="42.71092" lon="1.65646">
        <ele>1408.2</ele>
        <time>2020-02-08T11:08:22Z</time>
      </trkpt>
      <trkpt lat="42.71092" lon="1.65646">
        <ele>1408.2</ele>
        <time>2020-02-08T11:08:23Z</time>
      </trkpt>
      <trkpt lat="42.71092" lon="1.65646">
        <ele>1408.2</ele>
        <time>2020-02-08T11:08:24Z</time>
      </trkpt>
      <trkpt lat="42.71092" lon="1.65646">
        <ele>1408.2</ele>
        <time>2020-02-08T11:08:25Z</time>
      </trkpt>
      <trkpt lat="42.71092" lon="1.65645">
        <ele>1408.2</ele>
        <time>2020-02-08T11:08:26Z</time>
      </trkpt>
      <trkpt lat="42.71091" lon="1.65645">
        <ele>1408.2</ele>
        <time>2020-02-08T11:08:27Z</time>
      </trkpt>
      <trkpt lat="42.71091" lon="1.65645">
        <ele>1408.3</ele>
        <time>2020-02-08T11:08:28Z</time>
      </trkpt>
      <trkpt lat="42.71091" lon="1.65645">
        <ele>1408.3</ele>
        <time>2020-02-08T11:08:29Z</time>
      </trkpt>
      <trkpt lat="42.71091" lon="1.65645">
        <ele>1408.3</ele>
        <time>2020-02-08T11:08:30Z</time>
      </trkpt>
      <trkpt lat="42.71091" lon="1.65644">
        <ele>1408.4</ele>
        <time>2020-02-08T11:08:31Z</time>
      </trkpt>
      <trkpt lat="42.71091" lon="1.65644">
        <ele>1408.4</ele>
        <time>2020-02-08T11:08:32Z</time>
      </trkpt>
      <trkpt lat="42.71091" lon="1.65644">
        <ele>1408.4</ele>
        <time>2020-02-08T11:08:33Z</time>
      </trkpt>
      <trkpt lat="42.71091" lon="1.65644">
        <ele>1408.4</ele>
        <time>2020-02-08T11:08:34Z</time>
      </trkpt>
      <trkpt lat="42.71091" lon="1.65644">
        <ele>1408.5</ele>
        <time>2020-02-08T11:08:35Z</time>
      </trkpt>
      <trkpt lat="42.71091" lon="1.65643">
        <ele>1408.5</ele>
        <time>2020-02-08T11:08:36Z</time>
      </trkpt>
      <trkpt lat="42.71091" lon="1.65643">
        <ele>1408.5</ele>
        <time>2020-02-08T11:08:37Z</time>
      </trkpt>
      <trkpt lat="42.71091" lon="1.65643">
        <ele>1408.6</ele>
        <time>2020-02-08T11:08:38Z</time>
      </trkpt>
      <trkpt lat="42.71091" lon="1.65643">
        <ele>1408.6</ele>
        <time>2020-02-08T11:08:39Z</time>
      </trkpt>
      <trkpt lat="42.71091" lon="1.65643">
        <ele>1408.6</ele>
        <time>2020-02-08T11:08:40Z</time>
      </trkpt>
      <trkpt lat="42.71091" lon="1.65642">
        <ele>1408.7</ele>
        <time>2020-02-08T11:08:41Z</time>
      </trkpt>
      <trkpt lat="42.71091" lon="1.65642">
        <ele>1408.7</ele>
        <time>2020-02-08T11:08:42Z</time>
      </trkpt>
      <trkpt lat="42.71091" lon="1.65642">
        <ele>1408.7</ele>
        <time>2020-02-08T11:08:43Z</time>
      </trkpt>
      <trkpt lat="42.71091" lon="1.65642">
        <ele>1408.7</ele>
        <time>2020-02-08T11:08:44Z</time>
      </trkpt>
      <trkpt lat="42.71091" lon="1.65642">
        <ele>1408.8</ele>
        <time>2020-02-08T11:08:45Z</time>
      </trkpt>
      <trkpt lat="42.71091" lon="1.65641">
        <ele>1408.8</ele>
        <time>2020-02-08T11:08:46Z</time>
      </trkpt>
      <trkpt lat="42.71091" lon="1.65641">
        <ele>1408.8</ele>
        <time>2020-02-08T11:08:47Z</time>
      </trkpt>
      <trkpt lat="42.71091" lon="1.65641">
        <ele>1408.9</ele>
        <time>2020-02-08T11:08:48Z</time>
      </trkpt>
      <trkpt lat="42.71091" lon="1.65641">
        <ele>1408.9</ele>
        <time>2020-02-08T11:08:49Z</time>
      </trkpt>
      <trkpt lat="42.71091" lon="1.6564">
        <ele>1408.9</ele>
        <time>2020-02-08T11:08:50Z</time>
      </trkpt>
      <trkpt lat="42.71091" lon="1.6564">
        <ele>1409</ele>
        <time>2020-02-08T11:08:51Z</time>
      </trkpt>
      <trkpt lat="42.71091" lon="1.6564">
        <ele>1409</ele>
        <time>2020-02-08T11:08:52Z</time>
      </trkpt>
      <trkpt lat="42.71091" lon="1.6564">
        <ele>1409</ele>
        <time>2020-02-08T11:08:53Z</time>
      </trkpt>
      <trkpt lat="42.71091" lon="1.6564">
        <ele>1409.1</ele>
        <time>2020-02-08T11:08:54Z</time>
      </trkpt>
      <trkpt lat="42.7109" lon="1.65639">
        <ele>1409.1</ele>
        <time>2020-02-08T11:08:55Z</time>
      </trkpt>
      <trkpt lat="42.7109" lon="1.65639">
        <ele>1409.1</ele>
        <time>2020-02-08T11:08:56Z</time>
      </trkpt>
      <trkpt lat="42.7109" lon="1.65639">
        <ele>1409.1</ele>
        <time>2020-02-08T11:08:57Z</time>
      </trkpt>
      <trkpt lat="42.7109" lon="1.65639">
        <ele>1409.2</ele>
        <time>2020-02-08T11:08:58Z</time>
      </trkpt>
      <trkpt lat="42.7109" lon="1.65639">
        <ele>1409.2</ele>
        <time>2020-02-08T11:08:59Z</time>
      </trkpt>
      <trkpt lat="42.7109" lon="1.65638">
        <ele>1409.2</ele>
        <time>2020-02-08T11:09:00Z</time>
      </trkpt>
      <trkpt lat="42.7109" lon="1.65638">
        <ele>1409.3</ele>
        <time>2020-02-08T11:09:01Z</time>
      </trkpt>
      <trkpt lat="42.7109" lon="1.65638">
        <ele>1409.3</ele>
        <time>2020-02-08T11:09:02Z</time>
      </trkpt>
      <trkpt lat="42.7109" lon="1.65638">
        <ele>1409.3</ele>
        <time>2020-02-08T11:09:03Z</time>
      </trkpt>
      <trkpt lat="42.7109" lon="1.65638">
        <ele>1409.4</ele>
        <time>2020-02-08T11:09:04Z</time>
      </trkpt>
      <trkpt lat="42.7109" lon="1.65637">
        <ele>1409.4</ele>
        <time>2020-02-08T11:09:05Z</time>
      </trkpt>
      <trkpt lat="42.7109" lon="1.65637">
        <ele>1409.4</ele>
        <time>2020-02-08T11:09:06Z</time>
      </trkpt>
      <trkpt lat="42.7109" lon="1.65637">
        <ele>1409.5</ele>
        <time>2020-02-08T11:09:07Z</time>
      </trkpt>
      <trkpt lat="42.7109" lon="1.65637">
        <ele>1409.5</ele>
        <time>2020-02-08T11:09:08Z</time>
      </trkpt>
      <trkpt lat="42.7109" lon="1.65637">
        <ele>1409.5</ele>
        <time>2020-02-08T11:09:09Z</time>
      </trkpt>
      <trkpt lat="42.7109" lon="1.65636">
        <ele>1409.5</ele>
        <time>2020-02-08T11:09:10Z</time>
      </trkpt>
      <trkpt lat="42.7109" lon="1.65636">
        <ele>1409.6</ele>
        <time>2020-02-08T11:09:11Z</time>
      </trkpt>
      <trkpt lat="42.7109" lon="1.65636">
        <ele>1409.6</ele>
        <time>2020-02-08T11:09:12Z</time>
      </trkpt>
      <trkpt lat="42.7109" lon="1.65636">
        <ele>1409.6</ele>
        <time>2020-02-08T11:09:13Z</time>
      </trkpt>
      <trkpt lat="42.7109" lon="1.65636">
        <ele>1409.7</ele>
        <time>2020-02-08T11:09:14Z</time>
      </trkpt>
      <trkpt lat="42.7109" lon="1.65635">
        <ele>1409.7</ele>
        <time>2020-02-08T11:09:15Z</time>
      </trkpt>
      <trkpt lat="42.7109" lon="1.65635">
        <ele>1409.7</ele>
        <time>2020-02-08T11:09:16Z</time>
      </trkpt>
      <trkpt lat="42.7109" lon="1.65635">
        <ele>1409.7</ele>
        <time>2020-02-08T11:09:17Z</time>
      </trkpt>
      <trkpt lat="42.7109" lon="1.65635">
        <ele>1409.8</ele>
        <time>2020-02-08T11:09:18Z</time>
      </trkpt>
      <trkpt lat="42.7109" lon="1.65635">
        <ele>1409.8</ele>
        <time>2020-02-08T11:09:19Z</time>
      </trkpt>
      <trkpt lat="42.7109" lon="1.65634">
        <ele>1409.9</ele>
        <time>2020-02-08T11:09:20Z</time>
      </trkpt>
      <trkpt lat="42.7109" lon="1.65633">
        <ele>1410</ele>
        <time>2020-02-08T11:09:21Z</time>
      </trkpt>
      <trkpt lat="42.7109" lon="1.65633">
        <ele>1410.1</ele>
        <time>2020-02-08T11:09:22Z</time>
      </trkpt>
      <trkpt lat="42.7109" lon="1.65632">
        <ele>1410.2</ele>
        <time>2020-02-08T11:09:23Z</time>
      </trkpt>
      <trkpt lat="42.71091" lon="1.65632">
        <ele>1410.3</ele>
        <time>2020-02-08T11:09:24Z</time>
      </trkpt>
      <trkpt lat="42.71091" lon="1.65631">
        <ele>1410.4</ele>
        <time>2020-02-08T11:09:25Z</time>
      </trkpt>
      <trkpt lat="42.71091" lon="1.6563">
        <ele>1410.5</ele>
        <time>2020-02-08T11:09:26Z</time>
      </trkpt>
      <trkpt lat="42.71091" lon="1.6563">
        <ele>1410.6</ele>
        <time>2020-02-08T11:09:27Z</time>
      </trkpt>
      <trkpt lat="42.71091" lon="1.65629">
        <ele>1410.6</ele>
        <time>2020-02-08T11:09:28Z</time>
      </trkpt>
      <trkpt lat="42.71091" lon="1.65629">
        <ele>1410.7</ele>
        <time>2020-02-08T11:09:29Z</time>
      </trkpt>
      <trkpt lat="42.71092" lon="1.65628">
        <ele>1410.8</ele>
        <time>2020-02-08T11:09:30Z</time>
      </trkpt>
      <trkpt lat="42.71092" lon="1.65627">
        <ele>1410.8</ele>
        <time>2020-02-08T11:09:31Z</time>
      </trkpt>
      <trkpt lat="42.71092" lon="1.65627">
        <ele>1410.9</ele>
        <time>2020-02-08T11:09:32Z</time>
      </trkpt>
      <trkpt lat="42.71092" lon="1.65626">
        <ele>1410.9</ele>
        <time>2020-02-08T11:09:33Z</time>
      </trkpt>
      <trkpt lat="42.71092" lon="1.65625">
        <ele>1411</ele>
        <time>2020-02-08T11:09:34Z</time>
      </trkpt>
      <trkpt lat="42.71093" lon="1.65625">
        <ele>1411</ele>
        <time>2020-02-08T11:09:35Z</time>
      </trkpt>
      <trkpt lat="42.71093" lon="1.65624">
        <ele>1411.1</ele>
        <time>2020-02-08T11:09:36Z</time>
      </trkpt>
      <trkpt lat="42.71093" lon="1.65624">
        <ele>1411.1</ele>
        <time>2020-02-08T11:09:37Z</time>
      </trkpt>
      <trkpt lat="42.71093" lon="1.65623">
        <ele>1411.2</ele>
        <time>2020-02-08T11:09:38Z</time>
      </trkpt>
      <trkpt lat="42.71093" lon="1.65622">
        <ele>1411.2</ele>
        <time>2020-02-08T11:09:39Z</time>
      </trkpt>
      <trkpt lat="42.71094" lon="1.65621">
        <ele>1411.3</ele>
        <time>2020-02-08T11:09:40Z</time>
      </trkpt>
      <trkpt lat="42.71094" lon="1.6562">
        <ele>1411.4</ele>
        <time>2020-02-08T11:09:41Z</time>
      </trkpt>
      <trkpt lat="42.71095" lon="1.65619">
        <ele>1411.5</ele>
        <time>2020-02-08T11:09:42Z</time>
      </trkpt>
      <trkpt lat="42.71095" lon="1.65618">
        <ele>1411.7</ele>
        <time>2020-02-08T11:09:43Z</time>
      </trkpt>
      <trkpt lat="42.71096" lon="1.65617">
        <ele>1411.8</ele>
        <time>2020-02-08T11:09:44Z</time>
      </trkpt>
      <trkpt lat="42.71096" lon="1.65616">
        <ele>1411.9</ele>
        <time>2020-02-08T11:09:45Z</time>
      </trkpt>
      <trkpt lat="42.71097" lon="1.65615">
        <ele>1412</ele>
        <time>2020-02-08T11:09:46Z</time>
      </trkpt>
      <trkpt lat="42.71097" lon="1.65613">
        <ele>1412.1</ele>
        <time>2020-02-08T11:09:47Z</time>
      </trkpt>
      <trkpt lat="42.71098" lon="1.65612">
        <ele>1412.2</ele>
        <time>2020-02-08T11:09:48Z</time>
      </trkpt>
      <trkpt lat="42.71099" lon="1.65611">
        <ele>1412.4</ele>
        <time>2020-02-08T11:09:49Z</time>
      </trkpt>
      <trkpt lat="42.71099" lon="1.65611">
        <ele>1412.4</ele>
        <time>2020-02-08T11:09:50Z</time>
      </trkpt>
      <trkpt lat="42.71099" lon="1.6561">
        <ele>1412.5</ele>
        <time>2020-02-08T11:09:51Z</time>
      </trkpt>
      <trkpt lat="42.71099" lon="1.6561">
        <ele>1412.6</ele>
        <time>2020-02-08T11:09:52Z</time>
      </trkpt>
      <trkpt lat="42.71099" lon="1.65609">
        <ele>1412.6</ele>
        <time>2020-02-08T11:09:53Z</time>
      </trkpt>
      <trkpt lat="42.71099" lon="1.65608">
        <ele>1412.7</ele>
        <time>2020-02-08T11:09:54Z</time>
      </trkpt>
      <trkpt lat="42.711" lon="1.65608">
        <ele>1412.7</ele>
        <time>2020-02-08T11:09:55Z</time>
      </trkpt>
      <trkpt lat="42.711" lon="1.65607">
        <ele>1412.8</ele>
        <time>2020-02-08T11:09:56Z</time>
      </trkpt>
      <trkpt lat="42.711" lon="1.65607">
        <ele>1412.9</ele>
        <time>2020-02-08T11:09:57Z</time>
      </trkpt>
      <trkpt lat="42.711" lon="1.65606">
        <ele>1412.9</ele>
        <time>2020-02-08T11:09:58Z</time>
      </trkpt>
      <trkpt lat="42.711" lon="1.65606">
        <ele>1413</ele>
        <time>2020-02-08T11:09:59Z</time>
      </trkpt>
      <trkpt lat="42.711" lon="1.65605">
        <ele>1413</ele>
        <time>2020-02-08T11:10:00Z</time>
      </trkpt>
      <trkpt lat="42.71101" lon="1.65605">
        <ele>1413.1</ele>
        <time>2020-02-08T11:10:01Z</time>
      </trkpt>
      <trkpt lat="42.71101" lon="1.65604">
        <ele>1413.2</ele>
        <time>2020-02-08T11:10:02Z</time>
      </trkpt>
      <trkpt lat="42.71101" lon="1.65604">
        <ele>1413.2</ele>
        <time>2020-02-08T11:10:03Z</time>
      </trkpt>
      <trkpt lat="42.71101" lon="1.65603">
        <ele>1413.3</ele>
        <time>2020-02-08T11:10:04Z</time>
      </trkpt>
      <trkpt lat="42.71101" lon="1.65603">
        <ele>1413.3</ele>
        <time>2020-02-08T11:10:05Z</time>
      </trkpt>
      <trkpt lat="42.71101" lon="1.65602">
        <ele>1413.4</ele>
        <time>2020-02-08T11:10:06Z</time>
      </trkpt>
      <trkpt lat="42.71102" lon="1.65602">
        <ele>1413.5</ele>
        <time>2020-02-08T11:10:07Z</time>
      </trkpt>
      <trkpt lat="42.71102" lon="1.65601">
        <ele>1413.5</ele>
        <time>2020-02-08T11:10:08Z</time>
      </trkpt>
      <trkpt lat="42.71102" lon="1.656">
        <ele>1413.6</ele>
        <time>2020-02-08T11:10:09Z</time>
      </trkpt>
      <trkpt lat="42.71102" lon="1.656">
        <ele>1413.7</ele>
        <time>2020-02-08T11:10:10Z</time>
      </trkpt>
      <trkpt lat="42.71102" lon="1.65599">
        <ele>1413.7</ele>
        <time>2020-02-08T11:10:11Z</time>
      </trkpt>
      <trkpt lat="42.71103" lon="1.65598">
        <ele>1413.8</ele>
        <time>2020-02-08T11:10:12Z</time>
      </trkpt>
      <trkpt lat="42.71103" lon="1.65598">
        <ele>1413.8</ele>
        <time>2020-02-08T11:10:13Z</time>
      </trkpt>
      <trkpt lat="42.71103" lon="1.65597">
        <ele>1413.8</ele>
        <time>2020-02-08T11:10:14Z</time>
      </trkpt>
      <trkpt lat="42.71103" lon="1.65596">
        <ele>1413.9</ele>
        <time>2020-02-08T11:10:15Z</time>
      </trkpt>
      <trkpt lat="42.71104" lon="1.65596">
        <ele>1413.9</ele>
        <time>2020-02-08T11:10:16Z</time>
      </trkpt>
      <trkpt lat="42.71104" lon="1.65595">
        <ele>1413.9</ele>
        <time>2020-02-08T11:10:17Z</time>
      </trkpt>
      <trkpt lat="42.71104" lon="1.65594">
        <ele>1414</ele>
        <time>2020-02-08T11:10:18Z</time>
      </trkpt>
      <trkpt lat="42.71104" lon="1.65594">
        <ele>1414</ele>
        <time>2020-02-08T11:10:19Z</time>
      </trkpt>
      <trkpt lat="42.71104" lon="1.65593">
        <ele>1414</ele>
        <time>2020-02-08T11:10:20Z</time>
      </trkpt>
      <trkpt lat="42.71104" lon="1.65593">
        <ele>1414.1</ele>
        <time>2020-02-08T11:10:21Z</time>
      </trkpt>
      <trkpt lat="42.71104" lon="1.65592">
        <ele>1414.1</ele>
        <time>2020-02-08T11:10:22Z</time>
      </trkpt>
      <trkpt lat="42.71104" lon="1.65592">
        <ele>1414.1</ele>
        <time>2020-02-08T11:10:23Z</time>
      </trkpt>
      <trkpt lat="42.71104" lon="1.65591">
        <ele>1414.1</ele>
        <time>2020-02-08T11:10:24Z</time>
      </trkpt>
      <trkpt lat="42.71104" lon="1.6559">
        <ele>1414.2</ele>
        <time>2020-02-08T11:10:25Z</time>
      </trkpt>
      <trkpt lat="42.71104" lon="1.6559">
        <ele>1414.2</ele>
        <time>2020-02-08T11:10:26Z</time>
      </trkpt>
      <trkpt lat="42.71103" lon="1.65589">
        <ele>1414.2</ele>
        <time>2020-02-08T11:10:27Z</time>
      </trkpt>
      <trkpt lat="42.71103" lon="1.65589">
        <ele>1414.3</ele>
        <time>2020-02-08T11:10:28Z</time>
      </trkpt>
      <trkpt lat="42.71103" lon="1.65588">
        <ele>1414.3</ele>
        <time>2020-02-08T11:10:29Z</time>
      </trkpt>
      <trkpt lat="42.71103" lon="1.65588">
        <ele>1414.3</ele>
        <time>2020-02-08T11:10:30Z</time>
      </trkpt>
      <trkpt lat="42.71103" lon="1.65588">
        <ele>1414.3</ele>
        <time>2020-02-08T11:10:31Z</time>
      </trkpt>
      <trkpt lat="42.71103" lon="1.65588">
        <ele>1414.3</ele>
        <time>2020-02-08T11:10:32Z</time>
      </trkpt>
      <trkpt lat="42.71103" lon="1.65588">
        <ele>1414.3</ele>
        <time>2020-02-08T11:10:33Z</time>
      </trkpt>
      <trkpt lat="42.71104" lon="1.65591">
        <ele>1414.5</ele>
        <time>2020-02-08T11:10:34Z</time>
      </trkpt>
      <trkpt lat="42.71104" lon="1.65591">
        <ele>1414.5</ele>
        <time>2020-02-08T11:10:35Z</time>
      </trkpt>
      <trkpt lat="42.71104" lon="1.65591">
        <ele>1414.5</ele>
        <time>2020-02-08T11:10:36Z</time>
      </trkpt>
      <trkpt lat="42.71104" lon="1.65591">
        <ele>1414.5</ele>
        <time>2020-02-08T11:10:37Z</time>
      </trkpt>
      <trkpt lat="42.71104" lon="1.65591">
        <ele>1414.5</ele>
        <time>2020-02-08T11:10:38Z</time>
      </trkpt>
      <trkpt lat="42.71104" lon="1.65591">
        <ele>1414.5</ele>
        <time>2020-02-08T11:10:39Z</time>
      </trkpt>
      <trkpt lat="42.71104" lon="1.65593">
        <ele>1414.5</ele>
        <time>2020-02-08T11:10:40Z</time>
      </trkpt>
      <trkpt lat="42.71105" lon="1.65594">
        <ele>1414.6</ele>
        <time>2020-02-08T11:10:41Z</time>
      </trkpt>
      <trkpt lat="42.71105" lon="1.65595">
        <ele>1414.7</ele>
        <time>2020-02-08T11:10:42Z</time>
      </trkpt>
      <trkpt lat="42.71105" lon="1.65597">
        <ele>1414.9</ele>
        <time>2020-02-08T11:10:43Z</time>
      </trkpt>
      <trkpt lat="42.71105" lon="1.65598">
        <ele>1415</ele>
        <time>2020-02-08T11:10:44Z</time>
      </trkpt>
      <trkpt lat="42.71105" lon="1.65599">
        <ele>1415.1</ele>
        <time>2020-02-08T11:10:45Z</time>
      </trkpt>
      <trkpt lat="42.71105" lon="1.656">
        <ele>1415.2</ele>
        <time>2020-02-08T11:10:46Z</time>
      </trkpt>
      <trkpt lat="42.71105" lon="1.65602">
        <ele>1415.3</ele>
        <time>2020-02-08T11:10:47Z</time>
      </trkpt>
      <trkpt lat="42.71106" lon="1.65603">
        <ele>1415.4</ele>
        <time>2020-02-08T11:10:48Z</time>
      </trkpt>
      <trkpt lat="42.71106" lon="1.65604">
        <ele>1415.5</ele>
        <time>2020-02-08T11:10:49Z</time>
      </trkpt>
      <trkpt lat="42.71105" lon="1.65605">
        <ele>1415.6</ele>
        <time>2020-02-08T11:10:50Z</time>
      </trkpt>
      <trkpt lat="42.71105" lon="1.65605">
        <ele>1415.7</ele>
        <time>2020-02-08T11:10:51Z</time>
      </trkpt>
      <trkpt lat="42.71104" lon="1.65606">
        <ele>1415.7</ele>
        <time>2020-02-08T11:10:52Z</time>
      </trkpt>
      <trkpt lat="42.71104" lon="1.65606">
        <ele>1415.8</ele>
        <time>2020-02-08T11:10:53Z</time>
      </trkpt>
      <trkpt lat="42.71104" lon="1.65606">
        <ele>1415.8</ele>
        <time>2020-02-08T11:10:54Z</time>
      </trkpt>
      <trkpt lat="42.71103" lon="1.65607">
        <ele>1415.9</ele>
        <time>2020-02-08T11:10:55Z</time>
      </trkpt>
      <trkpt lat="42.71103" lon="1.65607">
        <ele>1416</ele>
        <time>2020-02-08T11:10:56Z</time>
      </trkpt>
      <trkpt lat="42.71102" lon="1.65608">
        <ele>1416</ele>
        <time>2020-02-08T11:10:57Z</time>
      </trkpt>
      <trkpt lat="42.71102" lon="1.65608">
        <ele>1416.1</ele>
        <time>2020-02-08T11:10:58Z</time>
      </trkpt>
      <trkpt lat="42.71101" lon="1.65608">
        <ele>1416.2</ele>
        <time>2020-02-08T11:10:59Z</time>
      </trkpt>
      <trkpt lat="42.71101" lon="1.65609">
        <ele>1416.2</ele>
        <time>2020-02-08T11:11:00Z</time>
      </trkpt>
      <trkpt lat="42.71101" lon="1.65609">
        <ele>1416.3</ele>
        <time>2020-02-08T11:11:01Z</time>
      </trkpt>
      <trkpt lat="42.711" lon="1.65609">
        <ele>1416.3</ele>
        <time>2020-02-08T11:11:02Z</time>
      </trkpt>
      <trkpt lat="42.711" lon="1.65609">
        <ele>1416.3</ele>
        <time>2020-02-08T11:11:03Z</time>
      </trkpt>
      <trkpt lat="42.711" lon="1.65609">
        <ele>1416.4</ele>
        <time>2020-02-08T11:11:04Z</time>
      </trkpt>
      <trkpt lat="42.711" lon="1.65609">
        <ele>1416.4</ele>
        <time>2020-02-08T11:11:05Z</time>
      </trkpt>
      <trkpt lat="42.71099" lon="1.65609">
        <ele>1416.5</ele>
        <time>2020-02-08T11:11:06Z</time>
      </trkpt>
      <trkpt lat="42.71099" lon="1.6561">
        <ele>1416.5</ele>
        <time>2020-02-08T11:11:07Z</time>
      </trkpt>
      <trkpt lat="42.71099" lon="1.6561">
        <ele>1416.6</ele>
        <time>2020-02-08T11:11:08Z</time>
      </trkpt>
      <trkpt lat="42.71098" lon="1.6561">
        <ele>1416.6</ele>
        <time>2020-02-08T11:11:09Z</time>
      </trkpt>
      <trkpt lat="42.71098" lon="1.6561">
        <ele>1416.7</ele>
        <time>2020-02-08T11:11:10Z</time>
      </trkpt>
      <trkpt lat="42.71098" lon="1.6561">
        <ele>1416.7</ele>
        <time>2020-02-08T11:11:11Z</time>
      </trkpt>
      <trkpt lat="42.71098" lon="1.6561">
        <ele>1416.7</ele>
        <time>2020-02-08T11:11:12Z</time>
      </trkpt>
      <trkpt lat="42.71097" lon="1.6561">
        <ele>1416.8</ele>
        <time>2020-02-08T11:11:13Z</time>
      </trkpt>
      <trkpt lat="42.71097" lon="1.65611">
        <ele>1416.8</ele>
        <time>2020-02-08T11:11:14Z</time>
      </trkpt>
      <trkpt lat="42.71097" lon="1.65611">
        <ele>1416.9</ele>
        <time>2020-02-08T11:11:15Z</time>
      </trkpt>
      <trkpt lat="42.71096" lon="1.65611">
        <ele>1416.9</ele>
        <time>2020-02-08T11:11:16Z</time>
      </trkpt>
      <trkpt lat="42.71096" lon="1.65611">
        <ele>1416.9</ele>
        <time>2020-02-08T11:11:17Z</time>
      </trkpt>
      <trkpt lat="42.71096" lon="1.65611">
        <ele>1417</ele>
        <time>2020-02-08T11:11:18Z</time>
      </trkpt>
      <trkpt lat="42.71096" lon="1.65611">
        <ele>1417</ele>
        <time>2020-02-08T11:11:19Z</time>
      </trkpt>
      <trkpt lat="42.71095" lon="1.65611">
        <ele>1417.1</ele>
        <time>2020-02-08T11:11:20Z</time>
      </trkpt>
      <trkpt lat="42.71095" lon="1.65612">
        <ele>1417.1</ele>
        <time>2020-02-08T11:11:21Z</time>
      </trkpt>
      <trkpt lat="42.71095" lon="1.65612">
        <ele>1417.2</ele>
        <time>2020-02-08T11:11:22Z</time>
      </trkpt>
      <trkpt lat="42.71094" lon="1.65612">
        <ele>1417.2</ele>
        <time>2020-02-08T11:11:23Z</time>
      </trkpt>
      <trkpt lat="42.71094" lon="1.65612">
        <ele>1417.2</ele>
        <time>2020-02-08T11:11:24Z</time>
      </trkpt>
      <trkpt lat="42.71094" lon="1.65612">
        <ele>1417.3</ele>
        <time>2020-02-08T11:11:25Z</time>
      </trkpt>
      <trkpt lat="42.71094" lon="1.65612">
        <ele>1417.3</ele>
        <time>2020-02-08T11:11:26Z</time>
      </trkpt>
      <trkpt lat="42.71093" lon="1.65612">
        <ele>1417.4</ele>
        <time>2020-02-08T11:11:27Z</time>
      </trkpt>
      <trkpt lat="42.71093" lon="1.65613">
        <ele>1417.4</ele>
        <time>2020-02-08T11:11:28Z</time>
      </trkpt>
      <trkpt lat="42.71093" lon="1.65613">
        <ele>1417.5</ele>
        <time>2020-02-08T11:11:29Z</time>
      </trkpt>
      <trkpt lat="42.71091" lon="1.65612">
        <ele>1417.7</ele>
        <time>2020-02-08T11:11:30Z</time>
      </trkpt>
      <trkpt lat="42.7109" lon="1.65612">
        <ele>1417.8</ele>
        <time>2020-02-08T11:11:31Z</time>
      </trkpt>
      <trkpt lat="42.7109" lon="1.65612">
        <ele>1417.8</ele>
        <time>2020-02-08T11:11:32Z</time>
      </trkpt>
      <trkpt lat="42.7109" lon="1.65611">
        <ele>1417.8</ele>
        <time>2020-02-08T11:11:33Z</time>
      </trkpt>
      <trkpt lat="42.7109" lon="1.65611">
        <ele>1417.8</ele>
        <time>2020-02-08T11:11:34Z</time>
      </trkpt>
      <trkpt lat="42.71089" lon="1.65611">
        <ele>1417.9</ele>
        <time>2020-02-08T11:11:35Z</time>
      </trkpt>
      <trkpt lat="42.71089" lon="1.65611">
        <ele>1417.9</ele>
        <time>2020-02-08T11:11:36Z</time>
      </trkpt>
      <trkpt lat="42.71089" lon="1.65611">
        <ele>1417.9</ele>
        <time>2020-02-08T11:11:37Z</time>
      </trkpt>
      <trkpt lat="42.71089" lon="1.65611">
        <ele>1418</ele>
        <time>2020-02-08T11:11:38Z</time>
      </trkpt>
      <trkpt lat="42.71088" lon="1.65611">
        <ele>1418</ele>
        <time>2020-02-08T11:11:39Z</time>
      </trkpt>
      <trkpt lat="42.71088" lon="1.6561">
        <ele>1418</ele>
        <time>2020-02-08T11:11:40Z</time>
      </trkpt>
      <trkpt lat="42.71088" lon="1.65609">
        <ele>1418.1</ele>
        <time>2020-02-08T11:11:41Z</time>
      </trkpt>
      <trkpt lat="42.71088" lon="1.65609">
        <ele>1418.1</ele>
        <time>2020-02-08T11:11:42Z</time>
      </trkpt>
      <trkpt lat="42.71088" lon="1.65608">
        <ele>1418.2</ele>
        <time>2020-02-08T11:11:43Z</time>
      </trkpt>
      <trkpt lat="42.71088" lon="1.65607">
        <ele>1418.2</ele>
        <time>2020-02-08T11:11:44Z</time>
      </trkpt>
      <trkpt lat="42.71088" lon="1.65607">
        <ele>1418.2</ele>
        <time>2020-02-08T11:11:45Z</time>
      </trkpt>
      <trkpt lat="42.71088" lon="1.65606">
        <ele>1418.3</ele>
        <time>2020-02-08T11:11:46Z</time>
      </trkpt>
      <trkpt lat="42.71088" lon="1.65605">
        <ele>1418.3</ele>
        <time>2020-02-08T11:11:47Z</time>
      </trkpt>
      <trkpt lat="42.71088" lon="1.65605">
        <ele>1418.4</ele>
        <time>2020-02-08T11:11:48Z</time>
      </trkpt>
      <trkpt lat="42.71088" lon="1.65604">
        <ele>1418.4</ele>
        <time>2020-02-08T11:11:49Z</time>
      </trkpt>
      <trkpt lat="42.71088" lon="1.65603">
        <ele>1418.5</ele>
        <time>2020-02-08T11:11:50Z</time>
      </trkpt>
      <trkpt lat="42.71088" lon="1.65603">
        <ele>1418.5</ele>
        <time>2020-02-08T11:11:51Z</time>
      </trkpt>
      <trkpt lat="42.71088" lon="1.65602">
        <ele>1418.6</ele>
        <time>2020-02-08T11:11:52Z</time>
      </trkpt>
      <trkpt lat="42.71088" lon="1.65602">
        <ele>1418.6</ele>
        <time>2020-02-08T11:11:53Z</time>
      </trkpt>
      <trkpt lat="42.71088" lon="1.65601">
        <ele>1418.6</ele>
        <time>2020-02-08T11:11:54Z</time>
      </trkpt>
      <trkpt lat="42.71088" lon="1.656">
        <ele>1418.7</ele>
        <time>2020-02-08T11:11:55Z</time>
      </trkpt>
      <trkpt lat="42.71088" lon="1.656">
        <ele>1418.7</ele>
        <time>2020-02-08T11:11:56Z</time>
      </trkpt>
      <trkpt lat="42.71088" lon="1.65599">
        <ele>1418.8</ele>
        <time>2020-02-08T11:11:57Z</time>
      </trkpt>
      <trkpt lat="42.71088" lon="1.65598">
        <ele>1418.8</ele>
        <time>2020-02-08T11:11:58Z</time>
      </trkpt>
      <trkpt lat="42.71088" lon="1.65598">
        <ele>1418.9</ele>
        <time>2020-02-08T11:11:59Z</time>
      </trkpt>
      <trkpt lat="42.71088" lon="1.65597">
        <ele>1419</ele>
        <time>2020-02-08T11:12:00Z</time>
      </trkpt>
      <trkpt lat="42.71088" lon="1.65596">
        <ele>1419</ele>
        <time>2020-02-08T11:12:01Z</time>
      </trkpt>
      <trkpt lat="42.71087" lon="1.65596">
        <ele>1419.1</ele>
        <time>2020-02-08T11:12:02Z</time>
      </trkpt>
      <trkpt lat="42.71087" lon="1.65595">
        <ele>1419.2</ele>
        <time>2020-02-08T11:12:03Z</time>
      </trkpt>
      <trkpt lat="42.71087" lon="1.65594">
        <ele>1419.3</ele>
        <time>2020-02-08T11:12:04Z</time>
      </trkpt>
      <trkpt lat="42.71087" lon="1.65593">
        <ele>1419.3</ele>
        <time>2020-02-08T11:12:05Z</time>
      </trkpt>
      <trkpt lat="42.71087" lon="1.65593">
        <ele>1419.4</ele>
        <time>2020-02-08T11:12:06Z</time>
      </trkpt>
      <trkpt lat="42.71087" lon="1.65592">
        <ele>1419.5</ele>
        <time>2020-02-08T11:12:07Z</time>
      </trkpt>
      <trkpt lat="42.71087" lon="1.65591">
        <ele>1419.6</ele>
        <time>2020-02-08T11:12:08Z</time>
      </trkpt>
      <trkpt lat="42.71087" lon="1.65591">
        <ele>1419.7</ele>
        <time>2020-02-08T11:12:09Z</time>
      </trkpt>
      <trkpt lat="42.71087" lon="1.6559">
        <ele>1419.7</ele>
        <time>2020-02-08T11:12:10Z</time>
      </trkpt>
      <trkpt lat="42.71087" lon="1.65589">
        <ele>1419.8</ele>
        <time>2020-02-08T11:12:11Z</time>
      </trkpt>
      <trkpt lat="42.71087" lon="1.65589">
        <ele>1419.9</ele>
        <time>2020-02-08T11:12:12Z</time>
      </trkpt>
      <trkpt lat="42.71087" lon="1.65588">
        <ele>1420</ele>
        <time>2020-02-08T11:12:13Z</time>
      </trkpt>
      <trkpt lat="42.71087" lon="1.65587">
        <ele>1420.1</ele>
        <time>2020-02-08T11:12:14Z</time>
      </trkpt>
      <trkpt lat="42.71087" lon="1.65586">
        <ele>1420.1</ele>
        <time>2020-02-08T11:12:15Z</time>
      </trkpt>
      <trkpt lat="42.71086" lon="1.65586">
        <ele>1420.2</ele>
        <time>2020-02-08T11:12:16Z</time>
      </trkpt>
      <trkpt lat="42.71086" lon="1.65585">
        <ele>1420.3</ele>
        <time>2020-02-08T11:12:17Z</time>
      </trkpt>
      <trkpt lat="42.71086" lon="1.65584">
        <ele>1420.4</ele>
        <time>2020-02-08T11:12:18Z</time>
      </trkpt>
      <trkpt lat="42.71086" lon="1.65584">
        <ele>1420.5</ele>
        <time>2020-02-08T11:12:19Z</time>
      </trkpt>
      <trkpt lat="42.71086" lon="1.65584">
        <ele>1420.5</ele>
        <time>2020-02-08T11:12:20Z</time>
      </trkpt>
      <trkpt lat="42.71087" lon="1.65583">
        <ele>1420.5</ele>
        <time>2020-02-08T11:12:21Z</time>
      </trkpt>
      <trkpt lat="42.71087" lon="1.65583">
        <ele>1420.6</ele>
        <time>2020-02-08T11:12:22Z</time>
      </trkpt>
      <trkpt lat="42.71087" lon="1.65583">
        <ele>1420.6</ele>
        <time>2020-02-08T11:12:23Z</time>
      </trkpt>
      <trkpt lat="42.71087" lon="1.65583">
        <ele>1420.6</ele>
        <time>2020-02-08T11:12:24Z</time>
      </trkpt>
      <trkpt lat="42.71087" lon="1.65583">
        <ele>1420.7</ele>
        <time>2020-02-08T11:12:25Z</time>
      </trkpt>
      <trkpt lat="42.71088" lon="1.65583">
        <ele>1420.7</ele>
        <time>2020-02-08T11:12:26Z</time>
      </trkpt>
      <trkpt lat="42.71088" lon="1.65583">
        <ele>1420.7</ele>
        <time>2020-02-08T11:12:27Z</time>
      </trkpt>
      <trkpt lat="42.71088" lon="1.65583">
        <ele>1420.7</ele>
        <time>2020-02-08T11:12:28Z</time>
      </trkpt>
      <trkpt lat="42.71088" lon="1.65583">
        <ele>1420.8</ele>
        <time>2020-02-08T11:12:29Z</time>
      </trkpt>
      <trkpt lat="42.71088" lon="1.65582">
        <ele>1420.8</ele>
        <time>2020-02-08T11:12:30Z</time>
      </trkpt>
      <trkpt lat="42.71088" lon="1.65582">
        <ele>1420.9</ele>
        <time>2020-02-08T11:12:31Z</time>
      </trkpt>
      <trkpt lat="42.71088" lon="1.65581">
        <ele>1420.9</ele>
        <time>2020-02-08T11:12:32Z</time>
      </trkpt>
      <trkpt lat="42.71088" lon="1.6558">
        <ele>1421</ele>
        <time>2020-02-08T11:12:33Z</time>
      </trkpt>
      <trkpt lat="42.71088" lon="1.6558">
        <ele>1421</ele>
        <time>2020-02-08T11:12:34Z</time>
      </trkpt>
      <trkpt lat="42.71088" lon="1.65579">
        <ele>1421.1</ele>
        <time>2020-02-08T11:12:35Z</time>
      </trkpt>
      <trkpt lat="42.71088" lon="1.65578">
        <ele>1421.1</ele>
        <time>2020-02-08T11:12:36Z</time>
      </trkpt>
      <trkpt lat="42.71088" lon="1.65578">
        <ele>1421.2</ele>
        <time>2020-02-08T11:12:37Z</time>
      </trkpt>
      <trkpt lat="42.71088" lon="1.65577">
        <ele>1421.2</ele>
        <time>2020-02-08T11:12:38Z</time>
      </trkpt>
      <trkpt lat="42.71088" lon="1.65577">
        <ele>1421.3</ele>
        <time>2020-02-08T11:12:39Z</time>
      </trkpt>
      <trkpt lat="42.71088" lon="1.65577">
        <ele>1421.3</ele>
        <time>2020-02-08T11:12:40Z</time>
      </trkpt>
      <trkpt lat="42.71088" lon="1.65577">
        <ele>1421.3</ele>
        <time>2020-02-08T11:12:41Z</time>
      </trkpt>
      <trkpt lat="42.71088" lon="1.65577">
        <ele>1421.3</ele>
        <time>2020-02-08T11:12:42Z</time>
      </trkpt>
      <trkpt lat="42.71088" lon="1.65577">
        <ele>1421.3</ele>
        <time>2020-02-08T11:12:43Z</time>
      </trkpt>
      <trkpt lat="42.71088" lon="1.65577">
        <ele>1421.3</ele>
        <time>2020-02-08T11:12:44Z</time>
      </trkpt>
      <trkpt lat="42.71087" lon="1.65572">
        <ele>1421.7</ele>
        <time>2020-02-08T11:12:45Z</time>
      </trkpt>
      <trkpt lat="42.71087" lon="1.65572">
        <ele>1421.7</ele>
        <time>2020-02-08T11:12:46Z</time>
      </trkpt>
      <trkpt lat="42.71087" lon="1.65572">
        <ele>1421.7</ele>
        <time>2020-02-08T11:12:47Z</time>
      </trkpt>
      <trkpt lat="42.71087" lon="1.65572">
        <ele>1421.7</ele>
        <time>2020-02-08T11:12:48Z</time>
      </trkpt>
      <trkpt lat="42.71087" lon="1.65572">
        <ele>1421.7</ele>
        <time>2020-02-08T11:12:49Z</time>
      </trkpt>
      <trkpt lat="42.71087" lon="1.65572">
        <ele>1421.7</ele>
        <time>2020-02-08T11:12:50Z</time>
      </trkpt>
      <trkpt lat="42.71087" lon="1.65571">
        <ele>1421.8</ele>
        <time>2020-02-08T11:12:51Z</time>
      </trkpt>
      <trkpt lat="42.71087" lon="1.6557">
        <ele>1421.8</ele>
        <time>2020-02-08T11:12:52Z</time>
      </trkpt>
      <trkpt lat="42.71087" lon="1.6557">
        <ele>1421.9</ele>
        <time>2020-02-08T11:12:53Z</time>
      </trkpt>
      <trkpt lat="42.71087" lon="1.65569">
        <ele>1421.9</ele>
        <time>2020-02-08T11:12:54Z</time>
      </trkpt>
      <trkpt lat="42.71086" lon="1.65569">
        <ele>1422</ele>
        <time>2020-02-08T11:12:55Z</time>
      </trkpt>
      <trkpt lat="42.71086" lon="1.65568">
        <ele>1422.1</ele>
        <time>2020-02-08T11:12:56Z</time>
      </trkpt>
      <trkpt lat="42.71086" lon="1.65567">
        <ele>1422.1</ele>
        <time>2020-02-08T11:12:57Z</time>
      </trkpt>
      <trkpt lat="42.71086" lon="1.65567">
        <ele>1422.2</ele>
        <time>2020-02-08T11:12:58Z</time>
      </trkpt>
      <trkpt lat="42.71086" lon="1.65566">
        <ele>1422.2</ele>
        <time>2020-02-08T11:12:59Z</time>
      </trkpt>
      <trkpt lat="42.71086" lon="1.65565">
        <ele>1422.3</ele>
        <time>2020-02-08T11:13:00Z</time>
      </trkpt>
      <trkpt lat="42.71086" lon="1.65565">
        <ele>1422.4</ele>
        <time>2020-02-08T11:13:01Z</time>
      </trkpt>
      <trkpt lat="42.71086" lon="1.65564">
        <ele>1422.5</ele>
        <time>2020-02-08T11:13:02Z</time>
      </trkpt>
      <trkpt lat="42.71086" lon="1.65564">
        <ele>1422.6</ele>
        <time>2020-02-08T11:13:03Z</time>
      </trkpt>
      <trkpt lat="42.71086" lon="1.65563">
        <ele>1422.7</ele>
        <time>2020-02-08T11:13:04Z</time>
      </trkpt>
      <trkpt lat="42.71086" lon="1.65562">
        <ele>1422.8</ele>
        <time>2020-02-08T11:13:05Z</time>
      </trkpt>
      <trkpt lat="42.71085" lon="1.65562">
        <ele>1422.9</ele>
        <time>2020-02-08T11:13:06Z</time>
      </trkpt>
      <trkpt lat="42.71085" lon="1.65561">
        <ele>1422.9</ele>
        <time>2020-02-08T11:13:07Z</time>
      </trkpt>
      <trkpt lat="42.71085" lon="1.6556">
        <ele>1423</ele>
        <time>2020-02-08T11:13:08Z</time>
      </trkpt>
      <trkpt lat="42.71085" lon="1.6556">
        <ele>1423.1</ele>
        <time>2020-02-08T11:13:09Z</time>
      </trkpt>
      <trkpt lat="42.71085" lon="1.65559">
        <ele>1423.3</ele>
        <time>2020-02-08T11:13:10Z</time>
      </trkpt>
      <trkpt lat="42.71085" lon="1.65558">
        <ele>1423.4</ele>
        <time>2020-02-08T11:13:11Z</time>
      </trkpt>
      <trkpt lat="42.71085" lon="1.65557">
        <ele>1423.5</ele>
        <time>2020-02-08T11:13:12Z</time>
      </trkpt>
      <trkpt lat="42.71085" lon="1.65556">
        <ele>1423.7</ele>
        <time>2020-02-08T11:13:13Z</time>
      </trkpt>
      <trkpt lat="42.71085" lon="1.65555">
        <ele>1423.8</ele>
        <time>2020-02-08T11:13:14Z</time>
      </trkpt>
      <trkpt lat="42.71085" lon="1.65554">
        <ele>1424</ele>
        <time>2020-02-08T11:13:15Z</time>
      </trkpt>
      <trkpt lat="42.71085" lon="1.65553">
        <ele>1424.1</ele>
        <time>2020-02-08T11:13:16Z</time>
      </trkpt>
      <trkpt lat="42.71085" lon="1.65552">
        <ele>1424.2</ele>
        <time>2020-02-08T11:13:17Z</time>
      </trkpt>
      <trkpt lat="42.71085" lon="1.65551">
        <ele>1424.4</ele>
        <time>2020-02-08T11:13:18Z</time>
      </trkpt>
      <trkpt lat="42.71085" lon="1.6555">
        <ele>1424.5</ele>
        <time>2020-02-08T11:13:19Z</time>
      </trkpt>
      <trkpt lat="42.71085" lon="1.6555">
        <ele>1424.5</ele>
        <time>2020-02-08T11:13:20Z</time>
      </trkpt>
      <trkpt lat="42.71085" lon="1.6555">
        <ele>1424.5</ele>
        <time>2020-02-08T11:13:21Z</time>
      </trkpt>
      <trkpt lat="42.71085" lon="1.6555">
        <ele>1424.5</ele>
        <time>2020-02-08T11:13:22Z</time>
      </trkpt>
      <trkpt lat="42.71085" lon="1.6555">
        <ele>1424.5</ele>
        <time>2020-02-08T11:13:23Z</time>
      </trkpt>
      <trkpt lat="42.71084" lon="1.65547">
        <ele>1424.8</ele>
        <time>2020-02-08T11:13:24Z</time>
      </trkpt>
      <trkpt lat="42.71084" lon="1.65547">
        <ele>1424.8</ele>
        <time>2020-02-08T11:13:25Z</time>
      </trkpt>
      <trkpt lat="42.71084" lon="1.65547">
        <ele>1424.8</ele>
        <time>2020-02-08T11:13:26Z</time>
      </trkpt>
      <trkpt lat="42.71084" lon="1.65547">
        <ele>1424.8</ele>
        <time>2020-02-08T11:13:27Z</time>
      </trkpt>
      <trkpt lat="42.71084" lon="1.65547">
        <ele>1424.8</ele>
        <time>2020-02-08T11:13:28Z</time>
      </trkpt>
      <trkpt lat="42.71084" lon="1.65547">
        <ele>1424.8</ele>
        <time>2020-02-08T11:13:29Z</time>
      </trkpt>
      <trkpt lat="42.71084" lon="1.65546">
        <ele>1424.9</ele>
        <time>2020-02-08T11:13:30Z</time>
      </trkpt>
      <trkpt lat="42.71084" lon="1.65544">
        <ele>1425</ele>
        <time>2020-02-08T11:13:31Z</time>
      </trkpt>
      <trkpt lat="42.71084" lon="1.65543">
        <ele>1425.1</ele>
        <time>2020-02-08T11:13:32Z</time>
      </trkpt>
      <trkpt lat="42.71085" lon="1.65542">
        <ele>1425.2</ele>
        <time>2020-02-08T11:13:33Z</time>
      </trkpt>
      <trkpt lat="42.71085" lon="1.65541">
        <ele>1425.3</ele>
        <time>2020-02-08T11:13:34Z</time>
      </trkpt>
      <trkpt lat="42.71085" lon="1.6554">
        <ele>1425.4</ele>
        <time>2020-02-08T11:13:35Z</time>
      </trkpt>
      <trkpt lat="42.71085" lon="1.65538">
        <ele>1425.5</ele>
        <time>2020-02-08T11:13:36Z</time>
      </trkpt>
      <trkpt lat="42.71085" lon="1.65537">
        <ele>1425.6</ele>
        <time>2020-02-08T11:13:37Z</time>
      </trkpt>
      <trkpt lat="42.71086" lon="1.65536">
        <ele>1425.7</ele>
        <time>2020-02-08T11:13:38Z</time>
      </trkpt>
      <trkpt lat="42.71086" lon="1.65535">
        <ele>1425.8</ele>
        <time>2020-02-08T11:13:39Z</time>
      </trkpt>
      <trkpt lat="42.71086" lon="1.65533">
        <ele>1425.9</ele>
        <time>2020-02-08T11:13:40Z</time>
      </trkpt>
      <trkpt lat="42.71086" lon="1.65532">
        <ele>1426.1</ele>
        <time>2020-02-08T11:13:41Z</time>
      </trkpt>
      <trkpt lat="42.71086" lon="1.65531">
        <ele>1426.2</ele>
        <time>2020-02-08T11:13:42Z</time>
      </trkpt>
      <trkpt lat="42.71087" lon="1.6553">
        <ele>1426.3</ele>
        <time>2020-02-08T11:13:43Z</time>
      </trkpt>
      <trkpt lat="42.71087" lon="1.65528">
        <ele>1426.5</ele>
        <time>2020-02-08T11:13:44Z</time>
      </trkpt>
      <trkpt lat="42.71087" lon="1.65527">
        <ele>1426.6</ele>
        <time>2020-02-08T11:13:45Z</time>
      </trkpt>
      <trkpt lat="42.71087" lon="1.65526">
        <ele>1426.8</ele>
        <time>2020-02-08T11:13:46Z</time>
      </trkpt>
      <trkpt lat="42.71087" lon="1.65525">
        <ele>1426.9</ele>
        <time>2020-02-08T11:13:47Z</time>
      </trkpt>
      <trkpt lat="42.71088" lon="1.65523">
        <ele>1427</ele>
        <time>2020-02-08T11:13:48Z</time>
      </trkpt>
      <trkpt lat="42.71088" lon="1.65522">
        <ele>1427.2</ele>
        <time>2020-02-08T11:13:49Z</time>
      </trkpt>
      <trkpt lat="42.71088" lon="1.65522">
        <ele>1427.2</ele>
        <time>2020-02-08T11:13:50Z</time>
      </trkpt>
      <trkpt lat="42.71088" lon="1.65521">
        <ele>1427.3</ele>
        <time>2020-02-08T11:13:51Z</time>
      </trkpt>
      <trkpt lat="42.71088" lon="1.6552">
        <ele>1427.4</ele>
        <time>2020-02-08T11:13:52Z</time>
      </trkpt>
      <trkpt lat="42.71088" lon="1.6552">
        <ele>1427.5</ele>
        <time>2020-02-08T11:13:53Z</time>
      </trkpt>
      <trkpt lat="42.71088" lon="1.65519">
        <ele>1427.5</ele>
        <time>2020-02-08T11:13:54Z</time>
      </trkpt>
      <trkpt lat="42.71088" lon="1.65519">
        <ele>1427.6</ele>
        <time>2020-02-08T11:13:55Z</time>
      </trkpt>
      <trkpt lat="42.71088" lon="1.65518">
        <ele>1427.7</ele>
        <time>2020-02-08T11:13:56Z</time>
      </trkpt>
      <trkpt lat="42.71088" lon="1.65517">
        <ele>1427.7</ele>
        <time>2020-02-08T11:13:57Z</time>
      </trkpt>
      <trkpt lat="42.71089" lon="1.65517">
        <ele>1427.8</ele>
        <time>2020-02-08T11:13:58Z</time>
      </trkpt>
      <trkpt lat="42.71089" lon="1.65516">
        <ele>1427.9</ele>
        <time>2020-02-08T11:13:59Z</time>
      </trkpt>
      <trkpt lat="42.71089" lon="1.65516">
        <ele>1427.9</ele>
        <time>2020-02-08T11:14:00Z</time>
      </trkpt>
      <trkpt lat="42.71089" lon="1.65515">
        <ele>1428</ele>
        <time>2020-02-08T11:14:01Z</time>
      </trkpt>
      <trkpt lat="42.71089" lon="1.65514">
        <ele>1428.1</ele>
        <time>2020-02-08T11:14:02Z</time>
      </trkpt>
      <trkpt lat="42.71089" lon="1.65514">
        <ele>1428.1</ele>
        <time>2020-02-08T11:14:03Z</time>
      </trkpt>
      <trkpt lat="42.71089" lon="1.65513">
        <ele>1428.2</ele>
        <time>2020-02-08T11:14:04Z</time>
      </trkpt>
      <trkpt lat="42.71089" lon="1.65512">
        <ele>1428.3</ele>
        <time>2020-02-08T11:14:05Z</time>
      </trkpt>
      <trkpt lat="42.71089" lon="1.65512">
        <ele>1428.4</ele>
        <time>2020-02-08T11:14:06Z</time>
      </trkpt>
      <trkpt lat="42.71089" lon="1.65511">
        <ele>1428.4</ele>
        <time>2020-02-08T11:14:07Z</time>
      </trkpt>
      <trkpt lat="42.71089" lon="1.65511">
        <ele>1428.5</ele>
        <time>2020-02-08T11:14:08Z</time>
      </trkpt>
      <trkpt lat="42.71089" lon="1.6551">
        <ele>1428.6</ele>
        <time>2020-02-08T11:14:09Z</time>
      </trkpt>
      <trkpt lat="42.7109" lon="1.65509">
        <ele>1428.7</ele>
        <time>2020-02-08T11:14:10Z</time>
      </trkpt>
      <trkpt lat="42.71091" lon="1.65508">
        <ele>1428.9</ele>
        <time>2020-02-08T11:14:11Z</time>
      </trkpt>
      <trkpt lat="42.71092" lon="1.65508">
        <ele>1429</ele>
        <time>2020-02-08T11:14:12Z</time>
      </trkpt>
      <trkpt lat="42.71092" lon="1.65507">
        <ele>1429.2</ele>
        <time>2020-02-08T11:14:13Z</time>
      </trkpt>
      <trkpt lat="42.71093" lon="1.65506">
        <ele>1429.3</ele>
        <time>2020-02-08T11:14:14Z</time>
      </trkpt>
      <trkpt lat="42.71094" lon="1.65505">
        <ele>1429.4</ele>
        <time>2020-02-08T11:14:15Z</time>
      </trkpt>
      <trkpt lat="42.71095" lon="1.65504">
        <ele>1429.6</ele>
        <time>2020-02-08T11:14:16Z</time>
      </trkpt>
      <trkpt lat="42.71095" lon="1.65503">
        <ele>1429.7</ele>
        <time>2020-02-08T11:14:17Z</time>
      </trkpt>
      <trkpt lat="42.71096" lon="1.65503">
        <ele>1429.8</ele>
        <time>2020-02-08T11:14:18Z</time>
      </trkpt>
      <trkpt lat="42.71097" lon="1.65502">
        <ele>1429.9</ele>
        <time>2020-02-08T11:14:19Z</time>
      </trkpt>
      <trkpt lat="42.71098" lon="1.65501">
        <ele>1429.9</ele>
        <time>2020-02-08T11:14:20Z</time>
      </trkpt>
      <trkpt lat="42.71098" lon="1.655">
        <ele>1430</ele>
        <time>2020-02-08T11:14:21Z</time>
      </trkpt>
      <trkpt lat="42.71099" lon="1.65499">
        <ele>1430.1</ele>
        <time>2020-02-08T11:14:22Z</time>
      </trkpt>
      <trkpt lat="42.711" lon="1.65498">
        <ele>1430.2</ele>
        <time>2020-02-08T11:14:23Z</time>
      </trkpt>
      <trkpt lat="42.71101" lon="1.65498">
        <ele>1430.3</ele>
        <time>2020-02-08T11:14:24Z</time>
      </trkpt>
      <trkpt lat="42.71101" lon="1.65497">
        <ele>1430.4</ele>
        <time>2020-02-08T11:14:25Z</time>
      </trkpt>
      <trkpt lat="42.71102" lon="1.65496">
        <ele>1430.5</ele>
        <time>2020-02-08T11:14:26Z</time>
      </trkpt>
      <trkpt lat="42.71103" lon="1.65495">
        <ele>1430.6</ele>
        <time>2020-02-08T11:14:27Z</time>
      </trkpt>
      <trkpt lat="42.71104" lon="1.65494">
        <ele>1430.7</ele>
        <time>2020-02-08T11:14:28Z</time>
      </trkpt>
      <trkpt lat="42.71104" lon="1.65493">
        <ele>1430.8</ele>
        <time>2020-02-08T11:14:29Z</time>
      </trkpt>
      <trkpt lat="42.71106" lon="1.65493">
        <ele>1431.1</ele>
        <time>2020-02-08T11:14:30Z</time>
      </trkpt>
      <trkpt lat="42.71106" lon="1.65493">
        <ele>1431.1</ele>
        <time>2020-02-08T11:14:31Z</time>
      </trkpt>
      <trkpt lat="42.71106" lon="1.65493">
        <ele>1431.1</ele>
        <time>2020-02-08T11:14:32Z</time>
      </trkpt>
      <trkpt lat="42.71106" lon="1.65493">
        <ele>1431.1</ele>
        <time>2020-02-08T11:14:33Z</time>
      </trkpt>
      <trkpt lat="42.71106" lon="1.65493">
        <ele>1431.1</ele>
        <time>2020-02-08T11:14:34Z</time>
      </trkpt>
      <trkpt lat="42.71106" lon="1.65493">
        <ele>1431.1</ele>
        <time>2020-02-08T11:14:35Z</time>
      </trkpt>
      <trkpt lat="42.71106" lon="1.65493">
        <ele>1431.1</ele>
        <time>2020-02-08T11:14:36Z</time>
      </trkpt>
      <trkpt lat="42.71106" lon="1.65493">
        <ele>1431.1</ele>
        <time>2020-02-08T11:14:37Z</time>
      </trkpt>
      <trkpt lat="42.71106" lon="1.65493">
        <ele>1431.1</ele>
        <time>2020-02-08T11:14:38Z</time>
      </trkpt>
      <trkpt lat="42.71106" lon="1.65493">
        <ele>1431.1</ele>
        <time>2020-02-08T11:14:39Z</time>
      </trkpt>
      <trkpt lat="42.71107" lon="1.65492">
        <ele>1431.2</ele>
        <time>2020-02-08T11:14:40Z</time>
      </trkpt>
      <trkpt lat="42.71107" lon="1.65491">
        <ele>1431.3</ele>
        <time>2020-02-08T11:14:41Z</time>
      </trkpt>
      <trkpt lat="42.71107" lon="1.6549">
        <ele>1431.3</ele>
        <time>2020-02-08T11:14:42Z</time>
      </trkpt>
      <trkpt lat="42.71107" lon="1.6549">
        <ele>1431.4</ele>
        <time>2020-02-08T11:14:43Z</time>
      </trkpt>
      <trkpt lat="42.71107" lon="1.65489">
        <ele>1431.5</ele>
        <time>2020-02-08T11:14:44Z</time>
      </trkpt>
      <trkpt lat="42.71107" lon="1.65488">
        <ele>1431.6</ele>
        <time>2020-02-08T11:14:45Z</time>
      </trkpt>
      <trkpt lat="42.71108" lon="1.65487">
        <ele>1431.7</ele>
        <time>2020-02-08T11:14:46Z</time>
      </trkpt>
      <trkpt lat="42.71108" lon="1.65486">
        <ele>1431.7</ele>
        <time>2020-02-08T11:14:47Z</time>
      </trkpt>
      <trkpt lat="42.71108" lon="1.65485">
        <ele>1431.8</ele>
        <time>2020-02-08T11:14:48Z</time>
      </trkpt>
      <trkpt lat="42.71108" lon="1.65484">
        <ele>1431.9</ele>
        <time>2020-02-08T11:14:49Z</time>
      </trkpt>
      <trkpt lat="42.71108" lon="1.65484">
        <ele>1432</ele>
        <time>2020-02-08T11:14:50Z</time>
      </trkpt>
      <trkpt lat="42.71108" lon="1.65483">
        <ele>1432</ele>
        <time>2020-02-08T11:14:51Z</time>
      </trkpt>
      <trkpt lat="42.71108" lon="1.65483">
        <ele>1432.1</ele>
        <time>2020-02-08T11:14:52Z</time>
      </trkpt>
      <trkpt lat="42.71108" lon="1.65482">
        <ele>1432.1</ele>
        <time>2020-02-08T11:14:53Z</time>
      </trkpt>
      <trkpt lat="42.71108" lon="1.65481">
        <ele>1432.2</ele>
        <time>2020-02-08T11:14:54Z</time>
      </trkpt>
      <trkpt lat="42.71108" lon="1.65481">
        <ele>1432.2</ele>
        <time>2020-02-08T11:14:55Z</time>
      </trkpt>
      <trkpt lat="42.71108" lon="1.6548">
        <ele>1432.2</ele>
        <time>2020-02-08T11:14:56Z</time>
      </trkpt>
      <trkpt lat="42.71108" lon="1.65479">
        <ele>1432.3</ele>
        <time>2020-02-08T11:14:57Z</time>
      </trkpt>
      <trkpt lat="42.71108" lon="1.65479">
        <ele>1432.3</ele>
        <time>2020-02-08T11:14:58Z</time>
      </trkpt>
      <trkpt lat="42.71109" lon="1.65478">
        <ele>1432.3</ele>
        <time>2020-02-08T11:14:59Z</time>
      </trkpt>
      <trkpt lat="42.71109" lon="1.65478">
        <ele>1432.4</ele>
        <time>2020-02-08T11:15:00Z</time>
      </trkpt>
      <trkpt lat="42.71109" lon="1.65477">
        <ele>1432.4</ele>
        <time>2020-02-08T11:15:01Z</time>
      </trkpt>
      <trkpt lat="42.71109" lon="1.65476">
        <ele>1432.4</ele>
        <time>2020-02-08T11:15:02Z</time>
      </trkpt>
      <trkpt lat="42.71109" lon="1.65476">
        <ele>1432.5</ele>
        <time>2020-02-08T11:15:03Z</time>
      </trkpt>
      <trkpt lat="42.71109" lon="1.65475">
        <ele>1432.5</ele>
        <time>2020-02-08T11:15:04Z</time>
      </trkpt>
      <trkpt lat="42.71109" lon="1.65474">
        <ele>1432.6</ele>
        <time>2020-02-08T11:15:05Z</time>
      </trkpt>
      <trkpt lat="42.71109" lon="1.65474">
        <ele>1432.6</ele>
        <time>2020-02-08T11:15:06Z</time>
      </trkpt>
      <trkpt lat="42.71109" lon="1.65473">
        <ele>1432.6</ele>
        <time>2020-02-08T11:15:07Z</time>
      </trkpt>
      <trkpt lat="42.71109" lon="1.65473">
        <ele>1432.7</ele>
        <time>2020-02-08T11:15:08Z</time>
      </trkpt>
      <trkpt lat="42.71109" lon="1.65472">
        <ele>1432.7</ele>
        <time>2020-02-08T11:15:09Z</time>
      </trkpt>
      <trkpt lat="42.7111" lon="1.65471">
        <ele>1432.8</ele>
        <time>2020-02-08T11:15:10Z</time>
      </trkpt>
      <trkpt lat="42.7111" lon="1.6547">
        <ele>1432.8</ele>
        <time>2020-02-08T11:15:11Z</time>
      </trkpt>
      <trkpt lat="42.71111" lon="1.65469">
        <ele>1432.9</ele>
        <time>2020-02-08T11:15:12Z</time>
      </trkpt>
      <trkpt lat="42.71112" lon="1.65468">
        <ele>1433</ele>
        <time>2020-02-08T11:15:13Z</time>
      </trkpt>
      <trkpt lat="42.71112" lon="1.65467">
        <ele>1433.1</ele>
        <time>2020-02-08T11:15:14Z</time>
      </trkpt>
      <trkpt lat="42.71113" lon="1.65466">
        <ele>1433.2</ele>
        <time>2020-02-08T11:15:15Z</time>
      </trkpt>
      <trkpt lat="42.71114" lon="1.65465">
        <ele>1433.3</ele>
        <time>2020-02-08T11:15:16Z</time>
      </trkpt>
      <trkpt lat="42.71114" lon="1.65465">
        <ele>1433.4</ele>
        <time>2020-02-08T11:15:17Z</time>
      </trkpt>
      <trkpt lat="42.71115" lon="1.65464">
        <ele>1433.5</ele>
        <time>2020-02-08T11:15:18Z</time>
      </trkpt>
      <trkpt lat="42.71116" lon="1.65463">
        <ele>1433.6</ele>
        <time>2020-02-08T11:15:19Z</time>
      </trkpt>
      <trkpt lat="42.71116" lon="1.65461">
        <ele>1433.8</ele>
        <time>2020-02-08T11:15:20Z</time>
      </trkpt>
      <trkpt lat="42.71117" lon="1.6546">
        <ele>1433.9</ele>
        <time>2020-02-08T11:15:21Z</time>
      </trkpt>
      <trkpt lat="42.71117" lon="1.65458">
        <ele>1434.1</ele>
        <time>2020-02-08T11:15:22Z</time>
      </trkpt>
      <trkpt lat="42.71118" lon="1.65457">
        <ele>1434.2</ele>
        <time>2020-02-08T11:15:23Z</time>
      </trkpt>
      <trkpt lat="42.71118" lon="1.65456">
        <ele>1434.4</ele>
        <time>2020-02-08T11:15:24Z</time>
      </trkpt>
      <trkpt lat="42.71119" lon="1.65454">
        <ele>1434.5</ele>
        <time>2020-02-08T11:15:25Z</time>
      </trkpt>
      <trkpt lat="42.71119" lon="1.65453">
        <ele>1434.7</ele>
        <time>2020-02-08T11:15:26Z</time>
      </trkpt>
      <trkpt lat="42.7112" lon="1.65451">
        <ele>1434.8</ele>
        <time>2020-02-08T11:15:27Z</time>
      </trkpt>
      <trkpt lat="42.7112" lon="1.6545">
        <ele>1435</ele>
        <time>2020-02-08T11:15:28Z</time>
      </trkpt>
      <trkpt lat="42.71121" lon="1.65448">
        <ele>1435.2</ele>
        <time>2020-02-08T11:15:29Z</time>
      </trkpt>
      <trkpt lat="42.71121" lon="1.65448">
        <ele>1435.2</ele>
        <time>2020-02-08T11:15:30Z</time>
      </trkpt>
      <trkpt lat="42.71121" lon="1.65447">
        <ele>1435.3</ele>
        <time>2020-02-08T11:15:31Z</time>
      </trkpt>
      <trkpt lat="42.71121" lon="1.65447">
        <ele>1435.3</ele>
        <time>2020-02-08T11:15:32Z</time>
      </trkpt>
      <trkpt lat="42.71121" lon="1.65446">
        <ele>1435.4</ele>
        <time>2020-02-08T11:15:33Z</time>
      </trkpt>
      <trkpt lat="42.71122" lon="1.65446">
        <ele>1435.5</ele>
        <time>2020-02-08T11:15:34Z</time>
      </trkpt>
      <trkpt lat="42.71122" lon="1.65445">
        <ele>1435.5</ele>
        <time>2020-02-08T11:15:35Z</time>
      </trkpt>
      <trkpt lat="42.71122" lon="1.65445">
        <ele>1435.6</ele>
        <time>2020-02-08T11:15:36Z</time>
      </trkpt>
      <trkpt lat="42.71122" lon="1.65444">
        <ele>1435.6</ele>
        <time>2020-02-08T11:15:37Z</time>
      </trkpt>
      <trkpt lat="42.71122" lon="1.65444">
        <ele>1435.7</ele>
        <time>2020-02-08T11:15:38Z</time>
      </trkpt>
      <trkpt lat="42.71123" lon="1.65443">
        <ele>1435.7</ele>
        <time>2020-02-08T11:15:39Z</time>
      </trkpt>
      <trkpt lat="42.71123" lon="1.65443">
        <ele>1435.8</ele>
        <time>2020-02-08T11:15:40Z</time>
      </trkpt>
      <trkpt lat="42.71123" lon="1.65442">
        <ele>1435.9</ele>
        <time>2020-02-08T11:15:41Z</time>
      </trkpt>
      <trkpt lat="42.71123" lon="1.65441">
        <ele>1436</ele>
        <time>2020-02-08T11:15:42Z</time>
      </trkpt>
      <trkpt lat="42.71123" lon="1.65441">
        <ele>1436</ele>
        <time>2020-02-08T11:15:43Z</time>
      </trkpt>
      <trkpt lat="42.71123" lon="1.6544">
        <ele>1436.1</ele>
        <time>2020-02-08T11:15:44Z</time>
      </trkpt>
      <trkpt lat="42.71123" lon="1.65439">
        <ele>1436.2</ele>
        <time>2020-02-08T11:15:45Z</time>
      </trkpt>
      <trkpt lat="42.71123" lon="1.65439">
        <ele>1436.2</ele>
        <time>2020-02-08T11:15:46Z</time>
      </trkpt>
      <trkpt lat="42.71123" lon="1.65438">
        <ele>1436.3</ele>
        <time>2020-02-08T11:15:47Z</time>
      </trkpt>
      <trkpt lat="42.71123" lon="1.65437">
        <ele>1436.3</ele>
        <time>2020-02-08T11:15:48Z</time>
      </trkpt>
      <trkpt lat="42.71123" lon="1.65437">
        <ele>1436.4</ele>
        <time>2020-02-08T11:15:49Z</time>
      </trkpt>
      <trkpt lat="42.71123" lon="1.65436">
        <ele>1436.4</ele>
        <time>2020-02-08T11:15:50Z</time>
      </trkpt>
      <trkpt lat="42.71123" lon="1.65435">
        <ele>1436.5</ele>
        <time>2020-02-08T11:15:51Z</time>
      </trkpt>
      <trkpt lat="42.71124" lon="1.65435">
        <ele>1436.5</ele>
        <time>2020-02-08T11:15:52Z</time>
      </trkpt>
      <trkpt lat="42.71124" lon="1.65434">
        <ele>1436.6</ele>
        <time>2020-02-08T11:15:53Z</time>
      </trkpt>
      <trkpt lat="42.71124" lon="1.65433">
        <ele>1436.6</ele>
        <time>2020-02-08T11:15:54Z</time>
      </trkpt>
      <trkpt lat="42.71124" lon="1.65433">
        <ele>1436.7</ele>
        <time>2020-02-08T11:15:55Z</time>
      </trkpt>
      <trkpt lat="42.71124" lon="1.65432">
        <ele>1436.7</ele>
        <time>2020-02-08T11:15:56Z</time>
      </trkpt>
      <trkpt lat="42.71124" lon="1.65431">
        <ele>1436.7</ele>
        <time>2020-02-08T11:15:57Z</time>
      </trkpt>
      <trkpt lat="42.71124" lon="1.65431">
        <ele>1436.8</ele>
        <time>2020-02-08T11:15:58Z</time>
      </trkpt>
      <trkpt lat="42.71124" lon="1.6543">
        <ele>1436.8</ele>
        <time>2020-02-08T11:15:59Z</time>
      </trkpt>
      <trkpt lat="42.71124" lon="1.65429">
        <ele>1436.9</ele>
        <time>2020-02-08T11:16:00Z</time>
      </trkpt>
      <trkpt lat="42.71124" lon="1.65428">
        <ele>1437</ele>
        <time>2020-02-08T11:16:01Z</time>
      </trkpt>
      <trkpt lat="42.71124" lon="1.65427">
        <ele>1437</ele>
        <time>2020-02-08T11:16:02Z</time>
      </trkpt>
      <trkpt lat="42.71124" lon="1.65426">
        <ele>1437.1</ele>
        <time>2020-02-08T11:16:03Z</time>
      </trkpt>
      <trkpt lat="42.71124" lon="1.65425">
        <ele>1437.2</ele>
        <time>2020-02-08T11:16:04Z</time>
      </trkpt>
      <trkpt lat="42.71124" lon="1.65424">
        <ele>1437.2</ele>
        <time>2020-02-08T11:16:05Z</time>
      </trkpt>
      <trkpt lat="42.71124" lon="1.65424">
        <ele>1437.3</ele>
        <time>2020-02-08T11:16:06Z</time>
      </trkpt>
      <trkpt lat="42.71124" lon="1.65423">
        <ele>1437.4</ele>
        <time>2020-02-08T11:16:07Z</time>
      </trkpt>
      <trkpt lat="42.71124" lon="1.65422">
        <ele>1437.5</ele>
        <time>2020-02-08T11:16:08Z</time>
      </trkpt>
      <trkpt lat="42.71124" lon="1.65421">
        <ele>1437.6</ele>
        <time>2020-02-08T11:16:09Z</time>
      </trkpt>
      <trkpt lat="42.71124" lon="1.6542">
        <ele>1437.7</ele>
        <time>2020-02-08T11:16:10Z</time>
      </trkpt>
      <trkpt lat="42.71124" lon="1.65418">
        <ele>1437.8</ele>
        <time>2020-02-08T11:16:11Z</time>
      </trkpt>
      <trkpt lat="42.71124" lon="1.65417">
        <ele>1437.9</ele>
        <time>2020-02-08T11:16:12Z</time>
      </trkpt>
      <trkpt lat="42.71124" lon="1.65416">
        <ele>1438</ele>
        <time>2020-02-08T11:16:13Z</time>
      </trkpt>
      <trkpt lat="42.71124" lon="1.65415">
        <ele>1438.1</ele>
        <time>2020-02-08T11:16:14Z</time>
      </trkpt>
      <trkpt lat="42.71124" lon="1.65414">
        <ele>1438.3</ele>
        <time>2020-02-08T11:16:15Z</time>
      </trkpt>
      <trkpt lat="42.71124" lon="1.65413">
        <ele>1438.4</ele>
        <time>2020-02-08T11:16:16Z</time>
      </trkpt>
      <trkpt lat="42.71124" lon="1.65411">
        <ele>1438.5</ele>
        <time>2020-02-08T11:16:17Z</time>
      </trkpt>
      <trkpt lat="42.71124" lon="1.6541">
        <ele>1438.6</ele>
        <time>2020-02-08T11:16:18Z</time>
      </trkpt>
      <trkpt lat="42.71124" lon="1.65409">
        <ele>1438.7</ele>
        <time>2020-02-08T11:16:19Z</time>
      </trkpt>
      <trkpt lat="42.71124" lon="1.65408">
        <ele>1438.8</ele>
        <time>2020-02-08T11:16:20Z</time>
      </trkpt>
      <trkpt lat="42.71124" lon="1.65407">
        <ele>1438.9</ele>
        <time>2020-02-08T11:16:21Z</time>
      </trkpt>
      <trkpt lat="42.71124" lon="1.65407">
        <ele>1438.9</ele>
        <time>2020-02-08T11:16:22Z</time>
      </trkpt>
      <trkpt lat="42.71124" lon="1.65406">
        <ele>1439</ele>
        <time>2020-02-08T11:16:23Z</time>
      </trkpt>
      <trkpt lat="42.71124" lon="1.65405">
        <ele>1439.1</ele>
        <time>2020-02-08T11:16:24Z</time>
      </trkpt>
      <trkpt lat="42.71124" lon="1.65404">
        <ele>1439.1</ele>
        <time>2020-02-08T11:16:25Z</time>
      </trkpt>
      <trkpt lat="42.71124" lon="1.65403">
        <ele>1439.2</ele>
        <time>2020-02-08T11:16:26Z</time>
      </trkpt>
      <trkpt lat="42.71124" lon="1.65402">
        <ele>1439.2</ele>
        <time>2020-02-08T11:16:27Z</time>
      </trkpt>
      <trkpt lat="42.71124" lon="1.65402">
        <ele>1439.3</ele>
        <time>2020-02-08T11:16:28Z</time>
      </trkpt>
      <trkpt lat="42.71124" lon="1.65401">
        <ele>1439.4</ele>
        <time>2020-02-08T11:16:29Z</time>
      </trkpt>
      <trkpt lat="42.71123" lon="1.65397">
        <ele>1439.7</ele>
        <time>2020-02-08T11:16:30Z</time>
      </trkpt>
      <trkpt lat="42.71123" lon="1.65396">
        <ele>1439.7</ele>
        <time>2020-02-08T11:16:31Z</time>
      </trkpt>
      <trkpt lat="42.71124" lon="1.65395">
        <ele>1439.8</ele>
        <time>2020-02-08T11:16:32Z</time>
      </trkpt>
      <trkpt lat="42.71124" lon="1.65395">
        <ele>1439.9</ele>
        <time>2020-02-08T11:16:33Z</time>
      </trkpt>
      <trkpt lat="42.71124" lon="1.65394">
        <ele>1440</ele>
        <time>2020-02-08T11:16:34Z</time>
      </trkpt>
      <trkpt lat="42.71125" lon="1.65393">
        <ele>1440</ele>
        <time>2020-02-08T11:16:35Z</time>
      </trkpt>
      <trkpt lat="42.71125" lon="1.65392">
        <ele>1440.1</ele>
        <time>2020-02-08T11:16:36Z</time>
      </trkpt>
      <trkpt lat="42.71125" lon="1.65391">
        <ele>1440.2</ele>
        <time>2020-02-08T11:16:37Z</time>
      </trkpt>
      <trkpt lat="42.71126" lon="1.6539">
        <ele>1440.3</ele>
        <time>2020-02-08T11:16:38Z</time>
      </trkpt>
      <trkpt lat="42.71126" lon="1.65389">
        <ele>1440.4</ele>
        <time>2020-02-08T11:16:39Z</time>
      </trkpt>
      <trkpt lat="42.71126" lon="1.65389">
        <ele>1440.5</ele>
        <time>2020-02-08T11:16:40Z</time>
      </trkpt>
      <trkpt lat="42.71126" lon="1.65388">
        <ele>1440.5</ele>
        <time>2020-02-08T11:16:41Z</time>
      </trkpt>
      <trkpt lat="42.71126" lon="1.65387">
        <ele>1440.6</ele>
        <time>2020-02-08T11:16:42Z</time>
      </trkpt>
      <trkpt lat="42.71126" lon="1.65386">
        <ele>1440.7</ele>
        <time>2020-02-08T11:16:43Z</time>
      </trkpt>
      <trkpt lat="42.71126" lon="1.65386">
        <ele>1440.7</ele>
        <time>2020-02-08T11:16:44Z</time>
      </trkpt>
      <trkpt lat="42.71126" lon="1.65385">
        <ele>1440.8</ele>
        <time>2020-02-08T11:16:45Z</time>
      </trkpt>
      <trkpt lat="42.71126" lon="1.65384">
        <ele>1440.9</ele>
        <time>2020-02-08T11:16:46Z</time>
      </trkpt>
      <trkpt lat="42.71126" lon="1.65383">
        <ele>1441</ele>
        <time>2020-02-08T11:16:47Z</time>
      </trkpt>
      <trkpt lat="42.71126" lon="1.65383">
        <ele>1441</ele>
        <time>2020-02-08T11:16:48Z</time>
      </trkpt>
      <trkpt lat="42.71126" lon="1.65382">
        <ele>1441.1</ele>
        <time>2020-02-08T11:16:49Z</time>
      </trkpt>
      <trkpt lat="42.71126" lon="1.65381">
        <ele>1441.1</ele>
        <time>2020-02-08T11:16:50Z</time>
      </trkpt>
      <trkpt lat="42.71126" lon="1.65381">
        <ele>1441.2</ele>
        <time>2020-02-08T11:16:51Z</time>
      </trkpt>
      <trkpt lat="42.71126" lon="1.6538">
        <ele>1441.3</ele>
        <time>2020-02-08T11:16:52Z</time>
      </trkpt>
      <trkpt lat="42.71127" lon="1.6538">
        <ele>1441.3</ele>
        <time>2020-02-08T11:16:53Z</time>
      </trkpt>
      <trkpt lat="42.71127" lon="1.65379">
        <ele>1441.4</ele>
        <time>2020-02-08T11:16:54Z</time>
      </trkpt>
      <trkpt lat="42.71127" lon="1.65378">
        <ele>1441.4</ele>
        <time>2020-02-08T11:16:55Z</time>
      </trkpt>
      <trkpt lat="42.71127" lon="1.65378">
        <ele>1441.5</ele>
        <time>2020-02-08T11:16:56Z</time>
      </trkpt>
      <trkpt lat="42.71127" lon="1.65377">
        <ele>1441.6</ele>
        <time>2020-02-08T11:16:57Z</time>
      </trkpt>
      <trkpt lat="42.71128" lon="1.65377">
        <ele>1441.6</ele>
        <time>2020-02-08T11:16:58Z</time>
      </trkpt>
      <trkpt lat="42.71128" lon="1.65376">
        <ele>1441.6</ele>
        <time>2020-02-08T11:16:59Z</time>
      </trkpt>
      <trkpt lat="42.71128" lon="1.65376">
        <ele>1441.6</ele>
        <time>2020-02-08T11:17:00Z</time>
      </trkpt>
      <trkpt lat="42.71128" lon="1.65375">
        <ele>1441.6</ele>
        <time>2020-02-08T11:17:01Z</time>
      </trkpt>
      <trkpt lat="42.71128" lon="1.65374">
        <ele>1441.6</ele>
        <time>2020-02-08T11:17:02Z</time>
      </trkpt>
      <trkpt lat="42.71128" lon="1.65374">
        <ele>1441.7</ele>
        <time>2020-02-08T11:17:03Z</time>
      </trkpt>
      <trkpt lat="42.71129" lon="1.65373">
        <ele>1441.7</ele>
        <time>2020-02-08T11:17:04Z</time>
      </trkpt>
      <trkpt lat="42.71129" lon="1.65373">
        <ele>1441.7</ele>
        <time>2020-02-08T11:17:05Z</time>
      </trkpt>
      <trkpt lat="42.71129" lon="1.65372">
        <ele>1441.7</ele>
        <time>2020-02-08T11:17:06Z</time>
      </trkpt>
      <trkpt lat="42.71129" lon="1.65372">
        <ele>1441.7</ele>
        <time>2020-02-08T11:17:07Z</time>
      </trkpt>
      <trkpt lat="42.71129" lon="1.65371">
        <ele>1441.7</ele>
        <time>2020-02-08T11:17:08Z</time>
      </trkpt>
      <trkpt lat="42.7113" lon="1.6537">
        <ele>1441.8</ele>
        <time>2020-02-08T11:17:09Z</time>
      </trkpt>
      <trkpt lat="42.7113" lon="1.6537">
        <ele>1441.8</ele>
        <time>2020-02-08T11:17:10Z</time>
      </trkpt>
      <trkpt lat="42.7113" lon="1.65369">
        <ele>1441.8</ele>
        <time>2020-02-08T11:17:11Z</time>
      </trkpt>
      <trkpt lat="42.7113" lon="1.65368">
        <ele>1441.8</ele>
        <time>2020-02-08T11:17:12Z</time>
      </trkpt>
      <trkpt lat="42.7113" lon="1.65367">
        <ele>1441.8</ele>
        <time>2020-02-08T11:17:13Z</time>
      </trkpt>
      <trkpt lat="42.7113" lon="1.65366">
        <ele>1441.9</ele>
        <time>2020-02-08T11:17:14Z</time>
      </trkpt>
      <trkpt lat="42.7113" lon="1.65366">
        <ele>1441.9</ele>
        <time>2020-02-08T11:17:15Z</time>
      </trkpt>
      <trkpt lat="42.7113" lon="1.65365">
        <ele>1441.9</ele>
        <time>2020-02-08T11:17:16Z</time>
      </trkpt>
      <trkpt lat="42.7113" lon="1.65364">
        <ele>1441.9</ele>
        <time>2020-02-08T11:17:17Z</time>
      </trkpt>
      <trkpt lat="42.7113" lon="1.65363">
        <ele>1441.9</ele>
        <time>2020-02-08T11:17:18Z</time>
      </trkpt>
      <trkpt lat="42.7113" lon="1.65362">
        <ele>1442</ele>
        <time>2020-02-08T11:17:19Z</time>
      </trkpt>
      <trkpt lat="42.7113" lon="1.65362">
        <ele>1442</ele>
        <time>2020-02-08T11:17:20Z</time>
      </trkpt>
      <trkpt lat="42.7113" lon="1.65361">
        <ele>1442</ele>
        <time>2020-02-08T11:17:21Z</time>
      </trkpt>
      <trkpt lat="42.7113" lon="1.6536">
        <ele>1442</ele>
        <time>2020-02-08T11:17:22Z</time>
      </trkpt>
      <trkpt lat="42.7113" lon="1.65359">
        <ele>1442</ele>
        <time>2020-02-08T11:17:23Z</time>
      </trkpt>
      <trkpt lat="42.7113" lon="1.65358">
        <ele>1442</ele>
        <time>2020-02-08T11:17:24Z</time>
      </trkpt>
      <trkpt lat="42.7113" lon="1.65357">
        <ele>1442</ele>
        <time>2020-02-08T11:17:25Z</time>
      </trkpt>
      <trkpt lat="42.7113" lon="1.65357">
        <ele>1442</ele>
        <time>2020-02-08T11:17:26Z</time>
      </trkpt>
      <trkpt lat="42.7113" lon="1.65356">
        <ele>1442.1</ele>
        <time>2020-02-08T11:17:27Z</time>
      </trkpt>
      <trkpt lat="42.7113" lon="1.65355">
        <ele>1442.1</ele>
        <time>2020-02-08T11:17:28Z</time>
      </trkpt>
      <trkpt lat="42.7113" lon="1.65354">
        <ele>1442.1</ele>
        <time>2020-02-08T11:17:29Z</time>
      </trkpt>
      <trkpt lat="42.71129" lon="1.65353">
        <ele>1442.1</ele>
        <time>2020-02-08T11:17:30Z</time>
      </trkpt>
      <trkpt lat="42.71129" lon="1.65353">
        <ele>1442.1</ele>
        <time>2020-02-08T11:17:31Z</time>
      </trkpt>
      <trkpt lat="42.71128" lon="1.65352">
        <ele>1442.1</ele>
        <time>2020-02-08T11:17:32Z</time>
      </trkpt>
      <trkpt lat="42.71128" lon="1.65351">
        <ele>1442.1</ele>
        <time>2020-02-08T11:17:33Z</time>
      </trkpt>
      <trkpt lat="42.71127" lon="1.6535">
        <ele>1442.1</ele>
        <time>2020-02-08T11:17:34Z</time>
      </trkpt>
      <trkpt lat="42.71127" lon="1.6535">
        <ele>1442.1</ele>
        <time>2020-02-08T11:17:35Z</time>
      </trkpt>
      <trkpt lat="42.71127" lon="1.65349">
        <ele>1442.1</ele>
        <time>2020-02-08T11:17:36Z</time>
      </trkpt>
      <trkpt lat="42.71126" lon="1.65348">
        <ele>1442.2</ele>
        <time>2020-02-08T11:17:37Z</time>
      </trkpt>
      <trkpt lat="42.71126" lon="1.65347">
        <ele>1442.2</ele>
        <time>2020-02-08T11:17:38Z</time>
      </trkpt>
      <trkpt lat="42.71125" lon="1.65347">
        <ele>1442.2</ele>
        <time>2020-02-08T11:17:39Z</time>
      </trkpt>
      <trkpt lat="42.71125" lon="1.65346">
        <ele>1442.2</ele>
        <time>2020-02-08T11:17:40Z</time>
      </trkpt>
      <trkpt lat="42.71124" lon="1.65345">
        <ele>1442.2</ele>
        <time>2020-02-08T11:17:41Z</time>
      </trkpt>
      <trkpt lat="42.71124" lon="1.65344">
        <ele>1442.2</ele>
        <time>2020-02-08T11:17:42Z</time>
      </trkpt>
      <trkpt lat="42.71124" lon="1.65343">
        <ele>1442.3</ele>
        <time>2020-02-08T11:17:43Z</time>
      </trkpt>
      <trkpt lat="42.71123" lon="1.65342">
        <ele>1442.3</ele>
        <time>2020-02-08T11:17:44Z</time>
      </trkpt>
      <trkpt lat="42.71123" lon="1.65341">
        <ele>1442.3</ele>
        <time>2020-02-08T11:17:45Z</time>
      </trkpt>
      <trkpt lat="42.71122" lon="1.6534">
        <ele>1442.3</ele>
        <time>2020-02-08T11:17:46Z</time>
      </trkpt>
      <trkpt lat="42.71122" lon="1.65339">
        <ele>1442.4</ele>
        <time>2020-02-08T11:17:47Z</time>
      </trkpt>
      <trkpt lat="42.71121" lon="1.65338">
        <ele>1442.4</ele>
        <time>2020-02-08T11:17:48Z</time>
      </trkpt>
      <trkpt lat="42.71121" lon="1.65337">
        <ele>1442.4</ele>
        <time>2020-02-08T11:17:49Z</time>
      </trkpt>
      <trkpt lat="42.7112" lon="1.65336">
        <ele>1442.5</ele>
        <time>2020-02-08T11:17:50Z</time>
      </trkpt>
      <trkpt lat="42.7112" lon="1.65335">
        <ele>1442.5</ele>
        <time>2020-02-08T11:17:51Z</time>
      </trkpt>
      <trkpt lat="42.7112" lon="1.65334">
        <ele>1442.5</ele>
        <time>2020-02-08T11:17:52Z</time>
      </trkpt>
      <trkpt lat="42.71119" lon="1.65333">
        <ele>1442.5</ele>
        <time>2020-02-08T11:17:53Z</time>
      </trkpt>
      <trkpt lat="42.71119" lon="1.65332">
        <ele>1442.6</ele>
        <time>2020-02-08T11:17:54Z</time>
      </trkpt>
      <trkpt lat="42.71118" lon="1.65331">
        <ele>1442.6</ele>
        <time>2020-02-08T11:17:55Z</time>
      </trkpt>
      <trkpt lat="42.71118" lon="1.6533">
        <ele>1442.6</ele>
        <time>2020-02-08T11:17:56Z</time>
      </trkpt>
      <trkpt lat="42.71117" lon="1.65329">
        <ele>1442.6</ele>
        <time>2020-02-08T11:17:57Z</time>
      </trkpt>
      <trkpt lat="42.71117" lon="1.65328">
        <ele>1442.6</ele>
        <time>2020-02-08T11:17:58Z</time>
      </trkpt>
      <trkpt lat="42.71116" lon="1.65327">
        <ele>1442.6</ele>
        <time>2020-02-08T11:17:59Z</time>
      </trkpt>
      <trkpt lat="42.71117" lon="1.65325">
        <ele>1442.6</ele>
        <time>2020-02-08T11:18:00Z</time>
      </trkpt>
      <trkpt lat="42.71117" lon="1.65325">
        <ele>1442.6</ele>
        <time>2020-02-08T11:18:01Z</time>
      </trkpt>
      <trkpt lat="42.71117" lon="1.65325">
        <ele>1442.6</ele>
        <time>2020-02-08T11:18:02Z</time>
      </trkpt>
      <trkpt lat="42.71117" lon="1.65325">
        <ele>1442.6</ele>
        <time>2020-02-08T11:18:03Z</time>
      </trkpt>
      <trkpt lat="42.71117" lon="1.65325">
        <ele>1442.6</ele>
        <time>2020-02-08T11:18:04Z</time>
      </trkpt>
      <trkpt lat="42.71117" lon="1.65325">
        <ele>1442.6</ele>
        <time>2020-02-08T11:18:05Z</time>
      </trkpt>
      <trkpt lat="42.71117" lon="1.65325">
        <ele>1442.6</ele>
        <time>2020-02-08T11:18:06Z</time>
      </trkpt>
      <trkpt lat="42.71117" lon="1.65325">
        <ele>1442.6</ele>
        <time>2020-02-08T11:18:07Z</time>
      </trkpt>
      <trkpt lat="42.71117" lon="1.65325">
        <ele>1442.6</ele>
        <time>2020-02-08T11:18:08Z</time>
      </trkpt>
      <trkpt lat="42.71117" lon="1.65325">
        <ele>1442.6</ele>
        <time>2020-02-08T11:18:09Z</time>
      </trkpt>
      <trkpt lat="42.71117" lon="1.65324">
        <ele>1442.7</ele>
        <time>2020-02-08T11:18:10Z</time>
      </trkpt>
      <trkpt lat="42.71117" lon="1.65323">
        <ele>1442.7</ele>
        <time>2020-02-08T11:18:11Z</time>
      </trkpt>
      <trkpt lat="42.71117" lon="1.65321">
        <ele>1442.7</ele>
        <time>2020-02-08T11:18:12Z</time>
      </trkpt>
      <trkpt lat="42.71117" lon="1.6532">
        <ele>1442.7</ele>
        <time>2020-02-08T11:18:13Z</time>
      </trkpt>
      <trkpt lat="42.71117" lon="1.65319">
        <ele>1442.7</ele>
        <time>2020-02-08T11:18:14Z</time>
      </trkpt>
      <trkpt lat="42.71118" lon="1.65318">
        <ele>1442.7</ele>
        <time>2020-02-08T11:18:15Z</time>
      </trkpt>
      <trkpt lat="42.71118" lon="1.65317">
        <ele>1442.7</ele>
        <time>2020-02-08T11:18:16Z</time>
      </trkpt>
      <trkpt lat="42.71118" lon="1.65315">
        <ele>1442.7</ele>
        <time>2020-02-08T11:18:17Z</time>
      </trkpt>
      <trkpt lat="42.71118" lon="1.65314">
        <ele>1442.8</ele>
        <time>2020-02-08T11:18:18Z</time>
      </trkpt>
      <trkpt lat="42.71118" lon="1.65313">
        <ele>1442.8</ele>
        <time>2020-02-08T11:18:19Z</time>
      </trkpt>
      <trkpt lat="42.71118" lon="1.65311">
        <ele>1442.9</ele>
        <time>2020-02-08T11:18:20Z</time>
      </trkpt>
      <trkpt lat="42.71118" lon="1.6531">
        <ele>1442.9</ele>
        <time>2020-02-08T11:18:21Z</time>
      </trkpt>
      <trkpt lat="42.71118" lon="1.65308">
        <ele>1443</ele>
        <time>2020-02-08T11:18:22Z</time>
      </trkpt>
      <trkpt lat="42.71118" lon="1.65307">
        <ele>1443.1</ele>
        <time>2020-02-08T11:18:23Z</time>
      </trkpt>
      <trkpt lat="42.71119" lon="1.65305">
        <ele>1443.1</ele>
        <time>2020-02-08T11:18:24Z</time>
      </trkpt>
      <trkpt lat="42.71119" lon="1.65304">
        <ele>1443.2</ele>
        <time>2020-02-08T11:18:25Z</time>
      </trkpt>
      <trkpt lat="42.71119" lon="1.65302">
        <ele>1443.2</ele>
        <time>2020-02-08T11:18:26Z</time>
      </trkpt>
      <trkpt lat="42.71119" lon="1.65301">
        <ele>1443.3</ele>
        <time>2020-02-08T11:18:27Z</time>
      </trkpt>
      <trkpt lat="42.71119" lon="1.65299">
        <ele>1443.4</ele>
        <time>2020-02-08T11:18:28Z</time>
      </trkpt>
      <trkpt lat="42.71119" lon="1.65298">
        <ele>1443.4</ele>
        <time>2020-02-08T11:18:29Z</time>
      </trkpt>
      <trkpt lat="42.71119" lon="1.65297">
        <ele>1443.5</ele>
        <time>2020-02-08T11:18:30Z</time>
      </trkpt>
      <trkpt lat="42.71119" lon="1.65296">
        <ele>1443.5</ele>
        <time>2020-02-08T11:18:31Z</time>
      </trkpt>
      <trkpt lat="42.71119" lon="1.65296">
        <ele>1443.5</ele>
        <time>2020-02-08T11:18:32Z</time>
      </trkpt>
      <trkpt lat="42.71119" lon="1.65295">
        <ele>1443.6</ele>
        <time>2020-02-08T11:18:33Z</time>
      </trkpt>
      <trkpt lat="42.71119" lon="1.65294">
        <ele>1443.6</ele>
        <time>2020-02-08T11:18:34Z</time>
      </trkpt>
      <trkpt lat="42.71119" lon="1.65294">
        <ele>1443.6</ele>
        <time>2020-02-08T11:18:35Z</time>
      </trkpt>
      <trkpt lat="42.71119" lon="1.65293">
        <ele>1443.7</ele>
        <time>2020-02-08T11:18:36Z</time>
      </trkpt>
      <trkpt lat="42.71119" lon="1.65292">
        <ele>1443.7</ele>
        <time>2020-02-08T11:18:37Z</time>
      </trkpt>
      <trkpt lat="42.71119" lon="1.65292">
        <ele>1443.7</ele>
        <time>2020-02-08T11:18:38Z</time>
      </trkpt>
      <trkpt lat="42.7112" lon="1.65291">
        <ele>1443.8</ele>
        <time>2020-02-08T11:18:39Z</time>
      </trkpt>
      <trkpt lat="42.7112" lon="1.6529">
        <ele>1443.8</ele>
        <time>2020-02-08T11:18:40Z</time>
      </trkpt>
      <trkpt lat="42.7112" lon="1.6529">
        <ele>1443.8</ele>
        <time>2020-02-08T11:18:41Z</time>
      </trkpt>
      <trkpt lat="42.7112" lon="1.65289">
        <ele>1443.9</ele>
        <time>2020-02-08T11:18:42Z</time>
      </trkpt>
      <trkpt lat="42.7112" lon="1.65289">
        <ele>1443.9</ele>
        <time>2020-02-08T11:18:43Z</time>
      </trkpt>
      <trkpt lat="42.7112" lon="1.65288">
        <ele>1443.9</ele>
        <time>2020-02-08T11:18:44Z</time>
      </trkpt>
      <trkpt lat="42.7112" lon="1.65287">
        <ele>1444</ele>
        <time>2020-02-08T11:18:45Z</time>
      </trkpt>
      <trkpt lat="42.7112" lon="1.65287">
        <ele>1444</ele>
        <time>2020-02-08T11:18:46Z</time>
      </trkpt>
      <trkpt lat="42.7112" lon="1.65286">
        <ele>1444</ele>
        <time>2020-02-08T11:18:47Z</time>
      </trkpt>
      <trkpt lat="42.7112" lon="1.65285">
        <ele>1444.1</ele>
        <time>2020-02-08T11:18:48Z</time>
      </trkpt>
      <trkpt lat="42.7112" lon="1.65285">
        <ele>1444.1</ele>
        <time>2020-02-08T11:18:49Z</time>
      </trkpt>
      <trkpt lat="42.7112" lon="1.65283">
        <ele>1444.2</ele>
        <time>2020-02-08T11:18:50Z</time>
      </trkpt>
      <trkpt lat="42.71121" lon="1.65282">
        <ele>1444.2</ele>
        <time>2020-02-08T11:18:51Z</time>
      </trkpt>
      <trkpt lat="42.71121" lon="1.65281">
        <ele>1444.3</ele>
        <time>2020-02-08T11:18:52Z</time>
      </trkpt>
      <trkpt lat="42.71121" lon="1.6528">
        <ele>1444.3</ele>
        <time>2020-02-08T11:18:53Z</time>
      </trkpt>
      <trkpt lat="42.71122" lon="1.65279">
        <ele>1444.4</ele>
        <time>2020-02-08T11:18:54Z</time>
      </trkpt>
      <trkpt lat="42.71122" lon="1.65277">
        <ele>1444.5</ele>
        <time>2020-02-08T11:18:55Z</time>
      </trkpt>
      <trkpt lat="42.71122" lon="1.65276">
        <ele>1444.5</ele>
        <time>2020-02-08T11:18:56Z</time>
      </trkpt>
      <trkpt lat="42.71122" lon="1.65275">
        <ele>1444.6</ele>
        <time>2020-02-08T11:18:57Z</time>
      </trkpt>
      <trkpt lat="42.71123" lon="1.65274">
        <ele>1444.6</ele>
        <time>2020-02-08T11:18:58Z</time>
      </trkpt>
      <trkpt lat="42.71123" lon="1.65273">
        <ele>1444.7</ele>
        <time>2020-02-08T11:18:59Z</time>
      </trkpt>
      <trkpt lat="42.71123" lon="1.65271">
        <ele>1444.8</ele>
        <time>2020-02-08T11:19:00Z</time>
      </trkpt>
      <trkpt lat="42.71124" lon="1.6527">
        <ele>1444.8</ele>
        <time>2020-02-08T11:19:01Z</time>
      </trkpt>
      <trkpt lat="42.71124" lon="1.65269">
        <ele>1444.9</ele>
        <time>2020-02-08T11:19:02Z</time>
      </trkpt>
      <trkpt lat="42.71124" lon="1.65267">
        <ele>1445</ele>
        <time>2020-02-08T11:19:03Z</time>
      </trkpt>
      <trkpt lat="42.71125" lon="1.65266">
        <ele>1445</ele>
        <time>2020-02-08T11:19:04Z</time>
      </trkpt>
      <trkpt lat="42.71125" lon="1.65265">
        <ele>1445.1</ele>
        <time>2020-02-08T11:19:05Z</time>
      </trkpt>
      <trkpt lat="42.71125" lon="1.65264">
        <ele>1445.2</ele>
        <time>2020-02-08T11:19:06Z</time>
      </trkpt>
      <trkpt lat="42.71126" lon="1.65262">
        <ele>1445.2</ele>
        <time>2020-02-08T11:19:07Z</time>
      </trkpt>
      <trkpt lat="42.71126" lon="1.65261">
        <ele>1445.3</ele>
        <time>2020-02-08T11:19:08Z</time>
      </trkpt>
      <trkpt lat="42.71126" lon="1.6526">
        <ele>1445.3</ele>
        <time>2020-02-08T11:19:09Z</time>
      </trkpt>
      <trkpt lat="42.71127" lon="1.65259">
        <ele>1445.4</ele>
        <time>2020-02-08T11:19:10Z</time>
      </trkpt>
      <trkpt lat="42.71127" lon="1.65257">
        <ele>1445.4</ele>
        <time>2020-02-08T11:19:11Z</time>
      </trkpt>
      <trkpt lat="42.71128" lon="1.65256">
        <ele>1445.4</ele>
        <time>2020-02-08T11:19:12Z</time>
      </trkpt>
      <trkpt lat="42.71128" lon="1.65255">
        <ele>1445.5</ele>
        <time>2020-02-08T11:19:13Z</time>
      </trkpt>
      <trkpt lat="42.71129" lon="1.65254">
        <ele>1445.5</ele>
        <time>2020-02-08T11:19:14Z</time>
      </trkpt>
      <trkpt lat="42.71129" lon="1.65253">
        <ele>1445.6</ele>
        <time>2020-02-08T11:19:15Z</time>
      </trkpt>
      <trkpt lat="42.71129" lon="1.65252">
        <ele>1445.6</ele>
        <time>2020-02-08T11:19:16Z</time>
      </trkpt>
      <trkpt lat="42.7113" lon="1.65251">
        <ele>1445.7</ele>
        <time>2020-02-08T11:19:17Z</time>
      </trkpt>
      <trkpt lat="42.7113" lon="1.6525">
        <ele>1445.7</ele>
        <time>2020-02-08T11:19:18Z</time>
      </trkpt>
      <trkpt lat="42.71131" lon="1.65249">
        <ele>1445.8</ele>
        <time>2020-02-08T11:19:19Z</time>
      </trkpt>
      <trkpt lat="42.71131" lon="1.65248">
        <ele>1445.8</ele>
        <time>2020-02-08T11:19:20Z</time>
      </trkpt>
      <trkpt lat="42.71132" lon="1.65248">
        <ele>1445.8</ele>
        <time>2020-02-08T11:19:21Z</time>
      </trkpt>
      <trkpt lat="42.71132" lon="1.65247">
        <ele>1445.8</ele>
        <time>2020-02-08T11:19:22Z</time>
      </trkpt>
      <trkpt lat="42.71132" lon="1.65247">
        <ele>1445.8</ele>
        <time>2020-02-08T11:19:23Z</time>
      </trkpt>
      <trkpt lat="42.71133" lon="1.65246">
        <ele>1445.9</ele>
        <time>2020-02-08T11:19:24Z</time>
      </trkpt>
      <trkpt lat="42.71133" lon="1.65246">
        <ele>1445.9</ele>
        <time>2020-02-08T11:19:25Z</time>
      </trkpt>
      <trkpt lat="42.71133" lon="1.65246">
        <ele>1445.9</ele>
        <time>2020-02-08T11:19:26Z</time>
      </trkpt>
      <trkpt lat="42.71134" lon="1.65245">
        <ele>1445.9</ele>
        <time>2020-02-08T11:19:27Z</time>
      </trkpt>
      <trkpt lat="42.71134" lon="1.65245">
        <ele>1445.9</ele>
        <time>2020-02-08T11:19:28Z</time>
      </trkpt>
      <trkpt lat="42.71134" lon="1.65244">
        <ele>1445.9</ele>
        <time>2020-02-08T11:19:29Z</time>
      </trkpt>
      <trkpt lat="42.71135" lon="1.65244">
        <ele>1445.9</ele>
        <time>2020-02-08T11:19:30Z</time>
      </trkpt>
      <trkpt lat="42.71135" lon="1.65243">
        <ele>1445.9</ele>
        <time>2020-02-08T11:19:31Z</time>
      </trkpt>
      <trkpt lat="42.71135" lon="1.65243">
        <ele>1446</ele>
        <time>2020-02-08T11:19:32Z</time>
      </trkpt>
      <trkpt lat="42.71136" lon="1.65243">
        <ele>1446</ele>
        <time>2020-02-08T11:19:33Z</time>
      </trkpt>
      <trkpt lat="42.71136" lon="1.65242">
        <ele>1446</ele>
        <time>2020-02-08T11:19:34Z</time>
      </trkpt>
      <trkpt lat="42.71136" lon="1.65242">
        <ele>1446</ele>
        <time>2020-02-08T11:19:35Z</time>
      </trkpt>
      <trkpt lat="42.71137" lon="1.65241">
        <ele>1446</ele>
        <time>2020-02-08T11:19:36Z</time>
      </trkpt>
      <trkpt lat="42.71137" lon="1.65241">
        <ele>1446</ele>
        <time>2020-02-08T11:19:37Z</time>
      </trkpt>
      <trkpt lat="42.71137" lon="1.6524">
        <ele>1446</ele>
        <time>2020-02-08T11:19:38Z</time>
      </trkpt>
      <trkpt lat="42.71138" lon="1.6524">
        <ele>1446</ele>
        <time>2020-02-08T11:19:39Z</time>
      </trkpt>
      <trkpt lat="42.71138" lon="1.65239">
        <ele>1446.1</ele>
        <time>2020-02-08T11:19:40Z</time>
      </trkpt>
      <trkpt lat="42.71138" lon="1.65238">
        <ele>1446.1</ele>
        <time>2020-02-08T11:19:41Z</time>
      </trkpt>
      <trkpt lat="42.71139" lon="1.65236">
        <ele>1446.1</ele>
        <time>2020-02-08T11:19:42Z</time>
      </trkpt>
      <trkpt lat="42.71139" lon="1.65235">
        <ele>1446.1</ele>
        <time>2020-02-08T11:19:43Z</time>
      </trkpt>
      <trkpt lat="42.71139" lon="1.65234">
        <ele>1446.2</ele>
        <time>2020-02-08T11:19:44Z</time>
      </trkpt>
      <trkpt lat="42.7114" lon="1.65233">
        <ele>1446.3</ele>
        <time>2020-02-08T11:19:45Z</time>
      </trkpt>
      <trkpt lat="42.7114" lon="1.65231">
        <ele>1446.3</ele>
        <time>2020-02-08T11:19:46Z</time>
      </trkpt>
      <trkpt lat="42.7114" lon="1.6523">
        <ele>1446.4</ele>
        <time>2020-02-08T11:19:47Z</time>
      </trkpt>
      <trkpt lat="42.71141" lon="1.65229">
        <ele>1446.4</ele>
        <time>2020-02-08T11:19:48Z</time>
      </trkpt>
      <trkpt lat="42.71141" lon="1.65228">
        <ele>1446.5</ele>
        <time>2020-02-08T11:19:49Z</time>
      </trkpt>
      <trkpt lat="42.71142" lon="1.65226">
        <ele>1446.6</ele>
        <time>2020-02-08T11:19:50Z</time>
      </trkpt>
      <trkpt lat="42.71142" lon="1.65225">
        <ele>1446.6</ele>
        <time>2020-02-08T11:19:51Z</time>
      </trkpt>
      <trkpt lat="42.71142" lon="1.65224">
        <ele>1446.7</ele>
        <time>2020-02-08T11:19:52Z</time>
      </trkpt>
      <trkpt lat="42.71143" lon="1.65223">
        <ele>1446.7</ele>
        <time>2020-02-08T11:19:53Z</time>
      </trkpt>
      <trkpt lat="42.71143" lon="1.65221">
        <ele>1446.8</ele>
        <time>2020-02-08T11:19:54Z</time>
      </trkpt>
      <trkpt lat="42.71143" lon="1.6522">
        <ele>1446.9</ele>
        <time>2020-02-08T11:19:55Z</time>
      </trkpt>
      <trkpt lat="42.71144" lon="1.65219">
        <ele>1446.9</ele>
        <time>2020-02-08T11:19:56Z</time>
      </trkpt>
      <trkpt lat="42.71144" lon="1.65218">
        <ele>1447</ele>
        <time>2020-02-08T11:19:57Z</time>
      </trkpt>
      <trkpt lat="42.71144" lon="1.65216">
        <ele>1447.1</ele>
        <time>2020-02-08T11:19:58Z</time>
      </trkpt>
      <trkpt lat="42.71145" lon="1.65215">
        <ele>1447.1</ele>
        <time>2020-02-08T11:19:59Z</time>
      </trkpt>
      <trkpt lat="42.71145" lon="1.65214">
        <ele>1447.2</ele>
        <time>2020-02-08T11:20:00Z</time>
      </trkpt>
      <trkpt lat="42.71145" lon="1.65214">
        <ele>1447.3</ele>
        <time>2020-02-08T11:20:01Z</time>
      </trkpt>
      <trkpt lat="42.71145" lon="1.65213">
        <ele>1447.3</ele>
        <time>2020-02-08T11:20:02Z</time>
      </trkpt>
      <trkpt lat="42.71146" lon="1.65212">
        <ele>1447.4</ele>
        <time>2020-02-08T11:20:03Z</time>
      </trkpt>
      <trkpt lat="42.71146" lon="1.65211">
        <ele>1447.4</ele>
        <time>2020-02-08T11:20:04Z</time>
      </trkpt>
      <trkpt lat="42.71146" lon="1.6521">
        <ele>1447.5</ele>
        <time>2020-02-08T11:20:05Z</time>
      </trkpt>
      <trkpt lat="42.71147" lon="1.65209">
        <ele>1447.5</ele>
        <time>2020-02-08T11:20:06Z</time>
      </trkpt>
      <trkpt lat="42.71147" lon="1.65208">
        <ele>1447.6</ele>
        <time>2020-02-08T11:20:07Z</time>
      </trkpt>
      <trkpt lat="42.71147" lon="1.65207">
        <ele>1447.6</ele>
        <time>2020-02-08T11:20:08Z</time>
      </trkpt>
      <trkpt lat="42.71147" lon="1.65207">
        <ele>1447.7</ele>
        <time>2020-02-08T11:20:09Z</time>
      </trkpt>
      <trkpt lat="42.71149" lon="1.65205">
        <ele>1447.8</ele>
        <time>2020-02-08T11:20:10Z</time>
      </trkpt>
      <trkpt lat="42.71149" lon="1.65205">
        <ele>1447.8</ele>
        <time>2020-02-08T11:20:11Z</time>
      </trkpt>
      <trkpt lat="42.71149" lon="1.65205">
        <ele>1447.8</ele>
        <time>2020-02-08T11:20:12Z</time>
      </trkpt>
      <trkpt lat="42.71149" lon="1.65205">
        <ele>1447.9</ele>
        <time>2020-02-08T11:20:13Z</time>
      </trkpt>
      <trkpt lat="42.71149" lon="1.65204">
        <ele>1447.9</ele>
        <time>2020-02-08T11:20:14Z</time>
      </trkpt>
      <trkpt lat="42.71149" lon="1.65204">
        <ele>1447.9</ele>
        <time>2020-02-08T11:20:15Z</time>
      </trkpt>
      <trkpt lat="42.71149" lon="1.65204">
        <ele>1447.9</ele>
        <time>2020-02-08T11:20:16Z</time>
      </trkpt>
      <trkpt lat="42.7115" lon="1.65204">
        <ele>1447.9</ele>
        <time>2020-02-08T11:20:17Z</time>
      </trkpt>
      <trkpt lat="42.7115" lon="1.65204">
        <ele>1447.9</ele>
        <time>2020-02-08T11:20:18Z</time>
      </trkpt>
      <trkpt lat="42.7115" lon="1.65204">
        <ele>1448</ele>
        <time>2020-02-08T11:20:19Z</time>
      </trkpt>
      <trkpt lat="42.71151" lon="1.65203">
        <ele>1448</ele>
        <time>2020-02-08T11:20:20Z</time>
      </trkpt>
      <trkpt lat="42.71152" lon="1.65202">
        <ele>1448.1</ele>
        <time>2020-02-08T11:20:21Z</time>
      </trkpt>
      <trkpt lat="42.71152" lon="1.65201">
        <ele>1448.2</ele>
        <time>2020-02-08T11:20:22Z</time>
      </trkpt>
      <trkpt lat="42.71153" lon="1.65201">
        <ele>1448.3</ele>
        <time>2020-02-08T11:20:23Z</time>
      </trkpt>
      <trkpt lat="42.71154" lon="1.652">
        <ele>1448.4</ele>
        <time>2020-02-08T11:20:24Z</time>
      </trkpt>
      <trkpt lat="42.71155" lon="1.65199">
        <ele>1448.5</ele>
        <time>2020-02-08T11:20:25Z</time>
      </trkpt>
      <trkpt lat="42.71155" lon="1.65198">
        <ele>1448.6</ele>
        <time>2020-02-08T11:20:26Z</time>
      </trkpt>
      <trkpt lat="42.71156" lon="1.65198">
        <ele>1448.7</ele>
        <time>2020-02-08T11:20:27Z</time>
      </trkpt>
      <trkpt lat="42.71157" lon="1.65197">
        <ele>1448.8</ele>
        <time>2020-02-08T11:20:28Z</time>
      </trkpt>
      <trkpt lat="42.71158" lon="1.65196">
        <ele>1448.8</ele>
        <time>2020-02-08T11:20:29Z</time>
      </trkpt>
      <trkpt lat="42.71159" lon="1.65196">
        <ele>1448.9</ele>
        <time>2020-02-08T11:20:30Z</time>
      </trkpt>
      <trkpt lat="42.7116" lon="1.65196">
        <ele>1449</ele>
        <time>2020-02-08T11:20:31Z</time>
      </trkpt>
      <trkpt lat="42.71161" lon="1.65195">
        <ele>1449.1</ele>
        <time>2020-02-08T11:20:32Z</time>
      </trkpt>
      <trkpt lat="42.71162" lon="1.65195">
        <ele>1449.2</ele>
        <time>2020-02-08T11:20:33Z</time>
      </trkpt>
      <trkpt lat="42.71163" lon="1.65195">
        <ele>1449.4</ele>
        <time>2020-02-08T11:20:34Z</time>
      </trkpt>
      <trkpt lat="42.71164" lon="1.65195">
        <ele>1449.5</ele>
        <time>2020-02-08T11:20:35Z</time>
      </trkpt>
      <trkpt lat="42.71165" lon="1.65194">
        <ele>1449.6</ele>
        <time>2020-02-08T11:20:36Z</time>
      </trkpt>
      <trkpt lat="42.71166" lon="1.65194">
        <ele>1449.7</ele>
        <time>2020-02-08T11:20:37Z</time>
      </trkpt>
      <trkpt lat="42.71167" lon="1.65194">
        <ele>1449.8</ele>
        <time>2020-02-08T11:20:38Z</time>
      </trkpt>
      <trkpt lat="42.71168" lon="1.65193">
        <ele>1449.9</ele>
        <time>2020-02-08T11:20:39Z</time>
      </trkpt>
      <trkpt lat="42.71169" lon="1.65194">
        <ele>1450</ele>
        <time>2020-02-08T11:20:40Z</time>
      </trkpt>
      <trkpt lat="42.7117" lon="1.65194">
        <ele>1450.1</ele>
        <time>2020-02-08T11:20:41Z</time>
      </trkpt>
      <trkpt lat="42.71171" lon="1.65195">
        <ele>1450.2</ele>
        <time>2020-02-08T11:20:42Z</time>
      </trkpt>
      <trkpt lat="42.71172" lon="1.65195">
        <ele>1450.3</ele>
        <time>2020-02-08T11:20:43Z</time>
      </trkpt>
      <trkpt lat="42.71173" lon="1.65196">
        <ele>1450.4</ele>
        <time>2020-02-08T11:20:44Z</time>
      </trkpt>
      <trkpt lat="42.71174" lon="1.65196">
        <ele>1450.4</ele>
        <time>2020-02-08T11:20:45Z</time>
      </trkpt>
      <trkpt lat="42.71174" lon="1.65197">
        <ele>1450.5</ele>
        <time>2020-02-08T11:20:46Z</time>
      </trkpt>
      <trkpt lat="42.71175" lon="1.65197">
        <ele>1450.6</ele>
        <time>2020-02-08T11:20:47Z</time>
      </trkpt>
      <trkpt lat="42.71176" lon="1.65198">
        <ele>1450.7</ele>
        <time>2020-02-08T11:20:48Z</time>
      </trkpt>
      <trkpt lat="42.71177" lon="1.65198">
        <ele>1450.8</ele>
        <time>2020-02-08T11:20:49Z</time>
      </trkpt>
      <trkpt lat="42.71178" lon="1.65198">
        <ele>1450.9</ele>
        <time>2020-02-08T11:20:50Z</time>
      </trkpt>
      <trkpt lat="42.71179" lon="1.65198">
        <ele>1450.9</ele>
        <time>2020-02-08T11:20:51Z</time>
      </trkpt>
      <trkpt lat="42.7118" lon="1.65198">
        <ele>1451</ele>
        <time>2020-02-08T11:20:52Z</time>
      </trkpt>
      <trkpt lat="42.71181" lon="1.65198">
        <ele>1451.1</ele>
        <time>2020-02-08T11:20:53Z</time>
      </trkpt>
      <trkpt lat="42.71182" lon="1.65198">
        <ele>1451.2</ele>
        <time>2020-02-08T11:20:54Z</time>
      </trkpt>
      <trkpt lat="42.71183" lon="1.65198">
        <ele>1451.3</ele>
        <time>2020-02-08T11:20:55Z</time>
      </trkpt>
      <trkpt lat="42.71183" lon="1.65198">
        <ele>1451.3</ele>
        <time>2020-02-08T11:20:56Z</time>
      </trkpt>
      <trkpt lat="42.71184" lon="1.65198">
        <ele>1451.4</ele>
        <time>2020-02-08T11:20:57Z</time>
      </trkpt>
      <trkpt lat="42.71185" lon="1.65198">
        <ele>1451.5</ele>
        <time>2020-02-08T11:20:58Z</time>
      </trkpt>
      <trkpt lat="42.71186" lon="1.65198">
        <ele>1451.6</ele>
        <time>2020-02-08T11:20:59Z</time>
      </trkpt>
      <trkpt lat="42.71187" lon="1.65198">
        <ele>1451.7</ele>
        <time>2020-02-08T11:21:00Z</time>
      </trkpt>
      <trkpt lat="42.71188" lon="1.65199">
        <ele>1451.9</ele>
        <time>2020-02-08T11:21:01Z</time>
      </trkpt>
      <trkpt lat="42.71189" lon="1.65199">
        <ele>1452</ele>
        <time>2020-02-08T11:21:02Z</time>
      </trkpt>
      <trkpt lat="42.7119" lon="1.65199">
        <ele>1452.1</ele>
        <time>2020-02-08T11:21:03Z</time>
      </trkpt>
      <trkpt lat="42.71191" lon="1.65199">
        <ele>1452.2</ele>
        <time>2020-02-08T11:21:04Z</time>
      </trkpt>
      <trkpt lat="42.71192" lon="1.65199">
        <ele>1452.4</ele>
        <time>2020-02-08T11:21:05Z</time>
      </trkpt>
      <trkpt lat="42.71193" lon="1.65199">
        <ele>1452.5</ele>
        <time>2020-02-08T11:21:06Z</time>
      </trkpt>
      <trkpt lat="42.71193" lon="1.65199">
        <ele>1452.6</ele>
        <time>2020-02-08T11:21:07Z</time>
      </trkpt>
      <trkpt lat="42.71194" lon="1.65199">
        <ele>1452.7</ele>
        <time>2020-02-08T11:21:08Z</time>
      </trkpt>
      <trkpt lat="42.71195" lon="1.65199">
        <ele>1452.9</ele>
        <time>2020-02-08T11:21:09Z</time>
      </trkpt>
      <trkpt lat="42.71195" lon="1.65198">
        <ele>1452.9</ele>
        <time>2020-02-08T11:21:10Z</time>
      </trkpt>
      <trkpt lat="42.71196" lon="1.65198">
        <ele>1453</ele>
        <time>2020-02-08T11:21:11Z</time>
      </trkpt>
      <trkpt lat="42.71196" lon="1.65197">
        <ele>1453.1</ele>
        <time>2020-02-08T11:21:12Z</time>
      </trkpt>
      <trkpt lat="42.71196" lon="1.65196">
        <ele>1453.1</ele>
        <time>2020-02-08T11:21:13Z</time>
      </trkpt>
      <trkpt lat="42.71196" lon="1.65196">
        <ele>1453.2</ele>
        <time>2020-02-08T11:21:14Z</time>
      </trkpt>
      <trkpt lat="42.71197" lon="1.65195">
        <ele>1453.3</ele>
        <time>2020-02-08T11:21:15Z</time>
      </trkpt>
      <trkpt lat="42.71197" lon="1.65194">
        <ele>1453.4</ele>
        <time>2020-02-08T11:21:16Z</time>
      </trkpt>
      <trkpt lat="42.71197" lon="1.65193">
        <ele>1453.5</ele>
        <time>2020-02-08T11:21:17Z</time>
      </trkpt>
      <trkpt lat="42.71197" lon="1.65193">
        <ele>1453.5</ele>
        <time>2020-02-08T11:21:18Z</time>
      </trkpt>
      <trkpt lat="42.71197" lon="1.65192">
        <ele>1453.6</ele>
        <time>2020-02-08T11:21:19Z</time>
      </trkpt>
      <trkpt lat="42.71197" lon="1.65192">
        <ele>1453.7</ele>
        <time>2020-02-08T11:21:20Z</time>
      </trkpt>
      <trkpt lat="42.71197" lon="1.65191">
        <ele>1453.7</ele>
        <time>2020-02-08T11:21:21Z</time>
      </trkpt>
      <trkpt lat="42.71197" lon="1.6519">
        <ele>1453.8</ele>
        <time>2020-02-08T11:21:22Z</time>
      </trkpt>
      <trkpt lat="42.71197" lon="1.6519">
        <ele>1453.9</ele>
        <time>2020-02-08T11:21:23Z</time>
      </trkpt>
      <trkpt lat="42.71197" lon="1.65189">
        <ele>1453.9</ele>
        <time>2020-02-08T11:21:24Z</time>
      </trkpt>
      <trkpt lat="42.71197" lon="1.65189">
        <ele>1454</ele>
        <time>2020-02-08T11:21:25Z</time>
      </trkpt>
      <trkpt lat="42.71197" lon="1.65188">
        <ele>1454.1</ele>
        <time>2020-02-08T11:21:26Z</time>
      </trkpt>
      <trkpt lat="42.71197" lon="1.65188">
        <ele>1454.1</ele>
        <time>2020-02-08T11:21:27Z</time>
      </trkpt>
      <trkpt lat="42.71197" lon="1.65187">
        <ele>1454.2</ele>
        <time>2020-02-08T11:21:28Z</time>
      </trkpt>
      <trkpt lat="42.71197" lon="1.65186">
        <ele>1454.2</ele>
        <time>2020-02-08T11:21:29Z</time>
      </trkpt>
      <trkpt lat="42.71196" lon="1.65184">
        <ele>1454.5</ele>
        <time>2020-02-08T11:21:30Z</time>
      </trkpt>
      <trkpt lat="42.71196" lon="1.65184">
        <ele>1454.5</ele>
        <time>2020-02-08T11:21:31Z</time>
      </trkpt>
      <trkpt lat="42.71196" lon="1.65184">
        <ele>1454.5</ele>
        <time>2020-02-08T11:21:32Z</time>
      </trkpt>
      <trkpt lat="42.71196" lon="1.65184">
        <ele>1454.5</ele>
        <time>2020-02-08T11:21:33Z</time>
      </trkpt>
      <trkpt lat="42.71196" lon="1.65184">
        <ele>1454.5</ele>
        <time>2020-02-08T11:21:34Z</time>
      </trkpt>
      <trkpt lat="42.71196" lon="1.65184">
        <ele>1454.5</ele>
        <time>2020-02-08T11:21:35Z</time>
      </trkpt>
      <trkpt lat="42.71196" lon="1.65184">
        <ele>1454.5</ele>
        <time>2020-02-08T11:21:36Z</time>
      </trkpt>
      <trkpt lat="42.71196" lon="1.65184">
        <ele>1454.5</ele>
        <time>2020-02-08T11:21:37Z</time>
      </trkpt>
      <trkpt lat="42.71196" lon="1.65184">
        <ele>1454.5</ele>
        <time>2020-02-08T11:21:38Z</time>
      </trkpt>
      <trkpt lat="42.71196" lon="1.65184">
        <ele>1454.5</ele>
        <time>2020-02-08T11:21:39Z</time>
      </trkpt>
      <trkpt lat="42.71197" lon="1.65183">
        <ele>1454.7</ele>
        <time>2020-02-08T11:21:40Z</time>
      </trkpt>
      <trkpt lat="42.71197" lon="1.65181">
        <ele>1454.8</ele>
        <time>2020-02-08T11:21:41Z</time>
      </trkpt>
      <trkpt lat="42.71198" lon="1.6518">
        <ele>1455</ele>
        <time>2020-02-08T11:21:42Z</time>
      </trkpt>
      <trkpt lat="42.71198" lon="1.65179">
        <ele>1455.1</ele>
        <time>2020-02-08T11:21:43Z</time>
      </trkpt>
      <trkpt lat="42.71199" lon="1.65178">
        <ele>1455.2</ele>
        <time>2020-02-08T11:21:44Z</time>
      </trkpt>
      <trkpt lat="42.71199" lon="1.65177">
        <ele>1455.3</ele>
        <time>2020-02-08T11:21:45Z</time>
      </trkpt>
      <trkpt lat="42.712" lon="1.65175">
        <ele>1455.4</ele>
        <time>2020-02-08T11:21:46Z</time>
      </trkpt>
      <trkpt lat="42.712" lon="1.65174">
        <ele>1455.5</ele>
        <time>2020-02-08T11:21:47Z</time>
      </trkpt>
      <trkpt lat="42.71201" lon="1.65173">
        <ele>1455.6</ele>
        <time>2020-02-08T11:21:48Z</time>
      </trkpt>
      <trkpt lat="42.71201" lon="1.65172">
        <ele>1455.7</ele>
        <time>2020-02-08T11:21:49Z</time>
      </trkpt>
      <trkpt lat="42.71202" lon="1.65171">
        <ele>1455.8</ele>
        <time>2020-02-08T11:21:50Z</time>
      </trkpt>
      <trkpt lat="42.71203" lon="1.6517">
        <ele>1455.9</ele>
        <time>2020-02-08T11:21:51Z</time>
      </trkpt>
      <trkpt lat="42.71203" lon="1.65169">
        <ele>1456</ele>
        <time>2020-02-08T11:21:52Z</time>
      </trkpt>
      <trkpt lat="42.71204" lon="1.65168">
        <ele>1456</ele>
        <time>2020-02-08T11:21:53Z</time>
      </trkpt>
      <trkpt lat="42.71205" lon="1.65167">
        <ele>1456.1</ele>
        <time>2020-02-08T11:21:54Z</time>
      </trkpt>
      <trkpt lat="42.71205" lon="1.65166">
        <ele>1456.2</ele>
        <time>2020-02-08T11:21:55Z</time>
      </trkpt>
      <trkpt lat="42.71206" lon="1.65165">
        <ele>1456.3</ele>
        <time>2020-02-08T11:21:56Z</time>
      </trkpt>
      <trkpt lat="42.71206" lon="1.65164">
        <ele>1456.4</ele>
        <time>2020-02-08T11:21:57Z</time>
      </trkpt>
      <trkpt lat="42.71207" lon="1.65163">
        <ele>1456.6</ele>
        <time>2020-02-08T11:21:58Z</time>
      </trkpt>
      <trkpt lat="42.71208" lon="1.65162">
        <ele>1456.7</ele>
        <time>2020-02-08T11:21:59Z</time>
      </trkpt>
      <trkpt lat="42.71208" lon="1.65161">
        <ele>1456.8</ele>
        <time>2020-02-08T11:22:00Z</time>
      </trkpt>
      <trkpt lat="42.71209" lon="1.6516">
        <ele>1457</ele>
        <time>2020-02-08T11:22:01Z</time>
      </trkpt>
      <trkpt lat="42.7121" lon="1.65159">
        <ele>1457.1</ele>
        <time>2020-02-08T11:22:02Z</time>
      </trkpt>
      <trkpt lat="42.7121" lon="1.65158">
        <ele>1457.2</ele>
        <time>2020-02-08T11:22:03Z</time>
      </trkpt>
      <trkpt lat="42.71211" lon="1.65157">
        <ele>1457.3</ele>
        <time>2020-02-08T11:22:04Z</time>
      </trkpt>
      <trkpt lat="42.71212" lon="1.65156">
        <ele>1457.5</ele>
        <time>2020-02-08T11:22:05Z</time>
      </trkpt>
      <trkpt lat="42.71212" lon="1.65155">
        <ele>1457.6</ele>
        <time>2020-02-08T11:22:06Z</time>
      </trkpt>
      <trkpt lat="42.71213" lon="1.65154">
        <ele>1457.7</ele>
        <time>2020-02-08T11:22:07Z</time>
      </trkpt>
      <trkpt lat="42.71214" lon="1.65153">
        <ele>1457.8</ele>
        <time>2020-02-08T11:22:08Z</time>
      </trkpt>
      <trkpt lat="42.71214" lon="1.65152">
        <ele>1457.9</ele>
        <time>2020-02-08T11:22:09Z</time>
      </trkpt>
      <trkpt lat="42.71217" lon="1.65149">
        <ele>1458.3</ele>
        <time>2020-02-08T11:22:10Z</time>
      </trkpt>
      <trkpt lat="42.71217" lon="1.65149">
        <ele>1458.3</ele>
        <time>2020-02-08T11:22:11Z</time>
      </trkpt>
      <trkpt lat="42.71217" lon="1.65149">
        <ele>1458.3</ele>
        <time>2020-02-08T11:22:12Z</time>
      </trkpt>
      <trkpt lat="42.71217" lon="1.65149">
        <ele>1458.3</ele>
        <time>2020-02-08T11:22:13Z</time>
      </trkpt>
      <trkpt lat="42.71217" lon="1.65149">
        <ele>1458.3</ele>
        <time>2020-02-08T11:22:14Z</time>
      </trkpt>
      <trkpt lat="42.71217" lon="1.65149">
        <ele>1458.3</ele>
        <time>2020-02-08T11:22:15Z</time>
      </trkpt>
      <trkpt lat="42.71217" lon="1.65149">
        <ele>1458.3</ele>
        <time>2020-02-08T11:22:16Z</time>
      </trkpt>
      <trkpt lat="42.71217" lon="1.65149">
        <ele>1458.3</ele>
        <time>2020-02-08T11:22:17Z</time>
      </trkpt>
      <trkpt lat="42.71217" lon="1.65149">
        <ele>1458.3</ele>
        <time>2020-02-08T11:22:18Z</time>
      </trkpt>
      <trkpt lat="42.71217" lon="1.65149">
        <ele>1458.3</ele>
        <time>2020-02-08T11:22:19Z</time>
      </trkpt>
      <trkpt lat="42.71218" lon="1.65148">
        <ele>1458.3</ele>
        <time>2020-02-08T11:22:20Z</time>
      </trkpt>
      <trkpt lat="42.71218" lon="1.65147">
        <ele>1458.4</ele>
        <time>2020-02-08T11:22:21Z</time>
      </trkpt>
      <trkpt lat="42.71219" lon="1.65146">
        <ele>1458.5</ele>
        <time>2020-02-08T11:22:22Z</time>
      </trkpt>
      <trkpt lat="42.71219" lon="1.65145">
        <ele>1458.6</ele>
        <time>2020-02-08T11:22:23Z</time>
      </trkpt>
      <trkpt lat="42.7122" lon="1.65144">
        <ele>1458.7</ele>
        <time>2020-02-08T11:22:24Z</time>
      </trkpt>
      <trkpt lat="42.71221" lon="1.65143">
        <ele>1458.7</ele>
        <time>2020-02-08T11:22:25Z</time>
      </trkpt>
      <trkpt lat="42.71221" lon="1.65142">
        <ele>1458.8</ele>
        <time>2020-02-08T11:22:26Z</time>
      </trkpt>
      <trkpt lat="42.71222" lon="1.65141">
        <ele>1458.9</ele>
        <time>2020-02-08T11:22:27Z</time>
      </trkpt>
      <trkpt lat="42.71222" lon="1.6514">
        <ele>1459</ele>
        <time>2020-02-08T11:22:28Z</time>
      </trkpt>
      <trkpt lat="42.71223" lon="1.65139">
        <ele>1459</ele>
        <time>2020-02-08T11:22:29Z</time>
      </trkpt>
      <trkpt lat="42.71224" lon="1.65137">
        <ele>1459.2</ele>
        <time>2020-02-08T11:22:30Z</time>
      </trkpt>
      <trkpt lat="42.71225" lon="1.65136">
        <ele>1459.4</ele>
        <time>2020-02-08T11:22:31Z</time>
      </trkpt>
      <trkpt lat="42.71226" lon="1.65134">
        <ele>1459.5</ele>
        <time>2020-02-08T11:22:32Z</time>
      </trkpt>
      <trkpt lat="42.71227" lon="1.65133">
        <ele>1459.7</ele>
        <time>2020-02-08T11:22:33Z</time>
      </trkpt>
      <trkpt lat="42.71228" lon="1.65131">
        <ele>1459.8</ele>
        <time>2020-02-08T11:22:34Z</time>
      </trkpt>
      <trkpt lat="42.71229" lon="1.6513">
        <ele>1460</ele>
        <time>2020-02-08T11:22:35Z</time>
      </trkpt>
      <trkpt lat="42.7123" lon="1.65128">
        <ele>1460.2</ele>
        <time>2020-02-08T11:22:36Z</time>
      </trkpt>
      <trkpt lat="42.71231" lon="1.65126">
        <ele>1460.3</ele>
        <time>2020-02-08T11:22:37Z</time>
      </trkpt>
      <trkpt lat="42.71232" lon="1.65125">
        <ele>1460.5</ele>
        <time>2020-02-08T11:22:38Z</time>
      </trkpt>
      <trkpt lat="42.71233" lon="1.65123">
        <ele>1460.7</ele>
        <time>2020-02-08T11:22:39Z</time>
      </trkpt>
      <trkpt lat="42.71235" lon="1.65118">
        <ele>1461.2</ele>
        <time>2020-02-08T11:22:40Z</time>
      </trkpt>
      <trkpt lat="42.71235" lon="1.65118">
        <ele>1461.1</ele>
        <time>2020-02-08T11:22:41Z</time>
      </trkpt>
      <trkpt lat="42.71235" lon="1.65118">
        <ele>1461.1</ele>
        <time>2020-02-08T11:22:42Z</time>
      </trkpt>
      <trkpt lat="42.71235" lon="1.65118">
        <ele>1461</ele>
        <time>2020-02-08T11:22:43Z</time>
      </trkpt>
      <trkpt lat="42.71235" lon="1.65118">
        <ele>1461</ele>
        <time>2020-02-08T11:22:44Z</time>
      </trkpt>
      <trkpt lat="42.71235" lon="1.65118">
        <ele>1461</ele>
        <time>2020-02-08T11:22:45Z</time>
      </trkpt>
      <trkpt lat="42.71235" lon="1.65118">
        <ele>1460.9</ele>
        <time>2020-02-08T11:22:46Z</time>
      </trkpt>
      <trkpt lat="42.71235" lon="1.65118">
        <ele>1460.9</ele>
        <time>2020-02-08T11:22:47Z</time>
      </trkpt>
      <trkpt lat="42.71235" lon="1.65118">
        <ele>1460.9</ele>
        <time>2020-02-08T11:22:48Z</time>
      </trkpt>
      <trkpt lat="42.71235" lon="1.65118">
        <ele>1460.8</ele>
        <time>2020-02-08T11:22:49Z</time>
      </trkpt>
      <trkpt lat="42.71235" lon="1.65117">
        <ele>1460.9</ele>
        <time>2020-02-08T11:22:50Z</time>
      </trkpt>
      <trkpt lat="42.71235" lon="1.65116">
        <ele>1461</ele>
        <time>2020-02-08T11:22:51Z</time>
      </trkpt>
      <trkpt lat="42.71235" lon="1.65114">
        <ele>1461</ele>
        <time>2020-02-08T11:22:52Z</time>
      </trkpt>
      <trkpt lat="42.71235" lon="1.65113">
        <ele>1461.2</ele>
        <time>2020-02-08T11:22:53Z</time>
      </trkpt>
      <trkpt lat="42.71235" lon="1.65112">
        <ele>1461.2</ele>
        <time>2020-02-08T11:22:54Z</time>
      </trkpt>
      <trkpt lat="42.71235" lon="1.65111">
        <ele>1461.3</ele>
        <time>2020-02-08T11:22:55Z</time>
      </trkpt>
      <trkpt lat="42.71235" lon="1.6511">
        <ele>1461.3</ele>
        <time>2020-02-08T11:22:56Z</time>
      </trkpt>
      <trkpt lat="42.71235" lon="1.65108">
        <ele>1461.4</ele>
        <time>2020-02-08T11:22:57Z</time>
      </trkpt>
      <trkpt lat="42.71235" lon="1.65107">
        <ele>1461.4</ele>
        <time>2020-02-08T11:22:58Z</time>
      </trkpt>
      <trkpt lat="42.71235" lon="1.65106">
        <ele>1461.4</ele>
        <time>2020-02-08T11:22:59Z</time>
      </trkpt>
      <trkpt lat="42.71235" lon="1.65106">
        <ele>1461.4</ele>
        <time>2020-02-08T11:23:00Z</time>
      </trkpt>
      <trkpt lat="42.71237" lon="1.65104">
        <ele>1461.7</ele>
        <time>2020-02-08T11:23:01Z</time>
      </trkpt>
      <trkpt lat="42.71237" lon="1.65104">
        <ele>1461.6</ele>
        <time>2020-02-08T11:23:02Z</time>
      </trkpt>
      <trkpt lat="42.71237" lon="1.65104">
        <ele>1461.6</ele>
        <time>2020-02-08T11:23:03Z</time>
      </trkpt>
      <trkpt lat="42.71237" lon="1.65104">
        <ele>1461.6</ele>
        <time>2020-02-08T11:23:04Z</time>
      </trkpt>
      <trkpt lat="42.71237" lon="1.65104">
        <ele>1461.5</ele>
        <time>2020-02-08T11:23:05Z</time>
      </trkpt>
      <trkpt lat="42.71237" lon="1.65104">
        <ele>1461.5</ele>
        <time>2020-02-08T11:23:06Z</time>
      </trkpt>
      <trkpt lat="42.71237" lon="1.65104">
        <ele>1461.5</ele>
        <time>2020-02-08T11:23:07Z</time>
      </trkpt>
      <trkpt lat="42.71237" lon="1.65104">
        <ele>1461.4</ele>
        <time>2020-02-08T11:23:08Z</time>
      </trkpt>
      <trkpt lat="42.71237" lon="1.65104">
        <ele>1461.4</ele>
        <time>2020-02-08T11:23:09Z</time>
      </trkpt>
      <trkpt lat="42.71237" lon="1.65103">
        <ele>1461.5</ele>
        <time>2020-02-08T11:23:10Z</time>
      </trkpt>
      <trkpt lat="42.71238" lon="1.65102">
        <ele>1461.5</ele>
        <time>2020-02-08T11:23:11Z</time>
      </trkpt>
      <trkpt lat="42.71238" lon="1.65101">
        <ele>1461.6</ele>
        <time>2020-02-08T11:23:12Z</time>
      </trkpt>
      <trkpt lat="42.71238" lon="1.65099">
        <ele>1461.8</ele>
        <time>2020-02-08T11:23:13Z</time>
      </trkpt>
      <trkpt lat="42.71239" lon="1.65098">
        <ele>1461.8</ele>
        <time>2020-02-08T11:23:14Z</time>
      </trkpt>
      <trkpt lat="42.71239" lon="1.65097">
        <ele>1461.9</ele>
        <time>2020-02-08T11:23:15Z</time>
      </trkpt>
      <trkpt lat="42.7124" lon="1.65096">
        <ele>1462</ele>
        <time>2020-02-08T11:23:16Z</time>
      </trkpt>
      <trkpt lat="42.7124" lon="1.65095">
        <ele>1462.1</ele>
        <time>2020-02-08T11:23:17Z</time>
      </trkpt>
      <trkpt lat="42.7124" lon="1.65094">
        <ele>1462.2</ele>
        <time>2020-02-08T11:23:18Z</time>
      </trkpt>
      <trkpt lat="42.71241" lon="1.65092">
        <ele>1462.3</ele>
        <time>2020-02-08T11:23:19Z</time>
      </trkpt>
      <trkpt lat="42.71241" lon="1.65091">
        <ele>1462.5</ele>
        <time>2020-02-08T11:23:20Z</time>
      </trkpt>
      <trkpt lat="42.71242" lon="1.6509">
        <ele>1462.5</ele>
        <time>2020-02-08T11:23:21Z</time>
      </trkpt>
      <trkpt lat="42.71242" lon="1.65089">
        <ele>1462.7</ele>
        <time>2020-02-08T11:23:22Z</time>
      </trkpt>
      <trkpt lat="42.71243" lon="1.65088">
        <ele>1462.8</ele>
        <time>2020-02-08T11:23:23Z</time>
      </trkpt>
      <trkpt lat="42.71243" lon="1.65087">
        <ele>1462.9</ele>
        <time>2020-02-08T11:23:24Z</time>
      </trkpt>
      <trkpt lat="42.71243" lon="1.65085">
        <ele>1463</ele>
        <time>2020-02-08T11:23:25Z</time>
      </trkpt>
      <trkpt lat="42.71244" lon="1.65084">
        <ele>1463.2</ele>
        <time>2020-02-08T11:23:26Z</time>
      </trkpt>
      <trkpt lat="42.71244" lon="1.65083">
        <ele>1463.2</ele>
        <time>2020-02-08T11:23:27Z</time>
      </trkpt>
      <trkpt lat="42.71245" lon="1.65082">
        <ele>1463.3</ele>
        <time>2020-02-08T11:23:28Z</time>
      </trkpt>
      <trkpt lat="42.71245" lon="1.65081">
        <ele>1463.4</ele>
        <time>2020-02-08T11:23:29Z</time>
      </trkpt>
      <trkpt lat="42.71245" lon="1.6508">
        <ele>1463.5</ele>
        <time>2020-02-08T11:23:30Z</time>
      </trkpt>
      <trkpt lat="42.71246" lon="1.65079">
        <ele>1463.4</ele>
        <time>2020-02-08T11:23:31Z</time>
      </trkpt>
      <trkpt lat="42.71246" lon="1.65079">
        <ele>1463.5</ele>
        <time>2020-02-08T11:23:32Z</time>
      </trkpt>
      <trkpt lat="42.71246" lon="1.65078">
        <ele>1463.5</ele>
        <time>2020-02-08T11:23:33Z</time>
      </trkpt>
      <trkpt lat="42.71246" lon="1.65078">
        <ele>1463.5</ele>
        <time>2020-02-08T11:23:34Z</time>
      </trkpt>
      <trkpt lat="42.71246" lon="1.65077">
        <ele>1463.5</ele>
        <time>2020-02-08T11:23:35Z</time>
      </trkpt>
      <trkpt lat="42.71247" lon="1.65077">
        <ele>1463.6</ele>
        <time>2020-02-08T11:23:36Z</time>
      </trkpt>
      <trkpt lat="42.71247" lon="1.65076">
        <ele>1463.6</ele>
        <time>2020-02-08T11:23:37Z</time>
      </trkpt>
      <trkpt lat="42.71247" lon="1.65075">
        <ele>1463.6</ele>
        <time>2020-02-08T11:23:38Z</time>
      </trkpt>
      <trkpt lat="42.71247" lon="1.65075">
        <ele>1463.6</ele>
        <time>2020-02-08T11:23:39Z</time>
      </trkpt>
      <trkpt lat="42.71248" lon="1.65074">
        <ele>1463.7</ele>
        <time>2020-02-08T11:23:40Z</time>
      </trkpt>
      <trkpt lat="42.71248" lon="1.65074">
        <ele>1463.7</ele>
        <time>2020-02-08T11:23:41Z</time>
      </trkpt>
      <trkpt lat="42.71248" lon="1.65073">
        <ele>1463.7</ele>
        <time>2020-02-08T11:23:42Z</time>
      </trkpt>
      <trkpt lat="42.71248" lon="1.65073">
        <ele>1463.7</ele>
        <time>2020-02-08T11:23:43Z</time>
      </trkpt>
      <trkpt lat="42.71248" lon="1.65072">
        <ele>1463.8</ele>
        <time>2020-02-08T11:23:44Z</time>
      </trkpt>
      <trkpt lat="42.71249" lon="1.65071">
        <ele>1463.8</ele>
        <time>2020-02-08T11:23:45Z</time>
      </trkpt>
      <trkpt lat="42.71249" lon="1.65071">
        <ele>1463.9</ele>
        <time>2020-02-08T11:23:46Z</time>
      </trkpt>
      <trkpt lat="42.71249" lon="1.6507">
        <ele>1464</ele>
        <time>2020-02-08T11:23:47Z</time>
      </trkpt>
      <trkpt lat="42.71249" lon="1.6507">
        <ele>1464</ele>
        <time>2020-02-08T11:23:48Z</time>
      </trkpt>
      <trkpt lat="42.71249" lon="1.65069">
        <ele>1464</ele>
        <time>2020-02-08T11:23:49Z</time>
      </trkpt>
      <trkpt lat="42.71249" lon="1.65069">
        <ele>1464.1</ele>
        <time>2020-02-08T11:23:50Z</time>
      </trkpt>
      <trkpt lat="42.71249" lon="1.65068">
        <ele>1464.1</ele>
        <time>2020-02-08T11:23:51Z</time>
      </trkpt>
      <trkpt lat="42.71249" lon="1.65067">
        <ele>1464.2</ele>
        <time>2020-02-08T11:23:52Z</time>
      </trkpt>
      <trkpt lat="42.71249" lon="1.65067">
        <ele>1464.3</ele>
        <time>2020-02-08T11:23:53Z</time>
      </trkpt>
      <trkpt lat="42.71249" lon="1.65066">
        <ele>1464.4</ele>
        <time>2020-02-08T11:23:54Z</time>
      </trkpt>
      <trkpt lat="42.71249" lon="1.65065">
        <ele>1464.4</ele>
        <time>2020-02-08T11:23:55Z</time>
      </trkpt>
      <trkpt lat="42.71249" lon="1.65065">
        <ele>1464.4</ele>
        <time>2020-02-08T11:23:56Z</time>
      </trkpt>
      <trkpt lat="42.71249" lon="1.65064">
        <ele>1464.5</ele>
        <time>2020-02-08T11:23:57Z</time>
      </trkpt>
      <trkpt lat="42.71249" lon="1.65063">
        <ele>1464.6</ele>
        <time>2020-02-08T11:23:58Z</time>
      </trkpt>
      <trkpt lat="42.71249" lon="1.65063">
        <ele>1464.7</ele>
        <time>2020-02-08T11:23:59Z</time>
      </trkpt>
      <trkpt lat="42.71249" lon="1.65062">
        <ele>1464.7</ele>
        <time>2020-02-08T11:24:00Z</time>
      </trkpt>
      <trkpt lat="42.71249" lon="1.65061">
        <ele>1464.8</ele>
        <time>2020-02-08T11:24:01Z</time>
      </trkpt>
      <trkpt lat="42.71249" lon="1.65061">
        <ele>1464.8</ele>
        <time>2020-02-08T11:24:02Z</time>
      </trkpt>
      <trkpt lat="42.71249" lon="1.6506">
        <ele>1464.9</ele>
        <time>2020-02-08T11:24:03Z</time>
      </trkpt>
      <trkpt lat="42.71249" lon="1.65059">
        <ele>1465</ele>
        <time>2020-02-08T11:24:04Z</time>
      </trkpt>
      <trkpt lat="42.71249" lon="1.65059">
        <ele>1465</ele>
        <time>2020-02-08T11:24:05Z</time>
      </trkpt>
      <trkpt lat="42.71249" lon="1.65058">
        <ele>1465</ele>
        <time>2020-02-08T11:24:06Z</time>
      </trkpt>
      <trkpt lat="42.71249" lon="1.65058">
        <ele>1465</ele>
        <time>2020-02-08T11:24:07Z</time>
      </trkpt>
      <trkpt lat="42.71249" lon="1.65057">
        <ele>1465.1</ele>
        <time>2020-02-08T11:24:08Z</time>
      </trkpt>
      <trkpt lat="42.71249" lon="1.65056">
        <ele>1465.1</ele>
        <time>2020-02-08T11:24:09Z</time>
      </trkpt>
      <trkpt lat="42.71249" lon="1.65056">
        <ele>1465.2</ele>
        <time>2020-02-08T11:24:10Z</time>
      </trkpt>
      <trkpt lat="42.71249" lon="1.65055">
        <ele>1465.2</ele>
        <time>2020-02-08T11:24:11Z</time>
      </trkpt>
      <trkpt lat="42.71249" lon="1.65054">
        <ele>1465.2</ele>
        <time>2020-02-08T11:24:12Z</time>
      </trkpt>
      <trkpt lat="42.71249" lon="1.65054">
        <ele>1465.3</ele>
        <time>2020-02-08T11:24:13Z</time>
      </trkpt>
      <trkpt lat="42.71249" lon="1.65053">
        <ele>1465.3</ele>
        <time>2020-02-08T11:24:14Z</time>
      </trkpt>
      <trkpt lat="42.71248" lon="1.65053">
        <ele>1465.4</ele>
        <time>2020-02-08T11:24:15Z</time>
      </trkpt>
      <trkpt lat="42.71248" lon="1.65052">
        <ele>1465.4</ele>
        <time>2020-02-08T11:24:16Z</time>
      </trkpt>
      <trkpt lat="42.71248" lon="1.65052">
        <ele>1465.5</ele>
        <time>2020-02-08T11:24:17Z</time>
      </trkpt>
      <trkpt lat="42.71248" lon="1.65051">
        <ele>1465.5</ele>
        <time>2020-02-08T11:24:18Z</time>
      </trkpt>
      <trkpt lat="42.71248" lon="1.6505">
        <ele>1465.6</ele>
        <time>2020-02-08T11:24:19Z</time>
      </trkpt>
      <trkpt lat="42.71248" lon="1.6505">
        <ele>1465.6</ele>
        <time>2020-02-08T11:24:20Z</time>
      </trkpt>
      <trkpt lat="42.71247" lon="1.65049">
        <ele>1465.6</ele>
        <time>2020-02-08T11:24:21Z</time>
      </trkpt>
      <trkpt lat="42.71247" lon="1.65049">
        <ele>1465.7</ele>
        <time>2020-02-08T11:24:22Z</time>
      </trkpt>
      <trkpt lat="42.71247" lon="1.65048">
        <ele>1465.7</ele>
        <time>2020-02-08T11:24:23Z</time>
      </trkpt>
      <trkpt lat="42.71247" lon="1.65047">
        <ele>1465.8</ele>
        <time>2020-02-08T11:24:24Z</time>
      </trkpt>
      <trkpt lat="42.71247" lon="1.65047">
        <ele>1465.8</ele>
        <time>2020-02-08T11:24:25Z</time>
      </trkpt>
      <trkpt lat="42.71247" lon="1.65046">
        <ele>1465.9</ele>
        <time>2020-02-08T11:24:26Z</time>
      </trkpt>
      <trkpt lat="42.71246" lon="1.65046">
        <ele>1465.9</ele>
        <time>2020-02-08T11:24:27Z</time>
      </trkpt>
      <trkpt lat="42.71246" lon="1.65045">
        <ele>1466</ele>
        <time>2020-02-08T11:24:28Z</time>
      </trkpt>
      <trkpt lat="42.71246" lon="1.65045">
        <ele>1466</ele>
        <time>2020-02-08T11:24:29Z</time>
      </trkpt>
      <trkpt lat="42.71246" lon="1.65043">
        <ele>1466.2</ele>
        <time>2020-02-08T11:24:30Z</time>
      </trkpt>
      <trkpt lat="42.71245" lon="1.65042">
        <ele>1466.3</ele>
        <time>2020-02-08T11:24:31Z</time>
      </trkpt>
      <trkpt lat="42.71244" lon="1.65041">
        <ele>1466.4</ele>
        <time>2020-02-08T11:24:32Z</time>
      </trkpt>
      <trkpt lat="42.71244" lon="1.6504">
        <ele>1466.5</ele>
        <time>2020-02-08T11:24:33Z</time>
      </trkpt>
      <trkpt lat="42.71243" lon="1.65039">
        <ele>1466.6</ele>
        <time>2020-02-08T11:24:34Z</time>
      </trkpt>
      <trkpt lat="42.71243" lon="1.65038">
        <ele>1466.7</ele>
        <time>2020-02-08T11:24:35Z</time>
      </trkpt>
      <trkpt lat="42.71242" lon="1.65037">
        <ele>1466.8</ele>
        <time>2020-02-08T11:24:36Z</time>
      </trkpt>
      <trkpt lat="42.71241" lon="1.65036">
        <ele>1467</ele>
        <time>2020-02-08T11:24:37Z</time>
      </trkpt>
      <trkpt lat="42.71241" lon="1.65035">
        <ele>1467.1</ele>
        <time>2020-02-08T11:24:38Z</time>
      </trkpt>
      <trkpt lat="42.7124" lon="1.65034">
        <ele>1467.3</ele>
        <time>2020-02-08T11:24:39Z</time>
      </trkpt>
      <trkpt lat="42.7124" lon="1.65033">
        <ele>1467.4</ele>
        <time>2020-02-08T11:24:40Z</time>
      </trkpt>
      <trkpt lat="42.7124" lon="1.65031">
        <ele>1467.5</ele>
        <time>2020-02-08T11:24:41Z</time>
      </trkpt>
      <trkpt lat="42.7124" lon="1.6503">
        <ele>1467.7</ele>
        <time>2020-02-08T11:24:42Z</time>
      </trkpt>
      <trkpt lat="42.7124" lon="1.65029">
        <ele>1467.8</ele>
        <time>2020-02-08T11:24:43Z</time>
      </trkpt>
      <trkpt lat="42.71239" lon="1.65028">
        <ele>1468</ele>
        <time>2020-02-08T11:24:44Z</time>
      </trkpt>
      <trkpt lat="42.71239" lon="1.65026">
        <ele>1468.1</ele>
        <time>2020-02-08T11:24:45Z</time>
      </trkpt>
      <trkpt lat="42.71239" lon="1.65025">
        <ele>1468.3</ele>
        <time>2020-02-08T11:24:46Z</time>
      </trkpt>
      <trkpt lat="42.71239" lon="1.65024">
        <ele>1468.4</ele>
        <time>2020-02-08T11:24:47Z</time>
      </trkpt>
      <trkpt lat="42.71239" lon="1.65023">
        <ele>1468.5</ele>
        <time>2020-02-08T11:24:48Z</time>
      </trkpt>
      <trkpt lat="42.71238" lon="1.65021">
        <ele>1468.6</ele>
        <time>2020-02-08T11:24:49Z</time>
      </trkpt>
      <trkpt lat="42.71238" lon="1.6502">
        <ele>1468.7</ele>
        <time>2020-02-08T11:24:50Z</time>
      </trkpt>
      <trkpt lat="42.71238" lon="1.65019">
        <ele>1468.8</ele>
        <time>2020-02-08T11:24:51Z</time>
      </trkpt>
      <trkpt lat="42.71237" lon="1.65018">
        <ele>1468.9</ele>
        <time>2020-02-08T11:24:52Z</time>
      </trkpt>
      <trkpt lat="42.71237" lon="1.65017">
        <ele>1469</ele>
        <time>2020-02-08T11:24:53Z</time>
      </trkpt>
      <trkpt lat="42.71237" lon="1.65016">
        <ele>1469</ele>
        <time>2020-02-08T11:24:54Z</time>
      </trkpt>
      <trkpt lat="42.71237" lon="1.65015">
        <ele>1469.1</ele>
        <time>2020-02-08T11:24:55Z</time>
      </trkpt>
      <trkpt lat="42.71236" lon="1.65014">
        <ele>1469.2</ele>
        <time>2020-02-08T11:24:56Z</time>
      </trkpt>
      <trkpt lat="42.71236" lon="1.65012">
        <ele>1469.3</ele>
        <time>2020-02-08T11:24:57Z</time>
      </trkpt>
      <trkpt lat="42.71236" lon="1.65011">
        <ele>1469.4</ele>
        <time>2020-02-08T11:24:58Z</time>
      </trkpt>
      <trkpt lat="42.71235" lon="1.6501">
        <ele>1469.5</ele>
        <time>2020-02-08T11:24:59Z</time>
      </trkpt>
      <trkpt lat="42.71235" lon="1.65009">
        <ele>1469.6</ele>
        <time>2020-02-08T11:25:00Z</time>
      </trkpt>
      <trkpt lat="42.71235" lon="1.65008">
        <ele>1469.7</ele>
        <time>2020-02-08T11:25:01Z</time>
      </trkpt>
      <trkpt lat="42.71234" lon="1.65007">
        <ele>1469.8</ele>
        <time>2020-02-08T11:25:02Z</time>
      </trkpt>
      <trkpt lat="42.71234" lon="1.65006">
        <ele>1469.9</ele>
        <time>2020-02-08T11:25:03Z</time>
      </trkpt>
      <trkpt lat="42.71234" lon="1.65005">
        <ele>1470.1</ele>
        <time>2020-02-08T11:25:04Z</time>
      </trkpt>
      <trkpt lat="42.71233" lon="1.65004">
        <ele>1470.2</ele>
        <time>2020-02-08T11:25:05Z</time>
      </trkpt>
      <trkpt lat="42.71233" lon="1.65002">
        <ele>1470.3</ele>
        <time>2020-02-08T11:25:06Z</time>
      </trkpt>
      <trkpt lat="42.71232" lon="1.65001">
        <ele>1470.4</ele>
        <time>2020-02-08T11:25:07Z</time>
      </trkpt>
      <trkpt lat="42.71232" lon="1.65">
        <ele>1470.5</ele>
        <time>2020-02-08T11:25:08Z</time>
      </trkpt>
      <trkpt lat="42.71232" lon="1.64999">
        <ele>1470.6</ele>
        <time>2020-02-08T11:25:09Z</time>
      </trkpt>
      <trkpt lat="42.71232" lon="1.64998">
        <ele>1470.7</ele>
        <time>2020-02-08T11:25:10Z</time>
      </trkpt>
      <trkpt lat="42.71232" lon="1.64998">
        <ele>1470.8</ele>
        <time>2020-02-08T11:25:11Z</time>
      </trkpt>
      <trkpt lat="42.71232" lon="1.64997">
        <ele>1470.9</ele>
        <time>2020-02-08T11:25:12Z</time>
      </trkpt>
      <trkpt lat="42.71232" lon="1.64996">
        <ele>1471</ele>
        <time>2020-02-08T11:25:13Z</time>
      </trkpt>
      <trkpt lat="42.71232" lon="1.64995">
        <ele>1471</ele>
        <time>2020-02-08T11:25:14Z</time>
      </trkpt>
      <trkpt lat="42.71232" lon="1.64995">
        <ele>1471</ele>
        <time>2020-02-08T11:25:15Z</time>
      </trkpt>
      <trkpt lat="42.71232" lon="1.64994">
        <ele>1471</ele>
        <time>2020-02-08T11:25:16Z</time>
      </trkpt>
      <trkpt lat="42.71232" lon="1.64993">
        <ele>1471</ele>
        <time>2020-02-08T11:25:17Z</time>
      </trkpt>
      <trkpt lat="42.71231" lon="1.64992">
        <ele>1471.6</ele>
        <time>2020-02-08T11:25:18Z</time>
      </trkpt>
      <trkpt lat="42.71231" lon="1.64992">
        <ele>1471.6</ele>
        <time>2020-02-08T11:25:19Z</time>
      </trkpt>
      <trkpt lat="42.71232" lon="1.64991">
        <ele>1471.6</ele>
        <time>2020-02-08T11:25:20Z</time>
      </trkpt>
      <trkpt lat="42.71232" lon="1.6499">
        <ele>1471.6</ele>
        <time>2020-02-08T11:25:21Z</time>
      </trkpt>
      <trkpt lat="42.71232" lon="1.6499">
        <ele>1471.6</ele>
        <time>2020-02-08T11:25:22Z</time>
      </trkpt>
      <trkpt lat="42.71232" lon="1.64989">
        <ele>1471.6</ele>
        <time>2020-02-08T11:25:23Z</time>
      </trkpt>
      <trkpt lat="42.71232" lon="1.64989">
        <ele>1471.6</ele>
        <time>2020-02-08T11:25:24Z</time>
      </trkpt>
      <trkpt lat="42.71232" lon="1.64988">
        <ele>1472.1</ele>
        <time>2020-02-08T11:25:25Z</time>
      </trkpt>
      <trkpt lat="42.71233" lon="1.64987">
        <ele>1472.1</ele>
        <time>2020-02-08T11:25:26Z</time>
      </trkpt>
      <trkpt lat="42.71233" lon="1.64987">
        <ele>1472.1</ele>
        <time>2020-02-08T11:25:27Z</time>
      </trkpt>
      <trkpt lat="42.71233" lon="1.64986">
        <ele>1472.1</ele>
        <time>2020-02-08T11:25:28Z</time>
      </trkpt>
      <trkpt lat="42.71233" lon="1.64986">
        <ele>1472.1</ele>
        <time>2020-02-08T11:25:29Z</time>
      </trkpt>
      <trkpt lat="42.71233" lon="1.64984">
        <ele>1472.1</ele>
        <time>2020-02-08T11:25:30Z</time>
      </trkpt>
      <trkpt lat="42.71233" lon="1.64983">
        <ele>1472.7</ele>
        <time>2020-02-08T11:25:31Z</time>
      </trkpt>
      <trkpt lat="42.71233" lon="1.64982">
        <ele>1472.7</ele>
        <time>2020-02-08T11:25:32Z</time>
      </trkpt>
      <trkpt lat="42.71234" lon="1.64981">
        <ele>1472.7</ele>
        <time>2020-02-08T11:25:33Z</time>
      </trkpt>
      <trkpt lat="42.71234" lon="1.64979">
        <ele>1473.3</ele>
        <time>2020-02-08T11:25:34Z</time>
      </trkpt>
      <trkpt lat="42.71234" lon="1.64978">
        <ele>1473.3</ele>
        <time>2020-02-08T11:25:35Z</time>
      </trkpt>
      <trkpt lat="42.71234" lon="1.64977">
        <ele>1473.3</ele>
        <time>2020-02-08T11:25:36Z</time>
      </trkpt>
      <trkpt lat="42.71234" lon="1.64976">
        <ele>1473.3</ele>
        <time>2020-02-08T11:25:37Z</time>
      </trkpt>
      <trkpt lat="42.71234" lon="1.64974">
        <ele>1473.9</ele>
        <time>2020-02-08T11:25:38Z</time>
      </trkpt>
      <trkpt lat="42.71234" lon="1.64973">
        <ele>1473.9</ele>
        <time>2020-02-08T11:25:39Z</time>
      </trkpt>
      <trkpt lat="42.71234" lon="1.64973">
        <ele>1473.9</ele>
        <time>2020-02-08T11:25:40Z</time>
      </trkpt>
      <trkpt lat="42.71235" lon="1.64972">
        <ele>1473.9</ele>
        <time>2020-02-08T11:25:41Z</time>
      </trkpt>
      <trkpt lat="42.71235" lon="1.64972">
        <ele>1473.9</ele>
        <time>2020-02-08T11:25:42Z</time>
      </trkpt>
      <trkpt lat="42.71235" lon="1.64972">
        <ele>1473.9</ele>
        <time>2020-02-08T11:25:43Z</time>
      </trkpt>
      <trkpt lat="42.71235" lon="1.64971">
        <ele>1473.9</ele>
        <time>2020-02-08T11:25:44Z</time>
      </trkpt>
      <trkpt lat="42.71235" lon="1.64971">
        <ele>1473.9</ele>
        <time>2020-02-08T11:25:45Z</time>
      </trkpt>
      <trkpt lat="42.71235" lon="1.64971">
        <ele>1474.5</ele>
        <time>2020-02-08T11:25:46Z</time>
      </trkpt>
      <trkpt lat="42.71235" lon="1.6497">
        <ele>1474.5</ele>
        <time>2020-02-08T11:25:47Z</time>
      </trkpt>
      <trkpt lat="42.71236" lon="1.6497">
        <ele>1474.5</ele>
        <time>2020-02-08T11:25:48Z</time>
      </trkpt>
      <trkpt lat="42.71236" lon="1.6497">
        <ele>1474.5</ele>
        <time>2020-02-08T11:25:49Z</time>
      </trkpt>
      <trkpt lat="42.71236" lon="1.64969">
        <ele>1474.5</ele>
        <time>2020-02-08T11:25:50Z</time>
      </trkpt>
      <trkpt lat="42.71236" lon="1.64969">
        <ele>1474.5</ele>
        <time>2020-02-08T11:25:51Z</time>
      </trkpt>
      <trkpt lat="42.71236" lon="1.64969">
        <ele>1474.5</ele>
        <time>2020-02-08T11:25:52Z</time>
      </trkpt>
      <trkpt lat="42.71236" lon="1.64968">
        <ele>1474.5</ele>
        <time>2020-02-08T11:25:53Z</time>
      </trkpt>
      <trkpt lat="42.71236" lon="1.64968">
        <ele>1474.5</ele>
        <time>2020-02-08T11:25:54Z</time>
      </trkpt>
      <trkpt lat="42.71236" lon="1.64968">
        <ele>1474.5</ele>
        <time>2020-02-08T11:25:55Z</time>
      </trkpt>
      <trkpt lat="42.71237" lon="1.64967">
        <ele>1474.5</ele>
        <time>2020-02-08T11:25:56Z</time>
      </trkpt>
      <trkpt lat="42.71237" lon="1.64967">
        <ele>1474.5</ele>
        <time>2020-02-08T11:25:57Z</time>
      </trkpt>
      <trkpt lat="42.71237" lon="1.64967">
        <ele>1474.6</ele>
        <time>2020-02-08T11:25:58Z</time>
      </trkpt>
      <trkpt lat="42.71237" lon="1.64966">
        <ele>1475.3</ele>
        <time>2020-02-08T11:25:59Z</time>
      </trkpt>
      <trkpt lat="42.71237" lon="1.64966">
        <ele>1475.3</ele>
        <time>2020-02-08T11:26:00Z</time>
      </trkpt>
      <trkpt lat="42.71237" lon="1.64966">
        <ele>1475.3</ele>
        <time>2020-02-08T11:26:01Z</time>
      </trkpt>
      <trkpt lat="42.71237" lon="1.64965">
        <ele>1475.3</ele>
        <time>2020-02-08T11:26:02Z</time>
      </trkpt>
      <trkpt lat="42.71237" lon="1.64965">
        <ele>1475.3</ele>
        <time>2020-02-08T11:26:03Z</time>
      </trkpt>
      <trkpt lat="42.71237" lon="1.64965">
        <ele>1475.3</ele>
        <time>2020-02-08T11:26:04Z</time>
      </trkpt>
      <trkpt lat="42.71237" lon="1.64964">
        <ele>1475.3</ele>
        <time>2020-02-08T11:26:05Z</time>
      </trkpt>
      <trkpt lat="42.71237" lon="1.64964">
        <ele>1475.3</ele>
        <time>2020-02-08T11:26:06Z</time>
      </trkpt>
      <trkpt lat="42.71237" lon="1.64964">
        <ele>1475.3</ele>
        <time>2020-02-08T11:26:07Z</time>
      </trkpt>
      <trkpt lat="42.71237" lon="1.64964">
        <ele>1475.3</ele>
        <time>2020-02-08T11:26:08Z</time>
      </trkpt>
      <trkpt lat="42.71238" lon="1.64963">
        <ele>1475.3</ele>
        <time>2020-02-08T11:26:09Z</time>
      </trkpt>
      <trkpt lat="42.71238" lon="1.64963">
        <ele>1475.3</ele>
        <time>2020-02-08T11:26:10Z</time>
      </trkpt>
      <trkpt lat="42.71238" lon="1.64963">
        <ele>1475.3</ele>
        <time>2020-02-08T11:26:11Z</time>
      </trkpt>
      <trkpt lat="42.71238" lon="1.64962">
        <ele>1476</ele>
        <time>2020-02-08T11:26:12Z</time>
      </trkpt>
      <trkpt lat="42.71238" lon="1.64962">
        <ele>1476</ele>
        <time>2020-02-08T11:26:13Z</time>
      </trkpt>
      <trkpt lat="42.71238" lon="1.64962">
        <ele>1476</ele>
        <time>2020-02-08T11:26:14Z</time>
      </trkpt>
      <trkpt lat="42.71238" lon="1.64961">
        <ele>1476</ele>
        <time>2020-02-08T11:26:15Z</time>
      </trkpt>
      <trkpt lat="42.71238" lon="1.64961">
        <ele>1476</ele>
        <time>2020-02-08T11:26:16Z</time>
      </trkpt>
      <trkpt lat="42.71238" lon="1.64961">
        <ele>1476</ele>
        <time>2020-02-08T11:26:17Z</time>
      </trkpt>
      <trkpt lat="42.71238" lon="1.6496">
        <ele>1476</ele>
        <time>2020-02-08T11:26:18Z</time>
      </trkpt>
      <trkpt lat="42.71238" lon="1.6496">
        <ele>1476</ele>
        <time>2020-02-08T11:26:19Z</time>
      </trkpt>
      <trkpt lat="42.71238" lon="1.6496">
        <ele>1476</ele>
        <time>2020-02-08T11:26:20Z</time>
      </trkpt>
      <trkpt lat="42.71238" lon="1.64959">
        <ele>1476</ele>
        <time>2020-02-08T11:26:21Z</time>
      </trkpt>
      <trkpt lat="42.71238" lon="1.64959">
        <ele>1476</ele>
        <time>2020-02-08T11:26:22Z</time>
      </trkpt>
      <trkpt lat="42.71238" lon="1.64959">
        <ele>1476</ele>
        <time>2020-02-08T11:26:23Z</time>
      </trkpt>
      <trkpt lat="42.71238" lon="1.64958">
        <ele>1476</ele>
        <time>2020-02-08T11:26:24Z</time>
      </trkpt>
      <trkpt lat="42.71238" lon="1.64958">
        <ele>1476</ele>
        <time>2020-02-08T11:26:25Z</time>
      </trkpt>
      <trkpt lat="42.71238" lon="1.64958">
        <ele>1476.7</ele>
        <time>2020-02-08T11:26:26Z</time>
      </trkpt>
      <trkpt lat="42.71238" lon="1.64958">
        <ele>1476.7</ele>
        <time>2020-02-08T11:26:27Z</time>
      </trkpt>
      <trkpt lat="42.71239" lon="1.64957">
        <ele>1476.7</ele>
        <time>2020-02-08T11:26:28Z</time>
      </trkpt>
      <trkpt lat="42.71239" lon="1.64957">
        <ele>1476.7</ele>
        <time>2020-02-08T11:26:29Z</time>
      </trkpt>
      <trkpt lat="42.71239" lon="1.64957">
        <ele>1476.7</ele>
        <time>2020-02-08T11:26:30Z</time>
      </trkpt>
      <trkpt lat="42.71239" lon="1.64956">
        <ele>1476.7</ele>
        <time>2020-02-08T11:26:31Z</time>
      </trkpt>
      <trkpt lat="42.71239" lon="1.64956">
        <ele>1476.7</ele>
        <time>2020-02-08T11:26:32Z</time>
      </trkpt>
      <trkpt lat="42.71239" lon="1.64956">
        <ele>1476.7</ele>
        <time>2020-02-08T11:26:33Z</time>
      </trkpt>
      <trkpt lat="42.71239" lon="1.64955">
        <ele>1476.7</ele>
        <time>2020-02-08T11:26:34Z</time>
      </trkpt>
      <trkpt lat="42.71239" lon="1.64955">
        <ele>1476.7</ele>
        <time>2020-02-08T11:26:35Z</time>
      </trkpt>
      <trkpt lat="42.71239" lon="1.64955">
        <ele>1476.7</ele>
        <time>2020-02-08T11:26:36Z</time>
      </trkpt>
      <trkpt lat="42.71239" lon="1.64954">
        <ele>1476.7</ele>
        <time>2020-02-08T11:26:37Z</time>
      </trkpt>
      <trkpt lat="42.71239" lon="1.64954">
        <ele>1476.7</ele>
        <time>2020-02-08T11:26:38Z</time>
      </trkpt>
      <trkpt lat="42.71239" lon="1.64954">
        <ele>1477.4</ele>
        <time>2020-02-08T11:26:39Z</time>
      </trkpt>
      <trkpt lat="42.71239" lon="1.64953">
        <ele>1477.4</ele>
        <time>2020-02-08T11:26:40Z</time>
      </trkpt>
      <trkpt lat="42.71238" lon="1.64951">
        <ele>1477.4</ele>
        <time>2020-02-08T11:26:41Z</time>
      </trkpt>
      <trkpt lat="42.71238" lon="1.6495">
        <ele>1477.4</ele>
        <time>2020-02-08T11:26:42Z</time>
      </trkpt>
      <trkpt lat="42.71238" lon="1.64949">
        <ele>1478.1</ele>
        <time>2020-02-08T11:26:43Z</time>
      </trkpt>
      <trkpt lat="42.71237" lon="1.64948">
        <ele>1478.1</ele>
        <time>2020-02-08T11:26:44Z</time>
      </trkpt>
      <trkpt lat="42.71237" lon="1.64946">
        <ele>1478.1</ele>
        <time>2020-02-08T11:26:45Z</time>
      </trkpt>
      <trkpt lat="42.71237" lon="1.64945">
        <ele>1477.9</ele>
        <time>2020-02-08T11:26:46Z</time>
      </trkpt>
      <trkpt lat="42.71236" lon="1.64944">
        <ele>1478.6</ele>
        <time>2020-02-08T11:26:47Z</time>
      </trkpt>
      <trkpt lat="42.71236" lon="1.64943">
        <ele>1478.6</ele>
        <time>2020-02-08T11:26:48Z</time>
      </trkpt>
      <trkpt lat="42.71236" lon="1.64942">
        <ele>1478.6</ele>
        <time>2020-02-08T11:26:49Z</time>
      </trkpt>
      <trkpt lat="42.71236" lon="1.6494">
        <ele>1479.3</ele>
        <time>2020-02-08T11:26:50Z</time>
      </trkpt>
      <trkpt lat="42.71236" lon="1.64939">
        <ele>1479.3</ele>
        <time>2020-02-08T11:26:51Z</time>
      </trkpt>
      <trkpt lat="42.71236" lon="1.64938">
        <ele>1479.3</ele>
        <time>2020-02-08T11:26:52Z</time>
      </trkpt>
      <trkpt lat="42.71236" lon="1.64937">
        <ele>1479.9</ele>
        <time>2020-02-08T11:26:53Z</time>
      </trkpt>
      <trkpt lat="42.71236" lon="1.64935">
        <ele>1479.9</ele>
        <time>2020-02-08T11:26:54Z</time>
      </trkpt>
      <trkpt lat="42.71236" lon="1.64934">
        <ele>1479.9</ele>
        <time>2020-02-08T11:26:55Z</time>
      </trkpt>
      <trkpt lat="42.71236" lon="1.64933">
        <ele>1479.9</ele>
        <time>2020-02-08T11:26:56Z</time>
      </trkpt>
      <trkpt lat="42.71236" lon="1.64932">
        <ele>1480.6</ele>
        <time>2020-02-08T11:26:57Z</time>
      </trkpt>
      <trkpt lat="42.71236" lon="1.6493">
        <ele>1480.6</ele>
        <time>2020-02-08T11:26:58Z</time>
      </trkpt>
      <trkpt lat="42.71236" lon="1.64929">
        <ele>1480.6</ele>
        <time>2020-02-08T11:26:59Z</time>
      </trkpt>
      <trkpt lat="42.71237" lon="1.64928">
        <ele>1480.9</ele>
        <time>2020-02-08T11:27:00Z</time>
      </trkpt>
      <trkpt lat="42.71238" lon="1.64927">
        <ele>1481.6</ele>
        <time>2020-02-08T11:27:01Z</time>
      </trkpt>
      <trkpt lat="42.71238" lon="1.64926">
        <ele>1481.6</ele>
        <time>2020-02-08T11:27:02Z</time>
      </trkpt>
      <trkpt lat="42.71239" lon="1.64925">
        <ele>1481.6</ele>
        <time>2020-02-08T11:27:03Z</time>
      </trkpt>
      <trkpt lat="42.71239" lon="1.64924">
        <ele>1481.6</ele>
        <time>2020-02-08T11:27:04Z</time>
      </trkpt>
      <trkpt lat="42.7124" lon="1.64923">
        <ele>1482.5</ele>
        <time>2020-02-08T11:27:05Z</time>
      </trkpt>
      <trkpt lat="42.7124" lon="1.64922">
        <ele>1482.8</ele>
        <time>2020-02-08T11:27:06Z</time>
      </trkpt>
      <trkpt lat="42.71241" lon="1.64921">
        <ele>1482.8</ele>
        <time>2020-02-08T11:27:07Z</time>
      </trkpt>
      <trkpt lat="42.71242" lon="1.6492">
        <ele>1482.8</ele>
        <time>2020-02-08T11:27:08Z</time>
      </trkpt>
      <trkpt lat="42.71242" lon="1.64919">
        <ele>1483.7</ele>
        <time>2020-02-08T11:27:09Z</time>
      </trkpt>
      <trkpt lat="42.71242" lon="1.64919">
        <ele>1483.7</ele>
        <time>2020-02-08T11:27:10Z</time>
      </trkpt>
      <trkpt lat="42.71242" lon="1.64919">
        <ele>1483.7</ele>
        <time>2020-02-08T11:27:11Z</time>
      </trkpt>
      <trkpt lat="42.71242" lon="1.64919">
        <ele>1483.7</ele>
        <time>2020-02-08T11:27:12Z</time>
      </trkpt>
      <trkpt lat="42.71242" lon="1.64919">
        <ele>1483.7</ele>
        <time>2020-02-08T11:27:13Z</time>
      </trkpt>
      <trkpt lat="42.71242" lon="1.64917">
        <ele>1483.7</ele>
        <time>2020-02-08T11:27:14Z</time>
      </trkpt>
      <trkpt lat="42.71242" lon="1.64917">
        <ele>1483.7</ele>
        <time>2020-02-08T11:27:15Z</time>
      </trkpt>
      <trkpt lat="42.71242" lon="1.64917">
        <ele>1483.7</ele>
        <time>2020-02-08T11:27:16Z</time>
      </trkpt>
      <trkpt lat="42.71242" lon="1.64917">
        <ele>1483.7</ele>
        <time>2020-02-08T11:27:17Z</time>
      </trkpt>
      <trkpt lat="42.71242" lon="1.64917">
        <ele>1483.7</ele>
        <time>2020-02-08T11:27:18Z</time>
      </trkpt>
      <trkpt lat="42.71242" lon="1.64917">
        <ele>1483.7</ele>
        <time>2020-02-08T11:27:19Z</time>
      </trkpt>
      <trkpt lat="42.71242" lon="1.64917">
        <ele>1483.7</ele>
        <time>2020-02-08T11:27:20Z</time>
      </trkpt>
      <trkpt lat="42.71242" lon="1.64917">
        <ele>1483.7</ele>
        <time>2020-02-08T11:27:21Z</time>
      </trkpt>
      <trkpt lat="42.71242" lon="1.64917">
        <ele>1483.7</ele>
        <time>2020-02-08T11:27:22Z</time>
      </trkpt>
      <trkpt lat="42.71242" lon="1.64917">
        <ele>1483.7</ele>
        <time>2020-02-08T11:27:23Z</time>
      </trkpt>
      <trkpt lat="42.71242" lon="1.64917">
        <ele>1483.7</ele>
        <time>2020-02-08T11:27:24Z</time>
      </trkpt>
      <trkpt lat="42.71242" lon="1.64917">
        <ele>1483.7</ele>
        <time>2020-02-08T11:27:25Z</time>
      </trkpt>
      <trkpt lat="42.71242" lon="1.64917">
        <ele>1483.7</ele>
        <time>2020-02-08T11:27:26Z</time>
      </trkpt>
      <trkpt lat="42.71242" lon="1.64917">
        <ele>1483.7</ele>
        <time>2020-02-08T11:27:27Z</time>
      </trkpt>
      <trkpt lat="42.71242" lon="1.64917">
        <ele>1483.7</ele>
        <time>2020-02-08T11:27:28Z</time>
      </trkpt>
      <trkpt lat="42.71242" lon="1.64917">
        <ele>1483.7</ele>
        <time>2020-02-08T11:27:29Z</time>
      </trkpt>
      <trkpt lat="42.71242" lon="1.64917">
        <ele>1483.7</ele>
        <time>2020-02-08T11:27:30Z</time>
      </trkpt>
      <trkpt lat="42.71242" lon="1.64917">
        <ele>1483.7</ele>
        <time>2020-02-08T11:27:31Z</time>
      </trkpt>
      <trkpt lat="42.71242" lon="1.64917">
        <ele>1483.7</ele>
        <time>2020-02-08T11:27:32Z</time>
      </trkpt>
      <trkpt lat="42.71242" lon="1.64917">
        <ele>1483.7</ele>
        <time>2020-02-08T11:27:33Z</time>
      </trkpt>
      <trkpt lat="42.71244" lon="1.64917">
        <ele>1484.2</ele>
        <time>2020-02-08T11:27:34Z</time>
      </trkpt>
      <trkpt lat="42.71244" lon="1.64917">
        <ele>1484.2</ele>
        <time>2020-02-08T11:27:35Z</time>
      </trkpt>
      <trkpt lat="42.71244" lon="1.64917">
        <ele>1484.2</ele>
        <time>2020-02-08T11:27:36Z</time>
      </trkpt>
      <trkpt lat="42.71244" lon="1.64917">
        <ele>1484.2</ele>
        <time>2020-02-08T11:27:37Z</time>
      </trkpt>
      <trkpt lat="42.71244" lon="1.64917">
        <ele>1484.2</ele>
        <time>2020-02-08T11:27:38Z</time>
      </trkpt>
      <trkpt lat="42.71242" lon="1.64921">
        <ele>1482.8</ele>
        <time>2020-02-08T11:27:39Z</time>
      </trkpt>
      <trkpt lat="42.71242" lon="1.64921">
        <ele>1482.8</ele>
        <time>2020-02-08T11:27:40Z</time>
      </trkpt>
      <trkpt lat="42.71242" lon="1.64922">
        <ele>1482.8</ele>
        <time>2020-02-08T11:27:41Z</time>
      </trkpt>
      <trkpt lat="42.71242" lon="1.64922">
        <ele>1482.8</ele>
        <time>2020-02-08T11:27:42Z</time>
      </trkpt>
      <trkpt lat="42.71242" lon="1.64922">
        <ele>1482.8</ele>
        <time>2020-02-08T11:27:43Z</time>
      </trkpt>
      <trkpt lat="42.71242" lon="1.64923">
        <ele>1482.8</ele>
        <time>2020-02-08T11:27:44Z</time>
      </trkpt>
      <trkpt lat="42.71241" lon="1.64923">
        <ele>1482.8</ele>
        <time>2020-02-08T11:27:45Z</time>
      </trkpt>
      <trkpt lat="42.71241" lon="1.64924">
        <ele>1482.8</ele>
        <time>2020-02-08T11:27:46Z</time>
      </trkpt>
      <trkpt lat="42.71241" lon="1.64924">
        <ele>1482</ele>
        <time>2020-02-08T11:27:47Z</time>
      </trkpt>
      <trkpt lat="42.71241" lon="1.64925">
        <ele>1482</ele>
        <time>2020-02-08T11:27:48Z</time>
      </trkpt>
      <trkpt lat="42.71241" lon="1.64925">
        <ele>1482</ele>
        <time>2020-02-08T11:27:49Z</time>
      </trkpt>
      <trkpt lat="42.71241" lon="1.64925">
        <ele>1482</ele>
        <time>2020-02-08T11:27:50Z</time>
      </trkpt>
      <trkpt lat="42.71241" lon="1.64925">
        <ele>1482</ele>
        <time>2020-02-08T11:27:51Z</time>
      </trkpt>
      <trkpt lat="42.71241" lon="1.64925">
        <ele>1482</ele>
        <time>2020-02-08T11:27:52Z</time>
      </trkpt>
      <trkpt lat="42.71241" lon="1.64925">
        <ele>1482</ele>
        <time>2020-02-08T11:27:53Z</time>
      </trkpt>
      <trkpt lat="42.71241" lon="1.64925">
        <ele>1482</ele>
        <time>2020-02-08T11:27:54Z</time>
      </trkpt>
      <trkpt lat="42.71239" lon="1.64923">
        <ele>1482.5</ele>
        <time>2020-02-08T11:27:55Z</time>
      </trkpt>
      <trkpt lat="42.71239" lon="1.64923">
        <ele>1482.5</ele>
        <time>2020-02-08T11:27:56Z</time>
      </trkpt>
      <trkpt lat="42.71239" lon="1.64923">
        <ele>1482.5</ele>
        <time>2020-02-08T11:27:57Z</time>
      </trkpt>
      <trkpt lat="42.71239" lon="1.64923">
        <ele>1482.5</ele>
        <time>2020-02-08T11:27:58Z</time>
      </trkpt>
      <trkpt lat="42.7124" lon="1.64921">
        <ele>1482.5</ele>
        <time>2020-02-08T11:27:59Z</time>
      </trkpt>
      <trkpt lat="42.7124" lon="1.64921">
        <ele>1482.5</ele>
        <time>2020-02-08T11:28:00Z</time>
      </trkpt>
      <trkpt lat="42.7124" lon="1.64921">
        <ele>1482.5</ele>
        <time>2020-02-08T11:28:01Z</time>
      </trkpt>
      <trkpt lat="42.7124" lon="1.64921">
        <ele>1482.5</ele>
        <time>2020-02-08T11:28:02Z</time>
      </trkpt>
      <trkpt lat="42.7124" lon="1.64921">
        <ele>1482.5</ele>
        <time>2020-02-08T11:28:03Z</time>
      </trkpt>
      <trkpt lat="42.7124" lon="1.64921">
        <ele>1482.5</ele>
        <time>2020-02-08T11:28:04Z</time>
      </trkpt>
      <trkpt lat="42.7124" lon="1.64921">
        <ele>1482.5</ele>
        <time>2020-02-08T11:28:05Z</time>
      </trkpt>
      <trkpt lat="42.7124" lon="1.64921">
        <ele>1482.5</ele>
        <time>2020-02-08T11:28:06Z</time>
      </trkpt>
      <trkpt lat="42.7124" lon="1.64921">
        <ele>1482.5</ele>
        <time>2020-02-08T11:28:07Z</time>
      </trkpt>
      <trkpt lat="42.7124" lon="1.64921">
        <ele>1482.5</ele>
        <time>2020-02-08T11:28:08Z</time>
      </trkpt>
      <trkpt lat="42.71242" lon="1.64923">
        <ele>1482.8</ele>
        <time>2020-02-08T11:28:09Z</time>
      </trkpt>
      <trkpt lat="42.71242" lon="1.64923">
        <ele>1482.8</ele>
        <time>2020-02-08T11:28:10Z</time>
      </trkpt>
      <trkpt lat="42.71242" lon="1.64923">
        <ele>1482.8</ele>
        <time>2020-02-08T11:28:11Z</time>
      </trkpt>
      <trkpt lat="42.71242" lon="1.64923">
        <ele>1482.8</ele>
        <time>2020-02-08T11:28:12Z</time>
      </trkpt>
      <trkpt lat="42.71242" lon="1.64923">
        <ele>1482.8</ele>
        <time>2020-02-08T11:28:13Z</time>
      </trkpt>
      <trkpt lat="42.71242" lon="1.64923">
        <ele>1482.8</ele>
        <time>2020-02-08T11:28:14Z</time>
      </trkpt>
      <trkpt lat="42.71242" lon="1.64923">
        <ele>1482.8</ele>
        <time>2020-02-08T11:28:15Z</time>
      </trkpt>
      <trkpt lat="42.71242" lon="1.64923">
        <ele>1482.8</ele>
        <time>2020-02-08T11:28:16Z</time>
      </trkpt>
      <trkpt lat="42.71242" lon="1.64923">
        <ele>1482.8</ele>
        <time>2020-02-08T11:28:17Z</time>
      </trkpt>
      <trkpt lat="42.71242" lon="1.64923">
        <ele>1482.8</ele>
        <time>2020-02-08T11:28:18Z</time>
      </trkpt>
      <trkpt lat="42.71242" lon="1.64923">
        <ele>1482.8</ele>
        <time>2020-02-08T11:28:19Z</time>
      </trkpt>
      <trkpt lat="42.71242" lon="1.64924">
        <ele>1482</ele>
        <time>2020-02-08T11:28:20Z</time>
      </trkpt>
      <trkpt lat="42.71242" lon="1.64925">
        <ele>1482</ele>
        <time>2020-02-08T11:28:21Z</time>
      </trkpt>
      <trkpt lat="42.71242" lon="1.64926">
        <ele>1482</ele>
        <time>2020-02-08T11:28:22Z</time>
      </trkpt>
      <trkpt lat="42.71243" lon="1.64927">
        <ele>1482</ele>
        <time>2020-02-08T11:28:23Z</time>
      </trkpt>
      <trkpt lat="42.71243" lon="1.64928">
        <ele>1482</ele>
        <time>2020-02-08T11:28:24Z</time>
      </trkpt>
      <trkpt lat="42.71243" lon="1.64929">
        <ele>1481.2</ele>
        <time>2020-02-08T11:28:25Z</time>
      </trkpt>
      <trkpt lat="42.71243" lon="1.6493">
        <ele>1481.2</ele>
        <time>2020-02-08T11:28:26Z</time>
      </trkpt>
      <trkpt lat="42.71243" lon="1.64931">
        <ele>1481.2</ele>
        <time>2020-02-08T11:28:27Z</time>
      </trkpt>
      <trkpt lat="42.71243" lon="1.64932">
        <ele>1481.2</ele>
        <time>2020-02-08T11:28:28Z</time>
      </trkpt>
      <trkpt lat="42.71243" lon="1.64933">
        <ele>1480.5</ele>
        <time>2020-02-08T11:28:29Z</time>
      </trkpt>
      <trkpt lat="42.71243" lon="1.64934">
        <ele>1480.5</ele>
        <time>2020-02-08T11:28:30Z</time>
      </trkpt>
      <trkpt lat="42.71243" lon="1.64935">
        <ele>1480.5</ele>
        <time>2020-02-08T11:28:31Z</time>
      </trkpt>
      <trkpt lat="42.71243" lon="1.64936">
        <ele>1480.5</ele>
        <time>2020-02-08T11:28:32Z</time>
      </trkpt>
      <trkpt lat="42.71243" lon="1.64937">
        <ele>1479.8</ele>
        <time>2020-02-08T11:28:33Z</time>
      </trkpt>
      <trkpt lat="42.71243" lon="1.64938">
        <ele>1479.8</ele>
        <time>2020-02-08T11:28:34Z</time>
      </trkpt>
      <trkpt lat="42.71243" lon="1.64939">
        <ele>1479.8</ele>
        <time>2020-02-08T11:28:35Z</time>
      </trkpt>
      <trkpt lat="42.71243" lon="1.6494">
        <ele>1479.8</ele>
        <time>2020-02-08T11:28:36Z</time>
      </trkpt>
      <trkpt lat="42.71243" lon="1.64941">
        <ele>1479.1</ele>
        <time>2020-02-08T11:28:37Z</time>
      </trkpt>
      <trkpt lat="42.71243" lon="1.64942">
        <ele>1479.1</ele>
        <time>2020-02-08T11:28:38Z</time>
      </trkpt>
      <trkpt lat="42.71243" lon="1.64943">
        <ele>1479.1</ele>
        <time>2020-02-08T11:28:39Z</time>
      </trkpt>
      <trkpt lat="42.71243" lon="1.64943">
        <ele>1479.1</ele>
        <time>2020-02-08T11:28:40Z</time>
      </trkpt>
      <trkpt lat="42.71243" lon="1.64943">
        <ele>1479.1</ele>
        <time>2020-02-08T11:28:41Z</time>
      </trkpt>
      <trkpt lat="42.71243" lon="1.64943">
        <ele>1479.1</ele>
        <time>2020-02-08T11:28:42Z</time>
      </trkpt>
      <trkpt lat="42.71243" lon="1.64942">
        <ele>1479.1</ele>
        <time>2020-02-08T11:28:43Z</time>
      </trkpt>
      <trkpt lat="42.71243" lon="1.64942">
        <ele>1479.1</ele>
        <time>2020-02-08T11:28:44Z</time>
      </trkpt>
      <trkpt lat="42.71243" lon="1.64942">
        <ele>1479.1</ele>
        <time>2020-02-08T11:28:45Z</time>
      </trkpt>
      <trkpt lat="42.71243" lon="1.64942">
        <ele>1479.1</ele>
        <time>2020-02-08T11:28:46Z</time>
      </trkpt>
      <trkpt lat="42.71243" lon="1.64942">
        <ele>1479.1</ele>
        <time>2020-02-08T11:28:47Z</time>
      </trkpt>
      <trkpt lat="42.71243" lon="1.64941">
        <ele>1479.1</ele>
        <time>2020-02-08T11:28:48Z</time>
      </trkpt>
      <trkpt lat="42.71243" lon="1.64941">
        <ele>1479.1</ele>
        <time>2020-02-08T11:28:49Z</time>
      </trkpt>
      <trkpt lat="42.71243" lon="1.64941">
        <ele>1479.1</ele>
        <time>2020-02-08T11:28:50Z</time>
      </trkpt>
      <trkpt lat="42.71243" lon="1.64941">
        <ele>1479.1</ele>
        <time>2020-02-08T11:28:51Z</time>
      </trkpt>
      <trkpt lat="42.71243" lon="1.64941">
        <ele>1479.8</ele>
        <time>2020-02-08T11:28:52Z</time>
      </trkpt>
      <trkpt lat="42.71243" lon="1.64941">
        <ele>1479.8</ele>
        <time>2020-02-08T11:28:53Z</time>
      </trkpt>
      <trkpt lat="42.71243" lon="1.6494">
        <ele>1479.8</ele>
        <time>2020-02-08T11:28:54Z</time>
      </trkpt>
      <trkpt lat="42.71243" lon="1.6494">
        <ele>1479.8</ele>
        <time>2020-02-08T11:28:55Z</time>
      </trkpt>
      <trkpt lat="42.71243" lon="1.6494">
        <ele>1479.8</ele>
        <time>2020-02-08T11:28:56Z</time>
      </trkpt>
      <trkpt lat="42.71243" lon="1.6494">
        <ele>1479.8</ele>
        <time>2020-02-08T11:28:57Z</time>
      </trkpt>
      <trkpt lat="42.71243" lon="1.6494">
        <ele>1479.8</ele>
        <time>2020-02-08T11:28:58Z</time>
      </trkpt>
      <trkpt lat="42.71243" lon="1.64939">
        <ele>1479.8</ele>
        <time>2020-02-08T11:28:59Z</time>
      </trkpt>
      <trkpt lat="42.71243" lon="1.64939">
        <ele>1479.8</ele>
        <time>2020-02-08T11:29:00Z</time>
      </trkpt>
      <trkpt lat="42.71243" lon="1.64939">
        <ele>1479.8</ele>
        <time>2020-02-08T11:29:01Z</time>
      </trkpt>
      <trkpt lat="42.71243" lon="1.64939">
        <ele>1479.8</ele>
        <time>2020-02-08T11:29:02Z</time>
      </trkpt>
      <trkpt lat="42.71243" lon="1.64939">
        <ele>1479.8</ele>
        <time>2020-02-08T11:29:03Z</time>
      </trkpt>
      <trkpt lat="42.71243" lon="1.64939">
        <ele>1479.8</ele>
        <time>2020-02-08T11:29:04Z</time>
      </trkpt>
      <trkpt lat="42.71243" lon="1.64938">
        <ele>1479.8</ele>
        <time>2020-02-08T11:29:05Z</time>
      </trkpt>
      <trkpt lat="42.71243" lon="1.64938">
        <ele>1479.8</ele>
        <time>2020-02-08T11:29:06Z</time>
      </trkpt>
      <trkpt lat="42.71243" lon="1.64938">
        <ele>1479.8</ele>
        <time>2020-02-08T11:29:07Z</time>
      </trkpt>
      <trkpt lat="42.71243" lon="1.64938">
        <ele>1479.8</ele>
        <time>2020-02-08T11:29:08Z</time>
      </trkpt>
      <trkpt lat="42.71243" lon="1.64938">
        <ele>1479.8</ele>
        <time>2020-02-08T11:29:09Z</time>
      </trkpt>
      <trkpt lat="42.71243" lon="1.64937">
        <ele>1479.8</ele>
        <time>2020-02-08T11:29:10Z</time>
      </trkpt>
      <trkpt lat="42.71243" lon="1.64937">
        <ele>1479.8</ele>
        <time>2020-02-08T11:29:11Z</time>
      </trkpt>
      <trkpt lat="42.71243" lon="1.64937">
        <ele>1479.8</ele>
        <time>2020-02-08T11:29:12Z</time>
      </trkpt>
      <trkpt lat="42.71243" lon="1.64937">
        <ele>1479.8</ele>
        <time>2020-02-08T11:29:13Z</time>
      </trkpt>
      <trkpt lat="42.71243" lon="1.64937">
        <ele>1479.8</ele>
        <time>2020-02-08T11:29:14Z</time>
      </trkpt>
      <trkpt lat="42.71243" lon="1.64937">
        <ele>1480.5</ele>
        <time>2020-02-08T11:29:15Z</time>
      </trkpt>
      <trkpt lat="42.71243" lon="1.64936">
        <ele>1480.5</ele>
        <time>2020-02-08T11:29:16Z</time>
      </trkpt>
      <trkpt lat="42.71243" lon="1.64936">
        <ele>1480.5</ele>
        <time>2020-02-08T11:29:17Z</time>
      </trkpt>
      <trkpt lat="42.71243" lon="1.64936">
        <ele>1480.5</ele>
        <time>2020-02-08T11:29:18Z</time>
      </trkpt>
      <trkpt lat="42.71243" lon="1.64936">
        <ele>1480.5</ele>
        <time>2020-02-08T11:29:19Z</time>
      </trkpt>
      <trkpt lat="42.71243" lon="1.64936">
        <ele>1480.5</ele>
        <time>2020-02-08T11:29:20Z</time>
      </trkpt>
      <trkpt lat="42.71243" lon="1.64935">
        <ele>1480.5</ele>
        <time>2020-02-08T11:29:21Z</time>
      </trkpt>
      <trkpt lat="42.71243" lon="1.64935">
        <ele>1480.5</ele>
        <time>2020-02-08T11:29:22Z</time>
      </trkpt>
      <trkpt lat="42.71243" lon="1.64935">
        <ele>1480.5</ele>
        <time>2020-02-08T11:29:23Z</time>
      </trkpt>
      <trkpt lat="42.71243" lon="1.64935">
        <ele>1480.5</ele>
        <time>2020-02-08T11:29:24Z</time>
      </trkpt>
      <trkpt lat="42.71243" lon="1.64935">
        <ele>1480.5</ele>
        <time>2020-02-08T11:29:25Z</time>
      </trkpt>
      <trkpt lat="42.71243" lon="1.64934">
        <ele>1480.5</ele>
        <time>2020-02-08T11:29:26Z</time>
      </trkpt>
      <trkpt lat="42.71243" lon="1.64934">
        <ele>1480.5</ele>
        <time>2020-02-08T11:29:27Z</time>
      </trkpt>
      <trkpt lat="42.71243" lon="1.64934">
        <ele>1480.5</ele>
        <time>2020-02-08T11:29:28Z</time>
      </trkpt>
      <trkpt lat="42.71243" lon="1.64934">
        <ele>1480.5</ele>
        <time>2020-02-08T11:29:29Z</time>
      </trkpt>
      <trkpt lat="42.71243" lon="1.64934">
        <ele>1480.5</ele>
        <time>2020-02-08T11:29:30Z</time>
      </trkpt>
      <trkpt lat="42.71243" lon="1.64934">
        <ele>1480.5</ele>
        <time>2020-02-08T11:29:31Z</time>
      </trkpt>
      <trkpt lat="42.71243" lon="1.64933">
        <ele>1480.5</ele>
        <time>2020-02-08T11:29:32Z</time>
      </trkpt>
      <trkpt lat="42.71243" lon="1.64933">
        <ele>1480.5</ele>
        <time>2020-02-08T11:29:33Z</time>
      </trkpt>
      <trkpt lat="42.71243" lon="1.64933">
        <ele>1480.5</ele>
        <time>2020-02-08T11:29:34Z</time>
      </trkpt>
      <trkpt lat="42.71243" lon="1.64933">
        <ele>1480.5</ele>
        <time>2020-02-08T11:29:35Z</time>
      </trkpt>
      <trkpt lat="42.71243" lon="1.64933">
        <ele>1480.5</ele>
        <time>2020-02-08T11:29:36Z</time>
      </trkpt>
      <trkpt lat="42.71243" lon="1.64932">
        <ele>1480.5</ele>
        <time>2020-02-08T11:29:37Z</time>
      </trkpt>
      <trkpt lat="42.71243" lon="1.64932">
        <ele>1481.2</ele>
        <time>2020-02-08T11:29:38Z</time>
      </trkpt>
      <trkpt lat="42.71243" lon="1.64932">
        <ele>1481.2</ele>
        <time>2020-02-08T11:29:39Z</time>
      </trkpt>
      <trkpt lat="42.71243" lon="1.64932">
        <ele>1481.2</ele>
        <time>2020-02-08T11:29:40Z</time>
      </trkpt>
      <trkpt lat="42.71243" lon="1.64932">
        <ele>1481.6</ele>
        <time>2020-02-08T11:29:41Z</time>
      </trkpt>
      <trkpt lat="42.71243" lon="1.64932">
        <ele>1481.6</ele>
        <time>2020-02-08T11:29:42Z</time>
      </trkpt>
      <trkpt lat="42.71243" lon="1.64931">
        <ele>1481.6</ele>
        <time>2020-02-08T11:29:43Z</time>
      </trkpt>
      <trkpt lat="42.71243" lon="1.64931">
        <ele>1481.6</ele>
        <time>2020-02-08T11:29:44Z</time>
      </trkpt>
      <trkpt lat="42.71243" lon="1.64931">
        <ele>1481.6</ele>
        <time>2020-02-08T11:29:45Z</time>
      </trkpt>
      <trkpt lat="42.71243" lon="1.64931">
        <ele>1481.6</ele>
        <time>2020-02-08T11:29:46Z</time>
      </trkpt>
      <trkpt lat="42.71243" lon="1.64931">
        <ele>1481.6</ele>
        <time>2020-02-08T11:29:47Z</time>
      </trkpt>
      <trkpt lat="42.71243" lon="1.6493">
        <ele>1481.6</ele>
        <time>2020-02-08T11:29:48Z</time>
      </trkpt>
      <trkpt lat="42.71243" lon="1.6493">
        <ele>1481.6</ele>
        <time>2020-02-08T11:29:49Z</time>
      </trkpt>
      <trkpt lat="42.71243" lon="1.6493">
        <ele>1481.6</ele>
        <time>2020-02-08T11:29:50Z</time>
      </trkpt>
      <trkpt lat="42.71243" lon="1.6493">
        <ele>1481.6</ele>
        <time>2020-02-08T11:29:51Z</time>
      </trkpt>
      <trkpt lat="42.71243" lon="1.6493">
        <ele>1481.6</ele>
        <time>2020-02-08T11:29:52Z</time>
      </trkpt>
      <trkpt lat="42.71243" lon="1.6493">
        <ele>1481.6</ele>
        <time>2020-02-08T11:29:53Z</time>
      </trkpt>
      <trkpt lat="42.71243" lon="1.6493">
        <ele>1481.6</ele>
        <time>2020-02-08T11:29:54Z</time>
      </trkpt>
      <trkpt lat="42.71243" lon="1.6493">
        <ele>1481.6</ele>
        <time>2020-02-08T11:29:55Z</time>
      </trkpt>
      <trkpt lat="42.71243" lon="1.6493">
        <ele>1481.6</ele>
        <time>2020-02-08T11:29:56Z</time>
      </trkpt>
      <trkpt lat="42.71243" lon="1.6493">
        <ele>1481.6</ele>
        <time>2020-02-08T11:29:57Z</time>
      </trkpt>
      <trkpt lat="42.71243" lon="1.6493">
        <ele>1481.6</ele>
        <time>2020-02-08T11:29:58Z</time>
      </trkpt>
      <trkpt lat="42.71243" lon="1.6493">
        <ele>1481.6</ele>
        <time>2020-02-08T11:29:59Z</time>
      </trkpt>
      <trkpt lat="42.71243" lon="1.6493">
        <ele>1481.6</ele>
        <time>2020-02-08T11:30:00Z</time>
      </trkpt>
      <trkpt lat="42.71243" lon="1.6493">
        <ele>1481.6</ele>
        <time>2020-02-08T11:30:01Z</time>
      </trkpt>
      <trkpt lat="42.71243" lon="1.6493">
        <ele>1481.6</ele>
        <time>2020-02-08T11:30:02Z</time>
      </trkpt>
      <trkpt lat="42.71243" lon="1.6493">
        <ele>1481.6</ele>
        <time>2020-02-08T11:30:03Z</time>
      </trkpt>
      <trkpt lat="42.71243" lon="1.6493">
        <ele>1481.6</ele>
        <time>2020-02-08T11:30:04Z</time>
      </trkpt>
      <trkpt lat="42.71243" lon="1.6493">
        <ele>1481.6</ele>
        <time>2020-02-08T11:30:05Z</time>
      </trkpt>
      <trkpt lat="42.71243" lon="1.6493">
        <ele>1481.6</ele>
        <time>2020-02-08T11:30:06Z</time>
      </trkpt>
      <trkpt lat="42.71243" lon="1.6493">
        <ele>1481.6</ele>
        <time>2020-02-08T11:30:07Z</time>
      </trkpt>
      <trkpt lat="42.71243" lon="1.6493">
        <ele>1481.6</ele>
        <time>2020-02-08T11:30:08Z</time>
      </trkpt>
      <trkpt lat="42.71243" lon="1.6493">
        <ele>1481.6</ele>
        <time>2020-02-08T11:30:09Z</time>
      </trkpt>
      <trkpt lat="42.71245" lon="1.64933">
        <ele>1480.8</ele>
        <time>2020-02-08T11:30:10Z</time>
      </trkpt>
      <trkpt lat="42.71245" lon="1.64933">
        <ele>1480.8</ele>
        <time>2020-02-08T11:30:11Z</time>
      </trkpt>
      <trkpt lat="42.71245" lon="1.64933">
        <ele>1480.8</ele>
        <time>2020-02-08T11:30:12Z</time>
      </trkpt>
      <trkpt lat="42.71245" lon="1.64933">
        <ele>1480.8</ele>
        <time>2020-02-08T11:30:13Z</time>
      </trkpt>
      <trkpt lat="42.71245" lon="1.64933">
        <ele>1480.8</ele>
        <time>2020-02-08T11:30:14Z</time>
      </trkpt>
      <trkpt lat="42.71245" lon="1.64933">
        <ele>1480.8</ele>
        <time>2020-02-08T11:30:15Z</time>
      </trkpt>
      <trkpt lat="42.71245" lon="1.64933">
        <ele>1480.8</ele>
        <time>2020-02-08T11:30:16Z</time>
      </trkpt>
      <trkpt lat="42.71245" lon="1.64933">
        <ele>1480.8</ele>
        <time>2020-02-08T11:30:17Z</time>
      </trkpt>
      <trkpt lat="42.71245" lon="1.64933">
        <ele>1480.8</ele>
        <time>2020-02-08T11:30:18Z</time>
      </trkpt>
      <trkpt lat="42.71245" lon="1.64933">
        <ele>1480.8</ele>
        <time>2020-02-08T11:30:19Z</time>
      </trkpt>
      <trkpt lat="42.71246" lon="1.64933">
        <ele>1480.8</ele>
        <time>2020-02-08T11:30:20Z</time>
      </trkpt>
      <trkpt lat="42.71246" lon="1.64933">
        <ele>1480.8</ele>
        <time>2020-02-08T11:30:21Z</time>
      </trkpt>
      <trkpt lat="42.71246" lon="1.64932">
        <ele>1480.8</ele>
        <time>2020-02-08T11:30:22Z</time>
      </trkpt>
      <trkpt lat="42.71246" lon="1.64932">
        <ele>1481.6</ele>
        <time>2020-02-08T11:30:23Z</time>
      </trkpt>
      <trkpt lat="42.71246" lon="1.64932">
        <ele>1481.6</ele>
        <time>2020-02-08T11:30:24Z</time>
      </trkpt>
      <trkpt lat="42.71246" lon="1.64932">
        <ele>1481.6</ele>
        <time>2020-02-08T11:30:25Z</time>
      </trkpt>
      <trkpt lat="42.71246" lon="1.64932">
        <ele>1482</ele>
        <time>2020-02-08T11:30:26Z</time>
      </trkpt>
      <trkpt lat="42.71246" lon="1.64931">
        <ele>1482</ele>
        <time>2020-02-08T11:30:27Z</time>
      </trkpt>
      <trkpt lat="42.71246" lon="1.64931">
        <ele>1482</ele>
        <time>2020-02-08T11:30:28Z</time>
      </trkpt>
      <trkpt lat="42.71247" lon="1.64931">
        <ele>1482</ele>
        <time>2020-02-08T11:30:29Z</time>
      </trkpt>
      <trkpt lat="42.71247" lon="1.64931">
        <ele>1482</ele>
        <time>2020-02-08T11:30:30Z</time>
      </trkpt>
      <trkpt lat="42.71247" lon="1.64931">
        <ele>1482</ele>
        <time>2020-02-08T11:30:31Z</time>
      </trkpt>
      <trkpt lat="42.71247" lon="1.64931">
        <ele>1482</ele>
        <time>2020-02-08T11:30:32Z</time>
      </trkpt>
      <trkpt lat="42.71247" lon="1.6493">
        <ele>1482</ele>
        <time>2020-02-08T11:30:33Z</time>
      </trkpt>
      <trkpt lat="42.71247" lon="1.6493">
        <ele>1482</ele>
        <time>2020-02-08T11:30:34Z</time>
      </trkpt>
      <trkpt lat="42.71247" lon="1.6493">
        <ele>1482</ele>
        <time>2020-02-08T11:30:35Z</time>
      </trkpt>
      <trkpt lat="42.71247" lon="1.6493">
        <ele>1482</ele>
        <time>2020-02-08T11:30:36Z</time>
      </trkpt>
      <trkpt lat="42.71248" lon="1.6493">
        <ele>1482</ele>
        <time>2020-02-08T11:30:37Z</time>
      </trkpt>
      <trkpt lat="42.71248" lon="1.64929">
        <ele>1482</ele>
        <time>2020-02-08T11:30:38Z</time>
      </trkpt>
      <trkpt lat="42.71248" lon="1.64929">
        <ele>1482</ele>
        <time>2020-02-08T11:30:39Z</time>
      </trkpt>
      <trkpt lat="42.71248" lon="1.64929">
        <ele>1482</ele>
        <time>2020-02-08T11:30:40Z</time>
      </trkpt>
      <trkpt lat="42.71248" lon="1.64929">
        <ele>1482</ele>
        <time>2020-02-08T11:30:41Z</time>
      </trkpt>
      <trkpt lat="42.71248" lon="1.64929">
        <ele>1482</ele>
        <time>2020-02-08T11:30:42Z</time>
      </trkpt>
      <trkpt lat="42.71248" lon="1.64928">
        <ele>1482</ele>
        <time>2020-02-08T11:30:43Z</time>
      </trkpt>
      <trkpt lat="42.71248" lon="1.64928">
        <ele>1482</ele>
        <time>2020-02-08T11:30:44Z</time>
      </trkpt>
      <trkpt lat="42.71248" lon="1.64928">
        <ele>1482</ele>
        <time>2020-02-08T11:30:45Z</time>
      </trkpt>
      <trkpt lat="42.71249" lon="1.64928">
        <ele>1482.8</ele>
        <time>2020-02-08T11:30:46Z</time>
      </trkpt>
      <trkpt lat="42.71249" lon="1.64928">
        <ele>1482.8</ele>
        <time>2020-02-08T11:30:47Z</time>
      </trkpt>
      <trkpt lat="42.71249" lon="1.64928">
        <ele>1482.8</ele>
        <time>2020-02-08T11:30:48Z</time>
      </trkpt>
      <trkpt lat="42.71249" lon="1.64927">
        <ele>1482.8</ele>
        <time>2020-02-08T11:30:49Z</time>
      </trkpt>
      <trkpt lat="42.71249" lon="1.64927">
        <ele>1482.8</ele>
        <time>2020-02-08T11:30:50Z</time>
      </trkpt>
      <trkpt lat="42.71249" lon="1.64927">
        <ele>1482.8</ele>
        <time>2020-02-08T11:30:51Z</time>
      </trkpt>
      <trkpt lat="42.71249" lon="1.64927">
        <ele>1482.8</ele>
        <time>2020-02-08T11:30:52Z</time>
      </trkpt>
      <trkpt lat="42.71249" lon="1.64927">
        <ele>1482.8</ele>
        <time>2020-02-08T11:30:53Z</time>
      </trkpt>
      <trkpt lat="42.71249" lon="1.64926">
        <ele>1483.2</ele>
        <time>2020-02-08T11:30:54Z</time>
      </trkpt>
      <trkpt lat="42.7125" lon="1.64926">
        <ele>1483.2</ele>
        <time>2020-02-08T11:30:55Z</time>
      </trkpt>
      <trkpt lat="42.7125" lon="1.64926">
        <ele>1483.2</ele>
        <time>2020-02-08T11:30:56Z</time>
      </trkpt>
      <trkpt lat="42.7125" lon="1.64926">
        <ele>1483.2</ele>
        <time>2020-02-08T11:30:57Z</time>
      </trkpt>
      <trkpt lat="42.7125" lon="1.64926">
        <ele>1483.2</ele>
        <time>2020-02-08T11:30:58Z</time>
      </trkpt>
      <trkpt lat="42.7125" lon="1.64925">
        <ele>1483.2</ele>
        <time>2020-02-08T11:30:59Z</time>
      </trkpt>
      <trkpt lat="42.7125" lon="1.64925">
        <ele>1483.2</ele>
        <time>2020-02-08T11:31:00Z</time>
      </trkpt>
      <trkpt lat="42.7125" lon="1.64925">
        <ele>1483.2</ele>
        <time>2020-02-08T11:31:01Z</time>
      </trkpt>
      <trkpt lat="42.7125" lon="1.64925">
        <ele>1483.2</ele>
        <time>2020-02-08T11:31:02Z</time>
      </trkpt>
      <trkpt lat="42.7125" lon="1.64925">
        <ele>1483.2</ele>
        <time>2020-02-08T11:31:03Z</time>
      </trkpt>
      <trkpt lat="42.7125" lon="1.64925">
        <ele>1483.2</ele>
        <time>2020-02-08T11:31:04Z</time>
      </trkpt>
      <trkpt lat="42.7125" lon="1.64925">
        <ele>1483.2</ele>
        <time>2020-02-08T11:31:05Z</time>
      </trkpt>
      <trkpt lat="42.7125" lon="1.64925">
        <ele>1483.2</ele>
        <time>2020-02-08T11:31:06Z</time>
      </trkpt>
      <trkpt lat="42.7125" lon="1.64925">
        <ele>1483.2</ele>
        <time>2020-02-08T11:31:07Z</time>
      </trkpt>
      <trkpt lat="42.71252" lon="1.64926">
        <ele>1483.2</ele>
        <time>2020-02-08T11:31:08Z</time>
      </trkpt>
      <trkpt lat="42.71252" lon="1.64926">
        <ele>1483.2</ele>
        <time>2020-02-08T11:31:09Z</time>
      </trkpt>
      <trkpt lat="42.71252" lon="1.64926">
        <ele>1483.2</ele>
        <time>2020-02-08T11:31:10Z</time>
      </trkpt>
      <trkpt lat="42.71252" lon="1.64926">
        <ele>1483.2</ele>
        <time>2020-02-08T11:31:11Z</time>
      </trkpt>
      <trkpt lat="42.71255" lon="1.64927">
        <ele>1483.7</ele>
        <time>2020-02-08T11:31:12Z</time>
      </trkpt>
      <trkpt lat="42.71255" lon="1.64927">
        <ele>1483.7</ele>
        <time>2020-02-08T11:31:13Z</time>
      </trkpt>
      <trkpt lat="42.71255" lon="1.64927">
        <ele>1483.7</ele>
        <time>2020-02-08T11:31:14Z</time>
      </trkpt>
      <trkpt lat="42.71255" lon="1.64927">
        <ele>1483.7</ele>
        <time>2020-02-08T11:31:15Z</time>
      </trkpt>
      <trkpt lat="42.71255" lon="1.64927">
        <ele>1483.7</ele>
        <time>2020-02-08T11:31:16Z</time>
      </trkpt>
      <trkpt lat="42.71255" lon="1.64927">
        <ele>1483.7</ele>
        <time>2020-02-08T11:31:17Z</time>
      </trkpt>
      <trkpt lat="42.71255" lon="1.64927">
        <ele>1483.7</ele>
        <time>2020-02-08T11:31:18Z</time>
      </trkpt>
      <trkpt lat="42.71255" lon="1.64927">
        <ele>1483.7</ele>
        <time>2020-02-08T11:31:19Z</time>
      </trkpt>
      <trkpt lat="42.71255" lon="1.64927">
        <ele>1483.7</ele>
        <time>2020-02-08T11:31:20Z</time>
      </trkpt>
      <trkpt lat="42.71255" lon="1.64927">
        <ele>1483.7</ele>
        <time>2020-02-08T11:31:21Z</time>
      </trkpt>
      <trkpt lat="42.71255" lon="1.64927">
        <ele>1483.7</ele>
        <time>2020-02-08T11:31:22Z</time>
      </trkpt>
      <trkpt lat="42.71255" lon="1.64927">
        <ele>1483.7</ele>
        <time>2020-02-08T11:31:23Z</time>
      </trkpt>
      <trkpt lat="42.71255" lon="1.64927">
        <ele>1483.7</ele>
        <time>2020-02-08T11:31:24Z</time>
      </trkpt>
      <trkpt lat="42.71255" lon="1.64927">
        <ele>1483.7</ele>
        <time>2020-02-08T11:31:25Z</time>
      </trkpt>
      <trkpt lat="42.71255" lon="1.64927">
        <ele>1483.7</ele>
        <time>2020-02-08T11:31:26Z</time>
      </trkpt>
      <trkpt lat="42.71255" lon="1.64927">
        <ele>1483.7</ele>
        <time>2020-02-08T11:31:27Z</time>
      </trkpt>
      <trkpt lat="42.71255" lon="1.64927">
        <ele>1483.7</ele>
        <time>2020-02-08T11:31:28Z</time>
      </trkpt>
      <trkpt lat="42.71255" lon="1.64927">
        <ele>1483.7</ele>
        <time>2020-02-08T11:31:29Z</time>
      </trkpt>
      <trkpt lat="42.71255" lon="1.64927">
        <ele>1483.7</ele>
        <time>2020-02-08T11:31:30Z</time>
      </trkpt>
      <trkpt lat="42.71255" lon="1.64927">
        <ele>1483.7</ele>
        <time>2020-02-08T11:31:31Z</time>
      </trkpt>
      <trkpt lat="42.71255" lon="1.64927">
        <ele>1483.7</ele>
        <time>2020-02-08T11:31:32Z</time>
      </trkpt>
      <trkpt lat="42.71255" lon="1.64927">
        <ele>1483.7</ele>
        <time>2020-02-08T11:31:33Z</time>
      </trkpt>
      <trkpt lat="42.71255" lon="1.64927">
        <ele>1483.7</ele>
        <time>2020-02-08T11:31:34Z</time>
      </trkpt>
      <trkpt lat="42.71255" lon="1.64927">
        <ele>1483.7</ele>
        <time>2020-02-08T11:31:35Z</time>
      </trkpt>
      <trkpt lat="42.71255" lon="1.64927">
        <ele>1483.7</ele>
        <time>2020-02-08T11:31:36Z</time>
      </trkpt>
      <trkpt lat="42.71255" lon="1.64927">
        <ele>1483.7</ele>
        <time>2020-02-08T11:31:37Z</time>
      </trkpt>
      <trkpt lat="42.71255" lon="1.64927">
        <ele>1483.7</ele>
        <time>2020-02-08T11:31:38Z</time>
      </trkpt>
      <trkpt lat="42.71255" lon="1.64927">
        <ele>1483.7</ele>
        <time>2020-02-08T11:31:39Z</time>
      </trkpt>
      <trkpt lat="42.71255" lon="1.64927">
        <ele>1483.7</ele>
        <time>2020-02-08T11:31:40Z</time>
      </trkpt>
      <trkpt lat="42.71255" lon="1.64927">
        <ele>1483.7</ele>
        <time>2020-02-08T11:31:41Z</time>
      </trkpt>
      <trkpt lat="42.71255" lon="1.64927">
        <ele>1483.7</ele>
        <time>2020-02-08T11:31:42Z</time>
      </trkpt>
      <trkpt lat="42.71255" lon="1.64927">
        <ele>1483.7</ele>
        <time>2020-02-08T11:31:43Z</time>
      </trkpt>
      <trkpt lat="42.71255" lon="1.64927">
        <ele>1483.7</ele>
        <time>2020-02-08T11:31:44Z</time>
      </trkpt>
      <trkpt lat="42.71255" lon="1.64927">
        <ele>1483.7</ele>
        <time>2020-02-08T11:31:45Z</time>
      </trkpt>
      <trkpt lat="42.71255" lon="1.64927">
        <ele>1483.7</ele>
        <time>2020-02-08T11:31:46Z</time>
      </trkpt>
      <trkpt lat="42.71255" lon="1.64927">
        <ele>1483.7</ele>
        <time>2020-02-08T11:31:47Z</time>
      </trkpt>
      <trkpt lat="42.71255" lon="1.64927">
        <ele>1483.7</ele>
        <time>2020-02-08T11:31:48Z</time>
      </trkpt>
      <trkpt lat="42.71255" lon="1.64927">
        <ele>1483.7</ele>
        <time>2020-02-08T11:31:49Z</time>
      </trkpt>
      <trkpt lat="42.71255" lon="1.64927">
        <ele>1483.7</ele>
        <time>2020-02-08T11:31:50Z</time>
      </trkpt>
      <trkpt lat="42.71255" lon="1.64927">
        <ele>1483.7</ele>
        <time>2020-02-08T11:31:51Z</time>
      </trkpt>
      <trkpt lat="42.71255" lon="1.64927">
        <ele>1483.7</ele>
        <time>2020-02-08T11:31:52Z</time>
      </trkpt>
      <trkpt lat="42.71256" lon="1.64925">
        <ele>1484.2</ele>
        <time>2020-02-08T11:31:53Z</time>
      </trkpt>
      <trkpt lat="42.71256" lon="1.64925">
        <ele>1484.2</ele>
        <time>2020-02-08T11:31:54Z</time>
      </trkpt>
      <trkpt lat="42.71256" lon="1.64925">
        <ele>1484.2</ele>
        <time>2020-02-08T11:31:55Z</time>
      </trkpt>
      <trkpt lat="42.71256" lon="1.64925">
        <ele>1484.2</ele>
        <time>2020-02-08T11:31:56Z</time>
      </trkpt>
      <trkpt lat="42.71256" lon="1.64925">
        <ele>1484.2</ele>
        <time>2020-02-08T11:31:57Z</time>
      </trkpt>
      <trkpt lat="42.71256" lon="1.64925">
        <ele>1484.2</ele>
        <time>2020-02-08T11:31:58Z</time>
      </trkpt>
      <trkpt lat="42.71256" lon="1.64925">
        <ele>1484.2</ele>
        <time>2020-02-08T11:31:59Z</time>
      </trkpt>
      <trkpt lat="42.71255" lon="1.64924">
        <ele>1483.7</ele>
        <time>2020-02-08T11:32:00Z</time>
      </trkpt>
      <trkpt lat="42.71255" lon="1.64923">
        <ele>1484.6</ele>
        <time>2020-02-08T11:32:01Z</time>
      </trkpt>
      <trkpt lat="42.71254" lon="1.64923">
        <ele>1484.6</ele>
        <time>2020-02-08T11:32:02Z</time>
      </trkpt>
      <trkpt lat="42.71253" lon="1.64922">
        <ele>1484.6</ele>
        <time>2020-02-08T11:32:03Z</time>
      </trkpt>
      <trkpt lat="42.71253" lon="1.64921">
        <ele>1484.6</ele>
        <time>2020-02-08T11:32:04Z</time>
      </trkpt>
      <trkpt lat="42.71252" lon="1.6492">
        <ele>1484.2</ele>
        <time>2020-02-08T11:32:05Z</time>
      </trkpt>
      <trkpt lat="42.71251" lon="1.64919">
        <ele>1485.1</ele>
        <time>2020-02-08T11:32:06Z</time>
      </trkpt>
      <trkpt lat="42.71251" lon="1.64919">
        <ele>1485.1</ele>
        <time>2020-02-08T11:32:07Z</time>
      </trkpt>
      <trkpt lat="42.7125" lon="1.64918">
        <ele>1485.1</ele>
        <time>2020-02-08T11:32:08Z</time>
      </trkpt>
      <trkpt lat="42.71249" lon="1.64917">
        <ele>1485.1</ele>
        <time>2020-02-08T11:32:09Z</time>
      </trkpt>
      <trkpt lat="42.71249" lon="1.64917">
        <ele>1485.1</ele>
        <time>2020-02-08T11:32:10Z</time>
      </trkpt>
      <trkpt lat="42.71248" lon="1.64915">
        <ele>1485.6</ele>
        <time>2020-02-08T11:32:11Z</time>
      </trkpt>
      <trkpt lat="42.71248" lon="1.64915">
        <ele>1485.6</ele>
        <time>2020-02-08T11:32:12Z</time>
      </trkpt>
      <trkpt lat="42.71248" lon="1.64915">
        <ele>1485.6</ele>
        <time>2020-02-08T11:32:13Z</time>
      </trkpt>
      <trkpt lat="42.71248" lon="1.64915">
        <ele>1485.6</ele>
        <time>2020-02-08T11:32:14Z</time>
      </trkpt>
      <trkpt lat="42.71248" lon="1.64915">
        <ele>1485.6</ele>
        <time>2020-02-08T11:32:15Z</time>
      </trkpt>
      <trkpt lat="42.71248" lon="1.64915">
        <ele>1485.6</ele>
        <time>2020-02-08T11:32:16Z</time>
      </trkpt>
      <trkpt lat="42.71248" lon="1.64915">
        <ele>1485.6</ele>
        <time>2020-02-08T11:32:17Z</time>
      </trkpt>
      <trkpt lat="42.71248" lon="1.64915">
        <ele>1485.6</ele>
        <time>2020-02-08T11:32:18Z</time>
      </trkpt>
      <trkpt lat="42.71248" lon="1.64915">
        <ele>1485.6</ele>
        <time>2020-02-08T11:32:19Z</time>
      </trkpt>
      <trkpt lat="42.71248" lon="1.64915">
        <ele>1485.6</ele>
        <time>2020-02-08T11:32:20Z</time>
      </trkpt>
      <trkpt lat="42.71248" lon="1.64915">
        <ele>1485.6</ele>
        <time>2020-02-08T11:32:21Z</time>
      </trkpt>
      <trkpt lat="42.71248" lon="1.64915">
        <ele>1485.6</ele>
        <time>2020-02-08T11:32:22Z</time>
      </trkpt>
      <trkpt lat="42.71249" lon="1.64917">
        <ele>1484.6</ele>
        <time>2020-02-08T11:32:23Z</time>
      </trkpt>
      <trkpt lat="42.71249" lon="1.64917">
        <ele>1484.6</ele>
        <time>2020-02-08T11:32:24Z</time>
      </trkpt>
      <trkpt lat="42.71249" lon="1.64917">
        <ele>1484.6</ele>
        <time>2020-02-08T11:32:25Z</time>
      </trkpt>
      <trkpt lat="42.71249" lon="1.64917">
        <ele>1484.6</ele>
        <time>2020-02-08T11:32:26Z</time>
      </trkpt>
      <trkpt lat="42.71249" lon="1.64917">
        <ele>1484.6</ele>
        <time>2020-02-08T11:32:27Z</time>
      </trkpt>
      <trkpt lat="42.71249" lon="1.64917">
        <ele>1484.6</ele>
        <time>2020-02-08T11:32:28Z</time>
      </trkpt>
      <trkpt lat="42.7125" lon="1.64919">
        <ele>1485.1</ele>
        <time>2020-02-08T11:32:29Z</time>
      </trkpt>
      <trkpt lat="42.7125" lon="1.6492">
        <ele>1484.2</ele>
        <time>2020-02-08T11:32:30Z</time>
      </trkpt>
      <trkpt lat="42.71249" lon="1.6492">
        <ele>1483.7</ele>
        <time>2020-02-08T11:32:31Z</time>
      </trkpt>
      <trkpt lat="42.71249" lon="1.64921">
        <ele>1483.7</ele>
        <time>2020-02-08T11:32:32Z</time>
      </trkpt>
      <trkpt lat="42.71249" lon="1.64921">
        <ele>1483.7</ele>
        <time>2020-02-08T11:32:33Z</time>
      </trkpt>
      <trkpt lat="42.71248" lon="1.64922">
        <ele>1483.7</ele>
        <time>2020-02-08T11:32:34Z</time>
      </trkpt>
      <trkpt lat="42.71248" lon="1.64922">
        <ele>1483.7</ele>
        <time>2020-02-08T11:32:35Z</time>
      </trkpt>
      <trkpt lat="42.71248" lon="1.64923">
        <ele>1483.7</ele>
        <time>2020-02-08T11:32:36Z</time>
      </trkpt>
      <trkpt lat="42.71247" lon="1.64924">
        <ele>1483.7</ele>
        <time>2020-02-08T11:32:37Z</time>
      </trkpt>
      <trkpt lat="42.71247" lon="1.64924">
        <ele>1482.8</ele>
        <time>2020-02-08T11:32:38Z</time>
      </trkpt>
      <trkpt lat="42.71247" lon="1.64925">
        <ele>1482.8</ele>
        <time>2020-02-08T11:32:39Z</time>
      </trkpt>
      <trkpt lat="42.71247" lon="1.64925">
        <ele>1482.8</ele>
        <time>2020-02-08T11:32:40Z</time>
      </trkpt>
      <trkpt lat="42.71247" lon="1.64925">
        <ele>1482.8</ele>
        <time>2020-02-08T11:32:41Z</time>
      </trkpt>
      <trkpt lat="42.71247" lon="1.64925">
        <ele>1482.8</ele>
        <time>2020-02-08T11:32:42Z</time>
      </trkpt>
      <trkpt lat="42.71247" lon="1.64925">
        <ele>1482.8</ele>
        <time>2020-02-08T11:32:43Z</time>
      </trkpt>
      <trkpt lat="42.71245" lon="1.64926">
        <ele>1482.4</ele>
        <time>2020-02-08T11:32:44Z</time>
      </trkpt>
      <trkpt lat="42.71245" lon="1.64926">
        <ele>1482.4</ele>
        <time>2020-02-08T11:32:45Z</time>
      </trkpt>
      <trkpt lat="42.71245" lon="1.64926">
        <ele>1482.4</ele>
        <time>2020-02-08T11:32:46Z</time>
      </trkpt>
      <trkpt lat="42.71245" lon="1.64926">
        <ele>1482.4</ele>
        <time>2020-02-08T11:32:47Z</time>
      </trkpt>
      <trkpt lat="42.71245" lon="1.64926">
        <ele>1482.4</ele>
        <time>2020-02-08T11:32:48Z</time>
      </trkpt>
      <trkpt lat="42.71245" lon="1.64926">
        <ele>1482.4</ele>
        <time>2020-02-08T11:32:49Z</time>
      </trkpt>
      <trkpt lat="42.71245" lon="1.64926">
        <ele>1482.4</ele>
        <time>2020-02-08T11:32:50Z</time>
      </trkpt>
      <trkpt lat="42.71245" lon="1.64926">
        <ele>1482.4</ele>
        <time>2020-02-08T11:32:51Z</time>
      </trkpt>
      <trkpt lat="42.71245" lon="1.64926">
        <ele>1482.4</ele>
        <time>2020-02-08T11:32:52Z</time>
      </trkpt>
      <trkpt lat="42.71245" lon="1.64926">
        <ele>1482.4</ele>
        <time>2020-02-08T11:32:53Z</time>
      </trkpt>
      <trkpt lat="42.71245" lon="1.64926">
        <ele>1482.4</ele>
        <time>2020-02-08T11:32:54Z</time>
      </trkpt>
      <trkpt lat="42.71245" lon="1.64926">
        <ele>1482.4</ele>
        <time>2020-02-08T11:32:55Z</time>
      </trkpt>
      <trkpt lat="42.71245" lon="1.64926">
        <ele>1482.4</ele>
        <time>2020-02-08T11:32:56Z</time>
      </trkpt>
      <trkpt lat="42.71244" lon="1.64924">
        <ele>1483.2</ele>
        <time>2020-02-08T11:32:57Z</time>
      </trkpt>
      <trkpt lat="42.71244" lon="1.64924">
        <ele>1483.2</ele>
        <time>2020-02-08T11:32:58Z</time>
      </trkpt>
      <trkpt lat="42.71244" lon="1.64924">
        <ele>1483.2</ele>
        <time>2020-02-08T11:32:59Z</time>
      </trkpt>
      <trkpt lat="42.71244" lon="1.64921">
        <ele>1483.2</ele>
        <time>2020-02-08T11:33:00Z</time>
      </trkpt>
      <trkpt lat="42.71244" lon="1.6492">
        <ele>1483.2</ele>
        <time>2020-02-08T11:33:01Z</time>
      </trkpt>
      <trkpt lat="42.71245" lon="1.6492">
        <ele>1483.2</ele>
        <time>2020-02-08T11:33:02Z</time>
      </trkpt>
      <trkpt lat="42.71245" lon="1.6492">
        <ele>1483.2</ele>
        <time>2020-02-08T11:33:03Z</time>
      </trkpt>
      <trkpt lat="42.71245" lon="1.64919">
        <ele>1484.2</ele>
        <time>2020-02-08T11:33:04Z</time>
      </trkpt>
      <trkpt lat="42.71245" lon="1.64919">
        <ele>1484.2</ele>
        <time>2020-02-08T11:33:05Z</time>
      </trkpt>
      <trkpt lat="42.71246" lon="1.64919">
        <ele>1484.2</ele>
        <time>2020-02-08T11:33:06Z</time>
      </trkpt>
      <trkpt lat="42.71246" lon="1.64918">
        <ele>1484.2</ele>
        <time>2020-02-08T11:33:07Z</time>
      </trkpt>
      <trkpt lat="42.71246" lon="1.64918">
        <ele>1484.6</ele>
        <time>2020-02-08T11:33:08Z</time>
      </trkpt>
      <trkpt lat="42.71247" lon="1.64917">
        <ele>1484.6</ele>
        <time>2020-02-08T11:33:09Z</time>
      </trkpt>
      <trkpt lat="42.71248" lon="1.64916">
        <ele>1484.6</ele>
        <time>2020-02-08T11:33:10Z</time>
      </trkpt>
      <trkpt lat="42.71248" lon="1.64916">
        <ele>1484.6</ele>
        <time>2020-02-08T11:33:11Z</time>
      </trkpt>
      <trkpt lat="42.71248" lon="1.64916">
        <ele>1484.6</ele>
        <time>2020-02-08T11:33:12Z</time>
      </trkpt>
      <trkpt lat="42.71248" lon="1.64916">
        <ele>1484.6</ele>
        <time>2020-02-08T11:33:13Z</time>
      </trkpt>
      <trkpt lat="42.71248" lon="1.64916">
        <ele>1484.6</ele>
        <time>2020-02-08T11:33:14Z</time>
      </trkpt>
      <trkpt lat="42.71248" lon="1.64916">
        <ele>1484.6</ele>
        <time>2020-02-08T11:33:15Z</time>
      </trkpt>
      <trkpt lat="42.71248" lon="1.64916">
        <ele>1484.6</ele>
        <time>2020-02-08T11:33:16Z</time>
      </trkpt>
      <trkpt lat="42.71248" lon="1.64916">
        <ele>1484.6</ele>
        <time>2020-02-08T11:33:17Z</time>
      </trkpt>
      <trkpt lat="42.71248" lon="1.64916">
        <ele>1484.6</ele>
        <time>2020-02-08T11:33:18Z</time>
      </trkpt>
      <trkpt lat="42.71248" lon="1.64916">
        <ele>1484.6</ele>
        <time>2020-02-08T11:33:19Z</time>
      </trkpt>
      <trkpt lat="42.71249" lon="1.64916">
        <ele>1484.6</ele>
        <time>2020-02-08T11:33:20Z</time>
      </trkpt>
      <trkpt lat="42.7125" lon="1.64915">
        <ele>1485.1</ele>
        <time>2020-02-08T11:33:21Z</time>
      </trkpt>
      <trkpt lat="42.7125" lon="1.64915">
        <ele>1486.2</ele>
        <time>2020-02-08T11:33:22Z</time>
      </trkpt>
      <trkpt lat="42.71251" lon="1.64915">
        <ele>1486.2</ele>
        <time>2020-02-08T11:33:23Z</time>
      </trkpt>
      <trkpt lat="42.71251" lon="1.64914">
        <ele>1486.2</ele>
        <time>2020-02-08T11:33:24Z</time>
      </trkpt>
      <trkpt lat="42.71252" lon="1.64914">
        <ele>1486.2</ele>
        <time>2020-02-08T11:33:25Z</time>
      </trkpt>
      <trkpt lat="42.71252" lon="1.64914">
        <ele>1486.2</ele>
        <time>2020-02-08T11:33:26Z</time>
      </trkpt>
      <trkpt lat="42.71253" lon="1.64913">
        <ele>1486.7</ele>
        <time>2020-02-08T11:33:27Z</time>
      </trkpt>
      <trkpt lat="42.71253" lon="1.64913">
        <ele>1486.7</ele>
        <time>2020-02-08T11:33:28Z</time>
      </trkpt>
      <trkpt lat="42.71254" lon="1.64913">
        <ele>1486.7</ele>
        <time>2020-02-08T11:33:29Z</time>
      </trkpt>
      <trkpt lat="42.71254" lon="1.64913">
        <ele>1486.7</ele>
        <time>2020-02-08T11:33:30Z</time>
      </trkpt>
      <trkpt lat="42.71254" lon="1.64913">
        <ele>1486.7</ele>
        <time>2020-02-08T11:33:31Z</time>
      </trkpt>
      <trkpt lat="42.71254" lon="1.64913">
        <ele>1486.7</ele>
        <time>2020-02-08T11:33:32Z</time>
      </trkpt>
      <trkpt lat="42.71254" lon="1.64913">
        <ele>1486.7</ele>
        <time>2020-02-08T11:33:33Z</time>
      </trkpt>
      <trkpt lat="42.71254" lon="1.64915">
        <ele>1485.7</ele>
        <time>2020-02-08T11:33:34Z</time>
      </trkpt>
      <trkpt lat="42.71254" lon="1.64915">
        <ele>1485.7</ele>
        <time>2020-02-08T11:33:35Z</time>
      </trkpt>
      <trkpt lat="42.71254" lon="1.64915">
        <ele>1485.7</ele>
        <time>2020-02-08T11:33:36Z</time>
      </trkpt>
      <trkpt lat="42.71254" lon="1.64915">
        <ele>1485.7</ele>
        <time>2020-02-08T11:33:37Z</time>
      </trkpt>
      <trkpt lat="42.71254" lon="1.64912">
        <ele>1486.7</ele>
        <time>2020-02-08T11:33:38Z</time>
      </trkpt>
      <trkpt lat="42.71254" lon="1.64912">
        <ele>1486.7</ele>
        <time>2020-02-08T11:33:39Z</time>
      </trkpt>
      <trkpt lat="42.71254" lon="1.64912">
        <ele>1486.7</ele>
        <time>2020-02-08T11:33:40Z</time>
      </trkpt>
      <trkpt lat="42.71254" lon="1.64911">
        <ele>1486.7</ele>
        <time>2020-02-08T11:33:41Z</time>
      </trkpt>
      <trkpt lat="42.71254" lon="1.6491">
        <ele>1487.8</ele>
        <time>2020-02-08T11:33:42Z</time>
      </trkpt>
      <trkpt lat="42.71253" lon="1.64909">
        <ele>1487.8</ele>
        <time>2020-02-08T11:33:43Z</time>
      </trkpt>
      <trkpt lat="42.71253" lon="1.64909">
        <ele>1487.8</ele>
        <time>2020-02-08T11:33:44Z</time>
      </trkpt>
      <trkpt lat="42.71253" lon="1.64908">
        <ele>1487.8</ele>
        <time>2020-02-08T11:33:45Z</time>
      </trkpt>
      <trkpt lat="42.71253" lon="1.64907">
        <ele>1487.8</ele>
        <time>2020-02-08T11:33:46Z</time>
      </trkpt>
      <trkpt lat="42.71253" lon="1.64907">
        <ele>1488.8</ele>
        <time>2020-02-08T11:33:47Z</time>
      </trkpt>
      <trkpt lat="42.71252" lon="1.64906">
        <ele>1488.3</ele>
        <time>2020-02-08T11:33:48Z</time>
      </trkpt>
      <trkpt lat="42.71252" lon="1.64905">
        <ele>1488.3</ele>
        <time>2020-02-08T11:33:49Z</time>
      </trkpt>
      <trkpt lat="42.71252" lon="1.64904">
        <ele>1488.3</ele>
        <time>2020-02-08T11:33:50Z</time>
      </trkpt>
      <trkpt lat="42.71253" lon="1.64904">
        <ele>1488.8</ele>
        <time>2020-02-08T11:33:51Z</time>
      </trkpt>
      <trkpt lat="42.71253" lon="1.64903">
        <ele>1488.8</ele>
        <time>2020-02-08T11:33:52Z</time>
      </trkpt>
      <trkpt lat="42.71253" lon="1.64902">
        <ele>1489.8</ele>
        <time>2020-02-08T11:33:53Z</time>
      </trkpt>
      <trkpt lat="42.71254" lon="1.64902">
        <ele>1489.8</ele>
        <time>2020-02-08T11:33:54Z</time>
      </trkpt>
      <trkpt lat="42.71254" lon="1.64901">
        <ele>1489.8</ele>
        <time>2020-02-08T11:33:55Z</time>
      </trkpt>
      <trkpt lat="42.71254" lon="1.649">
        <ele>1489.8</ele>
        <time>2020-02-08T11:33:56Z</time>
      </trkpt>
      <trkpt lat="42.71255" lon="1.64899">
        <ele>1489.8</ele>
        <time>2020-02-08T11:33:57Z</time>
      </trkpt>
      <trkpt lat="42.71255" lon="1.64899">
        <ele>1489.8</ele>
        <time>2020-02-08T11:33:58Z</time>
      </trkpt>
      <trkpt lat="42.71255" lon="1.64898">
        <ele>1490.8</ele>
        <time>2020-02-08T11:33:59Z</time>
      </trkpt>
      <trkpt lat="42.71256" lon="1.64897">
        <ele>1490.8</ele>
        <time>2020-02-08T11:34:00Z</time>
      </trkpt>
      <trkpt lat="42.71256" lon="1.64896">
        <ele>1491.4</ele>
        <time>2020-02-08T11:34:01Z</time>
      </trkpt>
      <trkpt lat="42.71256" lon="1.64895">
        <ele>1491.4</ele>
        <time>2020-02-08T11:34:02Z</time>
      </trkpt>
      <trkpt lat="42.71257" lon="1.64894">
        <ele>1491.4</ele>
        <time>2020-02-08T11:34:03Z</time>
      </trkpt>
      <trkpt lat="42.71257" lon="1.64893">
        <ele>1492.4</ele>
        <time>2020-02-08T11:34:04Z</time>
      </trkpt>
      <trkpt lat="42.71258" lon="1.64892">
        <ele>1492.4</ele>
        <time>2020-02-08T11:34:05Z</time>
      </trkpt>
      <trkpt lat="42.71258" lon="1.64891">
        <ele>1492.4</ele>
        <time>2020-02-08T11:34:06Z</time>
      </trkpt>
      <trkpt lat="42.71258" lon="1.6489">
        <ele>1492.4</ele>
        <time>2020-02-08T11:34:07Z</time>
      </trkpt>
      <trkpt lat="42.71259" lon="1.64889">
        <ele>1493.4</ele>
        <time>2020-02-08T11:34:08Z</time>
      </trkpt>
      <trkpt lat="42.71259" lon="1.64887">
        <ele>1494.1</ele>
        <time>2020-02-08T11:34:09Z</time>
      </trkpt>
      <trkpt lat="42.71262" lon="1.64885">
        <ele>1494.1</ele>
        <time>2020-02-08T11:34:10Z</time>
      </trkpt>
      <trkpt lat="42.71262" lon="1.64885">
        <ele>1495.1</ele>
        <time>2020-02-08T11:34:11Z</time>
      </trkpt>
      <trkpt lat="42.71262" lon="1.64884">
        <ele>1495.8</ele>
        <time>2020-02-08T11:34:12Z</time>
      </trkpt>
      <trkpt lat="42.71262" lon="1.64884">
        <ele>1495.8</ele>
        <time>2020-02-08T11:34:13Z</time>
      </trkpt>
      <trkpt lat="42.71263" lon="1.64883">
        <ele>1495.8</ele>
        <time>2020-02-08T11:34:14Z</time>
      </trkpt>
      <trkpt lat="42.71263" lon="1.64883">
        <ele>1495.8</ele>
        <time>2020-02-08T11:34:15Z</time>
      </trkpt>
      <trkpt lat="42.71263" lon="1.64882">
        <ele>1495.8</ele>
        <time>2020-02-08T11:34:16Z</time>
      </trkpt>
      <trkpt lat="42.71263" lon="1.64882">
        <ele>1495.8</ele>
        <time>2020-02-08T11:34:17Z</time>
      </trkpt>
      <trkpt lat="42.71264" lon="1.64881">
        <ele>1495.8</ele>
        <time>2020-02-08T11:34:18Z</time>
      </trkpt>
      <trkpt lat="42.71264" lon="1.64881">
        <ele>1495.8</ele>
        <time>2020-02-08T11:34:19Z</time>
      </trkpt>
      <trkpt lat="42.71264" lon="1.64881">
        <ele>1495.8</ele>
        <time>2020-02-08T11:34:20Z</time>
      </trkpt>
      <trkpt lat="42.71264" lon="1.64881">
        <ele>1495.8</ele>
        <time>2020-02-08T11:34:21Z</time>
      </trkpt>
      <trkpt lat="42.71264" lon="1.64878">
        <ele>1496.8</ele>
        <time>2020-02-08T11:34:22Z</time>
      </trkpt>
      <trkpt lat="42.71264" lon="1.64878">
        <ele>1496.8</ele>
        <time>2020-02-08T11:34:23Z</time>
      </trkpt>
      <trkpt lat="42.71264" lon="1.64878">
        <ele>1496.8</ele>
        <time>2020-02-08T11:34:24Z</time>
      </trkpt>
      <trkpt lat="42.71264" lon="1.64878">
        <ele>1496.8</ele>
        <time>2020-02-08T11:34:25Z</time>
      </trkpt>
      <trkpt lat="42.71264" lon="1.64878">
        <ele>1496.8</ele>
        <time>2020-02-08T11:34:26Z</time>
      </trkpt>
      <trkpt lat="42.71264" lon="1.64878">
        <ele>1496.8</ele>
        <time>2020-02-08T11:34:27Z</time>
      </trkpt>
      <trkpt lat="42.71264" lon="1.64878">
        <ele>1496.8</ele>
        <time>2020-02-08T11:34:28Z</time>
      </trkpt>
      <trkpt lat="42.71264" lon="1.64878">
        <ele>1496.8</ele>
        <time>2020-02-08T11:34:29Z</time>
      </trkpt>
      <trkpt lat="42.71264" lon="1.64877">
        <ele>1496.8</ele>
        <time>2020-02-08T11:34:30Z</time>
      </trkpt>
      <trkpt lat="42.71265" lon="1.64875">
        <ele>1497.9</ele>
        <time>2020-02-08T11:34:31Z</time>
      </trkpt>
      <trkpt lat="42.71265" lon="1.64874">
        <ele>1497.9</ele>
        <time>2020-02-08T11:34:32Z</time>
      </trkpt>
      <trkpt lat="42.71265" lon="1.64873">
        <ele>1498.7</ele>
        <time>2020-02-08T11:34:33Z</time>
      </trkpt>
      <trkpt lat="42.71266" lon="1.64872">
        <ele>1499.9</ele>
        <time>2020-02-08T11:34:34Z</time>
      </trkpt>
      <trkpt lat="42.71266" lon="1.6487">
        <ele>1499.9</ele>
        <time>2020-02-08T11:34:35Z</time>
      </trkpt>
      <trkpt lat="42.71267" lon="1.64869">
        <ele>1499.9</ele>
        <time>2020-02-08T11:34:36Z</time>
      </trkpt>
      <trkpt lat="42.71267" lon="1.64868">
        <ele>1501.1</ele>
        <time>2020-02-08T11:34:37Z</time>
      </trkpt>
      <trkpt lat="42.71268" lon="1.64867">
        <ele>1501.1</ele>
        <time>2020-02-08T11:34:38Z</time>
      </trkpt>
      <trkpt lat="42.71268" lon="1.64865">
        <ele>1501.1</ele>
        <time>2020-02-08T11:34:39Z</time>
      </trkpt>
      <trkpt lat="42.71268" lon="1.64865">
        <ele>1501.1</ele>
        <time>2020-02-08T11:34:40Z</time>
      </trkpt>
      <trkpt lat="42.71268" lon="1.64865">
        <ele>1501.1</ele>
        <time>2020-02-08T11:34:41Z</time>
      </trkpt>
      <trkpt lat="42.71268" lon="1.64865">
        <ele>1501.1</ele>
        <time>2020-02-08T11:34:42Z</time>
      </trkpt>
      <trkpt lat="42.71268" lon="1.64865">
        <ele>1501.1</ele>
        <time>2020-02-08T11:34:43Z</time>
      </trkpt>
      <trkpt lat="42.71268" lon="1.64864">
        <ele>1501.1</ele>
        <time>2020-02-08T11:34:44Z</time>
      </trkpt>
      <trkpt lat="42.71268" lon="1.64864">
        <ele>1501.1</ele>
        <time>2020-02-08T11:34:45Z</time>
      </trkpt>
      <trkpt lat="42.71268" lon="1.64864">
        <ele>1501.1</ele>
        <time>2020-02-08T11:34:46Z</time>
      </trkpt>
      <trkpt lat="42.71268" lon="1.64864">
        <ele>1501.1</ele>
        <time>2020-02-08T11:34:47Z</time>
      </trkpt>
      <trkpt lat="42.71268" lon="1.64864">
        <ele>1502.5</ele>
        <time>2020-02-08T11:34:48Z</time>
      </trkpt>
      <trkpt lat="42.71268" lon="1.64863">
        <ele>1502.5</ele>
        <time>2020-02-08T11:34:49Z</time>
      </trkpt>
      <trkpt lat="42.71268" lon="1.64863">
        <ele>1502.5</ele>
        <time>2020-02-08T11:34:50Z</time>
      </trkpt>
      <trkpt lat="42.71268" lon="1.64863">
        <ele>1502.5</ele>
        <time>2020-02-08T11:34:51Z</time>
      </trkpt>
      <trkpt lat="42.71268" lon="1.64863">
        <ele>1502.5</ele>
        <time>2020-02-08T11:34:52Z</time>
      </trkpt>
      <trkpt lat="42.71268" lon="1.64863">
        <ele>1502.5</ele>
        <time>2020-02-08T11:34:53Z</time>
      </trkpt>
      <trkpt lat="42.71268" lon="1.64862">
        <ele>1502.5</ele>
        <time>2020-02-08T11:34:54Z</time>
      </trkpt>
      <trkpt lat="42.71268" lon="1.64862">
        <ele>1502.5</ele>
        <time>2020-02-08T11:34:55Z</time>
      </trkpt>
      <trkpt lat="42.71268" lon="1.64862">
        <ele>1502.5</ele>
        <time>2020-02-08T11:34:56Z</time>
      </trkpt>
      <trkpt lat="42.71268" lon="1.64862">
        <ele>1502.5</ele>
        <time>2020-02-08T11:34:57Z</time>
      </trkpt>
      <trkpt lat="42.71268" lon="1.64861">
        <ele>1502.5</ele>
        <time>2020-02-08T11:34:58Z</time>
      </trkpt>
      <trkpt lat="42.71268" lon="1.64861">
        <ele>1502.5</ele>
        <time>2020-02-08T11:34:59Z</time>
      </trkpt>
      <trkpt lat="42.71268" lon="1.64861">
        <ele>1502.5</ele>
        <time>2020-02-08T11:35:00Z</time>
      </trkpt>
      <trkpt lat="42.71267" lon="1.64861">
        <ele>1502.5</ele>
        <time>2020-02-08T11:35:01Z</time>
      </trkpt>
      <trkpt lat="42.71267" lon="1.64861">
        <ele>1502.5</ele>
        <time>2020-02-08T11:35:02Z</time>
      </trkpt>
      <trkpt lat="42.71267" lon="1.6486">
        <ele>1502.5</ele>
        <time>2020-02-08T11:35:03Z</time>
      </trkpt>
      <trkpt lat="42.71267" lon="1.6486">
        <ele>1502.5</ele>
        <time>2020-02-08T11:35:04Z</time>
      </trkpt>
      <trkpt lat="42.71267" lon="1.6486">
        <ele>1502.5</ele>
        <time>2020-02-08T11:35:05Z</time>
      </trkpt>
      <trkpt lat="42.71267" lon="1.6486">
        <ele>1502.5</ele>
        <time>2020-02-08T11:35:06Z</time>
      </trkpt>
      <trkpt lat="42.71267" lon="1.6486">
        <ele>1502.5</ele>
        <time>2020-02-08T11:35:07Z</time>
      </trkpt>
      <trkpt lat="42.71267" lon="1.64859">
        <ele>1502.5</ele>
        <time>2020-02-08T11:35:08Z</time>
      </trkpt>
      <trkpt lat="42.71267" lon="1.64859">
        <ele>1503.8</ele>
        <time>2020-02-08T11:35:09Z</time>
      </trkpt>
      <trkpt lat="42.71267" lon="1.64859">
        <ele>1503.8</ele>
        <time>2020-02-08T11:35:10Z</time>
      </trkpt>
      <trkpt lat="42.71267" lon="1.64859">
        <ele>1503.8</ele>
        <time>2020-02-08T11:35:11Z</time>
      </trkpt>
      <trkpt lat="42.71267" lon="1.64859">
        <ele>1503.8</ele>
        <time>2020-02-08T11:35:12Z</time>
      </trkpt>
      <trkpt lat="42.71267" lon="1.64858">
        <ele>1503.8</ele>
        <time>2020-02-08T11:35:13Z</time>
      </trkpt>
      <trkpt lat="42.71267" lon="1.64858">
        <ele>1503.8</ele>
        <time>2020-02-08T11:35:14Z</time>
      </trkpt>
      <trkpt lat="42.71267" lon="1.64858">
        <ele>1503.8</ele>
        <time>2020-02-08T11:35:15Z</time>
      </trkpt>
      <trkpt lat="42.71267" lon="1.64858">
        <ele>1503.8</ele>
        <time>2020-02-08T11:35:16Z</time>
      </trkpt>
      <trkpt lat="42.71267" lon="1.64858">
        <ele>1503.8</ele>
        <time>2020-02-08T11:35:17Z</time>
      </trkpt>
      <trkpt lat="42.71267" lon="1.64857">
        <ele>1503.8</ele>
        <time>2020-02-08T11:35:18Z</time>
      </trkpt>
      <trkpt lat="42.71267" lon="1.64857">
        <ele>1503.8</ele>
        <time>2020-02-08T11:35:19Z</time>
      </trkpt>
      <trkpt lat="42.71267" lon="1.64857">
        <ele>1503.8</ele>
        <time>2020-02-08T11:35:20Z</time>
      </trkpt>
      <trkpt lat="42.71267" lon="1.64857">
        <ele>1503.8</ele>
        <time>2020-02-08T11:35:21Z</time>
      </trkpt>
      <trkpt lat="42.71267" lon="1.64857">
        <ele>1503.8</ele>
        <time>2020-02-08T11:35:22Z</time>
      </trkpt>
      <trkpt lat="42.71267" lon="1.64856">
        <ele>1503.8</ele>
        <time>2020-02-08T11:35:23Z</time>
      </trkpt>
      <trkpt lat="42.71267" lon="1.64856">
        <ele>1503.8</ele>
        <time>2020-02-08T11:35:24Z</time>
      </trkpt>
      <trkpt lat="42.71267" lon="1.64856">
        <ele>1503.8</ele>
        <time>2020-02-08T11:35:25Z</time>
      </trkpt>
      <trkpt lat="42.71267" lon="1.64856">
        <ele>1503.8</ele>
        <time>2020-02-08T11:35:26Z</time>
      </trkpt>
      <trkpt lat="42.71267" lon="1.64856">
        <ele>1503.8</ele>
        <time>2020-02-08T11:35:27Z</time>
      </trkpt>
      <trkpt lat="42.71267" lon="1.64855">
        <ele>1503.8</ele>
        <time>2020-02-08T11:35:28Z</time>
      </trkpt>
      <trkpt lat="42.71267" lon="1.64855">
        <ele>1503.8</ele>
        <time>2020-02-08T11:35:29Z</time>
      </trkpt>
      <trkpt lat="42.71266" lon="1.64855">
        <ele>1505.1</ele>
        <time>2020-02-08T11:35:30Z</time>
      </trkpt>
      <trkpt lat="42.71266" lon="1.64855">
        <ele>1505.1</ele>
        <time>2020-02-08T11:35:31Z</time>
      </trkpt>
      <trkpt lat="42.71266" lon="1.64855">
        <ele>1505.1</ele>
        <time>2020-02-08T11:35:32Z</time>
      </trkpt>
      <trkpt lat="42.71266" lon="1.64854">
        <ele>1505.1</ele>
        <time>2020-02-08T11:35:33Z</time>
      </trkpt>
      <trkpt lat="42.71266" lon="1.64854">
        <ele>1505.1</ele>
        <time>2020-02-08T11:35:34Z</time>
      </trkpt>
      <trkpt lat="42.71266" lon="1.64854">
        <ele>1505.1</ele>
        <time>2020-02-08T11:35:35Z</time>
      </trkpt>
      <trkpt lat="42.71266" lon="1.64854">
        <ele>1505.1</ele>
        <time>2020-02-08T11:35:36Z</time>
      </trkpt>
      <trkpt lat="42.71266" lon="1.64854">
        <ele>1505.1</ele>
        <time>2020-02-08T11:35:37Z</time>
      </trkpt>
      <trkpt lat="42.71266" lon="1.64853">
        <ele>1505.1</ele>
        <time>2020-02-08T11:35:38Z</time>
      </trkpt>
      <trkpt lat="42.71266" lon="1.64853">
        <ele>1505.1</ele>
        <time>2020-02-08T11:35:39Z</time>
      </trkpt>
      <trkpt lat="42.71266" lon="1.64853">
        <ele>1505.1</ele>
        <time>2020-02-08T11:35:40Z</time>
      </trkpt>
      <trkpt lat="42.71266" lon="1.64852">
        <ele>1505.1</ele>
        <time>2020-02-08T11:35:41Z</time>
      </trkpt>
      <trkpt lat="42.71266" lon="1.64852">
        <ele>1505.1</ele>
        <time>2020-02-08T11:35:42Z</time>
      </trkpt>
      <trkpt lat="42.71265" lon="1.64852">
        <ele>1505.1</ele>
        <time>2020-02-08T11:35:43Z</time>
      </trkpt>
      <trkpt lat="42.71265" lon="1.64851">
        <ele>1504.3</ele>
        <time>2020-02-08T11:35:44Z</time>
      </trkpt>
      <trkpt lat="42.71265" lon="1.64851">
        <ele>1504.3</ele>
        <time>2020-02-08T11:35:45Z</time>
      </trkpt>
      <trkpt lat="42.71265" lon="1.64851">
        <ele>1505.6</ele>
        <time>2020-02-08T11:35:46Z</time>
      </trkpt>
      <trkpt lat="42.71264" lon="1.6485">
        <ele>1505.6</ele>
        <time>2020-02-08T11:35:47Z</time>
      </trkpt>
      <trkpt lat="42.71264" lon="1.6485">
        <ele>1505.6</ele>
        <time>2020-02-08T11:35:48Z</time>
      </trkpt>
      <trkpt lat="42.71264" lon="1.64849">
        <ele>1505.6</ele>
        <time>2020-02-08T11:35:49Z</time>
      </trkpt>
      <trkpt lat="42.71264" lon="1.64849">
        <ele>1505.6</ele>
        <time>2020-02-08T11:35:50Z</time>
      </trkpt>
      <trkpt lat="42.71264" lon="1.64849">
        <ele>1505.6</ele>
        <time>2020-02-08T11:35:51Z</time>
      </trkpt>
      <trkpt lat="42.71263" lon="1.64848">
        <ele>1505.6</ele>
        <time>2020-02-08T11:35:52Z</time>
      </trkpt>
      <trkpt lat="42.71263" lon="1.64848">
        <ele>1505.6</ele>
        <time>2020-02-08T11:35:53Z</time>
      </trkpt>
      <trkpt lat="42.71263" lon="1.64847">
        <ele>1505.6</ele>
        <time>2020-02-08T11:35:54Z</time>
      </trkpt>
      <trkpt lat="42.71263" lon="1.64847">
        <ele>1505.6</ele>
        <time>2020-02-08T11:35:55Z</time>
      </trkpt>
      <trkpt lat="42.71263" lon="1.64847">
        <ele>1505.6</ele>
        <time>2020-02-08T11:35:56Z</time>
      </trkpt>
      <trkpt lat="42.71262" lon="1.64846">
        <ele>1506.9</ele>
        <time>2020-02-08T11:35:57Z</time>
      </trkpt>
      <trkpt lat="42.71262" lon="1.64846">
        <ele>1506.9</ele>
        <time>2020-02-08T11:35:58Z</time>
      </trkpt>
      <trkpt lat="42.71262" lon="1.64846">
        <ele>1506.2</ele>
        <time>2020-02-08T11:35:59Z</time>
      </trkpt>
      <trkpt lat="42.71262" lon="1.64845">
        <ele>1506.2</ele>
        <time>2020-02-08T11:36:00Z</time>
      </trkpt>
      <trkpt lat="42.71261" lon="1.64845">
        <ele>1506.2</ele>
        <time>2020-02-08T11:36:01Z</time>
      </trkpt>
      <trkpt lat="42.71261" lon="1.64844">
        <ele>1506.2</ele>
        <time>2020-02-08T11:36:02Z</time>
      </trkpt>
      <trkpt lat="42.71261" lon="1.64844">
        <ele>1506.2</ele>
        <time>2020-02-08T11:36:03Z</time>
      </trkpt>
      <trkpt lat="42.71261" lon="1.64844">
        <ele>1506.2</ele>
        <time>2020-02-08T11:36:04Z</time>
      </trkpt>
      <trkpt lat="42.71261" lon="1.64843">
        <ele>1506.2</ele>
        <time>2020-02-08T11:36:05Z</time>
      </trkpt>
      <trkpt lat="42.7126" lon="1.64843">
        <ele>1506.2</ele>
        <time>2020-02-08T11:36:06Z</time>
      </trkpt>
      <trkpt lat="42.7126" lon="1.64843">
        <ele>1506.2</ele>
        <time>2020-02-08T11:36:07Z</time>
      </trkpt>
      <trkpt lat="42.7126" lon="1.64842">
        <ele>1506.2</ele>
        <time>2020-02-08T11:36:08Z</time>
      </trkpt>
      <trkpt lat="42.7126" lon="1.64842">
        <ele>1507.5</ele>
        <time>2020-02-08T11:36:09Z</time>
      </trkpt>
      <trkpt lat="42.7126" lon="1.64842">
        <ele>1507.5</ele>
        <time>2020-02-08T11:36:10Z</time>
      </trkpt>
      <trkpt lat="42.7126" lon="1.64842">
        <ele>1507.5</ele>
        <time>2020-02-08T11:36:11Z</time>
      </trkpt>
      <trkpt lat="42.7126" lon="1.64842">
        <ele>1507.5</ele>
        <time>2020-02-08T11:36:12Z</time>
      </trkpt>
      <trkpt lat="42.7126" lon="1.64842">
        <ele>1507.5</ele>
        <time>2020-02-08T11:36:13Z</time>
      </trkpt>
      <trkpt lat="42.7126" lon="1.64842">
        <ele>1507.5</ele>
        <time>2020-02-08T11:36:14Z</time>
      </trkpt>
      <trkpt lat="42.7126" lon="1.64842">
        <ele>1507.5</ele>
        <time>2020-02-08T11:36:15Z</time>
      </trkpt>
      <trkpt lat="42.7126" lon="1.64842">
        <ele>1507.5</ele>
        <time>2020-02-08T11:36:16Z</time>
      </trkpt>
      <trkpt lat="42.7126" lon="1.64842">
        <ele>1507.5</ele>
        <time>2020-02-08T11:36:17Z</time>
      </trkpt>
      <trkpt lat="42.7126" lon="1.64842">
        <ele>1507.5</ele>
        <time>2020-02-08T11:36:18Z</time>
      </trkpt>
      <trkpt lat="42.7126" lon="1.64842">
        <ele>1507.5</ele>
        <time>2020-02-08T11:36:19Z</time>
      </trkpt>
      <trkpt lat="42.7126" lon="1.64841">
        <ele>1507.5</ele>
        <time>2020-02-08T11:36:20Z</time>
      </trkpt>
      <trkpt lat="42.71261" lon="1.6484">
        <ele>1507.5</ele>
        <time>2020-02-08T11:36:21Z</time>
      </trkpt>
      <trkpt lat="42.71261" lon="1.64839">
        <ele>1507.5</ele>
        <time>2020-02-08T11:36:22Z</time>
      </trkpt>
      <trkpt lat="42.71262" lon="1.64837">
        <ele>1509</ele>
        <time>2020-02-08T11:36:23Z</time>
      </trkpt>
      <trkpt lat="42.71262" lon="1.64836">
        <ele>1509.7</ele>
        <time>2020-02-08T11:36:24Z</time>
      </trkpt>
      <trkpt lat="42.71263" lon="1.64835">
        <ele>1509.7</ele>
        <time>2020-02-08T11:36:25Z</time>
      </trkpt>
      <trkpt lat="42.71263" lon="1.64834">
        <ele>1509.7</ele>
        <time>2020-02-08T11:36:26Z</time>
      </trkpt>
      <trkpt lat="42.71264" lon="1.64833">
        <ele>1511.2</ele>
        <time>2020-02-08T11:36:27Z</time>
      </trkpt>
      <trkpt lat="42.71264" lon="1.64832">
        <ele>1511.2</ele>
        <time>2020-02-08T11:36:28Z</time>
      </trkpt>
      <trkpt lat="42.71265" lon="1.64831">
        <ele>1511.2</ele>
        <time>2020-02-08T11:36:29Z</time>
      </trkpt>
      <trkpt lat="42.71265" lon="1.64831">
        <ele>1511.2</ele>
        <time>2020-02-08T11:36:30Z</time>
      </trkpt>
      <trkpt lat="42.71265" lon="1.6483">
        <ele>1511.2</ele>
        <time>2020-02-08T11:36:31Z</time>
      </trkpt>
      <trkpt lat="42.71265" lon="1.6483">
        <ele>1511.2</ele>
        <time>2020-02-08T11:36:32Z</time>
      </trkpt>
      <trkpt lat="42.71264" lon="1.6483">
        <ele>1511.2</ele>
        <time>2020-02-08T11:36:33Z</time>
      </trkpt>
      <trkpt lat="42.71264" lon="1.6483">
        <ele>1511.2</ele>
        <time>2020-02-08T11:36:34Z</time>
      </trkpt>
      <trkpt lat="42.71264" lon="1.6483">
        <ele>1511.2</ele>
        <time>2020-02-08T11:36:35Z</time>
      </trkpt>
      <trkpt lat="42.71264" lon="1.6483">
        <ele>1511.2</ele>
        <time>2020-02-08T11:36:36Z</time>
      </trkpt>
      <trkpt lat="42.71264" lon="1.64829">
        <ele>1511.2</ele>
        <time>2020-02-08T11:36:37Z</time>
      </trkpt>
      <trkpt lat="42.71264" lon="1.64829">
        <ele>1512.9</ele>
        <time>2020-02-08T11:36:38Z</time>
      </trkpt>
      <trkpt lat="42.71264" lon="1.64829">
        <ele>1512.9</ele>
        <time>2020-02-08T11:36:39Z</time>
      </trkpt>
      <trkpt lat="42.71264" lon="1.64829">
        <ele>1512.9</ele>
        <time>2020-02-08T11:36:40Z</time>
      </trkpt>
      <trkpt lat="42.71264" lon="1.64829">
        <ele>1512.9</ele>
        <time>2020-02-08T11:36:41Z</time>
      </trkpt>
      <trkpt lat="42.71264" lon="1.64828">
        <ele>1512.9</ele>
        <time>2020-02-08T11:36:42Z</time>
      </trkpt>
      <trkpt lat="42.71264" lon="1.64828">
        <ele>1512.9</ele>
        <time>2020-02-08T11:36:43Z</time>
      </trkpt>
      <trkpt lat="42.71264" lon="1.64828">
        <ele>1512.9</ele>
        <time>2020-02-08T11:36:44Z</time>
      </trkpt>
      <trkpt lat="42.71264" lon="1.64828">
        <ele>1512.9</ele>
        <time>2020-02-08T11:36:45Z</time>
      </trkpt>
      <trkpt lat="42.71264" lon="1.64828">
        <ele>1512.9</ele>
        <time>2020-02-08T11:36:46Z</time>
      </trkpt>
      <trkpt lat="42.71264" lon="1.64828">
        <ele>1512.9</ele>
        <time>2020-02-08T11:36:47Z</time>
      </trkpt>
      <trkpt lat="42.71264" lon="1.64827">
        <ele>1512.9</ele>
        <time>2020-02-08T11:36:48Z</time>
      </trkpt>
      <trkpt lat="42.71263" lon="1.64827">
        <ele>1512.9</ele>
        <time>2020-02-08T11:36:49Z</time>
      </trkpt>
      <trkpt lat="42.71263" lon="1.64827">
        <ele>1512.9</ele>
        <time>2020-02-08T11:36:50Z</time>
      </trkpt>
      <trkpt lat="42.71263" lon="1.64827">
        <ele>1512.9</ele>
        <time>2020-02-08T11:36:51Z</time>
      </trkpt>
      <trkpt lat="42.71263" lon="1.64827">
        <ele>1512.9</ele>
        <time>2020-02-08T11:36:52Z</time>
      </trkpt>
      <trkpt lat="42.71263" lon="1.64826">
        <ele>1512.9</ele>
        <time>2020-02-08T11:36:53Z</time>
      </trkpt>
      <trkpt lat="42.71263" lon="1.64826">
        <ele>1512.9</ele>
        <time>2020-02-08T11:36:54Z</time>
      </trkpt>
      <trkpt lat="42.71263" lon="1.64826">
        <ele>1512.9</ele>
        <time>2020-02-08T11:36:55Z</time>
      </trkpt>
      <trkpt lat="42.71263" lon="1.64826">
        <ele>1512.9</ele>
        <time>2020-02-08T11:36:56Z</time>
      </trkpt>
      <trkpt lat="42.71263" lon="1.64826">
        <ele>1512.9</ele>
        <time>2020-02-08T11:36:57Z</time>
      </trkpt>
      <trkpt lat="42.71263" lon="1.64826">
        <ele>1512.9</ele>
        <time>2020-02-08T11:36:58Z</time>
      </trkpt>
      <trkpt lat="42.71263" lon="1.64825">
        <ele>1512.9</ele>
        <time>2020-02-08T11:36:59Z</time>
      </trkpt>
      <trkpt lat="42.71263" lon="1.64825">
        <ele>1512.9</ele>
        <time>2020-02-08T11:37:00Z</time>
      </trkpt>
      <trkpt lat="42.71263" lon="1.64825">
        <ele>1512.9</ele>
        <time>2020-02-08T11:37:01Z</time>
      </trkpt>
      <trkpt lat="42.71263" lon="1.64825">
        <ele>1514.6</ele>
        <time>2020-02-08T11:37:02Z</time>
      </trkpt>
      <trkpt lat="42.71263" lon="1.64825">
        <ele>1514.6</ele>
        <time>2020-02-08T11:37:03Z</time>
      </trkpt>
      <trkpt lat="42.71262" lon="1.64824">
        <ele>1514.6</ele>
        <time>2020-02-08T11:37:04Z</time>
      </trkpt>
      <trkpt lat="42.71262" lon="1.64824">
        <ele>1514.6</ele>
        <time>2020-02-08T11:37:05Z</time>
      </trkpt>
      <trkpt lat="42.71262" lon="1.64824">
        <ele>1514.6</ele>
        <time>2020-02-08T11:37:06Z</time>
      </trkpt>
      <trkpt lat="42.71262" lon="1.64824">
        <ele>1514.6</ele>
        <time>2020-02-08T11:37:07Z</time>
      </trkpt>
      <trkpt lat="42.71262" lon="1.64824">
        <ele>1514.6</ele>
        <time>2020-02-08T11:37:08Z</time>
      </trkpt>
      <trkpt lat="42.71262" lon="1.64824">
        <ele>1514.6</ele>
        <time>2020-02-08T11:37:09Z</time>
      </trkpt>
      <trkpt lat="42.71262" lon="1.64823">
        <ele>1514.6</ele>
        <time>2020-02-08T11:37:10Z</time>
      </trkpt>
      <trkpt lat="42.71262" lon="1.64822">
        <ele>1514.6</ele>
        <time>2020-02-08T11:37:11Z</time>
      </trkpt>
      <trkpt lat="42.71262" lon="1.64821">
        <ele>1513.9</ele>
        <time>2020-02-08T11:37:12Z</time>
      </trkpt>
      <trkpt lat="42.71262" lon="1.64821">
        <ele>1515.7</ele>
        <time>2020-02-08T11:37:13Z</time>
      </trkpt>
      <trkpt lat="42.71262" lon="1.6482">
        <ele>1515.7</ele>
        <time>2020-02-08T11:37:14Z</time>
      </trkpt>
      <trkpt lat="42.71262" lon="1.64819">
        <ele>1515.7</ele>
        <time>2020-02-08T11:37:15Z</time>
      </trkpt>
      <trkpt lat="42.71262" lon="1.64818">
        <ele>1515.7</ele>
        <time>2020-02-08T11:37:16Z</time>
      </trkpt>
      <trkpt lat="42.71262" lon="1.64818">
        <ele>1515.7</ele>
        <time>2020-02-08T11:37:17Z</time>
      </trkpt>
      <trkpt lat="42.71262" lon="1.64817">
        <ele>1515.7</ele>
        <time>2020-02-08T11:37:18Z</time>
      </trkpt>
      <trkpt lat="42.71261" lon="1.64816">
        <ele>1517.4</ele>
        <time>2020-02-08T11:37:19Z</time>
      </trkpt>
      <trkpt lat="42.71261" lon="1.64816">
        <ele>1517.4</ele>
        <time>2020-02-08T11:37:20Z</time>
      </trkpt>
      <trkpt lat="42.71262" lon="1.64816">
        <ele>1517.4</ele>
        <time>2020-02-08T11:37:21Z</time>
      </trkpt>
      <trkpt lat="42.71262" lon="1.64815">
        <ele>1517.4</ele>
        <time>2020-02-08T11:37:22Z</time>
      </trkpt>
      <trkpt lat="42.71262" lon="1.64815">
        <ele>1517.4</ele>
        <time>2020-02-08T11:37:23Z</time>
      </trkpt>
      <trkpt lat="42.71262" lon="1.64815">
        <ele>1517.4</ele>
        <time>2020-02-08T11:37:24Z</time>
      </trkpt>
      <trkpt lat="42.71262" lon="1.64814">
        <ele>1517.4</ele>
        <time>2020-02-08T11:37:25Z</time>
      </trkpt>
      <trkpt lat="42.71262" lon="1.64814">
        <ele>1517.4</ele>
        <time>2020-02-08T11:37:26Z</time>
      </trkpt>
      <trkpt lat="42.71262" lon="1.64814">
        <ele>1517.4</ele>
        <time>2020-02-08T11:37:27Z</time>
      </trkpt>
      <trkpt lat="42.71262" lon="1.64813">
        <ele>1517.4</ele>
        <time>2020-02-08T11:37:28Z</time>
      </trkpt>
      <trkpt lat="42.71262" lon="1.64813">
        <ele>1517.4</ele>
        <time>2020-02-08T11:37:29Z</time>
      </trkpt>
      <trkpt lat="42.71262" lon="1.64813">
        <ele>1517.4</ele>
        <time>2020-02-08T11:37:30Z</time>
      </trkpt>
      <trkpt lat="42.71262" lon="1.64812">
        <ele>1517.4</ele>
        <time>2020-02-08T11:37:31Z</time>
      </trkpt>
      <trkpt lat="42.71262" lon="1.64812">
        <ele>1519.2</ele>
        <time>2020-02-08T11:37:32Z</time>
      </trkpt>
      <trkpt lat="42.71262" lon="1.64812">
        <ele>1519.2</ele>
        <time>2020-02-08T11:37:33Z</time>
      </trkpt>
      <trkpt lat="42.71262" lon="1.64811">
        <ele>1519.2</ele>
        <time>2020-02-08T11:37:34Z</time>
      </trkpt>
      <trkpt lat="42.71262" lon="1.64811">
        <ele>1519.2</ele>
        <time>2020-02-08T11:37:35Z</time>
      </trkpt>
      <trkpt lat="42.71262" lon="1.64811">
        <ele>1519.2</ele>
        <time>2020-02-08T11:37:36Z</time>
      </trkpt>
      <trkpt lat="42.71262" lon="1.64811">
        <ele>1519.2</ele>
        <time>2020-02-08T11:37:37Z</time>
      </trkpt>
      <trkpt lat="42.71262" lon="1.6481">
        <ele>1519.9</ele>
        <time>2020-02-08T11:37:38Z</time>
      </trkpt>
      <trkpt lat="42.71262" lon="1.6481">
        <ele>1519.9</ele>
        <time>2020-02-08T11:37:39Z</time>
      </trkpt>
      <trkpt lat="42.71262" lon="1.6481">
        <ele>1519.9</ele>
        <time>2020-02-08T11:37:40Z</time>
      </trkpt>
      <trkpt lat="42.71262" lon="1.64809">
        <ele>1519.9</ele>
        <time>2020-02-08T11:37:41Z</time>
      </trkpt>
      <trkpt lat="42.71262" lon="1.64809">
        <ele>1519.9</ele>
        <time>2020-02-08T11:37:42Z</time>
      </trkpt>
      <trkpt lat="42.71262" lon="1.64809">
        <ele>1519.9</ele>
        <time>2020-02-08T11:37:43Z</time>
      </trkpt>
      <trkpt lat="42.71262" lon="1.64808">
        <ele>1519.9</ele>
        <time>2020-02-08T11:37:44Z</time>
      </trkpt>
      <trkpt lat="42.71262" lon="1.64808">
        <ele>1519.9</ele>
        <time>2020-02-08T11:37:45Z</time>
      </trkpt>
      <trkpt lat="42.71262" lon="1.64808">
        <ele>1521.6</ele>
        <time>2020-02-08T11:37:46Z</time>
      </trkpt>
      <trkpt lat="42.71262" lon="1.64807">
        <ele>1521.6</ele>
        <time>2020-02-08T11:37:47Z</time>
      </trkpt>
      <trkpt lat="42.71262" lon="1.64807">
        <ele>1521.6</ele>
        <time>2020-02-08T11:37:48Z</time>
      </trkpt>
      <trkpt lat="42.71262" lon="1.64807">
        <ele>1521.6</ele>
        <time>2020-02-08T11:37:49Z</time>
      </trkpt>
      <trkpt lat="42.71262" lon="1.64806">
        <ele>1521.6</ele>
        <time>2020-02-08T11:37:50Z</time>
      </trkpt>
      <trkpt lat="42.71262" lon="1.64806">
        <ele>1521.6</ele>
        <time>2020-02-08T11:37:51Z</time>
      </trkpt>
      <trkpt lat="42.71262" lon="1.64806">
        <ele>1521.6</ele>
        <time>2020-02-08T11:37:52Z</time>
      </trkpt>
      <trkpt lat="42.71262" lon="1.64806">
        <ele>1521.6</ele>
        <time>2020-02-08T11:37:53Z</time>
      </trkpt>
      <trkpt lat="42.71263" lon="1.64805">
        <ele>1521.6</ele>
        <time>2020-02-08T11:37:54Z</time>
      </trkpt>
      <trkpt lat="42.71263" lon="1.64805">
        <ele>1521.6</ele>
        <time>2020-02-08T11:37:55Z</time>
      </trkpt>
      <trkpt lat="42.71263" lon="1.64805">
        <ele>1521.6</ele>
        <time>2020-02-08T11:37:56Z</time>
      </trkpt>
      <trkpt lat="42.71263" lon="1.64804">
        <ele>1521.6</ele>
        <time>2020-02-08T11:37:57Z</time>
      </trkpt>
      <trkpt lat="42.71263" lon="1.64804">
        <ele>1521.6</ele>
        <time>2020-02-08T11:37:58Z</time>
      </trkpt>
      <trkpt lat="42.71263" lon="1.64804">
        <ele>1521.6</ele>
        <time>2020-02-08T11:37:59Z</time>
      </trkpt>
      <trkpt lat="42.71263" lon="1.64804">
        <ele>1521.6</ele>
        <time>2020-02-08T11:38:00Z</time>
      </trkpt>
      <trkpt lat="42.71263" lon="1.64804">
        <ele>1521.6</ele>
        <time>2020-02-08T11:38:01Z</time>
      </trkpt>
      <trkpt lat="42.71263" lon="1.64801">
        <ele>1523.4</ele>
        <time>2020-02-08T11:38:02Z</time>
      </trkpt>
      <trkpt lat="42.71263" lon="1.64801">
        <ele>1523.4</ele>
        <time>2020-02-08T11:38:03Z</time>
      </trkpt>
      <trkpt lat="42.71263" lon="1.64801">
        <ele>1523.4</ele>
        <time>2020-02-08T11:38:04Z</time>
      </trkpt>
      <trkpt lat="42.71263" lon="1.64801">
        <ele>1523.4</ele>
        <time>2020-02-08T11:38:05Z</time>
      </trkpt>
      <trkpt lat="42.71263" lon="1.64801">
        <ele>1523.4</ele>
        <time>2020-02-08T11:38:06Z</time>
      </trkpt>
      <trkpt lat="42.71263" lon="1.64801">
        <ele>1523.4</ele>
        <time>2020-02-08T11:38:07Z</time>
      </trkpt>
      <trkpt lat="42.71263" lon="1.64801">
        <ele>1523.4</ele>
        <time>2020-02-08T11:38:08Z</time>
      </trkpt>
      <trkpt lat="42.71263" lon="1.64801">
        <ele>1523.4</ele>
        <time>2020-02-08T11:38:09Z</time>
      </trkpt>
      <trkpt lat="42.71263" lon="1.648">
        <ele>1523.4</ele>
        <time>2020-02-08T11:38:10Z</time>
      </trkpt>
      <trkpt lat="42.71263" lon="1.648">
        <ele>1523.4</ele>
        <time>2020-02-08T11:38:11Z</time>
      </trkpt>
      <trkpt lat="42.71263" lon="1.64799">
        <ele>1525.1</ele>
        <time>2020-02-08T11:38:12Z</time>
      </trkpt>
      <trkpt lat="42.71263" lon="1.64798">
        <ele>1525.1</ele>
        <time>2020-02-08T11:38:13Z</time>
      </trkpt>
      <trkpt lat="42.71263" lon="1.64798">
        <ele>1525.1</ele>
        <time>2020-02-08T11:38:14Z</time>
      </trkpt>
      <trkpt lat="42.71263" lon="1.64797">
        <ele>1525.1</ele>
        <time>2020-02-08T11:38:15Z</time>
      </trkpt>
      <trkpt lat="42.71263" lon="1.64797">
        <ele>1525.1</ele>
        <time>2020-02-08T11:38:16Z</time>
      </trkpt>
      <trkpt lat="42.71263" lon="1.64796">
        <ele>1525.1</ele>
        <time>2020-02-08T11:38:17Z</time>
      </trkpt>
      <trkpt lat="42.71263" lon="1.64796">
        <ele>1525.1</ele>
        <time>2020-02-08T11:38:18Z</time>
      </trkpt>
      <trkpt lat="42.71263" lon="1.64795">
        <ele>1525.1</ele>
        <time>2020-02-08T11:38:19Z</time>
      </trkpt>
      <trkpt lat="42.71263" lon="1.64795">
        <ele>1527.9</ele>
        <time>2020-02-08T11:38:20Z</time>
      </trkpt>
      <trkpt lat="42.71263" lon="1.64794">
        <ele>1527.9</ele>
        <time>2020-02-08T11:38:21Z</time>
      </trkpt>
      <trkpt lat="42.71263" lon="1.64794">
        <ele>1527.9</ele>
        <time>2020-02-08T11:38:22Z</time>
      </trkpt>
      <trkpt lat="42.71263" lon="1.64793">
        <ele>1527.9</ele>
        <time>2020-02-08T11:38:23Z</time>
      </trkpt>
      <trkpt lat="42.71263" lon="1.64792">
        <ele>1527.9</ele>
        <time>2020-02-08T11:38:24Z</time>
      </trkpt>
      <trkpt lat="42.71263" lon="1.64792">
        <ele>1527.9</ele>
        <time>2020-02-08T11:38:25Z</time>
      </trkpt>
      <trkpt lat="42.71263" lon="1.64791">
        <ele>1527.9</ele>
        <time>2020-02-08T11:38:26Z</time>
      </trkpt>
      <trkpt lat="42.71263" lon="1.64791">
        <ele>1527.9</ele>
        <time>2020-02-08T11:38:27Z</time>
      </trkpt>
      <trkpt lat="42.71263" lon="1.6479">
        <ele>1529.8</ele>
        <time>2020-02-08T11:38:28Z</time>
      </trkpt>
      <trkpt lat="42.71263" lon="1.6479">
        <ele>1529.8</ele>
        <time>2020-02-08T11:38:29Z</time>
      </trkpt>
      <trkpt lat="42.71263" lon="1.6479">
        <ele>1529.8</ele>
        <time>2020-02-08T11:38:30Z</time>
      </trkpt>
      <trkpt lat="42.71263" lon="1.6479">
        <ele>1529.8</ele>
        <time>2020-02-08T11:38:31Z</time>
      </trkpt>
      <trkpt lat="42.71263" lon="1.6479">
        <ele>1529.8</ele>
        <time>2020-02-08T11:38:32Z</time>
      </trkpt>
      <trkpt lat="42.71263" lon="1.6479">
        <ele>1529.8</ele>
        <time>2020-02-08T11:38:33Z</time>
      </trkpt>
      <trkpt lat="42.71263" lon="1.6479">
        <ele>1529.8</ele>
        <time>2020-02-08T11:38:34Z</time>
      </trkpt>
      <trkpt lat="42.71263" lon="1.6479">
        <ele>1529.8</ele>
        <time>2020-02-08T11:38:35Z</time>
      </trkpt>
      <trkpt lat="42.71263" lon="1.6479">
        <ele>1529.8</ele>
        <time>2020-02-08T11:38:36Z</time>
      </trkpt>
      <trkpt lat="42.71263" lon="1.6479">
        <ele>1529.8</ele>
        <time>2020-02-08T11:38:37Z</time>
      </trkpt>
      <trkpt lat="42.71263" lon="1.6479">
        <ele>1529.8</ele>
        <time>2020-02-08T11:38:38Z</time>
      </trkpt>
      <trkpt lat="42.71263" lon="1.6479">
        <ele>1529.8</ele>
        <time>2020-02-08T11:38:39Z</time>
      </trkpt>
      <trkpt lat="42.71263" lon="1.64789">
        <ele>1529.8</ele>
        <time>2020-02-08T11:38:40Z</time>
      </trkpt>
      <trkpt lat="42.71263" lon="1.64788">
        <ele>1529.8</ele>
        <time>2020-02-08T11:38:41Z</time>
      </trkpt>
      <trkpt lat="42.71264" lon="1.64787">
        <ele>1529.8</ele>
        <time>2020-02-08T11:38:42Z</time>
      </trkpt>
      <trkpt lat="42.71264" lon="1.64786">
        <ele>1531.7</ele>
        <time>2020-02-08T11:38:43Z</time>
      </trkpt>
      <trkpt lat="42.71264" lon="1.64785">
        <ele>1531.7</ele>
        <time>2020-02-08T11:38:44Z</time>
      </trkpt>
      <trkpt lat="42.71264" lon="1.64784">
        <ele>1531.7</ele>
        <time>2020-02-08T11:38:45Z</time>
      </trkpt>
      <trkpt lat="42.71264" lon="1.64783">
        <ele>1531.7</ele>
        <time>2020-02-08T11:38:46Z</time>
      </trkpt>
      <trkpt lat="42.71264" lon="1.64782">
        <ele>1533.8</ele>
        <time>2020-02-08T11:38:47Z</time>
      </trkpt>
      <trkpt lat="42.71264" lon="1.64781">
        <ele>1533.8</ele>
        <time>2020-02-08T11:38:48Z</time>
      </trkpt>
      <trkpt lat="42.71265" lon="1.6478">
        <ele>1533.8</ele>
        <time>2020-02-08T11:38:49Z</time>
      </trkpt>
      <trkpt lat="42.71265" lon="1.64779">
        <ele>1533.8</ele>
        <time>2020-02-08T11:38:50Z</time>
      </trkpt>
      <trkpt lat="42.71266" lon="1.64778">
        <ele>1534.6</ele>
        <time>2020-02-08T11:38:51Z</time>
      </trkpt>
      <trkpt lat="42.71266" lon="1.64777">
        <ele>1536.8</ele>
        <time>2020-02-08T11:38:52Z</time>
      </trkpt>
      <trkpt lat="42.71267" lon="1.64776">
        <ele>1536.8</ele>
        <time>2020-02-08T11:38:53Z</time>
      </trkpt>
      <trkpt lat="42.71267" lon="1.64775">
        <ele>1536.8</ele>
        <time>2020-02-08T11:38:54Z</time>
      </trkpt>
      <trkpt lat="42.71267" lon="1.64774">
        <ele>1536.8</ele>
        <time>2020-02-08T11:38:55Z</time>
      </trkpt>
      <trkpt lat="42.71268" lon="1.64773">
        <ele>1538.9</ele>
        <time>2020-02-08T11:38:56Z</time>
      </trkpt>
      <trkpt lat="42.71268" lon="1.64772">
        <ele>1539.7</ele>
        <time>2020-02-08T11:38:57Z</time>
      </trkpt>
      <trkpt lat="42.71269" lon="1.64771">
        <ele>1539.7</ele>
        <time>2020-02-08T11:38:58Z</time>
      </trkpt>
      <trkpt lat="42.71269" lon="1.6477">
        <ele>1539.7</ele>
        <time>2020-02-08T11:38:59Z</time>
      </trkpt>
      <trkpt lat="42.7127" lon="1.64768">
        <ele>1541.8</ele>
        <time>2020-02-08T11:39:00Z</time>
      </trkpt>
      <trkpt lat="42.7127" lon="1.64766">
        <ele>1541.8</ele>
        <time>2020-02-08T11:39:01Z</time>
      </trkpt>
      <trkpt lat="42.7127" lon="1.64764">
        <ele>1543.7</ele>
        <time>2020-02-08T11:39:02Z</time>
      </trkpt>
      <trkpt lat="42.7127" lon="1.64762">
        <ele>1543.7</ele>
        <time>2020-02-08T11:39:03Z</time>
      </trkpt>
      <trkpt lat="42.7127" lon="1.64761">
        <ele>1543.7</ele>
        <time>2020-02-08T11:39:04Z</time>
      </trkpt>
      <trkpt lat="42.7127" lon="1.64759">
        <ele>1545.7</ele>
        <time>2020-02-08T11:39:05Z</time>
      </trkpt>
      <trkpt lat="42.7127" lon="1.64757">
        <ele>1545.7</ele>
        <time>2020-02-08T11:39:06Z</time>
      </trkpt>
      <trkpt lat="42.71271" lon="1.64755">
        <ele>1547.6</ele>
        <time>2020-02-08T11:39:07Z</time>
      </trkpt>
      <trkpt lat="42.71271" lon="1.64754">
        <ele>1547.6</ele>
        <time>2020-02-08T11:39:08Z</time>
      </trkpt>
      <trkpt lat="42.71271" lon="1.64752">
        <ele>1549.6</ele>
        <time>2020-02-08T11:39:09Z</time>
      </trkpt>
      <trkpt lat="42.71271" lon="1.64753">
        <ele>1547.6</ele>
        <time>2020-02-08T11:39:10Z</time>
      </trkpt>
      <trkpt lat="42.71272" lon="1.64754">
        <ele>1548.5</ele>
        <time>2020-02-08T11:39:11Z</time>
      </trkpt>
      <trkpt lat="42.71272" lon="1.64756">
        <ele>1548.5</ele>
        <time>2020-02-08T11:39:12Z</time>
      </trkpt>
      <trkpt lat="42.71272" lon="1.64757">
        <ele>1546.6</ele>
        <time>2020-02-08T11:39:13Z</time>
      </trkpt>
      <trkpt lat="42.71273" lon="1.64758">
        <ele>1546.6</ele>
        <time>2020-02-08T11:39:14Z</time>
      </trkpt>
      <trkpt lat="42.71273" lon="1.6476">
        <ele>1546.6</ele>
        <time>2020-02-08T11:39:15Z</time>
      </trkpt>
      <trkpt lat="42.71273" lon="1.64761">
        <ele>1544.7</ele>
        <time>2020-02-08T11:39:16Z</time>
      </trkpt>
      <trkpt lat="42.71274" lon="1.64762">
        <ele>1544.7</ele>
        <time>2020-02-08T11:39:17Z</time>
      </trkpt>
      <trkpt lat="42.71274" lon="1.64764">
        <ele>1544.7</ele>
        <time>2020-02-08T11:39:18Z</time>
      </trkpt>
      <trkpt lat="42.71275" lon="1.64765">
        <ele>1542.7</ele>
        <time>2020-02-08T11:39:19Z</time>
      </trkpt>
      <trkpt lat="42.71275" lon="1.64766">
        <ele>1542.7</ele>
        <time>2020-02-08T11:39:20Z</time>
      </trkpt>
      <trkpt lat="42.71275" lon="1.64768">
        <ele>1543.6</ele>
        <time>2020-02-08T11:39:21Z</time>
      </trkpt>
      <trkpt lat="42.71275" lon="1.64769">
        <ele>1541.6</ele>
        <time>2020-02-08T11:39:22Z</time>
      </trkpt>
      <trkpt lat="42.71275" lon="1.64771">
        <ele>1541.6</ele>
        <time>2020-02-08T11:39:23Z</time>
      </trkpt>
      <trkpt lat="42.71275" lon="1.64772">
        <ele>1541.6</ele>
        <time>2020-02-08T11:39:24Z</time>
      </trkpt>
      <trkpt lat="42.71275" lon="1.64774">
        <ele>1539.5</ele>
        <time>2020-02-08T11:39:25Z</time>
      </trkpt>
      <trkpt lat="42.71275" lon="1.64776">
        <ele>1539.5</ele>
        <time>2020-02-08T11:39:26Z</time>
      </trkpt>
      <trkpt lat="42.71275" lon="1.64777">
        <ele>1539.5</ele>
        <time>2020-02-08T11:39:27Z</time>
      </trkpt>
      <trkpt lat="42.71275" lon="1.64779">
        <ele>1537.4</ele>
        <time>2020-02-08T11:39:28Z</time>
      </trkpt>
      <trkpt lat="42.71275" lon="1.6478">
        <ele>1537.4</ele>
        <time>2020-02-08T11:39:29Z</time>
      </trkpt>
      <trkpt lat="42.71275" lon="1.64781">
        <ele>1537.4</ele>
        <time>2020-02-08T11:39:30Z</time>
      </trkpt>
      <trkpt lat="42.71275" lon="1.64781">
        <ele>1536.4</ele>
        <time>2020-02-08T11:39:31Z</time>
      </trkpt>
      <trkpt lat="42.71274" lon="1.64782">
        <ele>1534.3</ele>
        <time>2020-02-08T11:39:32Z</time>
      </trkpt>
      <trkpt lat="42.71274" lon="1.64783">
        <ele>1534.3</ele>
        <time>2020-02-08T11:39:33Z</time>
      </trkpt>
      <trkpt lat="42.71274" lon="1.64784">
        <ele>1534.3</ele>
        <time>2020-02-08T11:39:34Z</time>
      </trkpt>
      <trkpt lat="42.71274" lon="1.64784">
        <ele>1534.3</ele>
        <time>2020-02-08T11:39:35Z</time>
      </trkpt>
      <trkpt lat="42.71274" lon="1.64785">
        <ele>1534.3</ele>
        <time>2020-02-08T11:39:36Z</time>
      </trkpt>
      <trkpt lat="42.71274" lon="1.64786">
        <ele>1534.3</ele>
        <time>2020-02-08T11:39:37Z</time>
      </trkpt>
      <trkpt lat="42.71274" lon="1.64786">
        <ele>1532.3</ele>
        <time>2020-02-08T11:39:38Z</time>
      </trkpt>
      <trkpt lat="42.71274" lon="1.64787">
        <ele>1532.3</ele>
        <time>2020-02-08T11:39:39Z</time>
      </trkpt>
      <trkpt lat="42.71274" lon="1.64787">
        <ele>1532.3</ele>
        <time>2020-02-08T11:39:40Z</time>
      </trkpt>
      <trkpt lat="42.71274" lon="1.6479">
        <ele>1532.3</ele>
        <time>2020-02-08T11:39:41Z</time>
      </trkpt>
      <trkpt lat="42.71274" lon="1.6479">
        <ele>1532.3</ele>
        <time>2020-02-08T11:39:42Z</time>
      </trkpt>
      <trkpt lat="42.71274" lon="1.6479">
        <ele>1532.3</ele>
        <time>2020-02-08T11:39:43Z</time>
      </trkpt>
      <trkpt lat="42.71274" lon="1.6479">
        <ele>1532.3</ele>
        <time>2020-02-08T11:39:44Z</time>
      </trkpt>
      <trkpt lat="42.71274" lon="1.6479">
        <ele>1532.3</ele>
        <time>2020-02-08T11:39:45Z</time>
      </trkpt>
      <trkpt lat="42.71274" lon="1.6479">
        <ele>1532.3</ele>
        <time>2020-02-08T11:39:46Z</time>
      </trkpt>
      <trkpt lat="42.71272" lon="1.64791">
        <ele>1530.4</ele>
        <time>2020-02-08T11:39:47Z</time>
      </trkpt>
      <trkpt lat="42.71272" lon="1.64791">
        <ele>1530.4</ele>
        <time>2020-02-08T11:39:48Z</time>
      </trkpt>
      <trkpt lat="42.71271" lon="1.64794">
        <ele>1529.6</ele>
        <time>2020-02-08T11:39:49Z</time>
      </trkpt>
      <trkpt lat="42.71271" lon="1.64794">
        <ele>1529.6</ele>
        <time>2020-02-08T11:39:50Z</time>
      </trkpt>
      <trkpt lat="42.71271" lon="1.64794">
        <ele>1529.6</ele>
        <time>2020-02-08T11:39:51Z</time>
      </trkpt>
      <trkpt lat="42.71271" lon="1.64794">
        <ele>1529.6</ele>
        <time>2020-02-08T11:39:52Z</time>
      </trkpt>
      <trkpt lat="42.71271" lon="1.64795">
        <ele>1529.6</ele>
        <time>2020-02-08T11:39:53Z</time>
      </trkpt>
      <trkpt lat="42.7127" lon="1.64795">
        <ele>1529.6</ele>
        <time>2020-02-08T11:39:54Z</time>
      </trkpt>
      <trkpt lat="42.7127" lon="1.64795">
        <ele>1526.7</ele>
        <time>2020-02-08T11:39:55Z</time>
      </trkpt>
      <trkpt lat="42.7127" lon="1.64795">
        <ele>1526.7</ele>
        <time>2020-02-08T11:39:56Z</time>
      </trkpt>
      <trkpt lat="42.7127" lon="1.64796">
        <ele>1526.7</ele>
        <time>2020-02-08T11:39:57Z</time>
      </trkpt>
      <trkpt lat="42.7127" lon="1.64796">
        <ele>1526.7</ele>
        <time>2020-02-08T11:39:58Z</time>
      </trkpt>
      <trkpt lat="42.7127" lon="1.64796">
        <ele>1526.7</ele>
        <time>2020-02-08T11:39:59Z</time>
      </trkpt>
      <trkpt lat="42.71269" lon="1.64797">
        <ele>1526.7</ele>
        <time>2020-02-08T11:40:00Z</time>
      </trkpt>
      <trkpt lat="42.71269" lon="1.64797">
        <ele>1526.7</ele>
        <time>2020-02-08T11:40:01Z</time>
      </trkpt>
      <trkpt lat="42.71268" lon="1.64797">
        <ele>1525.9</ele>
        <time>2020-02-08T11:40:02Z</time>
      </trkpt>
      <trkpt lat="42.71268" lon="1.64798">
        <ele>1525.9</ele>
        <time>2020-02-08T11:40:03Z</time>
      </trkpt>
      <trkpt lat="42.71267" lon="1.64798">
        <ele>1525.9</ele>
        <time>2020-02-08T11:40:04Z</time>
      </trkpt>
      <trkpt lat="42.71267" lon="1.64799">
        <ele>1525.9</ele>
        <time>2020-02-08T11:40:05Z</time>
      </trkpt>
      <trkpt lat="42.71266" lon="1.64799">
        <ele>1525.9</ele>
        <time>2020-02-08T11:40:06Z</time>
      </trkpt>
      <trkpt lat="42.71265" lon="1.648">
        <ele>1524.1</ele>
        <time>2020-02-08T11:40:07Z</time>
      </trkpt>
      <trkpt lat="42.71265" lon="1.648">
        <ele>1523.4</ele>
        <time>2020-02-08T11:40:08Z</time>
      </trkpt>
      <trkpt lat="42.71264" lon="1.64801">
        <ele>1523.4</ele>
        <time>2020-02-08T11:40:09Z</time>
      </trkpt>
      <trkpt lat="42.71264" lon="1.64801">
        <ele>1523.4</ele>
        <time>2020-02-08T11:40:10Z</time>
      </trkpt>
      <trkpt lat="42.71262" lon="1.64801">
        <ele>1523.4</ele>
        <time>2020-02-08T11:40:11Z</time>
      </trkpt>
      <trkpt lat="42.71262" lon="1.64801">
        <ele>1523.4</ele>
        <time>2020-02-08T11:40:12Z</time>
      </trkpt>
      <trkpt lat="42.71262" lon="1.64801">
        <ele>1523.4</ele>
        <time>2020-02-08T11:40:13Z</time>
      </trkpt>
      <trkpt lat="42.71262" lon="1.64801">
        <ele>1523.4</ele>
        <time>2020-02-08T11:40:14Z</time>
      </trkpt>
      <trkpt lat="42.71262" lon="1.64801">
        <ele>1523.4</ele>
        <time>2020-02-08T11:40:15Z</time>
      </trkpt>
      <trkpt lat="42.71262" lon="1.64801">
        <ele>1523.4</ele>
        <time>2020-02-08T11:40:16Z</time>
      </trkpt>
      <trkpt lat="42.71262" lon="1.64801">
        <ele>1523.4</ele>
        <time>2020-02-08T11:40:17Z</time>
      </trkpt>
      <trkpt lat="42.71262" lon="1.64801">
        <ele>1523.4</ele>
        <time>2020-02-08T11:40:18Z</time>
      </trkpt>
      <trkpt lat="42.71263" lon="1.64799">
        <ele>1523.4</ele>
        <time>2020-02-08T11:40:19Z</time>
      </trkpt>
      <trkpt lat="42.71264" lon="1.648">
        <ele>1523.4</ele>
        <time>2020-02-08T11:40:20Z</time>
      </trkpt>
      <trkpt lat="42.71264" lon="1.648">
        <ele>1523.4</ele>
        <time>2020-02-08T11:40:21Z</time>
      </trkpt>
      <trkpt lat="42.71265" lon="1.648">
        <ele>1523.4</ele>
        <time>2020-02-08T11:40:22Z</time>
      </trkpt>
      <trkpt lat="42.71265" lon="1.64801">
        <ele>1524.1</ele>
        <time>2020-02-08T11:40:23Z</time>
      </trkpt>
      <trkpt lat="42.71266" lon="1.64801">
        <ele>1524.1</ele>
        <time>2020-02-08T11:40:24Z</time>
      </trkpt>
      <trkpt lat="42.71267" lon="1.64801">
        <ele>1524.1</ele>
        <time>2020-02-08T11:40:25Z</time>
      </trkpt>
      <trkpt lat="42.71267" lon="1.64801">
        <ele>1524.1</ele>
        <time>2020-02-08T11:40:26Z</time>
      </trkpt>
      <trkpt lat="42.71268" lon="1.64802">
        <ele>1524.1</ele>
        <time>2020-02-08T11:40:27Z</time>
      </trkpt>
      <trkpt lat="42.71268" lon="1.64802">
        <ele>1525</ele>
        <time>2020-02-08T11:40:28Z</time>
      </trkpt>
      <trkpt lat="42.71269" lon="1.64802">
        <ele>1525</ele>
        <time>2020-02-08T11:40:29Z</time>
      </trkpt>
      <trkpt lat="42.71269" lon="1.64802">
        <ele>1525</ele>
        <time>2020-02-08T11:40:30Z</time>
      </trkpt>
      <trkpt lat="42.71269" lon="1.64802">
        <ele>1525</ele>
        <time>2020-02-08T11:40:31Z</time>
      </trkpt>
      <trkpt lat="42.71269" lon="1.64802">
        <ele>1525</ele>
        <time>2020-02-08T11:40:32Z</time>
      </trkpt>
      <trkpt lat="42.71269" lon="1.64802">
        <ele>1525</ele>
        <time>2020-02-08T11:40:33Z</time>
      </trkpt>
      <trkpt lat="42.71269" lon="1.64801">
        <ele>1525</ele>
        <time>2020-02-08T11:40:34Z</time>
      </trkpt>
      <trkpt lat="42.71269" lon="1.64801">
        <ele>1525</ele>
        <time>2020-02-08T11:40:35Z</time>
      </trkpt>
      <trkpt lat="42.71269" lon="1.64801">
        <ele>1525</ele>
        <time>2020-02-08T11:40:36Z</time>
      </trkpt>
      <trkpt lat="42.71269" lon="1.64801">
        <ele>1525</ele>
        <time>2020-02-08T11:40:37Z</time>
      </trkpt>
      <trkpt lat="42.71269" lon="1.64801">
        <ele>1525</ele>
        <time>2020-02-08T11:40:38Z</time>
      </trkpt>
      <trkpt lat="42.71269" lon="1.648">
        <ele>1525</ele>
        <time>2020-02-08T11:40:39Z</time>
      </trkpt>
      <trkpt lat="42.71269" lon="1.648">
        <ele>1525</ele>
        <time>2020-02-08T11:40:40Z</time>
      </trkpt>
      <trkpt lat="42.71269" lon="1.648">
        <ele>1525</ele>
        <time>2020-02-08T11:40:41Z</time>
      </trkpt>
      <trkpt lat="42.71269" lon="1.648">
        <ele>1525</ele>
        <time>2020-02-08T11:40:42Z</time>
      </trkpt>
      <trkpt lat="42.71269" lon="1.648">
        <ele>1525</ele>
        <time>2020-02-08T11:40:43Z</time>
      </trkpt>
      <trkpt lat="42.71269" lon="1.648">
        <ele>1525</ele>
        <time>2020-02-08T11:40:44Z</time>
      </trkpt>
      <trkpt lat="42.71269" lon="1.64799">
        <ele>1525</ele>
        <time>2020-02-08T11:40:45Z</time>
      </trkpt>
      <trkpt lat="42.71269" lon="1.64799">
        <ele>1526.7</ele>
        <time>2020-02-08T11:40:46Z</time>
      </trkpt>
      <trkpt lat="42.71269" lon="1.64799">
        <ele>1526.7</ele>
        <time>2020-02-08T11:40:47Z</time>
      </trkpt>
      <trkpt lat="42.71269" lon="1.64799">
        <ele>1526.7</ele>
        <time>2020-02-08T11:40:48Z</time>
      </trkpt>
      <trkpt lat="42.71269" lon="1.64799">
        <ele>1526.7</ele>
        <time>2020-02-08T11:40:49Z</time>
      </trkpt>
      <trkpt lat="42.71268" lon="1.64799">
        <ele>1526.7</ele>
        <time>2020-02-08T11:40:50Z</time>
      </trkpt>
      <trkpt lat="42.71268" lon="1.64798">
        <ele>1526.7</ele>
        <time>2020-02-08T11:40:51Z</time>
      </trkpt>
      <trkpt lat="42.71268" lon="1.64798">
        <ele>1526.7</ele>
        <time>2020-02-08T11:40:52Z</time>
      </trkpt>
      <trkpt lat="42.71268" lon="1.64798">
        <ele>1526.7</ele>
        <time>2020-02-08T11:40:53Z</time>
      </trkpt>
      <trkpt lat="42.71268" lon="1.64798">
        <ele>1526.7</ele>
        <time>2020-02-08T11:40:54Z</time>
      </trkpt>
      <trkpt lat="42.71268" lon="1.64798">
        <ele>1526.7</ele>
        <time>2020-02-08T11:40:55Z</time>
      </trkpt>
      <trkpt lat="42.71268" lon="1.64797">
        <ele>1526.7</ele>
        <time>2020-02-08T11:40:56Z</time>
      </trkpt>
      <trkpt lat="42.71268" lon="1.64797">
        <ele>1526.7</ele>
        <time>2020-02-08T11:40:57Z</time>
      </trkpt>
      <trkpt lat="42.71268" lon="1.64797">
        <ele>1526.7</ele>
        <time>2020-02-08T11:40:58Z</time>
      </trkpt>
      <trkpt lat="42.71268" lon="1.64797">
        <ele>1525.9</ele>
        <time>2020-02-08T11:40:59Z</time>
      </trkpt>
      <trkpt lat="42.71268" lon="1.64797">
        <ele>1525.9</ele>
        <time>2020-02-08T11:41:00Z</time>
      </trkpt>
      <trkpt lat="42.71268" lon="1.64797">
        <ele>1525.9</ele>
        <time>2020-02-08T11:41:01Z</time>
      </trkpt>
      <trkpt lat="42.71268" lon="1.64796">
        <ele>1525.9</ele>
        <time>2020-02-08T11:41:02Z</time>
      </trkpt>
      <trkpt lat="42.71268" lon="1.64796">
        <ele>1525.9</ele>
        <time>2020-02-08T11:41:03Z</time>
      </trkpt>
      <trkpt lat="42.71268" lon="1.64796">
        <ele>1525.9</ele>
        <time>2020-02-08T11:41:04Z</time>
      </trkpt>
      <trkpt lat="42.71268" lon="1.64796">
        <ele>1525.9</ele>
        <time>2020-02-08T11:41:05Z</time>
      </trkpt>
      <trkpt lat="42.71268" lon="1.64796">
        <ele>1525.9</ele>
        <time>2020-02-08T11:41:06Z</time>
      </trkpt>
      <trkpt lat="42.71268" lon="1.64795">
        <ele>1525.9</ele>
        <time>2020-02-08T11:41:07Z</time>
      </trkpt>
      <trkpt lat="42.71268" lon="1.64795">
        <ele>1525.9</ele>
        <time>2020-02-08T11:41:08Z</time>
      </trkpt>
      <trkpt lat="42.71268" lon="1.64795">
        <ele>1525.9</ele>
        <time>2020-02-08T11:41:09Z</time>
      </trkpt>
      <trkpt lat="42.71268" lon="1.64795">
        <ele>1528.7</ele>
        <time>2020-02-08T11:41:10Z</time>
      </trkpt>
      <trkpt lat="42.71268" lon="1.64795">
        <ele>1528.7</ele>
        <time>2020-02-08T11:41:11Z</time>
      </trkpt>
      <trkpt lat="42.71268" lon="1.64795">
        <ele>1528.7</ele>
        <time>2020-02-08T11:41:12Z</time>
      </trkpt>
      <trkpt lat="42.71268" lon="1.64794">
        <ele>1528.7</ele>
        <time>2020-02-08T11:41:13Z</time>
      </trkpt>
      <trkpt lat="42.71268" lon="1.64794">
        <ele>1528.7</ele>
        <time>2020-02-08T11:41:14Z</time>
      </trkpt>
      <trkpt lat="42.71268" lon="1.64794">
        <ele>1528.7</ele>
        <time>2020-02-08T11:41:15Z</time>
      </trkpt>
      <trkpt lat="42.71268" lon="1.64794">
        <ele>1528.7</ele>
        <time>2020-02-08T11:41:16Z</time>
      </trkpt>
      <trkpt lat="42.71268" lon="1.64794">
        <ele>1528.7</ele>
        <time>2020-02-08T11:41:17Z</time>
      </trkpt>
      <trkpt lat="42.71268" lon="1.64794">
        <ele>1528.7</ele>
        <time>2020-02-08T11:41:18Z</time>
      </trkpt>
      <trkpt lat="42.71268" lon="1.64793">
        <ele>1528.7</ele>
        <time>2020-02-08T11:41:19Z</time>
      </trkpt>
      <trkpt lat="42.71268" lon="1.64793">
        <ele>1528.7</ele>
        <time>2020-02-08T11:41:20Z</time>
      </trkpt>
      <trkpt lat="42.71268" lon="1.64793">
        <ele>1528.7</ele>
        <time>2020-02-08T11:41:21Z</time>
      </trkpt>
      <trkpt lat="42.71268" lon="1.64793">
        <ele>1528.7</ele>
        <time>2020-02-08T11:41:22Z</time>
      </trkpt>
      <trkpt lat="42.71268" lon="1.64793">
        <ele>1528.7</ele>
        <time>2020-02-08T11:41:23Z</time>
      </trkpt>
      <trkpt lat="42.71268" lon="1.64793">
        <ele>1528.7</ele>
        <time>2020-02-08T11:41:24Z</time>
      </trkpt>
      <trkpt lat="42.71268" lon="1.64793">
        <ele>1528.7</ele>
        <time>2020-02-08T11:41:25Z</time>
      </trkpt>
      <trkpt lat="42.71268" lon="1.64793">
        <ele>1528.7</ele>
        <time>2020-02-08T11:41:26Z</time>
      </trkpt>
      <trkpt lat="42.71268" lon="1.64793">
        <ele>1528.7</ele>
        <time>2020-02-08T11:41:27Z</time>
      </trkpt>
      <trkpt lat="42.71268" lon="1.64793">
        <ele>1528.7</ele>
        <time>2020-02-08T11:41:28Z</time>
      </trkpt>
      <trkpt lat="42.71268" lon="1.64793">
        <ele>1528.7</ele>
        <time>2020-02-08T11:41:29Z</time>
      </trkpt>
      <trkpt lat="42.71268" lon="1.64793">
        <ele>1528.7</ele>
        <time>2020-02-08T11:41:30Z</time>
      </trkpt>
      <trkpt lat="42.71268" lon="1.64793">
        <ele>1528.7</ele>
        <time>2020-02-08T11:41:31Z</time>
      </trkpt>
      <trkpt lat="42.71268" lon="1.64793">
        <ele>1528.7</ele>
        <time>2020-02-08T11:41:32Z</time>
      </trkpt>
      <trkpt lat="42.71268" lon="1.64793">
        <ele>1528.7</ele>
        <time>2020-02-08T11:41:33Z</time>
      </trkpt>
      <trkpt lat="42.71268" lon="1.64793">
        <ele>1528.7</ele>
        <time>2020-02-08T11:41:34Z</time>
      </trkpt>
      <trkpt lat="42.71268" lon="1.64793">
        <ele>1528.7</ele>
        <time>2020-02-08T11:41:35Z</time>
      </trkpt>
      <trkpt lat="42.71268" lon="1.64793">
        <ele>1528.7</ele>
        <time>2020-02-08T11:41:36Z</time>
      </trkpt>
      <trkpt lat="42.71268" lon="1.64793">
        <ele>1528.7</ele>
        <time>2020-02-08T11:41:37Z</time>
      </trkpt>
      <trkpt lat="42.71268" lon="1.64793">
        <ele>1528.7</ele>
        <time>2020-02-08T11:41:38Z</time>
      </trkpt>
      <trkpt lat="42.71268" lon="1.64793">
        <ele>1528.7</ele>
        <time>2020-02-08T11:41:39Z</time>
      </trkpt>
      <trkpt lat="42.71269" lon="1.64796">
        <ele>1526.7</ele>
        <time>2020-02-08T11:41:40Z</time>
      </trkpt>
      <trkpt lat="42.71269" lon="1.64796">
        <ele>1526.7</ele>
        <time>2020-02-08T11:41:41Z</time>
      </trkpt>
      <trkpt lat="42.71269" lon="1.64796">
        <ele>1526.7</ele>
        <time>2020-02-08T11:41:42Z</time>
      </trkpt>
      <trkpt lat="42.71269" lon="1.64796">
        <ele>1526.7</ele>
        <time>2020-02-08T11:41:43Z</time>
      </trkpt>
      <trkpt lat="42.71269" lon="1.64796">
        <ele>1526.7</ele>
        <time>2020-02-08T11:41:44Z</time>
      </trkpt>
      <trkpt lat="42.71269" lon="1.64796">
        <ele>1526.7</ele>
        <time>2020-02-08T11:41:45Z</time>
      </trkpt>
      <trkpt lat="42.71269" lon="1.64796">
        <ele>1526.7</ele>
        <time>2020-02-08T11:41:46Z</time>
      </trkpt>
      <trkpt lat="42.71269" lon="1.64796">
        <ele>1526.7</ele>
        <time>2020-02-08T11:41:47Z</time>
      </trkpt>
      <trkpt lat="42.71269" lon="1.64796">
        <ele>1526.7</ele>
        <time>2020-02-08T11:41:48Z</time>
      </trkpt>
      <trkpt lat="42.71269" lon="1.64796">
        <ele>1526.7</ele>
        <time>2020-02-08T11:41:49Z</time>
      </trkpt>
      <trkpt lat="42.71269" lon="1.64796">
        <ele>1526.7</ele>
        <time>2020-02-08T11:41:50Z</time>
      </trkpt>
      <trkpt lat="42.71269" lon="1.64796">
        <ele>1526.7</ele>
        <time>2020-02-08T11:41:51Z</time>
      </trkpt>
      <trkpt lat="42.71269" lon="1.64796">
        <ele>1526.7</ele>
        <time>2020-02-08T11:41:52Z</time>
      </trkpt>
      <trkpt lat="42.71269" lon="1.64796">
        <ele>1526.7</ele>
        <time>2020-02-08T11:41:53Z</time>
      </trkpt>
      <trkpt lat="42.71269" lon="1.64796">
        <ele>1526.7</ele>
        <time>2020-02-08T11:41:54Z</time>
      </trkpt>
      <trkpt lat="42.71269" lon="1.64796">
        <ele>1526.7</ele>
        <time>2020-02-08T11:41:55Z</time>
      </trkpt>
      <trkpt lat="42.71269" lon="1.64796">
        <ele>1526.7</ele>
        <time>2020-02-08T11:41:56Z</time>
      </trkpt>
      <trkpt lat="42.71269" lon="1.64796">
        <ele>1526.7</ele>
        <time>2020-02-08T11:41:57Z</time>
      </trkpt>
      <trkpt lat="42.71269" lon="1.64796">
        <ele>1526.7</ele>
        <time>2020-02-08T11:41:58Z</time>
      </trkpt>
      <trkpt lat="42.71269" lon="1.64796">
        <ele>1526.7</ele>
        <time>2020-02-08T11:41:59Z</time>
      </trkpt>
      <trkpt lat="42.71269" lon="1.64796">
        <ele>1526.7</ele>
        <time>2020-02-08T11:42:00Z</time>
      </trkpt>
      <trkpt lat="42.71269" lon="1.64796">
        <ele>1526.7</ele>
        <time>2020-02-08T11:42:01Z</time>
      </trkpt>
      <trkpt lat="42.71269" lon="1.64796">
        <ele>1526.7</ele>
        <time>2020-02-08T11:42:02Z</time>
      </trkpt>
      <trkpt lat="42.71269" lon="1.64796">
        <ele>1526.7</ele>
        <time>2020-02-08T11:42:03Z</time>
      </trkpt>
      <trkpt lat="42.71269" lon="1.64796">
        <ele>1526.7</ele>
        <time>2020-02-08T11:42:04Z</time>
      </trkpt>
      <trkpt lat="42.71269" lon="1.64796">
        <ele>1526.7</ele>
        <time>2020-02-08T11:42:05Z</time>
      </trkpt>
      <trkpt lat="42.71269" lon="1.64796">
        <ele>1526.7</ele>
        <time>2020-02-08T11:42:06Z</time>
      </trkpt>
      <trkpt lat="42.71269" lon="1.64796">
        <ele>1526.7</ele>
        <time>2020-02-08T11:42:07Z</time>
      </trkpt>
      <trkpt lat="42.71269" lon="1.64796">
        <ele>1526.7</ele>
        <time>2020-02-08T11:42:08Z</time>
      </trkpt>
      <trkpt lat="42.71269" lon="1.64796">
        <ele>1526.7</ele>
        <time>2020-02-08T11:42:09Z</time>
      </trkpt>
      <trkpt lat="42.71269" lon="1.64796">
        <ele>1526.7</ele>
        <time>2020-02-08T11:42:10Z</time>
      </trkpt>
      <trkpt lat="42.71269" lon="1.64796">
        <ele>1526.7</ele>
        <time>2020-02-08T11:42:11Z</time>
      </trkpt>
      <trkpt lat="42.71269" lon="1.64796">
        <ele>1526.7</ele>
        <time>2020-02-08T11:42:12Z</time>
      </trkpt>
      <trkpt lat="42.71269" lon="1.64796">
        <ele>1526.7</ele>
        <time>2020-02-08T11:42:13Z</time>
      </trkpt>
      <trkpt lat="42.71269" lon="1.64796">
        <ele>1526.7</ele>
        <time>2020-02-08T11:42:14Z</time>
      </trkpt>
      <trkpt lat="42.71269" lon="1.64796">
        <ele>1526.7</ele>
        <time>2020-02-08T11:42:15Z</time>
      </trkpt>
      <trkpt lat="42.71269" lon="1.64796">
        <ele>1526.7</ele>
        <time>2020-02-08T11:42:16Z</time>
      </trkpt>
      <trkpt lat="42.71269" lon="1.64796">
        <ele>1526.7</ele>
        <time>2020-02-08T11:42:17Z</time>
      </trkpt>
      <trkpt lat="42.71269" lon="1.64796">
        <ele>1526.7</ele>
        <time>2020-02-08T11:42:18Z</time>
      </trkpt>
      <trkpt lat="42.71269" lon="1.64796">
        <ele>1526.7</ele>
        <time>2020-02-08T11:42:19Z</time>
      </trkpt>
      <trkpt lat="42.71269" lon="1.64796">
        <ele>1526.7</ele>
        <time>2020-02-08T11:42:20Z</time>
      </trkpt>
      <trkpt lat="42.71269" lon="1.64796">
        <ele>1526.7</ele>
        <time>2020-02-08T11:42:21Z</time>
      </trkpt>
      <trkpt lat="42.71269" lon="1.64796">
        <ele>1526.7</ele>
        <time>2020-02-08T11:42:22Z</time>
      </trkpt>
      <trkpt lat="42.71269" lon="1.64796">
        <ele>1526.7</ele>
        <time>2020-02-08T11:42:23Z</time>
      </trkpt>
      <trkpt lat="42.71269" lon="1.64796">
        <ele>1526.7</ele>
        <time>2020-02-08T11:42:24Z</time>
      </trkpt>
      <trkpt lat="42.71269" lon="1.64796">
        <ele>1526.7</ele>
        <time>2020-02-08T11:42:25Z</time>
      </trkpt>
      <trkpt lat="42.71269" lon="1.64796">
        <ele>1526.7</ele>
        <time>2020-02-08T11:42:26Z</time>
      </trkpt>
      <trkpt lat="42.71269" lon="1.64796">
        <ele>1526.7</ele>
        <time>2020-02-08T11:42:27Z</time>
      </trkpt>
      <trkpt lat="42.71269" lon="1.64796">
        <ele>1526.7</ele>
        <time>2020-02-08T11:42:28Z</time>
      </trkpt>
      <trkpt lat="42.71269" lon="1.64796">
        <ele>1526.7</ele>
        <time>2020-02-08T11:42:29Z</time>
      </trkpt>
      <trkpt lat="42.71269" lon="1.64796">
        <ele>1526.7</ele>
        <time>2020-02-08T11:42:30Z</time>
      </trkpt>
      <trkpt lat="42.71269" lon="1.64796">
        <ele>1526.7</ele>
        <time>2020-02-08T11:42:31Z</time>
      </trkpt>
      <trkpt lat="42.71269" lon="1.64796">
        <ele>1526.7</ele>
        <time>2020-02-08T11:42:32Z</time>
      </trkpt>
      <trkpt lat="42.71269" lon="1.64796">
        <ele>1526.7</ele>
        <time>2020-02-08T11:42:33Z</time>
      </trkpt>
      <trkpt lat="42.71269" lon="1.64796">
        <ele>1526.7</ele>
        <time>2020-02-08T11:42:34Z</time>
      </trkpt>
      <trkpt lat="42.71269" lon="1.64796">
        <ele>1526.7</ele>
        <time>2020-02-08T11:42:35Z</time>
      </trkpt>
      <trkpt lat="42.71269" lon="1.64796">
        <ele>1526.7</ele>
        <time>2020-02-08T11:42:36Z</time>
      </trkpt>
      <trkpt lat="42.71269" lon="1.64796">
        <ele>1526.7</ele>
        <time>2020-02-08T11:42:37Z</time>
      </trkpt>
      <trkpt lat="42.71269" lon="1.64796">
        <ele>1526.7</ele>
        <time>2020-02-08T11:42:38Z</time>
      </trkpt>
      <trkpt lat="42.71269" lon="1.64796">
        <ele>1526.7</ele>
        <time>2020-02-08T11:42:39Z</time>
      </trkpt>
      <trkpt lat="42.71269" lon="1.64796">
        <ele>1526.7</ele>
        <time>2020-02-08T11:42:40Z</time>
      </trkpt>
      <trkpt lat="42.71269" lon="1.64796">
        <ele>1526.7</ele>
        <time>2020-02-08T11:42:41Z</time>
      </trkpt>
      <trkpt lat="42.71269" lon="1.64796">
        <ele>1526.7</ele>
        <time>2020-02-08T11:42:42Z</time>
      </trkpt>
      <trkpt lat="42.71269" lon="1.64796">
        <ele>1526.7</ele>
        <time>2020-02-08T11:42:43Z</time>
      </trkpt>
      <trkpt lat="42.71269" lon="1.64796">
        <ele>1526.7</ele>
        <time>2020-02-08T11:42:44Z</time>
      </trkpt>
      <trkpt lat="42.71271" lon="1.64796">
        <ele>1526.7</ele>
        <time>2020-02-08T11:42:45Z</time>
      </trkpt>
      <trkpt lat="42.71271" lon="1.64796">
        <ele>1526.7</ele>
        <time>2020-02-08T11:42:46Z</time>
      </trkpt>
      <trkpt lat="42.71271" lon="1.64796">
        <ele>1526.7</ele>
        <time>2020-02-08T11:42:47Z</time>
      </trkpt>
      <trkpt lat="42.71271" lon="1.64796">
        <ele>1526.7</ele>
        <time>2020-02-08T11:42:48Z</time>
      </trkpt>
      <trkpt lat="42.71271" lon="1.64796">
        <ele>1526.7</ele>
        <time>2020-02-08T11:42:49Z</time>
      </trkpt>
      <trkpt lat="42.71271" lon="1.64796">
        <ele>1526.7</ele>
        <time>2020-02-08T11:42:50Z</time>
      </trkpt>
      <trkpt lat="42.71271" lon="1.64796">
        <ele>1526.7</ele>
        <time>2020-02-08T11:42:51Z</time>
      </trkpt>
      <trkpt lat="42.71271" lon="1.64796">
        <ele>1526.7</ele>
        <time>2020-02-08T11:42:52Z</time>
      </trkpt>
      <trkpt lat="42.71271" lon="1.64796">
        <ele>1526.7</ele>
        <time>2020-02-08T11:42:53Z</time>
      </trkpt>
      <trkpt lat="42.71271" lon="1.64796">
        <ele>1526.7</ele>
        <time>2020-02-08T11:42:54Z</time>
      </trkpt>
      <trkpt lat="42.71271" lon="1.64796">
        <ele>1526.7</ele>
        <time>2020-02-08T11:42:55Z</time>
      </trkpt>
      <trkpt lat="42.71271" lon="1.64796">
        <ele>1526.7</ele>
        <time>2020-02-08T11:42:56Z</time>
      </trkpt>
      <trkpt lat="42.71271" lon="1.64796">
        <ele>1526.7</ele>
        <time>2020-02-08T11:42:57Z</time>
      </trkpt>
      <trkpt lat="42.71271" lon="1.64796">
        <ele>1526.7</ele>
        <time>2020-02-08T11:42:58Z</time>
      </trkpt>
      <trkpt lat="42.71271" lon="1.64796">
        <ele>1526.7</ele>
        <time>2020-02-08T11:42:59Z</time>
      </trkpt>
      <trkpt lat="42.71271" lon="1.64796">
        <ele>1526.7</ele>
        <time>2020-02-08T11:43:00Z</time>
      </trkpt>
      <trkpt lat="42.71271" lon="1.64796">
        <ele>1526.7</ele>
        <time>2020-02-08T11:43:01Z</time>
      </trkpt>
      <trkpt lat="42.71271" lon="1.64796">
        <ele>1526.7</ele>
        <time>2020-02-08T11:43:02Z</time>
      </trkpt>
      <trkpt lat="42.71271" lon="1.64796">
        <ele>1526.7</ele>
        <time>2020-02-08T11:43:03Z</time>
      </trkpt>
      <trkpt lat="42.71271" lon="1.64796">
        <ele>1526.7</ele>
        <time>2020-02-08T11:43:04Z</time>
      </trkpt>
      <trkpt lat="42.71271" lon="1.64796">
        <ele>1526.7</ele>
        <time>2020-02-08T11:43:05Z</time>
      </trkpt>
      <trkpt lat="42.71271" lon="1.64796">
        <ele>1526.7</ele>
        <time>2020-02-08T11:43:06Z</time>
      </trkpt>
      <trkpt lat="42.71271" lon="1.64796">
        <ele>1526.7</ele>
        <time>2020-02-08T11:43:07Z</time>
      </trkpt>
      <trkpt lat="42.71271" lon="1.64796">
        <ele>1526.8</ele>
        <time>2020-02-08T11:43:08Z</time>
      </trkpt>
      <trkpt lat="42.7127" lon="1.64795">
        <ele>1526.8</ele>
        <time>2020-02-08T11:43:09Z</time>
      </trkpt>
      <trkpt lat="42.7127" lon="1.64795">
        <ele>1526.9</ele>
        <time>2020-02-08T11:43:10Z</time>
      </trkpt>
      <trkpt lat="42.7127" lon="1.64795">
        <ele>1526.9</ele>
        <time>2020-02-08T11:43:11Z</time>
      </trkpt>
      <trkpt lat="42.7127" lon="1.64795">
        <ele>1527</ele>
        <time>2020-02-08T11:43:12Z</time>
      </trkpt>
      <trkpt lat="42.7127" lon="1.64795">
        <ele>1527</ele>
        <time>2020-02-08T11:43:13Z</time>
      </trkpt>
      <trkpt lat="42.7127" lon="1.64795">
        <ele>1527</ele>
        <time>2020-02-08T11:43:14Z</time>
      </trkpt>
      <trkpt lat="42.7127" lon="1.64795">
        <ele>1527.1</ele>
        <time>2020-02-08T11:43:15Z</time>
      </trkpt>
      <trkpt lat="42.7127" lon="1.64795">
        <ele>1527.1</ele>
        <time>2020-02-08T11:43:16Z</time>
      </trkpt>
      <trkpt lat="42.7127" lon="1.64795">
        <ele>1527.2</ele>
        <time>2020-02-08T11:43:17Z</time>
      </trkpt>
      <trkpt lat="42.7127" lon="1.64795">
        <ele>1527.2</ele>
        <time>2020-02-08T11:43:18Z</time>
      </trkpt>
      <trkpt lat="42.7127" lon="1.64795">
        <ele>1527.3</ele>
        <time>2020-02-08T11:43:19Z</time>
      </trkpt>
      <trkpt lat="42.7127" lon="1.64795">
        <ele>1527.3</ele>
        <time>2020-02-08T11:43:20Z</time>
      </trkpt>
      <trkpt lat="42.7127" lon="1.64795">
        <ele>1527.3</ele>
        <time>2020-02-08T11:43:21Z</time>
      </trkpt>
      <trkpt lat="42.7127" lon="1.64795">
        <ele>1527.4</ele>
        <time>2020-02-08T11:43:22Z</time>
      </trkpt>
      <trkpt lat="42.7127" lon="1.64795">
        <ele>1527.4</ele>
        <time>2020-02-08T11:43:23Z</time>
      </trkpt>
      <trkpt lat="42.7127" lon="1.64795">
        <ele>1527.5</ele>
        <time>2020-02-08T11:43:24Z</time>
      </trkpt>
      <trkpt lat="42.7127" lon="1.64795">
        <ele>1527.5</ele>
        <time>2020-02-08T11:43:25Z</time>
      </trkpt>
      <trkpt lat="42.7127" lon="1.64795">
        <ele>1527.6</ele>
        <time>2020-02-08T11:43:26Z</time>
      </trkpt>
      <trkpt lat="42.7127" lon="1.64795">
        <ele>1527.6</ele>
        <time>2020-02-08T11:43:27Z</time>
      </trkpt>
      <trkpt lat="42.7127" lon="1.64795">
        <ele>1527.6</ele>
        <time>2020-02-08T11:43:28Z</time>
      </trkpt>
      <trkpt lat="42.7127" lon="1.64795">
        <ele>1527.7</ele>
        <time>2020-02-08T11:43:29Z</time>
      </trkpt>
      <trkpt lat="42.7127" lon="1.64795">
        <ele>1527.7</ele>
        <time>2020-02-08T11:43:30Z</time>
      </trkpt>
      <trkpt lat="42.7127" lon="1.64795">
        <ele>1527.8</ele>
        <time>2020-02-08T11:43:31Z</time>
      </trkpt>
      <trkpt lat="42.7127" lon="1.64795">
        <ele>1527.8</ele>
        <time>2020-02-08T11:43:32Z</time>
      </trkpt>
      <trkpt lat="42.7127" lon="1.64795">
        <ele>1527.9</ele>
        <time>2020-02-08T11:43:33Z</time>
      </trkpt>
      <trkpt lat="42.7127" lon="1.64795">
        <ele>1527.9</ele>
        <time>2020-02-08T11:43:34Z</time>
      </trkpt>
      <trkpt lat="42.71268" lon="1.64797">
        <ele>1527.1</ele>
        <time>2020-02-08T11:43:35Z</time>
      </trkpt>
      <trkpt lat="42.71268" lon="1.64797">
        <ele>1527.2</ele>
        <time>2020-02-08T11:43:36Z</time>
      </trkpt>
      <trkpt lat="42.71268" lon="1.64797">
        <ele>1527.2</ele>
        <time>2020-02-08T11:43:37Z</time>
      </trkpt>
      <trkpt lat="42.71268" lon="1.64797">
        <ele>1527.2</ele>
        <time>2020-02-08T11:43:38Z</time>
      </trkpt>
      <trkpt lat="42.71268" lon="1.64797">
        <ele>1527.3</ele>
        <time>2020-02-08T11:43:39Z</time>
      </trkpt>
      <trkpt lat="42.71268" lon="1.64798">
        <ele>1527.3</ele>
        <time>2020-02-08T11:43:40Z</time>
      </trkpt>
      <trkpt lat="42.71268" lon="1.64799">
        <ele>1527.4</ele>
        <time>2020-02-08T11:43:41Z</time>
      </trkpt>
      <trkpt lat="42.71268" lon="1.648">
        <ele>1525.6</ele>
        <time>2020-02-08T11:43:42Z</time>
      </trkpt>
      <trkpt lat="42.71267" lon="1.648">
        <ele>1525.7</ele>
        <time>2020-02-08T11:43:43Z</time>
      </trkpt>
      <trkpt lat="42.71267" lon="1.64801">
        <ele>1525.7</ele>
        <time>2020-02-08T11:43:44Z</time>
      </trkpt>
      <trkpt lat="42.71267" lon="1.64802">
        <ele>1525.8</ele>
        <time>2020-02-08T11:43:45Z</time>
      </trkpt>
      <trkpt lat="42.71267" lon="1.64803">
        <ele>1525.8</ele>
        <time>2020-02-08T11:43:46Z</time>
      </trkpt>
      <trkpt lat="42.71267" lon="1.64803">
        <ele>1525.9</ele>
        <time>2020-02-08T11:43:47Z</time>
      </trkpt>
      <trkpt lat="42.71266" lon="1.64804">
        <ele>1524.2</ele>
        <time>2020-02-08T11:43:48Z</time>
      </trkpt>
      <trkpt lat="42.71266" lon="1.64805">
        <ele>1524.2</ele>
        <time>2020-02-08T11:43:49Z</time>
      </trkpt>
      <trkpt lat="42.71266" lon="1.64804">
        <ele>1524.3</ele>
        <time>2020-02-08T11:43:50Z</time>
      </trkpt>
      <trkpt lat="42.71266" lon="1.64804">
        <ele>1524.3</ele>
        <time>2020-02-08T11:43:51Z</time>
      </trkpt>
      <trkpt lat="42.71265" lon="1.64803">
        <ele>1526.1</ele>
        <time>2020-02-08T11:43:52Z</time>
      </trkpt>
      <trkpt lat="42.71265" lon="1.64803">
        <ele>1526.1</ele>
        <time>2020-02-08T11:43:53Z</time>
      </trkpt>
      <trkpt lat="42.71265" lon="1.64802">
        <ele>1525.4</ele>
        <time>2020-02-08T11:43:54Z</time>
      </trkpt>
      <trkpt lat="42.71265" lon="1.64802">
        <ele>1525.5</ele>
        <time>2020-02-08T11:43:55Z</time>
      </trkpt>
      <trkpt lat="42.71265" lon="1.64801">
        <ele>1525.5</ele>
        <time>2020-02-08T11:43:56Z</time>
      </trkpt>
      <trkpt lat="42.71264" lon="1.64801">
        <ele>1525.5</ele>
        <time>2020-02-08T11:43:57Z</time>
      </trkpt>
      <trkpt lat="42.71264" lon="1.648">
        <ele>1525.6</ele>
        <time>2020-02-08T11:43:58Z</time>
      </trkpt>
      <trkpt lat="42.71264" lon="1.64799">
        <ele>1525.6</ele>
        <time>2020-02-08T11:43:59Z</time>
      </trkpt>
      <trkpt lat="42.71264" lon="1.64799">
        <ele>1527.4</ele>
        <time>2020-02-08T11:44:00Z</time>
      </trkpt>
      <trkpt lat="42.71263" lon="1.64798">
        <ele>1527.4</ele>
        <time>2020-02-08T11:44:01Z</time>
      </trkpt>
      <trkpt lat="42.71263" lon="1.64798">
        <ele>1527.5</ele>
        <time>2020-02-08T11:44:02Z</time>
      </trkpt>
      <trkpt lat="42.71263" lon="1.64797">
        <ele>1527.5</ele>
        <time>2020-02-08T11:44:03Z</time>
      </trkpt>
      <trkpt lat="42.71263" lon="1.64797">
        <ele>1527.5</ele>
        <time>2020-02-08T11:44:04Z</time>
      </trkpt>
      <trkpt lat="42.71262" lon="1.64796">
        <ele>1527.6</ele>
        <time>2020-02-08T11:44:05Z</time>
      </trkpt>
      <trkpt lat="42.71262" lon="1.64796">
        <ele>1527.6</ele>
        <time>2020-02-08T11:44:06Z</time>
      </trkpt>
      <trkpt lat="42.71262" lon="1.64795">
        <ele>1526.9</ele>
        <time>2020-02-08T11:44:07Z</time>
      </trkpt>
      <trkpt lat="42.71262" lon="1.64795">
        <ele>1529.7</ele>
        <time>2020-02-08T11:44:08Z</time>
      </trkpt>
      <trkpt lat="42.71261" lon="1.64794">
        <ele>1529.7</ele>
        <time>2020-02-08T11:44:09Z</time>
      </trkpt>
      <trkpt lat="42.71262" lon="1.64794">
        <ele>1529.8</ele>
        <time>2020-02-08T11:44:10Z</time>
      </trkpt>
      <trkpt lat="42.71262" lon="1.64794">
        <ele>1529.8</ele>
        <time>2020-02-08T11:44:11Z</time>
      </trkpt>
      <trkpt lat="42.71262" lon="1.64794">
        <ele>1530.7</ele>
        <time>2020-02-08T11:44:12Z</time>
      </trkpt>
      <trkpt lat="42.71262" lon="1.64793">
        <ele>1530.7</ele>
        <time>2020-02-08T11:44:13Z</time>
      </trkpt>
      <trkpt lat="42.71262" lon="1.64793">
        <ele>1530.8</ele>
        <time>2020-02-08T11:44:14Z</time>
      </trkpt>
      <trkpt lat="42.71263" lon="1.64793">
        <ele>1530.8</ele>
        <time>2020-02-08T11:44:15Z</time>
      </trkpt>
      <trkpt lat="42.71263" lon="1.64793">
        <ele>1530.8</ele>
        <time>2020-02-08T11:44:16Z</time>
      </trkpt>
      <trkpt lat="42.71263" lon="1.64793">
        <ele>1530.9</ele>
        <time>2020-02-08T11:44:17Z</time>
      </trkpt>
      <trkpt lat="42.71263" lon="1.64793">
        <ele>1530.9</ele>
        <time>2020-02-08T11:44:18Z</time>
      </trkpt>
      <trkpt lat="42.71264" lon="1.64793">
        <ele>1531</ele>
        <time>2020-02-08T11:44:19Z</time>
      </trkpt>
      <trkpt lat="42.71264" lon="1.64792">
        <ele>1531</ele>
        <time>2020-02-08T11:44:20Z</time>
      </trkpt>
      <trkpt lat="42.71264" lon="1.64792">
        <ele>1531</ele>
        <time>2020-02-08T11:44:21Z</time>
      </trkpt>
      <trkpt lat="42.71264" lon="1.64792">
        <ele>1531.1</ele>
        <time>2020-02-08T11:44:22Z</time>
      </trkpt>
      <trkpt lat="42.71264" lon="1.64792">
        <ele>1531.1</ele>
        <time>2020-02-08T11:44:23Z</time>
      </trkpt>
      <trkpt lat="42.71265" lon="1.64792">
        <ele>1531.2</ele>
        <time>2020-02-08T11:44:24Z</time>
      </trkpt>
      <trkpt lat="42.71265" lon="1.64792">
        <ele>1531.2</ele>
        <time>2020-02-08T11:44:25Z</time>
      </trkpt>
      <trkpt lat="42.71265" lon="1.64792">
        <ele>1531.3</ele>
        <time>2020-02-08T11:44:26Z</time>
      </trkpt>
      <trkpt lat="42.71265" lon="1.64791">
        <ele>1531.3</ele>
        <time>2020-02-08T11:44:27Z</time>
      </trkpt>
      <trkpt lat="42.71265" lon="1.64791">
        <ele>1532.1</ele>
        <time>2020-02-08T11:44:28Z</time>
      </trkpt>
      <trkpt lat="42.71266" lon="1.64791">
        <ele>1532.2</ele>
        <time>2020-02-08T11:44:29Z</time>
      </trkpt>
      <trkpt lat="42.71266" lon="1.64791">
        <ele>1532.2</ele>
        <time>2020-02-08T11:44:30Z</time>
      </trkpt>
      <trkpt lat="42.71266" lon="1.64791">
        <ele>1532.3</ele>
        <time>2020-02-08T11:44:31Z</time>
      </trkpt>
      <trkpt lat="42.71266" lon="1.64791">
        <ele>1532.3</ele>
        <time>2020-02-08T11:44:32Z</time>
      </trkpt>
      <trkpt lat="42.71266" lon="1.64791">
        <ele>1534.3</ele>
        <time>2020-02-08T11:44:33Z</time>
      </trkpt>
      <trkpt lat="42.71267" lon="1.6479">
        <ele>1534.3</ele>
        <time>2020-02-08T11:44:34Z</time>
      </trkpt>
      <trkpt lat="42.71267" lon="1.6479">
        <ele>1534.3</ele>
        <time>2020-02-08T11:44:35Z</time>
      </trkpt>
      <trkpt lat="42.71267" lon="1.6479">
        <ele>1534.4</ele>
        <time>2020-02-08T11:44:36Z</time>
      </trkpt>
      <trkpt lat="42.71267" lon="1.6479">
        <ele>1534.4</ele>
        <time>2020-02-08T11:44:37Z</time>
      </trkpt>
      <trkpt lat="42.71267" lon="1.6479">
        <ele>1534.5</ele>
        <time>2020-02-08T11:44:38Z</time>
      </trkpt>
      <trkpt lat="42.71268" lon="1.6479">
        <ele>1534.5</ele>
        <time>2020-02-08T11:44:39Z</time>
      </trkpt>
      <trkpt lat="42.71268" lon="1.6479">
        <ele>1534.5</ele>
        <time>2020-02-08T11:44:40Z</time>
      </trkpt>
      <trkpt lat="42.71268" lon="1.64789">
        <ele>1534.6</ele>
        <time>2020-02-08T11:44:41Z</time>
      </trkpt>
      <trkpt lat="42.71268" lon="1.64789">
        <ele>1534.6</ele>
        <time>2020-02-08T11:44:42Z</time>
      </trkpt>
      <trkpt lat="42.71268" lon="1.64789">
        <ele>1535.6</ele>
        <time>2020-02-08T11:44:43Z</time>
      </trkpt>
      <trkpt lat="42.71269" lon="1.64789">
        <ele>1535.6</ele>
        <time>2020-02-08T11:44:44Z</time>
      </trkpt>
      <trkpt lat="42.71269" lon="1.64789">
        <ele>1535.7</ele>
        <time>2020-02-08T11:44:45Z</time>
      </trkpt>
      <trkpt lat="42.71269" lon="1.64789">
        <ele>1535.7</ele>
        <time>2020-02-08T11:44:46Z</time>
      </trkpt>
      <trkpt lat="42.71269" lon="1.64789">
        <ele>1535.7</ele>
        <time>2020-02-08T11:44:47Z</time>
      </trkpt>
      <trkpt lat="42.71269" lon="1.64788">
        <ele>1535.7</ele>
        <time>2020-02-08T11:44:48Z</time>
      </trkpt>
      <trkpt lat="42.7127" lon="1.64788">
        <ele>1535.7</ele>
        <time>2020-02-08T11:44:49Z</time>
      </trkpt>
      <trkpt lat="42.7127" lon="1.64789">
        <ele>1535.7</ele>
        <time>2020-02-08T11:44:50Z</time>
      </trkpt>
      <trkpt lat="42.7127" lon="1.64789">
        <ele>1535.7</ele>
        <time>2020-02-08T11:44:51Z</time>
      </trkpt>
      <trkpt lat="42.71271" lon="1.64789">
        <ele>1535.7</ele>
        <time>2020-02-08T11:44:52Z</time>
      </trkpt>
      <trkpt lat="42.71271" lon="1.64789">
        <ele>1535.7</ele>
        <time>2020-02-08T11:44:53Z</time>
      </trkpt>
      <trkpt lat="42.71271" lon="1.64789">
        <ele>1535.7</ele>
        <time>2020-02-08T11:44:54Z</time>
      </trkpt>
      <trkpt lat="42.71271" lon="1.64789">
        <ele>1535.7</ele>
        <time>2020-02-08T11:44:55Z</time>
      </trkpt>
      <trkpt lat="42.71272" lon="1.6479">
        <ele>1536.6</ele>
        <time>2020-02-08T11:44:56Z</time>
      </trkpt>
      <trkpt lat="42.71272" lon="1.6479">
        <ele>1536.6</ele>
        <time>2020-02-08T11:44:57Z</time>
      </trkpt>
      <trkpt lat="42.71272" lon="1.6479">
        <ele>1536.6</ele>
        <time>2020-02-08T11:44:58Z</time>
      </trkpt>
      <trkpt lat="42.71273" lon="1.6479">
        <ele>1536.6</ele>
        <time>2020-02-08T11:44:59Z</time>
      </trkpt>
      <trkpt lat="42.71273" lon="1.6479">
        <ele>1536.6</ele>
        <time>2020-02-08T11:45:00Z</time>
      </trkpt>
      <trkpt lat="42.71273" lon="1.64791">
        <ele>1536.6</ele>
        <time>2020-02-08T11:45:01Z</time>
      </trkpt>
      <trkpt lat="42.71274" lon="1.64791">
        <ele>1534.7</ele>
        <time>2020-02-08T11:45:02Z</time>
      </trkpt>
      <trkpt lat="42.71274" lon="1.64791">
        <ele>1534.7</ele>
        <time>2020-02-08T11:45:03Z</time>
      </trkpt>
      <trkpt lat="42.71274" lon="1.64791">
        <ele>1534.7</ele>
        <time>2020-02-08T11:45:04Z</time>
      </trkpt>
      <trkpt lat="42.71275" lon="1.64791">
        <ele>1534.7</ele>
        <time>2020-02-08T11:45:05Z</time>
      </trkpt>
      <trkpt lat="42.71275" lon="1.64792">
        <ele>1535.6</ele>
        <time>2020-02-08T11:45:06Z</time>
      </trkpt>
      <trkpt lat="42.71275" lon="1.64792">
        <ele>1535.6</ele>
        <time>2020-02-08T11:45:07Z</time>
      </trkpt>
      <trkpt lat="42.71275" lon="1.64792">
        <ele>1535.6</ele>
        <time>2020-02-08T11:45:08Z</time>
      </trkpt>
      <trkpt lat="42.71276" lon="1.64792">
        <ele>1535.6</ele>
        <time>2020-02-08T11:45:09Z</time>
      </trkpt>
      <trkpt lat="42.71276" lon="1.64792">
        <ele>1535.6</ele>
        <time>2020-02-08T11:45:10Z</time>
      </trkpt>
      <trkpt lat="42.71276" lon="1.64792">
        <ele>1535.6</ele>
        <time>2020-02-08T11:45:11Z</time>
      </trkpt>
      <trkpt lat="42.71277" lon="1.64793">
        <ele>1535.6</ele>
        <time>2020-02-08T11:45:12Z</time>
      </trkpt>
      <trkpt lat="42.71277" lon="1.64793">
        <ele>1535.6</ele>
        <time>2020-02-08T11:45:13Z</time>
      </trkpt>
      <trkpt lat="42.71277" lon="1.64793">
        <ele>1535.6</ele>
        <time>2020-02-08T11:45:14Z</time>
      </trkpt>
      <trkpt lat="42.71278" lon="1.64793">
        <ele>1535.6</ele>
        <time>2020-02-08T11:45:15Z</time>
      </trkpt>
      <trkpt lat="42.71278" lon="1.64793">
        <ele>1536.6</ele>
        <time>2020-02-08T11:45:16Z</time>
      </trkpt>
      <trkpt lat="42.71278" lon="1.64794">
        <ele>1536.6</ele>
        <time>2020-02-08T11:45:17Z</time>
      </trkpt>
      <trkpt lat="42.71279" lon="1.64794">
        <ele>1536.6</ele>
        <time>2020-02-08T11:45:18Z</time>
      </trkpt>
      <trkpt lat="42.71279" lon="1.64794">
        <ele>1536.6</ele>
        <time>2020-02-08T11:45:19Z</time>
      </trkpt>
      <trkpt lat="42.71279" lon="1.64794">
        <ele>1536.6</ele>
        <time>2020-02-08T11:45:20Z</time>
      </trkpt>
      <trkpt lat="42.71279" lon="1.64794">
        <ele>1536.6</ele>
        <time>2020-02-08T11:45:21Z</time>
      </trkpt>
      <trkpt lat="42.71279" lon="1.64794">
        <ele>1536.6</ele>
        <time>2020-02-08T11:45:22Z</time>
      </trkpt>
      <trkpt lat="42.71279" lon="1.64794">
        <ele>1536.6</ele>
        <time>2020-02-08T11:45:23Z</time>
      </trkpt>
      <trkpt lat="42.71279" lon="1.64794">
        <ele>1536.6</ele>
        <time>2020-02-08T11:45:24Z</time>
      </trkpt>
      <trkpt lat="42.71279" lon="1.64794">
        <ele>1536.6</ele>
        <time>2020-02-08T11:45:25Z</time>
      </trkpt>
      <trkpt lat="42.71279" lon="1.64794">
        <ele>1536.6</ele>
        <time>2020-02-08T11:45:26Z</time>
      </trkpt>
      <trkpt lat="42.71279" lon="1.64794">
        <ele>1536.6</ele>
        <time>2020-02-08T11:45:27Z</time>
      </trkpt>
      <trkpt lat="42.71279" lon="1.64794">
        <ele>1536.6</ele>
        <time>2020-02-08T11:45:28Z</time>
      </trkpt>
      <trkpt lat="42.71279" lon="1.64794">
        <ele>1536.6</ele>
        <time>2020-02-08T11:45:29Z</time>
      </trkpt>
      <trkpt lat="42.71279" lon="1.64794">
        <ele>1536.6</ele>
        <time>2020-02-08T11:45:30Z</time>
      </trkpt>
      <trkpt lat="42.71279" lon="1.64794">
        <ele>1536.6</ele>
        <time>2020-02-08T11:45:31Z</time>
      </trkpt>
      <trkpt lat="42.71279" lon="1.64794">
        <ele>1536.6</ele>
        <time>2020-02-08T11:45:32Z</time>
      </trkpt>
      <trkpt lat="42.71279" lon="1.64794">
        <ele>1536.6</ele>
        <time>2020-02-08T11:45:33Z</time>
      </trkpt>
      <trkpt lat="42.71279" lon="1.64794">
        <ele>1536.6</ele>
        <time>2020-02-08T11:45:34Z</time>
      </trkpt>
      <trkpt lat="42.71279" lon="1.64794">
        <ele>1536.6</ele>
        <time>2020-02-08T11:45:35Z</time>
      </trkpt>
      <trkpt lat="42.71279" lon="1.64794">
        <ele>1536.6</ele>
        <time>2020-02-08T11:45:36Z</time>
      </trkpt>
      <trkpt lat="42.71279" lon="1.64794">
        <ele>1536.6</ele>
        <time>2020-02-08T11:45:37Z</time>
      </trkpt>
      <trkpt lat="42.71279" lon="1.64794">
        <ele>1536.6</ele>
        <time>2020-02-08T11:45:38Z</time>
      </trkpt>
      <trkpt lat="42.71279" lon="1.64794">
        <ele>1536.6</ele>
        <time>2020-02-08T11:45:39Z</time>
      </trkpt>
      <trkpt lat="42.71279" lon="1.64794">
        <ele>1536.6</ele>
        <time>2020-02-08T11:45:40Z</time>
      </trkpt>
      <trkpt lat="42.71279" lon="1.64794">
        <ele>1536.6</ele>
        <time>2020-02-08T11:45:41Z</time>
      </trkpt>
      <trkpt lat="42.71279" lon="1.64794">
        <ele>1536.6</ele>
        <time>2020-02-08T11:45:42Z</time>
      </trkpt>
      <trkpt lat="42.71279" lon="1.64794">
        <ele>1536.6</ele>
        <time>2020-02-08T11:45:43Z</time>
      </trkpt>
      <trkpt lat="42.71279" lon="1.64794">
        <ele>1536.6</ele>
        <time>2020-02-08T11:45:44Z</time>
      </trkpt>
      <trkpt lat="42.71279" lon="1.64794">
        <ele>1536.6</ele>
        <time>2020-02-08T11:45:45Z</time>
      </trkpt>
      <trkpt lat="42.71279" lon="1.64794">
        <ele>1536.6</ele>
        <time>2020-02-08T11:45:46Z</time>
      </trkpt>
      <trkpt lat="42.71279" lon="1.64794">
        <ele>1536.6</ele>
        <time>2020-02-08T11:45:47Z</time>
      </trkpt>
      <trkpt lat="42.71279" lon="1.64794">
        <ele>1536.6</ele>
        <time>2020-02-08T11:45:48Z</time>
      </trkpt>
      <trkpt lat="42.71279" lon="1.64794">
        <ele>1536.6</ele>
        <time>2020-02-08T11:45:49Z</time>
      </trkpt>
      <trkpt lat="42.71279" lon="1.64794">
        <ele>1536.6</ele>
        <time>2020-02-08T11:45:50Z</time>
      </trkpt>
      <trkpt lat="42.71279" lon="1.64794">
        <ele>1536.6</ele>
        <time>2020-02-08T11:45:51Z</time>
      </trkpt>
      <trkpt lat="42.71279" lon="1.64794">
        <ele>1536.6</ele>
        <time>2020-02-08T11:45:52Z</time>
      </trkpt>
      <trkpt lat="42.71279" lon="1.64794">
        <ele>1536.6</ele>
        <time>2020-02-08T11:45:53Z</time>
      </trkpt>
      <trkpt lat="42.71279" lon="1.64794">
        <ele>1536.6</ele>
        <time>2020-02-08T11:45:54Z</time>
      </trkpt>
      <trkpt lat="42.71279" lon="1.64794">
        <ele>1536.6</ele>
        <time>2020-02-08T11:45:55Z</time>
      </trkpt>
      <trkpt lat="42.71279" lon="1.64794">
        <ele>1536.6</ele>
        <time>2020-02-08T11:45:56Z</time>
      </trkpt>
      <trkpt lat="42.71279" lon="1.64794">
        <ele>1536.6</ele>
        <time>2020-02-08T11:45:57Z</time>
      </trkpt>
      <trkpt lat="42.71279" lon="1.64794">
        <ele>1536.6</ele>
        <time>2020-02-08T11:45:58Z</time>
      </trkpt>
      <trkpt lat="42.71279" lon="1.64794">
        <ele>1536.6</ele>
        <time>2020-02-08T11:45:59Z</time>
      </trkpt>
      <trkpt lat="42.71279" lon="1.64794">
        <ele>1536.6</ele>
        <time>2020-02-08T11:46:00Z</time>
      </trkpt>
      <trkpt lat="42.71279" lon="1.64794">
        <ele>1536.6</ele>
        <time>2020-02-08T11:46:01Z</time>
      </trkpt>
      <trkpt lat="42.71279" lon="1.64794">
        <ele>1536.6</ele>
        <time>2020-02-08T11:46:02Z</time>
      </trkpt>
      <trkpt lat="42.71279" lon="1.64794">
        <ele>1536.6</ele>
        <time>2020-02-08T11:46:03Z</time>
      </trkpt>
      <trkpt lat="42.71279" lon="1.64794">
        <ele>1536.6</ele>
        <time>2020-02-08T11:46:04Z</time>
      </trkpt>
      <trkpt lat="42.71279" lon="1.64794">
        <ele>1536.6</ele>
        <time>2020-02-08T11:46:05Z</time>
      </trkpt>
      <trkpt lat="42.71279" lon="1.64794">
        <ele>1536.6</ele>
        <time>2020-02-08T11:46:06Z</time>
      </trkpt>
      <trkpt lat="42.71279" lon="1.64794">
        <ele>1536.6</ele>
        <time>2020-02-08T11:46:07Z</time>
      </trkpt>
      <trkpt lat="42.71279" lon="1.64794">
        <ele>1536.6</ele>
        <time>2020-02-08T11:46:08Z</time>
      </trkpt>
      <trkpt lat="42.71279" lon="1.64794">
        <ele>1536.6</ele>
        <time>2020-02-08T11:46:09Z</time>
      </trkpt>
      <trkpt lat="42.71279" lon="1.64794">
        <ele>1536.6</ele>
        <time>2020-02-08T11:46:10Z</time>
      </trkpt>
      <trkpt lat="42.71279" lon="1.64794">
        <ele>1536.6</ele>
        <time>2020-02-08T11:46:11Z</time>
      </trkpt>
      <trkpt lat="42.71279" lon="1.64794">
        <ele>1536.6</ele>
        <time>2020-02-08T11:46:12Z</time>
      </trkpt>
      <trkpt lat="42.71279" lon="1.64794">
        <ele>1536.6</ele>
        <time>2020-02-08T11:46:13Z</time>
      </trkpt>
      <trkpt lat="42.71279" lon="1.64794">
        <ele>1536.6</ele>
        <time>2020-02-08T11:46:14Z</time>
      </trkpt>
      <trkpt lat="42.71279" lon="1.64794">
        <ele>1536.6</ele>
        <time>2020-02-08T11:46:15Z</time>
      </trkpt>
      <trkpt lat="42.71279" lon="1.64794">
        <ele>1536.6</ele>
        <time>2020-02-08T11:46:16Z</time>
      </trkpt>
      <trkpt lat="42.71279" lon="1.64794">
        <ele>1536.6</ele>
        <time>2020-02-08T11:46:17Z</time>
      </trkpt>
      <trkpt lat="42.71279" lon="1.64794">
        <ele>1536.6</ele>
        <time>2020-02-08T11:46:18Z</time>
      </trkpt>
      <trkpt lat="42.71279" lon="1.64794">
        <ele>1536.6</ele>
        <time>2020-02-08T11:46:19Z</time>
      </trkpt>
      <trkpt lat="42.71279" lon="1.64794">
        <ele>1536.6</ele>
        <time>2020-02-08T11:46:20Z</time>
      </trkpt>
      <trkpt lat="42.71275" lon="1.64794">
        <ele>1535.6</ele>
        <time>2020-02-08T11:46:21Z</time>
      </trkpt>
      <trkpt lat="42.71275" lon="1.64794">
        <ele>1535.6</ele>
        <time>2020-02-08T11:46:22Z</time>
      </trkpt>
      <trkpt lat="42.71275" lon="1.64794">
        <ele>1535.6</ele>
        <time>2020-02-08T11:46:23Z</time>
      </trkpt>
      <trkpt lat="42.71275" lon="1.64794">
        <ele>1535.6</ele>
        <time>2020-02-08T11:46:24Z</time>
      </trkpt>
      <trkpt lat="42.71275" lon="1.64794">
        <ele>1535.6</ele>
        <time>2020-02-08T11:46:25Z</time>
      </trkpt>
      <trkpt lat="42.71275" lon="1.64794">
        <ele>1535.6</ele>
        <time>2020-02-08T11:46:26Z</time>
      </trkpt>
      <trkpt lat="42.71275" lon="1.64794">
        <ele>1535.6</ele>
        <time>2020-02-08T11:46:27Z</time>
      </trkpt>
      <trkpt lat="42.71275" lon="1.64794">
        <ele>1535.6</ele>
        <time>2020-02-08T11:46:28Z</time>
      </trkpt>
      <trkpt lat="42.71275" lon="1.64794">
        <ele>1535.6</ele>
        <time>2020-02-08T11:46:29Z</time>
      </trkpt>
      <trkpt lat="42.71275" lon="1.64794">
        <ele>1535.6</ele>
        <time>2020-02-08T11:46:30Z</time>
      </trkpt>
      <trkpt lat="42.71275" lon="1.64794">
        <ele>1535.6</ele>
        <time>2020-02-08T11:46:31Z</time>
      </trkpt>
      <trkpt lat="42.71275" lon="1.64794">
        <ele>1535.6</ele>
        <time>2020-02-08T11:46:32Z</time>
      </trkpt>
      <trkpt lat="42.71275" lon="1.64794">
        <ele>1535.6</ele>
        <time>2020-02-08T11:46:33Z</time>
      </trkpt>
      <trkpt lat="42.71275" lon="1.64794">
        <ele>1535.6</ele>
        <time>2020-02-08T11:46:34Z</time>
      </trkpt>
      <trkpt lat="42.71275" lon="1.64794">
        <ele>1535.6</ele>
        <time>2020-02-08T11:46:35Z</time>
      </trkpt>
      <trkpt lat="42.71275" lon="1.64794">
        <ele>1535.6</ele>
        <time>2020-02-08T11:46:36Z</time>
      </trkpt>
      <trkpt lat="42.71275" lon="1.64794">
        <ele>1535.6</ele>
        <time>2020-02-08T11:46:37Z</time>
      </trkpt>
      <trkpt lat="42.71275" lon="1.64794">
        <ele>1535.6</ele>
        <time>2020-02-08T11:46:38Z</time>
      </trkpt>
      <trkpt lat="42.71275" lon="1.64794">
        <ele>1535.6</ele>
        <time>2020-02-08T11:46:39Z</time>
      </trkpt>
      <trkpt lat="42.71275" lon="1.64794">
        <ele>1535.6</ele>
        <time>2020-02-08T11:46:40Z</time>
      </trkpt>
      <trkpt lat="42.71275" lon="1.64794">
        <ele>1535.6</ele>
        <time>2020-02-08T11:46:41Z</time>
      </trkpt>
      <trkpt lat="42.71275" lon="1.64794">
        <ele>1535.6</ele>
        <time>2020-02-08T11:46:42Z</time>
      </trkpt>
      <trkpt lat="42.71275" lon="1.64794">
        <ele>1535.6</ele>
        <time>2020-02-08T11:46:43Z</time>
      </trkpt>
      <trkpt lat="42.71275" lon="1.64794">
        <ele>1535.6</ele>
        <time>2020-02-08T11:46:44Z</time>
      </trkpt>
      <trkpt lat="42.71275" lon="1.64794">
        <ele>1535.6</ele>
        <time>2020-02-08T11:46:45Z</time>
      </trkpt>
      <trkpt lat="42.71275" lon="1.64794">
        <ele>1535.6</ele>
        <time>2020-02-08T11:46:46Z</time>
      </trkpt>
      <trkpt lat="42.71275" lon="1.64794">
        <ele>1535.6</ele>
        <time>2020-02-08T11:46:47Z</time>
      </trkpt>
      <trkpt lat="42.71275" lon="1.64794">
        <ele>1535.6</ele>
        <time>2020-02-08T11:46:48Z</time>
      </trkpt>
      <trkpt lat="42.71275" lon="1.64794">
        <ele>1535.6</ele>
        <time>2020-02-08T11:46:49Z</time>
      </trkpt>
      <trkpt lat="42.71275" lon="1.64794">
        <ele>1535.6</ele>
        <time>2020-02-08T11:46:50Z</time>
      </trkpt>
      <trkpt lat="42.71275" lon="1.64794">
        <ele>1535.6</ele>
        <time>2020-02-08T11:46:51Z</time>
      </trkpt>
      <trkpt lat="42.71275" lon="1.64794">
        <ele>1535.6</ele>
        <time>2020-02-08T11:46:52Z</time>
      </trkpt>
      <trkpt lat="42.71275" lon="1.64794">
        <ele>1535.6</ele>
        <time>2020-02-08T11:46:53Z</time>
      </trkpt>
      <trkpt lat="42.71275" lon="1.64794">
        <ele>1535.6</ele>
        <time>2020-02-08T11:46:54Z</time>
      </trkpt>
      <trkpt lat="42.71275" lon="1.64794">
        <ele>1535.6</ele>
        <time>2020-02-08T11:46:55Z</time>
      </trkpt>
      <trkpt lat="42.71275" lon="1.64794">
        <ele>1535.6</ele>
        <time>2020-02-08T11:46:56Z</time>
      </trkpt>
      <trkpt lat="42.71275" lon="1.64794">
        <ele>1535.6</ele>
        <time>2020-02-08T11:46:57Z</time>
      </trkpt>
      <trkpt lat="42.71275" lon="1.64794">
        <ele>1535.6</ele>
        <time>2020-02-08T11:46:58Z</time>
      </trkpt>
      <trkpt lat="42.71275" lon="1.64794">
        <ele>1535.6</ele>
        <time>2020-02-08T11:46:59Z</time>
      </trkpt>
      <trkpt lat="42.71275" lon="1.64794">
        <ele>1535.6</ele>
        <time>2020-02-08T11:47:00Z</time>
      </trkpt>
      <trkpt lat="42.71275" lon="1.64794">
        <ele>1535.6</ele>
        <time>2020-02-08T11:47:01Z</time>
      </trkpt>
      <trkpt lat="42.71275" lon="1.64794">
        <ele>1535.6</ele>
        <time>2020-02-08T11:47:02Z</time>
      </trkpt>
      <trkpt lat="42.71275" lon="1.64794">
        <ele>1535.6</ele>
        <time>2020-02-08T11:47:03Z</time>
      </trkpt>
      <trkpt lat="42.71275" lon="1.64794">
        <ele>1535.6</ele>
        <time>2020-02-08T11:47:04Z</time>
      </trkpt>
      <trkpt lat="42.71275" lon="1.64794">
        <ele>1535.6</ele>
        <time>2020-02-08T11:47:05Z</time>
      </trkpt>
      <trkpt lat="42.71275" lon="1.64794">
        <ele>1535.6</ele>
        <time>2020-02-08T11:47:06Z</time>
      </trkpt>
      <trkpt lat="42.71275" lon="1.64794">
        <ele>1535.6</ele>
        <time>2020-02-08T11:47:07Z</time>
      </trkpt>
      <trkpt lat="42.71275" lon="1.64794">
        <ele>1535.6</ele>
        <time>2020-02-08T11:47:08Z</time>
      </trkpt>
      <trkpt lat="42.71275" lon="1.64794">
        <ele>1535.6</ele>
        <time>2020-02-08T11:47:09Z</time>
      </trkpt>
      <trkpt lat="42.71275" lon="1.64794">
        <ele>1535.6</ele>
        <time>2020-02-08T11:47:10Z</time>
      </trkpt>
      <trkpt lat="42.71275" lon="1.64794">
        <ele>1535.6</ele>
        <time>2020-02-08T11:47:11Z</time>
      </trkpt>
      <trkpt lat="42.71275" lon="1.64794">
        <ele>1535.6</ele>
        <time>2020-02-08T11:47:12Z</time>
      </trkpt>
      <trkpt lat="42.71275" lon="1.64794">
        <ele>1535.6</ele>
        <time>2020-02-08T11:47:13Z</time>
      </trkpt>
      <trkpt lat="42.71275" lon="1.64794">
        <ele>1535.6</ele>
        <time>2020-02-08T11:47:14Z</time>
      </trkpt>
      <trkpt lat="42.71275" lon="1.64794">
        <ele>1535.6</ele>
        <time>2020-02-08T11:47:15Z</time>
      </trkpt>
      <trkpt lat="42.71275" lon="1.64794">
        <ele>1535.6</ele>
        <time>2020-02-08T11:47:16Z</time>
      </trkpt>
      <trkpt lat="42.71275" lon="1.64794">
        <ele>1535.6</ele>
        <time>2020-02-08T11:47:17Z</time>
      </trkpt>
      <trkpt lat="42.71275" lon="1.64794">
        <ele>1535.6</ele>
        <time>2020-02-08T11:47:18Z</time>
      </trkpt>
      <trkpt lat="42.71275" lon="1.64794">
        <ele>1535.6</ele>
        <time>2020-02-08T11:47:19Z</time>
      </trkpt>
      <trkpt lat="42.71275" lon="1.64794">
        <ele>1535.6</ele>
        <time>2020-02-08T11:47:20Z</time>
      </trkpt>
      <trkpt lat="42.71275" lon="1.64794">
        <ele>1535.6</ele>
        <time>2020-02-08T11:47:21Z</time>
      </trkpt>
      <trkpt lat="42.71275" lon="1.64794">
        <ele>1535.6</ele>
        <time>2020-02-08T11:47:22Z</time>
      </trkpt>
      <trkpt lat="42.71275" lon="1.64794">
        <ele>1535.6</ele>
        <time>2020-02-08T11:47:23Z</time>
      </trkpt>
      <trkpt lat="42.71275" lon="1.64794">
        <ele>1535.6</ele>
        <time>2020-02-08T11:47:24Z</time>
      </trkpt>
      <trkpt lat="42.71275" lon="1.64794">
        <ele>1535.6</ele>
        <time>2020-02-08T11:47:25Z</time>
      </trkpt>
      <trkpt lat="42.71275" lon="1.64794">
        <ele>1535.6</ele>
        <time>2020-02-08T11:47:26Z</time>
      </trkpt>
      <trkpt lat="42.71275" lon="1.64794">
        <ele>1535.6</ele>
        <time>2020-02-08T11:47:27Z</time>
      </trkpt>
      <trkpt lat="42.71275" lon="1.64794">
        <ele>1535.6</ele>
        <time>2020-02-08T11:47:28Z</time>
      </trkpt>
      <trkpt lat="42.71275" lon="1.64794">
        <ele>1535.6</ele>
        <time>2020-02-08T11:47:29Z</time>
      </trkpt>
      <trkpt lat="42.71275" lon="1.64794">
        <ele>1535.6</ele>
        <time>2020-02-08T11:47:30Z</time>
      </trkpt>
      <trkpt lat="42.71275" lon="1.64794">
        <ele>1535.6</ele>
        <time>2020-02-08T11:47:31Z</time>
      </trkpt>
      <trkpt lat="42.71275" lon="1.64794">
        <ele>1535.6</ele>
        <time>2020-02-08T11:47:32Z</time>
      </trkpt>
      <trkpt lat="42.71275" lon="1.64794">
        <ele>1535.6</ele>
        <time>2020-02-08T11:47:33Z</time>
      </trkpt>
      <trkpt lat="42.71275" lon="1.64794">
        <ele>1535.6</ele>
        <time>2020-02-08T11:47:34Z</time>
      </trkpt>
      <trkpt lat="42.71275" lon="1.64794">
        <ele>1535.6</ele>
        <time>2020-02-08T11:47:35Z</time>
      </trkpt>
      <trkpt lat="42.71275" lon="1.64794">
        <ele>1535.6</ele>
        <time>2020-02-08T11:47:36Z</time>
      </trkpt>
      <trkpt lat="42.71275" lon="1.64794">
        <ele>1535.6</ele>
        <time>2020-02-08T11:47:37Z</time>
      </trkpt>
      <trkpt lat="42.71275" lon="1.64794">
        <ele>1535.6</ele>
        <time>2020-02-08T11:47:38Z</time>
      </trkpt>
      <trkpt lat="42.71275" lon="1.64794">
        <ele>1535.6</ele>
        <time>2020-02-08T11:47:39Z</time>
      </trkpt>
      <trkpt lat="42.71275" lon="1.64794">
        <ele>1535.6</ele>
        <time>2020-02-08T11:47:40Z</time>
      </trkpt>
      <trkpt lat="42.71275" lon="1.64794">
        <ele>1535.6</ele>
        <time>2020-02-08T11:47:41Z</time>
      </trkpt>
      <trkpt lat="42.71275" lon="1.64794">
        <ele>1535.6</ele>
        <time>2020-02-08T11:47:42Z</time>
      </trkpt>
      <trkpt lat="42.71275" lon="1.64794">
        <ele>1535.6</ele>
        <time>2020-02-08T11:47:43Z</time>
      </trkpt>
      <trkpt lat="42.71275" lon="1.64794">
        <ele>1535.6</ele>
        <time>2020-02-08T11:47:44Z</time>
      </trkpt>
      <trkpt lat="42.71275" lon="1.64794">
        <ele>1535.6</ele>
        <time>2020-02-08T11:47:45Z</time>
      </trkpt>
      <trkpt lat="42.71274" lon="1.64792">
        <ele>1534.7</ele>
        <time>2020-02-08T11:47:46Z</time>
      </trkpt>
      <trkpt lat="42.71274" lon="1.64792">
        <ele>1534.7</ele>
        <time>2020-02-08T11:47:47Z</time>
      </trkpt>
      <trkpt lat="42.71274" lon="1.64792">
        <ele>1534.7</ele>
        <time>2020-02-08T11:47:48Z</time>
      </trkpt>
      <trkpt lat="42.71274" lon="1.64792">
        <ele>1534.7</ele>
        <time>2020-02-08T11:47:49Z</time>
      </trkpt>
      <trkpt lat="42.71274" lon="1.64791">
        <ele>1534.7</ele>
        <time>2020-02-08T11:47:50Z</time>
      </trkpt>
      <trkpt lat="42.71274" lon="1.64791">
        <ele>1534.7</ele>
        <time>2020-02-08T11:47:51Z</time>
      </trkpt>
      <trkpt lat="42.71274" lon="1.64791">
        <ele>1534.7</ele>
        <time>2020-02-08T11:47:52Z</time>
      </trkpt>
      <trkpt lat="42.71274" lon="1.64791">
        <ele>1534.7</ele>
        <time>2020-02-08T11:47:53Z</time>
      </trkpt>
      <trkpt lat="42.71274" lon="1.64791">
        <ele>1536.6</ele>
        <time>2020-02-08T11:47:54Z</time>
      </trkpt>
      <trkpt lat="42.71274" lon="1.6479">
        <ele>1536.6</ele>
        <time>2020-02-08T11:47:55Z</time>
      </trkpt>
      <trkpt lat="42.71274" lon="1.6479">
        <ele>1536.6</ele>
        <time>2020-02-08T11:47:56Z</time>
      </trkpt>
      <trkpt lat="42.71274" lon="1.6479">
        <ele>1536.6</ele>
        <time>2020-02-08T11:47:57Z</time>
      </trkpt>
      <trkpt lat="42.71274" lon="1.6479">
        <ele>1536.6</ele>
        <time>2020-02-08T11:47:58Z</time>
      </trkpt>
      <trkpt lat="42.71274" lon="1.6479">
        <ele>1536.6</ele>
        <time>2020-02-08T11:47:59Z</time>
      </trkpt>
      <trkpt lat="42.71274" lon="1.6479">
        <ele>1536.6</ele>
        <time>2020-02-08T11:48:00Z</time>
      </trkpt>
      <trkpt lat="42.71274" lon="1.64789">
        <ele>1536.6</ele>
        <time>2020-02-08T11:48:01Z</time>
      </trkpt>
      <trkpt lat="42.71274" lon="1.64789">
        <ele>1536.6</ele>
        <time>2020-02-08T11:48:02Z</time>
      </trkpt>
      <trkpt lat="42.71274" lon="1.64789">
        <ele>1536.6</ele>
        <time>2020-02-08T11:48:03Z</time>
      </trkpt>
      <trkpt lat="42.71274" lon="1.64789">
        <ele>1536.6</ele>
        <time>2020-02-08T11:48:04Z</time>
      </trkpt>
      <trkpt lat="42.71274" lon="1.64789">
        <ele>1536.6</ele>
        <time>2020-02-08T11:48:05Z</time>
      </trkpt>
      <trkpt lat="42.71274" lon="1.64788">
        <ele>1536.6</ele>
        <time>2020-02-08T11:48:06Z</time>
      </trkpt>
      <trkpt lat="42.71274" lon="1.64788">
        <ele>1536.6</ele>
        <time>2020-02-08T11:48:07Z</time>
      </trkpt>
      <trkpt lat="42.71274" lon="1.64788">
        <ele>1536.6</ele>
        <time>2020-02-08T11:48:08Z</time>
      </trkpt>
      <trkpt lat="42.71274" lon="1.64788">
        <ele>1536.6</ele>
        <time>2020-02-08T11:48:09Z</time>
      </trkpt>
      <trkpt lat="42.71274" lon="1.64788">
        <ele>1536.6</ele>
        <time>2020-02-08T11:48:10Z</time>
      </trkpt>
      <trkpt lat="42.71274" lon="1.64787">
        <ele>1536.6</ele>
        <time>2020-02-08T11:48:11Z</time>
      </trkpt>
      <trkpt lat="42.71274" lon="1.64787">
        <ele>1536.6</ele>
        <time>2020-02-08T11:48:12Z</time>
      </trkpt>
      <trkpt lat="42.71274" lon="1.64787">
        <ele>1536.6</ele>
        <time>2020-02-08T11:48:13Z</time>
      </trkpt>
      <trkpt lat="42.71274" lon="1.64787">
        <ele>1536.6</ele>
        <time>2020-02-08T11:48:14Z</time>
      </trkpt>
      <trkpt lat="42.71274" lon="1.64787">
        <ele>1536.6</ele>
        <time>2020-02-08T11:48:15Z</time>
      </trkpt>
      <trkpt lat="42.71274" lon="1.64786">
        <ele>1536.6</ele>
        <time>2020-02-08T11:48:16Z</time>
      </trkpt>
      <trkpt lat="42.71274" lon="1.64786">
        <ele>1538.6</ele>
        <time>2020-02-08T11:48:17Z</time>
      </trkpt>
      <trkpt lat="42.71274" lon="1.64786">
        <ele>1538.6</ele>
        <time>2020-02-08T11:48:18Z</time>
      </trkpt>
      <trkpt lat="42.71274" lon="1.64786">
        <ele>1538.6</ele>
        <time>2020-02-08T11:48:19Z</time>
      </trkpt>
      <trkpt lat="42.71273" lon="1.64785">
        <ele>1538.6</ele>
        <time>2020-02-08T11:48:20Z</time>
      </trkpt>
      <trkpt lat="42.71273" lon="1.64785">
        <ele>1538.6</ele>
        <time>2020-02-08T11:48:21Z</time>
      </trkpt>
      <trkpt lat="42.71273" lon="1.64784">
        <ele>1538.6</ele>
        <time>2020-02-08T11:48:22Z</time>
      </trkpt>
      <trkpt lat="42.71273" lon="1.64783">
        <ele>1538.6</ele>
        <time>2020-02-08T11:48:23Z</time>
      </trkpt>
      <trkpt lat="42.71273" lon="1.64783">
        <ele>1538.6</ele>
        <time>2020-02-08T11:48:24Z</time>
      </trkpt>
      <trkpt lat="42.71273" lon="1.64782">
        <ele>1540.7</ele>
        <time>2020-02-08T11:48:25Z</time>
      </trkpt>
      <trkpt lat="42.71272" lon="1.64781">
        <ele>1540.7</ele>
        <time>2020-02-08T11:48:26Z</time>
      </trkpt>
      <trkpt lat="42.71272" lon="1.64781">
        <ele>1540.7</ele>
        <time>2020-02-08T11:48:27Z</time>
      </trkpt>
      <trkpt lat="42.71272" lon="1.6478">
        <ele>1540.7</ele>
        <time>2020-02-08T11:48:28Z</time>
      </trkpt>
      <trkpt lat="42.71272" lon="1.6478">
        <ele>1540.7</ele>
        <time>2020-02-08T11:48:29Z</time>
      </trkpt>
      <trkpt lat="42.71272" lon="1.64779">
        <ele>1540.7</ele>
        <time>2020-02-08T11:48:30Z</time>
      </trkpt>
      <trkpt lat="42.71272" lon="1.64779">
        <ele>1540.7</ele>
        <time>2020-02-08T11:48:31Z</time>
      </trkpt>
      <trkpt lat="42.71272" lon="1.64778">
        <ele>1540.7</ele>
        <time>2020-02-08T11:48:32Z</time>
      </trkpt>
      <trkpt lat="42.71272" lon="1.64778">
        <ele>1540.7</ele>
        <time>2020-02-08T11:48:33Z</time>
      </trkpt>
      <trkpt lat="42.71272" lon="1.64777">
        <ele>1542.8</ele>
        <time>2020-02-08T11:48:34Z</time>
      </trkpt>
      <trkpt lat="42.71272" lon="1.64777">
        <ele>1542.8</ele>
        <time>2020-02-08T11:48:35Z</time>
      </trkpt>
      <trkpt lat="42.71272" lon="1.64777">
        <ele>1542.8</ele>
        <time>2020-02-08T11:48:36Z</time>
      </trkpt>
      <trkpt lat="42.71272" lon="1.64776">
        <ele>1542.8</ele>
        <time>2020-02-08T11:48:37Z</time>
      </trkpt>
      <trkpt lat="42.71272" lon="1.64776">
        <ele>1542.8</ele>
        <time>2020-02-08T11:48:38Z</time>
      </trkpt>
      <trkpt lat="42.71272" lon="1.64775">
        <ele>1542.8</ele>
        <time>2020-02-08T11:48:39Z</time>
      </trkpt>
      <trkpt lat="42.71272" lon="1.64775">
        <ele>1542.8</ele>
        <time>2020-02-08T11:48:40Z</time>
      </trkpt>
      <trkpt lat="42.71272" lon="1.64774">
        <ele>1542.8</ele>
        <time>2020-02-08T11:48:41Z</time>
      </trkpt>
      <trkpt lat="42.71272" lon="1.64774">
        <ele>1542.8</ele>
        <time>2020-02-08T11:48:42Z</time>
      </trkpt>
      <trkpt lat="42.71272" lon="1.64774">
        <ele>1542.8</ele>
        <time>2020-02-08T11:48:43Z</time>
      </trkpt>
      <trkpt lat="42.71272" lon="1.64773">
        <ele>1544.9</ele>
        <time>2020-02-08T11:48:44Z</time>
      </trkpt>
      <trkpt lat="42.71272" lon="1.64773">
        <ele>1544.9</ele>
        <time>2020-02-08T11:48:45Z</time>
      </trkpt>
      <trkpt lat="42.71272" lon="1.64772">
        <ele>1544.9</ele>
        <time>2020-02-08T11:48:46Z</time>
      </trkpt>
      <trkpt lat="42.71272" lon="1.64772">
        <ele>1544.9</ele>
        <time>2020-02-08T11:48:47Z</time>
      </trkpt>
      <trkpt lat="42.71273" lon="1.64771">
        <ele>1544.9</ele>
        <time>2020-02-08T11:48:48Z</time>
      </trkpt>
      <trkpt lat="42.71273" lon="1.64771">
        <ele>1544.9</ele>
        <time>2020-02-08T11:48:49Z</time>
      </trkpt>
      <trkpt lat="42.71274" lon="1.64769">
        <ele>1546.9</ele>
        <time>2020-02-08T11:48:50Z</time>
      </trkpt>
      <trkpt lat="42.71275" lon="1.64769">
        <ele>1546.9</ele>
        <time>2020-02-08T11:48:51Z</time>
      </trkpt>
      <trkpt lat="42.71275" lon="1.64768">
        <ele>1547.9</ele>
        <time>2020-02-08T11:48:52Z</time>
      </trkpt>
      <trkpt lat="42.71275" lon="1.64768">
        <ele>1547.9</ele>
        <time>2020-02-08T11:48:53Z</time>
      </trkpt>
      <trkpt lat="42.71275" lon="1.64768">
        <ele>1547.9</ele>
        <time>2020-02-08T11:48:54Z</time>
      </trkpt>
      <trkpt lat="42.71275" lon="1.64768">
        <ele>1547.9</ele>
        <time>2020-02-08T11:48:55Z</time>
      </trkpt>
      <trkpt lat="42.71275" lon="1.64768">
        <ele>1547.9</ele>
        <time>2020-02-08T11:48:56Z</time>
      </trkpt>
      <trkpt lat="42.71276" lon="1.64767">
        <ele>1547.9</ele>
        <time>2020-02-08T11:48:57Z</time>
      </trkpt>
      <trkpt lat="42.71276" lon="1.64767">
        <ele>1547.9</ele>
        <time>2020-02-08T11:48:58Z</time>
      </trkpt>
      <trkpt lat="42.71276" lon="1.64767">
        <ele>1547.9</ele>
        <time>2020-02-08T11:48:59Z</time>
      </trkpt>
      <trkpt lat="42.71277" lon="1.64766">
        <ele>1547.9</ele>
        <time>2020-02-08T11:49:00Z</time>
      </trkpt>
      <trkpt lat="42.71278" lon="1.64765">
        <ele>1547.9</ele>
        <time>2020-02-08T11:49:01Z</time>
      </trkpt>
      <trkpt lat="42.71278" lon="1.64764">
        <ele>1550.8</ele>
        <time>2020-02-08T11:49:02Z</time>
      </trkpt>
      <trkpt lat="42.71279" lon="1.64764">
        <ele>1550.8</ele>
        <time>2020-02-08T11:49:03Z</time>
      </trkpt>
      <trkpt lat="42.7128" lon="1.64763">
        <ele>1550.8</ele>
        <time>2020-02-08T11:49:04Z</time>
      </trkpt>
      <trkpt lat="42.71281" lon="1.64762">
        <ele>1551.8</ele>
        <time>2020-02-08T11:49:05Z</time>
      </trkpt>
      <trkpt lat="42.71282" lon="1.64761">
        <ele>1551.8</ele>
        <time>2020-02-08T11:49:06Z</time>
      </trkpt>
      <trkpt lat="42.71283" lon="1.64761">
        <ele>1553.7</ele>
        <time>2020-02-08T11:49:07Z</time>
      </trkpt>
      <trkpt lat="42.71283" lon="1.6476">
        <ele>1553.7</ele>
        <time>2020-02-08T11:49:08Z</time>
      </trkpt>
      <trkpt lat="42.71284" lon="1.64759">
        <ele>1554.7</ele>
        <time>2020-02-08T11:49:09Z</time>
      </trkpt>
      <trkpt lat="42.71284" lon="1.64759">
        <ele>1553.7</ele>
        <time>2020-02-08T11:49:10Z</time>
      </trkpt>
      <trkpt lat="42.71284" lon="1.6476">
        <ele>1553.7</ele>
        <time>2020-02-08T11:49:11Z</time>
      </trkpt>
      <trkpt lat="42.71284" lon="1.6476">
        <ele>1553.7</ele>
        <time>2020-02-08T11:49:12Z</time>
      </trkpt>
      <trkpt lat="42.71283" lon="1.6476">
        <ele>1553.7</ele>
        <time>2020-02-08T11:49:13Z</time>
      </trkpt>
      <trkpt lat="42.71283" lon="1.6476">
        <ele>1553.7</ele>
        <time>2020-02-08T11:49:14Z</time>
      </trkpt>
      <trkpt lat="42.71283" lon="1.64761">
        <ele>1551.8</ele>
        <time>2020-02-08T11:49:15Z</time>
      </trkpt>
      <trkpt lat="42.71283" lon="1.64761">
        <ele>1551.8</ele>
        <time>2020-02-08T11:49:16Z</time>
      </trkpt>
      <trkpt lat="42.71283" lon="1.64761">
        <ele>1551.8</ele>
        <time>2020-02-08T11:49:17Z</time>
      </trkpt>
      <trkpt lat="42.71283" lon="1.64762">
        <ele>1551.8</ele>
        <time>2020-02-08T11:49:18Z</time>
      </trkpt>
      <trkpt lat="42.71282" lon="1.64762">
        <ele>1551.8</ele>
        <time>2020-02-08T11:49:19Z</time>
      </trkpt>
      <trkpt lat="42.71282" lon="1.64762">
        <ele>1551.8</ele>
        <time>2020-02-08T11:49:20Z</time>
      </trkpt>
      <trkpt lat="42.71282" lon="1.64762">
        <ele>1551.8</ele>
        <time>2020-02-08T11:49:21Z</time>
      </trkpt>
      <trkpt lat="42.71281" lon="1.64762">
        <ele>1550.8</ele>
        <time>2020-02-08T11:49:22Z</time>
      </trkpt>
      <trkpt lat="42.71281" lon="1.64762">
        <ele>1550.8</ele>
        <time>2020-02-08T11:49:23Z</time>
      </trkpt>
      <trkpt lat="42.71281" lon="1.64762">
        <ele>1550.8</ele>
        <time>2020-02-08T11:49:24Z</time>
      </trkpt>
      <trkpt lat="42.71279" lon="1.64762">
        <ele>1550.8</ele>
        <time>2020-02-08T11:49:25Z</time>
      </trkpt>
      <trkpt lat="42.71279" lon="1.64762">
        <ele>1550.8</ele>
        <time>2020-02-08T11:49:26Z</time>
      </trkpt>
      <trkpt lat="42.71279" lon="1.64762">
        <ele>1550.8</ele>
        <time>2020-02-08T11:49:27Z</time>
      </trkpt>
      <trkpt lat="42.71279" lon="1.64762">
        <ele>1550.8</ele>
        <time>2020-02-08T11:49:28Z</time>
      </trkpt>
      <trkpt lat="42.71277" lon="1.6476">
        <ele>1551.8</ele>
        <time>2020-02-08T11:49:29Z</time>
      </trkpt>
      <trkpt lat="42.71277" lon="1.6476">
        <ele>1551.8</ele>
        <time>2020-02-08T11:49:30Z</time>
      </trkpt>
      <trkpt lat="42.71277" lon="1.6476">
        <ele>1551.8</ele>
        <time>2020-02-08T11:49:31Z</time>
      </trkpt>
      <trkpt lat="42.71277" lon="1.6476">
        <ele>1551.8</ele>
        <time>2020-02-08T11:49:32Z</time>
      </trkpt>
      <trkpt lat="42.71277" lon="1.6476">
        <ele>1551.8</ele>
        <time>2020-02-08T11:49:33Z</time>
      </trkpt>
      <trkpt lat="42.71277" lon="1.6476">
        <ele>1551.8</ele>
        <time>2020-02-08T11:49:34Z</time>
      </trkpt>
      <trkpt lat="42.71277" lon="1.6476">
        <ele>1551.8</ele>
        <time>2020-02-08T11:49:35Z</time>
      </trkpt>
      <trkpt lat="42.71277" lon="1.6476">
        <ele>1551.8</ele>
        <time>2020-02-08T11:49:36Z</time>
      </trkpt>
      <trkpt lat="42.71277" lon="1.6476">
        <ele>1551.8</ele>
        <time>2020-02-08T11:49:37Z</time>
      </trkpt>
      <trkpt lat="42.71277" lon="1.6476">
        <ele>1551.8</ele>
        <time>2020-02-08T11:49:38Z</time>
      </trkpt>
      <trkpt lat="42.71277" lon="1.6476">
        <ele>1551.8</ele>
        <time>2020-02-08T11:49:39Z</time>
      </trkpt>
      <trkpt lat="42.71277" lon="1.6476">
        <ele>1551.8</ele>
        <time>2020-02-08T11:49:40Z</time>
      </trkpt>
      <trkpt lat="42.71277" lon="1.6476">
        <ele>1551.8</ele>
        <time>2020-02-08T11:49:41Z</time>
      </trkpt>
      <trkpt lat="42.71277" lon="1.6476">
        <ele>1551.8</ele>
        <time>2020-02-08T11:49:42Z</time>
      </trkpt>
      <trkpt lat="42.71277" lon="1.6476">
        <ele>1551.8</ele>
        <time>2020-02-08T11:49:43Z</time>
      </trkpt>
      <trkpt lat="42.71277" lon="1.6476">
        <ele>1551.8</ele>
        <time>2020-02-08T11:49:44Z</time>
      </trkpt>
      <trkpt lat="42.71277" lon="1.6476">
        <ele>1551.8</ele>
        <time>2020-02-08T11:49:45Z</time>
      </trkpt>
      <trkpt lat="42.71277" lon="1.6476">
        <ele>1551.8</ele>
        <time>2020-02-08T11:49:46Z</time>
      </trkpt>
      <trkpt lat="42.71277" lon="1.6476">
        <ele>1551.8</ele>
        <time>2020-02-08T11:49:47Z</time>
      </trkpt>
      <trkpt lat="42.71277" lon="1.6476">
        <ele>1551.8</ele>
        <time>2020-02-08T11:49:48Z</time>
      </trkpt>
      <trkpt lat="42.71277" lon="1.6476">
        <ele>1551.8</ele>
        <time>2020-02-08T11:49:49Z</time>
      </trkpt>
      <trkpt lat="42.71277" lon="1.6476">
        <ele>1551.8</ele>
        <time>2020-02-08T11:49:50Z</time>
      </trkpt>
      <trkpt lat="42.71277" lon="1.6476">
        <ele>1551.8</ele>
        <time>2020-02-08T11:49:51Z</time>
      </trkpt>
      <trkpt lat="42.71277" lon="1.6476">
        <ele>1551.8</ele>
        <time>2020-02-08T11:49:52Z</time>
      </trkpt>
      <trkpt lat="42.71277" lon="1.6476">
        <ele>1551.8</ele>
        <time>2020-02-08T11:49:53Z</time>
      </trkpt>
      <trkpt lat="42.71277" lon="1.64758">
        <ele>1551.8</ele>
        <time>2020-02-08T11:49:54Z</time>
      </trkpt>
      <trkpt lat="42.71277" lon="1.64758">
        <ele>1551.8</ele>
        <time>2020-02-08T11:49:55Z</time>
      </trkpt>
      <trkpt lat="42.71277" lon="1.64758">
        <ele>1551.8</ele>
        <time>2020-02-08T11:49:56Z</time>
      </trkpt>
      <trkpt lat="42.71277" lon="1.64758">
        <ele>1551.8</ele>
        <time>2020-02-08T11:49:57Z</time>
      </trkpt>
      <trkpt lat="42.71277" lon="1.64758">
        <ele>1551.8</ele>
        <time>2020-02-08T11:49:58Z</time>
      </trkpt>
      <trkpt lat="42.71277" lon="1.64758">
        <ele>1551.8</ele>
        <time>2020-02-08T11:49:59Z</time>
      </trkpt>
      <trkpt lat="42.71274" lon="1.64757">
        <ele>1550.8</ele>
        <time>2020-02-08T11:50:00Z</time>
      </trkpt>
      <trkpt lat="42.71274" lon="1.64756">
        <ele>1552.8</ele>
        <time>2020-02-08T11:50:01Z</time>
      </trkpt>
      <trkpt lat="42.71273" lon="1.64755">
        <ele>1552.8</ele>
        <time>2020-02-08T11:50:02Z</time>
      </trkpt>
      <trkpt lat="42.71273" lon="1.64755">
        <ele>1552.8</ele>
        <time>2020-02-08T11:50:03Z</time>
      </trkpt>
      <trkpt lat="42.71272" lon="1.64754">
        <ele>1552.8</ele>
        <time>2020-02-08T11:50:04Z</time>
      </trkpt>
      <trkpt lat="42.71272" lon="1.64754">
        <ele>1552.8</ele>
        <time>2020-02-08T11:50:05Z</time>
      </trkpt>
      <trkpt lat="42.71271" lon="1.64753">
        <ele>1551.8</ele>
        <time>2020-02-08T11:50:06Z</time>
      </trkpt>
      <trkpt lat="42.71271" lon="1.64753">
        <ele>1551.8</ele>
        <time>2020-02-08T11:50:07Z</time>
      </trkpt>
      <trkpt lat="42.7127" lon="1.64752">
        <ele>1551.8</ele>
        <time>2020-02-08T11:50:08Z</time>
      </trkpt>
      <trkpt lat="42.7127" lon="1.64752">
        <ele>1553.8</ele>
        <time>2020-02-08T11:50:09Z</time>
      </trkpt>
      <trkpt lat="42.7127" lon="1.64751">
        <ele>1553.8</ele>
        <time>2020-02-08T11:50:10Z</time>
      </trkpt>
      <trkpt lat="42.7127" lon="1.64751">
        <ele>1553.8</ele>
        <time>2020-02-08T11:50:11Z</time>
      </trkpt>
      <trkpt lat="42.7127" lon="1.64751">
        <ele>1553.8</ele>
        <time>2020-02-08T11:50:12Z</time>
      </trkpt>
      <trkpt lat="42.7127" lon="1.6475">
        <ele>1553.8</ele>
        <time>2020-02-08T11:50:13Z</time>
      </trkpt>
      <trkpt lat="42.7127" lon="1.6475">
        <ele>1553.8</ele>
        <time>2020-02-08T11:50:14Z</time>
      </trkpt>
      <trkpt lat="42.7127" lon="1.6475">
        <ele>1553.8</ele>
        <time>2020-02-08T11:50:15Z</time>
      </trkpt>
      <trkpt lat="42.7127" lon="1.64749">
        <ele>1553.8</ele>
        <time>2020-02-08T11:50:16Z</time>
      </trkpt>
      <trkpt lat="42.7127" lon="1.64749">
        <ele>1553.8</ele>
        <time>2020-02-08T11:50:17Z</time>
      </trkpt>
      <trkpt lat="42.7127" lon="1.64749">
        <ele>1553.8</ele>
        <time>2020-02-08T11:50:18Z</time>
      </trkpt>
      <trkpt lat="42.7127" lon="1.64748">
        <ele>1553.8</ele>
        <time>2020-02-08T11:50:19Z</time>
      </trkpt>
      <trkpt lat="42.71271" lon="1.64748">
        <ele>1553.8</ele>
        <time>2020-02-08T11:50:20Z</time>
      </trkpt>
      <trkpt lat="42.71272" lon="1.64748">
        <ele>1554.8</ele>
        <time>2020-02-08T11:50:21Z</time>
      </trkpt>
      <trkpt lat="42.71273" lon="1.64748">
        <ele>1556.8</ele>
        <time>2020-02-08T11:50:22Z</time>
      </trkpt>
      <trkpt lat="42.71274" lon="1.64747">
        <ele>1556.8</ele>
        <time>2020-02-08T11:50:23Z</time>
      </trkpt>
      <trkpt lat="42.71275" lon="1.64747">
        <ele>1557.8</ele>
        <time>2020-02-08T11:50:24Z</time>
      </trkpt>
      <trkpt lat="42.71276" lon="1.64747">
        <ele>1557.8</ele>
        <time>2020-02-08T11:50:25Z</time>
      </trkpt>
      <trkpt lat="42.71277" lon="1.64746">
        <ele>1557.8</ele>
        <time>2020-02-08T11:50:26Z</time>
      </trkpt>
      <trkpt lat="42.71278" lon="1.64746">
        <ele>1558.7</ele>
        <time>2020-02-08T11:50:27Z</time>
      </trkpt>
      <trkpt lat="42.71279" lon="1.64746">
        <ele>1558.7</ele>
        <time>2020-02-08T11:50:28Z</time>
      </trkpt>
      <trkpt lat="42.7128" lon="1.64746">
        <ele>1558.7</ele>
        <time>2020-02-08T11:50:29Z</time>
      </trkpt>
      <trkpt lat="42.7128" lon="1.64745">
        <ele>1558.7</ele>
        <time>2020-02-08T11:50:30Z</time>
      </trkpt>
      <trkpt lat="42.7128" lon="1.64745">
        <ele>1558.7</ele>
        <time>2020-02-08T11:50:31Z</time>
      </trkpt>
      <trkpt lat="42.7128" lon="1.64745">
        <ele>1558.7</ele>
        <time>2020-02-08T11:50:32Z</time>
      </trkpt>
      <trkpt lat="42.7128" lon="1.64745">
        <ele>1558.7</ele>
        <time>2020-02-08T11:50:33Z</time>
      </trkpt>
      <trkpt lat="42.7128" lon="1.64745">
        <ele>1558.7</ele>
        <time>2020-02-08T11:50:34Z</time>
      </trkpt>
      <trkpt lat="42.7128" lon="1.64744">
        <ele>1558.7</ele>
        <time>2020-02-08T11:50:35Z</time>
      </trkpt>
      <trkpt lat="42.7128" lon="1.64744">
        <ele>1558.7</ele>
        <time>2020-02-08T11:50:36Z</time>
      </trkpt>
      <trkpt lat="42.71281" lon="1.64744">
        <ele>1558.7</ele>
        <time>2020-02-08T11:50:37Z</time>
      </trkpt>
      <trkpt lat="42.71281" lon="1.64744">
        <ele>1558.7</ele>
        <time>2020-02-08T11:50:38Z</time>
      </trkpt>
      <trkpt lat="42.71281" lon="1.64743">
        <ele>1560.8</ele>
        <time>2020-02-08T11:50:39Z</time>
      </trkpt>
      <trkpt lat="42.71281" lon="1.64743">
        <ele>1560.8</ele>
        <time>2020-02-08T11:50:40Z</time>
      </trkpt>
      <trkpt lat="42.71281" lon="1.64743">
        <ele>1561.8</ele>
        <time>2020-02-08T11:50:41Z</time>
      </trkpt>
      <trkpt lat="42.71281" lon="1.64743">
        <ele>1561.8</ele>
        <time>2020-02-08T11:50:42Z</time>
      </trkpt>
      <trkpt lat="42.71281" lon="1.64743">
        <ele>1561.8</ele>
        <time>2020-02-08T11:50:43Z</time>
      </trkpt>
      <trkpt lat="42.71281" lon="1.64742">
        <ele>1561.8</ele>
        <time>2020-02-08T11:50:44Z</time>
      </trkpt>
      <trkpt lat="42.71281" lon="1.64742">
        <ele>1561.8</ele>
        <time>2020-02-08T11:50:45Z</time>
      </trkpt>
      <trkpt lat="42.71281" lon="1.64742">
        <ele>1561.8</ele>
        <time>2020-02-08T11:50:46Z</time>
      </trkpt>
      <trkpt lat="42.71282" lon="1.64742">
        <ele>1561.8</ele>
        <time>2020-02-08T11:50:47Z</time>
      </trkpt>
      <trkpt lat="42.71282" lon="1.64741">
        <ele>1561.8</ele>
        <time>2020-02-08T11:50:48Z</time>
      </trkpt>
      <trkpt lat="42.71282" lon="1.64741">
        <ele>1561.8</ele>
        <time>2020-02-08T11:50:49Z</time>
      </trkpt>
      <trkpt lat="42.71282" lon="1.64741">
        <ele>1561.8</ele>
        <time>2020-02-08T11:50:50Z</time>
      </trkpt>
      <trkpt lat="42.71282" lon="1.64741">
        <ele>1561.8</ele>
        <time>2020-02-08T11:50:51Z</time>
      </trkpt>
      <trkpt lat="42.71282" lon="1.64741">
        <ele>1561.8</ele>
        <time>2020-02-08T11:50:52Z</time>
      </trkpt>
      <trkpt lat="42.71282" lon="1.64741">
        <ele>1561.8</ele>
        <time>2020-02-08T11:50:53Z</time>
      </trkpt>
      <trkpt lat="42.71282" lon="1.64741">
        <ele>1561.8</ele>
        <time>2020-02-08T11:50:54Z</time>
      </trkpt>
      <trkpt lat="42.71282" lon="1.64741">
        <ele>1561.8</ele>
        <time>2020-02-08T11:50:55Z</time>
      </trkpt>
      <trkpt lat="42.71282" lon="1.64741">
        <ele>1561.8</ele>
        <time>2020-02-08T11:50:56Z</time>
      </trkpt>
      <trkpt lat="42.71282" lon="1.64741">
        <ele>1561.8</ele>
        <time>2020-02-08T11:50:57Z</time>
      </trkpt>
      <trkpt lat="42.71282" lon="1.64741">
        <ele>1561.8</ele>
        <time>2020-02-08T11:50:58Z</time>
      </trkpt>
      <trkpt lat="42.71282" lon="1.64741">
        <ele>1561.8</ele>
        <time>2020-02-08T11:50:59Z</time>
      </trkpt>
      <trkpt lat="42.71282" lon="1.64741">
        <ele>1561.8</ele>
        <time>2020-02-08T11:51:00Z</time>
      </trkpt>
      <trkpt lat="42.71282" lon="1.6474">
        <ele>1561.8</ele>
        <time>2020-02-08T11:51:01Z</time>
      </trkpt>
      <trkpt lat="42.71283" lon="1.6474">
        <ele>1561.8</ele>
        <time>2020-02-08T11:51:02Z</time>
      </trkpt>
      <trkpt lat="42.71283" lon="1.64739">
        <ele>1561.8</ele>
        <time>2020-02-08T11:51:03Z</time>
      </trkpt>
      <trkpt lat="42.71283" lon="1.64739">
        <ele>1563.8</ele>
        <time>2020-02-08T11:51:04Z</time>
      </trkpt>
      <trkpt lat="42.71284" lon="1.64739">
        <ele>1563.8</ele>
        <time>2020-02-08T11:51:05Z</time>
      </trkpt>
      <trkpt lat="42.71284" lon="1.64738">
        <ele>1563.8</ele>
        <time>2020-02-08T11:51:06Z</time>
      </trkpt>
      <trkpt lat="42.71284" lon="1.64738">
        <ele>1564.8</ele>
        <time>2020-02-08T11:51:07Z</time>
      </trkpt>
      <trkpt lat="42.71285" lon="1.64737">
        <ele>1564.8</ele>
        <time>2020-02-08T11:51:08Z</time>
      </trkpt>
      <trkpt lat="42.71285" lon="1.64737">
        <ele>1564.8</ele>
        <time>2020-02-08T11:51:09Z</time>
      </trkpt>
      <trkpt lat="42.71285" lon="1.64736">
        <ele>1564.8</ele>
        <time>2020-02-08T11:51:10Z</time>
      </trkpt>
      <trkpt lat="42.71286" lon="1.64736">
        <ele>1564.8</ele>
        <time>2020-02-08T11:51:11Z</time>
      </trkpt>
      <trkpt lat="42.71286" lon="1.64735">
        <ele>1564.8</ele>
        <time>2020-02-08T11:51:12Z</time>
      </trkpt>
      <trkpt lat="42.71286" lon="1.64735">
        <ele>1564.8</ele>
        <time>2020-02-08T11:51:13Z</time>
      </trkpt>
      <trkpt lat="42.71287" lon="1.64735">
        <ele>1566.9</ele>
        <time>2020-02-08T11:51:14Z</time>
      </trkpt>
      <trkpt lat="42.71287" lon="1.64734">
        <ele>1566.9</ele>
        <time>2020-02-08T11:51:15Z</time>
      </trkpt>
      <trkpt lat="42.71287" lon="1.64734">
        <ele>1567.8</ele>
        <time>2020-02-08T11:51:16Z</time>
      </trkpt>
      <trkpt lat="42.71288" lon="1.64733">
        <ele>1567.8</ele>
        <time>2020-02-08T11:51:17Z</time>
      </trkpt>
      <trkpt lat="42.71288" lon="1.64733">
        <ele>1567.8</ele>
        <time>2020-02-08T11:51:18Z</time>
      </trkpt>
      <trkpt lat="42.71288" lon="1.64732">
        <ele>1567.8</ele>
        <time>2020-02-08T11:51:19Z</time>
      </trkpt>
      <trkpt lat="42.71288" lon="1.64732">
        <ele>1567.8</ele>
        <time>2020-02-08T11:51:20Z</time>
      </trkpt>
      <trkpt lat="42.71289" lon="1.64731">
        <ele>1567.8</ele>
        <time>2020-02-08T11:51:21Z</time>
      </trkpt>
      <trkpt lat="42.71289" lon="1.64731">
        <ele>1569.9</ele>
        <time>2020-02-08T11:51:22Z</time>
      </trkpt>
      <trkpt lat="42.71289" lon="1.6473">
        <ele>1569.9</ele>
        <time>2020-02-08T11:51:23Z</time>
      </trkpt>
      <trkpt lat="42.71289" lon="1.64729">
        <ele>1569.9</ele>
        <time>2020-02-08T11:51:24Z</time>
      </trkpt>
      <trkpt lat="42.71289" lon="1.64729">
        <ele>1569.9</ele>
        <time>2020-02-08T11:51:25Z</time>
      </trkpt>
      <trkpt lat="42.7129" lon="1.64728">
        <ele>1569.9</ele>
        <time>2020-02-08T11:51:26Z</time>
      </trkpt>
      <trkpt lat="42.7129" lon="1.64727">
        <ele>1569.9</ele>
        <time>2020-02-08T11:51:27Z</time>
      </trkpt>
      <trkpt lat="42.7129" lon="1.64727">
        <ele>1569.9</ele>
        <time>2020-02-08T11:51:28Z</time>
      </trkpt>
      <trkpt lat="42.7129" lon="1.64726">
        <ele>1572</ele>
        <time>2020-02-08T11:51:29Z</time>
      </trkpt>
      <trkpt lat="42.71291" lon="1.64725">
        <ele>1572.8</ele>
        <time>2020-02-08T11:51:30Z</time>
      </trkpt>
      <trkpt lat="42.71292" lon="1.64725">
        <ele>1572.8</ele>
        <time>2020-02-08T11:51:31Z</time>
      </trkpt>
      <trkpt lat="42.71292" lon="1.64724">
        <ele>1572.8</ele>
        <time>2020-02-08T11:51:32Z</time>
      </trkpt>
      <trkpt lat="42.71293" lon="1.64723">
        <ele>1572.8</ele>
        <time>2020-02-08T11:51:33Z</time>
      </trkpt>
      <trkpt lat="42.71294" lon="1.64722">
        <ele>1573.6</ele>
        <time>2020-02-08T11:51:34Z</time>
      </trkpt>
      <trkpt lat="42.71295" lon="1.64722">
        <ele>1575.6</ele>
        <time>2020-02-08T11:51:35Z</time>
      </trkpt>
      <trkpt lat="42.71295" lon="1.64721">
        <ele>1575.6</ele>
        <time>2020-02-08T11:51:36Z</time>
      </trkpt>
      <trkpt lat="42.71296" lon="1.6472">
        <ele>1575.6</ele>
        <time>2020-02-08T11:51:37Z</time>
      </trkpt>
      <trkpt lat="42.71297" lon="1.64719">
        <ele>1576.4</ele>
        <time>2020-02-08T11:51:38Z</time>
      </trkpt>
      <trkpt lat="42.71298" lon="1.64719">
        <ele>1576.4</ele>
        <time>2020-02-08T11:51:39Z</time>
      </trkpt>
      <trkpt lat="42.71298" lon="1.64719">
        <ele>1576.4</ele>
        <time>2020-02-08T11:51:40Z</time>
      </trkpt>
      <trkpt lat="42.71298" lon="1.64718">
        <ele>1576.4</ele>
        <time>2020-02-08T11:51:41Z</time>
      </trkpt>
      <trkpt lat="42.71298" lon="1.64718">
        <ele>1576.4</ele>
        <time>2020-02-08T11:51:42Z</time>
      </trkpt>
      <trkpt lat="42.71299" lon="1.64718">
        <ele>1576.4</ele>
        <time>2020-02-08T11:51:43Z</time>
      </trkpt>
      <trkpt lat="42.71299" lon="1.64718">
        <ele>1576.4</ele>
        <time>2020-02-08T11:51:44Z</time>
      </trkpt>
      <trkpt lat="42.71299" lon="1.64718">
        <ele>1576.4</ele>
        <time>2020-02-08T11:51:45Z</time>
      </trkpt>
      <trkpt lat="42.713" lon="1.64718">
        <ele>1578.3</ele>
        <time>2020-02-08T11:51:46Z</time>
      </trkpt>
      <trkpt lat="42.713" lon="1.64717">
        <ele>1578.3</ele>
        <time>2020-02-08T11:51:47Z</time>
      </trkpt>
      <trkpt lat="42.713" lon="1.64717">
        <ele>1579.1</ele>
        <time>2020-02-08T11:51:48Z</time>
      </trkpt>
      <trkpt lat="42.713" lon="1.64717">
        <ele>1579.1</ele>
        <time>2020-02-08T11:51:49Z</time>
      </trkpt>
      <trkpt lat="42.71301" lon="1.64717">
        <ele>1579.1</ele>
        <time>2020-02-08T11:51:50Z</time>
      </trkpt>
      <trkpt lat="42.71301" lon="1.64717">
        <ele>1579.1</ele>
        <time>2020-02-08T11:51:51Z</time>
      </trkpt>
      <trkpt lat="42.71301" lon="1.64717">
        <ele>1579.1</ele>
        <time>2020-02-08T11:51:52Z</time>
      </trkpt>
      <trkpt lat="42.71301" lon="1.64716">
        <ele>1579.1</ele>
        <time>2020-02-08T11:51:53Z</time>
      </trkpt>
      <trkpt lat="42.71302" lon="1.64716">
        <ele>1579.1</ele>
        <time>2020-02-08T11:51:54Z</time>
      </trkpt>
      <trkpt lat="42.71302" lon="1.64716">
        <ele>1579.1</ele>
        <time>2020-02-08T11:51:55Z</time>
      </trkpt>
      <trkpt lat="42.71302" lon="1.64716">
        <ele>1579.1</ele>
        <time>2020-02-08T11:51:56Z</time>
      </trkpt>
      <trkpt lat="42.71303" lon="1.64716">
        <ele>1579.1</ele>
        <time>2020-02-08T11:51:57Z</time>
      </trkpt>
      <trkpt lat="42.71303" lon="1.64716">
        <ele>1579.1</ele>
        <time>2020-02-08T11:51:58Z</time>
      </trkpt>
      <trkpt lat="42.71303" lon="1.64715">
        <ele>1580</ele>
        <time>2020-02-08T11:51:59Z</time>
      </trkpt>
      <trkpt lat="42.71303" lon="1.64715">
        <ele>1580</ele>
        <time>2020-02-08T11:52:00Z</time>
      </trkpt>
      <trkpt lat="42.71304" lon="1.64715">
        <ele>1580</ele>
        <time>2020-02-08T11:52:01Z</time>
      </trkpt>
      <trkpt lat="42.71304" lon="1.64715">
        <ele>1580</ele>
        <time>2020-02-08T11:52:02Z</time>
      </trkpt>
      <trkpt lat="42.71304" lon="1.64715">
        <ele>1580</ele>
        <time>2020-02-08T11:52:03Z</time>
      </trkpt>
      <trkpt lat="42.71305" lon="1.64715">
        <ele>1580</ele>
        <time>2020-02-08T11:52:04Z</time>
      </trkpt>
      <trkpt lat="42.71305" lon="1.64715">
        <ele>1580</ele>
        <time>2020-02-08T11:52:05Z</time>
      </trkpt>
      <trkpt lat="42.71305" lon="1.64714">
        <ele>1580</ele>
        <time>2020-02-08T11:52:06Z</time>
      </trkpt>
      <trkpt lat="42.71305" lon="1.64714">
        <ele>1580</ele>
        <time>2020-02-08T11:52:07Z</time>
      </trkpt>
      <trkpt lat="42.71306" lon="1.64714">
        <ele>1580</ele>
        <time>2020-02-08T11:52:08Z</time>
      </trkpt>
      <trkpt lat="42.71306" lon="1.64714">
        <ele>1580</ele>
        <time>2020-02-08T11:52:09Z</time>
      </trkpt>
      <trkpt lat="42.71306" lon="1.64714">
        <ele>1580</ele>
        <time>2020-02-08T11:52:10Z</time>
      </trkpt>
      <trkpt lat="42.71306" lon="1.64714">
        <ele>1580</ele>
        <time>2020-02-08T11:52:11Z</time>
      </trkpt>
      <trkpt lat="42.71306" lon="1.64714">
        <ele>1580</ele>
        <time>2020-02-08T11:52:12Z</time>
      </trkpt>
      <trkpt lat="42.71306" lon="1.64714">
        <ele>1580</ele>
        <time>2020-02-08T11:52:13Z</time>
      </trkpt>
      <trkpt lat="42.71306" lon="1.64714">
        <ele>1580</ele>
        <time>2020-02-08T11:52:14Z</time>
      </trkpt>
      <trkpt lat="42.71306" lon="1.64714">
        <ele>1580</ele>
        <time>2020-02-08T11:52:15Z</time>
      </trkpt>
      <trkpt lat="42.71306" lon="1.64714">
        <ele>1580</ele>
        <time>2020-02-08T11:52:16Z</time>
      </trkpt>
      <trkpt lat="42.71306" lon="1.64714">
        <ele>1580</ele>
        <time>2020-02-08T11:52:17Z</time>
      </trkpt>
      <trkpt lat="42.71306" lon="1.64714">
        <ele>1580</ele>
        <time>2020-02-08T11:52:18Z</time>
      </trkpt>
      <trkpt lat="42.71306" lon="1.64714">
        <ele>1580</ele>
        <time>2020-02-08T11:52:19Z</time>
      </trkpt>
      <trkpt lat="42.71306" lon="1.64714">
        <ele>1580</ele>
        <time>2020-02-08T11:52:20Z</time>
      </trkpt>
      <trkpt lat="42.71306" lon="1.64714">
        <ele>1580</ele>
        <time>2020-02-08T11:52:21Z</time>
      </trkpt>
      <trkpt lat="42.71306" lon="1.64714">
        <ele>1580</ele>
        <time>2020-02-08T11:52:22Z</time>
      </trkpt>
      <trkpt lat="42.71306" lon="1.64714">
        <ele>1580</ele>
        <time>2020-02-08T11:52:23Z</time>
      </trkpt>
      <trkpt lat="42.71306" lon="1.64714">
        <ele>1580</ele>
        <time>2020-02-08T11:52:24Z</time>
      </trkpt>
      <trkpt lat="42.71306" lon="1.64714">
        <ele>1580</ele>
        <time>2020-02-08T11:52:25Z</time>
      </trkpt>
      <trkpt lat="42.71306" lon="1.64714">
        <ele>1580</ele>
        <time>2020-02-08T11:52:26Z</time>
      </trkpt>
      <trkpt lat="42.71306" lon="1.64714">
        <ele>1580</ele>
        <time>2020-02-08T11:52:27Z</time>
      </trkpt>
      <trkpt lat="42.71306" lon="1.64714">
        <ele>1580</ele>
        <time>2020-02-08T11:52:28Z</time>
      </trkpt>
      <trkpt lat="42.71306" lon="1.64714">
        <ele>1580</ele>
        <time>2020-02-08T11:52:29Z</time>
      </trkpt>
      <trkpt lat="42.71308" lon="1.64716">
        <ele>1580.9</ele>
        <time>2020-02-08T11:52:30Z</time>
      </trkpt>
      <trkpt lat="42.71308" lon="1.64716">
        <ele>1580.9</ele>
        <time>2020-02-08T11:52:31Z</time>
      </trkpt>
      <trkpt lat="42.71308" lon="1.64716">
        <ele>1580.9</ele>
        <time>2020-02-08T11:52:32Z</time>
      </trkpt>
      <trkpt lat="42.71308" lon="1.64716">
        <ele>1580.9</ele>
        <time>2020-02-08T11:52:33Z</time>
      </trkpt>
      <trkpt lat="42.71308" lon="1.64716">
        <ele>1580.9</ele>
        <time>2020-02-08T11:52:34Z</time>
      </trkpt>
      <trkpt lat="42.71308" lon="1.64716">
        <ele>1580.9</ele>
        <time>2020-02-08T11:52:35Z</time>
      </trkpt>
      <trkpt lat="42.71308" lon="1.64716">
        <ele>1580.9</ele>
        <time>2020-02-08T11:52:36Z</time>
      </trkpt>
      <trkpt lat="42.71308" lon="1.64716">
        <ele>1580.9</ele>
        <time>2020-02-08T11:52:37Z</time>
      </trkpt>
      <trkpt lat="42.71308" lon="1.64716">
        <ele>1580.9</ele>
        <time>2020-02-08T11:52:38Z</time>
      </trkpt>
      <trkpt lat="42.71308" lon="1.64716">
        <ele>1580.9</ele>
        <time>2020-02-08T11:52:39Z</time>
      </trkpt>
      <trkpt lat="42.71308" lon="1.64716">
        <ele>1580.9</ele>
        <time>2020-02-08T11:52:40Z</time>
      </trkpt>
      <trkpt lat="42.71308" lon="1.64716">
        <ele>1580.9</ele>
        <time>2020-02-08T11:52:41Z</time>
      </trkpt>
      <trkpt lat="42.71308" lon="1.64716">
        <ele>1580.9</ele>
        <time>2020-02-08T11:52:42Z</time>
      </trkpt>
      <trkpt lat="42.71308" lon="1.64716">
        <ele>1580.9</ele>
        <time>2020-02-08T11:52:43Z</time>
      </trkpt>
      <trkpt lat="42.71308" lon="1.64716">
        <ele>1580.9</ele>
        <time>2020-02-08T11:52:44Z</time>
      </trkpt>
      <trkpt lat="42.71308" lon="1.64716">
        <ele>1580.9</ele>
        <time>2020-02-08T11:52:45Z</time>
      </trkpt>
      <trkpt lat="42.71304" lon="1.64718">
        <ele>1578.2</ele>
        <time>2020-02-08T11:52:46Z</time>
      </trkpt>
      <trkpt lat="42.71304" lon="1.64718">
        <ele>1578.2</ele>
        <time>2020-02-08T11:52:47Z</time>
      </trkpt>
      <trkpt lat="42.71304" lon="1.64718">
        <ele>1578.2</ele>
        <time>2020-02-08T11:52:48Z</time>
      </trkpt>
      <trkpt lat="42.71304" lon="1.64718">
        <ele>1578.2</ele>
        <time>2020-02-08T11:52:49Z</time>
      </trkpt>
      <trkpt lat="42.71305" lon="1.64718">
        <ele>1580</ele>
        <time>2020-02-08T11:52:50Z</time>
      </trkpt>
      <trkpt lat="42.71305" lon="1.64717">
        <ele>1580</ele>
        <time>2020-02-08T11:52:51Z</time>
      </trkpt>
      <trkpt lat="42.71306" lon="1.64717">
        <ele>1580</ele>
        <time>2020-02-08T11:52:52Z</time>
      </trkpt>
      <trkpt lat="42.71306" lon="1.64717">
        <ele>1580.9</ele>
        <time>2020-02-08T11:52:53Z</time>
      </trkpt>
      <trkpt lat="42.71307" lon="1.64717">
        <ele>1580.9</ele>
        <time>2020-02-08T11:52:54Z</time>
      </trkpt>
      <trkpt lat="42.71307" lon="1.64716">
        <ele>1580.9</ele>
        <time>2020-02-08T11:52:55Z</time>
      </trkpt>
      <trkpt lat="42.71307" lon="1.64716">
        <ele>1580.9</ele>
        <time>2020-02-08T11:52:56Z</time>
      </trkpt>
      <trkpt lat="42.71308" lon="1.64716">
        <ele>1580.9</ele>
        <time>2020-02-08T11:52:57Z</time>
      </trkpt>
      <trkpt lat="42.71308" lon="1.64716">
        <ele>1580.9</ele>
        <time>2020-02-08T11:52:58Z</time>
      </trkpt>
      <trkpt lat="42.71309" lon="1.64715">
        <ele>1580.9</ele>
        <time>2020-02-08T11:52:59Z</time>
      </trkpt>
      <trkpt lat="42.71309" lon="1.64715">
        <ele>1580.9</ele>
        <time>2020-02-08T11:53:00Z</time>
      </trkpt>
      <trkpt lat="42.7131" lon="1.64715">
        <ele>1581.9</ele>
        <time>2020-02-08T11:53:01Z</time>
      </trkpt>
      <trkpt lat="42.7131" lon="1.64715">
        <ele>1581.9</ele>
        <time>2020-02-08T11:53:02Z</time>
      </trkpt>
      <trkpt lat="42.71311" lon="1.64714">
        <ele>1581.9</ele>
        <time>2020-02-08T11:53:03Z</time>
      </trkpt>
      <trkpt lat="42.71311" lon="1.64714">
        <ele>1581.9</ele>
        <time>2020-02-08T11:53:04Z</time>
      </trkpt>
      <trkpt lat="42.71311" lon="1.64714">
        <ele>1581.9</ele>
        <time>2020-02-08T11:53:05Z</time>
      </trkpt>
      <trkpt lat="42.71312" lon="1.64714">
        <ele>1581.9</ele>
        <time>2020-02-08T11:53:06Z</time>
      </trkpt>
      <trkpt lat="42.71312" lon="1.64713">
        <ele>1583.6</ele>
        <time>2020-02-08T11:53:07Z</time>
      </trkpt>
      <trkpt lat="42.71313" lon="1.64713">
        <ele>1584.5</ele>
        <time>2020-02-08T11:53:08Z</time>
      </trkpt>
      <trkpt lat="42.71313" lon="1.64713">
        <ele>1584.5</ele>
        <time>2020-02-08T11:53:09Z</time>
      </trkpt>
      <trkpt lat="42.71314" lon="1.64713">
        <ele>1584.5</ele>
        <time>2020-02-08T11:53:10Z</time>
      </trkpt>
      <trkpt lat="42.71314" lon="1.64712">
        <ele>1584.5</ele>
        <time>2020-02-08T11:53:11Z</time>
      </trkpt>
      <trkpt lat="42.71314" lon="1.64712">
        <ele>1584.5</ele>
        <time>2020-02-08T11:53:12Z</time>
      </trkpt>
      <trkpt lat="42.71315" lon="1.64712">
        <ele>1584.5</ele>
        <time>2020-02-08T11:53:13Z</time>
      </trkpt>
      <trkpt lat="42.71315" lon="1.64712">
        <ele>1584.5</ele>
        <time>2020-02-08T11:53:14Z</time>
      </trkpt>
      <trkpt lat="42.71316" lon="1.64712">
        <ele>1585.3</ele>
        <time>2020-02-08T11:53:15Z</time>
      </trkpt>
      <trkpt lat="42.71316" lon="1.64712">
        <ele>1585.3</ele>
        <time>2020-02-08T11:53:16Z</time>
      </trkpt>
      <trkpt lat="42.71317" lon="1.64711">
        <ele>1585.3</ele>
        <time>2020-02-08T11:53:17Z</time>
      </trkpt>
      <trkpt lat="42.71317" lon="1.64711">
        <ele>1585.3</ele>
        <time>2020-02-08T11:53:18Z</time>
      </trkpt>
      <trkpt lat="42.71318" lon="1.64711">
        <ele>1585.3</ele>
        <time>2020-02-08T11:53:19Z</time>
      </trkpt>
      <trkpt lat="42.71318" lon="1.64711">
        <ele>1585.3</ele>
        <time>2020-02-08T11:53:20Z</time>
      </trkpt>
      <trkpt lat="42.71318" lon="1.64711">
        <ele>1585.3</ele>
        <time>2020-02-08T11:53:21Z</time>
      </trkpt>
      <trkpt lat="42.71319" lon="1.6471">
        <ele>1586.1</ele>
        <time>2020-02-08T11:53:22Z</time>
      </trkpt>
      <trkpt lat="42.71319" lon="1.6471">
        <ele>1586.1</ele>
        <time>2020-02-08T11:53:23Z</time>
      </trkpt>
      <trkpt lat="42.7132" lon="1.6471">
        <ele>1586.1</ele>
        <time>2020-02-08T11:53:24Z</time>
      </trkpt>
      <trkpt lat="42.7132" lon="1.6471">
        <ele>1586.1</ele>
        <time>2020-02-08T11:53:25Z</time>
      </trkpt>
      <trkpt lat="42.71321" lon="1.6471">
        <ele>1586.1</ele>
        <time>2020-02-08T11:53:26Z</time>
      </trkpt>
      <trkpt lat="42.71321" lon="1.6471">
        <ele>1586.1</ele>
        <time>2020-02-08T11:53:27Z</time>
      </trkpt>
      <trkpt lat="42.71321" lon="1.64709">
        <ele>1586.1</ele>
        <time>2020-02-08T11:53:28Z</time>
      </trkpt>
      <trkpt lat="42.71322" lon="1.64709">
        <ele>1586.1</ele>
        <time>2020-02-08T11:53:29Z</time>
      </trkpt>
      <trkpt lat="42.71322" lon="1.64709">
        <ele>1586.1</ele>
        <time>2020-02-08T11:53:30Z</time>
      </trkpt>
      <trkpt lat="42.71322" lon="1.64709">
        <ele>1586.1</ele>
        <time>2020-02-08T11:53:31Z</time>
      </trkpt>
      <trkpt lat="42.71322" lon="1.64709">
        <ele>1586.1</ele>
        <time>2020-02-08T11:53:32Z</time>
      </trkpt>
      <trkpt lat="42.71322" lon="1.64709">
        <ele>1586.1</ele>
        <time>2020-02-08T11:53:33Z</time>
      </trkpt>
      <trkpt lat="42.71322" lon="1.64709">
        <ele>1586.1</ele>
        <time>2020-02-08T11:53:34Z</time>
      </trkpt>
      <trkpt lat="42.71322" lon="1.64709">
        <ele>1586.1</ele>
        <time>2020-02-08T11:53:35Z</time>
      </trkpt>
      <trkpt lat="42.71322" lon="1.64709">
        <ele>1586.1</ele>
        <time>2020-02-08T11:53:36Z</time>
      </trkpt>
      <trkpt lat="42.71322" lon="1.64709">
        <ele>1586.1</ele>
        <time>2020-02-08T11:53:37Z</time>
      </trkpt>
      <trkpt lat="42.71322" lon="1.64709">
        <ele>1586.1</ele>
        <time>2020-02-08T11:53:38Z</time>
      </trkpt>
      <trkpt lat="42.71322" lon="1.64709">
        <ele>1586.1</ele>
        <time>2020-02-08T11:53:39Z</time>
      </trkpt>
      <trkpt lat="42.71322" lon="1.64709">
        <ele>1586.1</ele>
        <time>2020-02-08T11:53:40Z</time>
      </trkpt>
      <trkpt lat="42.71322" lon="1.64709">
        <ele>1586.1</ele>
        <time>2020-02-08T11:53:41Z</time>
      </trkpt>
      <trkpt lat="42.71322" lon="1.64709">
        <ele>1586.1</ele>
        <time>2020-02-08T11:53:42Z</time>
      </trkpt>
      <trkpt lat="42.71322" lon="1.64709">
        <ele>1586.1</ele>
        <time>2020-02-08T11:53:43Z</time>
      </trkpt>
      <trkpt lat="42.71322" lon="1.64706">
        <ele>1588.4</ele>
        <time>2020-02-08T11:53:44Z</time>
      </trkpt>
      <trkpt lat="42.71322" lon="1.64706">
        <ele>1588.4</ele>
        <time>2020-02-08T11:53:45Z</time>
      </trkpt>
      <trkpt lat="42.71324" lon="1.64705">
        <ele>1588.4</ele>
        <time>2020-02-08T11:53:46Z</time>
      </trkpt>
      <trkpt lat="42.71324" lon="1.64705">
        <ele>1588.4</ele>
        <time>2020-02-08T11:53:47Z</time>
      </trkpt>
      <trkpt lat="42.71324" lon="1.64705">
        <ele>1588.4</ele>
        <time>2020-02-08T11:53:48Z</time>
      </trkpt>
      <trkpt lat="42.71324" lon="1.64705">
        <ele>1588.4</ele>
        <time>2020-02-08T11:53:49Z</time>
      </trkpt>
      <trkpt lat="42.71324" lon="1.64704">
        <ele>1590</ele>
        <time>2020-02-08T11:53:50Z</time>
      </trkpt>
      <trkpt lat="42.71324" lon="1.64703">
        <ele>1590</ele>
        <time>2020-02-08T11:53:51Z</time>
      </trkpt>
      <trkpt lat="42.71324" lon="1.64703">
        <ele>1590</ele>
        <time>2020-02-08T11:53:52Z</time>
      </trkpt>
      <trkpt lat="42.71324" lon="1.64702">
        <ele>1590</ele>
        <time>2020-02-08T11:53:53Z</time>
      </trkpt>
      <trkpt lat="42.71324" lon="1.64701">
        <ele>1590</ele>
        <time>2020-02-08T11:53:54Z</time>
      </trkpt>
      <trkpt lat="42.71324" lon="1.647">
        <ele>1591.6</ele>
        <time>2020-02-08T11:53:55Z</time>
      </trkpt>
      <trkpt lat="42.71324" lon="1.647">
        <ele>1591.6</ele>
        <time>2020-02-08T11:53:56Z</time>
      </trkpt>
      <trkpt lat="42.71324" lon="1.64699">
        <ele>1591.6</ele>
        <time>2020-02-08T11:53:57Z</time>
      </trkpt>
      <trkpt lat="42.71324" lon="1.64698">
        <ele>1591.6</ele>
        <time>2020-02-08T11:53:58Z</time>
      </trkpt>
      <trkpt lat="42.71324" lon="1.64697">
        <ele>1591.6</ele>
        <time>2020-02-08T11:53:59Z</time>
      </trkpt>
      <trkpt lat="42.71324" lon="1.64697">
        <ele>1591.6</ele>
        <time>2020-02-08T11:54:00Z</time>
      </trkpt>
      <trkpt lat="42.71324" lon="1.64697">
        <ele>1591.6</ele>
        <time>2020-02-08T11:54:01Z</time>
      </trkpt>
      <trkpt lat="42.71324" lon="1.64697">
        <ele>1591.6</ele>
        <time>2020-02-08T11:54:02Z</time>
      </trkpt>
      <trkpt lat="42.71323" lon="1.64697">
        <ele>1591.6</ele>
        <time>2020-02-08T11:54:03Z</time>
      </trkpt>
      <trkpt lat="42.71323" lon="1.64697">
        <ele>1591.6</ele>
        <time>2020-02-08T11:54:04Z</time>
      </trkpt>
      <trkpt lat="42.71323" lon="1.64697">
        <ele>1591.6</ele>
        <time>2020-02-08T11:54:05Z</time>
      </trkpt>
      <trkpt lat="42.71323" lon="1.64697">
        <ele>1591.6</ele>
        <time>2020-02-08T11:54:06Z</time>
      </trkpt>
      <trkpt lat="42.71323" lon="1.64697">
        <ele>1591.6</ele>
        <time>2020-02-08T11:54:07Z</time>
      </trkpt>
      <trkpt lat="42.71322" lon="1.64697">
        <ele>1591.6</ele>
        <time>2020-02-08T11:54:08Z</time>
      </trkpt>
      <trkpt lat="42.71322" lon="1.64697">
        <ele>1591.6</ele>
        <time>2020-02-08T11:54:09Z</time>
      </trkpt>
      <trkpt lat="42.71322" lon="1.64697">
        <ele>1591.6</ele>
        <time>2020-02-08T11:54:10Z</time>
      </trkpt>
      <trkpt lat="42.71322" lon="1.64697">
        <ele>1591.6</ele>
        <time>2020-02-08T11:54:11Z</time>
      </trkpt>
      <trkpt lat="42.71322" lon="1.64697">
        <ele>1591.6</ele>
        <time>2020-02-08T11:54:12Z</time>
      </trkpt>
      <trkpt lat="42.71321" lon="1.64694">
        <ele>1592.7</ele>
        <time>2020-02-08T11:54:13Z</time>
      </trkpt>
      <trkpt lat="42.71321" lon="1.64694">
        <ele>1592.7</ele>
        <time>2020-02-08T11:54:14Z</time>
      </trkpt>
      <trkpt lat="42.71321" lon="1.64694">
        <ele>1592.7</ele>
        <time>2020-02-08T11:54:15Z</time>
      </trkpt>
      <trkpt lat="42.71321" lon="1.64694">
        <ele>1592.7</ele>
        <time>2020-02-08T11:54:16Z</time>
      </trkpt>
      <trkpt lat="42.7132" lon="1.64692">
        <ele>1592.7</ele>
        <time>2020-02-08T11:54:17Z</time>
      </trkpt>
      <trkpt lat="42.7132" lon="1.64692">
        <ele>1592.7</ele>
        <time>2020-02-08T11:54:18Z</time>
      </trkpt>
      <trkpt lat="42.7132" lon="1.64692">
        <ele>1592.7</ele>
        <time>2020-02-08T11:54:19Z</time>
      </trkpt>
      <trkpt lat="42.71319" lon="1.64689">
        <ele>1594.4</ele>
        <time>2020-02-08T11:54:20Z</time>
      </trkpt>
      <trkpt lat="42.71319" lon="1.64689">
        <ele>1594.4</ele>
        <time>2020-02-08T11:54:21Z</time>
      </trkpt>
      <trkpt lat="42.71319" lon="1.64689">
        <ele>1594.4</ele>
        <time>2020-02-08T11:54:22Z</time>
      </trkpt>
      <trkpt lat="42.71319" lon="1.64689">
        <ele>1594.4</ele>
        <time>2020-02-08T11:54:23Z</time>
      </trkpt>
      <trkpt lat="42.7132" lon="1.64688">
        <ele>1594.4</ele>
        <time>2020-02-08T11:54:24Z</time>
      </trkpt>
      <trkpt lat="42.7132" lon="1.64688">
        <ele>1594.4</ele>
        <time>2020-02-08T11:54:25Z</time>
      </trkpt>
      <trkpt lat="42.7132" lon="1.64688">
        <ele>1594.4</ele>
        <time>2020-02-08T11:54:26Z</time>
      </trkpt>
      <trkpt lat="42.7132" lon="1.64688">
        <ele>1594.4</ele>
        <time>2020-02-08T11:54:27Z</time>
      </trkpt>
      <trkpt lat="42.7132" lon="1.64687">
        <ele>1596.1</ele>
        <time>2020-02-08T11:54:28Z</time>
      </trkpt>
      <trkpt lat="42.7132" lon="1.64687">
        <ele>1596.1</ele>
        <time>2020-02-08T11:54:29Z</time>
      </trkpt>
      <trkpt lat="42.71322" lon="1.64685">
        <ele>1596.1</ele>
        <time>2020-02-08T11:54:30Z</time>
      </trkpt>
      <trkpt lat="42.71322" lon="1.64685">
        <ele>1596.1</ele>
        <time>2020-02-08T11:54:31Z</time>
      </trkpt>
      <trkpt lat="42.71322" lon="1.64685">
        <ele>1596.1</ele>
        <time>2020-02-08T11:54:32Z</time>
      </trkpt>
      <trkpt lat="42.71322" lon="1.64685">
        <ele>1596.1</ele>
        <time>2020-02-08T11:54:33Z</time>
      </trkpt>
      <trkpt lat="42.71322" lon="1.64685">
        <ele>1596.1</ele>
        <time>2020-02-08T11:54:34Z</time>
      </trkpt>
      <trkpt lat="42.71322" lon="1.64685">
        <ele>1596.1</ele>
        <time>2020-02-08T11:54:35Z</time>
      </trkpt>
      <trkpt lat="42.71322" lon="1.64685">
        <ele>1596.1</ele>
        <time>2020-02-08T11:54:36Z</time>
      </trkpt>
      <trkpt lat="42.71322" lon="1.64685">
        <ele>1596.1</ele>
        <time>2020-02-08T11:54:37Z</time>
      </trkpt>
      <trkpt lat="42.71322" lon="1.64685">
        <ele>1596.1</ele>
        <time>2020-02-08T11:54:38Z</time>
      </trkpt>
      <trkpt lat="42.71322" lon="1.64685">
        <ele>1596.1</ele>
        <time>2020-02-08T11:54:39Z</time>
      </trkpt>
      <trkpt lat="42.71322" lon="1.64685">
        <ele>1596.1</ele>
        <time>2020-02-08T11:54:40Z</time>
      </trkpt>
      <trkpt lat="42.71322" lon="1.64685">
        <ele>1596.1</ele>
        <time>2020-02-08T11:54:41Z</time>
      </trkpt>
      <trkpt lat="42.71322" lon="1.64685">
        <ele>1596.1</ele>
        <time>2020-02-08T11:54:42Z</time>
      </trkpt>
      <trkpt lat="42.71323" lon="1.6468">
        <ele>1598.2</ele>
        <time>2020-02-08T11:54:43Z</time>
      </trkpt>
      <trkpt lat="42.71323" lon="1.6468">
        <ele>1598.2</ele>
        <time>2020-02-08T11:54:44Z</time>
      </trkpt>
      <trkpt lat="42.71323" lon="1.6468">
        <ele>1598.2</ele>
        <time>2020-02-08T11:54:45Z</time>
      </trkpt>
      <trkpt lat="42.71323" lon="1.6468">
        <ele>1598.2</ele>
        <time>2020-02-08T11:54:46Z</time>
      </trkpt>
      <trkpt lat="42.71323" lon="1.6468">
        <ele>1598.2</ele>
        <time>2020-02-08T11:54:47Z</time>
      </trkpt>
      <trkpt lat="42.71323" lon="1.6468">
        <ele>1598.2</ele>
        <time>2020-02-08T11:54:48Z</time>
      </trkpt>
      <trkpt lat="42.71322" lon="1.64677">
        <ele>1599.2</ele>
        <time>2020-02-08T11:54:49Z</time>
      </trkpt>
      <trkpt lat="42.71322" lon="1.64677">
        <ele>1599.2</ele>
        <time>2020-02-08T11:54:50Z</time>
      </trkpt>
      <trkpt lat="42.71322" lon="1.64677">
        <ele>1599.2</ele>
        <time>2020-02-08T11:54:51Z</time>
      </trkpt>
      <trkpt lat="42.71322" lon="1.64677">
        <ele>1599.2</ele>
        <time>2020-02-08T11:54:52Z</time>
      </trkpt>
      <trkpt lat="42.71322" lon="1.64677">
        <ele>1599.2</ele>
        <time>2020-02-08T11:54:53Z</time>
      </trkpt>
      <trkpt lat="42.71322" lon="1.64677">
        <ele>1599.2</ele>
        <time>2020-02-08T11:54:54Z</time>
      </trkpt>
      <trkpt lat="42.71322" lon="1.64677">
        <ele>1599.2</ele>
        <time>2020-02-08T11:54:55Z</time>
      </trkpt>
      <trkpt lat="42.71322" lon="1.64677">
        <ele>1599.2</ele>
        <time>2020-02-08T11:54:56Z</time>
      </trkpt>
      <trkpt lat="42.71322" lon="1.64677">
        <ele>1599.2</ele>
        <time>2020-02-08T11:54:57Z</time>
      </trkpt>
      <trkpt lat="42.71322" lon="1.64677">
        <ele>1599.2</ele>
        <time>2020-02-08T11:54:58Z</time>
      </trkpt>
      <trkpt lat="42.71322" lon="1.64677">
        <ele>1599.2</ele>
        <time>2020-02-08T11:54:59Z</time>
      </trkpt>
      <trkpt lat="42.71322" lon="1.64677">
        <ele>1599.2</ele>
        <time>2020-02-08T11:55:00Z</time>
      </trkpt>
      <trkpt lat="42.71323" lon="1.64675">
        <ele>1599.7</ele>
        <time>2020-02-08T11:55:01Z</time>
      </trkpt>
      <trkpt lat="42.71323" lon="1.64675">
        <ele>1599.7</ele>
        <time>2020-02-08T11:55:02Z</time>
      </trkpt>
      <trkpt lat="42.71323" lon="1.64675">
        <ele>1599.7</ele>
        <time>2020-02-08T11:55:03Z</time>
      </trkpt>
      <trkpt lat="42.71323" lon="1.64675">
        <ele>1599.7</ele>
        <time>2020-02-08T11:55:04Z</time>
      </trkpt>
      <trkpt lat="42.71323" lon="1.64675">
        <ele>1599.7</ele>
        <time>2020-02-08T11:55:05Z</time>
      </trkpt>
      <trkpt lat="42.71323" lon="1.64675">
        <ele>1599.7</ele>
        <time>2020-02-08T11:55:06Z</time>
      </trkpt>
      <trkpt lat="42.71323" lon="1.64675">
        <ele>1599.7</ele>
        <time>2020-02-08T11:55:07Z</time>
      </trkpt>
      <trkpt lat="42.71323" lon="1.64675">
        <ele>1599.7</ele>
        <time>2020-02-08T11:55:08Z</time>
      </trkpt>
      <trkpt lat="42.71323" lon="1.64675">
        <ele>1599.7</ele>
        <time>2020-02-08T11:55:09Z</time>
      </trkpt>
      <trkpt lat="42.71323" lon="1.64675">
        <ele>1599.7</ele>
        <time>2020-02-08T11:55:10Z</time>
      </trkpt>
      <trkpt lat="42.71323" lon="1.64675">
        <ele>1599.7</ele>
        <time>2020-02-08T11:55:11Z</time>
      </trkpt>
      <trkpt lat="42.71323" lon="1.64675">
        <ele>1599.7</ele>
        <time>2020-02-08T11:55:12Z</time>
      </trkpt>
      <trkpt lat="42.71323" lon="1.64675">
        <ele>1599.7</ele>
        <time>2020-02-08T11:55:13Z</time>
      </trkpt>
      <trkpt lat="42.71323" lon="1.64675">
        <ele>1599.7</ele>
        <time>2020-02-08T11:55:14Z</time>
      </trkpt>
      <trkpt lat="42.71323" lon="1.64675">
        <ele>1599.7</ele>
        <time>2020-02-08T11:55:15Z</time>
      </trkpt>
      <trkpt lat="42.71323" lon="1.64675">
        <ele>1599.7</ele>
        <time>2020-02-08T11:55:16Z</time>
      </trkpt>
      <trkpt lat="42.71323" lon="1.64675">
        <ele>1599.7</ele>
        <time>2020-02-08T11:55:17Z</time>
      </trkpt>
      <trkpt lat="42.71323" lon="1.64675">
        <ele>1599.7</ele>
        <time>2020-02-08T11:55:18Z</time>
      </trkpt>
      <trkpt lat="42.71323" lon="1.64675">
        <ele>1599.7</ele>
        <time>2020-02-08T11:55:19Z</time>
      </trkpt>
      <trkpt lat="42.71323" lon="1.64675">
        <ele>1599.7</ele>
        <time>2020-02-08T11:55:20Z</time>
      </trkpt>
      <trkpt lat="42.71323" lon="1.64675">
        <ele>1599.7</ele>
        <time>2020-02-08T11:55:21Z</time>
      </trkpt>
      <trkpt lat="42.71323" lon="1.64675">
        <ele>1599.7</ele>
        <time>2020-02-08T11:55:22Z</time>
      </trkpt>
      <trkpt lat="42.71323" lon="1.64675">
        <ele>1599.7</ele>
        <time>2020-02-08T11:55:23Z</time>
      </trkpt>
      <trkpt lat="42.71323" lon="1.64675">
        <ele>1599.7</ele>
        <time>2020-02-08T11:55:24Z</time>
      </trkpt>
      <trkpt lat="42.71323" lon="1.64675">
        <ele>1599.7</ele>
        <time>2020-02-08T11:55:25Z</time>
      </trkpt>
      <trkpt lat="42.71323" lon="1.64675">
        <ele>1599.7</ele>
        <time>2020-02-08T11:55:26Z</time>
      </trkpt>
      <trkpt lat="42.71323" lon="1.64675">
        <ele>1599.7</ele>
        <time>2020-02-08T11:55:27Z</time>
      </trkpt>
      <trkpt lat="42.71323" lon="1.64675">
        <ele>1599.7</ele>
        <time>2020-02-08T11:55:28Z</time>
      </trkpt>
      <trkpt lat="42.71323" lon="1.64675">
        <ele>1599.7</ele>
        <time>2020-02-08T11:55:29Z</time>
      </trkpt>
      <trkpt lat="42.71324" lon="1.64673">
        <ele>1601.2</ele>
        <time>2020-02-08T11:55:30Z</time>
      </trkpt>
      <trkpt lat="42.71324" lon="1.64673">
        <ele>1601.2</ele>
        <time>2020-02-08T11:55:31Z</time>
      </trkpt>
      <trkpt lat="42.71324" lon="1.64673">
        <ele>1601.2</ele>
        <time>2020-02-08T11:55:32Z</time>
      </trkpt>
      <trkpt lat="42.71324" lon="1.64673">
        <ele>1601.2</ele>
        <time>2020-02-08T11:55:33Z</time>
      </trkpt>
      <trkpt lat="42.71324" lon="1.64673">
        <ele>1601.2</ele>
        <time>2020-02-08T11:55:34Z</time>
      </trkpt>
      <trkpt lat="42.71324" lon="1.64673">
        <ele>1601.2</ele>
        <time>2020-02-08T11:55:35Z</time>
      </trkpt>
      <trkpt lat="42.71324" lon="1.64673">
        <ele>1601.2</ele>
        <time>2020-02-08T11:55:36Z</time>
      </trkpt>
      <trkpt lat="42.71324" lon="1.64673">
        <ele>1601.2</ele>
        <time>2020-02-08T11:55:37Z</time>
      </trkpt>
      <trkpt lat="42.71324" lon="1.64673">
        <ele>1601.2</ele>
        <time>2020-02-08T11:55:38Z</time>
      </trkpt>
      <trkpt lat="42.71324" lon="1.64673">
        <ele>1601.2</ele>
        <time>2020-02-08T11:55:39Z</time>
      </trkpt>
      <trkpt lat="42.71324" lon="1.64673">
        <ele>1601.2</ele>
        <time>2020-02-08T11:55:40Z</time>
      </trkpt>
      <trkpt lat="42.71324" lon="1.64673">
        <ele>1601.2</ele>
        <time>2020-02-08T11:55:41Z</time>
      </trkpt>
      <trkpt lat="42.71324" lon="1.64673">
        <ele>1601.2</ele>
        <time>2020-02-08T11:55:42Z</time>
      </trkpt>
      <trkpt lat="42.71324" lon="1.64673">
        <ele>1601.2</ele>
        <time>2020-02-08T11:55:43Z</time>
      </trkpt>
      <trkpt lat="42.71324" lon="1.64673">
        <ele>1601.2</ele>
        <time>2020-02-08T11:55:44Z</time>
      </trkpt>
      <trkpt lat="42.71324" lon="1.64673">
        <ele>1601.2</ele>
        <time>2020-02-08T11:55:45Z</time>
      </trkpt>
      <trkpt lat="42.71324" lon="1.64673">
        <ele>1601.2</ele>
        <time>2020-02-08T11:55:46Z</time>
      </trkpt>
      <trkpt lat="42.71324" lon="1.64673">
        <ele>1601.2</ele>
        <time>2020-02-08T11:55:47Z</time>
      </trkpt>
      <trkpt lat="42.71323" lon="1.64671">
        <ele>1601.2</ele>
        <time>2020-02-08T11:55:48Z</time>
      </trkpt>
      <trkpt lat="42.71323" lon="1.64671">
        <ele>1601.2</ele>
        <time>2020-02-08T11:55:49Z</time>
      </trkpt>
      <trkpt lat="42.71323" lon="1.64671">
        <ele>1601.2</ele>
        <time>2020-02-08T11:55:50Z</time>
      </trkpt>
      <trkpt lat="42.71323" lon="1.64671">
        <ele>1601.2</ele>
        <time>2020-02-08T11:55:51Z</time>
      </trkpt>
      <trkpt lat="42.71323" lon="1.64671">
        <ele>1601.2</ele>
        <time>2020-02-08T11:55:52Z</time>
      </trkpt>
      <trkpt lat="42.71323" lon="1.64669">
        <ele>1602.6</ele>
        <time>2020-02-08T11:55:53Z</time>
      </trkpt>
      <trkpt lat="42.71323" lon="1.64669">
        <ele>1602.6</ele>
        <time>2020-02-08T11:55:54Z</time>
      </trkpt>
      <trkpt lat="42.71323" lon="1.64669">
        <ele>1602.6</ele>
        <time>2020-02-08T11:55:55Z</time>
      </trkpt>
      <trkpt lat="42.71323" lon="1.64669">
        <ele>1602.6</ele>
        <time>2020-02-08T11:55:56Z</time>
      </trkpt>
      <trkpt lat="42.71323" lon="1.64669">
        <ele>1602.6</ele>
        <time>2020-02-08T11:55:57Z</time>
      </trkpt>
      <trkpt lat="42.71323" lon="1.64669">
        <ele>1602.6</ele>
        <time>2020-02-08T11:55:58Z</time>
      </trkpt>
      <trkpt lat="42.71323" lon="1.64669">
        <ele>1602.6</ele>
        <time>2020-02-08T11:55:59Z</time>
      </trkpt>
      <trkpt lat="42.71323" lon="1.64668">
        <ele>1602.6</ele>
        <time>2020-02-08T11:56:00Z</time>
      </trkpt>
      <trkpt lat="42.71323" lon="1.64667">
        <ele>1602.6</ele>
        <time>2020-02-08T11:56:01Z</time>
      </trkpt>
      <trkpt lat="42.71323" lon="1.64666">
        <ele>1604</ele>
        <time>2020-02-08T11:56:02Z</time>
      </trkpt>
      <trkpt lat="42.71323" lon="1.64665">
        <ele>1604</ele>
        <time>2020-02-08T11:56:03Z</time>
      </trkpt>
      <trkpt lat="42.71323" lon="1.64664">
        <ele>1604</ele>
        <time>2020-02-08T11:56:04Z</time>
      </trkpt>
      <trkpt lat="42.71323" lon="1.64663">
        <ele>1604</ele>
        <time>2020-02-08T11:56:05Z</time>
      </trkpt>
      <trkpt lat="42.71323" lon="1.64662">
        <ele>1604</ele>
        <time>2020-02-08T11:56:06Z</time>
      </trkpt>
      <trkpt lat="42.71323" lon="1.64662">
        <ele>1605.3</ele>
        <time>2020-02-08T11:56:07Z</time>
      </trkpt>
      <trkpt lat="42.71323" lon="1.64661">
        <ele>1605.3</ele>
        <time>2020-02-08T11:56:08Z</time>
      </trkpt>
      <trkpt lat="42.71323" lon="1.6466">
        <ele>1605.3</ele>
        <time>2020-02-08T11:56:09Z</time>
      </trkpt>
      <trkpt lat="42.71323" lon="1.6466">
        <ele>1605.3</ele>
        <time>2020-02-08T11:56:10Z</time>
      </trkpt>
      <trkpt lat="42.71323" lon="1.64659">
        <ele>1605.3</ele>
        <time>2020-02-08T11:56:11Z</time>
      </trkpt>
      <trkpt lat="42.71323" lon="1.64659">
        <ele>1605.3</ele>
        <time>2020-02-08T11:56:12Z</time>
      </trkpt>
      <trkpt lat="42.71323" lon="1.64659">
        <ele>1605.3</ele>
        <time>2020-02-08T11:56:13Z</time>
      </trkpt>
      <trkpt lat="42.71323" lon="1.64658">
        <ele>1605.3</ele>
        <time>2020-02-08T11:56:14Z</time>
      </trkpt>
      <trkpt lat="42.71323" lon="1.64658">
        <ele>1605.3</ele>
        <time>2020-02-08T11:56:15Z</time>
      </trkpt>
      <trkpt lat="42.71323" lon="1.64658">
        <ele>1606.7</ele>
        <time>2020-02-08T11:56:16Z</time>
      </trkpt>
      <trkpt lat="42.71323" lon="1.64657">
        <ele>1606.7</ele>
        <time>2020-02-08T11:56:17Z</time>
      </trkpt>
      <trkpt lat="42.71323" lon="1.64657">
        <ele>1606.7</ele>
        <time>2020-02-08T11:56:18Z</time>
      </trkpt>
      <trkpt lat="42.71323" lon="1.64657">
        <ele>1606.7</ele>
        <time>2020-02-08T11:56:19Z</time>
      </trkpt>
      <trkpt lat="42.71323" lon="1.64657">
        <ele>1606.7</ele>
        <time>2020-02-08T11:56:20Z</time>
      </trkpt>
      <trkpt lat="42.71323" lon="1.64657">
        <ele>1606.7</ele>
        <time>2020-02-08T11:56:21Z</time>
      </trkpt>
      <trkpt lat="42.71323" lon="1.64657">
        <ele>1606.7</ele>
        <time>2020-02-08T11:56:22Z</time>
      </trkpt>
      <trkpt lat="42.71324" lon="1.64654">
        <ele>1606.7</ele>
        <time>2020-02-08T11:56:23Z</time>
      </trkpt>
      <trkpt lat="42.71324" lon="1.64654">
        <ele>1606.7</ele>
        <time>2020-02-08T11:56:24Z</time>
      </trkpt>
      <trkpt lat="42.71324" lon="1.64654">
        <ele>1606.7</ele>
        <time>2020-02-08T11:56:25Z</time>
      </trkpt>
      <trkpt lat="42.71324" lon="1.64654">
        <ele>1606.7</ele>
        <time>2020-02-08T11:56:26Z</time>
      </trkpt>
      <trkpt lat="42.71324" lon="1.64654">
        <ele>1606.7</ele>
        <time>2020-02-08T11:56:27Z</time>
      </trkpt>
      <trkpt lat="42.71324" lon="1.64654">
        <ele>1606.7</ele>
        <time>2020-02-08T11:56:28Z</time>
      </trkpt>
      <trkpt lat="42.71324" lon="1.64654">
        <ele>1606.7</ele>
        <time>2020-02-08T11:56:29Z</time>
      </trkpt>
      <trkpt lat="42.71324" lon="1.64652">
        <ele>1608</ele>
        <time>2020-02-08T11:56:30Z</time>
      </trkpt>
      <trkpt lat="42.71324" lon="1.64652">
        <ele>1608</ele>
        <time>2020-02-08T11:56:31Z</time>
      </trkpt>
      <trkpt lat="42.71324" lon="1.64652">
        <ele>1608</ele>
        <time>2020-02-08T11:56:32Z</time>
      </trkpt>
      <trkpt lat="42.71324" lon="1.64652">
        <ele>1608</ele>
        <time>2020-02-08T11:56:33Z</time>
      </trkpt>
      <trkpt lat="42.71324" lon="1.64652">
        <ele>1608</ele>
        <time>2020-02-08T11:56:34Z</time>
      </trkpt>
      <trkpt lat="42.71324" lon="1.64652">
        <ele>1608</ele>
        <time>2020-02-08T11:56:35Z</time>
      </trkpt>
      <trkpt lat="42.71322" lon="1.64651">
        <ele>1607.6</ele>
        <time>2020-02-08T11:56:36Z</time>
      </trkpt>
      <trkpt lat="42.71322" lon="1.64651">
        <ele>1607.6</ele>
        <time>2020-02-08T11:56:37Z</time>
      </trkpt>
      <trkpt lat="42.71322" lon="1.64651">
        <ele>1607.6</ele>
        <time>2020-02-08T11:56:38Z</time>
      </trkpt>
      <trkpt lat="42.71322" lon="1.64651">
        <ele>1607.6</ele>
        <time>2020-02-08T11:56:39Z</time>
      </trkpt>
      <trkpt lat="42.71322" lon="1.64651">
        <ele>1607.6</ele>
        <time>2020-02-08T11:56:40Z</time>
      </trkpt>
      <trkpt lat="42.71322" lon="1.64651">
        <ele>1607.6</ele>
        <time>2020-02-08T11:56:41Z</time>
      </trkpt>
      <trkpt lat="42.71322" lon="1.64651">
        <ele>1607.6</ele>
        <time>2020-02-08T11:56:42Z</time>
      </trkpt>
      <trkpt lat="42.71322" lon="1.64651">
        <ele>1607.6</ele>
        <time>2020-02-08T11:56:43Z</time>
      </trkpt>
      <trkpt lat="42.71322" lon="1.64651">
        <ele>1607.6</ele>
        <time>2020-02-08T11:56:44Z</time>
      </trkpt>
      <trkpt lat="42.7132" lon="1.64646">
        <ele>1609</ele>
        <time>2020-02-08T11:56:45Z</time>
      </trkpt>
      <trkpt lat="42.7132" lon="1.64646">
        <ele>1609</ele>
        <time>2020-02-08T11:56:46Z</time>
      </trkpt>
      <trkpt lat="42.7132" lon="1.64646">
        <ele>1609</ele>
        <time>2020-02-08T11:56:47Z</time>
      </trkpt>
      <trkpt lat="42.7132" lon="1.64646">
        <ele>1609</ele>
        <time>2020-02-08T11:56:48Z</time>
      </trkpt>
      <trkpt lat="42.7132" lon="1.64646">
        <ele>1609</ele>
        <time>2020-02-08T11:56:49Z</time>
      </trkpt>
      <trkpt lat="42.7132" lon="1.64645">
        <ele>1609</ele>
        <time>2020-02-08T11:56:50Z</time>
      </trkpt>
      <trkpt lat="42.7132" lon="1.64644">
        <ele>1610.4</ele>
        <time>2020-02-08T11:56:51Z</time>
      </trkpt>
      <trkpt lat="42.7132" lon="1.64643">
        <ele>1610.4</ele>
        <time>2020-02-08T11:56:52Z</time>
      </trkpt>
      <trkpt lat="42.7132" lon="1.64643">
        <ele>1610.4</ele>
        <time>2020-02-08T11:56:53Z</time>
      </trkpt>
      <trkpt lat="42.7132" lon="1.64642">
        <ele>1610.4</ele>
        <time>2020-02-08T11:56:54Z</time>
      </trkpt>
      <trkpt lat="42.71319" lon="1.64641">
        <ele>1610.4</ele>
        <time>2020-02-08T11:56:55Z</time>
      </trkpt>
      <trkpt lat="42.71319" lon="1.6464">
        <ele>1611.8</ele>
        <time>2020-02-08T11:56:56Z</time>
      </trkpt>
      <trkpt lat="42.71319" lon="1.64639">
        <ele>1611.8</ele>
        <time>2020-02-08T11:56:57Z</time>
      </trkpt>
      <trkpt lat="42.71319" lon="1.64638">
        <ele>1611.8</ele>
        <time>2020-02-08T11:56:58Z</time>
      </trkpt>
      <trkpt lat="42.71319" lon="1.64638">
        <ele>1611.4</ele>
        <time>2020-02-08T11:56:59Z</time>
      </trkpt>
      <trkpt lat="42.71319" lon="1.64638">
        <ele>1611.4</ele>
        <time>2020-02-08T11:57:00Z</time>
      </trkpt>
      <trkpt lat="42.71318" lon="1.64635">
        <ele>1612.7</ele>
        <time>2020-02-08T11:57:01Z</time>
      </trkpt>
      <trkpt lat="42.71318" lon="1.64635">
        <ele>1612.7</ele>
        <time>2020-02-08T11:57:02Z</time>
      </trkpt>
      <trkpt lat="42.71318" lon="1.64635">
        <ele>1612.7</ele>
        <time>2020-02-08T11:57:03Z</time>
      </trkpt>
      <trkpt lat="42.71318" lon="1.64635">
        <ele>1612.7</ele>
        <time>2020-02-08T11:57:04Z</time>
      </trkpt>
      <trkpt lat="42.71318" lon="1.64635">
        <ele>1612.7</ele>
        <time>2020-02-08T11:57:05Z</time>
      </trkpt>
      <trkpt lat="42.71318" lon="1.64635">
        <ele>1612.7</ele>
        <time>2020-02-08T11:57:06Z</time>
      </trkpt>
      <trkpt lat="42.71318" lon="1.64635">
        <ele>1612.7</ele>
        <time>2020-02-08T11:57:07Z</time>
      </trkpt>
      <trkpt lat="42.71318" lon="1.64635">
        <ele>1612.7</ele>
        <time>2020-02-08T11:57:08Z</time>
      </trkpt>
      <trkpt lat="42.71318" lon="1.64635">
        <ele>1612.7</ele>
        <time>2020-02-08T11:57:09Z</time>
      </trkpt>
      <trkpt lat="42.71318" lon="1.64634">
        <ele>1612.7</ele>
        <time>2020-02-08T11:57:10Z</time>
      </trkpt>
      <trkpt lat="42.71319" lon="1.64634">
        <ele>1612.7</ele>
        <time>2020-02-08T11:57:11Z</time>
      </trkpt>
      <trkpt lat="42.71319" lon="1.64633">
        <ele>1613</ele>
        <time>2020-02-08T11:57:12Z</time>
      </trkpt>
      <trkpt lat="42.71319" lon="1.64632">
        <ele>1613</ele>
        <time>2020-02-08T11:57:13Z</time>
      </trkpt>
      <trkpt lat="42.71319" lon="1.64632">
        <ele>1614.2</ele>
        <time>2020-02-08T11:57:14Z</time>
      </trkpt>
      <trkpt lat="42.71319" lon="1.64631">
        <ele>1614.2</ele>
        <time>2020-02-08T11:57:15Z</time>
      </trkpt>
      <trkpt lat="42.7132" lon="1.6463">
        <ele>1614.2</ele>
        <time>2020-02-08T11:57:16Z</time>
      </trkpt>
      <trkpt lat="42.7132" lon="1.6463">
        <ele>1614.2</ele>
        <time>2020-02-08T11:57:17Z</time>
      </trkpt>
      <trkpt lat="42.7132" lon="1.64629">
        <ele>1614.2</ele>
        <time>2020-02-08T11:57:18Z</time>
      </trkpt>
      <trkpt lat="42.7132" lon="1.64628">
        <ele>1614.2</ele>
        <time>2020-02-08T11:57:19Z</time>
      </trkpt>
      <trkpt lat="42.7132" lon="1.64627">
        <ele>1615.4</ele>
        <time>2020-02-08T11:57:20Z</time>
      </trkpt>
      <trkpt lat="42.7132" lon="1.64626">
        <ele>1615.4</ele>
        <time>2020-02-08T11:57:21Z</time>
      </trkpt>
      <trkpt lat="42.7132" lon="1.64626">
        <ele>1615.4</ele>
        <time>2020-02-08T11:57:22Z</time>
      </trkpt>
      <trkpt lat="42.7132" lon="1.64625">
        <ele>1615.4</ele>
        <time>2020-02-08T11:57:23Z</time>
      </trkpt>
      <trkpt lat="42.7132" lon="1.64624">
        <ele>1615.4</ele>
        <time>2020-02-08T11:57:24Z</time>
      </trkpt>
      <trkpt lat="42.7132" lon="1.64623">
        <ele>1616.4</ele>
        <time>2020-02-08T11:57:25Z</time>
      </trkpt>
      <trkpt lat="42.7132" lon="1.64622">
        <ele>1616.4</ele>
        <time>2020-02-08T11:57:26Z</time>
      </trkpt>
      <trkpt lat="42.7132" lon="1.64621">
        <ele>1616.4</ele>
        <time>2020-02-08T11:57:27Z</time>
      </trkpt>
      <trkpt lat="42.7132" lon="1.64621">
        <ele>1616.4</ele>
        <time>2020-02-08T11:57:28Z</time>
      </trkpt>
      <trkpt lat="42.71319" lon="1.6462">
        <ele>1616.4</ele>
        <time>2020-02-08T11:57:29Z</time>
      </trkpt>
      <trkpt lat="42.71321" lon="1.64616">
        <ele>1617.5</ele>
        <time>2020-02-08T11:57:30Z</time>
      </trkpt>
      <trkpt lat="42.71321" lon="1.64615">
        <ele>1617.5</ele>
        <time>2020-02-08T11:57:31Z</time>
      </trkpt>
      <trkpt lat="42.71321" lon="1.64614">
        <ele>1618.6</ele>
        <time>2020-02-08T11:57:32Z</time>
      </trkpt>
      <trkpt lat="42.71321" lon="1.64613">
        <ele>1618.6</ele>
        <time>2020-02-08T11:57:33Z</time>
      </trkpt>
      <trkpt lat="42.71321" lon="1.64612">
        <ele>1618.6</ele>
        <time>2020-02-08T11:57:34Z</time>
      </trkpt>
      <trkpt lat="42.71321" lon="1.64611">
        <ele>1618.6</ele>
        <time>2020-02-08T11:57:35Z</time>
      </trkpt>
      <trkpt lat="42.71321" lon="1.64609">
        <ele>1619.7</ele>
        <time>2020-02-08T11:57:36Z</time>
      </trkpt>
      <trkpt lat="42.71321" lon="1.64608">
        <ele>1619.7</ele>
        <time>2020-02-08T11:57:37Z</time>
      </trkpt>
      <trkpt lat="42.71321" lon="1.64607">
        <ele>1619.7</ele>
        <time>2020-02-08T11:57:38Z</time>
      </trkpt>
      <trkpt lat="42.71321" lon="1.64606">
        <ele>1619.7</ele>
        <time>2020-02-08T11:57:39Z</time>
      </trkpt>
      <trkpt lat="42.71322" lon="1.64606">
        <ele>1620.8</ele>
        <time>2020-02-08T11:57:40Z</time>
      </trkpt>
      <trkpt lat="42.71322" lon="1.64605">
        <ele>1620.8</ele>
        <time>2020-02-08T11:57:41Z</time>
      </trkpt>
      <trkpt lat="42.71322" lon="1.64604">
        <ele>1620.8</ele>
        <time>2020-02-08T11:57:42Z</time>
      </trkpt>
      <trkpt lat="42.71322" lon="1.64604">
        <ele>1620.8</ele>
        <time>2020-02-08T11:57:43Z</time>
      </trkpt>
      <trkpt lat="42.71322" lon="1.64603">
        <ele>1620.8</ele>
        <time>2020-02-08T11:57:44Z</time>
      </trkpt>
      <trkpt lat="42.71322" lon="1.64603">
        <ele>1620.8</ele>
        <time>2020-02-08T11:57:45Z</time>
      </trkpt>
      <trkpt lat="42.71322" lon="1.64602">
        <ele>1621</ele>
        <time>2020-02-08T11:57:46Z</time>
      </trkpt>
      <trkpt lat="42.71322" lon="1.64602">
        <ele>1622.1</ele>
        <time>2020-02-08T11:57:47Z</time>
      </trkpt>
      <trkpt lat="42.71322" lon="1.64601">
        <ele>1622.1</ele>
        <time>2020-02-08T11:57:48Z</time>
      </trkpt>
      <trkpt lat="42.71322" lon="1.646">
        <ele>1622.1</ele>
        <time>2020-02-08T11:57:49Z</time>
      </trkpt>
      <trkpt lat="42.71322" lon="1.646">
        <ele>1622.1</ele>
        <time>2020-02-08T11:57:50Z</time>
      </trkpt>
      <trkpt lat="42.71322" lon="1.64599">
        <ele>1622.1</ele>
        <time>2020-02-08T11:57:51Z</time>
      </trkpt>
      <trkpt lat="42.71323" lon="1.64598">
        <ele>1622.1</ele>
        <time>2020-02-08T11:57:52Z</time>
      </trkpt>
      <trkpt lat="42.71323" lon="1.64597">
        <ele>1623.2</ele>
        <time>2020-02-08T11:57:53Z</time>
      </trkpt>
      <trkpt lat="42.71323" lon="1.64596">
        <ele>1623.2</ele>
        <time>2020-02-08T11:57:54Z</time>
      </trkpt>
      <trkpt lat="42.71323" lon="1.64595">
        <ele>1623.2</ele>
        <time>2020-02-08T11:57:55Z</time>
      </trkpt>
      <trkpt lat="42.71323" lon="1.64595">
        <ele>1623.2</ele>
        <time>2020-02-08T11:57:56Z</time>
      </trkpt>
      <trkpt lat="42.71323" lon="1.64594">
        <ele>1623.2</ele>
        <time>2020-02-08T11:57:57Z</time>
      </trkpt>
      <trkpt lat="42.71323" lon="1.64593">
        <ele>1624.2</ele>
        <time>2020-02-08T11:57:58Z</time>
      </trkpt>
      <trkpt lat="42.71324" lon="1.64592">
        <ele>1624.2</ele>
        <time>2020-02-08T11:57:59Z</time>
      </trkpt>
      <trkpt lat="42.71325" lon="1.6459">
        <ele>1624.2</ele>
        <time>2020-02-08T11:58:00Z</time>
      </trkpt>
      <trkpt lat="42.71325" lon="1.6459">
        <ele>1624.2</ele>
        <time>2020-02-08T11:58:01Z</time>
      </trkpt>
      <trkpt lat="42.71325" lon="1.6459">
        <ele>1624.2</ele>
        <time>2020-02-08T11:58:02Z</time>
      </trkpt>
      <trkpt lat="42.71325" lon="1.6459">
        <ele>1624.2</ele>
        <time>2020-02-08T11:58:03Z</time>
      </trkpt>
      <trkpt lat="42.71325" lon="1.6459">
        <ele>1624.2</ele>
        <time>2020-02-08T11:58:04Z</time>
      </trkpt>
      <trkpt lat="42.71325" lon="1.6459">
        <ele>1624.2</ele>
        <time>2020-02-08T11:58:05Z</time>
      </trkpt>
      <trkpt lat="42.71325" lon="1.6459">
        <ele>1624.2</ele>
        <time>2020-02-08T11:58:06Z</time>
      </trkpt>
      <trkpt lat="42.71325" lon="1.6459">
        <ele>1624.2</ele>
        <time>2020-02-08T11:58:07Z</time>
      </trkpt>
      <trkpt lat="42.71325" lon="1.6459">
        <ele>1624.2</ele>
        <time>2020-02-08T11:58:08Z</time>
      </trkpt>
      <trkpt lat="42.71325" lon="1.6459">
        <ele>1624.2</ele>
        <time>2020-02-08T11:58:09Z</time>
      </trkpt>
      <trkpt lat="42.71325" lon="1.6459">
        <ele>1624.2</ele>
        <time>2020-02-08T11:58:10Z</time>
      </trkpt>
      <trkpt lat="42.71325" lon="1.6459">
        <ele>1624.2</ele>
        <time>2020-02-08T11:58:11Z</time>
      </trkpt>
      <trkpt lat="42.71325" lon="1.6459">
        <ele>1624.2</ele>
        <time>2020-02-08T11:58:12Z</time>
      </trkpt>
      <trkpt lat="42.71325" lon="1.6459">
        <ele>1624.2</ele>
        <time>2020-02-08T11:58:13Z</time>
      </trkpt>
      <trkpt lat="42.71327" lon="1.64587">
        <ele>1625.3</ele>
        <time>2020-02-08T11:58:14Z</time>
      </trkpt>
      <trkpt lat="42.71327" lon="1.64587">
        <ele>1625.3</ele>
        <time>2020-02-08T11:58:15Z</time>
      </trkpt>
      <trkpt lat="42.71327" lon="1.64587">
        <ele>1625.3</ele>
        <time>2020-02-08T11:58:16Z</time>
      </trkpt>
      <trkpt lat="42.71327" lon="1.64587">
        <ele>1625.3</ele>
        <time>2020-02-08T11:58:17Z</time>
      </trkpt>
      <trkpt lat="42.71327" lon="1.64587">
        <ele>1625.3</ele>
        <time>2020-02-08T11:58:18Z</time>
      </trkpt>
      <trkpt lat="42.71327" lon="1.64587">
        <ele>1625.3</ele>
        <time>2020-02-08T11:58:19Z</time>
      </trkpt>
      <trkpt lat="42.71327" lon="1.64587">
        <ele>1625.3</ele>
        <time>2020-02-08T11:58:20Z</time>
      </trkpt>
      <trkpt lat="42.71329" lon="1.64585">
        <ele>1625.5</ele>
        <time>2020-02-08T11:58:21Z</time>
      </trkpt>
      <trkpt lat="42.71329" lon="1.64585">
        <ele>1625.5</ele>
        <time>2020-02-08T11:58:22Z</time>
      </trkpt>
      <trkpt lat="42.71329" lon="1.64585">
        <ele>1625.5</ele>
        <time>2020-02-08T11:58:23Z</time>
      </trkpt>
      <trkpt lat="42.71329" lon="1.64585">
        <ele>1625.5</ele>
        <time>2020-02-08T11:58:24Z</time>
      </trkpt>
      <trkpt lat="42.71329" lon="1.64585">
        <ele>1625.5</ele>
        <time>2020-02-08T11:58:25Z</time>
      </trkpt>
      <trkpt lat="42.71329" lon="1.64585">
        <ele>1625.5</ele>
        <time>2020-02-08T11:58:26Z</time>
      </trkpt>
      <trkpt lat="42.71329" lon="1.64585">
        <ele>1625.5</ele>
        <time>2020-02-08T11:58:27Z</time>
      </trkpt>
      <trkpt lat="42.71329" lon="1.64585">
        <ele>1625.5</ele>
        <time>2020-02-08T11:58:28Z</time>
      </trkpt>
      <trkpt lat="42.71329" lon="1.64585">
        <ele>1625.5</ele>
        <time>2020-02-08T11:58:29Z</time>
      </trkpt>
      <trkpt lat="42.71329" lon="1.64585">
        <ele>1625.5</ele>
        <time>2020-02-08T11:58:30Z</time>
      </trkpt>
      <trkpt lat="42.71329" lon="1.64585">
        <ele>1625.5</ele>
        <time>2020-02-08T11:58:31Z</time>
      </trkpt>
      <trkpt lat="42.71329" lon="1.64585">
        <ele>1625.5</ele>
        <time>2020-02-08T11:58:32Z</time>
      </trkpt>
      <trkpt lat="42.71329" lon="1.64585">
        <ele>1625.5</ele>
        <time>2020-02-08T11:58:33Z</time>
      </trkpt>
      <trkpt lat="42.71329" lon="1.64585">
        <ele>1625.5</ele>
        <time>2020-02-08T11:58:34Z</time>
      </trkpt>
      <trkpt lat="42.71329" lon="1.64585">
        <ele>1625.5</ele>
        <time>2020-02-08T11:58:35Z</time>
      </trkpt>
      <trkpt lat="42.71329" lon="1.64585">
        <ele>1625.5</ele>
        <time>2020-02-08T11:58:36Z</time>
      </trkpt>
      <trkpt lat="42.71329" lon="1.64585">
        <ele>1625.5</ele>
        <time>2020-02-08T11:58:37Z</time>
      </trkpt>
      <trkpt lat="42.71329" lon="1.64585">
        <ele>1625.5</ele>
        <time>2020-02-08T11:58:38Z</time>
      </trkpt>
      <trkpt lat="42.71329" lon="1.64585">
        <ele>1625.5</ele>
        <time>2020-02-08T11:58:39Z</time>
      </trkpt>
      <trkpt lat="42.71329" lon="1.64585">
        <ele>1625.5</ele>
        <time>2020-02-08T11:58:40Z</time>
      </trkpt>
      <trkpt lat="42.71329" lon="1.64585">
        <ele>1625.5</ele>
        <time>2020-02-08T11:58:41Z</time>
      </trkpt>
      <trkpt lat="42.71329" lon="1.64585">
        <ele>1625.5</ele>
        <time>2020-02-08T11:58:42Z</time>
      </trkpt>
      <trkpt lat="42.71329" lon="1.64585">
        <ele>1625.5</ele>
        <time>2020-02-08T11:58:43Z</time>
      </trkpt>
      <trkpt lat="42.71328" lon="1.64583">
        <ele>1626.2</ele>
        <time>2020-02-08T11:58:44Z</time>
      </trkpt>
      <trkpt lat="42.71328" lon="1.64583">
        <ele>1626.2</ele>
        <time>2020-02-08T11:58:45Z</time>
      </trkpt>
      <trkpt lat="42.71328" lon="1.64583">
        <ele>1626.2</ele>
        <time>2020-02-08T11:58:46Z</time>
      </trkpt>
      <trkpt lat="42.71328" lon="1.64583">
        <ele>1626.2</ele>
        <time>2020-02-08T11:58:47Z</time>
      </trkpt>
      <trkpt lat="42.71328" lon="1.64581">
        <ele>1626.4</ele>
        <time>2020-02-08T11:58:48Z</time>
      </trkpt>
      <trkpt lat="42.71328" lon="1.64581">
        <ele>1626.4</ele>
        <time>2020-02-08T11:58:49Z</time>
      </trkpt>
      <trkpt lat="42.71329" lon="1.6458">
        <ele>1627.2</ele>
        <time>2020-02-08T11:58:50Z</time>
      </trkpt>
      <trkpt lat="42.71329" lon="1.64579">
        <ele>1627.2</ele>
        <time>2020-02-08T11:58:51Z</time>
      </trkpt>
      <trkpt lat="42.71329" lon="1.64578">
        <ele>1627.2</ele>
        <time>2020-02-08T11:58:52Z</time>
      </trkpt>
      <trkpt lat="42.71329" lon="1.64577">
        <ele>1627.2</ele>
        <time>2020-02-08T11:58:53Z</time>
      </trkpt>
      <trkpt lat="42.71329" lon="1.64576">
        <ele>1627.2</ele>
        <time>2020-02-08T11:58:54Z</time>
      </trkpt>
      <trkpt lat="42.7133" lon="1.64576">
        <ele>1628</ele>
        <time>2020-02-08T11:58:55Z</time>
      </trkpt>
      <trkpt lat="42.7133" lon="1.64575">
        <ele>1628</ele>
        <time>2020-02-08T11:58:56Z</time>
      </trkpt>
      <trkpt lat="42.7133" lon="1.64574">
        <ele>1628</ele>
        <time>2020-02-08T11:58:57Z</time>
      </trkpt>
      <trkpt lat="42.7133" lon="1.64573">
        <ele>1628</ele>
        <time>2020-02-08T11:58:58Z</time>
      </trkpt>
      <trkpt lat="42.7133" lon="1.64572">
        <ele>1628</ele>
        <time>2020-02-08T11:58:59Z</time>
      </trkpt>
      <trkpt lat="42.71331" lon="1.64571">
        <ele>1628.8</ele>
        <time>2020-02-08T11:59:00Z</time>
      </trkpt>
      <trkpt lat="42.71331" lon="1.6457">
        <ele>1628.8</ele>
        <time>2020-02-08T11:59:01Z</time>
      </trkpt>
      <trkpt lat="42.71331" lon="1.64569">
        <ele>1628.8</ele>
        <time>2020-02-08T11:59:02Z</time>
      </trkpt>
      <trkpt lat="42.71332" lon="1.64568">
        <ele>1629</ele>
        <time>2020-02-08T11:59:03Z</time>
      </trkpt>
      <trkpt lat="42.71332" lon="1.64566">
        <ele>1629.8</ele>
        <time>2020-02-08T11:59:04Z</time>
      </trkpt>
      <trkpt lat="42.71332" lon="1.64565">
        <ele>1629.8</ele>
        <time>2020-02-08T11:59:05Z</time>
      </trkpt>
      <trkpt lat="42.71333" lon="1.64564">
        <ele>1629.8</ele>
        <time>2020-02-08T11:59:06Z</time>
      </trkpt>
      <trkpt lat="42.71333" lon="1.64563">
        <ele>1630.7</ele>
        <time>2020-02-08T11:59:07Z</time>
      </trkpt>
      <trkpt lat="42.71333" lon="1.64562">
        <ele>1630.7</ele>
        <time>2020-02-08T11:59:08Z</time>
      </trkpt>
      <trkpt lat="42.71333" lon="1.64561">
        <ele>1630.7</ele>
        <time>2020-02-08T11:59:09Z</time>
      </trkpt>
      <trkpt lat="42.71334" lon="1.6456">
        <ele>1630.7</ele>
        <time>2020-02-08T11:59:10Z</time>
      </trkpt>
      <trkpt lat="42.71335" lon="1.64559">
        <ele>1630.9</ele>
        <time>2020-02-08T11:59:11Z</time>
      </trkpt>
      <trkpt lat="42.71335" lon="1.64558">
        <ele>1631.8</ele>
        <time>2020-02-08T11:59:12Z</time>
      </trkpt>
      <trkpt lat="42.71336" lon="1.64557">
        <ele>1631.8</ele>
        <time>2020-02-08T11:59:13Z</time>
      </trkpt>
      <trkpt lat="42.71336" lon="1.64557">
        <ele>1631.8</ele>
        <time>2020-02-08T11:59:14Z</time>
      </trkpt>
      <trkpt lat="42.71337" lon="1.64556">
        <ele>1631.8</ele>
        <time>2020-02-08T11:59:15Z</time>
      </trkpt>
      <trkpt lat="42.71337" lon="1.64555">
        <ele>1631.9</ele>
        <time>2020-02-08T11:59:16Z</time>
      </trkpt>
      <trkpt lat="42.71338" lon="1.64554">
        <ele>1632</ele>
        <time>2020-02-08T11:59:17Z</time>
      </trkpt>
      <trkpt lat="42.71339" lon="1.64553">
        <ele>1632</ele>
        <time>2020-02-08T11:59:18Z</time>
      </trkpt>
      <trkpt lat="42.71339" lon="1.64552">
        <ele>1632.1</ele>
        <time>2020-02-08T11:59:19Z</time>
      </trkpt>
      <trkpt lat="42.7134" lon="1.64552">
        <ele>1632.2</ele>
        <time>2020-02-08T11:59:20Z</time>
      </trkpt>
      <trkpt lat="42.7134" lon="1.64551">
        <ele>1632.3</ele>
        <time>2020-02-08T11:59:21Z</time>
      </trkpt>
      <trkpt lat="42.7134" lon="1.6455">
        <ele>1632.4</ele>
        <time>2020-02-08T11:59:22Z</time>
      </trkpt>
      <trkpt lat="42.71341" lon="1.64549">
        <ele>1632.4</ele>
        <time>2020-02-08T11:59:23Z</time>
      </trkpt>
      <trkpt lat="42.71341" lon="1.64549">
        <ele>1632.5</ele>
        <time>2020-02-08T11:59:24Z</time>
      </trkpt>
      <trkpt lat="42.71342" lon="1.64548">
        <ele>1632.6</ele>
        <time>2020-02-08T11:59:25Z</time>
      </trkpt>
      <trkpt lat="42.71342" lon="1.64547">
        <ele>1632.7</ele>
        <time>2020-02-08T11:59:26Z</time>
      </trkpt>
      <trkpt lat="42.71343" lon="1.64546">
        <ele>1632.7</ele>
        <time>2020-02-08T11:59:27Z</time>
      </trkpt>
      <trkpt lat="42.71343" lon="1.64546">
        <ele>1632.8</ele>
        <time>2020-02-08T11:59:28Z</time>
      </trkpt>
      <trkpt lat="42.71343" lon="1.64545">
        <ele>1632.9</ele>
        <time>2020-02-08T11:59:29Z</time>
      </trkpt>
      <trkpt lat="42.71343" lon="1.64545">
        <ele>1632.9</ele>
        <time>2020-02-08T11:59:30Z</time>
      </trkpt>
      <trkpt lat="42.71344" lon="1.64544">
        <ele>1633</ele>
        <time>2020-02-08T11:59:31Z</time>
      </trkpt>
      <trkpt lat="42.71344" lon="1.64544">
        <ele>1633</ele>
        <time>2020-02-08T11:59:32Z</time>
      </trkpt>
      <trkpt lat="42.71344" lon="1.64543">
        <ele>1633.1</ele>
        <time>2020-02-08T11:59:33Z</time>
      </trkpt>
      <trkpt lat="42.71344" lon="1.64543">
        <ele>1633.1</ele>
        <time>2020-02-08T11:59:34Z</time>
      </trkpt>
      <trkpt lat="42.71344" lon="1.64542">
        <ele>1633.2</ele>
        <time>2020-02-08T11:59:35Z</time>
      </trkpt>
      <trkpt lat="42.71344" lon="1.64541">
        <ele>1633.2</ele>
        <time>2020-02-08T11:59:36Z</time>
      </trkpt>
      <trkpt lat="42.71344" lon="1.64541">
        <ele>1633.2</ele>
        <time>2020-02-08T11:59:37Z</time>
      </trkpt>
      <trkpt lat="42.71344" lon="1.6454">
        <ele>1633.3</ele>
        <time>2020-02-08T11:59:38Z</time>
      </trkpt>
      <trkpt lat="42.71344" lon="1.6454">
        <ele>1633.3</ele>
        <time>2020-02-08T11:59:39Z</time>
      </trkpt>
      <trkpt lat="42.71344" lon="1.6454">
        <ele>1633.3</ele>
        <time>2020-02-08T11:59:40Z</time>
      </trkpt>
      <trkpt lat="42.71344" lon="1.6454">
        <ele>1633.3</ele>
        <time>2020-02-08T11:59:41Z</time>
      </trkpt>
      <trkpt lat="42.71344" lon="1.6454">
        <ele>1633.3</ele>
        <time>2020-02-08T11:59:42Z</time>
      </trkpt>
      <trkpt lat="42.71344" lon="1.6454">
        <ele>1633.3</ele>
        <time>2020-02-08T11:59:43Z</time>
      </trkpt>
      <trkpt lat="42.71344" lon="1.6454">
        <ele>1633.3</ele>
        <time>2020-02-08T11:59:44Z</time>
      </trkpt>
      <trkpt lat="42.71344" lon="1.6454">
        <ele>1633.3</ele>
        <time>2020-02-08T11:59:45Z</time>
      </trkpt>
      <trkpt lat="42.71344" lon="1.64537">
        <ele>1633.5</ele>
        <time>2020-02-08T11:59:46Z</time>
      </trkpt>
      <trkpt lat="42.71344" lon="1.64537">
        <ele>1633.5</ele>
        <time>2020-02-08T11:59:47Z</time>
      </trkpt>
      <trkpt lat="42.71344" lon="1.64537">
        <ele>1633.5</ele>
        <time>2020-02-08T11:59:48Z</time>
      </trkpt>
      <trkpt lat="42.71344" lon="1.64537">
        <ele>1633.5</ele>
        <time>2020-02-08T11:59:49Z</time>
      </trkpt>
      <trkpt lat="42.71344" lon="1.64537">
        <ele>1633.5</ele>
        <time>2020-02-08T11:59:50Z</time>
      </trkpt>
      <trkpt lat="42.71346" lon="1.64537">
        <ele>1633.7</ele>
        <time>2020-02-08T11:59:51Z</time>
      </trkpt>
      <trkpt lat="42.71346" lon="1.64537">
        <ele>1633.7</ele>
        <time>2020-02-08T11:59:52Z</time>
      </trkpt>
      <trkpt lat="42.71346" lon="1.64537">
        <ele>1633.7</ele>
        <time>2020-02-08T11:59:53Z</time>
      </trkpt>
      <trkpt lat="42.71346" lon="1.64537">
        <ele>1633.7</ele>
        <time>2020-02-08T11:59:54Z</time>
      </trkpt>
      <trkpt lat="42.71346" lon="1.64537">
        <ele>1633.7</ele>
        <time>2020-02-08T11:59:55Z</time>
      </trkpt>
      <trkpt lat="42.71346" lon="1.64537">
        <ele>1633.7</ele>
        <time>2020-02-08T11:59:56Z</time>
      </trkpt>
      <trkpt lat="42.71346" lon="1.64534">
        <ele>1633.9</ele>
        <time>2020-02-08T11:59:57Z</time>
      </trkpt>
      <trkpt lat="42.71346" lon="1.64534">
        <ele>1633.9</ele>
        <time>2020-02-08T11:59:58Z</time>
      </trkpt>
      <trkpt lat="42.71346" lon="1.64534">
        <ele>1633.9</ele>
        <time>2020-02-08T11:59:59Z</time>
      </trkpt>
      <trkpt lat="42.71347" lon="1.64533">
        <ele>1633.9</ele>
        <time>2020-02-08T12:00:00Z</time>
      </trkpt>
      <trkpt lat="42.71347" lon="1.64533">
        <ele>1633.9</ele>
        <time>2020-02-08T12:00:01Z</time>
      </trkpt>
      <trkpt lat="42.71347" lon="1.64532">
        <ele>1633.9</ele>
        <time>2020-02-08T12:00:02Z</time>
      </trkpt>
      <trkpt lat="42.71348" lon="1.64532">
        <ele>1634</ele>
        <time>2020-02-08T12:00:03Z</time>
      </trkpt>
      <trkpt lat="42.71348" lon="1.64531">
        <ele>1634</ele>
        <time>2020-02-08T12:00:04Z</time>
      </trkpt>
      <trkpt lat="42.71348" lon="1.64531">
        <ele>1634</ele>
        <time>2020-02-08T12:00:05Z</time>
      </trkpt>
      <trkpt lat="42.71349" lon="1.6453">
        <ele>1634</ele>
        <time>2020-02-08T12:00:06Z</time>
      </trkpt>
      <trkpt lat="42.71349" lon="1.6453">
        <ele>1634.1</ele>
        <time>2020-02-08T12:00:07Z</time>
      </trkpt>
      <trkpt lat="42.71349" lon="1.64529">
        <ele>1634.1</ele>
        <time>2020-02-08T12:00:08Z</time>
      </trkpt>
      <trkpt lat="42.7135" lon="1.64529">
        <ele>1634.1</ele>
        <time>2020-02-08T12:00:09Z</time>
      </trkpt>
      <trkpt lat="42.71351" lon="1.64528">
        <ele>1634.2</ele>
        <time>2020-02-08T12:00:10Z</time>
      </trkpt>
      <trkpt lat="42.71352" lon="1.64527">
        <ele>1634.2</ele>
        <time>2020-02-08T12:00:11Z</time>
      </trkpt>
      <trkpt lat="42.71353" lon="1.64526">
        <ele>1634.3</ele>
        <time>2020-02-08T12:00:12Z</time>
      </trkpt>
      <trkpt lat="42.71354" lon="1.64525">
        <ele>1634.4</ele>
        <time>2020-02-08T12:00:13Z</time>
      </trkpt>
      <trkpt lat="42.71355" lon="1.64524">
        <ele>1634.6</ele>
        <time>2020-02-08T12:00:14Z</time>
      </trkpt>
      <trkpt lat="42.71356" lon="1.64523">
        <ele>1634.7</ele>
        <time>2020-02-08T12:00:15Z</time>
      </trkpt>
      <trkpt lat="42.71357" lon="1.64522">
        <ele>1634.8</ele>
        <time>2020-02-08T12:00:16Z</time>
      </trkpt>
      <trkpt lat="42.71358" lon="1.64521">
        <ele>1635</ele>
        <time>2020-02-08T12:00:17Z</time>
      </trkpt>
      <trkpt lat="42.71359" lon="1.6452">
        <ele>1635.1</ele>
        <time>2020-02-08T12:00:18Z</time>
      </trkpt>
      <trkpt lat="42.7136" lon="1.64519">
        <ele>1635.2</ele>
        <time>2020-02-08T12:00:19Z</time>
      </trkpt>
      <trkpt lat="42.7136" lon="1.64517">
        <ele>1635.4</ele>
        <time>2020-02-08T12:00:20Z</time>
      </trkpt>
      <trkpt lat="42.71361" lon="1.64517">
        <ele>1635.4</ele>
        <time>2020-02-08T12:00:21Z</time>
      </trkpt>
      <trkpt lat="42.71361" lon="1.64517">
        <ele>1635.4</ele>
        <time>2020-02-08T12:00:22Z</time>
      </trkpt>
      <trkpt lat="42.71361" lon="1.64516">
        <ele>1635.5</ele>
        <time>2020-02-08T12:00:23Z</time>
      </trkpt>
      <trkpt lat="42.71362" lon="1.64516">
        <ele>1635.5</ele>
        <time>2020-02-08T12:00:24Z</time>
      </trkpt>
      <trkpt lat="42.71362" lon="1.64516">
        <ele>1635.6</ele>
        <time>2020-02-08T12:00:25Z</time>
      </trkpt>
      <trkpt lat="42.71362" lon="1.64516">
        <ele>1635.6</ele>
        <time>2020-02-08T12:00:26Z</time>
      </trkpt>
      <trkpt lat="42.71363" lon="1.64515">
        <ele>1635.6</ele>
        <time>2020-02-08T12:00:27Z</time>
      </trkpt>
      <trkpt lat="42.71363" lon="1.64515">
        <ele>1635.7</ele>
        <time>2020-02-08T12:00:28Z</time>
      </trkpt>
      <trkpt lat="42.71363" lon="1.64515">
        <ele>1635.7</ele>
        <time>2020-02-08T12:00:29Z</time>
      </trkpt>
      <trkpt lat="42.71365" lon="1.64516">
        <ele>1635.9</ele>
        <time>2020-02-08T12:00:30Z</time>
      </trkpt>
      <trkpt lat="42.71365" lon="1.64516">
        <ele>1635.9</ele>
        <time>2020-02-08T12:00:31Z</time>
      </trkpt>
      <trkpt lat="42.71365" lon="1.64516">
        <ele>1635.9</ele>
        <time>2020-02-08T12:00:32Z</time>
      </trkpt>
      <trkpt lat="42.71365" lon="1.64516">
        <ele>1635.9</ele>
        <time>2020-02-08T12:00:33Z</time>
      </trkpt>
      <trkpt lat="42.71365" lon="1.64516">
        <ele>1635.9</ele>
        <time>2020-02-08T12:00:34Z</time>
      </trkpt>
      <trkpt lat="42.71365" lon="1.64516">
        <ele>1635.9</ele>
        <time>2020-02-08T12:00:35Z</time>
      </trkpt>
      <trkpt lat="42.71365" lon="1.64516">
        <ele>1635.9</ele>
        <time>2020-02-08T12:00:36Z</time>
      </trkpt>
      <trkpt lat="42.71365" lon="1.64516">
        <ele>1635.9</ele>
        <time>2020-02-08T12:00:37Z</time>
      </trkpt>
      <trkpt lat="42.71366" lon="1.64517">
        <ele>1636.1</ele>
        <time>2020-02-08T12:00:38Z</time>
      </trkpt>
      <trkpt lat="42.71366" lon="1.64517">
        <ele>1636.1</ele>
        <time>2020-02-08T12:00:39Z</time>
      </trkpt>
      <trkpt lat="42.71369" lon="1.64518">
        <ele>1636.4</ele>
        <time>2020-02-08T12:00:40Z</time>
      </trkpt>
      <trkpt lat="42.7137" lon="1.64519">
        <ele>1636.4</ele>
        <time>2020-02-08T12:00:41Z</time>
      </trkpt>
      <trkpt lat="42.7137" lon="1.64519">
        <ele>1636.4</ele>
        <time>2020-02-08T12:00:42Z</time>
      </trkpt>
      <trkpt lat="42.71371" lon="1.64519">
        <ele>1636.4</ele>
        <time>2020-02-08T12:00:43Z</time>
      </trkpt>
      <trkpt lat="42.71372" lon="1.64519">
        <ele>1636.4</ele>
        <time>2020-02-08T12:00:44Z</time>
      </trkpt>
      <trkpt lat="42.71373" lon="1.64519">
        <ele>1636.4</ele>
        <time>2020-02-08T12:00:45Z</time>
      </trkpt>
      <trkpt lat="42.71373" lon="1.6452">
        <ele>1636.4</ele>
        <time>2020-02-08T12:00:46Z</time>
      </trkpt>
      <trkpt lat="42.71374" lon="1.6452">
        <ele>1636.4</ele>
        <time>2020-02-08T12:00:47Z</time>
      </trkpt>
      <trkpt lat="42.71375" lon="1.6452">
        <ele>1636.3</ele>
        <time>2020-02-08T12:00:48Z</time>
      </trkpt>
      <trkpt lat="42.71375" lon="1.6452">
        <ele>1636.3</ele>
        <time>2020-02-08T12:00:49Z</time>
      </trkpt>
      <trkpt lat="42.71375" lon="1.6452">
        <ele>1636.3</ele>
        <time>2020-02-08T12:00:50Z</time>
      </trkpt>
      <trkpt lat="42.71375" lon="1.6452">
        <ele>1636.3</ele>
        <time>2020-02-08T12:00:51Z</time>
      </trkpt>
      <trkpt lat="42.71375" lon="1.6452">
        <ele>1636.3</ele>
        <time>2020-02-08T12:00:52Z</time>
      </trkpt>
      <trkpt lat="42.71375" lon="1.6452">
        <ele>1636.3</ele>
        <time>2020-02-08T12:00:53Z</time>
      </trkpt>
      <trkpt lat="42.71375" lon="1.6452">
        <ele>1636.3</ele>
        <time>2020-02-08T12:00:54Z</time>
      </trkpt>
      <trkpt lat="42.71375" lon="1.6452">
        <ele>1636.3</ele>
        <time>2020-02-08T12:00:55Z</time>
      </trkpt>
      <trkpt lat="42.71377" lon="1.64518">
        <ele>1636.3</ele>
        <time>2020-02-08T12:00:56Z</time>
      </trkpt>
      <trkpt lat="42.71377" lon="1.64518">
        <ele>1636.3</ele>
        <time>2020-02-08T12:00:57Z</time>
      </trkpt>
      <trkpt lat="42.71377" lon="1.64518">
        <ele>1636.3</ele>
        <time>2020-02-08T12:00:58Z</time>
      </trkpt>
      <trkpt lat="42.71377" lon="1.64518">
        <ele>1636.3</ele>
        <time>2020-02-08T12:00:59Z</time>
      </trkpt>
      <trkpt lat="42.71377" lon="1.64518">
        <ele>1636.3</ele>
        <time>2020-02-08T12:01:00Z</time>
      </trkpt>
      <trkpt lat="42.71377" lon="1.64518">
        <ele>1636.3</ele>
        <time>2020-02-08T12:01:01Z</time>
      </trkpt>
      <trkpt lat="42.71377" lon="1.64518">
        <ele>1636.3</ele>
        <time>2020-02-08T12:01:02Z</time>
      </trkpt>
      <trkpt lat="42.71378" lon="1.64516">
        <ele>1636.3</ele>
        <time>2020-02-08T12:01:03Z</time>
      </trkpt>
      <trkpt lat="42.71378" lon="1.64516">
        <ele>1636.3</ele>
        <time>2020-02-08T12:01:04Z</time>
      </trkpt>
      <trkpt lat="42.71378" lon="1.64516">
        <ele>1636.3</ele>
        <time>2020-02-08T12:01:05Z</time>
      </trkpt>
      <trkpt lat="42.71378" lon="1.64516">
        <ele>1636.3</ele>
        <time>2020-02-08T12:01:06Z</time>
      </trkpt>
      <trkpt lat="42.71378" lon="1.64516">
        <ele>1636.3</ele>
        <time>2020-02-08T12:01:07Z</time>
      </trkpt>
      <trkpt lat="42.7138" lon="1.64516">
        <ele>1636.3</ele>
        <time>2020-02-08T12:01:08Z</time>
      </trkpt>
      <trkpt lat="42.7138" lon="1.64516">
        <ele>1636.3</ele>
        <time>2020-02-08T12:01:09Z</time>
      </trkpt>
      <trkpt lat="42.7138" lon="1.64516">
        <ele>1636.3</ele>
        <time>2020-02-08T12:01:10Z</time>
      </trkpt>
      <trkpt lat="42.7138" lon="1.64516">
        <ele>1636.3</ele>
        <time>2020-02-08T12:01:11Z</time>
      </trkpt>
      <trkpt lat="42.71382" lon="1.64515">
        <ele>1636.3</ele>
        <time>2020-02-08T12:01:12Z</time>
      </trkpt>
      <trkpt lat="42.71382" lon="1.64515">
        <ele>1636.3</ele>
        <time>2020-02-08T12:01:13Z</time>
      </trkpt>
      <trkpt lat="42.71382" lon="1.64515">
        <ele>1636.3</ele>
        <time>2020-02-08T12:01:14Z</time>
      </trkpt>
      <trkpt lat="42.71382" lon="1.64515">
        <ele>1636.3</ele>
        <time>2020-02-08T12:01:15Z</time>
      </trkpt>
      <trkpt lat="42.71382" lon="1.64515">
        <ele>1636.3</ele>
        <time>2020-02-08T12:01:16Z</time>
      </trkpt>
      <trkpt lat="42.71382" lon="1.64515">
        <ele>1636.3</ele>
        <time>2020-02-08T12:01:17Z</time>
      </trkpt>
      <trkpt lat="42.71382" lon="1.64515">
        <ele>1636.3</ele>
        <time>2020-02-08T12:01:18Z</time>
      </trkpt>
      <trkpt lat="42.71382" lon="1.64515">
        <ele>1636.3</ele>
        <time>2020-02-08T12:01:19Z</time>
      </trkpt>
      <trkpt lat="42.71382" lon="1.64515">
        <ele>1636.3</ele>
        <time>2020-02-08T12:01:20Z</time>
      </trkpt>
      <trkpt lat="42.71382" lon="1.64515">
        <ele>1636.3</ele>
        <time>2020-02-08T12:01:21Z</time>
      </trkpt>
      <trkpt lat="42.71382" lon="1.64515">
        <ele>1636.3</ele>
        <time>2020-02-08T12:01:22Z</time>
      </trkpt>
      <trkpt lat="42.71384" lon="1.64514">
        <ele>1636.3</ele>
        <time>2020-02-08T12:01:23Z</time>
      </trkpt>
      <trkpt lat="42.71384" lon="1.64514">
        <ele>1636.3</ele>
        <time>2020-02-08T12:01:24Z</time>
      </trkpt>
      <trkpt lat="42.71384" lon="1.64514">
        <ele>1636.3</ele>
        <time>2020-02-08T12:01:25Z</time>
      </trkpt>
      <trkpt lat="42.71384" lon="1.64514">
        <ele>1636.3</ele>
        <time>2020-02-08T12:01:26Z</time>
      </trkpt>
      <trkpt lat="42.71386" lon="1.64512">
        <ele>1636.3</ele>
        <time>2020-02-08T12:01:27Z</time>
      </trkpt>
      <trkpt lat="42.71386" lon="1.64512">
        <ele>1636.3</ele>
        <time>2020-02-08T12:01:28Z</time>
      </trkpt>
      <trkpt lat="42.71386" lon="1.64512">
        <ele>1636.3</ele>
        <time>2020-02-08T12:01:29Z</time>
      </trkpt>
      <trkpt lat="42.71389" lon="1.64512">
        <ele>1636.3</ele>
        <time>2020-02-08T12:01:30Z</time>
      </trkpt>
      <trkpt lat="42.71389" lon="1.64513">
        <ele>1636.4</ele>
        <time>2020-02-08T12:01:31Z</time>
      </trkpt>
      <trkpt lat="42.7139" lon="1.64514">
        <ele>1636.5</ele>
        <time>2020-02-08T12:01:32Z</time>
      </trkpt>
      <trkpt lat="42.7139" lon="1.64514">
        <ele>1636.5</ele>
        <time>2020-02-08T12:01:33Z</time>
      </trkpt>
      <trkpt lat="42.71391" lon="1.64515">
        <ele>1636.6</ele>
        <time>2020-02-08T12:01:34Z</time>
      </trkpt>
      <trkpt lat="42.71391" lon="1.64516">
        <ele>1636.6</ele>
        <time>2020-02-08T12:01:35Z</time>
      </trkpt>
      <trkpt lat="42.71392" lon="1.64516">
        <ele>1636.7</ele>
        <time>2020-02-08T12:01:36Z</time>
      </trkpt>
      <trkpt lat="42.71392" lon="1.64517">
        <ele>1636.8</ele>
        <time>2020-02-08T12:01:37Z</time>
      </trkpt>
      <trkpt lat="42.71393" lon="1.64518">
        <ele>1636.8</ele>
        <time>2020-02-08T12:01:38Z</time>
      </trkpt>
      <trkpt lat="42.71393" lon="1.64518">
        <ele>1636.9</ele>
        <time>2020-02-08T12:01:39Z</time>
      </trkpt>
      <trkpt lat="42.71395" lon="1.64521">
        <ele>1637.1</ele>
        <time>2020-02-08T12:01:40Z</time>
      </trkpt>
      <trkpt lat="42.71395" lon="1.64521">
        <ele>1637.1</ele>
        <time>2020-02-08T12:01:41Z</time>
      </trkpt>
      <trkpt lat="42.71396" lon="1.64522">
        <ele>1637.2</ele>
        <time>2020-02-08T12:01:42Z</time>
      </trkpt>
      <trkpt lat="42.71396" lon="1.64522">
        <ele>1637.2</ele>
        <time>2020-02-08T12:01:43Z</time>
      </trkpt>
      <trkpt lat="42.71396" lon="1.64523">
        <ele>1637.2</ele>
        <time>2020-02-08T12:01:44Z</time>
      </trkpt>
      <trkpt lat="42.71396" lon="1.64523">
        <ele>1637.3</ele>
        <time>2020-02-08T12:01:45Z</time>
      </trkpt>
      <trkpt lat="42.71397" lon="1.64524">
        <ele>1637.3</ele>
        <time>2020-02-08T12:01:46Z</time>
      </trkpt>
      <trkpt lat="42.71397" lon="1.64524">
        <ele>1637.4</ele>
        <time>2020-02-08T12:01:47Z</time>
      </trkpt>
      <trkpt lat="42.71397" lon="1.64525">
        <ele>1637.4</ele>
        <time>2020-02-08T12:01:48Z</time>
      </trkpt>
      <trkpt lat="42.71397" lon="1.64525">
        <ele>1637.4</ele>
        <time>2020-02-08T12:01:49Z</time>
      </trkpt>
      <trkpt lat="42.71397" lon="1.64525">
        <ele>1637.4</ele>
        <time>2020-02-08T12:01:50Z</time>
      </trkpt>
      <trkpt lat="42.71397" lon="1.64525">
        <ele>1637.4</ele>
        <time>2020-02-08T12:01:51Z</time>
      </trkpt>
      <trkpt lat="42.71397" lon="1.64525">
        <ele>1637.4</ele>
        <time>2020-02-08T12:01:52Z</time>
      </trkpt>
      <trkpt lat="42.71397" lon="1.64525">
        <ele>1637.4</ele>
        <time>2020-02-08T12:01:53Z</time>
      </trkpt>
      <trkpt lat="42.71397" lon="1.64525">
        <ele>1637.4</ele>
        <time>2020-02-08T12:01:54Z</time>
      </trkpt>
      <trkpt lat="42.71397" lon="1.64525">
        <ele>1637.4</ele>
        <time>2020-02-08T12:01:55Z</time>
      </trkpt>
      <trkpt lat="42.71397" lon="1.64525">
        <ele>1637.4</ele>
        <time>2020-02-08T12:01:56Z</time>
      </trkpt>
      <trkpt lat="42.71397" lon="1.64525">
        <ele>1637.4</ele>
        <time>2020-02-08T12:01:57Z</time>
      </trkpt>
      <trkpt lat="42.71397" lon="1.64525">
        <ele>1637.4</ele>
        <time>2020-02-08T12:01:58Z</time>
      </trkpt>
      <trkpt lat="42.71397" lon="1.64525">
        <ele>1637.4</ele>
        <time>2020-02-08T12:01:59Z</time>
      </trkpt>
      <trkpt lat="42.71397" lon="1.64525">
        <ele>1637.4</ele>
        <time>2020-02-08T12:02:00Z</time>
      </trkpt>
      <trkpt lat="42.71397" lon="1.64525">
        <ele>1637.4</ele>
        <time>2020-02-08T12:02:01Z</time>
      </trkpt>
      <trkpt lat="42.71397" lon="1.64525">
        <ele>1637.4</ele>
        <time>2020-02-08T12:02:02Z</time>
      </trkpt>
      <trkpt lat="42.71397" lon="1.64525">
        <ele>1637.4</ele>
        <time>2020-02-08T12:02:03Z</time>
      </trkpt>
      <trkpt lat="42.71397" lon="1.64525">
        <ele>1637.4</ele>
        <time>2020-02-08T12:02:04Z</time>
      </trkpt>
      <trkpt lat="42.71397" lon="1.64525">
        <ele>1637.4</ele>
        <time>2020-02-08T12:02:05Z</time>
      </trkpt>
      <trkpt lat="42.71397" lon="1.64525">
        <ele>1637.4</ele>
        <time>2020-02-08T12:02:06Z</time>
      </trkpt>
      <trkpt lat="42.71397" lon="1.64525">
        <ele>1637.4</ele>
        <time>2020-02-08T12:02:07Z</time>
      </trkpt>
      <trkpt lat="42.71399" lon="1.64525">
        <ele>1637.6</ele>
        <time>2020-02-08T12:02:08Z</time>
      </trkpt>
      <trkpt lat="42.71399" lon="1.64525">
        <ele>1637.6</ele>
        <time>2020-02-08T12:02:09Z</time>
      </trkpt>
      <trkpt lat="42.71402" lon="1.64527">
        <ele>1637.8</ele>
        <time>2020-02-08T12:02:10Z</time>
      </trkpt>
      <trkpt lat="42.71403" lon="1.64527">
        <ele>1637.9</ele>
        <time>2020-02-08T12:02:11Z</time>
      </trkpt>
      <trkpt lat="42.71403" lon="1.64528">
        <ele>1637.9</ele>
        <time>2020-02-08T12:02:12Z</time>
      </trkpt>
      <trkpt lat="42.71404" lon="1.64528">
        <ele>1638</ele>
        <time>2020-02-08T12:02:13Z</time>
      </trkpt>
      <trkpt lat="42.71404" lon="1.64529">
        <ele>1638</ele>
        <time>2020-02-08T12:02:14Z</time>
      </trkpt>
      <trkpt lat="42.71405" lon="1.64529">
        <ele>1638.1</ele>
        <time>2020-02-08T12:02:15Z</time>
      </trkpt>
      <trkpt lat="42.71405" lon="1.64529">
        <ele>1638.1</ele>
        <time>2020-02-08T12:02:16Z</time>
      </trkpt>
      <trkpt lat="42.71406" lon="1.6453">
        <ele>1638.2</ele>
        <time>2020-02-08T12:02:17Z</time>
      </trkpt>
      <trkpt lat="42.71407" lon="1.6453">
        <ele>1638.2</ele>
        <time>2020-02-08T12:02:18Z</time>
      </trkpt>
      <trkpt lat="42.71407" lon="1.64531">
        <ele>1638.3</ele>
        <time>2020-02-08T12:02:19Z</time>
      </trkpt>
      <trkpt lat="42.71407" lon="1.64531">
        <ele>1638.3</ele>
        <time>2020-02-08T12:02:20Z</time>
      </trkpt>
      <trkpt lat="42.71408" lon="1.64532">
        <ele>1638.4</ele>
        <time>2020-02-08T12:02:21Z</time>
      </trkpt>
      <trkpt lat="42.71408" lon="1.64532">
        <ele>1638.4</ele>
        <time>2020-02-08T12:02:22Z</time>
      </trkpt>
      <trkpt lat="42.71408" lon="1.64532">
        <ele>1638.4</ele>
        <time>2020-02-08T12:02:23Z</time>
      </trkpt>
      <trkpt lat="42.71408" lon="1.64532">
        <ele>1638.4</ele>
        <time>2020-02-08T12:02:24Z</time>
      </trkpt>
      <trkpt lat="42.71408" lon="1.64532">
        <ele>1638.4</ele>
        <time>2020-02-08T12:02:25Z</time>
      </trkpt>
      <trkpt lat="42.71408" lon="1.64532">
        <ele>1638.4</ele>
        <time>2020-02-08T12:02:26Z</time>
      </trkpt>
      <trkpt lat="42.71408" lon="1.64532">
        <ele>1638.4</ele>
        <time>2020-02-08T12:02:27Z</time>
      </trkpt>
      <trkpt lat="42.71408" lon="1.64532">
        <ele>1638.4</ele>
        <time>2020-02-08T12:02:28Z</time>
      </trkpt>
      <trkpt lat="42.71408" lon="1.64532">
        <ele>1638.4</ele>
        <time>2020-02-08T12:02:29Z</time>
      </trkpt>
      <trkpt lat="42.71408" lon="1.64532">
        <ele>1638.4</ele>
        <time>2020-02-08T12:02:30Z</time>
      </trkpt>
      <trkpt lat="42.71408" lon="1.64532">
        <ele>1638.4</ele>
        <time>2020-02-08T12:02:31Z</time>
      </trkpt>
      <trkpt lat="42.7141" lon="1.64531">
        <ele>1638.6</ele>
        <time>2020-02-08T12:02:32Z</time>
      </trkpt>
      <trkpt lat="42.7141" lon="1.64531">
        <ele>1638.6</ele>
        <time>2020-02-08T12:02:33Z</time>
      </trkpt>
      <trkpt lat="42.7141" lon="1.64531">
        <ele>1638.6</ele>
        <time>2020-02-08T12:02:34Z</time>
      </trkpt>
      <trkpt lat="42.71412" lon="1.64531">
        <ele>1638.8</ele>
        <time>2020-02-08T12:02:35Z</time>
      </trkpt>
      <trkpt lat="42.71412" lon="1.64531">
        <ele>1638.8</ele>
        <time>2020-02-08T12:02:36Z</time>
      </trkpt>
      <trkpt lat="42.71412" lon="1.64531">
        <ele>1638.8</ele>
        <time>2020-02-08T12:02:37Z</time>
      </trkpt>
      <trkpt lat="42.71412" lon="1.64531">
        <ele>1638.8</ele>
        <time>2020-02-08T12:02:38Z</time>
      </trkpt>
      <trkpt lat="42.71414" lon="1.64531">
        <ele>1639.1</ele>
        <time>2020-02-08T12:02:39Z</time>
      </trkpt>
      <trkpt lat="42.71415" lon="1.64532">
        <ele>1639.4</ele>
        <time>2020-02-08T12:02:40Z</time>
      </trkpt>
      <trkpt lat="42.71416" lon="1.64532">
        <ele>1639.6</ele>
        <time>2020-02-08T12:02:41Z</time>
      </trkpt>
      <trkpt lat="42.71417" lon="1.64533">
        <ele>1639.8</ele>
        <time>2020-02-08T12:02:42Z</time>
      </trkpt>
      <trkpt lat="42.71418" lon="1.64534">
        <ele>1640.1</ele>
        <time>2020-02-08T12:02:43Z</time>
      </trkpt>
      <trkpt lat="42.71419" lon="1.64535">
        <ele>1640.3</ele>
        <time>2020-02-08T12:02:44Z</time>
      </trkpt>
      <trkpt lat="42.7142" lon="1.64536">
        <ele>1640.5</ele>
        <time>2020-02-08T12:02:45Z</time>
      </trkpt>
      <trkpt lat="42.71421" lon="1.64537">
        <ele>1640.7</ele>
        <time>2020-02-08T12:02:46Z</time>
      </trkpt>
      <trkpt lat="42.71422" lon="1.64538">
        <ele>1640.9</ele>
        <time>2020-02-08T12:02:47Z</time>
      </trkpt>
      <trkpt lat="42.71423" lon="1.64539">
        <ele>1641</ele>
        <time>2020-02-08T12:02:48Z</time>
      </trkpt>
      <trkpt lat="42.71423" lon="1.6454">
        <ele>1641.2</ele>
        <time>2020-02-08T12:02:49Z</time>
      </trkpt>
      <trkpt lat="42.71424" lon="1.64541">
        <ele>1641.3</ele>
        <time>2020-02-08T12:02:50Z</time>
      </trkpt>
      <trkpt lat="42.71425" lon="1.64541">
        <ele>1641.4</ele>
        <time>2020-02-08T12:02:51Z</time>
      </trkpt>
      <trkpt lat="42.71425" lon="1.64541">
        <ele>1641.4</ele>
        <time>2020-02-08T12:02:52Z</time>
      </trkpt>
      <trkpt lat="42.71425" lon="1.64542">
        <ele>1641.4</ele>
        <time>2020-02-08T12:02:53Z</time>
      </trkpt>
      <trkpt lat="42.71426" lon="1.64542">
        <ele>1641.5</ele>
        <time>2020-02-08T12:02:54Z</time>
      </trkpt>
      <trkpt lat="42.71426" lon="1.64543">
        <ele>1641.5</ele>
        <time>2020-02-08T12:02:55Z</time>
      </trkpt>
      <trkpt lat="42.71426" lon="1.64543">
        <ele>1641.6</ele>
        <time>2020-02-08T12:02:56Z</time>
      </trkpt>
      <trkpt lat="42.71427" lon="1.64543">
        <ele>1641.6</ele>
        <time>2020-02-08T12:02:57Z</time>
      </trkpt>
      <trkpt lat="42.71427" lon="1.64544">
        <ele>1641.7</ele>
        <time>2020-02-08T12:02:58Z</time>
      </trkpt>
      <trkpt lat="42.71427" lon="1.64544">
        <ele>1641.7</ele>
        <time>2020-02-08T12:02:59Z</time>
      </trkpt>
      <trkpt lat="42.71429" lon="1.64546">
        <ele>1641.9</ele>
        <time>2020-02-08T12:03:00Z</time>
      </trkpt>
      <trkpt lat="42.7143" lon="1.64546">
        <ele>1641.9</ele>
        <time>2020-02-08T12:03:01Z</time>
      </trkpt>
      <trkpt lat="42.7143" lon="1.64546">
        <ele>1641.9</ele>
        <time>2020-02-08T12:03:02Z</time>
      </trkpt>
      <trkpt lat="42.71431" lon="1.64546">
        <ele>1642</ele>
        <time>2020-02-08T12:03:03Z</time>
      </trkpt>
      <trkpt lat="42.71431" lon="1.64546">
        <ele>1642</ele>
        <time>2020-02-08T12:03:04Z</time>
      </trkpt>
      <trkpt lat="42.71431" lon="1.64546">
        <ele>1642</ele>
        <time>2020-02-08T12:03:05Z</time>
      </trkpt>
      <trkpt lat="42.71432" lon="1.64546">
        <ele>1642</ele>
        <time>2020-02-08T12:03:06Z</time>
      </trkpt>
      <trkpt lat="42.71432" lon="1.64546">
        <ele>1642</ele>
        <time>2020-02-08T12:03:07Z</time>
      </trkpt>
      <trkpt lat="42.71432" lon="1.64547">
        <ele>1642</ele>
        <time>2020-02-08T12:03:08Z</time>
      </trkpt>
      <trkpt lat="42.71433" lon="1.64547">
        <ele>1642</ele>
        <time>2020-02-08T12:03:09Z</time>
      </trkpt>
      <trkpt lat="42.71433" lon="1.64547">
        <ele>1642</ele>
        <time>2020-02-08T12:03:10Z</time>
      </trkpt>
      <trkpt lat="42.71433" lon="1.64547">
        <ele>1642</ele>
        <time>2020-02-08T12:03:11Z</time>
      </trkpt>
      <trkpt lat="42.71433" lon="1.64547">
        <ele>1642</ele>
        <time>2020-02-08T12:03:12Z</time>
      </trkpt>
      <trkpt lat="42.71433" lon="1.64547">
        <ele>1642</ele>
        <time>2020-02-08T12:03:13Z</time>
      </trkpt>
      <trkpt lat="42.71433" lon="1.64547">
        <ele>1642</ele>
        <time>2020-02-08T12:03:14Z</time>
      </trkpt>
      <trkpt lat="42.71433" lon="1.64547">
        <ele>1642</ele>
        <time>2020-02-08T12:03:15Z</time>
      </trkpt>
      <trkpt lat="42.71435" lon="1.64546">
        <ele>1642.1</ele>
        <time>2020-02-08T12:03:16Z</time>
      </trkpt>
      <trkpt lat="42.71435" lon="1.64546">
        <ele>1642.1</ele>
        <time>2020-02-08T12:03:17Z</time>
      </trkpt>
      <trkpt lat="42.71435" lon="1.64546">
        <ele>1642.1</ele>
        <time>2020-02-08T12:03:18Z</time>
      </trkpt>
      <trkpt lat="42.71435" lon="1.64546">
        <ele>1642.1</ele>
        <time>2020-02-08T12:03:19Z</time>
      </trkpt>
      <trkpt lat="42.71435" lon="1.64547">
        <ele>1642.1</ele>
        <time>2020-02-08T12:03:20Z</time>
      </trkpt>
      <trkpt lat="42.71436" lon="1.64547">
        <ele>1642.2</ele>
        <time>2020-02-08T12:03:21Z</time>
      </trkpt>
      <trkpt lat="42.71437" lon="1.64548">
        <ele>1642.2</ele>
        <time>2020-02-08T12:03:22Z</time>
      </trkpt>
      <trkpt lat="42.71437" lon="1.64549">
        <ele>1642.3</ele>
        <time>2020-02-08T12:03:23Z</time>
      </trkpt>
      <trkpt lat="42.71438" lon="1.6455">
        <ele>1642.6</ele>
        <time>2020-02-08T12:03:24Z</time>
      </trkpt>
      <trkpt lat="42.71438" lon="1.6455">
        <ele>1642.8</ele>
        <time>2020-02-08T12:03:25Z</time>
      </trkpt>
      <trkpt lat="42.71439" lon="1.64551">
        <ele>1643</ele>
        <time>2020-02-08T12:03:26Z</time>
      </trkpt>
      <trkpt lat="42.7144" lon="1.64552">
        <ele>1643.3</ele>
        <time>2020-02-08T12:03:27Z</time>
      </trkpt>
      <trkpt lat="42.7144" lon="1.64553">
        <ele>1643.5</ele>
        <time>2020-02-08T12:03:28Z</time>
      </trkpt>
      <trkpt lat="42.71441" lon="1.64554">
        <ele>1643.8</ele>
        <time>2020-02-08T12:03:29Z</time>
      </trkpt>
      <trkpt lat="42.71442" lon="1.64558">
        <ele>1644.7</ele>
        <time>2020-02-08T12:03:30Z</time>
      </trkpt>
      <trkpt lat="42.71442" lon="1.64559">
        <ele>1644.9</ele>
        <time>2020-02-08T12:03:31Z</time>
      </trkpt>
      <trkpt lat="42.71443" lon="1.64559">
        <ele>1645</ele>
        <time>2020-02-08T12:03:32Z</time>
      </trkpt>
      <trkpt lat="42.71443" lon="1.6456">
        <ele>1645.2</ele>
        <time>2020-02-08T12:03:33Z</time>
      </trkpt>
      <trkpt lat="42.71444" lon="1.64561">
        <ele>1645.3</ele>
        <time>2020-02-08T12:03:34Z</time>
      </trkpt>
      <trkpt lat="42.71444" lon="1.64562">
        <ele>1645.5</ele>
        <time>2020-02-08T12:03:35Z</time>
      </trkpt>
      <trkpt lat="42.71445" lon="1.64562">
        <ele>1645.6</ele>
        <time>2020-02-08T12:03:36Z</time>
      </trkpt>
      <trkpt lat="42.71445" lon="1.64563">
        <ele>1645.8</ele>
        <time>2020-02-08T12:03:37Z</time>
      </trkpt>
      <trkpt lat="42.71445" lon="1.64564">
        <ele>1645.9</ele>
        <time>2020-02-08T12:03:38Z</time>
      </trkpt>
      <trkpt lat="42.71446" lon="1.64565">
        <ele>1646.1</ele>
        <time>2020-02-08T12:03:39Z</time>
      </trkpt>
      <trkpt lat="42.71446" lon="1.64565">
        <ele>1646.1</ele>
        <time>2020-02-08T12:03:40Z</time>
      </trkpt>
      <trkpt lat="42.71446" lon="1.64565">
        <ele>1646.1</ele>
        <time>2020-02-08T12:03:41Z</time>
      </trkpt>
      <trkpt lat="42.71446" lon="1.64565">
        <ele>1646.1</ele>
        <time>2020-02-08T12:03:42Z</time>
      </trkpt>
      <trkpt lat="42.71446" lon="1.64565">
        <ele>1646.1</ele>
        <time>2020-02-08T12:03:43Z</time>
      </trkpt>
      <trkpt lat="42.71446" lon="1.64565">
        <ele>1646.1</ele>
        <time>2020-02-08T12:03:44Z</time>
      </trkpt>
      <trkpt lat="42.71446" lon="1.64565">
        <ele>1646.1</ele>
        <time>2020-02-08T12:03:45Z</time>
      </trkpt>
      <trkpt lat="42.71448" lon="1.64565">
        <ele>1646.6</ele>
        <time>2020-02-08T12:03:46Z</time>
      </trkpt>
      <trkpt lat="42.71448" lon="1.64565">
        <ele>1646.6</ele>
        <time>2020-02-08T12:03:47Z</time>
      </trkpt>
      <trkpt lat="42.71448" lon="1.64565">
        <ele>1646.6</ele>
        <time>2020-02-08T12:03:48Z</time>
      </trkpt>
      <trkpt lat="42.71448" lon="1.64565">
        <ele>1646.6</ele>
        <time>2020-02-08T12:03:49Z</time>
      </trkpt>
      <trkpt lat="42.71448" lon="1.64565">
        <ele>1646.6</ele>
        <time>2020-02-08T12:03:50Z</time>
      </trkpt>
      <trkpt lat="42.71448" lon="1.64565">
        <ele>1646.6</ele>
        <time>2020-02-08T12:03:51Z</time>
      </trkpt>
      <trkpt lat="42.71448" lon="1.64565">
        <ele>1646.6</ele>
        <time>2020-02-08T12:03:52Z</time>
      </trkpt>
      <trkpt lat="42.71448" lon="1.64565">
        <ele>1646.7</ele>
        <time>2020-02-08T12:03:53Z</time>
      </trkpt>
      <trkpt lat="42.71448" lon="1.64565">
        <ele>1646.7</ele>
        <time>2020-02-08T12:03:54Z</time>
      </trkpt>
      <trkpt lat="42.71448" lon="1.64565">
        <ele>1646.7</ele>
        <time>2020-02-08T12:03:55Z</time>
      </trkpt>
      <trkpt lat="42.71448" lon="1.64565">
        <ele>1646.7</ele>
        <time>2020-02-08T12:03:56Z</time>
      </trkpt>
      <trkpt lat="42.71448" lon="1.64565">
        <ele>1646.7</ele>
        <time>2020-02-08T12:03:57Z</time>
      </trkpt>
      <trkpt lat="42.7145" lon="1.64564">
        <ele>1647.2</ele>
        <time>2020-02-08T12:03:58Z</time>
      </trkpt>
      <trkpt lat="42.7145" lon="1.64564">
        <ele>1647.2</ele>
        <time>2020-02-08T12:03:59Z</time>
      </trkpt>
      <trkpt lat="42.7145" lon="1.64564">
        <ele>1647.3</ele>
        <time>2020-02-08T12:04:00Z</time>
      </trkpt>
      <trkpt lat="42.71452" lon="1.64563">
        <ele>1647.7</ele>
        <time>2020-02-08T12:04:01Z</time>
      </trkpt>
      <trkpt lat="42.71452" lon="1.64563">
        <ele>1647.7</ele>
        <time>2020-02-08T12:04:02Z</time>
      </trkpt>
      <trkpt lat="42.71452" lon="1.64563">
        <ele>1647.7</ele>
        <time>2020-02-08T12:04:03Z</time>
      </trkpt>
      <trkpt lat="42.71452" lon="1.64563">
        <ele>1647.7</ele>
        <time>2020-02-08T12:04:04Z</time>
      </trkpt>
      <trkpt lat="42.71452" lon="1.64563">
        <ele>1647.7</ele>
        <time>2020-02-08T12:04:05Z</time>
      </trkpt>
      <trkpt lat="42.71454" lon="1.64562">
        <ele>1648.3</ele>
        <time>2020-02-08T12:04:06Z</time>
      </trkpt>
      <trkpt lat="42.71454" lon="1.64562">
        <ele>1648.3</ele>
        <time>2020-02-08T12:04:07Z</time>
      </trkpt>
      <trkpt lat="42.71454" lon="1.64562">
        <ele>1648.3</ele>
        <time>2020-02-08T12:04:08Z</time>
      </trkpt>
      <trkpt lat="42.71455" lon="1.64565">
        <ele>1648.8</ele>
        <time>2020-02-08T12:04:09Z</time>
      </trkpt>
      <trkpt lat="42.71456" lon="1.64565">
        <ele>1648.9</ele>
        <time>2020-02-08T12:04:10Z</time>
      </trkpt>
      <trkpt lat="42.71456" lon="1.64566">
        <ele>1649.1</ele>
        <time>2020-02-08T12:04:11Z</time>
      </trkpt>
      <trkpt lat="42.71456" lon="1.64566">
        <ele>1649.2</ele>
        <time>2020-02-08T12:04:12Z</time>
      </trkpt>
      <trkpt lat="42.71457" lon="1.64567">
        <ele>1649.4</ele>
        <time>2020-02-08T12:04:13Z</time>
      </trkpt>
      <trkpt lat="42.71457" lon="1.64568">
        <ele>1649.5</ele>
        <time>2020-02-08T12:04:14Z</time>
      </trkpt>
      <trkpt lat="42.71458" lon="1.64568">
        <ele>1649.7</ele>
        <time>2020-02-08T12:04:15Z</time>
      </trkpt>
      <trkpt lat="42.71458" lon="1.64569">
        <ele>1649.8</ele>
        <time>2020-02-08T12:04:16Z</time>
      </trkpt>
      <trkpt lat="42.71458" lon="1.6457">
        <ele>1649.9</ele>
        <time>2020-02-08T12:04:17Z</time>
      </trkpt>
      <trkpt lat="42.71459" lon="1.6457">
        <ele>1650.1</ele>
        <time>2020-02-08T12:04:18Z</time>
      </trkpt>
      <trkpt lat="42.71459" lon="1.64571">
        <ele>1650.3</ele>
        <time>2020-02-08T12:04:19Z</time>
      </trkpt>
      <trkpt lat="42.71459" lon="1.64571">
        <ele>1650.3</ele>
        <time>2020-02-08T12:04:20Z</time>
      </trkpt>
      <trkpt lat="42.71459" lon="1.64571">
        <ele>1650.3</ele>
        <time>2020-02-08T12:04:21Z</time>
      </trkpt>
      <trkpt lat="42.71459" lon="1.64571">
        <ele>1650.3</ele>
        <time>2020-02-08T12:04:22Z</time>
      </trkpt>
      <trkpt lat="42.71459" lon="1.64571">
        <ele>1650.3</ele>
        <time>2020-02-08T12:04:23Z</time>
      </trkpt>
      <trkpt lat="42.71459" lon="1.64571">
        <ele>1650.3</ele>
        <time>2020-02-08T12:04:24Z</time>
      </trkpt>
      <trkpt lat="42.71459" lon="1.64571">
        <ele>1650.3</ele>
        <time>2020-02-08T12:04:25Z</time>
      </trkpt>
      <trkpt lat="42.71459" lon="1.64571">
        <ele>1650.4</ele>
        <time>2020-02-08T12:04:26Z</time>
      </trkpt>
      <trkpt lat="42.71459" lon="1.64571">
        <ele>1650.4</ele>
        <time>2020-02-08T12:04:27Z</time>
      </trkpt>
      <trkpt lat="42.71459" lon="1.64571">
        <ele>1650.4</ele>
        <time>2020-02-08T12:04:28Z</time>
      </trkpt>
      <trkpt lat="42.71459" lon="1.64571">
        <ele>1650.4</ele>
        <time>2020-02-08T12:04:29Z</time>
      </trkpt>
      <trkpt lat="42.71459" lon="1.64571">
        <ele>1650.4</ele>
        <time>2020-02-08T12:04:30Z</time>
      </trkpt>
      <trkpt lat="42.71459" lon="1.64571">
        <ele>1650.4</ele>
        <time>2020-02-08T12:04:31Z</time>
      </trkpt>
      <trkpt lat="42.71459" lon="1.64571">
        <ele>1650.5</ele>
        <time>2020-02-08T12:04:32Z</time>
      </trkpt>
      <trkpt lat="42.71459" lon="1.64571">
        <ele>1650.5</ele>
        <time>2020-02-08T12:04:33Z</time>
      </trkpt>
      <trkpt lat="42.71459" lon="1.64571">
        <ele>1650.5</ele>
        <time>2020-02-08T12:04:34Z</time>
      </trkpt>
      <trkpt lat="42.71459" lon="1.64574">
        <ele>1650.9</ele>
        <time>2020-02-08T12:04:35Z</time>
      </trkpt>
      <trkpt lat="42.71459" lon="1.64574">
        <ele>1650.9</ele>
        <time>2020-02-08T12:04:36Z</time>
      </trkpt>
      <trkpt lat="42.71459" lon="1.64574">
        <ele>1650.9</ele>
        <time>2020-02-08T12:04:37Z</time>
      </trkpt>
      <trkpt lat="42.71459" lon="1.64574">
        <ele>1650.9</ele>
        <time>2020-02-08T12:04:38Z</time>
      </trkpt>
      <trkpt lat="42.71459" lon="1.64574">
        <ele>1651</ele>
        <time>2020-02-08T12:04:39Z</time>
      </trkpt>
      <trkpt lat="42.7146" lon="1.64574">
        <ele>1651</ele>
        <time>2020-02-08T12:04:40Z</time>
      </trkpt>
      <trkpt lat="42.7146" lon="1.64574">
        <ele>1651</ele>
        <time>2020-02-08T12:04:41Z</time>
      </trkpt>
      <trkpt lat="42.7146" lon="1.64574">
        <ele>1651.1</ele>
        <time>2020-02-08T12:04:42Z</time>
      </trkpt>
      <trkpt lat="42.7146" lon="1.64574">
        <ele>1651.1</ele>
        <time>2020-02-08T12:04:43Z</time>
      </trkpt>
      <trkpt lat="42.7146" lon="1.64574">
        <ele>1651.2</ele>
        <time>2020-02-08T12:04:44Z</time>
      </trkpt>
      <trkpt lat="42.7146" lon="1.64574">
        <ele>1651.2</ele>
        <time>2020-02-08T12:04:45Z</time>
      </trkpt>
      <trkpt lat="42.7146" lon="1.64574">
        <ele>1651.3</ele>
        <time>2020-02-08T12:04:46Z</time>
      </trkpt>
      <trkpt lat="42.7146" lon="1.64574">
        <ele>1651.3</ele>
        <time>2020-02-08T12:04:47Z</time>
      </trkpt>
      <trkpt lat="42.71461" lon="1.64574">
        <ele>1651.4</ele>
        <time>2020-02-08T12:04:48Z</time>
      </trkpt>
      <trkpt lat="42.71461" lon="1.64575">
        <ele>1651.5</ele>
        <time>2020-02-08T12:04:49Z</time>
      </trkpt>
      <trkpt lat="42.71461" lon="1.64575">
        <ele>1651.5</ele>
        <time>2020-02-08T12:04:50Z</time>
      </trkpt>
      <trkpt lat="42.71461" lon="1.64575">
        <ele>1651.5</ele>
        <time>2020-02-08T12:04:51Z</time>
      </trkpt>
      <trkpt lat="42.71461" lon="1.64575">
        <ele>1651.6</ele>
        <time>2020-02-08T12:04:52Z</time>
      </trkpt>
      <trkpt lat="42.71461" lon="1.64575">
        <ele>1651.6</ele>
        <time>2020-02-08T12:04:53Z</time>
      </trkpt>
      <trkpt lat="42.71461" lon="1.64575">
        <ele>1651.7</ele>
        <time>2020-02-08T12:04:54Z</time>
      </trkpt>
      <trkpt lat="42.71462" lon="1.64575">
        <ele>1651.7</ele>
        <time>2020-02-08T12:04:55Z</time>
      </trkpt>
      <trkpt lat="42.71462" lon="1.64575">
        <ele>1651.8</ele>
        <time>2020-02-08T12:04:56Z</time>
      </trkpt>
      <trkpt lat="42.71462" lon="1.64575">
        <ele>1651.8</ele>
        <time>2020-02-08T12:04:57Z</time>
      </trkpt>
      <trkpt lat="42.71462" lon="1.64575">
        <ele>1651.9</ele>
        <time>2020-02-08T12:04:58Z</time>
      </trkpt>
      <trkpt lat="42.71462" lon="1.64575">
        <ele>1651.9</ele>
        <time>2020-02-08T12:04:59Z</time>
      </trkpt>
      <trkpt lat="42.71462" lon="1.64576">
        <ele>1651.9</ele>
        <time>2020-02-08T12:05:00Z</time>
      </trkpt>
      <trkpt lat="42.71462" lon="1.64576">
        <ele>1652</ele>
        <time>2020-02-08T12:05:01Z</time>
      </trkpt>
      <trkpt lat="42.71462" lon="1.64576">
        <ele>1652.1</ele>
        <time>2020-02-08T12:05:02Z</time>
      </trkpt>
      <trkpt lat="42.71463" lon="1.64576">
        <ele>1652.1</ele>
        <time>2020-02-08T12:05:03Z</time>
      </trkpt>
      <trkpt lat="42.71463" lon="1.64576">
        <ele>1652.2</ele>
        <time>2020-02-08T12:05:04Z</time>
      </trkpt>
      <trkpt lat="42.71463" lon="1.64576">
        <ele>1652.2</ele>
        <time>2020-02-08T12:05:05Z</time>
      </trkpt>
      <trkpt lat="42.71463" lon="1.64576">
        <ele>1652.2</ele>
        <time>2020-02-08T12:05:06Z</time>
      </trkpt>
      <trkpt lat="42.71463" lon="1.64576">
        <ele>1652.3</ele>
        <time>2020-02-08T12:05:07Z</time>
      </trkpt>
      <trkpt lat="42.71463" lon="1.64576">
        <ele>1652.4</ele>
        <time>2020-02-08T12:05:08Z</time>
      </trkpt>
      <trkpt lat="42.71463" lon="1.64576">
        <ele>1652.4</ele>
        <time>2020-02-08T12:05:09Z</time>
      </trkpt>
      <trkpt lat="42.71465" lon="1.64578">
        <ele>1652.9</ele>
        <time>2020-02-08T12:05:10Z</time>
      </trkpt>
      <trkpt lat="42.71465" lon="1.64578">
        <ele>1652.9</ele>
        <time>2020-02-08T12:05:11Z</time>
      </trkpt>
      <trkpt lat="42.71465" lon="1.64578">
        <ele>1652.9</ele>
        <time>2020-02-08T12:05:12Z</time>
      </trkpt>
      <trkpt lat="42.71465" lon="1.64578">
        <ele>1652.9</ele>
        <time>2020-02-08T12:05:13Z</time>
      </trkpt>
      <trkpt lat="42.71465" lon="1.64578">
        <ele>1653</ele>
        <time>2020-02-08T12:05:14Z</time>
      </trkpt>
      <trkpt lat="42.71466" lon="1.6458">
        <ele>1653.6</ele>
        <time>2020-02-08T12:05:15Z</time>
      </trkpt>
      <trkpt lat="42.71466" lon="1.6458">
        <ele>1653.6</ele>
        <time>2020-02-08T12:05:16Z</time>
      </trkpt>
      <trkpt lat="42.71466" lon="1.6458">
        <ele>1653.6</ele>
        <time>2020-02-08T12:05:17Z</time>
      </trkpt>
      <trkpt lat="42.71466" lon="1.6458">
        <ele>1653.6</ele>
        <time>2020-02-08T12:05:18Z</time>
      </trkpt>
      <trkpt lat="42.71466" lon="1.6458">
        <ele>1653.6</ele>
        <time>2020-02-08T12:05:19Z</time>
      </trkpt>
      <trkpt lat="42.71469" lon="1.64581">
        <ele>1654.5</ele>
        <time>2020-02-08T12:05:20Z</time>
      </trkpt>
      <trkpt lat="42.71469" lon="1.64581">
        <ele>1654.6</ele>
        <time>2020-02-08T12:05:21Z</time>
      </trkpt>
      <trkpt lat="42.7147" lon="1.64581">
        <ele>1654.7</ele>
        <time>2020-02-08T12:05:22Z</time>
      </trkpt>
      <trkpt lat="42.7147" lon="1.64581">
        <ele>1654.9</ele>
        <time>2020-02-08T12:05:23Z</time>
      </trkpt>
      <trkpt lat="42.7147" lon="1.64582">
        <ele>1655</ele>
        <time>2020-02-08T12:05:24Z</time>
      </trkpt>
      <trkpt lat="42.71471" lon="1.64582">
        <ele>1655.1</ele>
        <time>2020-02-08T12:05:25Z</time>
      </trkpt>
      <trkpt lat="42.71471" lon="1.64582">
        <ele>1655.3</ele>
        <time>2020-02-08T12:05:26Z</time>
      </trkpt>
      <trkpt lat="42.71472" lon="1.64583">
        <ele>1655.4</ele>
        <time>2020-02-08T12:05:27Z</time>
      </trkpt>
      <trkpt lat="42.71472" lon="1.64583">
        <ele>1655.5</ele>
        <time>2020-02-08T12:05:28Z</time>
      </trkpt>
      <trkpt lat="42.71472" lon="1.64583">
        <ele>1655.6</ele>
        <time>2020-02-08T12:05:29Z</time>
      </trkpt>
      <trkpt lat="42.71473" lon="1.64584">
        <ele>1655.7</ele>
        <time>2020-02-08T12:05:30Z</time>
      </trkpt>
      <trkpt lat="42.71473" lon="1.64584">
        <ele>1655.8</ele>
        <time>2020-02-08T12:05:31Z</time>
      </trkpt>
      <trkpt lat="42.71473" lon="1.64585">
        <ele>1655.9</ele>
        <time>2020-02-08T12:05:32Z</time>
      </trkpt>
      <trkpt lat="42.71473" lon="1.64585">
        <ele>1656</ele>
        <time>2020-02-08T12:05:33Z</time>
      </trkpt>
      <trkpt lat="42.71474" lon="1.64586">
        <ele>1656.1</ele>
        <time>2020-02-08T12:05:34Z</time>
      </trkpt>
      <trkpt lat="42.71474" lon="1.64586">
        <ele>1656.2</ele>
        <time>2020-02-08T12:05:35Z</time>
      </trkpt>
      <trkpt lat="42.71474" lon="1.64586">
        <ele>1656.3</ele>
        <time>2020-02-08T12:05:36Z</time>
      </trkpt>
      <trkpt lat="42.71475" lon="1.64587">
        <ele>1656.3</ele>
        <time>2020-02-08T12:05:37Z</time>
      </trkpt>
      <trkpt lat="42.71475" lon="1.64587">
        <ele>1656.4</ele>
        <time>2020-02-08T12:05:38Z</time>
      </trkpt>
      <trkpt lat="42.71475" lon="1.64588">
        <ele>1656.5</ele>
        <time>2020-02-08T12:05:39Z</time>
      </trkpt>
      <trkpt lat="42.71475" lon="1.64588">
        <ele>1656.5</ele>
        <time>2020-02-08T12:05:40Z</time>
      </trkpt>
      <trkpt lat="42.71476" lon="1.6459">
        <ele>1656.9</ele>
        <time>2020-02-08T12:05:41Z</time>
      </trkpt>
      <trkpt lat="42.71476" lon="1.6459">
        <ele>1656.9</ele>
        <time>2020-02-08T12:05:42Z</time>
      </trkpt>
      <trkpt lat="42.71476" lon="1.6459">
        <ele>1656.9</ele>
        <time>2020-02-08T12:05:43Z</time>
      </trkpt>
      <trkpt lat="42.71476" lon="1.6459">
        <ele>1656.9</ele>
        <time>2020-02-08T12:05:44Z</time>
      </trkpt>
      <trkpt lat="42.71476" lon="1.6459">
        <ele>1656.9</ele>
        <time>2020-02-08T12:05:45Z</time>
      </trkpt>
      <trkpt lat="42.71478" lon="1.6459">
        <ele>1657.3</ele>
        <time>2020-02-08T12:05:46Z</time>
      </trkpt>
      <trkpt lat="42.71478" lon="1.6459">
        <ele>1657.3</ele>
        <time>2020-02-08T12:05:47Z</time>
      </trkpt>
      <trkpt lat="42.71478" lon="1.6459">
        <ele>1657.3</ele>
        <time>2020-02-08T12:05:48Z</time>
      </trkpt>
      <trkpt lat="42.71478" lon="1.6459">
        <ele>1657.3</ele>
        <time>2020-02-08T12:05:49Z</time>
      </trkpt>
      <trkpt lat="42.71479" lon="1.6459">
        <ele>1657.4</ele>
        <time>2020-02-08T12:05:50Z</time>
      </trkpt>
      <trkpt lat="42.71479" lon="1.6459">
        <ele>1657.5</ele>
        <time>2020-02-08T12:05:51Z</time>
      </trkpt>
      <trkpt lat="42.7148" lon="1.6459">
        <ele>1657.6</ele>
        <time>2020-02-08T12:05:52Z</time>
      </trkpt>
      <trkpt lat="42.7148" lon="1.6459">
        <ele>1657.6</ele>
        <time>2020-02-08T12:05:53Z</time>
      </trkpt>
      <trkpt lat="42.7148" lon="1.6459">
        <ele>1657.7</ele>
        <time>2020-02-08T12:05:54Z</time>
      </trkpt>
      <trkpt lat="42.71481" lon="1.6459">
        <ele>1657.8</ele>
        <time>2020-02-08T12:05:55Z</time>
      </trkpt>
      <trkpt lat="42.71481" lon="1.6459">
        <ele>1657.8</ele>
        <time>2020-02-08T12:05:56Z</time>
      </trkpt>
      <trkpt lat="42.71482" lon="1.6459">
        <ele>1657.9</ele>
        <time>2020-02-08T12:05:57Z</time>
      </trkpt>
      <trkpt lat="42.71482" lon="1.6459">
        <ele>1658</ele>
        <time>2020-02-08T12:05:58Z</time>
      </trkpt>
      <trkpt lat="42.71483" lon="1.6459">
        <ele>1658.1</ele>
        <time>2020-02-08T12:05:59Z</time>
      </trkpt>
      <trkpt lat="42.71484" lon="1.64595">
        <ele>1658.6</ele>
        <time>2020-02-08T12:06:00Z</time>
      </trkpt>
      <trkpt lat="42.71485" lon="1.64596">
        <ele>1658.8</ele>
        <time>2020-02-08T12:06:01Z</time>
      </trkpt>
      <trkpt lat="42.71485" lon="1.64597">
        <ele>1659</ele>
        <time>2020-02-08T12:06:02Z</time>
      </trkpt>
      <trkpt lat="42.71486" lon="1.64598">
        <ele>1659.1</ele>
        <time>2020-02-08T12:06:03Z</time>
      </trkpt>
      <trkpt lat="42.71486" lon="1.64599">
        <ele>1659.3</ele>
        <time>2020-02-08T12:06:04Z</time>
      </trkpt>
      <trkpt lat="42.71487" lon="1.646">
        <ele>1659.4</ele>
        <time>2020-02-08T12:06:05Z</time>
      </trkpt>
      <trkpt lat="42.71487" lon="1.64601">
        <ele>1659.6</ele>
        <time>2020-02-08T12:06:06Z</time>
      </trkpt>
      <trkpt lat="42.71488" lon="1.64602">
        <ele>1659.8</ele>
        <time>2020-02-08T12:06:07Z</time>
      </trkpt>
      <trkpt lat="42.71488" lon="1.64603">
        <ele>1659.9</ele>
        <time>2020-02-08T12:06:08Z</time>
      </trkpt>
      <trkpt lat="42.71489" lon="1.64604">
        <ele>1660.1</ele>
        <time>2020-02-08T12:06:09Z</time>
      </trkpt>
      <trkpt lat="42.71489" lon="1.64605">
        <ele>1660.2</ele>
        <time>2020-02-08T12:06:10Z</time>
      </trkpt>
      <trkpt lat="42.71489" lon="1.64606">
        <ele>1660.3</ele>
        <time>2020-02-08T12:06:11Z</time>
      </trkpt>
      <trkpt lat="42.71489" lon="1.64606">
        <ele>1660.4</ele>
        <time>2020-02-08T12:06:12Z</time>
      </trkpt>
      <trkpt lat="42.7149" lon="1.64607">
        <ele>1660.5</ele>
        <time>2020-02-08T12:06:13Z</time>
      </trkpt>
      <trkpt lat="42.7149" lon="1.64608">
        <ele>1660.6</ele>
        <time>2020-02-08T12:06:14Z</time>
      </trkpt>
      <trkpt lat="42.7149" lon="1.64609">
        <ele>1660.7</ele>
        <time>2020-02-08T12:06:15Z</time>
      </trkpt>
      <trkpt lat="42.7149" lon="1.6461">
        <ele>1660.8</ele>
        <time>2020-02-08T12:06:16Z</time>
      </trkpt>
      <trkpt lat="42.7149" lon="1.6461">
        <ele>1660.9</ele>
        <time>2020-02-08T12:06:17Z</time>
      </trkpt>
      <trkpt lat="42.7149" lon="1.64611">
        <ele>1661</ele>
        <time>2020-02-08T12:06:18Z</time>
      </trkpt>
      <trkpt lat="42.71491" lon="1.64612">
        <ele>1661.1</ele>
        <time>2020-02-08T12:06:19Z</time>
      </trkpt>
      <trkpt lat="42.71492" lon="1.64614">
        <ele>1661.5</ele>
        <time>2020-02-08T12:06:20Z</time>
      </trkpt>
      <trkpt lat="42.71492" lon="1.64614">
        <ele>1661.5</ele>
        <time>2020-02-08T12:06:21Z</time>
      </trkpt>
      <trkpt lat="42.71492" lon="1.64614">
        <ele>1661.5</ele>
        <time>2020-02-08T12:06:22Z</time>
      </trkpt>
      <trkpt lat="42.71492" lon="1.64614">
        <ele>1661.5</ele>
        <time>2020-02-08T12:06:23Z</time>
      </trkpt>
      <trkpt lat="42.71492" lon="1.64614">
        <ele>1661.5</ele>
        <time>2020-02-08T12:06:24Z</time>
      </trkpt>
      <trkpt lat="42.71492" lon="1.64614">
        <ele>1661.5</ele>
        <time>2020-02-08T12:06:25Z</time>
      </trkpt>
      <trkpt lat="42.71492" lon="1.64614">
        <ele>1661.5</ele>
        <time>2020-02-08T12:06:26Z</time>
      </trkpt>
      <trkpt lat="42.71492" lon="1.64614">
        <ele>1661.5</ele>
        <time>2020-02-08T12:06:27Z</time>
      </trkpt>
      <trkpt lat="42.71492" lon="1.64614">
        <ele>1661.5</ele>
        <time>2020-02-08T12:06:28Z</time>
      </trkpt>
      <trkpt lat="42.71492" lon="1.64611">
        <ele>1661.8</ele>
        <time>2020-02-08T12:06:29Z</time>
      </trkpt>
      <trkpt lat="42.71493" lon="1.64612">
        <ele>1661.9</ele>
        <time>2020-02-08T12:06:30Z</time>
      </trkpt>
      <trkpt lat="42.71494" lon="1.64612">
        <ele>1662</ele>
        <time>2020-02-08T12:06:31Z</time>
      </trkpt>
      <trkpt lat="42.71494" lon="1.64612">
        <ele>1662.1</ele>
        <time>2020-02-08T12:06:32Z</time>
      </trkpt>
      <trkpt lat="42.71495" lon="1.64612">
        <ele>1662.2</ele>
        <time>2020-02-08T12:06:33Z</time>
      </trkpt>
      <trkpt lat="42.71495" lon="1.64613">
        <ele>1662.3</ele>
        <time>2020-02-08T12:06:34Z</time>
      </trkpt>
      <trkpt lat="42.71496" lon="1.64613">
        <ele>1662.4</ele>
        <time>2020-02-08T12:06:35Z</time>
      </trkpt>
      <trkpt lat="42.71496" lon="1.64613">
        <ele>1662.5</ele>
        <time>2020-02-08T12:06:36Z</time>
      </trkpt>
      <trkpt lat="42.71497" lon="1.64614">
        <ele>1662.6</ele>
        <time>2020-02-08T12:06:37Z</time>
      </trkpt>
      <trkpt lat="42.71497" lon="1.64614">
        <ele>1662.7</ele>
        <time>2020-02-08T12:06:38Z</time>
      </trkpt>
      <trkpt lat="42.71498" lon="1.64614">
        <ele>1662.8</ele>
        <time>2020-02-08T12:06:39Z</time>
      </trkpt>
      <trkpt lat="42.71498" lon="1.64615">
        <ele>1662.8</ele>
        <time>2020-02-08T12:06:40Z</time>
      </trkpt>
      <trkpt lat="42.71498" lon="1.64615">
        <ele>1662.9</ele>
        <time>2020-02-08T12:06:41Z</time>
      </trkpt>
      <trkpt lat="42.71498" lon="1.64616">
        <ele>1663</ele>
        <time>2020-02-08T12:06:42Z</time>
      </trkpt>
      <trkpt lat="42.71498" lon="1.64616">
        <ele>1663</ele>
        <time>2020-02-08T12:06:43Z</time>
      </trkpt>
      <trkpt lat="42.71498" lon="1.64617">
        <ele>1663.1</ele>
        <time>2020-02-08T12:06:44Z</time>
      </trkpt>
      <trkpt lat="42.71498" lon="1.64617">
        <ele>1663.1</ele>
        <time>2020-02-08T12:06:45Z</time>
      </trkpt>
      <trkpt lat="42.71498" lon="1.64618">
        <ele>1663.2</ele>
        <time>2020-02-08T12:06:46Z</time>
      </trkpt>
      <trkpt lat="42.71498" lon="1.64619">
        <ele>1663.3</ele>
        <time>2020-02-08T12:06:47Z</time>
      </trkpt>
      <trkpt lat="42.71499" lon="1.64619">
        <ele>1663.3</ele>
        <time>2020-02-08T12:06:48Z</time>
      </trkpt>
      <trkpt lat="42.71499" lon="1.6462">
        <ele>1663.4</ele>
        <time>2020-02-08T12:06:49Z</time>
      </trkpt>
      <trkpt lat="42.71499" lon="1.64624">
        <ele>1663.8</ele>
        <time>2020-02-08T12:06:50Z</time>
      </trkpt>
      <trkpt lat="42.715" lon="1.64624">
        <ele>1663.9</ele>
        <time>2020-02-08T12:06:51Z</time>
      </trkpt>
      <trkpt lat="42.715" lon="1.64625">
        <ele>1664</ele>
        <time>2020-02-08T12:06:52Z</time>
      </trkpt>
      <trkpt lat="42.715" lon="1.64626">
        <ele>1664.1</ele>
        <time>2020-02-08T12:06:53Z</time>
      </trkpt>
      <trkpt lat="42.715" lon="1.64627">
        <ele>1664.2</ele>
        <time>2020-02-08T12:06:54Z</time>
      </trkpt>
      <trkpt lat="42.71501" lon="1.64627">
        <ele>1664.2</ele>
        <time>2020-02-08T12:06:55Z</time>
      </trkpt>
      <trkpt lat="42.71501" lon="1.64628">
        <ele>1664.3</ele>
        <time>2020-02-08T12:06:56Z</time>
      </trkpt>
      <trkpt lat="42.71501" lon="1.64629">
        <ele>1664.4</ele>
        <time>2020-02-08T12:06:57Z</time>
      </trkpt>
      <trkpt lat="42.71502" lon="1.64629">
        <ele>1664.5</ele>
        <time>2020-02-08T12:06:58Z</time>
      </trkpt>
      <trkpt lat="42.71502" lon="1.6463">
        <ele>1664.6</ele>
        <time>2020-02-08T12:06:59Z</time>
      </trkpt>
      <trkpt lat="42.71502" lon="1.64631">
        <ele>1664.6</ele>
        <time>2020-02-08T12:07:00Z</time>
      </trkpt>
      <trkpt lat="42.71502" lon="1.64631">
        <ele>1664.7</ele>
        <time>2020-02-08T12:07:01Z</time>
      </trkpt>
      <trkpt lat="42.71503" lon="1.64632">
        <ele>1664.8</ele>
        <time>2020-02-08T12:07:02Z</time>
      </trkpt>
      <trkpt lat="42.71503" lon="1.64633">
        <ele>1664.9</ele>
        <time>2020-02-08T12:07:03Z</time>
      </trkpt>
      <trkpt lat="42.71503" lon="1.64633">
        <ele>1664.9</ele>
        <time>2020-02-08T12:07:04Z</time>
      </trkpt>
      <trkpt lat="42.71504" lon="1.64634">
        <ele>1665</ele>
        <time>2020-02-08T12:07:05Z</time>
      </trkpt>
      <trkpt lat="42.71504" lon="1.64634">
        <ele>1665.1</ele>
        <time>2020-02-08T12:07:06Z</time>
      </trkpt>
      <trkpt lat="42.71504" lon="1.64635">
        <ele>1665.1</ele>
        <time>2020-02-08T12:07:07Z</time>
      </trkpt>
      <trkpt lat="42.71505" lon="1.64636">
        <ele>1665.2</ele>
        <time>2020-02-08T12:07:08Z</time>
      </trkpt>
      <trkpt lat="42.71505" lon="1.64636">
        <ele>1665.2</ele>
        <time>2020-02-08T12:07:09Z</time>
      </trkpt>
      <trkpt lat="42.71506" lon="1.64637">
        <ele>1665.3</ele>
        <time>2020-02-08T12:07:10Z</time>
      </trkpt>
      <trkpt lat="42.71506" lon="1.64637">
        <ele>1665.3</ele>
        <time>2020-02-08T12:07:11Z</time>
      </trkpt>
      <trkpt lat="42.71507" lon="1.64638">
        <ele>1665.4</ele>
        <time>2020-02-08T12:07:12Z</time>
      </trkpt>
      <trkpt lat="42.71507" lon="1.64638">
        <ele>1665.5</ele>
        <time>2020-02-08T12:07:13Z</time>
      </trkpt>
      <trkpt lat="42.71508" lon="1.64638">
        <ele>1665.5</ele>
        <time>2020-02-08T12:07:14Z</time>
      </trkpt>
      <trkpt lat="42.71508" lon="1.64639">
        <ele>1665.6</ele>
        <time>2020-02-08T12:07:15Z</time>
      </trkpt>
      <trkpt lat="42.71509" lon="1.64639">
        <ele>1665.7</ele>
        <time>2020-02-08T12:07:16Z</time>
      </trkpt>
      <trkpt lat="42.7151" lon="1.6464">
        <ele>1665.7</ele>
        <time>2020-02-08T12:07:17Z</time>
      </trkpt>
      <trkpt lat="42.7151" lon="1.6464">
        <ele>1665.8</ele>
        <time>2020-02-08T12:07:18Z</time>
      </trkpt>
      <trkpt lat="42.71511" lon="1.64641">
        <ele>1665.8</ele>
        <time>2020-02-08T12:07:19Z</time>
      </trkpt>
      <trkpt lat="42.71511" lon="1.64642">
        <ele>1665.9</ele>
        <time>2020-02-08T12:07:20Z</time>
      </trkpt>
      <trkpt lat="42.71512" lon="1.64643">
        <ele>1666</ele>
        <time>2020-02-08T12:07:21Z</time>
      </trkpt>
      <trkpt lat="42.71513" lon="1.64643">
        <ele>1666.1</ele>
        <time>2020-02-08T12:07:22Z</time>
      </trkpt>
      <trkpt lat="42.71513" lon="1.64644">
        <ele>1666.2</ele>
        <time>2020-02-08T12:07:23Z</time>
      </trkpt>
      <trkpt lat="42.71514" lon="1.64645">
        <ele>1666.3</ele>
        <time>2020-02-08T12:07:24Z</time>
      </trkpt>
      <trkpt lat="42.71515" lon="1.64646">
        <ele>1666.4</ele>
        <time>2020-02-08T12:07:25Z</time>
      </trkpt>
      <trkpt lat="42.71515" lon="1.64647">
        <ele>1666.4</ele>
        <time>2020-02-08T12:07:26Z</time>
      </trkpt>
      <trkpt lat="42.71516" lon="1.64648">
        <ele>1666.5</ele>
        <time>2020-02-08T12:07:27Z</time>
      </trkpt>
      <trkpt lat="42.71517" lon="1.64649">
        <ele>1666.6</ele>
        <time>2020-02-08T12:07:28Z</time>
      </trkpt>
      <trkpt lat="42.71517" lon="1.6465">
        <ele>1666.7</ele>
        <time>2020-02-08T12:07:29Z</time>
      </trkpt>
      <trkpt lat="42.71518" lon="1.6465">
        <ele>1666.8</ele>
        <time>2020-02-08T12:07:30Z</time>
      </trkpt>
      <trkpt lat="42.71518" lon="1.64651">
        <ele>1666.8</ele>
        <time>2020-02-08T12:07:31Z</time>
      </trkpt>
      <trkpt lat="42.71519" lon="1.64651">
        <ele>1666.9</ele>
        <time>2020-02-08T12:07:32Z</time>
      </trkpt>
      <trkpt lat="42.71519" lon="1.64652">
        <ele>1666.9</ele>
        <time>2020-02-08T12:07:33Z</time>
      </trkpt>
      <trkpt lat="42.7152" lon="1.64652">
        <ele>1666.9</ele>
        <time>2020-02-08T12:07:34Z</time>
      </trkpt>
      <trkpt lat="42.7152" lon="1.64653">
        <ele>1667</ele>
        <time>2020-02-08T12:07:35Z</time>
      </trkpt>
      <trkpt lat="42.71521" lon="1.64653">
        <ele>1667</ele>
        <time>2020-02-08T12:07:36Z</time>
      </trkpt>
      <trkpt lat="42.71521" lon="1.64654">
        <ele>1667.1</ele>
        <time>2020-02-08T12:07:37Z</time>
      </trkpt>
      <trkpt lat="42.71521" lon="1.64655">
        <ele>1667.1</ele>
        <time>2020-02-08T12:07:38Z</time>
      </trkpt>
      <trkpt lat="42.71522" lon="1.64655">
        <ele>1667.2</ele>
        <time>2020-02-08T12:07:39Z</time>
      </trkpt>
      <trkpt lat="42.71522" lon="1.64655">
        <ele>1667.2</ele>
        <time>2020-02-08T12:07:40Z</time>
      </trkpt>
      <trkpt lat="42.71523" lon="1.64655">
        <ele>1667.2</ele>
        <time>2020-02-08T12:07:41Z</time>
      </trkpt>
      <trkpt lat="42.71523" lon="1.64656">
        <ele>1667.2</ele>
        <time>2020-02-08T12:07:42Z</time>
      </trkpt>
      <trkpt lat="42.71523" lon="1.64656">
        <ele>1667.2</ele>
        <time>2020-02-08T12:07:43Z</time>
      </trkpt>
      <trkpt lat="42.71524" lon="1.64656">
        <ele>1667.3</ele>
        <time>2020-02-08T12:07:44Z</time>
      </trkpt>
      <trkpt lat="42.71524" lon="1.64656">
        <ele>1667.3</ele>
        <time>2020-02-08T12:07:45Z</time>
      </trkpt>
      <trkpt lat="42.71524" lon="1.64656">
        <ele>1667.3</ele>
        <time>2020-02-08T12:07:46Z</time>
      </trkpt>
      <trkpt lat="42.71524" lon="1.64656">
        <ele>1667.3</ele>
        <time>2020-02-08T12:07:47Z</time>
      </trkpt>
      <trkpt lat="42.71525" lon="1.64657">
        <ele>1667.4</ele>
        <time>2020-02-08T12:07:48Z</time>
      </trkpt>
      <trkpt lat="42.71525" lon="1.64657">
        <ele>1667.4</ele>
        <time>2020-02-08T12:07:49Z</time>
      </trkpt>
      <trkpt lat="42.71525" lon="1.64657">
        <ele>1667.4</ele>
        <time>2020-02-08T12:07:50Z</time>
      </trkpt>
      <trkpt lat="42.71525" lon="1.64657">
        <ele>1667.4</ele>
        <time>2020-02-08T12:07:51Z</time>
      </trkpt>
      <trkpt lat="42.71525" lon="1.64657">
        <ele>1667.4</ele>
        <time>2020-02-08T12:07:52Z</time>
      </trkpt>
      <trkpt lat="42.71527" lon="1.64658">
        <ele>1667.6</ele>
        <time>2020-02-08T12:07:53Z</time>
      </trkpt>
      <trkpt lat="42.71527" lon="1.64658">
        <ele>1667.6</ele>
        <time>2020-02-08T12:07:54Z</time>
      </trkpt>
      <trkpt lat="42.71527" lon="1.64658">
        <ele>1667.6</ele>
        <time>2020-02-08T12:07:55Z</time>
      </trkpt>
      <trkpt lat="42.71529" lon="1.6466">
        <ele>1668</ele>
        <time>2020-02-08T12:07:56Z</time>
      </trkpt>
      <trkpt lat="42.71529" lon="1.6466">
        <ele>1668</ele>
        <time>2020-02-08T12:07:57Z</time>
      </trkpt>
      <trkpt lat="42.71529" lon="1.6466">
        <ele>1668</ele>
        <time>2020-02-08T12:07:58Z</time>
      </trkpt>
      <trkpt lat="42.71529" lon="1.6466">
        <ele>1668</ele>
        <time>2020-02-08T12:07:59Z</time>
      </trkpt>
      <trkpt lat="42.7153" lon="1.64661">
        <ele>1668.2</ele>
        <time>2020-02-08T12:08:00Z</time>
      </trkpt>
      <trkpt lat="42.7153" lon="1.64661">
        <ele>1668.2</ele>
        <time>2020-02-08T12:08:01Z</time>
      </trkpt>
      <trkpt lat="42.7153" lon="1.64661">
        <ele>1668.2</ele>
        <time>2020-02-08T12:08:02Z</time>
      </trkpt>
      <trkpt lat="42.7153" lon="1.64661">
        <ele>1668.2</ele>
        <time>2020-02-08T12:08:03Z</time>
      </trkpt>
      <trkpt lat="42.7153" lon="1.64661">
        <ele>1668.2</ele>
        <time>2020-02-08T12:08:04Z</time>
      </trkpt>
      <trkpt lat="42.7153" lon="1.64661">
        <ele>1668.2</ele>
        <time>2020-02-08T12:08:05Z</time>
      </trkpt>
      <trkpt lat="42.7153" lon="1.64661">
        <ele>1668.2</ele>
        <time>2020-02-08T12:08:06Z</time>
      </trkpt>
      <trkpt lat="42.7153" lon="1.64661">
        <ele>1668.2</ele>
        <time>2020-02-08T12:08:07Z</time>
      </trkpt>
      <trkpt lat="42.7153" lon="1.64661">
        <ele>1668.2</ele>
        <time>2020-02-08T12:08:08Z</time>
      </trkpt>
      <trkpt lat="42.7153" lon="1.64661">
        <ele>1668.2</ele>
        <time>2020-02-08T12:08:09Z</time>
      </trkpt>
      <trkpt lat="42.7153" lon="1.64661">
        <ele>1668.3</ele>
        <time>2020-02-08T12:08:10Z</time>
      </trkpt>
      <trkpt lat="42.7153" lon="1.64661">
        <ele>1668.3</ele>
        <time>2020-02-08T12:08:11Z</time>
      </trkpt>
      <trkpt lat="42.71531" lon="1.64661">
        <ele>1668.3</ele>
        <time>2020-02-08T12:08:12Z</time>
      </trkpt>
      <trkpt lat="42.71531" lon="1.64661">
        <ele>1668.3</ele>
        <time>2020-02-08T12:08:13Z</time>
      </trkpt>
      <trkpt lat="42.71531" lon="1.64661">
        <ele>1668.3</ele>
        <time>2020-02-08T12:08:14Z</time>
      </trkpt>
      <trkpt lat="42.71531" lon="1.64661">
        <ele>1668.3</ele>
        <time>2020-02-08T12:08:15Z</time>
      </trkpt>
      <trkpt lat="42.71531" lon="1.64661">
        <ele>1668.3</ele>
        <time>2020-02-08T12:08:16Z</time>
      </trkpt>
      <trkpt lat="42.71531" lon="1.64661">
        <ele>1668.3</ele>
        <time>2020-02-08T12:08:17Z</time>
      </trkpt>
      <trkpt lat="42.71531" lon="1.64661">
        <ele>1668.3</ele>
        <time>2020-02-08T12:08:18Z</time>
      </trkpt>
      <trkpt lat="42.71531" lon="1.64661">
        <ele>1668.3</ele>
        <time>2020-02-08T12:08:19Z</time>
      </trkpt>
      <trkpt lat="42.71531" lon="1.64661">
        <ele>1668.3</ele>
        <time>2020-02-08T12:08:20Z</time>
      </trkpt>
      <trkpt lat="42.71531" lon="1.64661">
        <ele>1668.3</ele>
        <time>2020-02-08T12:08:21Z</time>
      </trkpt>
      <trkpt lat="42.71531" lon="1.64661">
        <ele>1668.4</ele>
        <time>2020-02-08T12:08:22Z</time>
      </trkpt>
      <trkpt lat="42.71531" lon="1.64661">
        <ele>1668.4</ele>
        <time>2020-02-08T12:08:23Z</time>
      </trkpt>
      <trkpt lat="42.71531" lon="1.64661">
        <ele>1668.4</ele>
        <time>2020-02-08T12:08:24Z</time>
      </trkpt>
      <trkpt lat="42.71531" lon="1.64661">
        <ele>1668.4</ele>
        <time>2020-02-08T12:08:25Z</time>
      </trkpt>
      <trkpt lat="42.71531" lon="1.64661">
        <ele>1668.4</ele>
        <time>2020-02-08T12:08:26Z</time>
      </trkpt>
      <trkpt lat="42.71531" lon="1.64661">
        <ele>1668.4</ele>
        <time>2020-02-08T12:08:27Z</time>
      </trkpt>
      <trkpt lat="42.71531" lon="1.64661">
        <ele>1668.4</ele>
        <time>2020-02-08T12:08:28Z</time>
      </trkpt>
      <trkpt lat="42.71531" lon="1.64661">
        <ele>1668.4</ele>
        <time>2020-02-08T12:08:29Z</time>
      </trkpt>
      <trkpt lat="42.71531" lon="1.64661">
        <ele>1668.4</ele>
        <time>2020-02-08T12:08:30Z</time>
      </trkpt>
      <trkpt lat="42.71531" lon="1.64661">
        <ele>1668.4</ele>
        <time>2020-02-08T12:08:31Z</time>
      </trkpt>
      <trkpt lat="42.71532" lon="1.64661">
        <ele>1668.4</ele>
        <time>2020-02-08T12:08:32Z</time>
      </trkpt>
      <trkpt lat="42.71532" lon="1.64661">
        <ele>1668.4</ele>
        <time>2020-02-08T12:08:33Z</time>
      </trkpt>
      <trkpt lat="42.71532" lon="1.64661">
        <ele>1668.4</ele>
        <time>2020-02-08T12:08:34Z</time>
      </trkpt>
      <trkpt lat="42.71532" lon="1.64661">
        <ele>1668.4</ele>
        <time>2020-02-08T12:08:35Z</time>
      </trkpt>
      <trkpt lat="42.71532" lon="1.64661">
        <ele>1668.5</ele>
        <time>2020-02-08T12:08:36Z</time>
      </trkpt>
      <trkpt lat="42.71532" lon="1.64661">
        <ele>1668.5</ele>
        <time>2020-02-08T12:08:37Z</time>
      </trkpt>
      <trkpt lat="42.71532" lon="1.64661">
        <ele>1668.5</ele>
        <time>2020-02-08T12:08:38Z</time>
      </trkpt>
      <trkpt lat="42.71532" lon="1.64661">
        <ele>1668.5</ele>
        <time>2020-02-08T12:08:39Z</time>
      </trkpt>
      <trkpt lat="42.71532" lon="1.64661">
        <ele>1668.5</ele>
        <time>2020-02-08T12:08:40Z</time>
      </trkpt>
      <trkpt lat="42.71532" lon="1.64661">
        <ele>1668.5</ele>
        <time>2020-02-08T12:08:41Z</time>
      </trkpt>
      <trkpt lat="42.71532" lon="1.64661">
        <ele>1668.5</ele>
        <time>2020-02-08T12:08:42Z</time>
      </trkpt>
      <trkpt lat="42.71532" lon="1.64661">
        <ele>1668.5</ele>
        <time>2020-02-08T12:08:43Z</time>
      </trkpt>
      <trkpt lat="42.71532" lon="1.64661">
        <ele>1668.5</ele>
        <time>2020-02-08T12:08:44Z</time>
      </trkpt>
      <trkpt lat="42.71532" lon="1.64661">
        <ele>1668.5</ele>
        <time>2020-02-08T12:08:45Z</time>
      </trkpt>
      <trkpt lat="42.71532" lon="1.64661">
        <ele>1668.5</ele>
        <time>2020-02-08T12:08:46Z</time>
      </trkpt>
      <trkpt lat="42.71532" lon="1.64661">
        <ele>1668.5</ele>
        <time>2020-02-08T12:08:47Z</time>
      </trkpt>
      <trkpt lat="42.71532" lon="1.64661">
        <ele>1668.6</ele>
        <time>2020-02-08T12:08:48Z</time>
      </trkpt>
      <trkpt lat="42.71532" lon="1.64661">
        <ele>1668.6</ele>
        <time>2020-02-08T12:08:49Z</time>
      </trkpt>
      <trkpt lat="42.71532" lon="1.64661">
        <ele>1668.6</ele>
        <time>2020-02-08T12:08:50Z</time>
      </trkpt>
      <trkpt lat="42.71532" lon="1.64661">
        <ele>1668.6</ele>
        <time>2020-02-08T12:08:51Z</time>
      </trkpt>
      <trkpt lat="42.71533" lon="1.64661">
        <ele>1668.6</ele>
        <time>2020-02-08T12:08:52Z</time>
      </trkpt>
      <trkpt lat="42.71533" lon="1.64661">
        <ele>1668.6</ele>
        <time>2020-02-08T12:08:53Z</time>
      </trkpt>
      <trkpt lat="42.71533" lon="1.64661">
        <ele>1668.6</ele>
        <time>2020-02-08T12:08:54Z</time>
      </trkpt>
      <trkpt lat="42.71533" lon="1.64661">
        <ele>1668.6</ele>
        <time>2020-02-08T12:08:55Z</time>
      </trkpt>
      <trkpt lat="42.71533" lon="1.64661">
        <ele>1668.6</ele>
        <time>2020-02-08T12:08:56Z</time>
      </trkpt>
      <trkpt lat="42.71533" lon="1.64661">
        <ele>1668.6</ele>
        <time>2020-02-08T12:08:57Z</time>
      </trkpt>
      <trkpt lat="42.71533" lon="1.64661">
        <ele>1668.6</ele>
        <time>2020-02-08T12:08:58Z</time>
      </trkpt>
      <trkpt lat="42.71533" lon="1.64661">
        <ele>1668.6</ele>
        <time>2020-02-08T12:08:59Z</time>
      </trkpt>
      <trkpt lat="42.71533" lon="1.64661">
        <ele>1668.6</ele>
        <time>2020-02-08T12:09:00Z</time>
      </trkpt>
      <trkpt lat="42.71533" lon="1.64661">
        <ele>1668.6</ele>
        <time>2020-02-08T12:09:01Z</time>
      </trkpt>
      <trkpt lat="42.71533" lon="1.64661">
        <ele>1668.7</ele>
        <time>2020-02-08T12:09:02Z</time>
      </trkpt>
      <trkpt lat="42.71533" lon="1.64661">
        <ele>1668.7</ele>
        <time>2020-02-08T12:09:03Z</time>
      </trkpt>
      <trkpt lat="42.71533" lon="1.64661">
        <ele>1668.7</ele>
        <time>2020-02-08T12:09:04Z</time>
      </trkpt>
      <trkpt lat="42.71533" lon="1.64661">
        <ele>1668.7</ele>
        <time>2020-02-08T12:09:05Z</time>
      </trkpt>
      <trkpt lat="42.71533" lon="1.64661">
        <ele>1668.7</ele>
        <time>2020-02-08T12:09:06Z</time>
      </trkpt>
      <trkpt lat="42.71533" lon="1.64661">
        <ele>1668.7</ele>
        <time>2020-02-08T12:09:07Z</time>
      </trkpt>
      <trkpt lat="42.71533" lon="1.64661">
        <ele>1668.7</ele>
        <time>2020-02-08T12:09:08Z</time>
      </trkpt>
      <trkpt lat="42.71533" lon="1.64661">
        <ele>1668.7</ele>
        <time>2020-02-08T12:09:09Z</time>
      </trkpt>
      <trkpt lat="42.71533" lon="1.64661">
        <ele>1668.7</ele>
        <time>2020-02-08T12:09:10Z</time>
      </trkpt>
      <trkpt lat="42.71533" lon="1.64661">
        <ele>1668.7</ele>
        <time>2020-02-08T12:09:11Z</time>
      </trkpt>
      <trkpt lat="42.71534" lon="1.64661">
        <ele>1668.7</ele>
        <time>2020-02-08T12:09:12Z</time>
      </trkpt>
      <trkpt lat="42.71534" lon="1.64661">
        <ele>1668.7</ele>
        <time>2020-02-08T12:09:13Z</time>
      </trkpt>
      <trkpt lat="42.71534" lon="1.64661">
        <ele>1668.8</ele>
        <time>2020-02-08T12:09:14Z</time>
      </trkpt>
      <trkpt lat="42.71534" lon="1.64661">
        <ele>1668.8</ele>
        <time>2020-02-08T12:09:15Z</time>
      </trkpt>
      <trkpt lat="42.71534" lon="1.64661">
        <ele>1668.8</ele>
        <time>2020-02-08T12:09:16Z</time>
      </trkpt>
      <trkpt lat="42.71534" lon="1.64661">
        <ele>1668.8</ele>
        <time>2020-02-08T12:09:17Z</time>
      </trkpt>
      <trkpt lat="42.71534" lon="1.64661">
        <ele>1668.8</ele>
        <time>2020-02-08T12:09:18Z</time>
      </trkpt>
      <trkpt lat="42.71534" lon="1.64661">
        <ele>1668.8</ele>
        <time>2020-02-08T12:09:19Z</time>
      </trkpt>
      <trkpt lat="42.71534" lon="1.64661">
        <ele>1668.8</ele>
        <time>2020-02-08T12:09:20Z</time>
      </trkpt>
      <trkpt lat="42.71534" lon="1.64661">
        <ele>1668.8</ele>
        <time>2020-02-08T12:09:21Z</time>
      </trkpt>
      <trkpt lat="42.71534" lon="1.64661">
        <ele>1668.8</ele>
        <time>2020-02-08T12:09:22Z</time>
      </trkpt>
      <trkpt lat="42.71534" lon="1.64661">
        <ele>1668.8</ele>
        <time>2020-02-08T12:09:23Z</time>
      </trkpt>
      <trkpt lat="42.71534" lon="1.64661">
        <ele>1668.8</ele>
        <time>2020-02-08T12:09:24Z</time>
      </trkpt>
      <trkpt lat="42.71534" lon="1.64661">
        <ele>1668.8</ele>
        <time>2020-02-08T12:09:25Z</time>
      </trkpt>
      <trkpt lat="42.71534" lon="1.64661">
        <ele>1668.8</ele>
        <time>2020-02-08T12:09:26Z</time>
      </trkpt>
      <trkpt lat="42.71534" lon="1.64661">
        <ele>1668.8</ele>
        <time>2020-02-08T12:09:27Z</time>
      </trkpt>
      <trkpt lat="42.71534" lon="1.64661">
        <ele>1668.9</ele>
        <time>2020-02-08T12:09:28Z</time>
      </trkpt>
      <trkpt lat="42.71534" lon="1.64661">
        <ele>1668.9</ele>
        <time>2020-02-08T12:09:29Z</time>
      </trkpt>
      <trkpt lat="42.71536" lon="1.64663">
        <ele>1669.2</ele>
        <time>2020-02-08T12:09:30Z</time>
      </trkpt>
      <trkpt lat="42.71537" lon="1.64664">
        <ele>1669.3</ele>
        <time>2020-02-08T12:09:31Z</time>
      </trkpt>
      <trkpt lat="42.71537" lon="1.64664">
        <ele>1669.3</ele>
        <time>2020-02-08T12:09:32Z</time>
      </trkpt>
      <trkpt lat="42.71537" lon="1.64665">
        <ele>1669.4</ele>
        <time>2020-02-08T12:09:33Z</time>
      </trkpt>
      <trkpt lat="42.71538" lon="1.64665">
        <ele>1669.4</ele>
        <time>2020-02-08T12:09:34Z</time>
      </trkpt>
      <trkpt lat="42.71538" lon="1.64666">
        <ele>1669.5</ele>
        <time>2020-02-08T12:09:35Z</time>
      </trkpt>
      <trkpt lat="42.71538" lon="1.64666">
        <ele>1669.6</ele>
        <time>2020-02-08T12:09:36Z</time>
      </trkpt>
      <trkpt lat="42.71539" lon="1.64666">
        <ele>1669.6</ele>
        <time>2020-02-08T12:09:37Z</time>
      </trkpt>
      <trkpt lat="42.71539" lon="1.64667">
        <ele>1669.7</ele>
        <time>2020-02-08T12:09:38Z</time>
      </trkpt>
      <trkpt lat="42.7154" lon="1.64667">
        <ele>1669.8</ele>
        <time>2020-02-08T12:09:39Z</time>
      </trkpt>
      <trkpt lat="42.7154" lon="1.64667">
        <ele>1669.8</ele>
        <time>2020-02-08T12:09:40Z</time>
      </trkpt>
      <trkpt lat="42.7154" lon="1.64667">
        <ele>1669.8</ele>
        <time>2020-02-08T12:09:41Z</time>
      </trkpt>
      <trkpt lat="42.7154" lon="1.64667">
        <ele>1669.8</ele>
        <time>2020-02-08T12:09:42Z</time>
      </trkpt>
      <trkpt lat="42.7154" lon="1.64668">
        <ele>1669.8</ele>
        <time>2020-02-08T12:09:43Z</time>
      </trkpt>
      <trkpt lat="42.7154" lon="1.64668">
        <ele>1669.8</ele>
        <time>2020-02-08T12:09:44Z</time>
      </trkpt>
      <trkpt lat="42.7154" lon="1.64668">
        <ele>1669.8</ele>
        <time>2020-02-08T12:09:45Z</time>
      </trkpt>
      <trkpt lat="42.7154" lon="1.64668">
        <ele>1669.8</ele>
        <time>2020-02-08T12:09:46Z</time>
      </trkpt>
      <trkpt lat="42.7154" lon="1.64668">
        <ele>1669.9</ele>
        <time>2020-02-08T12:09:47Z</time>
      </trkpt>
      <trkpt lat="42.7154" lon="1.64668">
        <ele>1669.9</ele>
        <time>2020-02-08T12:09:48Z</time>
      </trkpt>
      <trkpt lat="42.7154" lon="1.64668">
        <ele>1669.9</ele>
        <time>2020-02-08T12:09:49Z</time>
      </trkpt>
      <trkpt lat="42.7154" lon="1.64668">
        <ele>1669.9</ele>
        <time>2020-02-08T12:09:50Z</time>
      </trkpt>
      <trkpt lat="42.71541" lon="1.64668">
        <ele>1669.9</ele>
        <time>2020-02-08T12:09:51Z</time>
      </trkpt>
      <trkpt lat="42.71541" lon="1.64668">
        <ele>1669.9</ele>
        <time>2020-02-08T12:09:52Z</time>
      </trkpt>
      <trkpt lat="42.71541" lon="1.64668">
        <ele>1669.9</ele>
        <time>2020-02-08T12:09:53Z</time>
      </trkpt>
      <trkpt lat="42.71541" lon="1.64668">
        <ele>1669.9</ele>
        <time>2020-02-08T12:09:54Z</time>
      </trkpt>
      <trkpt lat="42.71541" lon="1.64668">
        <ele>1670</ele>
        <time>2020-02-08T12:09:55Z</time>
      </trkpt>
      <trkpt lat="42.71541" lon="1.64668">
        <ele>1670</ele>
        <time>2020-02-08T12:09:56Z</time>
      </trkpt>
      <trkpt lat="42.71541" lon="1.64668">
        <ele>1670</ele>
        <time>2020-02-08T12:09:57Z</time>
      </trkpt>
      <trkpt lat="42.71541" lon="1.64668">
        <ele>1670</ele>
        <time>2020-02-08T12:09:58Z</time>
      </trkpt>
      <trkpt lat="42.71541" lon="1.64668">
        <ele>1670</ele>
        <time>2020-02-08T12:09:59Z</time>
      </trkpt>
      <trkpt lat="42.71541" lon="1.64668">
        <ele>1670</ele>
        <time>2020-02-08T12:10:00Z</time>
      </trkpt>
      <trkpt lat="42.71541" lon="1.64668">
        <ele>1670</ele>
        <time>2020-02-08T12:10:01Z</time>
      </trkpt>
      <trkpt lat="42.71541" lon="1.64668">
        <ele>1670.1</ele>
        <time>2020-02-08T12:10:02Z</time>
      </trkpt>
      <trkpt lat="42.71542" lon="1.64668">
        <ele>1670.1</ele>
        <time>2020-02-08T12:10:03Z</time>
      </trkpt>
      <trkpt lat="42.71542" lon="1.64668">
        <ele>1670.1</ele>
        <time>2020-02-08T12:10:04Z</time>
      </trkpt>
      <trkpt lat="42.71542" lon="1.64668">
        <ele>1670.1</ele>
        <time>2020-02-08T12:10:05Z</time>
      </trkpt>
      <trkpt lat="42.71542" lon="1.64668">
        <ele>1670.1</ele>
        <time>2020-02-08T12:10:06Z</time>
      </trkpt>
      <trkpt lat="42.71542" lon="1.64669">
        <ele>1670.1</ele>
        <time>2020-02-08T12:10:07Z</time>
      </trkpt>
      <trkpt lat="42.71542" lon="1.64669">
        <ele>1670.1</ele>
        <time>2020-02-08T12:10:08Z</time>
      </trkpt>
      <trkpt lat="42.71542" lon="1.64669">
        <ele>1670.1</ele>
        <time>2020-02-08T12:10:09Z</time>
      </trkpt>
      <trkpt lat="42.71542" lon="1.64669">
        <ele>1670.1</ele>
        <time>2020-02-08T12:10:10Z</time>
      </trkpt>
      <trkpt lat="42.71542" lon="1.64669">
        <ele>1670.2</ele>
        <time>2020-02-08T12:10:11Z</time>
      </trkpt>
      <trkpt lat="42.71542" lon="1.64669">
        <ele>1670.2</ele>
        <time>2020-02-08T12:10:12Z</time>
      </trkpt>
      <trkpt lat="42.71542" lon="1.64669">
        <ele>1670.2</ele>
        <time>2020-02-08T12:10:13Z</time>
      </trkpt>
      <trkpt lat="42.71542" lon="1.64669">
        <ele>1670.2</ele>
        <time>2020-02-08T12:10:14Z</time>
      </trkpt>
      <trkpt lat="42.71542" lon="1.64669">
        <ele>1670.2</ele>
        <time>2020-02-08T12:10:15Z</time>
      </trkpt>
      <trkpt lat="42.71543" lon="1.64669">
        <ele>1670.2</ele>
        <time>2020-02-08T12:10:16Z</time>
      </trkpt>
      <trkpt lat="42.71543" lon="1.64669">
        <ele>1670.2</ele>
        <time>2020-02-08T12:10:17Z</time>
      </trkpt>
      <trkpt lat="42.71543" lon="1.64669">
        <ele>1670.3</ele>
        <time>2020-02-08T12:10:18Z</time>
      </trkpt>
      <trkpt lat="42.71543" lon="1.64669">
        <ele>1670.3</ele>
        <time>2020-02-08T12:10:19Z</time>
      </trkpt>
      <trkpt lat="42.71543" lon="1.64669">
        <ele>1670.3</ele>
        <time>2020-02-08T12:10:20Z</time>
      </trkpt>
      <trkpt lat="42.71543" lon="1.64669">
        <ele>1670.3</ele>
        <time>2020-02-08T12:10:21Z</time>
      </trkpt>
      <trkpt lat="42.71543" lon="1.64669">
        <ele>1670.3</ele>
        <time>2020-02-08T12:10:22Z</time>
      </trkpt>
      <trkpt lat="42.71543" lon="1.64669">
        <ele>1670.3</ele>
        <time>2020-02-08T12:10:23Z</time>
      </trkpt>
      <trkpt lat="42.71543" lon="1.64669">
        <ele>1670.3</ele>
        <time>2020-02-08T12:10:24Z</time>
      </trkpt>
      <trkpt lat="42.71543" lon="1.64669">
        <ele>1670.3</ele>
        <time>2020-02-08T12:10:25Z</time>
      </trkpt>
      <trkpt lat="42.71543" lon="1.64669">
        <ele>1670.4</ele>
        <time>2020-02-08T12:10:26Z</time>
      </trkpt>
      <trkpt lat="42.71543" lon="1.64669">
        <ele>1670.4</ele>
        <time>2020-02-08T12:10:27Z</time>
      </trkpt>
      <trkpt lat="42.71544" lon="1.64669">
        <ele>1670.4</ele>
        <time>2020-02-08T12:10:28Z</time>
      </trkpt>
      <trkpt lat="42.71544" lon="1.64669">
        <ele>1670.4</ele>
        <time>2020-02-08T12:10:29Z</time>
      </trkpt>
      <trkpt lat="42.71544" lon="1.64669">
        <ele>1670.4</ele>
        <time>2020-02-08T12:10:30Z</time>
      </trkpt>
      <trkpt lat="42.71544" lon="1.6467">
        <ele>1670.4</ele>
        <time>2020-02-08T12:10:31Z</time>
      </trkpt>
      <trkpt lat="42.71544" lon="1.6467">
        <ele>1670.4</ele>
        <time>2020-02-08T12:10:32Z</time>
      </trkpt>
      <trkpt lat="42.71544" lon="1.6467">
        <ele>1670.5</ele>
        <time>2020-02-08T12:10:33Z</time>
      </trkpt>
      <trkpt lat="42.71544" lon="1.6467">
        <ele>1670.5</ele>
        <time>2020-02-08T12:10:34Z</time>
      </trkpt>
      <trkpt lat="42.71544" lon="1.6467">
        <ele>1670.5</ele>
        <time>2020-02-08T12:10:35Z</time>
      </trkpt>
      <trkpt lat="42.71544" lon="1.6467">
        <ele>1670.5</ele>
        <time>2020-02-08T12:10:36Z</time>
      </trkpt>
      <trkpt lat="42.71544" lon="1.6467">
        <ele>1670.5</ele>
        <time>2020-02-08T12:10:37Z</time>
      </trkpt>
      <trkpt lat="42.71544" lon="1.6467">
        <ele>1670.5</ele>
        <time>2020-02-08T12:10:38Z</time>
      </trkpt>
      <trkpt lat="42.71544" lon="1.6467">
        <ele>1670.6</ele>
        <time>2020-02-08T12:10:39Z</time>
      </trkpt>
      <trkpt lat="42.71545" lon="1.6467">
        <ele>1670.6</ele>
        <time>2020-02-08T12:10:40Z</time>
      </trkpt>
      <trkpt lat="42.71545" lon="1.6467">
        <ele>1670.6</ele>
        <time>2020-02-08T12:10:41Z</time>
      </trkpt>
      <trkpt lat="42.71545" lon="1.6467">
        <ele>1670.6</ele>
        <time>2020-02-08T12:10:42Z</time>
      </trkpt>
      <trkpt lat="42.71545" lon="1.6467">
        <ele>1670.6</ele>
        <time>2020-02-08T12:10:43Z</time>
      </trkpt>
      <trkpt lat="42.71545" lon="1.6467">
        <ele>1670.6</ele>
        <time>2020-02-08T12:10:44Z</time>
      </trkpt>
      <trkpt lat="42.71545" lon="1.6467">
        <ele>1670.6</ele>
        <time>2020-02-08T12:10:45Z</time>
      </trkpt>
      <trkpt lat="42.71545" lon="1.6467">
        <ele>1670.7</ele>
        <time>2020-02-08T12:10:46Z</time>
      </trkpt>
      <trkpt lat="42.71545" lon="1.6467">
        <ele>1670.7</ele>
        <time>2020-02-08T12:10:47Z</time>
      </trkpt>
      <trkpt lat="42.71545" lon="1.6467">
        <ele>1670.7</ele>
        <time>2020-02-08T12:10:48Z</time>
      </trkpt>
      <trkpt lat="42.71545" lon="1.6467">
        <ele>1670.7</ele>
        <time>2020-02-08T12:10:49Z</time>
      </trkpt>
      <trkpt lat="42.71547" lon="1.64672">
        <ele>1671.1</ele>
        <time>2020-02-08T12:10:50Z</time>
      </trkpt>
      <trkpt lat="42.71548" lon="1.64673">
        <ele>1671.2</ele>
        <time>2020-02-08T12:10:51Z</time>
      </trkpt>
      <trkpt lat="42.71548" lon="1.64673">
        <ele>1671.2</ele>
        <time>2020-02-08T12:10:52Z</time>
      </trkpt>
      <trkpt lat="42.71549" lon="1.64674">
        <ele>1671.3</ele>
        <time>2020-02-08T12:10:53Z</time>
      </trkpt>
      <trkpt lat="42.71549" lon="1.64674">
        <ele>1671.4</ele>
        <time>2020-02-08T12:10:54Z</time>
      </trkpt>
      <trkpt lat="42.7155" lon="1.64675">
        <ele>1671.5</ele>
        <time>2020-02-08T12:10:55Z</time>
      </trkpt>
      <trkpt lat="42.7155" lon="1.64675">
        <ele>1671.6</ele>
        <time>2020-02-08T12:10:56Z</time>
      </trkpt>
      <trkpt lat="42.71551" lon="1.64676">
        <ele>1671.7</ele>
        <time>2020-02-08T12:10:57Z</time>
      </trkpt>
      <trkpt lat="42.71551" lon="1.64676">
        <ele>1671.8</ele>
        <time>2020-02-08T12:10:58Z</time>
      </trkpt>
      <trkpt lat="42.71552" lon="1.64677">
        <ele>1671.9</ele>
        <time>2020-02-08T12:10:59Z</time>
      </trkpt>
      <trkpt lat="42.71552" lon="1.64677">
        <ele>1672</ele>
        <time>2020-02-08T12:11:00Z</time>
      </trkpt>
      <trkpt lat="42.71553" lon="1.64677">
        <ele>1672.1</ele>
        <time>2020-02-08T12:11:01Z</time>
      </trkpt>
      <trkpt lat="42.71554" lon="1.64677">
        <ele>1672.2</ele>
        <time>2020-02-08T12:11:02Z</time>
      </trkpt>
      <trkpt lat="42.71554" lon="1.64677">
        <ele>1672.4</ele>
        <time>2020-02-08T12:11:03Z</time>
      </trkpt>
      <trkpt lat="42.71555" lon="1.64678">
        <ele>1672.5</ele>
        <time>2020-02-08T12:11:04Z</time>
      </trkpt>
      <trkpt lat="42.71555" lon="1.64678">
        <ele>1672.6</ele>
        <time>2020-02-08T12:11:05Z</time>
      </trkpt>
      <trkpt lat="42.71556" lon="1.64678">
        <ele>1672.7</ele>
        <time>2020-02-08T12:11:06Z</time>
      </trkpt>
      <trkpt lat="42.71557" lon="1.64678">
        <ele>1672.8</ele>
        <time>2020-02-08T12:11:07Z</time>
      </trkpt>
      <trkpt lat="42.71557" lon="1.64678">
        <ele>1672.9</ele>
        <time>2020-02-08T12:11:08Z</time>
      </trkpt>
      <trkpt lat="42.71558" lon="1.64678">
        <ele>1673</ele>
        <time>2020-02-08T12:11:09Z</time>
      </trkpt>
      <trkpt lat="42.71559" lon="1.64678">
        <ele>1673.1</ele>
        <time>2020-02-08T12:11:10Z</time>
      </trkpt>
      <trkpt lat="42.71559" lon="1.64678">
        <ele>1673.1</ele>
        <time>2020-02-08T12:11:11Z</time>
      </trkpt>
      <trkpt lat="42.7156" lon="1.64678">
        <ele>1673.2</ele>
        <time>2020-02-08T12:11:12Z</time>
      </trkpt>
      <trkpt lat="42.71561" lon="1.64678">
        <ele>1673.2</ele>
        <time>2020-02-08T12:11:13Z</time>
      </trkpt>
      <trkpt lat="42.71561" lon="1.64678">
        <ele>1673.2</ele>
        <time>2020-02-08T12:11:14Z</time>
      </trkpt>
      <trkpt lat="42.71562" lon="1.64678">
        <ele>1673.2</ele>
        <time>2020-02-08T12:11:15Z</time>
      </trkpt>
      <trkpt lat="42.71563" lon="1.64678">
        <ele>1673.2</ele>
        <time>2020-02-08T12:11:16Z</time>
      </trkpt>
      <trkpt lat="42.71563" lon="1.64678">
        <ele>1673.3</ele>
        <time>2020-02-08T12:11:17Z</time>
      </trkpt>
      <trkpt lat="42.71564" lon="1.64678">
        <ele>1673.3</ele>
        <time>2020-02-08T12:11:18Z</time>
      </trkpt>
      <trkpt lat="42.71565" lon="1.64678">
        <ele>1673.3</ele>
        <time>2020-02-08T12:11:19Z</time>
      </trkpt>
      <trkpt lat="42.71565" lon="1.64678">
        <ele>1673.3</ele>
        <time>2020-02-08T12:11:20Z</time>
      </trkpt>
      <trkpt lat="42.71566" lon="1.64678">
        <ele>1673.3</ele>
        <time>2020-02-08T12:11:21Z</time>
      </trkpt>
      <trkpt lat="42.71566" lon="1.64678">
        <ele>1673.3</ele>
        <time>2020-02-08T12:11:22Z</time>
      </trkpt>
      <trkpt lat="42.71567" lon="1.64678">
        <ele>1673.4</ele>
        <time>2020-02-08T12:11:23Z</time>
      </trkpt>
      <trkpt lat="42.71567" lon="1.64678">
        <ele>1673.4</ele>
        <time>2020-02-08T12:11:24Z</time>
      </trkpt>
      <trkpt lat="42.71568" lon="1.64678">
        <ele>1673.4</ele>
        <time>2020-02-08T12:11:25Z</time>
      </trkpt>
      <trkpt lat="42.71568" lon="1.64678">
        <ele>1673.4</ele>
        <time>2020-02-08T12:11:26Z</time>
      </trkpt>
      <trkpt lat="42.71569" lon="1.64678">
        <ele>1673.4</ele>
        <time>2020-02-08T12:11:27Z</time>
      </trkpt>
      <trkpt lat="42.71569" lon="1.64678">
        <ele>1673.4</ele>
        <time>2020-02-08T12:11:28Z</time>
      </trkpt>
      <trkpt lat="42.71569" lon="1.64678">
        <ele>1673.4</ele>
        <time>2020-02-08T12:11:29Z</time>
      </trkpt>
      <trkpt lat="42.7157" lon="1.64678">
        <ele>1673.5</ele>
        <time>2020-02-08T12:11:30Z</time>
      </trkpt>
      <trkpt lat="42.71571" lon="1.64679">
        <ele>1673.5</ele>
        <time>2020-02-08T12:11:31Z</time>
      </trkpt>
      <trkpt lat="42.71571" lon="1.64679">
        <ele>1673.5</ele>
        <time>2020-02-08T12:11:32Z</time>
      </trkpt>
      <trkpt lat="42.71572" lon="1.64679">
        <ele>1673.6</ele>
        <time>2020-02-08T12:11:33Z</time>
      </trkpt>
      <trkpt lat="42.71573" lon="1.64679">
        <ele>1673.6</ele>
        <time>2020-02-08T12:11:34Z</time>
      </trkpt>
      <trkpt lat="42.71573" lon="1.64679">
        <ele>1673.6</ele>
        <time>2020-02-08T12:11:35Z</time>
      </trkpt>
      <trkpt lat="42.71574" lon="1.64679">
        <ele>1673.6</ele>
        <time>2020-02-08T12:11:36Z</time>
      </trkpt>
      <trkpt lat="42.71574" lon="1.64679">
        <ele>1673.7</ele>
        <time>2020-02-08T12:11:37Z</time>
      </trkpt>
      <trkpt lat="42.71575" lon="1.64679">
        <ele>1673.7</ele>
        <time>2020-02-08T12:11:38Z</time>
      </trkpt>
      <trkpt lat="42.71576" lon="1.64679">
        <ele>1673.7</ele>
        <time>2020-02-08T12:11:39Z</time>
      </trkpt>
      <trkpt lat="42.71576" lon="1.64679">
        <ele>1673.7</ele>
        <time>2020-02-08T12:11:40Z</time>
      </trkpt>
      <trkpt lat="42.71577" lon="1.6468">
        <ele>1673.8</ele>
        <time>2020-02-08T12:11:41Z</time>
      </trkpt>
      <trkpt lat="42.71578" lon="1.6468">
        <ele>1673.8</ele>
        <time>2020-02-08T12:11:42Z</time>
      </trkpt>
      <trkpt lat="42.71578" lon="1.6468">
        <ele>1673.9</ele>
        <time>2020-02-08T12:11:43Z</time>
      </trkpt>
      <trkpt lat="42.71579" lon="1.64681">
        <ele>1673.9</ele>
        <time>2020-02-08T12:11:44Z</time>
      </trkpt>
      <trkpt lat="42.71579" lon="1.64681">
        <ele>1674</ele>
        <time>2020-02-08T12:11:45Z</time>
      </trkpt>
      <trkpt lat="42.7158" lon="1.64681">
        <ele>1674.1</ele>
        <time>2020-02-08T12:11:46Z</time>
      </trkpt>
      <trkpt lat="42.71581" lon="1.64682">
        <ele>1674.1</ele>
        <time>2020-02-08T12:11:47Z</time>
      </trkpt>
      <trkpt lat="42.71581" lon="1.64682">
        <ele>1674.2</ele>
        <time>2020-02-08T12:11:48Z</time>
      </trkpt>
      <trkpt lat="42.71582" lon="1.64682">
        <ele>1674.3</ele>
        <time>2020-02-08T12:11:49Z</time>
      </trkpt>
      <trkpt lat="42.71585" lon="1.64684">
        <ele>1674.6</ele>
        <time>2020-02-08T12:11:50Z</time>
      </trkpt>
      <trkpt lat="42.71586" lon="1.64684">
        <ele>1674.7</ele>
        <time>2020-02-08T12:11:51Z</time>
      </trkpt>
      <trkpt lat="42.71586" lon="1.64684">
        <ele>1674.7</ele>
        <time>2020-02-08T12:11:52Z</time>
      </trkpt>
      <trkpt lat="42.71587" lon="1.64684">
        <ele>1674.8</ele>
        <time>2020-02-08T12:11:53Z</time>
      </trkpt>
      <trkpt lat="42.71588" lon="1.64684">
        <ele>1674.8</ele>
        <time>2020-02-08T12:11:54Z</time>
      </trkpt>
      <trkpt lat="42.71588" lon="1.64685">
        <ele>1674.8</ele>
        <time>2020-02-08T12:11:55Z</time>
      </trkpt>
      <trkpt lat="42.71589" lon="1.64685">
        <ele>1674.8</ele>
        <time>2020-02-08T12:11:56Z</time>
      </trkpt>
      <trkpt lat="42.71589" lon="1.64685">
        <ele>1674.8</ele>
        <time>2020-02-08T12:11:57Z</time>
      </trkpt>
      <trkpt lat="42.7159" lon="1.64685">
        <ele>1674.8</ele>
        <time>2020-02-08T12:11:58Z</time>
      </trkpt>
      <trkpt lat="42.71591" lon="1.64686">
        <ele>1674.8</ele>
        <time>2020-02-08T12:11:59Z</time>
      </trkpt>
      <trkpt lat="42.71593" lon="1.64686">
        <ele>1674.8</ele>
        <time>2020-02-08T12:12:00Z</time>
      </trkpt>
      <trkpt lat="42.71594" lon="1.64686">
        <ele>1674.8</ele>
        <time>2020-02-08T12:12:01Z</time>
      </trkpt>
      <trkpt lat="42.71594" lon="1.64686">
        <ele>1674.8</ele>
        <time>2020-02-08T12:12:02Z</time>
      </trkpt>
      <trkpt lat="42.71595" lon="1.64686">
        <ele>1674.8</ele>
        <time>2020-02-08T12:12:03Z</time>
      </trkpt>
      <trkpt lat="42.71596" lon="1.64687">
        <ele>1674.8</ele>
        <time>2020-02-08T12:12:04Z</time>
      </trkpt>
      <trkpt lat="42.71596" lon="1.64687">
        <ele>1674.8</ele>
        <time>2020-02-08T12:12:05Z</time>
      </trkpt>
      <trkpt lat="42.71597" lon="1.64687">
        <ele>1674.8</ele>
        <time>2020-02-08T12:12:06Z</time>
      </trkpt>
      <trkpt lat="42.71597" lon="1.64687">
        <ele>1674.8</ele>
        <time>2020-02-08T12:12:07Z</time>
      </trkpt>
      <trkpt lat="42.71598" lon="1.64687">
        <ele>1674.9</ele>
        <time>2020-02-08T12:12:08Z</time>
      </trkpt>
      <trkpt lat="42.71599" lon="1.64687">
        <ele>1674.9</ele>
        <time>2020-02-08T12:12:09Z</time>
      </trkpt>
      <trkpt lat="42.71601" lon="1.64689">
        <ele>1675.1</ele>
        <time>2020-02-08T12:12:10Z</time>
      </trkpt>
      <trkpt lat="42.71602" lon="1.64689">
        <ele>1675.1</ele>
        <time>2020-02-08T12:12:11Z</time>
      </trkpt>
      <trkpt lat="42.71603" lon="1.64689">
        <ele>1675.1</ele>
        <time>2020-02-08T12:12:12Z</time>
      </trkpt>
      <trkpt lat="42.71603" lon="1.6469">
        <ele>1675.2</ele>
        <time>2020-02-08T12:12:13Z</time>
      </trkpt>
      <trkpt lat="42.71604" lon="1.6469">
        <ele>1675.2</ele>
        <time>2020-02-08T12:12:14Z</time>
      </trkpt>
      <trkpt lat="42.71605" lon="1.6469">
        <ele>1675.2</ele>
        <time>2020-02-08T12:12:15Z</time>
      </trkpt>
      <trkpt lat="42.71605" lon="1.64691">
        <ele>1675.3</ele>
        <time>2020-02-08T12:12:16Z</time>
      </trkpt>
      <trkpt lat="42.71606" lon="1.64691">
        <ele>1675.3</ele>
        <time>2020-02-08T12:12:17Z</time>
      </trkpt>
      <trkpt lat="42.71607" lon="1.64692">
        <ele>1675.3</ele>
        <time>2020-02-08T12:12:18Z</time>
      </trkpt>
      <trkpt lat="42.71607" lon="1.64692">
        <ele>1675.3</ele>
        <time>2020-02-08T12:12:19Z</time>
      </trkpt>
      <trkpt lat="42.71608" lon="1.64692">
        <ele>1675.3</ele>
        <time>2020-02-08T12:12:20Z</time>
      </trkpt>
      <trkpt lat="42.71609" lon="1.64692">
        <ele>1675.3</ele>
        <time>2020-02-08T12:12:21Z</time>
      </trkpt>
      <trkpt lat="42.71609" lon="1.64692">
        <ele>1675.3</ele>
        <time>2020-02-08T12:12:22Z</time>
      </trkpt>
      <trkpt lat="42.7161" lon="1.64691">
        <ele>1675.3</ele>
        <time>2020-02-08T12:12:23Z</time>
      </trkpt>
      <trkpt lat="42.71611" lon="1.64691">
        <ele>1675.3</ele>
        <time>2020-02-08T12:12:24Z</time>
      </trkpt>
      <trkpt lat="42.71611" lon="1.64691">
        <ele>1675.3</ele>
        <time>2020-02-08T12:12:25Z</time>
      </trkpt>
      <trkpt lat="42.71612" lon="1.64691">
        <ele>1675.3</ele>
        <time>2020-02-08T12:12:26Z</time>
      </trkpt>
      <trkpt lat="42.71613" lon="1.64691">
        <ele>1675.3</ele>
        <time>2020-02-08T12:12:27Z</time>
      </trkpt>
      <trkpt lat="42.71613" lon="1.64691">
        <ele>1675.3</ele>
        <time>2020-02-08T12:12:28Z</time>
      </trkpt>
      <trkpt lat="42.71614" lon="1.64691">
        <ele>1675.4</ele>
        <time>2020-02-08T12:12:29Z</time>
      </trkpt>
      <trkpt lat="42.71615" lon="1.64691">
        <ele>1675.4</ele>
        <time>2020-02-08T12:12:30Z</time>
      </trkpt>
      <trkpt lat="42.71615" lon="1.64691">
        <ele>1675.4</ele>
        <time>2020-02-08T12:12:31Z</time>
      </trkpt>
      <trkpt lat="42.71616" lon="1.64691">
        <ele>1675.5</ele>
        <time>2020-02-08T12:12:32Z</time>
      </trkpt>
      <trkpt lat="42.71617" lon="1.6469">
        <ele>1675.5</ele>
        <time>2020-02-08T12:12:33Z</time>
      </trkpt>
      <trkpt lat="42.71617" lon="1.6469">
        <ele>1675.6</ele>
        <time>2020-02-08T12:12:34Z</time>
      </trkpt>
      <trkpt lat="42.71618" lon="1.6469">
        <ele>1675.6</ele>
        <time>2020-02-08T12:12:35Z</time>
      </trkpt>
      <trkpt lat="42.71619" lon="1.6469">
        <ele>1675.7</ele>
        <time>2020-02-08T12:12:36Z</time>
      </trkpt>
      <trkpt lat="42.71619" lon="1.6469">
        <ele>1675.7</ele>
        <time>2020-02-08T12:12:37Z</time>
      </trkpt>
      <trkpt lat="42.7162" lon="1.6469">
        <ele>1675.8</ele>
        <time>2020-02-08T12:12:38Z</time>
      </trkpt>
      <trkpt lat="42.71621" lon="1.6469">
        <ele>1675.8</ele>
        <time>2020-02-08T12:12:39Z</time>
      </trkpt>
      <trkpt lat="42.71623" lon="1.64691">
        <ele>1676.1</ele>
        <time>2020-02-08T12:12:40Z</time>
      </trkpt>
      <trkpt lat="42.71624" lon="1.64691">
        <ele>1676.1</ele>
        <time>2020-02-08T12:12:41Z</time>
      </trkpt>
      <trkpt lat="42.71625" lon="1.64691">
        <ele>1676.1</ele>
        <time>2020-02-08T12:12:42Z</time>
      </trkpt>
      <trkpt lat="42.71625" lon="1.64691">
        <ele>1676.2</ele>
        <time>2020-02-08T12:12:43Z</time>
      </trkpt>
      <trkpt lat="42.71626" lon="1.64691">
        <ele>1676.2</ele>
        <time>2020-02-08T12:12:44Z</time>
      </trkpt>
      <trkpt lat="42.71627" lon="1.64691">
        <ele>1676.2</ele>
        <time>2020-02-08T12:12:45Z</time>
      </trkpt>
      <trkpt lat="42.71627" lon="1.64691">
        <ele>1676.3</ele>
        <time>2020-02-08T12:12:46Z</time>
      </trkpt>
      <trkpt lat="42.71628" lon="1.64691">
        <ele>1676.3</ele>
        <time>2020-02-08T12:12:47Z</time>
      </trkpt>
      <trkpt lat="42.71628" lon="1.64691">
        <ele>1676.3</ele>
        <time>2020-02-08T12:12:48Z</time>
      </trkpt>
      <trkpt lat="42.71629" lon="1.64691">
        <ele>1676.4</ele>
        <time>2020-02-08T12:12:49Z</time>
      </trkpt>
      <trkpt lat="42.7163" lon="1.64691">
        <ele>1676.4</ele>
        <time>2020-02-08T12:12:50Z</time>
      </trkpt>
      <trkpt lat="42.7163" lon="1.64691">
        <ele>1676.4</ele>
        <time>2020-02-08T12:12:51Z</time>
      </trkpt>
      <trkpt lat="42.71631" lon="1.64691">
        <ele>1676.5</ele>
        <time>2020-02-08T12:12:52Z</time>
      </trkpt>
      <trkpt lat="42.71631" lon="1.64691">
        <ele>1676.5</ele>
        <time>2020-02-08T12:12:53Z</time>
      </trkpt>
      <trkpt lat="42.71632" lon="1.64691">
        <ele>1676.5</ele>
        <time>2020-02-08T12:12:54Z</time>
      </trkpt>
      <trkpt lat="42.71633" lon="1.6469">
        <ele>1676.6</ele>
        <time>2020-02-08T12:12:55Z</time>
      </trkpt>
      <trkpt lat="42.71633" lon="1.6469">
        <ele>1676.6</ele>
        <time>2020-02-08T12:12:56Z</time>
      </trkpt>
      <trkpt lat="42.71634" lon="1.6469">
        <ele>1676.8</ele>
        <time>2020-02-08T12:12:57Z</time>
      </trkpt>
      <trkpt lat="42.71634" lon="1.6469">
        <ele>1676.9</ele>
        <time>2020-02-08T12:12:58Z</time>
      </trkpt>
      <trkpt lat="42.71635" lon="1.6469">
        <ele>1677</ele>
        <time>2020-02-08T12:12:59Z</time>
      </trkpt>
      <trkpt lat="42.71636" lon="1.64689">
        <ele>1677.1</ele>
        <time>2020-02-08T12:13:00Z</time>
      </trkpt>
      <trkpt lat="42.71636" lon="1.64689">
        <ele>1677.2</ele>
        <time>2020-02-08T12:13:01Z</time>
      </trkpt>
      <trkpt lat="42.71637" lon="1.64689">
        <ele>1677.3</ele>
        <time>2020-02-08T12:13:02Z</time>
      </trkpt>
      <trkpt lat="42.71637" lon="1.64688">
        <ele>1677.5</ele>
        <time>2020-02-08T12:13:03Z</time>
      </trkpt>
      <trkpt lat="42.71638" lon="1.64688">
        <ele>1677.6</ele>
        <time>2020-02-08T12:13:04Z</time>
      </trkpt>
      <trkpt lat="42.71638" lon="1.64688">
        <ele>1677.7</ele>
        <time>2020-02-08T12:13:05Z</time>
      </trkpt>
      <trkpt lat="42.71639" lon="1.64688">
        <ele>1677.8</ele>
        <time>2020-02-08T12:13:06Z</time>
      </trkpt>
      <trkpt lat="42.7164" lon="1.64687">
        <ele>1677.9</ele>
        <time>2020-02-08T12:13:07Z</time>
      </trkpt>
      <trkpt lat="42.7164" lon="1.64687">
        <ele>1678</ele>
        <time>2020-02-08T12:13:08Z</time>
      </trkpt>
      <trkpt lat="42.71641" lon="1.64687">
        <ele>1678.2</ele>
        <time>2020-02-08T12:13:09Z</time>
      </trkpt>
      <trkpt lat="42.71644" lon="1.64685">
        <ele>1678.4</ele>
        <time>2020-02-08T12:13:10Z</time>
      </trkpt>
      <trkpt lat="42.71644" lon="1.64685">
        <ele>1678.5</ele>
        <time>2020-02-08T12:13:11Z</time>
      </trkpt>
      <trkpt lat="42.71645" lon="1.64685">
        <ele>1678.5</ele>
        <time>2020-02-08T12:13:12Z</time>
      </trkpt>
      <trkpt lat="42.71646" lon="1.64685">
        <ele>1678.5</ele>
        <time>2020-02-08T12:13:13Z</time>
      </trkpt>
      <trkpt lat="42.71646" lon="1.64685">
        <ele>1678.6</ele>
        <time>2020-02-08T12:13:14Z</time>
      </trkpt>
      <trkpt lat="42.71647" lon="1.64684">
        <ele>1678.6</ele>
        <time>2020-02-08T12:13:15Z</time>
      </trkpt>
      <trkpt lat="42.71648" lon="1.64684">
        <ele>1678.6</ele>
        <time>2020-02-08T12:13:16Z</time>
      </trkpt>
      <trkpt lat="42.71648" lon="1.64684">
        <ele>1678.7</ele>
        <time>2020-02-08T12:13:17Z</time>
      </trkpt>
      <trkpt lat="42.71649" lon="1.64684">
        <ele>1678.7</ele>
        <time>2020-02-08T12:13:18Z</time>
      </trkpt>
      <trkpt lat="42.71649" lon="1.64684">
        <ele>1678.8</ele>
        <time>2020-02-08T12:13:19Z</time>
      </trkpt>
      <trkpt lat="42.7165" lon="1.64684">
        <ele>1678.8</ele>
        <time>2020-02-08T12:13:20Z</time>
      </trkpt>
      <trkpt lat="42.71651" lon="1.64684">
        <ele>1678.8</ele>
        <time>2020-02-08T12:13:21Z</time>
      </trkpt>
      <trkpt lat="42.71652" lon="1.64684">
        <ele>1678.9</ele>
        <time>2020-02-08T12:13:22Z</time>
      </trkpt>
      <trkpt lat="42.71652" lon="1.64684">
        <ele>1678.9</ele>
        <time>2020-02-08T12:13:23Z</time>
      </trkpt>
      <trkpt lat="42.71653" lon="1.64684">
        <ele>1678.9</ele>
        <time>2020-02-08T12:13:24Z</time>
      </trkpt>
      <trkpt lat="42.71654" lon="1.64684">
        <ele>1679</ele>
        <time>2020-02-08T12:13:25Z</time>
      </trkpt>
      <trkpt lat="42.71655" lon="1.64684">
        <ele>1679</ele>
        <time>2020-02-08T12:13:26Z</time>
      </trkpt>
      <trkpt lat="42.71655" lon="1.64684">
        <ele>1679</ele>
        <time>2020-02-08T12:13:27Z</time>
      </trkpt>
      <trkpt lat="42.71656" lon="1.64684">
        <ele>1679.1</ele>
        <time>2020-02-08T12:13:28Z</time>
      </trkpt>
      <trkpt lat="42.71657" lon="1.64684">
        <ele>1679.1</ele>
        <time>2020-02-08T12:13:29Z</time>
      </trkpt>
      <trkpt lat="42.71657" lon="1.64683">
        <ele>1679.1</ele>
        <time>2020-02-08T12:13:30Z</time>
      </trkpt>
      <trkpt lat="42.71657" lon="1.64683">
        <ele>1679.1</ele>
        <time>2020-02-08T12:13:31Z</time>
      </trkpt>
      <trkpt lat="42.71658" lon="1.64683">
        <ele>1679.1</ele>
        <time>2020-02-08T12:13:32Z</time>
      </trkpt>
      <trkpt lat="42.71658" lon="1.64682">
        <ele>1679.2</ele>
        <time>2020-02-08T12:13:33Z</time>
      </trkpt>
      <trkpt lat="42.71658" lon="1.64682">
        <ele>1679.2</ele>
        <time>2020-02-08T12:13:34Z</time>
      </trkpt>
      <trkpt lat="42.71658" lon="1.64681">
        <ele>1679.2</ele>
        <time>2020-02-08T12:13:35Z</time>
      </trkpt>
      <trkpt lat="42.71659" lon="1.64681">
        <ele>1679.2</ele>
        <time>2020-02-08T12:13:36Z</time>
      </trkpt>
      <trkpt lat="42.71659" lon="1.64681">
        <ele>1679.2</ele>
        <time>2020-02-08T12:13:37Z</time>
      </trkpt>
      <trkpt lat="42.71659" lon="1.6468">
        <ele>1679.3</ele>
        <time>2020-02-08T12:13:38Z</time>
      </trkpt>
      <trkpt lat="42.71659" lon="1.6468">
        <ele>1679.3</ele>
        <time>2020-02-08T12:13:39Z</time>
      </trkpt>
      <trkpt lat="42.7166" lon="1.6468">
        <ele>1679.3</ele>
        <time>2020-02-08T12:13:40Z</time>
      </trkpt>
      <trkpt lat="42.7166" lon="1.64679">
        <ele>1679.3</ele>
        <time>2020-02-08T12:13:41Z</time>
      </trkpt>
      <trkpt lat="42.7166" lon="1.64679">
        <ele>1679.4</ele>
        <time>2020-02-08T12:13:42Z</time>
      </trkpt>
      <trkpt lat="42.7166" lon="1.64678">
        <ele>1679.4</ele>
        <time>2020-02-08T12:13:43Z</time>
      </trkpt>
      <trkpt lat="42.71661" lon="1.64678">
        <ele>1679.4</ele>
        <time>2020-02-08T12:13:44Z</time>
      </trkpt>
      <trkpt lat="42.71661" lon="1.64677">
        <ele>1679.4</ele>
        <time>2020-02-08T12:13:45Z</time>
      </trkpt>
      <trkpt lat="42.71661" lon="1.64677">
        <ele>1679.4</ele>
        <time>2020-02-08T12:13:46Z</time>
      </trkpt>
      <trkpt lat="42.71661" lon="1.64676">
        <ele>1679.4</ele>
        <time>2020-02-08T12:13:47Z</time>
      </trkpt>
      <trkpt lat="42.71662" lon="1.64676">
        <ele>1679.4</ele>
        <time>2020-02-08T12:13:48Z</time>
      </trkpt>
      <trkpt lat="42.71662" lon="1.64675">
        <ele>1679.4</ele>
        <time>2020-02-08T12:13:49Z</time>
      </trkpt>
      <trkpt lat="42.71663" lon="1.64672">
        <ele>1680.4</ele>
        <time>2020-02-08T12:13:50Z</time>
      </trkpt>
      <trkpt lat="42.71664" lon="1.64671">
        <ele>1680.4</ele>
        <time>2020-02-08T12:13:51Z</time>
      </trkpt>
      <trkpt lat="42.71664" lon="1.64671">
        <ele>1680.4</ele>
        <time>2020-02-08T12:13:52Z</time>
      </trkpt>
      <trkpt lat="42.71664" lon="1.6467">
        <ele>1681.2</ele>
        <time>2020-02-08T12:13:53Z</time>
      </trkpt>
      <trkpt lat="42.71665" lon="1.64669">
        <ele>1681.2</ele>
        <time>2020-02-08T12:13:54Z</time>
      </trkpt>
      <trkpt lat="42.71665" lon="1.64668">
        <ele>1681.2</ele>
        <time>2020-02-08T12:13:55Z</time>
      </trkpt>
      <trkpt lat="42.71665" lon="1.64668">
        <ele>1681.2</ele>
        <time>2020-02-08T12:13:56Z</time>
      </trkpt>
      <trkpt lat="42.71665" lon="1.64667">
        <ele>1681.2</ele>
        <time>2020-02-08T12:13:57Z</time>
      </trkpt>
      <trkpt lat="42.71666" lon="1.64666">
        <ele>1682.1</ele>
        <time>2020-02-08T12:13:58Z</time>
      </trkpt>
      <trkpt lat="42.71666" lon="1.64665">
        <ele>1682.1</ele>
        <time>2020-02-08T12:13:59Z</time>
      </trkpt>
      <trkpt lat="42.71667" lon="1.64665">
        <ele>1682.1</ele>
        <time>2020-02-08T12:14:00Z</time>
      </trkpt>
      <trkpt lat="42.71667" lon="1.64664">
        <ele>1682.1</ele>
        <time>2020-02-08T12:14:01Z</time>
      </trkpt>
      <trkpt lat="42.71668" lon="1.64663">
        <ele>1682.1</ele>
        <time>2020-02-08T12:14:02Z</time>
      </trkpt>
      <trkpt lat="42.71668" lon="1.64663">
        <ele>1682.1</ele>
        <time>2020-02-08T12:14:03Z</time>
      </trkpt>
      <trkpt lat="42.71669" lon="1.64662">
        <ele>1682.1</ele>
        <time>2020-02-08T12:14:04Z</time>
      </trkpt>
      <trkpt lat="42.71669" lon="1.64662">
        <ele>1683</ele>
        <time>2020-02-08T12:14:05Z</time>
      </trkpt>
      <trkpt lat="42.7167" lon="1.64661">
        <ele>1683</ele>
        <time>2020-02-08T12:14:06Z</time>
      </trkpt>
      <trkpt lat="42.7167" lon="1.6466">
        <ele>1683</ele>
        <time>2020-02-08T12:14:07Z</time>
      </trkpt>
      <trkpt lat="42.71671" lon="1.6466">
        <ele>1683</ele>
        <time>2020-02-08T12:14:08Z</time>
      </trkpt>
      <trkpt lat="42.71671" lon="1.64659">
        <ele>1683</ele>
        <time>2020-02-08T12:14:09Z</time>
      </trkpt>
      <trkpt lat="42.71671" lon="1.64659">
        <ele>1683</ele>
        <time>2020-02-08T12:14:10Z</time>
      </trkpt>
      <trkpt lat="42.71672" lon="1.64658">
        <ele>1683.1</ele>
        <time>2020-02-08T12:14:11Z</time>
      </trkpt>
      <trkpt lat="42.71672" lon="1.64657">
        <ele>1684</ele>
        <time>2020-02-08T12:14:12Z</time>
      </trkpt>
      <trkpt lat="42.71673" lon="1.64657">
        <ele>1684</ele>
        <time>2020-02-08T12:14:13Z</time>
      </trkpt>
      <trkpt lat="42.71673" lon="1.64656">
        <ele>1684</ele>
        <time>2020-02-08T12:14:14Z</time>
      </trkpt>
      <trkpt lat="42.71674" lon="1.64655">
        <ele>1684</ele>
        <time>2020-02-08T12:14:15Z</time>
      </trkpt>
      <trkpt lat="42.71674" lon="1.64655">
        <ele>1684</ele>
        <time>2020-02-08T12:14:16Z</time>
      </trkpt>
      <trkpt lat="42.71675" lon="1.64654">
        <ele>1684</ele>
        <time>2020-02-08T12:14:17Z</time>
      </trkpt>
      <trkpt lat="42.71675" lon="1.64653">
        <ele>1684</ele>
        <time>2020-02-08T12:14:18Z</time>
      </trkpt>
      <trkpt lat="42.71675" lon="1.64653">
        <ele>1684.9</ele>
        <time>2020-02-08T12:14:19Z</time>
      </trkpt>
      <trkpt lat="42.71677" lon="1.6465">
        <ele>1684.9</ele>
        <time>2020-02-08T12:14:20Z</time>
      </trkpt>
      <trkpt lat="42.71677" lon="1.64649">
        <ele>1685.9</ele>
        <time>2020-02-08T12:14:21Z</time>
      </trkpt>
      <trkpt lat="42.71677" lon="1.64648">
        <ele>1685.9</ele>
        <time>2020-02-08T12:14:22Z</time>
      </trkpt>
      <trkpt lat="42.71678" lon="1.64647">
        <ele>1685.9</ele>
        <time>2020-02-08T12:14:23Z</time>
      </trkpt>
      <trkpt lat="42.71678" lon="1.64647">
        <ele>1685.9</ele>
        <time>2020-02-08T12:14:24Z</time>
      </trkpt>
      <trkpt lat="42.71678" lon="1.64646">
        <ele>1685.9</ele>
        <time>2020-02-08T12:14:25Z</time>
      </trkpt>
      <trkpt lat="42.71678" lon="1.64645">
        <ele>1685.9</ele>
        <time>2020-02-08T12:14:26Z</time>
      </trkpt>
      <trkpt lat="42.71679" lon="1.64644">
        <ele>1686.9</ele>
        <time>2020-02-08T12:14:27Z</time>
      </trkpt>
      <trkpt lat="42.71679" lon="1.64644">
        <ele>1686.9</ele>
        <time>2020-02-08T12:14:28Z</time>
      </trkpt>
      <trkpt lat="42.71679" lon="1.64643">
        <ele>1686.9</ele>
        <time>2020-02-08T12:14:29Z</time>
      </trkpt>
      <trkpt lat="42.71679" lon="1.64642">
        <ele>1686.9</ele>
        <time>2020-02-08T12:14:30Z</time>
      </trkpt>
      <trkpt lat="42.7168" lon="1.64641">
        <ele>1686.9</ele>
        <time>2020-02-08T12:14:31Z</time>
      </trkpt>
      <trkpt lat="42.7168" lon="1.6464">
        <ele>1687.8</ele>
        <time>2020-02-08T12:14:32Z</time>
      </trkpt>
      <trkpt lat="42.71681" lon="1.6464">
        <ele>1687.8</ele>
        <time>2020-02-08T12:14:33Z</time>
      </trkpt>
      <trkpt lat="42.71681" lon="1.64639">
        <ele>1687.8</ele>
        <time>2020-02-08T12:14:34Z</time>
      </trkpt>
      <trkpt lat="42.71681" lon="1.64638">
        <ele>1687.8</ele>
        <time>2020-02-08T12:14:35Z</time>
      </trkpt>
      <trkpt lat="42.71682" lon="1.64637">
        <ele>1687.9</ele>
        <time>2020-02-08T12:14:36Z</time>
      </trkpt>
      <trkpt lat="42.71682" lon="1.64636">
        <ele>1687.9</ele>
        <time>2020-02-08T12:14:37Z</time>
      </trkpt>
      <trkpt lat="42.71682" lon="1.64636">
        <ele>1688.8</ele>
        <time>2020-02-08T12:14:38Z</time>
      </trkpt>
      <trkpt lat="42.71683" lon="1.64635">
        <ele>1688.8</ele>
        <time>2020-02-08T12:14:39Z</time>
      </trkpt>
      <trkpt lat="42.71683" lon="1.64634">
        <ele>1688.8</ele>
        <time>2020-02-08T12:14:40Z</time>
      </trkpt>
      <trkpt lat="42.71683" lon="1.64633">
        <ele>1688.8</ele>
        <time>2020-02-08T12:14:41Z</time>
      </trkpt>
      <trkpt lat="42.71684" lon="1.64632">
        <ele>1688.8</ele>
        <time>2020-02-08T12:14:42Z</time>
      </trkpt>
      <trkpt lat="42.71684" lon="1.64632">
        <ele>1689.6</ele>
        <time>2020-02-08T12:14:43Z</time>
      </trkpt>
      <trkpt lat="42.71684" lon="1.64631">
        <ele>1689.6</ele>
        <time>2020-02-08T12:14:44Z</time>
      </trkpt>
      <trkpt lat="42.71685" lon="1.6463">
        <ele>1689.6</ele>
        <time>2020-02-08T12:14:45Z</time>
      </trkpt>
      <trkpt lat="42.71685" lon="1.64629">
        <ele>1689.6</ele>
        <time>2020-02-08T12:14:46Z</time>
      </trkpt>
      <trkpt lat="42.71686" lon="1.64629">
        <ele>1689.6</ele>
        <time>2020-02-08T12:14:47Z</time>
      </trkpt>
      <trkpt lat="42.71686" lon="1.64628">
        <ele>1689.6</ele>
        <time>2020-02-08T12:14:48Z</time>
      </trkpt>
      <trkpt lat="42.71686" lon="1.64627">
        <ele>1690.4</ele>
        <time>2020-02-08T12:14:49Z</time>
      </trkpt>
      <trkpt lat="42.71688" lon="1.64624">
        <ele>1690.3</ele>
        <time>2020-02-08T12:14:50Z</time>
      </trkpt>
      <trkpt lat="42.71688" lon="1.64623">
        <ele>1690.3</ele>
        <time>2020-02-08T12:14:51Z</time>
      </trkpt>
      <trkpt lat="42.71689" lon="1.64623">
        <ele>1691.1</ele>
        <time>2020-02-08T12:14:52Z</time>
      </trkpt>
      <trkpt lat="42.71689" lon="1.64622">
        <ele>1691.1</ele>
        <time>2020-02-08T12:14:53Z</time>
      </trkpt>
      <trkpt lat="42.71689" lon="1.64622">
        <ele>1691.1</ele>
        <time>2020-02-08T12:14:54Z</time>
      </trkpt>
      <trkpt lat="42.71689" lon="1.64621">
        <ele>1691.1</ele>
        <time>2020-02-08T12:14:55Z</time>
      </trkpt>
      <trkpt lat="42.7169" lon="1.64621">
        <ele>1691.1</ele>
        <time>2020-02-08T12:14:56Z</time>
      </trkpt>
      <trkpt lat="42.7169" lon="1.6462">
        <ele>1691.1</ele>
        <time>2020-02-08T12:14:57Z</time>
      </trkpt>
      <trkpt lat="42.7169" lon="1.6462">
        <ele>1691.1</ele>
        <time>2020-02-08T12:14:58Z</time>
      </trkpt>
      <trkpt lat="42.7169" lon="1.64619">
        <ele>1691.1</ele>
        <time>2020-02-08T12:14:59Z</time>
      </trkpt>
      <trkpt lat="42.71691" lon="1.64619">
        <ele>1691.8</ele>
        <time>2020-02-08T12:15:00Z</time>
      </trkpt>
      <trkpt lat="42.71691" lon="1.64618">
        <ele>1691.8</ele>
        <time>2020-02-08T12:15:01Z</time>
      </trkpt>
      <trkpt lat="42.71691" lon="1.64617">
        <ele>1691.7</ele>
        <time>2020-02-08T12:15:02Z</time>
      </trkpt>
      <trkpt lat="42.71691" lon="1.64616">
        <ele>1691.7</ele>
        <time>2020-02-08T12:15:03Z</time>
      </trkpt>
      <trkpt lat="42.71692" lon="1.64615">
        <ele>1691.7</ele>
        <time>2020-02-08T12:15:04Z</time>
      </trkpt>
      <trkpt lat="42.71692" lon="1.64614">
        <ele>1692.4</ele>
        <time>2020-02-08T12:15:05Z</time>
      </trkpt>
      <trkpt lat="42.71692" lon="1.64613">
        <ele>1692.4</ele>
        <time>2020-02-08T12:15:06Z</time>
      </trkpt>
      <trkpt lat="42.71692" lon="1.64612">
        <ele>1692.4</ele>
        <time>2020-02-08T12:15:07Z</time>
      </trkpt>
      <trkpt lat="42.71693" lon="1.64611">
        <ele>1692.4</ele>
        <time>2020-02-08T12:15:08Z</time>
      </trkpt>
      <trkpt lat="42.71693" lon="1.6461">
        <ele>1693</ele>
        <time>2020-02-08T12:15:09Z</time>
      </trkpt>
      <trkpt lat="42.71693" lon="1.64609">
        <ele>1693</ele>
        <time>2020-02-08T12:15:10Z</time>
      </trkpt>
      <trkpt lat="42.71693" lon="1.64609">
        <ele>1693</ele>
        <time>2020-02-08T12:15:11Z</time>
      </trkpt>
      <trkpt lat="42.71693" lon="1.64608">
        <ele>1693</ele>
        <time>2020-02-08T12:15:12Z</time>
      </trkpt>
      <trkpt lat="42.71693" lon="1.64607">
        <ele>1693</ele>
        <time>2020-02-08T12:15:13Z</time>
      </trkpt>
      <trkpt lat="42.71694" lon="1.64606">
        <ele>1693.7</ele>
        <time>2020-02-08T12:15:14Z</time>
      </trkpt>
      <trkpt lat="42.71694" lon="1.64605">
        <ele>1693.7</ele>
        <time>2020-02-08T12:15:15Z</time>
      </trkpt>
      <trkpt lat="42.71694" lon="1.64604">
        <ele>1693.7</ele>
        <time>2020-02-08T12:15:16Z</time>
      </trkpt>
      <trkpt lat="42.71694" lon="1.64604">
        <ele>1693.6</ele>
        <time>2020-02-08T12:15:17Z</time>
      </trkpt>
      <trkpt lat="42.71694" lon="1.64603">
        <ele>1693.6</ele>
        <time>2020-02-08T12:15:18Z</time>
      </trkpt>
      <trkpt lat="42.71694" lon="1.64602">
        <ele>1694.2</ele>
        <time>2020-02-08T12:15:19Z</time>
      </trkpt>
      <trkpt lat="42.71695" lon="1.64598">
        <ele>1694.2</ele>
        <time>2020-02-08T12:15:20Z</time>
      </trkpt>
      <trkpt lat="42.71695" lon="1.64597">
        <ele>1694.7</ele>
        <time>2020-02-08T12:15:21Z</time>
      </trkpt>
      <trkpt lat="42.71695" lon="1.64596">
        <ele>1694.7</ele>
        <time>2020-02-08T12:15:22Z</time>
      </trkpt>
      <trkpt lat="42.71696" lon="1.64595">
        <ele>1694.7</ele>
        <time>2020-02-08T12:15:23Z</time>
      </trkpt>
      <trkpt lat="42.71696" lon="1.64595">
        <ele>1694.7</ele>
        <time>2020-02-08T12:15:24Z</time>
      </trkpt>
      <trkpt lat="42.71696" lon="1.64594">
        <ele>1694.7</ele>
        <time>2020-02-08T12:15:25Z</time>
      </trkpt>
      <trkpt lat="42.71696" lon="1.64593">
        <ele>1695.2</ele>
        <time>2020-02-08T12:15:26Z</time>
      </trkpt>
      <trkpt lat="42.71696" lon="1.64592">
        <ele>1695.2</ele>
        <time>2020-02-08T12:15:27Z</time>
      </trkpt>
      <trkpt lat="42.71697" lon="1.64592">
        <ele>1695.2</ele>
        <time>2020-02-08T12:15:28Z</time>
      </trkpt>
      <trkpt lat="42.71697" lon="1.64591">
        <ele>1695.2</ele>
        <time>2020-02-08T12:15:29Z</time>
      </trkpt>
      <trkpt lat="42.71697" lon="1.6459">
        <ele>1695.1</ele>
        <time>2020-02-08T12:15:30Z</time>
      </trkpt>
      <trkpt lat="42.71697" lon="1.64589">
        <ele>1695.1</ele>
        <time>2020-02-08T12:15:31Z</time>
      </trkpt>
      <trkpt lat="42.71698" lon="1.64589">
        <ele>1695.5</ele>
        <time>2020-02-08T12:15:32Z</time>
      </trkpt>
      <trkpt lat="42.71698" lon="1.64588">
        <ele>1695.5</ele>
        <time>2020-02-08T12:15:33Z</time>
      </trkpt>
      <trkpt lat="42.71698" lon="1.64587">
        <ele>1695.5</ele>
        <time>2020-02-08T12:15:34Z</time>
      </trkpt>
      <trkpt lat="42.71699" lon="1.64587">
        <ele>1695.5</ele>
        <time>2020-02-08T12:15:35Z</time>
      </trkpt>
      <trkpt lat="42.71699" lon="1.64586">
        <ele>1695.5</ele>
        <time>2020-02-08T12:15:36Z</time>
      </trkpt>
      <trkpt lat="42.71699" lon="1.64585">
        <ele>1695.5</ele>
        <time>2020-02-08T12:15:37Z</time>
      </trkpt>
      <trkpt lat="42.71699" lon="1.64584">
        <ele>1695.9</ele>
        <time>2020-02-08T12:15:38Z</time>
      </trkpt>
      <trkpt lat="42.717" lon="1.64584">
        <ele>1695.9</ele>
        <time>2020-02-08T12:15:39Z</time>
      </trkpt>
      <trkpt lat="42.717" lon="1.6458">
        <ele>1696.3</ele>
        <time>2020-02-08T12:15:40Z</time>
      </trkpt>
      <trkpt lat="42.717" lon="1.64579">
        <ele>1696.3</ele>
        <time>2020-02-08T12:15:41Z</time>
      </trkpt>
      <trkpt lat="42.717" lon="1.64578">
        <ele>1696.3</ele>
        <time>2020-02-08T12:15:42Z</time>
      </trkpt>
      <trkpt lat="42.717" lon="1.64577">
        <ele>1696.3</ele>
        <time>2020-02-08T12:15:43Z</time>
      </trkpt>
      <trkpt lat="42.717" lon="1.64577">
        <ele>1696.3</ele>
        <time>2020-02-08T12:15:44Z</time>
      </trkpt>
      <trkpt lat="42.717" lon="1.64576">
        <ele>1696.7</ele>
        <time>2020-02-08T12:15:45Z</time>
      </trkpt>
      <trkpt lat="42.717" lon="1.64575">
        <ele>1696.7</ele>
        <time>2020-02-08T12:15:46Z</time>
      </trkpt>
      <trkpt lat="42.717" lon="1.64574">
        <ele>1696.7</ele>
        <time>2020-02-08T12:15:47Z</time>
      </trkpt>
      <trkpt lat="42.717" lon="1.64573">
        <ele>1696.7</ele>
        <time>2020-02-08T12:15:48Z</time>
      </trkpt>
      <trkpt lat="42.717" lon="1.64572">
        <ele>1696.7</ele>
        <time>2020-02-08T12:15:49Z</time>
      </trkpt>
      <trkpt lat="42.717" lon="1.64571">
        <ele>1697</ele>
        <time>2020-02-08T12:15:50Z</time>
      </trkpt>
      <trkpt lat="42.717" lon="1.6457">
        <ele>1696.9</ele>
        <time>2020-02-08T12:15:51Z</time>
      </trkpt>
      <trkpt lat="42.717" lon="1.6457">
        <ele>1696.9</ele>
        <time>2020-02-08T12:15:52Z</time>
      </trkpt>
      <trkpt lat="42.717" lon="1.64569">
        <ele>1696.9</ele>
        <time>2020-02-08T12:15:53Z</time>
      </trkpt>
      <trkpt lat="42.717" lon="1.64568">
        <ele>1696.9</ele>
        <time>2020-02-08T12:15:54Z</time>
      </trkpt>
      <trkpt lat="42.717" lon="1.64567">
        <ele>1697.3</ele>
        <time>2020-02-08T12:15:55Z</time>
      </trkpt>
      <trkpt lat="42.717" lon="1.64566">
        <ele>1697.3</ele>
        <time>2020-02-08T12:15:56Z</time>
      </trkpt>
      <trkpt lat="42.717" lon="1.64565">
        <ele>1697.3</ele>
        <time>2020-02-08T12:15:57Z</time>
      </trkpt>
      <trkpt lat="42.71701" lon="1.64564">
        <ele>1697.3</ele>
        <time>2020-02-08T12:15:58Z</time>
      </trkpt>
      <trkpt lat="42.71701" lon="1.64564">
        <ele>1697.3</ele>
        <time>2020-02-08T12:15:59Z</time>
      </trkpt>
      <trkpt lat="42.71701" lon="1.64563">
        <ele>1697.8</ele>
        <time>2020-02-08T12:16:00Z</time>
      </trkpt>
      <trkpt lat="42.71701" lon="1.64562">
        <ele>1697.8</ele>
        <time>2020-02-08T12:16:01Z</time>
      </trkpt>
      <trkpt lat="42.71701" lon="1.64561">
        <ele>1697.8</ele>
        <time>2020-02-08T12:16:02Z</time>
      </trkpt>
      <trkpt lat="42.71701" lon="1.6456">
        <ele>1697.8</ele>
        <time>2020-02-08T12:16:03Z</time>
      </trkpt>
      <trkpt lat="42.71701" lon="1.6456">
        <ele>1697.8</ele>
        <time>2020-02-08T12:16:04Z</time>
      </trkpt>
      <trkpt lat="42.71701" lon="1.64559">
        <ele>1698.3</ele>
        <time>2020-02-08T12:16:05Z</time>
      </trkpt>
      <trkpt lat="42.71701" lon="1.64558">
        <ele>1698.3</ele>
        <time>2020-02-08T12:16:06Z</time>
      </trkpt>
      <trkpt lat="42.71701" lon="1.64557">
        <ele>1698.3</ele>
        <time>2020-02-08T12:16:07Z</time>
      </trkpt>
      <trkpt lat="42.71701" lon="1.64556">
        <ele>1698.3</ele>
        <time>2020-02-08T12:16:08Z</time>
      </trkpt>
      <trkpt lat="42.71701" lon="1.64556">
        <ele>1698.3</ele>
        <time>2020-02-08T12:16:09Z</time>
      </trkpt>
      <trkpt lat="42.71701" lon="1.64555">
        <ele>1698.3</ele>
        <time>2020-02-08T12:16:10Z</time>
      </trkpt>
      <trkpt lat="42.71701" lon="1.64554">
        <ele>1698.9</ele>
        <time>2020-02-08T12:16:11Z</time>
      </trkpt>
      <trkpt lat="42.71701" lon="1.64553">
        <ele>1698.9</ele>
        <time>2020-02-08T12:16:12Z</time>
      </trkpt>
      <trkpt lat="42.71701" lon="1.64553">
        <ele>1698.9</ele>
        <time>2020-02-08T12:16:13Z</time>
      </trkpt>
      <trkpt lat="42.71701" lon="1.64552">
        <ele>1698.9</ele>
        <time>2020-02-08T12:16:14Z</time>
      </trkpt>
      <trkpt lat="42.71702" lon="1.64551">
        <ele>1698.9</ele>
        <time>2020-02-08T12:16:15Z</time>
      </trkpt>
      <trkpt lat="42.71702" lon="1.6455">
        <ele>1699.5</ele>
        <time>2020-02-08T12:16:16Z</time>
      </trkpt>
      <trkpt lat="42.71702" lon="1.6455">
        <ele>1699.5</ele>
        <time>2020-02-08T12:16:17Z</time>
      </trkpt>
      <trkpt lat="42.71702" lon="1.64549">
        <ele>1699.5</ele>
        <time>2020-02-08T12:16:18Z</time>
      </trkpt>
      <trkpt lat="42.71702" lon="1.64548">
        <ele>1699.5</ele>
        <time>2020-02-08T12:16:19Z</time>
      </trkpt>
      <trkpt lat="42.71702" lon="1.64545">
        <ele>1700.1</ele>
        <time>2020-02-08T12:16:20Z</time>
      </trkpt>
      <trkpt lat="42.71702" lon="1.64544">
        <ele>1700.1</ele>
        <time>2020-02-08T12:16:21Z</time>
      </trkpt>
      <trkpt lat="42.71703" lon="1.64543">
        <ele>1700.1</ele>
        <time>2020-02-08T12:16:22Z</time>
      </trkpt>
      <trkpt lat="42.71703" lon="1.64542">
        <ele>1700.1</ele>
        <time>2020-02-08T12:16:23Z</time>
      </trkpt>
      <trkpt lat="42.71703" lon="1.64541">
        <ele>1700.8</ele>
        <time>2020-02-08T12:16:24Z</time>
      </trkpt>
      <trkpt lat="42.71703" lon="1.6454">
        <ele>1700.8</ele>
        <time>2020-02-08T12:16:25Z</time>
      </trkpt>
      <trkpt lat="42.71703" lon="1.64539">
        <ele>1700.8</ele>
        <time>2020-02-08T12:16:26Z</time>
      </trkpt>
      <trkpt lat="42.71703" lon="1.64538">
        <ele>1700.8</ele>
        <time>2020-02-08T12:16:27Z</time>
      </trkpt>
      <trkpt lat="42.71704" lon="1.64538">
        <ele>1700.8</ele>
        <time>2020-02-08T12:16:28Z</time>
      </trkpt>
      <trkpt lat="42.71704" lon="1.64537">
        <ele>1701.4</ele>
        <time>2020-02-08T12:16:29Z</time>
      </trkpt>
      <trkpt lat="42.71704" lon="1.64536">
        <ele>1701.4</ele>
        <time>2020-02-08T12:16:30Z</time>
      </trkpt>
      <trkpt lat="42.71704" lon="1.64535">
        <ele>1701.4</ele>
        <time>2020-02-08T12:16:31Z</time>
      </trkpt>
      <trkpt lat="42.71704" lon="1.64534">
        <ele>1701.4</ele>
        <time>2020-02-08T12:16:32Z</time>
      </trkpt>
      <trkpt lat="42.71705" lon="1.64533">
        <ele>1701.4</ele>
        <time>2020-02-08T12:16:33Z</time>
      </trkpt>
      <trkpt lat="42.71705" lon="1.64533">
        <ele>1702.1</ele>
        <time>2020-02-08T12:16:34Z</time>
      </trkpt>
      <trkpt lat="42.71705" lon="1.64532">
        <ele>1702.1</ele>
        <time>2020-02-08T12:16:35Z</time>
      </trkpt>
      <trkpt lat="42.71705" lon="1.64531">
        <ele>1702.1</ele>
        <time>2020-02-08T12:16:36Z</time>
      </trkpt>
      <trkpt lat="42.71705" lon="1.6453">
        <ele>1702.1</ele>
        <time>2020-02-08T12:16:37Z</time>
      </trkpt>
      <trkpt lat="42.71706" lon="1.64529">
        <ele>1702.1</ele>
        <time>2020-02-08T12:16:38Z</time>
      </trkpt>
      <trkpt lat="42.71706" lon="1.64528">
        <ele>1702.7</ele>
        <time>2020-02-08T12:16:39Z</time>
      </trkpt>
      <trkpt lat="42.71706" lon="1.64528">
        <ele>1702.7</ele>
        <time>2020-02-08T12:16:40Z</time>
      </trkpt>
      <trkpt lat="42.71706" lon="1.64527">
        <ele>1702.7</ele>
        <time>2020-02-08T12:16:41Z</time>
      </trkpt>
      <trkpt lat="42.71706" lon="1.64526">
        <ele>1702.7</ele>
        <time>2020-02-08T12:16:42Z</time>
      </trkpt>
      <trkpt lat="42.71706" lon="1.64525">
        <ele>1702.7</ele>
        <time>2020-02-08T12:16:43Z</time>
      </trkpt>
      <trkpt lat="42.71706" lon="1.64524">
        <ele>1703.4</ele>
        <time>2020-02-08T12:16:44Z</time>
      </trkpt>
      <trkpt lat="42.71706" lon="1.64523">
        <ele>1703.4</ele>
        <time>2020-02-08T12:16:45Z</time>
      </trkpt>
      <trkpt lat="42.71706" lon="1.64522">
        <ele>1703.4</ele>
        <time>2020-02-08T12:16:46Z</time>
      </trkpt>
      <trkpt lat="42.71706" lon="1.64521">
        <ele>1703.4</ele>
        <time>2020-02-08T12:16:47Z</time>
      </trkpt>
      <trkpt lat="42.71706" lon="1.6452">
        <ele>1704.1</ele>
        <time>2020-02-08T12:16:48Z</time>
      </trkpt>
      <trkpt lat="42.71706" lon="1.64519">
        <ele>1704.1</ele>
        <time>2020-02-08T12:16:49Z</time>
      </trkpt>
      <trkpt lat="42.71706" lon="1.64518">
        <ele>1704.1</ele>
        <time>2020-02-08T12:16:50Z</time>
      </trkpt>
      <trkpt lat="42.71706" lon="1.64517">
        <ele>1704.1</ele>
        <time>2020-02-08T12:16:51Z</time>
      </trkpt>
      <trkpt lat="42.71706" lon="1.64516">
        <ele>1704.1</ele>
        <time>2020-02-08T12:16:52Z</time>
      </trkpt>
      <trkpt lat="42.71706" lon="1.64515">
        <ele>1704.8</ele>
        <time>2020-02-08T12:16:53Z</time>
      </trkpt>
      <trkpt lat="42.71706" lon="1.64514">
        <ele>1704.8</ele>
        <time>2020-02-08T12:16:54Z</time>
      </trkpt>
      <trkpt lat="42.71706" lon="1.64513">
        <ele>1704.8</ele>
        <time>2020-02-08T12:16:55Z</time>
      </trkpt>
      <trkpt lat="42.71706" lon="1.64513">
        <ele>1704.8</ele>
        <time>2020-02-08T12:16:56Z</time>
      </trkpt>
      <trkpt lat="42.71705" lon="1.64512">
        <ele>1705.4</ele>
        <time>2020-02-08T12:16:57Z</time>
      </trkpt>
      <trkpt lat="42.71705" lon="1.64511">
        <ele>1705.4</ele>
        <time>2020-02-08T12:16:58Z</time>
      </trkpt>
      <trkpt lat="42.71705" lon="1.6451">
        <ele>1705.4</ele>
        <time>2020-02-08T12:16:59Z</time>
      </trkpt>
      <trkpt lat="42.71705" lon="1.64506">
        <ele>1706</ele>
        <time>2020-02-08T12:17:00Z</time>
      </trkpt>
      <trkpt lat="42.71705" lon="1.64505">
        <ele>1706</ele>
        <time>2020-02-08T12:17:01Z</time>
      </trkpt>
      <trkpt lat="42.71705" lon="1.64504">
        <ele>1706</ele>
        <time>2020-02-08T12:17:02Z</time>
      </trkpt>
      <trkpt lat="42.71705" lon="1.64503">
        <ele>1706</ele>
        <time>2020-02-08T12:17:03Z</time>
      </trkpt>
      <trkpt lat="42.71705" lon="1.64503">
        <ele>1706.6</ele>
        <time>2020-02-08T12:17:04Z</time>
      </trkpt>
      <trkpt lat="42.71705" lon="1.64502">
        <ele>1706.6</ele>
        <time>2020-02-08T12:17:05Z</time>
      </trkpt>
      <trkpt lat="42.71705" lon="1.64501">
        <ele>1706.6</ele>
        <time>2020-02-08T12:17:06Z</time>
      </trkpt>
      <trkpt lat="42.71705" lon="1.645">
        <ele>1706.6</ele>
        <time>2020-02-08T12:17:07Z</time>
      </trkpt>
      <trkpt lat="42.71704" lon="1.64499">
        <ele>1706.6</ele>
        <time>2020-02-08T12:17:08Z</time>
      </trkpt>
      <trkpt lat="42.71704" lon="1.64499">
        <ele>1707.1</ele>
        <time>2020-02-08T12:17:09Z</time>
      </trkpt>
      <trkpt lat="42.71704" lon="1.64498">
        <ele>1707.1</ele>
        <time>2020-02-08T12:17:10Z</time>
      </trkpt>
      <trkpt lat="42.71704" lon="1.64498">
        <ele>1707.1</ele>
        <time>2020-02-08T12:17:11Z</time>
      </trkpt>
      <trkpt lat="42.71704" lon="1.64498">
        <ele>1707.1</ele>
        <time>2020-02-08T12:17:12Z</time>
      </trkpt>
      <trkpt lat="42.71704" lon="1.64497">
        <ele>1707.1</ele>
        <time>2020-02-08T12:17:13Z</time>
      </trkpt>
      <trkpt lat="42.71704" lon="1.64497">
        <ele>1707.1</ele>
        <time>2020-02-08T12:17:14Z</time>
      </trkpt>
      <trkpt lat="42.71704" lon="1.64497">
        <ele>1707.1</ele>
        <time>2020-02-08T12:17:15Z</time>
      </trkpt>
      <trkpt lat="42.71704" lon="1.64497">
        <ele>1707.1</ele>
        <time>2020-02-08T12:17:16Z</time>
      </trkpt>
      <trkpt lat="42.71704" lon="1.64496">
        <ele>1707.1</ele>
        <time>2020-02-08T12:17:17Z</time>
      </trkpt>
      <trkpt lat="42.71704" lon="1.64496">
        <ele>1707.1</ele>
        <time>2020-02-08T12:17:18Z</time>
      </trkpt>
      <trkpt lat="42.71704" lon="1.64496">
        <ele>1707.1</ele>
        <time>2020-02-08T12:17:19Z</time>
      </trkpt>
      <trkpt lat="42.71704" lon="1.64496">
        <ele>1707.1</ele>
        <time>2020-02-08T12:17:20Z</time>
      </trkpt>
      <trkpt lat="42.71704" lon="1.64496">
        <ele>1707.1</ele>
        <time>2020-02-08T12:17:21Z</time>
      </trkpt>
      <trkpt lat="42.71704" lon="1.64496">
        <ele>1707.1</ele>
        <time>2020-02-08T12:17:22Z</time>
      </trkpt>
      <trkpt lat="42.71704" lon="1.64496">
        <ele>1707.1</ele>
        <time>2020-02-08T12:17:23Z</time>
      </trkpt>
      <trkpt lat="42.71704" lon="1.64496">
        <ele>1707.1</ele>
        <time>2020-02-08T12:17:24Z</time>
      </trkpt>
      <trkpt lat="42.71704" lon="1.64496">
        <ele>1707.1</ele>
        <time>2020-02-08T12:17:25Z</time>
      </trkpt>
      <trkpt lat="42.71704" lon="1.64496">
        <ele>1707.1</ele>
        <time>2020-02-08T12:17:26Z</time>
      </trkpt>
      <trkpt lat="42.71704" lon="1.64496">
        <ele>1707.1</ele>
        <time>2020-02-08T12:17:27Z</time>
      </trkpt>
      <trkpt lat="42.71704" lon="1.64496">
        <ele>1707.1</ele>
        <time>2020-02-08T12:17:28Z</time>
      </trkpt>
      <trkpt lat="42.71704" lon="1.64496">
        <ele>1707.1</ele>
        <time>2020-02-08T12:17:29Z</time>
      </trkpt>
      <trkpt lat="42.71704" lon="1.64496">
        <ele>1707.1</ele>
        <time>2020-02-08T12:17:30Z</time>
      </trkpt>
      <trkpt lat="42.71704" lon="1.64496">
        <ele>1707.1</ele>
        <time>2020-02-08T12:17:31Z</time>
      </trkpt>
      <trkpt lat="42.71704" lon="1.64496">
        <ele>1707.1</ele>
        <time>2020-02-08T12:17:32Z</time>
      </trkpt>
      <trkpt lat="42.71704" lon="1.64496">
        <ele>1707.1</ele>
        <time>2020-02-08T12:17:33Z</time>
      </trkpt>
      <trkpt lat="42.71704" lon="1.64496">
        <ele>1707.1</ele>
        <time>2020-02-08T12:17:34Z</time>
      </trkpt>
      <trkpt lat="42.71704" lon="1.64496">
        <ele>1707.1</ele>
        <time>2020-02-08T12:17:35Z</time>
      </trkpt>
      <trkpt lat="42.71704" lon="1.64496">
        <ele>1707.1</ele>
        <time>2020-02-08T12:17:36Z</time>
      </trkpt>
      <trkpt lat="42.71704" lon="1.64496">
        <ele>1707.1</ele>
        <time>2020-02-08T12:17:37Z</time>
      </trkpt>
      <trkpt lat="42.71704" lon="1.64496">
        <ele>1707.1</ele>
        <time>2020-02-08T12:17:38Z</time>
      </trkpt>
      <trkpt lat="42.71704" lon="1.64496">
        <ele>1707.1</ele>
        <time>2020-02-08T12:17:39Z</time>
      </trkpt>
      <trkpt lat="42.71704" lon="1.64496">
        <ele>1707.1</ele>
        <time>2020-02-08T12:17:40Z</time>
      </trkpt>
      <trkpt lat="42.71704" lon="1.64496">
        <ele>1707.1</ele>
        <time>2020-02-08T12:17:41Z</time>
      </trkpt>
      <trkpt lat="42.71703" lon="1.64493">
        <ele>1707.5</ele>
        <time>2020-02-08T12:17:42Z</time>
      </trkpt>
      <trkpt lat="42.71703" lon="1.64493">
        <ele>1707.5</ele>
        <time>2020-02-08T12:17:43Z</time>
      </trkpt>
      <trkpt lat="42.71703" lon="1.64493">
        <ele>1707.5</ele>
        <time>2020-02-08T12:17:44Z</time>
      </trkpt>
      <trkpt lat="42.71703" lon="1.64493">
        <ele>1707.5</ele>
        <time>2020-02-08T12:17:45Z</time>
      </trkpt>
      <trkpt lat="42.71703" lon="1.64491">
        <ele>1707.5</ele>
        <time>2020-02-08T12:17:46Z</time>
      </trkpt>
      <trkpt lat="42.71703" lon="1.64491">
        <ele>1707.5</ele>
        <time>2020-02-08T12:17:47Z</time>
      </trkpt>
      <trkpt lat="42.71703" lon="1.64491">
        <ele>1707.5</ele>
        <time>2020-02-08T12:17:48Z</time>
      </trkpt>
      <trkpt lat="42.71702" lon="1.64488">
        <ele>1708</ele>
        <time>2020-02-08T12:17:49Z</time>
      </trkpt>
      <trkpt lat="42.71702" lon="1.64487">
        <ele>1708</ele>
        <time>2020-02-08T12:17:50Z</time>
      </trkpt>
      <trkpt lat="42.71702" lon="1.64486">
        <ele>1708</ele>
        <time>2020-02-08T12:17:51Z</time>
      </trkpt>
      <trkpt lat="42.71702" lon="1.64485">
        <ele>1708.4</ele>
        <time>2020-02-08T12:17:52Z</time>
      </trkpt>
      <trkpt lat="42.71702" lon="1.64484">
        <ele>1708.4</ele>
        <time>2020-02-08T12:17:53Z</time>
      </trkpt>
      <trkpt lat="42.71702" lon="1.64483">
        <ele>1708.4</ele>
        <time>2020-02-08T12:17:54Z</time>
      </trkpt>
      <trkpt lat="42.71702" lon="1.64483">
        <ele>1708.4</ele>
        <time>2020-02-08T12:17:55Z</time>
      </trkpt>
      <trkpt lat="42.71702" lon="1.64482">
        <ele>1708.9</ele>
        <time>2020-02-08T12:17:56Z</time>
      </trkpt>
      <trkpt lat="42.71702" lon="1.64481">
        <ele>1708.9</ele>
        <time>2020-02-08T12:17:57Z</time>
      </trkpt>
      <trkpt lat="42.71702" lon="1.6448">
        <ele>1708.9</ele>
        <time>2020-02-08T12:17:58Z</time>
      </trkpt>
      <trkpt lat="42.71702" lon="1.64479">
        <ele>1708.9</ele>
        <time>2020-02-08T12:17:59Z</time>
      </trkpt>
      <trkpt lat="42.71702" lon="1.64478">
        <ele>1708.9</ele>
        <time>2020-02-08T12:18:00Z</time>
      </trkpt>
      <trkpt lat="42.71701" lon="1.64477">
        <ele>1709.4</ele>
        <time>2020-02-08T12:18:01Z</time>
      </trkpt>
      <trkpt lat="42.71701" lon="1.64476">
        <ele>1709.4</ele>
        <time>2020-02-08T12:18:02Z</time>
      </trkpt>
      <trkpt lat="42.71701" lon="1.64475">
        <ele>1709.4</ele>
        <time>2020-02-08T12:18:03Z</time>
      </trkpt>
      <trkpt lat="42.71701" lon="1.64475">
        <ele>1709.4</ele>
        <time>2020-02-08T12:18:04Z</time>
      </trkpt>
      <trkpt lat="42.71701" lon="1.64474">
        <ele>1709.4</ele>
        <time>2020-02-08T12:18:05Z</time>
      </trkpt>
      <trkpt lat="42.71701" lon="1.64473">
        <ele>1709.9</ele>
        <time>2020-02-08T12:18:06Z</time>
      </trkpt>
      <trkpt lat="42.71701" lon="1.64472">
        <ele>1709.9</ele>
        <time>2020-02-08T12:18:07Z</time>
      </trkpt>
      <trkpt lat="42.717" lon="1.64471">
        <ele>1709.9</ele>
        <time>2020-02-08T12:18:08Z</time>
      </trkpt>
      <trkpt lat="42.717" lon="1.6447">
        <ele>1709.8</ele>
        <time>2020-02-08T12:18:09Z</time>
      </trkpt>
      <trkpt lat="42.717" lon="1.64467">
        <ele>1710.3</ele>
        <time>2020-02-08T12:18:10Z</time>
      </trkpt>
      <trkpt lat="42.717" lon="1.64466">
        <ele>1710.3</ele>
        <time>2020-02-08T12:18:11Z</time>
      </trkpt>
      <trkpt lat="42.717" lon="1.64465">
        <ele>1710.3</ele>
        <time>2020-02-08T12:18:12Z</time>
      </trkpt>
      <trkpt lat="42.717" lon="1.64464">
        <ele>1710.8</ele>
        <time>2020-02-08T12:18:13Z</time>
      </trkpt>
      <trkpt lat="42.717" lon="1.64463">
        <ele>1710.8</ele>
        <time>2020-02-08T12:18:14Z</time>
      </trkpt>
      <trkpt lat="42.71699" lon="1.64463">
        <ele>1710.8</ele>
        <time>2020-02-08T12:18:15Z</time>
      </trkpt>
      <trkpt lat="42.71699" lon="1.64462">
        <ele>1710.8</ele>
        <time>2020-02-08T12:18:16Z</time>
      </trkpt>
      <trkpt lat="42.71699" lon="1.64461">
        <ele>1710.8</ele>
        <time>2020-02-08T12:18:17Z</time>
      </trkpt>
      <trkpt lat="42.71699" lon="1.6446">
        <ele>1711.2</ele>
        <time>2020-02-08T12:18:18Z</time>
      </trkpt>
      <trkpt lat="42.71699" lon="1.64459">
        <ele>1711.2</ele>
        <time>2020-02-08T12:18:19Z</time>
      </trkpt>
      <trkpt lat="42.71699" lon="1.64459">
        <ele>1711.2</ele>
        <time>2020-02-08T12:18:20Z</time>
      </trkpt>
      <trkpt lat="42.71699" lon="1.64458">
        <ele>1711.2</ele>
        <time>2020-02-08T12:18:21Z</time>
      </trkpt>
      <trkpt lat="42.71699" lon="1.64458">
        <ele>1711.2</ele>
        <time>2020-02-08T12:18:22Z</time>
      </trkpt>
      <trkpt lat="42.71699" lon="1.64457">
        <ele>1711.2</ele>
        <time>2020-02-08T12:18:23Z</time>
      </trkpt>
      <trkpt lat="42.71699" lon="1.64456">
        <ele>1711.2</ele>
        <time>2020-02-08T12:18:24Z</time>
      </trkpt>
      <trkpt lat="42.71699" lon="1.64456">
        <ele>1711.7</ele>
        <time>2020-02-08T12:18:25Z</time>
      </trkpt>
      <trkpt lat="42.71699" lon="1.64455">
        <ele>1711.7</ele>
        <time>2020-02-08T12:18:26Z</time>
      </trkpt>
      <trkpt lat="42.71699" lon="1.64455">
        <ele>1711.7</ele>
        <time>2020-02-08T12:18:27Z</time>
      </trkpt>
      <trkpt lat="42.71699" lon="1.64454">
        <ele>1711.7</ele>
        <time>2020-02-08T12:18:28Z</time>
      </trkpt>
      <trkpt lat="42.71699" lon="1.64453">
        <ele>1711.7</ele>
        <time>2020-02-08T12:18:29Z</time>
      </trkpt>
      <trkpt lat="42.71699" lon="1.64453">
        <ele>1711.7</ele>
        <time>2020-02-08T12:18:30Z</time>
      </trkpt>
      <trkpt lat="42.71699" lon="1.64451">
        <ele>1712.1</ele>
        <time>2020-02-08T12:18:31Z</time>
      </trkpt>
      <trkpt lat="42.71699" lon="1.64451">
        <ele>1712.1</ele>
        <time>2020-02-08T12:18:32Z</time>
      </trkpt>
      <trkpt lat="42.71699" lon="1.64451">
        <ele>1712.1</ele>
        <time>2020-02-08T12:18:33Z</time>
      </trkpt>
      <trkpt lat="42.71699" lon="1.64451">
        <ele>1712.1</ele>
        <time>2020-02-08T12:18:34Z</time>
      </trkpt>
      <trkpt lat="42.71699" lon="1.64451">
        <ele>1712.1</ele>
        <time>2020-02-08T12:18:35Z</time>
      </trkpt>
      <trkpt lat="42.71699" lon="1.64451">
        <ele>1712.1</ele>
        <time>2020-02-08T12:18:36Z</time>
      </trkpt>
      <trkpt lat="42.71699" lon="1.64451">
        <ele>1712.1</ele>
        <time>2020-02-08T12:18:37Z</time>
      </trkpt>
      <trkpt lat="42.71699" lon="1.64451">
        <ele>1712.1</ele>
        <time>2020-02-08T12:18:38Z</time>
      </trkpt>
      <trkpt lat="42.71699" lon="1.64451">
        <ele>1712.1</ele>
        <time>2020-02-08T12:18:39Z</time>
      </trkpt>
      <trkpt lat="42.71699" lon="1.64451">
        <ele>1712.1</ele>
        <time>2020-02-08T12:18:40Z</time>
      </trkpt>
      <trkpt lat="42.71699" lon="1.64451">
        <ele>1712.1</ele>
        <time>2020-02-08T12:18:41Z</time>
      </trkpt>
      <trkpt lat="42.71699" lon="1.64451">
        <ele>1712.1</ele>
        <time>2020-02-08T12:18:42Z</time>
      </trkpt>
      <trkpt lat="42.71699" lon="1.64451">
        <ele>1712.1</ele>
        <time>2020-02-08T12:18:43Z</time>
      </trkpt>
      <trkpt lat="42.71699" lon="1.64451">
        <ele>1712.1</ele>
        <time>2020-02-08T12:18:44Z</time>
      </trkpt>
      <trkpt lat="42.71699" lon="1.64451">
        <ele>1712.1</ele>
        <time>2020-02-08T12:18:45Z</time>
      </trkpt>
      <trkpt lat="42.71699" lon="1.64451">
        <ele>1712.1</ele>
        <time>2020-02-08T12:18:46Z</time>
      </trkpt>
      <trkpt lat="42.71699" lon="1.64451">
        <ele>1712.1</ele>
        <time>2020-02-08T12:18:47Z</time>
      </trkpt>
      <trkpt lat="42.71699" lon="1.64451">
        <ele>1712.1</ele>
        <time>2020-02-08T12:18:48Z</time>
      </trkpt>
      <trkpt lat="42.71699" lon="1.64451">
        <ele>1712.1</ele>
        <time>2020-02-08T12:18:49Z</time>
      </trkpt>
      <trkpt lat="42.71699" lon="1.64451">
        <ele>1712.1</ele>
        <time>2020-02-08T12:18:50Z</time>
      </trkpt>
      <trkpt lat="42.71699" lon="1.64451">
        <ele>1712.1</ele>
        <time>2020-02-08T12:18:51Z</time>
      </trkpt>
      <trkpt lat="42.71699" lon="1.64451">
        <ele>1712.1</ele>
        <time>2020-02-08T12:18:52Z</time>
      </trkpt>
      <trkpt lat="42.71699" lon="1.64451">
        <ele>1712.1</ele>
        <time>2020-02-08T12:18:53Z</time>
      </trkpt>
      <trkpt lat="42.71699" lon="1.64451">
        <ele>1712.1</ele>
        <time>2020-02-08T12:18:54Z</time>
      </trkpt>
      <trkpt lat="42.71699" lon="1.64451">
        <ele>1712.1</ele>
        <time>2020-02-08T12:18:55Z</time>
      </trkpt>
      <trkpt lat="42.71699" lon="1.64451">
        <ele>1712.1</ele>
        <time>2020-02-08T12:18:56Z</time>
      </trkpt>
      <trkpt lat="42.71699" lon="1.64451">
        <ele>1712.1</ele>
        <time>2020-02-08T12:18:57Z</time>
      </trkpt>
      <trkpt lat="42.71699" lon="1.64451">
        <ele>1712.1</ele>
        <time>2020-02-08T12:18:58Z</time>
      </trkpt>
      <trkpt lat="42.71699" lon="1.64451">
        <ele>1712.1</ele>
        <time>2020-02-08T12:18:59Z</time>
      </trkpt>
      <trkpt lat="42.71699" lon="1.64451">
        <ele>1712.1</ele>
        <time>2020-02-08T12:19:00Z</time>
      </trkpt>
      <trkpt lat="42.71699" lon="1.64451">
        <ele>1712.1</ele>
        <time>2020-02-08T12:19:01Z</time>
      </trkpt>
      <trkpt lat="42.71699" lon="1.64451">
        <ele>1712.1</ele>
        <time>2020-02-08T12:19:02Z</time>
      </trkpt>
      <trkpt lat="42.71699" lon="1.64451">
        <ele>1712.1</ele>
        <time>2020-02-08T12:19:03Z</time>
      </trkpt>
      <trkpt lat="42.71699" lon="1.64451">
        <ele>1712.1</ele>
        <time>2020-02-08T12:19:04Z</time>
      </trkpt>
      <trkpt lat="42.71699" lon="1.64451">
        <ele>1712.1</ele>
        <time>2020-02-08T12:19:05Z</time>
      </trkpt>
      <trkpt lat="42.71701" lon="1.64452">
        <ele>1711.7</ele>
        <time>2020-02-08T12:19:06Z</time>
      </trkpt>
      <trkpt lat="42.71701" lon="1.64452">
        <ele>1711.7</ele>
        <time>2020-02-08T12:19:07Z</time>
      </trkpt>
      <trkpt lat="42.71701" lon="1.64452">
        <ele>1711.7</ele>
        <time>2020-02-08T12:19:08Z</time>
      </trkpt>
      <trkpt lat="42.71703" lon="1.64455">
        <ele>1711.7</ele>
        <time>2020-02-08T12:19:09Z</time>
      </trkpt>
      <trkpt lat="42.71703" lon="1.64455">
        <ele>1711.7</ele>
        <time>2020-02-08T12:19:10Z</time>
      </trkpt>
      <trkpt lat="42.71703" lon="1.64455">
        <ele>1711.7</ele>
        <time>2020-02-08T12:19:11Z</time>
      </trkpt>
      <trkpt lat="42.71703" lon="1.64455">
        <ele>1711.7</ele>
        <time>2020-02-08T12:19:12Z</time>
      </trkpt>
      <trkpt lat="42.71703" lon="1.64455">
        <ele>1711.7</ele>
        <time>2020-02-08T12:19:13Z</time>
      </trkpt>
      <trkpt lat="42.71703" lon="1.64455">
        <ele>1711.7</ele>
        <time>2020-02-08T12:19:14Z</time>
      </trkpt>
      <trkpt lat="42.71703" lon="1.64455">
        <ele>1711.7</ele>
        <time>2020-02-08T12:19:15Z</time>
      </trkpt>
      <trkpt lat="42.71703" lon="1.64455">
        <ele>1711.7</ele>
        <time>2020-02-08T12:19:16Z</time>
      </trkpt>
      <trkpt lat="42.71703" lon="1.64455">
        <ele>1711.7</ele>
        <time>2020-02-08T12:19:17Z</time>
      </trkpt>
      <trkpt lat="42.71703" lon="1.64455">
        <ele>1711.7</ele>
        <time>2020-02-08T12:19:18Z</time>
      </trkpt>
      <trkpt lat="42.71703" lon="1.64455">
        <ele>1711.7</ele>
        <time>2020-02-08T12:19:19Z</time>
      </trkpt>
      <trkpt lat="42.71703" lon="1.64455">
        <ele>1711.7</ele>
        <time>2020-02-08T12:19:20Z</time>
      </trkpt>
      <trkpt lat="42.71703" lon="1.64455">
        <ele>1711.7</ele>
        <time>2020-02-08T12:19:21Z</time>
      </trkpt>
      <trkpt lat="42.71703" lon="1.64455">
        <ele>1711.7</ele>
        <time>2020-02-08T12:19:22Z</time>
      </trkpt>
      <trkpt lat="42.71703" lon="1.64455">
        <ele>1711.7</ele>
        <time>2020-02-08T12:19:23Z</time>
      </trkpt>
      <trkpt lat="42.71703" lon="1.64455">
        <ele>1711.7</ele>
        <time>2020-02-08T12:19:24Z</time>
      </trkpt>
      <trkpt lat="42.71703" lon="1.64455">
        <ele>1711.7</ele>
        <time>2020-02-08T12:19:25Z</time>
      </trkpt>
      <trkpt lat="42.71703" lon="1.64455">
        <ele>1711.7</ele>
        <time>2020-02-08T12:19:26Z</time>
      </trkpt>
      <trkpt lat="42.71703" lon="1.64455">
        <ele>1711.7</ele>
        <time>2020-02-08T12:19:27Z</time>
      </trkpt>
      <trkpt lat="42.71703" lon="1.64455">
        <ele>1711.7</ele>
        <time>2020-02-08T12:19:28Z</time>
      </trkpt>
      <trkpt lat="42.71703" lon="1.64455">
        <ele>1711.7</ele>
        <time>2020-02-08T12:19:29Z</time>
      </trkpt>
      <trkpt lat="42.71703" lon="1.64455">
        <ele>1711.7</ele>
        <time>2020-02-08T12:19:30Z</time>
      </trkpt>
      <trkpt lat="42.71703" lon="1.64455">
        <ele>1711.7</ele>
        <time>2020-02-08T12:19:31Z</time>
      </trkpt>
      <trkpt lat="42.71703" lon="1.64455">
        <ele>1711.7</ele>
        <time>2020-02-08T12:19:32Z</time>
      </trkpt>
      <trkpt lat="42.71703" lon="1.64455">
        <ele>1711.7</ele>
        <time>2020-02-08T12:19:33Z</time>
      </trkpt>
      <trkpt lat="42.71703" lon="1.64455">
        <ele>1711.7</ele>
        <time>2020-02-08T12:19:34Z</time>
      </trkpt>
      <trkpt lat="42.71703" lon="1.64455">
        <ele>1711.7</ele>
        <time>2020-02-08T12:19:35Z</time>
      </trkpt>
      <trkpt lat="42.71703" lon="1.64455">
        <ele>1711.7</ele>
        <time>2020-02-08T12:19:36Z</time>
      </trkpt>
      <trkpt lat="42.71703" lon="1.64455">
        <ele>1711.7</ele>
        <time>2020-02-08T12:19:37Z</time>
      </trkpt>
      <trkpt lat="42.71703" lon="1.64455">
        <ele>1711.7</ele>
        <time>2020-02-08T12:19:38Z</time>
      </trkpt>
      <trkpt lat="42.71703" lon="1.64455">
        <ele>1711.7</ele>
        <time>2020-02-08T12:19:39Z</time>
      </trkpt>
      <trkpt lat="42.71703" lon="1.64455">
        <ele>1711.7</ele>
        <time>2020-02-08T12:19:40Z</time>
      </trkpt>
      <trkpt lat="42.71703" lon="1.64455">
        <ele>1711.7</ele>
        <time>2020-02-08T12:19:41Z</time>
      </trkpt>
      <trkpt lat="42.71703" lon="1.64455">
        <ele>1711.7</ele>
        <time>2020-02-08T12:19:42Z</time>
      </trkpt>
      <trkpt lat="42.71703" lon="1.64455">
        <ele>1711.7</ele>
        <time>2020-02-08T12:19:43Z</time>
      </trkpt>
      <trkpt lat="42.71703" lon="1.64455">
        <ele>1711.7</ele>
        <time>2020-02-08T12:19:44Z</time>
      </trkpt>
      <trkpt lat="42.71703" lon="1.64455">
        <ele>1711.7</ele>
        <time>2020-02-08T12:19:45Z</time>
      </trkpt>
      <trkpt lat="42.71703" lon="1.64455">
        <ele>1711.7</ele>
        <time>2020-02-08T12:19:46Z</time>
      </trkpt>
      <trkpt lat="42.71703" lon="1.64455">
        <ele>1711.7</ele>
        <time>2020-02-08T12:19:47Z</time>
      </trkpt>
      <trkpt lat="42.71703" lon="1.64455">
        <ele>1711.7</ele>
        <time>2020-02-08T12:19:48Z</time>
      </trkpt>
      <trkpt lat="42.71703" lon="1.64455">
        <ele>1711.7</ele>
        <time>2020-02-08T12:19:49Z</time>
      </trkpt>
      <trkpt lat="42.71703" lon="1.64455">
        <ele>1711.7</ele>
        <time>2020-02-08T12:19:50Z</time>
      </trkpt>
      <trkpt lat="42.71703" lon="1.64455">
        <ele>1711.7</ele>
        <time>2020-02-08T12:19:51Z</time>
      </trkpt>
      <trkpt lat="42.71703" lon="1.64455">
        <ele>1711.7</ele>
        <time>2020-02-08T12:19:52Z</time>
      </trkpt>
      <trkpt lat="42.71703" lon="1.64455">
        <ele>1711.7</ele>
        <time>2020-02-08T12:19:53Z</time>
      </trkpt>
      <trkpt lat="42.71703" lon="1.64455">
        <ele>1711.7</ele>
        <time>2020-02-08T12:19:54Z</time>
      </trkpt>
      <trkpt lat="42.71703" lon="1.64455">
        <ele>1711.7</ele>
        <time>2020-02-08T12:19:55Z</time>
      </trkpt>
      <trkpt lat="42.71703" lon="1.64455">
        <ele>1711.7</ele>
        <time>2020-02-08T12:19:56Z</time>
      </trkpt>
      <trkpt lat="42.71703" lon="1.64455">
        <ele>1711.7</ele>
        <time>2020-02-08T12:19:57Z</time>
      </trkpt>
      <trkpt lat="42.71703" lon="1.64455">
        <ele>1711.7</ele>
        <time>2020-02-08T12:19:58Z</time>
      </trkpt>
      <trkpt lat="42.71703" lon="1.64455">
        <ele>1711.7</ele>
        <time>2020-02-08T12:19:59Z</time>
      </trkpt>
      <trkpt lat="42.71703" lon="1.64455">
        <ele>1711.7</ele>
        <time>2020-02-08T12:20:00Z</time>
      </trkpt>
      <trkpt lat="42.71703" lon="1.64455">
        <ele>1711.7</ele>
        <time>2020-02-08T12:20:01Z</time>
      </trkpt>
      <trkpt lat="42.71703" lon="1.64455">
        <ele>1711.7</ele>
        <time>2020-02-08T12:20:02Z</time>
      </trkpt>
      <trkpt lat="42.71703" lon="1.64455">
        <ele>1711.7</ele>
        <time>2020-02-08T12:20:03Z</time>
      </trkpt>
      <trkpt lat="42.71703" lon="1.64455">
        <ele>1711.7</ele>
        <time>2020-02-08T12:20:04Z</time>
      </trkpt>
      <trkpt lat="42.71703" lon="1.64455">
        <ele>1711.7</ele>
        <time>2020-02-08T12:20:05Z</time>
      </trkpt>
      <trkpt lat="42.71703" lon="1.64455">
        <ele>1711.7</ele>
        <time>2020-02-08T12:20:06Z</time>
      </trkpt>
      <trkpt lat="42.71703" lon="1.64455">
        <ele>1711.7</ele>
        <time>2020-02-08T12:20:07Z</time>
      </trkpt>
      <trkpt lat="42.71703" lon="1.64455">
        <ele>1711.7</ele>
        <time>2020-02-08T12:20:08Z</time>
      </trkpt>
      <trkpt lat="42.71703" lon="1.64455">
        <ele>1711.7</ele>
        <time>2020-02-08T12:20:09Z</time>
      </trkpt>
      <trkpt lat="42.71703" lon="1.64455">
        <ele>1711.7</ele>
        <time>2020-02-08T12:20:10Z</time>
      </trkpt>
      <trkpt lat="42.71703" lon="1.64455">
        <ele>1711.7</ele>
        <time>2020-02-08T12:20:11Z</time>
      </trkpt>
      <trkpt lat="42.71703" lon="1.64455">
        <ele>1711.7</ele>
        <time>2020-02-08T12:20:12Z</time>
      </trkpt>
      <trkpt lat="42.71703" lon="1.64455">
        <ele>1711.7</ele>
        <time>2020-02-08T12:20:13Z</time>
      </trkpt>
      <trkpt lat="42.71703" lon="1.64455">
        <ele>1711.7</ele>
        <time>2020-02-08T12:20:14Z</time>
      </trkpt>
      <trkpt lat="42.71703" lon="1.64455">
        <ele>1711.7</ele>
        <time>2020-02-08T12:20:15Z</time>
      </trkpt>
      <trkpt lat="42.71703" lon="1.64455">
        <ele>1711.7</ele>
        <time>2020-02-08T12:20:16Z</time>
      </trkpt>
      <trkpt lat="42.71703" lon="1.64455">
        <ele>1711.7</ele>
        <time>2020-02-08T12:20:17Z</time>
      </trkpt>
      <trkpt lat="42.71703" lon="1.64455">
        <ele>1711.7</ele>
        <time>2020-02-08T12:20:18Z</time>
      </trkpt>
      <trkpt lat="42.71703" lon="1.64455">
        <ele>1711.7</ele>
        <time>2020-02-08T12:20:19Z</time>
      </trkpt>
      <trkpt lat="42.71703" lon="1.64455">
        <ele>1711.7</ele>
        <time>2020-02-08T12:20:20Z</time>
      </trkpt>
      <trkpt lat="42.71703" lon="1.64455">
        <ele>1711.7</ele>
        <time>2020-02-08T12:20:21Z</time>
      </trkpt>
      <trkpt lat="42.71703" lon="1.64455">
        <ele>1711.7</ele>
        <time>2020-02-08T12:20:22Z</time>
      </trkpt>
      <trkpt lat="42.71703" lon="1.64455">
        <ele>1711.7</ele>
        <time>2020-02-08T12:20:23Z</time>
      </trkpt>
      <trkpt lat="42.71703" lon="1.64455">
        <ele>1711.7</ele>
        <time>2020-02-08T12:20:24Z</time>
      </trkpt>
      <trkpt lat="42.71703" lon="1.64455">
        <ele>1711.7</ele>
        <time>2020-02-08T12:20:25Z</time>
      </trkpt>
      <trkpt lat="42.71703" lon="1.64455">
        <ele>1711.7</ele>
        <time>2020-02-08T12:20:26Z</time>
      </trkpt>
      <trkpt lat="42.71703" lon="1.64455">
        <ele>1711.7</ele>
        <time>2020-02-08T12:20:27Z</time>
      </trkpt>
      <trkpt lat="42.71703" lon="1.64455">
        <ele>1711.7</ele>
        <time>2020-02-08T12:20:28Z</time>
      </trkpt>
      <trkpt lat="42.71703" lon="1.64455">
        <ele>1711.7</ele>
        <time>2020-02-08T12:20:29Z</time>
      </trkpt>
      <trkpt lat="42.71703" lon="1.64455">
        <ele>1711.7</ele>
        <time>2020-02-08T12:20:30Z</time>
      </trkpt>
      <trkpt lat="42.71703" lon="1.64455">
        <ele>1711.7</ele>
        <time>2020-02-08T12:20:31Z</time>
      </trkpt>
      <trkpt lat="42.71703" lon="1.64455">
        <ele>1711.7</ele>
        <time>2020-02-08T12:20:32Z</time>
      </trkpt>
      <trkpt lat="42.71703" lon="1.64455">
        <ele>1711.7</ele>
        <time>2020-02-08T12:20:33Z</time>
      </trkpt>
      <trkpt lat="42.71703" lon="1.64455">
        <ele>1711.7</ele>
        <time>2020-02-08T12:20:34Z</time>
      </trkpt>
      <trkpt lat="42.71703" lon="1.64455">
        <ele>1711.7</ele>
        <time>2020-02-08T12:20:35Z</time>
      </trkpt>
      <trkpt lat="42.71703" lon="1.64455">
        <ele>1711.7</ele>
        <time>2020-02-08T12:20:36Z</time>
      </trkpt>
      <trkpt lat="42.71703" lon="1.64455">
        <ele>1711.7</ele>
        <time>2020-02-08T12:20:37Z</time>
      </trkpt>
      <trkpt lat="42.71703" lon="1.64455">
        <ele>1711.7</ele>
        <time>2020-02-08T12:20:38Z</time>
      </trkpt>
      <trkpt lat="42.71703" lon="1.64455">
        <ele>1711.7</ele>
        <time>2020-02-08T12:20:39Z</time>
      </trkpt>
      <trkpt lat="42.71703" lon="1.64455">
        <ele>1711.7</ele>
        <time>2020-02-08T12:20:40Z</time>
      </trkpt>
      <trkpt lat="42.71701" lon="1.64454">
        <ele>1711.7</ele>
        <time>2020-02-08T12:20:41Z</time>
      </trkpt>
      <trkpt lat="42.71701" lon="1.64454">
        <ele>1711.7</ele>
        <time>2020-02-08T12:20:42Z</time>
      </trkpt>
      <trkpt lat="42.71701" lon="1.64454">
        <ele>1711.7</ele>
        <time>2020-02-08T12:20:43Z</time>
      </trkpt>
      <trkpt lat="42.71701" lon="1.64454">
        <ele>1711.7</ele>
        <time>2020-02-08T12:20:44Z</time>
      </trkpt>
      <trkpt lat="42.71701" lon="1.64454">
        <ele>1711.7</ele>
        <time>2020-02-08T12:20:45Z</time>
      </trkpt>
      <trkpt lat="42.71701" lon="1.64454">
        <ele>1711.7</ele>
        <time>2020-02-08T12:20:46Z</time>
      </trkpt>
      <trkpt lat="42.71701" lon="1.64454">
        <ele>1711.7</ele>
        <time>2020-02-08T12:20:47Z</time>
      </trkpt>
      <trkpt lat="42.71701" lon="1.64454">
        <ele>1711.7</ele>
        <time>2020-02-08T12:20:48Z</time>
      </trkpt>
      <trkpt lat="42.71701" lon="1.64454">
        <ele>1711.7</ele>
        <time>2020-02-08T12:20:49Z</time>
      </trkpt>
      <trkpt lat="42.71701" lon="1.64454">
        <ele>1711.7</ele>
        <time>2020-02-08T12:20:50Z</time>
      </trkpt>
      <trkpt lat="42.71701" lon="1.64454">
        <ele>1711.7</ele>
        <time>2020-02-08T12:20:51Z</time>
      </trkpt>
      <trkpt lat="42.71701" lon="1.64454">
        <ele>1711.7</ele>
        <time>2020-02-08T12:20:52Z</time>
      </trkpt>
      <trkpt lat="42.71701" lon="1.64454">
        <ele>1711.7</ele>
        <time>2020-02-08T12:20:53Z</time>
      </trkpt>
      <trkpt lat="42.71701" lon="1.64454">
        <ele>1711.7</ele>
        <time>2020-02-08T12:20:54Z</time>
      </trkpt>
      <trkpt lat="42.71701" lon="1.64454">
        <ele>1711.7</ele>
        <time>2020-02-08T12:20:55Z</time>
      </trkpt>
      <trkpt lat="42.71701" lon="1.64454">
        <ele>1711.7</ele>
        <time>2020-02-08T12:20:56Z</time>
      </trkpt>
      <trkpt lat="42.71701" lon="1.64454">
        <ele>1711.7</ele>
        <time>2020-02-08T12:20:57Z</time>
      </trkpt>
      <trkpt lat="42.71701" lon="1.64454">
        <ele>1711.7</ele>
        <time>2020-02-08T12:20:58Z</time>
      </trkpt>
      <trkpt lat="42.71701" lon="1.64454">
        <ele>1711.7</ele>
        <time>2020-02-08T12:20:59Z</time>
      </trkpt>
      <trkpt lat="42.71701" lon="1.64454">
        <ele>1711.7</ele>
        <time>2020-02-08T12:21:00Z</time>
      </trkpt>
      <trkpt lat="42.71701" lon="1.64454">
        <ele>1711.7</ele>
        <time>2020-02-08T12:21:01Z</time>
      </trkpt>
      <trkpt lat="42.71701" lon="1.64454">
        <ele>1711.7</ele>
        <time>2020-02-08T12:21:02Z</time>
      </trkpt>
      <trkpt lat="42.71701" lon="1.64454">
        <ele>1711.7</ele>
        <time>2020-02-08T12:21:03Z</time>
      </trkpt>
      <trkpt lat="42.71701" lon="1.64454">
        <ele>1711.7</ele>
        <time>2020-02-08T12:21:04Z</time>
      </trkpt>
      <trkpt lat="42.717" lon="1.64453">
        <ele>1711.7</ele>
        <time>2020-02-08T12:21:05Z</time>
      </trkpt>
      <trkpt lat="42.717" lon="1.64453">
        <ele>1711.7</ele>
        <time>2020-02-08T12:21:06Z</time>
      </trkpt>
      <trkpt lat="42.717" lon="1.64453">
        <ele>1711.7</ele>
        <time>2020-02-08T12:21:07Z</time>
      </trkpt>
      <trkpt lat="42.717" lon="1.64453">
        <ele>1711.7</ele>
        <time>2020-02-08T12:21:08Z</time>
      </trkpt>
      <trkpt lat="42.717" lon="1.64453">
        <ele>1711.7</ele>
        <time>2020-02-08T12:21:09Z</time>
      </trkpt>
      <trkpt lat="42.717" lon="1.64453">
        <ele>1711.7</ele>
        <time>2020-02-08T12:21:10Z</time>
      </trkpt>
      <trkpt lat="42.717" lon="1.64453">
        <ele>1711.7</ele>
        <time>2020-02-08T12:21:11Z</time>
      </trkpt>
      <trkpt lat="42.717" lon="1.64453">
        <ele>1711.7</ele>
        <time>2020-02-08T12:21:12Z</time>
      </trkpt>
      <trkpt lat="42.717" lon="1.64453">
        <ele>1711.7</ele>
        <time>2020-02-08T12:21:13Z</time>
      </trkpt>
      <trkpt lat="42.717" lon="1.64453">
        <ele>1711.7</ele>
        <time>2020-02-08T12:21:14Z</time>
      </trkpt>
      <trkpt lat="42.717" lon="1.64453">
        <ele>1711.7</ele>
        <time>2020-02-08T12:21:15Z</time>
      </trkpt>
      <trkpt lat="42.717" lon="1.64453">
        <ele>1711.7</ele>
        <time>2020-02-08T12:21:16Z</time>
      </trkpt>
      <trkpt lat="42.717" lon="1.64453">
        <ele>1711.7</ele>
        <time>2020-02-08T12:21:17Z</time>
      </trkpt>
      <trkpt lat="42.717" lon="1.64453">
        <ele>1711.7</ele>
        <time>2020-02-08T12:21:18Z</time>
      </trkpt>
      <trkpt lat="42.717" lon="1.64453">
        <ele>1711.7</ele>
        <time>2020-02-08T12:21:19Z</time>
      </trkpt>
      <trkpt lat="42.717" lon="1.64453">
        <ele>1711.7</ele>
        <time>2020-02-08T12:21:20Z</time>
      </trkpt>
      <trkpt lat="42.717" lon="1.64453">
        <ele>1711.7</ele>
        <time>2020-02-08T12:21:21Z</time>
      </trkpt>
      <trkpt lat="42.717" lon="1.64453">
        <ele>1711.7</ele>
        <time>2020-02-08T12:21:22Z</time>
      </trkpt>
      <trkpt lat="42.717" lon="1.64453">
        <ele>1711.7</ele>
        <time>2020-02-08T12:21:23Z</time>
      </trkpt>
      <trkpt lat="42.717" lon="1.64453">
        <ele>1711.7</ele>
        <time>2020-02-08T12:21:24Z</time>
      </trkpt>
      <trkpt lat="42.717" lon="1.64453">
        <ele>1711.7</ele>
        <time>2020-02-08T12:21:25Z</time>
      </trkpt>
      <trkpt lat="42.717" lon="1.64453">
        <ele>1711.7</ele>
        <time>2020-02-08T12:21:26Z</time>
      </trkpt>
      <trkpt lat="42.717" lon="1.64453">
        <ele>1711.7</ele>
        <time>2020-02-08T12:21:27Z</time>
      </trkpt>
      <trkpt lat="42.717" lon="1.64453">
        <ele>1711.7</ele>
        <time>2020-02-08T12:21:28Z</time>
      </trkpt>
      <trkpt lat="42.717" lon="1.64453">
        <ele>1711.7</ele>
        <time>2020-02-08T12:21:29Z</time>
      </trkpt>
      <trkpt lat="42.717" lon="1.64453">
        <ele>1711.7</ele>
        <time>2020-02-08T12:21:30Z</time>
      </trkpt>
      <trkpt lat="42.717" lon="1.64453">
        <ele>1711.7</ele>
        <time>2020-02-08T12:21:31Z</time>
      </trkpt>
      <trkpt lat="42.717" lon="1.64453">
        <ele>1711.7</ele>
        <time>2020-02-08T12:21:32Z</time>
      </trkpt>
      <trkpt lat="42.717" lon="1.64453">
        <ele>1711.7</ele>
        <time>2020-02-08T12:21:33Z</time>
      </trkpt>
      <trkpt lat="42.717" lon="1.64453">
        <ele>1711.7</ele>
        <time>2020-02-08T12:21:34Z</time>
      </trkpt>
      <trkpt lat="42.717" lon="1.64453">
        <ele>1711.7</ele>
        <time>2020-02-08T12:21:35Z</time>
      </trkpt>
      <trkpt lat="42.717" lon="1.64453">
        <ele>1711.7</ele>
        <time>2020-02-08T12:21:36Z</time>
      </trkpt>
      <trkpt lat="42.717" lon="1.64453">
        <ele>1711.7</ele>
        <time>2020-02-08T12:21:37Z</time>
      </trkpt>
      <trkpt lat="42.717" lon="1.64453">
        <ele>1711.7</ele>
        <time>2020-02-08T12:21:38Z</time>
      </trkpt>
      <trkpt lat="42.717" lon="1.64453">
        <ele>1711.7</ele>
        <time>2020-02-08T12:21:39Z</time>
      </trkpt>
      <trkpt lat="42.717" lon="1.64453">
        <ele>1711.7</ele>
        <time>2020-02-08T12:21:40Z</time>
      </trkpt>
      <trkpt lat="42.717" lon="1.64453">
        <ele>1711.7</ele>
        <time>2020-02-08T12:21:41Z</time>
      </trkpt>
      <trkpt lat="42.717" lon="1.64453">
        <ele>1711.7</ele>
        <time>2020-02-08T12:21:42Z</time>
      </trkpt>
      <trkpt lat="42.717" lon="1.64453">
        <ele>1711.7</ele>
        <time>2020-02-08T12:21:43Z</time>
      </trkpt>
      <trkpt lat="42.717" lon="1.64453">
        <ele>1711.7</ele>
        <time>2020-02-08T12:21:44Z</time>
      </trkpt>
      <trkpt lat="42.717" lon="1.64453">
        <ele>1711.7</ele>
        <time>2020-02-08T12:21:45Z</time>
      </trkpt>
      <trkpt lat="42.717" lon="1.64453">
        <ele>1711.7</ele>
        <time>2020-02-08T12:21:46Z</time>
      </trkpt>
      <trkpt lat="42.717" lon="1.64453">
        <ele>1711.7</ele>
        <time>2020-02-08T12:21:47Z</time>
      </trkpt>
      <trkpt lat="42.717" lon="1.64453">
        <ele>1711.7</ele>
        <time>2020-02-08T12:21:48Z</time>
      </trkpt>
      <trkpt lat="42.717" lon="1.64453">
        <ele>1711.7</ele>
        <time>2020-02-08T12:21:49Z</time>
      </trkpt>
      <trkpt lat="42.717" lon="1.64453">
        <ele>1711.7</ele>
        <time>2020-02-08T12:21:50Z</time>
      </trkpt>
      <trkpt lat="42.717" lon="1.64453">
        <ele>1711.7</ele>
        <time>2020-02-08T12:21:51Z</time>
      </trkpt>
      <trkpt lat="42.717" lon="1.64453">
        <ele>1711.7</ele>
        <time>2020-02-08T12:21:52Z</time>
      </trkpt>
      <trkpt lat="42.717" lon="1.64453">
        <ele>1711.7</ele>
        <time>2020-02-08T12:21:53Z</time>
      </trkpt>
      <trkpt lat="42.717" lon="1.64453">
        <ele>1711.7</ele>
        <time>2020-02-08T12:21:54Z</time>
      </trkpt>
      <trkpt lat="42.717" lon="1.64453">
        <ele>1711.7</ele>
        <time>2020-02-08T12:21:55Z</time>
      </trkpt>
      <trkpt lat="42.717" lon="1.64453">
        <ele>1711.7</ele>
        <time>2020-02-08T12:21:56Z</time>
      </trkpt>
      <trkpt lat="42.717" lon="1.64453">
        <ele>1711.7</ele>
        <time>2020-02-08T12:21:57Z</time>
      </trkpt>
      <trkpt lat="42.717" lon="1.64453">
        <ele>1711.7</ele>
        <time>2020-02-08T12:21:58Z</time>
      </trkpt>
      <trkpt lat="42.717" lon="1.64453">
        <ele>1711.7</ele>
        <time>2020-02-08T12:21:59Z</time>
      </trkpt>
      <trkpt lat="42.717" lon="1.64453">
        <ele>1711.7</ele>
        <time>2020-02-08T12:22:00Z</time>
      </trkpt>
      <trkpt lat="42.71701" lon="1.64454">
        <ele>1711.7</ele>
        <time>2020-02-08T12:22:01Z</time>
      </trkpt>
      <trkpt lat="42.71701" lon="1.64454">
        <ele>1711.7</ele>
        <time>2020-02-08T12:22:02Z</time>
      </trkpt>
      <trkpt lat="42.71701" lon="1.64454">
        <ele>1711.7</ele>
        <time>2020-02-08T12:22:03Z</time>
      </trkpt>
      <trkpt lat="42.71701" lon="1.64454">
        <ele>1711.7</ele>
        <time>2020-02-08T12:22:04Z</time>
      </trkpt>
      <trkpt lat="42.71701" lon="1.64454">
        <ele>1711.7</ele>
        <time>2020-02-08T12:22:05Z</time>
      </trkpt>
      <trkpt lat="42.71701" lon="1.64454">
        <ele>1711.7</ele>
        <time>2020-02-08T12:22:06Z</time>
      </trkpt>
      <trkpt lat="42.71701" lon="1.64454">
        <ele>1711.7</ele>
        <time>2020-02-08T12:22:07Z</time>
      </trkpt>
      <trkpt lat="42.71701" lon="1.64454">
        <ele>1711.7</ele>
        <time>2020-02-08T12:22:08Z</time>
      </trkpt>
      <trkpt lat="42.71701" lon="1.64454">
        <ele>1711.7</ele>
        <time>2020-02-08T12:22:09Z</time>
      </trkpt>
      <trkpt lat="42.71701" lon="1.64454">
        <ele>1711.7</ele>
        <time>2020-02-08T12:22:10Z</time>
      </trkpt>
      <trkpt lat="42.71701" lon="1.64454">
        <ele>1711.7</ele>
        <time>2020-02-08T12:22:11Z</time>
      </trkpt>
      <trkpt lat="42.71701" lon="1.64454">
        <ele>1711.7</ele>
        <time>2020-02-08T12:22:12Z</time>
      </trkpt>
      <trkpt lat="42.71701" lon="1.64454">
        <ele>1711.7</ele>
        <time>2020-02-08T12:22:13Z</time>
      </trkpt>
      <trkpt lat="42.71701" lon="1.64454">
        <ele>1711.7</ele>
        <time>2020-02-08T12:22:14Z</time>
      </trkpt>
      <trkpt lat="42.71701" lon="1.64454">
        <ele>1711.7</ele>
        <time>2020-02-08T12:22:15Z</time>
      </trkpt>
      <trkpt lat="42.71701" lon="1.64454">
        <ele>1711.7</ele>
        <time>2020-02-08T12:22:16Z</time>
      </trkpt>
      <trkpt lat="42.71701" lon="1.64454">
        <ele>1711.7</ele>
        <time>2020-02-08T12:22:17Z</time>
      </trkpt>
      <trkpt lat="42.71701" lon="1.64454">
        <ele>1711.7</ele>
        <time>2020-02-08T12:22:18Z</time>
      </trkpt>
      <trkpt lat="42.71701" lon="1.64454">
        <ele>1711.7</ele>
        <time>2020-02-08T12:22:19Z</time>
      </trkpt>
      <trkpt lat="42.71701" lon="1.64454">
        <ele>1711.7</ele>
        <time>2020-02-08T12:22:20Z</time>
      </trkpt>
      <trkpt lat="42.71703" lon="1.64455">
        <ele>1711.7</ele>
        <time>2020-02-08T12:22:21Z</time>
      </trkpt>
      <trkpt lat="42.71703" lon="1.64455">
        <ele>1711.7</ele>
        <time>2020-02-08T12:22:22Z</time>
      </trkpt>
      <trkpt lat="42.71703" lon="1.64455">
        <ele>1711.7</ele>
        <time>2020-02-08T12:22:23Z</time>
      </trkpt>
      <trkpt lat="42.71703" lon="1.64455">
        <ele>1711.7</ele>
        <time>2020-02-08T12:22:24Z</time>
      </trkpt>
      <trkpt lat="42.71703" lon="1.64455">
        <ele>1711.7</ele>
        <time>2020-02-08T12:22:25Z</time>
      </trkpt>
      <trkpt lat="42.71703" lon="1.64455">
        <ele>1711.7</ele>
        <time>2020-02-08T12:22:26Z</time>
      </trkpt>
      <trkpt lat="42.71703" lon="1.64455">
        <ele>1711.7</ele>
        <time>2020-02-08T12:22:27Z</time>
      </trkpt>
      <trkpt lat="42.71703" lon="1.64455">
        <ele>1711.7</ele>
        <time>2020-02-08T12:22:28Z</time>
      </trkpt>
      <trkpt lat="42.71703" lon="1.64455">
        <ele>1711.7</ele>
        <time>2020-02-08T12:22:29Z</time>
      </trkpt>
      <trkpt lat="42.71703" lon="1.64455">
        <ele>1711.7</ele>
        <time>2020-02-08T12:22:30Z</time>
      </trkpt>
      <trkpt lat="42.71703" lon="1.64455">
        <ele>1711.7</ele>
        <time>2020-02-08T12:22:31Z</time>
      </trkpt>
      <trkpt lat="42.71703" lon="1.64455">
        <ele>1711.7</ele>
        <time>2020-02-08T12:22:32Z</time>
      </trkpt>
      <trkpt lat="42.71703" lon="1.64455">
        <ele>1711.7</ele>
        <time>2020-02-08T12:22:33Z</time>
      </trkpt>
      <trkpt lat="42.71703" lon="1.64455">
        <ele>1711.7</ele>
        <time>2020-02-08T12:22:34Z</time>
      </trkpt>
      <trkpt lat="42.71703" lon="1.64455">
        <ele>1711.7</ele>
        <time>2020-02-08T12:22:35Z</time>
      </trkpt>
      <trkpt lat="42.71703" lon="1.64455">
        <ele>1711.7</ele>
        <time>2020-02-08T12:22:36Z</time>
      </trkpt>
      <trkpt lat="42.71703" lon="1.64455">
        <ele>1711.7</ele>
        <time>2020-02-08T12:22:37Z</time>
      </trkpt>
      <trkpt lat="42.71703" lon="1.64455">
        <ele>1711.7</ele>
        <time>2020-02-08T12:22:38Z</time>
      </trkpt>
      <trkpt lat="42.71703" lon="1.64455">
        <ele>1711.7</ele>
        <time>2020-02-08T12:22:39Z</time>
      </trkpt>
      <trkpt lat="42.71703" lon="1.64455">
        <ele>1711.7</ele>
        <time>2020-02-08T12:22:40Z</time>
      </trkpt>
      <trkpt lat="42.71703" lon="1.64455">
        <ele>1711.7</ele>
        <time>2020-02-08T12:22:41Z</time>
      </trkpt>
      <trkpt lat="42.71703" lon="1.64455">
        <ele>1711.7</ele>
        <time>2020-02-08T12:22:42Z</time>
      </trkpt>
      <trkpt lat="42.71701" lon="1.64455">
        <ele>1711.7</ele>
        <time>2020-02-08T12:22:43Z</time>
      </trkpt>
      <trkpt lat="42.71701" lon="1.64455">
        <ele>1711.7</ele>
        <time>2020-02-08T12:22:44Z</time>
      </trkpt>
      <trkpt lat="42.71701" lon="1.64455">
        <ele>1711.7</ele>
        <time>2020-02-08T12:22:45Z</time>
      </trkpt>
      <trkpt lat="42.71701" lon="1.64455">
        <ele>1711.7</ele>
        <time>2020-02-08T12:22:46Z</time>
      </trkpt>
      <trkpt lat="42.71701" lon="1.64455">
        <ele>1711.7</ele>
        <time>2020-02-08T12:22:47Z</time>
      </trkpt>
      <trkpt lat="42.71699" lon="1.64453">
        <ele>1711.7</ele>
        <time>2020-02-08T12:22:48Z</time>
      </trkpt>
      <trkpt lat="42.71699" lon="1.64453">
        <ele>1711.7</ele>
        <time>2020-02-08T12:22:49Z</time>
      </trkpt>
      <trkpt lat="42.71699" lon="1.64453">
        <ele>1711.7</ele>
        <time>2020-02-08T12:22:50Z</time>
      </trkpt>
      <trkpt lat="42.71699" lon="1.64453">
        <ele>1711.7</ele>
        <time>2020-02-08T12:22:51Z</time>
      </trkpt>
      <trkpt lat="42.71699" lon="1.64453">
        <ele>1711.7</ele>
        <time>2020-02-08T12:22:52Z</time>
      </trkpt>
      <trkpt lat="42.71699" lon="1.64453">
        <ele>1711.7</ele>
        <time>2020-02-08T12:22:53Z</time>
      </trkpt>
      <trkpt lat="42.71699" lon="1.64453">
        <ele>1711.7</ele>
        <time>2020-02-08T12:22:54Z</time>
      </trkpt>
      <trkpt lat="42.71699" lon="1.64453">
        <ele>1711.7</ele>
        <time>2020-02-08T12:22:55Z</time>
      </trkpt>
      <trkpt lat="42.71699" lon="1.64453">
        <ele>1711.7</ele>
        <time>2020-02-08T12:22:56Z</time>
      </trkpt>
      <trkpt lat="42.71699" lon="1.64453">
        <ele>1711.7</ele>
        <time>2020-02-08T12:22:57Z</time>
      </trkpt>
      <trkpt lat="42.71699" lon="1.64453">
        <ele>1711.7</ele>
        <time>2020-02-08T12:22:58Z</time>
      </trkpt>
      <trkpt lat="42.71699" lon="1.64453">
        <ele>1711.7</ele>
        <time>2020-02-08T12:22:59Z</time>
      </trkpt>
      <trkpt lat="42.71699" lon="1.64453">
        <ele>1711.7</ele>
        <time>2020-02-08T12:23:00Z</time>
      </trkpt>
      <trkpt lat="42.71699" lon="1.64453">
        <ele>1711.7</ele>
        <time>2020-02-08T12:23:01Z</time>
      </trkpt>
      <trkpt lat="42.71699" lon="1.64453">
        <ele>1711.7</ele>
        <time>2020-02-08T12:23:02Z</time>
      </trkpt>
      <trkpt lat="42.71699" lon="1.64453">
        <ele>1711.7</ele>
        <time>2020-02-08T12:23:03Z</time>
      </trkpt>
      <trkpt lat="42.71699" lon="1.64453">
        <ele>1711.7</ele>
        <time>2020-02-08T12:23:04Z</time>
      </trkpt>
      <trkpt lat="42.71699" lon="1.64453">
        <ele>1711.7</ele>
        <time>2020-02-08T12:23:05Z</time>
      </trkpt>
      <trkpt lat="42.71699" lon="1.64453">
        <ele>1711.7</ele>
        <time>2020-02-08T12:23:06Z</time>
      </trkpt>
      <trkpt lat="42.71699" lon="1.64453">
        <ele>1711.7</ele>
        <time>2020-02-08T12:23:07Z</time>
      </trkpt>
      <trkpt lat="42.71699" lon="1.64453">
        <ele>1711.7</ele>
        <time>2020-02-08T12:23:08Z</time>
      </trkpt>
      <trkpt lat="42.71699" lon="1.64453">
        <ele>1711.7</ele>
        <time>2020-02-08T12:23:09Z</time>
      </trkpt>
      <trkpt lat="42.71699" lon="1.64453">
        <ele>1711.7</ele>
        <time>2020-02-08T12:23:10Z</time>
      </trkpt>
      <trkpt lat="42.71699" lon="1.64453">
        <ele>1711.7</ele>
        <time>2020-02-08T12:23:11Z</time>
      </trkpt>
      <trkpt lat="42.71699" lon="1.64453">
        <ele>1711.7</ele>
        <time>2020-02-08T12:23:12Z</time>
      </trkpt>
      <trkpt lat="42.71699" lon="1.64453">
        <ele>1711.7</ele>
        <time>2020-02-08T12:23:13Z</time>
      </trkpt>
      <trkpt lat="42.71701" lon="1.64454">
        <ele>1711.7</ele>
        <time>2020-02-08T12:23:14Z</time>
      </trkpt>
      <trkpt lat="42.71701" lon="1.64454">
        <ele>1711.7</ele>
        <time>2020-02-08T12:23:15Z</time>
      </trkpt>
      <trkpt lat="42.71701" lon="1.64454">
        <ele>1711.7</ele>
        <time>2020-02-08T12:23:16Z</time>
      </trkpt>
      <trkpt lat="42.71701" lon="1.64454">
        <ele>1711.7</ele>
        <time>2020-02-08T12:23:17Z</time>
      </trkpt>
      <trkpt lat="42.71701" lon="1.64454">
        <ele>1711.7</ele>
        <time>2020-02-08T12:23:18Z</time>
      </trkpt>
      <trkpt lat="42.71701" lon="1.64454">
        <ele>1711.7</ele>
        <time>2020-02-08T12:23:19Z</time>
      </trkpt>
      <trkpt lat="42.71701" lon="1.64454">
        <ele>1711.7</ele>
        <time>2020-02-08T12:23:20Z</time>
      </trkpt>
      <trkpt lat="42.71701" lon="1.64454">
        <ele>1711.7</ele>
        <time>2020-02-08T12:23:21Z</time>
      </trkpt>
      <trkpt lat="42.71701" lon="1.64454">
        <ele>1711.7</ele>
        <time>2020-02-08T12:23:22Z</time>
      </trkpt>
      <trkpt lat="42.71701" lon="1.64454">
        <ele>1711.7</ele>
        <time>2020-02-08T12:23:23Z</time>
      </trkpt>
      <trkpt lat="42.71701" lon="1.64454">
        <ele>1711.7</ele>
        <time>2020-02-08T12:23:24Z</time>
      </trkpt>
      <trkpt lat="42.71701" lon="1.64454">
        <ele>1711.7</ele>
        <time>2020-02-08T12:23:25Z</time>
      </trkpt>
      <trkpt lat="42.71701" lon="1.64454">
        <ele>1711.7</ele>
        <time>2020-02-08T12:23:26Z</time>
      </trkpt>
      <trkpt lat="42.71701" lon="1.64454">
        <ele>1711.7</ele>
        <time>2020-02-08T12:23:27Z</time>
      </trkpt>
      <trkpt lat="42.71701" lon="1.64454">
        <ele>1711.7</ele>
        <time>2020-02-08T12:23:28Z</time>
      </trkpt>
      <trkpt lat="42.71701" lon="1.64454">
        <ele>1711.7</ele>
        <time>2020-02-08T12:23:29Z</time>
      </trkpt>
      <trkpt lat="42.71701" lon="1.64454">
        <ele>1711.7</ele>
        <time>2020-02-08T12:23:30Z</time>
      </trkpt>
      <trkpt lat="42.71701" lon="1.64454">
        <ele>1711.7</ele>
        <time>2020-02-08T12:23:31Z</time>
      </trkpt>
      <trkpt lat="42.71701" lon="1.64454">
        <ele>1711.7</ele>
        <time>2020-02-08T12:23:32Z</time>
      </trkpt>
      <trkpt lat="42.71701" lon="1.64454">
        <ele>1711.7</ele>
        <time>2020-02-08T12:23:33Z</time>
      </trkpt>
      <trkpt lat="42.71701" lon="1.64454">
        <ele>1711.7</ele>
        <time>2020-02-08T12:23:34Z</time>
      </trkpt>
      <trkpt lat="42.71701" lon="1.64454">
        <ele>1711.7</ele>
        <time>2020-02-08T12:23:35Z</time>
      </trkpt>
      <trkpt lat="42.71701" lon="1.64454">
        <ele>1711.7</ele>
        <time>2020-02-08T12:23:36Z</time>
      </trkpt>
      <trkpt lat="42.71701" lon="1.64454">
        <ele>1711.7</ele>
        <time>2020-02-08T12:23:37Z</time>
      </trkpt>
      <trkpt lat="42.71701" lon="1.64454">
        <ele>1711.7</ele>
        <time>2020-02-08T12:23:38Z</time>
      </trkpt>
      <trkpt lat="42.71701" lon="1.64454">
        <ele>1711.7</ele>
        <time>2020-02-08T12:23:39Z</time>
      </trkpt>
      <trkpt lat="42.71701" lon="1.64454">
        <ele>1711.7</ele>
        <time>2020-02-08T12:23:40Z</time>
      </trkpt>
      <trkpt lat="42.71701" lon="1.64454">
        <ele>1711.7</ele>
        <time>2020-02-08T12:23:41Z</time>
      </trkpt>
      <trkpt lat="42.71701" lon="1.64454">
        <ele>1711.7</ele>
        <time>2020-02-08T12:23:42Z</time>
      </trkpt>
      <trkpt lat="42.71701" lon="1.64454">
        <ele>1711.7</ele>
        <time>2020-02-08T12:23:43Z</time>
      </trkpt>
      <trkpt lat="42.71701" lon="1.64454">
        <ele>1711.7</ele>
        <time>2020-02-08T12:23:44Z</time>
      </trkpt>
      <trkpt lat="42.71701" lon="1.64454">
        <ele>1711.7</ele>
        <time>2020-02-08T12:23:45Z</time>
      </trkpt>
      <trkpt lat="42.71701" lon="1.64454">
        <ele>1711.7</ele>
        <time>2020-02-08T12:23:46Z</time>
      </trkpt>
      <trkpt lat="42.71701" lon="1.64454">
        <ele>1711.7</ele>
        <time>2020-02-08T12:23:47Z</time>
      </trkpt>
      <trkpt lat="42.71701" lon="1.64454">
        <ele>1711.7</ele>
        <time>2020-02-08T12:23:48Z</time>
      </trkpt>
      <trkpt lat="42.71701" lon="1.64454">
        <ele>1711.7</ele>
        <time>2020-02-08T12:23:49Z</time>
      </trkpt>
      <trkpt lat="42.71701" lon="1.64454">
        <ele>1711.7</ele>
        <time>2020-02-08T12:23:50Z</time>
      </trkpt>
      <trkpt lat="42.71703" lon="1.64455">
        <ele>1711.7</ele>
        <time>2020-02-08T12:23:51Z</time>
      </trkpt>
      <trkpt lat="42.71703" lon="1.64455">
        <ele>1711.7</ele>
        <time>2020-02-08T12:23:52Z</time>
      </trkpt>
      <trkpt lat="42.71703" lon="1.64455">
        <ele>1711.7</ele>
        <time>2020-02-08T12:23:53Z</time>
      </trkpt>
      <trkpt lat="42.71703" lon="1.64455">
        <ele>1711.7</ele>
        <time>2020-02-08T12:23:54Z</time>
      </trkpt>
      <trkpt lat="42.71703" lon="1.64455">
        <ele>1711.7</ele>
        <time>2020-02-08T12:23:55Z</time>
      </trkpt>
      <trkpt lat="42.71703" lon="1.64455">
        <ele>1711.7</ele>
        <time>2020-02-08T12:23:56Z</time>
      </trkpt>
      <trkpt lat="42.71703" lon="1.64455">
        <ele>1711.7</ele>
        <time>2020-02-08T12:23:57Z</time>
      </trkpt>
      <trkpt lat="42.71703" lon="1.64455">
        <ele>1711.7</ele>
        <time>2020-02-08T12:23:58Z</time>
      </trkpt>
      <trkpt lat="42.71703" lon="1.64455">
        <ele>1711.7</ele>
        <time>2020-02-08T12:23:59Z</time>
      </trkpt>
      <trkpt lat="42.71703" lon="1.64455">
        <ele>1711.7</ele>
        <time>2020-02-08T12:24:00Z</time>
      </trkpt>
      <trkpt lat="42.71703" lon="1.64455">
        <ele>1711.7</ele>
        <time>2020-02-08T12:24:01Z</time>
      </trkpt>
      <trkpt lat="42.71703" lon="1.64455">
        <ele>1711.7</ele>
        <time>2020-02-08T12:24:02Z</time>
      </trkpt>
      <trkpt lat="42.71703" lon="1.64455">
        <ele>1711.7</ele>
        <time>2020-02-08T12:24:03Z</time>
      </trkpt>
      <trkpt lat="42.71703" lon="1.64455">
        <ele>1711.7</ele>
        <time>2020-02-08T12:24:04Z</time>
      </trkpt>
      <trkpt lat="42.71703" lon="1.64455">
        <ele>1711.7</ele>
        <time>2020-02-08T12:24:05Z</time>
      </trkpt>
      <trkpt lat="42.71703" lon="1.64455">
        <ele>1711.7</ele>
        <time>2020-02-08T12:24:06Z</time>
      </trkpt>
      <trkpt lat="42.71703" lon="1.64455">
        <ele>1711.7</ele>
        <time>2020-02-08T12:24:07Z</time>
      </trkpt>
      <trkpt lat="42.71703" lon="1.64455">
        <ele>1711.7</ele>
        <time>2020-02-08T12:24:08Z</time>
      </trkpt>
      <trkpt lat="42.71703" lon="1.64455">
        <ele>1711.7</ele>
        <time>2020-02-08T12:24:09Z</time>
      </trkpt>
      <trkpt lat="42.71703" lon="1.64455">
        <ele>1711.7</ele>
        <time>2020-02-08T12:24:10Z</time>
      </trkpt>
      <trkpt lat="42.71703" lon="1.64455">
        <ele>1711.7</ele>
        <time>2020-02-08T12:24:11Z</time>
      </trkpt>
      <trkpt lat="42.71703" lon="1.64455">
        <ele>1711.7</ele>
        <time>2020-02-08T12:24:12Z</time>
      </trkpt>
      <trkpt lat="42.71703" lon="1.64455">
        <ele>1711.7</ele>
        <time>2020-02-08T12:24:13Z</time>
      </trkpt>
      <trkpt lat="42.71703" lon="1.64455">
        <ele>1711.7</ele>
        <time>2020-02-08T12:24:14Z</time>
      </trkpt>
      <trkpt lat="42.71703" lon="1.64455">
        <ele>1711.7</ele>
        <time>2020-02-08T12:24:15Z</time>
      </trkpt>
      <trkpt lat="42.71703" lon="1.64455">
        <ele>1711.7</ele>
        <time>2020-02-08T12:24:16Z</time>
      </trkpt>
      <trkpt lat="42.71703" lon="1.64455">
        <ele>1711.7</ele>
        <time>2020-02-08T12:24:17Z</time>
      </trkpt>
      <trkpt lat="42.71703" lon="1.64455">
        <ele>1711.7</ele>
        <time>2020-02-08T12:24:18Z</time>
      </trkpt>
      <trkpt lat="42.71703" lon="1.64455">
        <ele>1711.7</ele>
        <time>2020-02-08T12:24:19Z</time>
      </trkpt>
      <trkpt lat="42.71703" lon="1.64455">
        <ele>1711.8</ele>
        <time>2020-02-08T12:24:20Z</time>
      </trkpt>
      <trkpt lat="42.71703" lon="1.64455">
        <ele>1711.8</ele>
        <time>2020-02-08T12:24:21Z</time>
      </trkpt>
      <trkpt lat="42.71703" lon="1.64455">
        <ele>1711.8</ele>
        <time>2020-02-08T12:24:22Z</time>
      </trkpt>
      <trkpt lat="42.71703" lon="1.64455">
        <ele>1711.9</ele>
        <time>2020-02-08T12:24:23Z</time>
      </trkpt>
      <trkpt lat="42.71703" lon="1.64455">
        <ele>1711.9</ele>
        <time>2020-02-08T12:24:24Z</time>
      </trkpt>
      <trkpt lat="42.71703" lon="1.64455">
        <ele>1711.9</ele>
        <time>2020-02-08T12:24:25Z</time>
      </trkpt>
      <trkpt lat="42.71703" lon="1.64455">
        <ele>1712</ele>
        <time>2020-02-08T12:24:26Z</time>
      </trkpt>
      <trkpt lat="42.71703" lon="1.64455">
        <ele>1712</ele>
        <time>2020-02-08T12:24:27Z</time>
      </trkpt>
      <trkpt lat="42.71703" lon="1.64455">
        <ele>1712</ele>
        <time>2020-02-08T12:24:28Z</time>
      </trkpt>
      <trkpt lat="42.71703" lon="1.64455">
        <ele>1712.1</ele>
        <time>2020-02-08T12:24:29Z</time>
      </trkpt>
      <trkpt lat="42.71703" lon="1.64455">
        <ele>1712.1</ele>
        <time>2020-02-08T12:24:30Z</time>
      </trkpt>
      <trkpt lat="42.71703" lon="1.64455">
        <ele>1712.1</ele>
        <time>2020-02-08T12:24:31Z</time>
      </trkpt>
      <trkpt lat="42.71703" lon="1.64455">
        <ele>1712.2</ele>
        <time>2020-02-08T12:24:32Z</time>
      </trkpt>
      <trkpt lat="42.71703" lon="1.64455">
        <ele>1712.2</ele>
        <time>2020-02-08T12:24:33Z</time>
      </trkpt>
      <trkpt lat="42.71703" lon="1.64455">
        <ele>1712.2</ele>
        <time>2020-02-08T12:24:34Z</time>
      </trkpt>
      <trkpt lat="42.71703" lon="1.64455">
        <ele>1712.3</ele>
        <time>2020-02-08T12:24:35Z</time>
      </trkpt>
      <trkpt lat="42.71703" lon="1.64455">
        <ele>1712.3</ele>
        <time>2020-02-08T12:24:36Z</time>
      </trkpt>
      <trkpt lat="42.71703" lon="1.64455">
        <ele>1712.3</ele>
        <time>2020-02-08T12:24:37Z</time>
      </trkpt>
      <trkpt lat="42.71703" lon="1.64455">
        <ele>1712.4</ele>
        <time>2020-02-08T12:24:38Z</time>
      </trkpt>
      <trkpt lat="42.71703" lon="1.64455">
        <ele>1712.4</ele>
        <time>2020-02-08T12:24:39Z</time>
      </trkpt>
      <trkpt lat="42.71703" lon="1.64455">
        <ele>1712.4</ele>
        <time>2020-02-08T12:24:40Z</time>
      </trkpt>
      <trkpt lat="42.71703" lon="1.64455">
        <ele>1712.5</ele>
        <time>2020-02-08T12:24:41Z</time>
      </trkpt>
      <trkpt lat="42.71703" lon="1.64455">
        <ele>1712.5</ele>
        <time>2020-02-08T12:24:42Z</time>
      </trkpt>
      <trkpt lat="42.71703" lon="1.64455">
        <ele>1712.6</ele>
        <time>2020-02-08T12:24:43Z</time>
      </trkpt>
      <trkpt lat="42.71703" lon="1.64455">
        <ele>1712.6</ele>
        <time>2020-02-08T12:24:44Z</time>
      </trkpt>
      <trkpt lat="42.71703" lon="1.64455">
        <ele>1712.6</ele>
        <time>2020-02-08T12:24:45Z</time>
      </trkpt>
      <trkpt lat="42.71703" lon="1.64455">
        <ele>1712.7</ele>
        <time>2020-02-08T12:24:46Z</time>
      </trkpt>
      <trkpt lat="42.71703" lon="1.64455">
        <ele>1712.7</ele>
        <time>2020-02-08T12:24:47Z</time>
      </trkpt>
      <trkpt lat="42.71703" lon="1.64455">
        <ele>1712.7</ele>
        <time>2020-02-08T12:24:48Z</time>
      </trkpt>
      <trkpt lat="42.71703" lon="1.64455">
        <ele>1712.8</ele>
        <time>2020-02-08T12:24:49Z</time>
      </trkpt>
      <trkpt lat="42.71703" lon="1.64455">
        <ele>1712.8</ele>
        <time>2020-02-08T12:24:50Z</time>
      </trkpt>
      <trkpt lat="42.71703" lon="1.64455">
        <ele>1712.8</ele>
        <time>2020-02-08T12:24:51Z</time>
      </trkpt>
      <trkpt lat="42.71703" lon="1.64455">
        <ele>1712.9</ele>
        <time>2020-02-08T12:24:52Z</time>
      </trkpt>
      <trkpt lat="42.71703" lon="1.64455">
        <ele>1712.9</ele>
        <time>2020-02-08T12:24:53Z</time>
      </trkpt>
      <trkpt lat="42.71703" lon="1.64455">
        <ele>1712.9</ele>
        <time>2020-02-08T12:24:54Z</time>
      </trkpt>
      <trkpt lat="42.71703" lon="1.64455">
        <ele>1713</ele>
        <time>2020-02-08T12:24:55Z</time>
      </trkpt>
      <trkpt lat="42.71703" lon="1.64455">
        <ele>1713</ele>
        <time>2020-02-08T12:24:56Z</time>
      </trkpt>
      <trkpt lat="42.71703" lon="1.64455">
        <ele>1713</ele>
        <time>2020-02-08T12:24:57Z</time>
      </trkpt>
      <trkpt lat="42.71703" lon="1.64455">
        <ele>1713.1</ele>
        <time>2020-02-08T12:24:58Z</time>
      </trkpt>
      <trkpt lat="42.71703" lon="1.64455">
        <ele>1713.1</ele>
        <time>2020-02-08T12:24:59Z</time>
      </trkpt>
      <trkpt lat="42.71703" lon="1.64455">
        <ele>1713.1</ele>
        <time>2020-02-08T12:25:00Z</time>
      </trkpt>
      <trkpt lat="42.71703" lon="1.64455">
        <ele>1713.2</ele>
        <time>2020-02-08T12:25:01Z</time>
      </trkpt>
      <trkpt lat="42.71701" lon="1.64454">
        <ele>1713.2</ele>
        <time>2020-02-08T12:25:02Z</time>
      </trkpt>
      <trkpt lat="42.71701" lon="1.64454">
        <ele>1713.2</ele>
        <time>2020-02-08T12:25:03Z</time>
      </trkpt>
      <trkpt lat="42.71701" lon="1.64454">
        <ele>1713.3</ele>
        <time>2020-02-08T12:25:04Z</time>
      </trkpt>
      <trkpt lat="42.71701" lon="1.64454">
        <ele>1713.3</ele>
        <time>2020-02-08T12:25:05Z</time>
      </trkpt>
      <trkpt lat="42.71701" lon="1.64454">
        <ele>1713.3</ele>
        <time>2020-02-08T12:25:06Z</time>
      </trkpt>
      <trkpt lat="42.71701" lon="1.64454">
        <ele>1713.4</ele>
        <time>2020-02-08T12:25:07Z</time>
      </trkpt>
      <trkpt lat="42.71701" lon="1.64454">
        <ele>1713.4</ele>
        <time>2020-02-08T12:25:08Z</time>
      </trkpt>
      <trkpt lat="42.71701" lon="1.64454">
        <ele>1713.4</ele>
        <time>2020-02-08T12:25:09Z</time>
      </trkpt>
      <trkpt lat="42.71701" lon="1.64454">
        <ele>1713.5</ele>
        <time>2020-02-08T12:25:10Z</time>
      </trkpt>
      <trkpt lat="42.71701" lon="1.64454">
        <ele>1713.5</ele>
        <time>2020-02-08T12:25:11Z</time>
      </trkpt>
      <trkpt lat="42.71701" lon="1.64454">
        <ele>1713.5</ele>
        <time>2020-02-08T12:25:12Z</time>
      </trkpt>
      <trkpt lat="42.71701" lon="1.64454">
        <ele>1713.6</ele>
        <time>2020-02-08T12:25:13Z</time>
      </trkpt>
      <trkpt lat="42.71701" lon="1.64454">
        <ele>1713.6</ele>
        <time>2020-02-08T12:25:14Z</time>
      </trkpt>
      <trkpt lat="42.71701" lon="1.64454">
        <ele>1713.6</ele>
        <time>2020-02-08T12:25:15Z</time>
      </trkpt>
      <trkpt lat="42.71703" lon="1.64454">
        <ele>1713.7</ele>
        <time>2020-02-08T12:25:16Z</time>
      </trkpt>
      <trkpt lat="42.71703" lon="1.64454">
        <ele>1713.7</ele>
        <time>2020-02-08T12:25:17Z</time>
      </trkpt>
      <trkpt lat="42.71703" lon="1.64454">
        <ele>1713.7</ele>
        <time>2020-02-08T12:25:18Z</time>
      </trkpt>
      <trkpt lat="42.71703" lon="1.64454">
        <ele>1713.8</ele>
        <time>2020-02-08T12:25:19Z</time>
      </trkpt>
      <trkpt lat="42.71703" lon="1.64454">
        <ele>1713.8</ele>
        <time>2020-02-08T12:25:20Z</time>
      </trkpt>
      <trkpt lat="42.71703" lon="1.64454">
        <ele>1713.8</ele>
        <time>2020-02-08T12:25:21Z</time>
      </trkpt>
      <trkpt lat="42.71703" lon="1.64454">
        <ele>1713.9</ele>
        <time>2020-02-08T12:25:22Z</time>
      </trkpt>
      <trkpt lat="42.71703" lon="1.64454">
        <ele>1713.9</ele>
        <time>2020-02-08T12:25:23Z</time>
      </trkpt>
      <trkpt lat="42.71703" lon="1.64454">
        <ele>1713.9</ele>
        <time>2020-02-08T12:25:24Z</time>
      </trkpt>
      <trkpt lat="42.71703" lon="1.64454">
        <ele>1714</ele>
        <time>2020-02-08T12:25:25Z</time>
      </trkpt>
      <trkpt lat="42.71703" lon="1.64454">
        <ele>1714</ele>
        <time>2020-02-08T12:25:26Z</time>
      </trkpt>
      <trkpt lat="42.71703" lon="1.64454">
        <ele>1714</ele>
        <time>2020-02-08T12:25:27Z</time>
      </trkpt>
      <trkpt lat="42.71703" lon="1.64454">
        <ele>1714.1</ele>
        <time>2020-02-08T12:25:28Z</time>
      </trkpt>
      <trkpt lat="42.71703" lon="1.64454">
        <ele>1714.1</ele>
        <time>2020-02-08T12:25:29Z</time>
      </trkpt>
      <trkpt lat="42.71703" lon="1.64454">
        <ele>1714.1</ele>
        <time>2020-02-08T12:25:30Z</time>
      </trkpt>
      <trkpt lat="42.71703" lon="1.64454">
        <ele>1714.2</ele>
        <time>2020-02-08T12:25:31Z</time>
      </trkpt>
      <trkpt lat="42.71703" lon="1.64454">
        <ele>1714.2</ele>
        <time>2020-02-08T12:25:32Z</time>
      </trkpt>
      <trkpt lat="42.71703" lon="1.64454">
        <ele>1714.2</ele>
        <time>2020-02-08T12:25:33Z</time>
      </trkpt>
      <trkpt lat="42.71703" lon="1.64454">
        <ele>1714.3</ele>
        <time>2020-02-08T12:25:34Z</time>
      </trkpt>
      <trkpt lat="42.71703" lon="1.64454">
        <ele>1714.3</ele>
        <time>2020-02-08T12:25:35Z</time>
      </trkpt>
      <trkpt lat="42.71703" lon="1.64454">
        <ele>1714.4</ele>
        <time>2020-02-08T12:25:36Z</time>
      </trkpt>
      <trkpt lat="42.71703" lon="1.64454">
        <ele>1714.4</ele>
        <time>2020-02-08T12:25:37Z</time>
      </trkpt>
      <trkpt lat="42.71703" lon="1.64454">
        <ele>1714.4</ele>
        <time>2020-02-08T12:25:38Z</time>
      </trkpt>
      <trkpt lat="42.71703" lon="1.64454">
        <ele>1714.5</ele>
        <time>2020-02-08T12:25:39Z</time>
      </trkpt>
      <trkpt lat="42.71703" lon="1.64454">
        <ele>1714.5</ele>
        <time>2020-02-08T12:25:40Z</time>
      </trkpt>
      <trkpt lat="42.71703" lon="1.64454">
        <ele>1714.5</ele>
        <time>2020-02-08T12:25:41Z</time>
      </trkpt>
      <trkpt lat="42.71703" lon="1.64454">
        <ele>1714.6</ele>
        <time>2020-02-08T12:25:42Z</time>
      </trkpt>
      <trkpt lat="42.71703" lon="1.64454">
        <ele>1714.6</ele>
        <time>2020-02-08T12:25:43Z</time>
      </trkpt>
      <trkpt lat="42.71703" lon="1.64454">
        <ele>1714.6</ele>
        <time>2020-02-08T12:25:44Z</time>
      </trkpt>
      <trkpt lat="42.71703" lon="1.64454">
        <ele>1714.7</ele>
        <time>2020-02-08T12:25:45Z</time>
      </trkpt>
      <trkpt lat="42.71703" lon="1.64454">
        <ele>1714.7</ele>
        <time>2020-02-08T12:25:46Z</time>
      </trkpt>
      <trkpt lat="42.71703" lon="1.64454">
        <ele>1714.7</ele>
        <time>2020-02-08T12:25:47Z</time>
      </trkpt>
      <trkpt lat="42.71703" lon="1.64454">
        <ele>1714.8</ele>
        <time>2020-02-08T12:25:48Z</time>
      </trkpt>
      <trkpt lat="42.71703" lon="1.64454">
        <ele>1714.8</ele>
        <time>2020-02-08T12:25:49Z</time>
      </trkpt>
      <trkpt lat="42.71703" lon="1.64454">
        <ele>1714.8</ele>
        <time>2020-02-08T12:25:50Z</time>
      </trkpt>
      <trkpt lat="42.71703" lon="1.64454">
        <ele>1714.9</ele>
        <time>2020-02-08T12:25:51Z</time>
      </trkpt>
      <trkpt lat="42.71703" lon="1.64454">
        <ele>1714.9</ele>
        <time>2020-02-08T12:25:52Z</time>
      </trkpt>
      <trkpt lat="42.71703" lon="1.64454">
        <ele>1714.9</ele>
        <time>2020-02-08T12:25:53Z</time>
      </trkpt>
      <trkpt lat="42.71703" lon="1.64454">
        <ele>1715</ele>
        <time>2020-02-08T12:25:54Z</time>
      </trkpt>
      <trkpt lat="42.71703" lon="1.64454">
        <ele>1715</ele>
        <time>2020-02-08T12:25:55Z</time>
      </trkpt>
      <trkpt lat="42.71703" lon="1.64454">
        <ele>1715</ele>
        <time>2020-02-08T12:25:56Z</time>
      </trkpt>
      <trkpt lat="42.71703" lon="1.64454">
        <ele>1715.1</ele>
        <time>2020-02-08T12:25:57Z</time>
      </trkpt>
      <trkpt lat="42.71703" lon="1.64454">
        <ele>1715.1</ele>
        <time>2020-02-08T12:25:58Z</time>
      </trkpt>
      <trkpt lat="42.71703" lon="1.64454">
        <ele>1715.1</ele>
        <time>2020-02-08T12:25:59Z</time>
      </trkpt>
      <trkpt lat="42.71703" lon="1.64454">
        <ele>1715.1</ele>
        <time>2020-02-08T12:26:00Z</time>
      </trkpt>
      <trkpt lat="42.71703" lon="1.64454">
        <ele>1715.1</ele>
        <time>2020-02-08T12:26:01Z</time>
      </trkpt>
      <trkpt lat="42.71703" lon="1.64454">
        <ele>1715.1</ele>
        <time>2020-02-08T12:26:02Z</time>
      </trkpt>
      <trkpt lat="42.71703" lon="1.64454">
        <ele>1715.1</ele>
        <time>2020-02-08T12:26:03Z</time>
      </trkpt>
      <trkpt lat="42.71703" lon="1.64454">
        <ele>1715.1</ele>
        <time>2020-02-08T12:26:04Z</time>
      </trkpt>
      <trkpt lat="42.71703" lon="1.64454">
        <ele>1715.1</ele>
        <time>2020-02-08T12:26:05Z</time>
      </trkpt>
      <trkpt lat="42.71703" lon="1.64454">
        <ele>1715.1</ele>
        <time>2020-02-08T12:26:06Z</time>
      </trkpt>
      <trkpt lat="42.71703" lon="1.64454">
        <ele>1715.1</ele>
        <time>2020-02-08T12:26:07Z</time>
      </trkpt>
      <trkpt lat="42.71703" lon="1.64454">
        <ele>1715.1</ele>
        <time>2020-02-08T12:26:08Z</time>
      </trkpt>
      <trkpt lat="42.71703" lon="1.64454">
        <ele>1715.1</ele>
        <time>2020-02-08T12:26:09Z</time>
      </trkpt>
      <trkpt lat="42.71703" lon="1.64454">
        <ele>1715.1</ele>
        <time>2020-02-08T12:26:10Z</time>
      </trkpt>
      <trkpt lat="42.71703" lon="1.64454">
        <ele>1715.1</ele>
        <time>2020-02-08T12:26:11Z</time>
      </trkpt>
      <trkpt lat="42.71703" lon="1.64454">
        <ele>1715.1</ele>
        <time>2020-02-08T12:26:12Z</time>
      </trkpt>
      <trkpt lat="42.71703" lon="1.64454">
        <ele>1715.1</ele>
        <time>2020-02-08T12:26:13Z</time>
      </trkpt>
      <trkpt lat="42.71703" lon="1.64454">
        <ele>1715.1</ele>
        <time>2020-02-08T12:26:14Z</time>
      </trkpt>
      <trkpt lat="42.71703" lon="1.64454">
        <ele>1715.1</ele>
        <time>2020-02-08T12:26:15Z</time>
      </trkpt>
      <trkpt lat="42.71703" lon="1.64454">
        <ele>1715.1</ele>
        <time>2020-02-08T12:26:16Z</time>
      </trkpt>
      <trkpt lat="42.71703" lon="1.64454">
        <ele>1715.1</ele>
        <time>2020-02-08T12:26:17Z</time>
      </trkpt>
      <trkpt lat="42.71703" lon="1.64454">
        <ele>1715.1</ele>
        <time>2020-02-08T12:26:18Z</time>
      </trkpt>
      <trkpt lat="42.71703" lon="1.64454">
        <ele>1715.1</ele>
        <time>2020-02-08T12:26:19Z</time>
      </trkpt>
      <trkpt lat="42.71703" lon="1.64454">
        <ele>1715.1</ele>
        <time>2020-02-08T12:26:20Z</time>
      </trkpt>
      <trkpt lat="42.71703" lon="1.64454">
        <ele>1715.1</ele>
        <time>2020-02-08T12:26:21Z</time>
      </trkpt>
      <trkpt lat="42.71703" lon="1.64454">
        <ele>1715.1</ele>
        <time>2020-02-08T12:26:22Z</time>
      </trkpt>
      <trkpt lat="42.71703" lon="1.64454">
        <ele>1715.1</ele>
        <time>2020-02-08T12:26:23Z</time>
      </trkpt>
      <trkpt lat="42.71703" lon="1.64454">
        <ele>1715.1</ele>
        <time>2020-02-08T12:26:24Z</time>
      </trkpt>
      <trkpt lat="42.71703" lon="1.64454">
        <ele>1715.1</ele>
        <time>2020-02-08T12:26:25Z</time>
      </trkpt>
      <trkpt lat="42.71703" lon="1.64454">
        <ele>1715.1</ele>
        <time>2020-02-08T12:26:26Z</time>
      </trkpt>
      <trkpt lat="42.71702" lon="1.64452">
        <ele>1715.1</ele>
        <time>2020-02-08T12:26:27Z</time>
      </trkpt>
      <trkpt lat="42.71702" lon="1.64452">
        <ele>1715.1</ele>
        <time>2020-02-08T12:26:28Z</time>
      </trkpt>
      <trkpt lat="42.71702" lon="1.64452">
        <ele>1715.1</ele>
        <time>2020-02-08T12:26:29Z</time>
      </trkpt>
      <trkpt lat="42.71702" lon="1.64452">
        <ele>1715.1</ele>
        <time>2020-02-08T12:26:30Z</time>
      </trkpt>
      <trkpt lat="42.71702" lon="1.64452">
        <ele>1715.1</ele>
        <time>2020-02-08T12:26:31Z</time>
      </trkpt>
      <trkpt lat="42.71702" lon="1.64452">
        <ele>1715.1</ele>
        <time>2020-02-08T12:26:32Z</time>
      </trkpt>
      <trkpt lat="42.71702" lon="1.64452">
        <ele>1715.1</ele>
        <time>2020-02-08T12:26:33Z</time>
      </trkpt>
      <trkpt lat="42.71702" lon="1.64452">
        <ele>1715.1</ele>
        <time>2020-02-08T12:26:34Z</time>
      </trkpt>
      <trkpt lat="42.71702" lon="1.64452">
        <ele>1715.1</ele>
        <time>2020-02-08T12:26:35Z</time>
      </trkpt>
      <trkpt lat="42.71702" lon="1.64452">
        <ele>1715.1</ele>
        <time>2020-02-08T12:26:36Z</time>
      </trkpt>
      <trkpt lat="42.71702" lon="1.64452">
        <ele>1715.1</ele>
        <time>2020-02-08T12:26:37Z</time>
      </trkpt>
      <trkpt lat="42.71702" lon="1.64452">
        <ele>1715.1</ele>
        <time>2020-02-08T12:26:38Z</time>
      </trkpt>
      <trkpt lat="42.71702" lon="1.64452">
        <ele>1715.1</ele>
        <time>2020-02-08T12:26:39Z</time>
      </trkpt>
      <trkpt lat="42.71702" lon="1.64452">
        <ele>1715.1</ele>
        <time>2020-02-08T12:26:40Z</time>
      </trkpt>
      <trkpt lat="42.71702" lon="1.64452">
        <ele>1715.1</ele>
        <time>2020-02-08T12:26:41Z</time>
      </trkpt>
      <trkpt lat="42.71702" lon="1.64452">
        <ele>1715.1</ele>
        <time>2020-02-08T12:26:42Z</time>
      </trkpt>
      <trkpt lat="42.71702" lon="1.64452">
        <ele>1715.1</ele>
        <time>2020-02-08T12:26:43Z</time>
      </trkpt>
      <trkpt lat="42.71702" lon="1.64452">
        <ele>1715.1</ele>
        <time>2020-02-08T12:26:44Z</time>
      </trkpt>
      <trkpt lat="42.71702" lon="1.64452">
        <ele>1715.1</ele>
        <time>2020-02-08T12:26:45Z</time>
      </trkpt>
      <trkpt lat="42.71702" lon="1.64452">
        <ele>1715.1</ele>
        <time>2020-02-08T12:26:46Z</time>
      </trkpt>
      <trkpt lat="42.71702" lon="1.64452">
        <ele>1715.1</ele>
        <time>2020-02-08T12:26:47Z</time>
      </trkpt>
      <trkpt lat="42.71702" lon="1.64452">
        <ele>1715.1</ele>
        <time>2020-02-08T12:26:48Z</time>
      </trkpt>
      <trkpt lat="42.71702" lon="1.64452">
        <ele>1715.1</ele>
        <time>2020-02-08T12:26:49Z</time>
      </trkpt>
      <trkpt lat="42.71704" lon="1.64453">
        <ele>1715.1</ele>
        <time>2020-02-08T12:26:50Z</time>
      </trkpt>
      <trkpt lat="42.71704" lon="1.64453">
        <ele>1715.1</ele>
        <time>2020-02-08T12:26:51Z</time>
      </trkpt>
      <trkpt lat="42.71704" lon="1.64453">
        <ele>1715.1</ele>
        <time>2020-02-08T12:26:52Z</time>
      </trkpt>
      <trkpt lat="42.71704" lon="1.64453">
        <ele>1715.1</ele>
        <time>2020-02-08T12:26:53Z</time>
      </trkpt>
      <trkpt lat="42.71704" lon="1.64453">
        <ele>1715.1</ele>
        <time>2020-02-08T12:26:54Z</time>
      </trkpt>
      <trkpt lat="42.71704" lon="1.64453">
        <ele>1715.1</ele>
        <time>2020-02-08T12:26:55Z</time>
      </trkpt>
      <trkpt lat="42.71704" lon="1.64453">
        <ele>1715.1</ele>
        <time>2020-02-08T12:26:56Z</time>
      </trkpt>
      <trkpt lat="42.71704" lon="1.64453">
        <ele>1715.1</ele>
        <time>2020-02-08T12:26:57Z</time>
      </trkpt>
      <trkpt lat="42.71704" lon="1.64453">
        <ele>1715.1</ele>
        <time>2020-02-08T12:26:58Z</time>
      </trkpt>
      <trkpt lat="42.71704" lon="1.64453">
        <ele>1715.1</ele>
        <time>2020-02-08T12:26:59Z</time>
      </trkpt>
      <trkpt lat="42.71704" lon="1.64453">
        <ele>1715.1</ele>
        <time>2020-02-08T12:27:00Z</time>
      </trkpt>
      <trkpt lat="42.71704" lon="1.64453">
        <ele>1715.1</ele>
        <time>2020-02-08T12:27:01Z</time>
      </trkpt>
      <trkpt lat="42.71704" lon="1.64453">
        <ele>1715.1</ele>
        <time>2020-02-08T12:27:02Z</time>
      </trkpt>
      <trkpt lat="42.71704" lon="1.64453">
        <ele>1715.1</ele>
        <time>2020-02-08T12:27:03Z</time>
      </trkpt>
      <trkpt lat="42.71704" lon="1.64453">
        <ele>1715.1</ele>
        <time>2020-02-08T12:27:04Z</time>
      </trkpt>
      <trkpt lat="42.71704" lon="1.64453">
        <ele>1715.1</ele>
        <time>2020-02-08T12:27:05Z</time>
      </trkpt>
      <trkpt lat="42.71704" lon="1.64453">
        <ele>1715.1</ele>
        <time>2020-02-08T12:27:06Z</time>
      </trkpt>
      <trkpt lat="42.71704" lon="1.64453">
        <ele>1715.1</ele>
        <time>2020-02-08T12:27:07Z</time>
      </trkpt>
      <trkpt lat="42.71704" lon="1.64453">
        <ele>1715.1</ele>
        <time>2020-02-08T12:27:08Z</time>
      </trkpt>
      <trkpt lat="42.71704" lon="1.64453">
        <ele>1715.1</ele>
        <time>2020-02-08T12:27:09Z</time>
      </trkpt>
      <trkpt lat="42.71704" lon="1.64453">
        <ele>1715.1</ele>
        <time>2020-02-08T12:27:10Z</time>
      </trkpt>
      <trkpt lat="42.71704" lon="1.64453">
        <ele>1715.1</ele>
        <time>2020-02-08T12:27:11Z</time>
      </trkpt>
      <trkpt lat="42.71704" lon="1.64453">
        <ele>1715.1</ele>
        <time>2020-02-08T12:27:12Z</time>
      </trkpt>
      <trkpt lat="42.71704" lon="1.64453">
        <ele>1715.1</ele>
        <time>2020-02-08T12:27:13Z</time>
      </trkpt>
      <trkpt lat="42.71704" lon="1.64453">
        <ele>1715.1</ele>
        <time>2020-02-08T12:27:14Z</time>
      </trkpt>
      <trkpt lat="42.71704" lon="1.64453">
        <ele>1715.1</ele>
        <time>2020-02-08T12:27:15Z</time>
      </trkpt>
      <trkpt lat="42.71704" lon="1.64453">
        <ele>1715.1</ele>
        <time>2020-02-08T12:27:16Z</time>
      </trkpt>
      <trkpt lat="42.71704" lon="1.64453">
        <ele>1715.1</ele>
        <time>2020-02-08T12:27:17Z</time>
      </trkpt>
      <trkpt lat="42.71704" lon="1.64453">
        <ele>1715.1</ele>
        <time>2020-02-08T12:27:18Z</time>
      </trkpt>
      <trkpt lat="42.71704" lon="1.64453">
        <ele>1715.1</ele>
        <time>2020-02-08T12:27:19Z</time>
      </trkpt>
      <trkpt lat="42.71704" lon="1.64453">
        <ele>1715.1</ele>
        <time>2020-02-08T12:27:20Z</time>
      </trkpt>
      <trkpt lat="42.71704" lon="1.64453">
        <ele>1715.1</ele>
        <time>2020-02-08T12:27:21Z</time>
      </trkpt>
      <trkpt lat="42.71704" lon="1.64453">
        <ele>1715.1</ele>
        <time>2020-02-08T12:27:22Z</time>
      </trkpt>
      <trkpt lat="42.71704" lon="1.64453">
        <ele>1715.1</ele>
        <time>2020-02-08T12:27:23Z</time>
      </trkpt>
      <trkpt lat="42.71704" lon="1.64453">
        <ele>1715.1</ele>
        <time>2020-02-08T12:27:24Z</time>
      </trkpt>
      <trkpt lat="42.71704" lon="1.64453">
        <ele>1715.1</ele>
        <time>2020-02-08T12:27:25Z</time>
      </trkpt>
      <trkpt lat="42.71704" lon="1.64453">
        <ele>1715.1</ele>
        <time>2020-02-08T12:27:26Z</time>
      </trkpt>
      <trkpt lat="42.71704" lon="1.64453">
        <ele>1715.1</ele>
        <time>2020-02-08T12:27:27Z</time>
      </trkpt>
      <trkpt lat="42.71704" lon="1.64453">
        <ele>1715.1</ele>
        <time>2020-02-08T12:27:28Z</time>
      </trkpt>
      <trkpt lat="42.71704" lon="1.64453">
        <ele>1715.1</ele>
        <time>2020-02-08T12:27:29Z</time>
      </trkpt>
      <trkpt lat="42.71702" lon="1.64452">
        <ele>1715.1</ele>
        <time>2020-02-08T12:27:30Z</time>
      </trkpt>
      <trkpt lat="42.71702" lon="1.64452">
        <ele>1715.1</ele>
        <time>2020-02-08T12:27:31Z</time>
      </trkpt>
      <trkpt lat="42.71702" lon="1.64452">
        <ele>1715.1</ele>
        <time>2020-02-08T12:27:32Z</time>
      </trkpt>
      <trkpt lat="42.71702" lon="1.64452">
        <ele>1715.1</ele>
        <time>2020-02-08T12:27:33Z</time>
      </trkpt>
      <trkpt lat="42.71702" lon="1.64452">
        <ele>1715.1</ele>
        <time>2020-02-08T12:27:34Z</time>
      </trkpt>
      <trkpt lat="42.71702" lon="1.64452">
        <ele>1715.1</ele>
        <time>2020-02-08T12:27:35Z</time>
      </trkpt>
      <trkpt lat="42.71702" lon="1.64452">
        <ele>1715.1</ele>
        <time>2020-02-08T12:27:36Z</time>
      </trkpt>
      <trkpt lat="42.71702" lon="1.64452">
        <ele>1715.1</ele>
        <time>2020-02-08T12:27:37Z</time>
      </trkpt>
      <trkpt lat="42.71702" lon="1.64452">
        <ele>1715.1</ele>
        <time>2020-02-08T12:27:38Z</time>
      </trkpt>
      <trkpt lat="42.71702" lon="1.64452">
        <ele>1715.1</ele>
        <time>2020-02-08T12:27:39Z</time>
      </trkpt>
      <trkpt lat="42.71702" lon="1.64452">
        <ele>1715.1</ele>
        <time>2020-02-08T12:27:40Z</time>
      </trkpt>
      <trkpt lat="42.71702" lon="1.64452">
        <ele>1715.1</ele>
        <time>2020-02-08T12:27:41Z</time>
      </trkpt>
      <trkpt lat="42.71702" lon="1.64452">
        <ele>1715.1</ele>
        <time>2020-02-08T12:27:42Z</time>
      </trkpt>
      <trkpt lat="42.71702" lon="1.64452">
        <ele>1715.1</ele>
        <time>2020-02-08T12:27:43Z</time>
      </trkpt>
      <trkpt lat="42.71702" lon="1.64452">
        <ele>1715.1</ele>
        <time>2020-02-08T12:27:44Z</time>
      </trkpt>
      <trkpt lat="42.71702" lon="1.64452">
        <ele>1715.1</ele>
        <time>2020-02-08T12:27:45Z</time>
      </trkpt>
      <trkpt lat="42.71702" lon="1.64452">
        <ele>1715.1</ele>
        <time>2020-02-08T12:27:46Z</time>
      </trkpt>
      <trkpt lat="42.71702" lon="1.64452">
        <ele>1715.1</ele>
        <time>2020-02-08T12:27:47Z</time>
      </trkpt>
      <trkpt lat="42.71702" lon="1.64452">
        <ele>1715.1</ele>
        <time>2020-02-08T12:27:48Z</time>
      </trkpt>
      <trkpt lat="42.71702" lon="1.64452">
        <ele>1715.1</ele>
        <time>2020-02-08T12:27:49Z</time>
      </trkpt>
      <trkpt lat="42.71702" lon="1.64452">
        <ele>1715.1</ele>
        <time>2020-02-08T12:27:50Z</time>
      </trkpt>
      <trkpt lat="42.71702" lon="1.64452">
        <ele>1715.1</ele>
        <time>2020-02-08T12:27:51Z</time>
      </trkpt>
      <trkpt lat="42.71702" lon="1.64452">
        <ele>1715.1</ele>
        <time>2020-02-08T12:27:52Z</time>
      </trkpt>
      <trkpt lat="42.71702" lon="1.64452">
        <ele>1715.1</ele>
        <time>2020-02-08T12:27:53Z</time>
      </trkpt>
      <trkpt lat="42.71702" lon="1.64452">
        <ele>1715.1</ele>
        <time>2020-02-08T12:27:54Z</time>
      </trkpt>
      <trkpt lat="42.71702" lon="1.64452">
        <ele>1715.1</ele>
        <time>2020-02-08T12:27:55Z</time>
      </trkpt>
      <trkpt lat="42.71702" lon="1.64452">
        <ele>1715.1</ele>
        <time>2020-02-08T12:27:56Z</time>
      </trkpt>
      <trkpt lat="42.71702" lon="1.64452">
        <ele>1715.1</ele>
        <time>2020-02-08T12:27:57Z</time>
      </trkpt>
      <trkpt lat="42.71702" lon="1.64452">
        <ele>1715.1</ele>
        <time>2020-02-08T12:27:58Z</time>
      </trkpt>
      <trkpt lat="42.71702" lon="1.64452">
        <ele>1715.1</ele>
        <time>2020-02-08T12:27:59Z</time>
      </trkpt>
      <trkpt lat="42.71702" lon="1.64452">
        <ele>1715.1</ele>
        <time>2020-02-08T12:28:00Z</time>
      </trkpt>
      <trkpt lat="42.71702" lon="1.64452">
        <ele>1715.1</ele>
        <time>2020-02-08T12:28:01Z</time>
      </trkpt>
      <trkpt lat="42.71702" lon="1.64452">
        <ele>1715.1</ele>
        <time>2020-02-08T12:28:02Z</time>
      </trkpt>
      <trkpt lat="42.71702" lon="1.64452">
        <ele>1715.1</ele>
        <time>2020-02-08T12:28:03Z</time>
      </trkpt>
      <trkpt lat="42.71702" lon="1.64452">
        <ele>1715.1</ele>
        <time>2020-02-08T12:28:04Z</time>
      </trkpt>
      <trkpt lat="42.71702" lon="1.64452">
        <ele>1715.1</ele>
        <time>2020-02-08T12:28:05Z</time>
      </trkpt>
      <trkpt lat="42.71702" lon="1.64452">
        <ele>1715.1</ele>
        <time>2020-02-08T12:28:06Z</time>
      </trkpt>
      <trkpt lat="42.71702" lon="1.64452">
        <ele>1715.1</ele>
        <time>2020-02-08T12:28:07Z</time>
      </trkpt>
      <trkpt lat="42.71702" lon="1.64452">
        <ele>1715.1</ele>
        <time>2020-02-08T12:28:08Z</time>
      </trkpt>
      <trkpt lat="42.71702" lon="1.64452">
        <ele>1715.1</ele>
        <time>2020-02-08T12:28:09Z</time>
      </trkpt>
      <trkpt lat="42.71702" lon="1.64452">
        <ele>1715.1</ele>
        <time>2020-02-08T12:28:10Z</time>
      </trkpt>
      <trkpt lat="42.71702" lon="1.64452">
        <ele>1715.1</ele>
        <time>2020-02-08T12:28:11Z</time>
      </trkpt>
      <trkpt lat="42.71702" lon="1.64452">
        <ele>1715.1</ele>
        <time>2020-02-08T12:28:12Z</time>
      </trkpt>
      <trkpt lat="42.71702" lon="1.64452">
        <ele>1715.1</ele>
        <time>2020-02-08T12:28:13Z</time>
      </trkpt>
      <trkpt lat="42.71702" lon="1.64452">
        <ele>1715.1</ele>
        <time>2020-02-08T12:28:14Z</time>
      </trkpt>
      <trkpt lat="42.71702" lon="1.64452">
        <ele>1715.1</ele>
        <time>2020-02-08T12:28:15Z</time>
      </trkpt>
      <trkpt lat="42.71702" lon="1.64452">
        <ele>1715.1</ele>
        <time>2020-02-08T12:28:16Z</time>
      </trkpt>
      <trkpt lat="42.71702" lon="1.64452">
        <ele>1715.1</ele>
        <time>2020-02-08T12:28:17Z</time>
      </trkpt>
      <trkpt lat="42.71702" lon="1.64452">
        <ele>1715.1</ele>
        <time>2020-02-08T12:28:18Z</time>
      </trkpt>
      <trkpt lat="42.71702" lon="1.64452">
        <ele>1715.1</ele>
        <time>2020-02-08T12:28:19Z</time>
      </trkpt>
      <trkpt lat="42.71702" lon="1.64452">
        <ele>1715.1</ele>
        <time>2020-02-08T12:28:20Z</time>
      </trkpt>
      <trkpt lat="42.71702" lon="1.64452">
        <ele>1715.1</ele>
        <time>2020-02-08T12:28:21Z</time>
      </trkpt>
      <trkpt lat="42.71702" lon="1.64452">
        <ele>1715.1</ele>
        <time>2020-02-08T12:28:22Z</time>
      </trkpt>
      <trkpt lat="42.71702" lon="1.64452">
        <ele>1715.1</ele>
        <time>2020-02-08T12:28:23Z</time>
      </trkpt>
      <trkpt lat="42.71702" lon="1.64452">
        <ele>1715.1</ele>
        <time>2020-02-08T12:28:24Z</time>
      </trkpt>
      <trkpt lat="42.71702" lon="1.64452">
        <ele>1715.1</ele>
        <time>2020-02-08T12:28:25Z</time>
      </trkpt>
      <trkpt lat="42.71702" lon="1.64452">
        <ele>1715.1</ele>
        <time>2020-02-08T12:28:26Z</time>
      </trkpt>
      <trkpt lat="42.71702" lon="1.64452">
        <ele>1715.1</ele>
        <time>2020-02-08T12:28:27Z</time>
      </trkpt>
      <trkpt lat="42.71702" lon="1.64452">
        <ele>1715.1</ele>
        <time>2020-02-08T12:28:28Z</time>
      </trkpt>
      <trkpt lat="42.71702" lon="1.64452">
        <ele>1715.1</ele>
        <time>2020-02-08T12:28:29Z</time>
      </trkpt>
      <trkpt lat="42.71702" lon="1.64452">
        <ele>1715.1</ele>
        <time>2020-02-08T12:28:30Z</time>
      </trkpt>
      <trkpt lat="42.71702" lon="1.64452">
        <ele>1715.1</ele>
        <time>2020-02-08T12:28:31Z</time>
      </trkpt>
      <trkpt lat="42.71702" lon="1.64452">
        <ele>1715.1</ele>
        <time>2020-02-08T12:28:32Z</time>
      </trkpt>
      <trkpt lat="42.71702" lon="1.64452">
        <ele>1715.1</ele>
        <time>2020-02-08T12:28:33Z</time>
      </trkpt>
      <trkpt lat="42.71702" lon="1.64452">
        <ele>1715.1</ele>
        <time>2020-02-08T12:28:34Z</time>
      </trkpt>
      <trkpt lat="42.71702" lon="1.64452">
        <ele>1715.1</ele>
        <time>2020-02-08T12:28:35Z</time>
      </trkpt>
      <trkpt lat="42.71702" lon="1.64452">
        <ele>1715.1</ele>
        <time>2020-02-08T12:28:36Z</time>
      </trkpt>
      <trkpt lat="42.71702" lon="1.64452">
        <ele>1715.1</ele>
        <time>2020-02-08T12:28:37Z</time>
      </trkpt>
      <trkpt lat="42.71702" lon="1.64452">
        <ele>1715.1</ele>
        <time>2020-02-08T12:28:38Z</time>
      </trkpt>
      <trkpt lat="42.71702" lon="1.64452">
        <ele>1715.1</ele>
        <time>2020-02-08T12:28:39Z</time>
      </trkpt>
      <trkpt lat="42.71702" lon="1.64452">
        <ele>1715.1</ele>
        <time>2020-02-08T12:28:40Z</time>
      </trkpt>
      <trkpt lat="42.71702" lon="1.64452">
        <ele>1715.1</ele>
        <time>2020-02-08T12:28:41Z</time>
      </trkpt>
      <trkpt lat="42.71702" lon="1.64452">
        <ele>1715.1</ele>
        <time>2020-02-08T12:28:42Z</time>
      </trkpt>
      <trkpt lat="42.71702" lon="1.64452">
        <ele>1715.1</ele>
        <time>2020-02-08T12:28:43Z</time>
      </trkpt>
      <trkpt lat="42.71702" lon="1.64452">
        <ele>1715.1</ele>
        <time>2020-02-08T12:28:44Z</time>
      </trkpt>
      <trkpt lat="42.71702" lon="1.64452">
        <ele>1715.1</ele>
        <time>2020-02-08T12:28:45Z</time>
      </trkpt>
      <trkpt lat="42.71702" lon="1.64452">
        <ele>1715.1</ele>
        <time>2020-02-08T12:28:46Z</time>
      </trkpt>
      <trkpt lat="42.71702" lon="1.64452">
        <ele>1715.1</ele>
        <time>2020-02-08T12:28:47Z</time>
      </trkpt>
      <trkpt lat="42.71702" lon="1.64452">
        <ele>1715.1</ele>
        <time>2020-02-08T12:28:48Z</time>
      </trkpt>
      <trkpt lat="42.71702" lon="1.64452">
        <ele>1715.1</ele>
        <time>2020-02-08T12:28:49Z</time>
      </trkpt>
      <trkpt lat="42.71702" lon="1.64452">
        <ele>1715.1</ele>
        <time>2020-02-08T12:28:50Z</time>
      </trkpt>
      <trkpt lat="42.71702" lon="1.64452">
        <ele>1715.1</ele>
        <time>2020-02-08T12:28:51Z</time>
      </trkpt>
      <trkpt lat="42.71702" lon="1.64452">
        <ele>1715.1</ele>
        <time>2020-02-08T12:28:52Z</time>
      </trkpt>
      <trkpt lat="42.71702" lon="1.64452">
        <ele>1715.1</ele>
        <time>2020-02-08T12:28:53Z</time>
      </trkpt>
      <trkpt lat="42.71702" lon="1.64452">
        <ele>1715.1</ele>
        <time>2020-02-08T12:28:54Z</time>
      </trkpt>
      <trkpt lat="42.71702" lon="1.64452">
        <ele>1715.1</ele>
        <time>2020-02-08T12:28:55Z</time>
      </trkpt>
      <trkpt lat="42.71702" lon="1.64452">
        <ele>1715.1</ele>
        <time>2020-02-08T12:28:56Z</time>
      </trkpt>
      <trkpt lat="42.71702" lon="1.64452">
        <ele>1715.1</ele>
        <time>2020-02-08T12:28:57Z</time>
      </trkpt>
      <trkpt lat="42.71702" lon="1.64452">
        <ele>1715.1</ele>
        <time>2020-02-08T12:28:58Z</time>
      </trkpt>
      <trkpt lat="42.71702" lon="1.64452">
        <ele>1715.1</ele>
        <time>2020-02-08T12:28:59Z</time>
      </trkpt>
      <trkpt lat="42.71702" lon="1.64452">
        <ele>1715.1</ele>
        <time>2020-02-08T12:29:00Z</time>
      </trkpt>
      <trkpt lat="42.71702" lon="1.64452">
        <ele>1715.1</ele>
        <time>2020-02-08T12:29:01Z</time>
      </trkpt>
      <trkpt lat="42.71702" lon="1.64452">
        <ele>1715.1</ele>
        <time>2020-02-08T12:29:02Z</time>
      </trkpt>
      <trkpt lat="42.71702" lon="1.64452">
        <ele>1715.1</ele>
        <time>2020-02-08T12:29:03Z</time>
      </trkpt>
      <trkpt lat="42.71702" lon="1.64452">
        <ele>1715.1</ele>
        <time>2020-02-08T12:29:04Z</time>
      </trkpt>
      <trkpt lat="42.71702" lon="1.64452">
        <ele>1715.1</ele>
        <time>2020-02-08T12:29:05Z</time>
      </trkpt>
      <trkpt lat="42.71702" lon="1.64452">
        <ele>1715.1</ele>
        <time>2020-02-08T12:29:06Z</time>
      </trkpt>
      <trkpt lat="42.71702" lon="1.64452">
        <ele>1715.1</ele>
        <time>2020-02-08T12:29:07Z</time>
      </trkpt>
      <trkpt lat="42.71702" lon="1.64452">
        <ele>1715.1</ele>
        <time>2020-02-08T12:29:08Z</time>
      </trkpt>
      <trkpt lat="42.71702" lon="1.64452">
        <ele>1715.1</ele>
        <time>2020-02-08T12:29:09Z</time>
      </trkpt>
      <trkpt lat="42.71702" lon="1.64452">
        <ele>1715.1</ele>
        <time>2020-02-08T12:29:10Z</time>
      </trkpt>
      <trkpt lat="42.71702" lon="1.64452">
        <ele>1715.1</ele>
        <time>2020-02-08T12:29:11Z</time>
      </trkpt>
      <trkpt lat="42.71702" lon="1.64452">
        <ele>1715.1</ele>
        <time>2020-02-08T12:29:12Z</time>
      </trkpt>
      <trkpt lat="42.71702" lon="1.64452">
        <ele>1715.1</ele>
        <time>2020-02-08T12:29:13Z</time>
      </trkpt>
      <trkpt lat="42.71702" lon="1.64452">
        <ele>1715.1</ele>
        <time>2020-02-08T12:29:14Z</time>
      </trkpt>
      <trkpt lat="42.71702" lon="1.64452">
        <ele>1715.1</ele>
        <time>2020-02-08T12:29:15Z</time>
      </trkpt>
      <trkpt lat="42.71702" lon="1.64452">
        <ele>1715.1</ele>
        <time>2020-02-08T12:29:16Z</time>
      </trkpt>
      <trkpt lat="42.71702" lon="1.64452">
        <ele>1715.1</ele>
        <time>2020-02-08T12:29:17Z</time>
      </trkpt>
      <trkpt lat="42.71702" lon="1.64452">
        <ele>1715.1</ele>
        <time>2020-02-08T12:29:18Z</time>
      </trkpt>
      <trkpt lat="42.71702" lon="1.64452">
        <ele>1715.1</ele>
        <time>2020-02-08T12:29:19Z</time>
      </trkpt>
      <trkpt lat="42.71702" lon="1.64452">
        <ele>1715.1</ele>
        <time>2020-02-08T12:29:20Z</time>
      </trkpt>
      <trkpt lat="42.71702" lon="1.64452">
        <ele>1715.1</ele>
        <time>2020-02-08T12:29:21Z</time>
      </trkpt>
      <trkpt lat="42.71702" lon="1.64452">
        <ele>1715.1</ele>
        <time>2020-02-08T12:29:22Z</time>
      </trkpt>
      <trkpt lat="42.71702" lon="1.64452">
        <ele>1715.1</ele>
        <time>2020-02-08T12:29:23Z</time>
      </trkpt>
      <trkpt lat="42.71702" lon="1.64452">
        <ele>1715.1</ele>
        <time>2020-02-08T12:29:24Z</time>
      </trkpt>
      <trkpt lat="42.71702" lon="1.64452">
        <ele>1715.1</ele>
        <time>2020-02-08T12:29:25Z</time>
      </trkpt>
      <trkpt lat="42.71702" lon="1.64452">
        <ele>1715.1</ele>
        <time>2020-02-08T12:29:26Z</time>
      </trkpt>
      <trkpt lat="42.71702" lon="1.64452">
        <ele>1715.1</ele>
        <time>2020-02-08T12:29:27Z</time>
      </trkpt>
      <trkpt lat="42.71702" lon="1.64452">
        <ele>1715.1</ele>
        <time>2020-02-08T12:29:28Z</time>
      </trkpt>
      <trkpt lat="42.71702" lon="1.64452">
        <ele>1715.1</ele>
        <time>2020-02-08T12:29:29Z</time>
      </trkpt>
      <trkpt lat="42.71702" lon="1.64452">
        <ele>1715.1</ele>
        <time>2020-02-08T12:29:30Z</time>
      </trkpt>
      <trkpt lat="42.71702" lon="1.64452">
        <ele>1715.1</ele>
        <time>2020-02-08T12:29:31Z</time>
      </trkpt>
      <trkpt lat="42.71702" lon="1.64452">
        <ele>1715.1</ele>
        <time>2020-02-08T12:29:32Z</time>
      </trkpt>
      <trkpt lat="42.71702" lon="1.64452">
        <ele>1715.1</ele>
        <time>2020-02-08T12:29:33Z</time>
      </trkpt>
      <trkpt lat="42.71702" lon="1.64452">
        <ele>1715.1</ele>
        <time>2020-02-08T12:29:34Z</time>
      </trkpt>
      <trkpt lat="42.71702" lon="1.64452">
        <ele>1715.1</ele>
        <time>2020-02-08T12:29:35Z</time>
      </trkpt>
      <trkpt lat="42.71702" lon="1.64452">
        <ele>1715.1</ele>
        <time>2020-02-08T12:29:36Z</time>
      </trkpt>
      <trkpt lat="42.71702" lon="1.64452">
        <ele>1715.1</ele>
        <time>2020-02-08T12:29:37Z</time>
      </trkpt>
      <trkpt lat="42.71702" lon="1.64452">
        <ele>1715.1</ele>
        <time>2020-02-08T12:29:38Z</time>
      </trkpt>
      <trkpt lat="42.71702" lon="1.64452">
        <ele>1715.1</ele>
        <time>2020-02-08T12:29:39Z</time>
      </trkpt>
      <trkpt lat="42.71702" lon="1.64452">
        <ele>1715.1</ele>
        <time>2020-02-08T12:29:40Z</time>
      </trkpt>
      <trkpt lat="42.71702" lon="1.64452">
        <ele>1715.1</ele>
        <time>2020-02-08T12:29:41Z</time>
      </trkpt>
      <trkpt lat="42.71702" lon="1.64452">
        <ele>1715.1</ele>
        <time>2020-02-08T12:29:42Z</time>
      </trkpt>
      <trkpt lat="42.71702" lon="1.64452">
        <ele>1715.1</ele>
        <time>2020-02-08T12:29:43Z</time>
      </trkpt>
      <trkpt lat="42.71702" lon="1.64452">
        <ele>1715.1</ele>
        <time>2020-02-08T12:29:44Z</time>
      </trkpt>
      <trkpt lat="42.71702" lon="1.64452">
        <ele>1715.1</ele>
        <time>2020-02-08T12:29:45Z</time>
      </trkpt>
      <trkpt lat="42.71702" lon="1.64452">
        <ele>1715.1</ele>
        <time>2020-02-08T12:29:46Z</time>
      </trkpt>
      <trkpt lat="42.71702" lon="1.64452">
        <ele>1715.1</ele>
        <time>2020-02-08T12:29:47Z</time>
      </trkpt>
      <trkpt lat="42.71702" lon="1.64452">
        <ele>1715.1</ele>
        <time>2020-02-08T12:29:48Z</time>
      </trkpt>
      <trkpt lat="42.71702" lon="1.64452">
        <ele>1715.1</ele>
        <time>2020-02-08T12:29:49Z</time>
      </trkpt>
      <trkpt lat="42.71702" lon="1.64452">
        <ele>1715.1</ele>
        <time>2020-02-08T12:29:50Z</time>
      </trkpt>
      <trkpt lat="42.71702" lon="1.64452">
        <ele>1715.1</ele>
        <time>2020-02-08T12:29:51Z</time>
      </trkpt>
      <trkpt lat="42.71702" lon="1.64452">
        <ele>1715.1</ele>
        <time>2020-02-08T12:29:52Z</time>
      </trkpt>
      <trkpt lat="42.71702" lon="1.64452">
        <ele>1715.1</ele>
        <time>2020-02-08T12:29:53Z</time>
      </trkpt>
      <trkpt lat="42.71702" lon="1.64452">
        <ele>1715.1</ele>
        <time>2020-02-08T12:29:54Z</time>
      </trkpt>
      <trkpt lat="42.71702" lon="1.64452">
        <ele>1715.1</ele>
        <time>2020-02-08T12:29:55Z</time>
      </trkpt>
      <trkpt lat="42.71702" lon="1.64452">
        <ele>1715.1</ele>
        <time>2020-02-08T12:29:56Z</time>
      </trkpt>
      <trkpt lat="42.71702" lon="1.64452">
        <ele>1715.1</ele>
        <time>2020-02-08T12:29:57Z</time>
      </trkpt>
      <trkpt lat="42.71702" lon="1.64452">
        <ele>1715.1</ele>
        <time>2020-02-08T12:29:58Z</time>
      </trkpt>
      <trkpt lat="42.71702" lon="1.64452">
        <ele>1715.1</ele>
        <time>2020-02-08T12:29:59Z</time>
      </trkpt>
      <trkpt lat="42.71702" lon="1.64452">
        <ele>1715.1</ele>
        <time>2020-02-08T12:30:00Z</time>
      </trkpt>
      <trkpt lat="42.71702" lon="1.64452">
        <ele>1715.1</ele>
        <time>2020-02-08T12:30:01Z</time>
      </trkpt>
      <trkpt lat="42.71702" lon="1.64452">
        <ele>1715.1</ele>
        <time>2020-02-08T12:30:02Z</time>
      </trkpt>
      <trkpt lat="42.71702" lon="1.64452">
        <ele>1715.1</ele>
        <time>2020-02-08T12:30:03Z</time>
      </trkpt>
      <trkpt lat="42.71702" lon="1.64452">
        <ele>1715.1</ele>
        <time>2020-02-08T12:30:04Z</time>
      </trkpt>
      <trkpt lat="42.71702" lon="1.64452">
        <ele>1715.1</ele>
        <time>2020-02-08T12:30:05Z</time>
      </trkpt>
      <trkpt lat="42.71702" lon="1.64452">
        <ele>1715.1</ele>
        <time>2020-02-08T12:30:06Z</time>
      </trkpt>
      <trkpt lat="42.71702" lon="1.64452">
        <ele>1715.1</ele>
        <time>2020-02-08T12:30:07Z</time>
      </trkpt>
      <trkpt lat="42.71702" lon="1.64452">
        <ele>1715.1</ele>
        <time>2020-02-08T12:30:08Z</time>
      </trkpt>
      <trkpt lat="42.71702" lon="1.64452">
        <ele>1715.1</ele>
        <time>2020-02-08T12:30:09Z</time>
      </trkpt>
      <trkpt lat="42.71702" lon="1.64452">
        <ele>1715.1</ele>
        <time>2020-02-08T12:30:10Z</time>
      </trkpt>
      <trkpt lat="42.71702" lon="1.64452">
        <ele>1715.1</ele>
        <time>2020-02-08T12:30:11Z</time>
      </trkpt>
      <trkpt lat="42.71702" lon="1.64452">
        <ele>1715.1</ele>
        <time>2020-02-08T12:30:12Z</time>
      </trkpt>
      <trkpt lat="42.71702" lon="1.64452">
        <ele>1715.1</ele>
        <time>2020-02-08T12:30:13Z</time>
      </trkpt>
      <trkpt lat="42.71702" lon="1.64452">
        <ele>1715.1</ele>
        <time>2020-02-08T12:30:14Z</time>
      </trkpt>
      <trkpt lat="42.71702" lon="1.64452">
        <ele>1715.1</ele>
        <time>2020-02-08T12:30:15Z</time>
      </trkpt>
      <trkpt lat="42.71702" lon="1.64452">
        <ele>1715.1</ele>
        <time>2020-02-08T12:30:16Z</time>
      </trkpt>
      <trkpt lat="42.71702" lon="1.64452">
        <ele>1715.1</ele>
        <time>2020-02-08T12:30:17Z</time>
      </trkpt>
      <trkpt lat="42.71702" lon="1.64452">
        <ele>1715.1</ele>
        <time>2020-02-08T12:30:18Z</time>
      </trkpt>
      <trkpt lat="42.71702" lon="1.64452">
        <ele>1715.1</ele>
        <time>2020-02-08T12:30:19Z</time>
      </trkpt>
      <trkpt lat="42.71702" lon="1.64452">
        <ele>1715.1</ele>
        <time>2020-02-08T12:30:20Z</time>
      </trkpt>
      <trkpt lat="42.71702" lon="1.64452">
        <ele>1715.1</ele>
        <time>2020-02-08T12:30:21Z</time>
      </trkpt>
      <trkpt lat="42.71702" lon="1.64452">
        <ele>1715.1</ele>
        <time>2020-02-08T12:30:22Z</time>
      </trkpt>
      <trkpt lat="42.71702" lon="1.64452">
        <ele>1715.1</ele>
        <time>2020-02-08T12:30:23Z</time>
      </trkpt>
      <trkpt lat="42.71702" lon="1.64452">
        <ele>1715.1</ele>
        <time>2020-02-08T12:30:24Z</time>
      </trkpt>
      <trkpt lat="42.71702" lon="1.64452">
        <ele>1715.1</ele>
        <time>2020-02-08T12:30:25Z</time>
      </trkpt>
      <trkpt lat="42.71702" lon="1.64452">
        <ele>1715.1</ele>
        <time>2020-02-08T12:30:26Z</time>
      </trkpt>
      <trkpt lat="42.71702" lon="1.64452">
        <ele>1715.1</ele>
        <time>2020-02-08T12:30:27Z</time>
      </trkpt>
      <trkpt lat="42.71702" lon="1.64452">
        <ele>1715.1</ele>
        <time>2020-02-08T12:30:28Z</time>
      </trkpt>
      <trkpt lat="42.71702" lon="1.64452">
        <ele>1715.1</ele>
        <time>2020-02-08T12:30:29Z</time>
      </trkpt>
      <trkpt lat="42.71702" lon="1.64452">
        <ele>1715.1</ele>
        <time>2020-02-08T12:30:30Z</time>
      </trkpt>
      <trkpt lat="42.71702" lon="1.64452">
        <ele>1715.1</ele>
        <time>2020-02-08T12:30:31Z</time>
      </trkpt>
      <trkpt lat="42.71702" lon="1.64452">
        <ele>1715.1</ele>
        <time>2020-02-08T12:30:32Z</time>
      </trkpt>
      <trkpt lat="42.71702" lon="1.64452">
        <ele>1715.1</ele>
        <time>2020-02-08T12:30:33Z</time>
      </trkpt>
      <trkpt lat="42.71702" lon="1.64452">
        <ele>1715.1</ele>
        <time>2020-02-08T12:30:34Z</time>
      </trkpt>
      <trkpt lat="42.71702" lon="1.64452">
        <ele>1715.1</ele>
        <time>2020-02-08T12:30:35Z</time>
      </trkpt>
      <trkpt lat="42.71702" lon="1.64452">
        <ele>1715.1</ele>
        <time>2020-02-08T12:30:36Z</time>
      </trkpt>
      <trkpt lat="42.71702" lon="1.64452">
        <ele>1715.1</ele>
        <time>2020-02-08T12:30:37Z</time>
      </trkpt>
      <trkpt lat="42.71702" lon="1.64452">
        <ele>1715.1</ele>
        <time>2020-02-08T12:30:38Z</time>
      </trkpt>
      <trkpt lat="42.71702" lon="1.64452">
        <ele>1715.1</ele>
        <time>2020-02-08T12:30:39Z</time>
      </trkpt>
      <trkpt lat="42.71702" lon="1.64452">
        <ele>1715.1</ele>
        <time>2020-02-08T12:30:40Z</time>
      </trkpt>
      <trkpt lat="42.71702" lon="1.64452">
        <ele>1715.1</ele>
        <time>2020-02-08T12:30:41Z</time>
      </trkpt>
      <trkpt lat="42.71702" lon="1.64452">
        <ele>1715.1</ele>
        <time>2020-02-08T12:30:42Z</time>
      </trkpt>
      <trkpt lat="42.71702" lon="1.64452">
        <ele>1715.1</ele>
        <time>2020-02-08T12:30:43Z</time>
      </trkpt>
      <trkpt lat="42.71702" lon="1.64452">
        <ele>1715.1</ele>
        <time>2020-02-08T12:30:44Z</time>
      </trkpt>
      <trkpt lat="42.71702" lon="1.64452">
        <ele>1715.1</ele>
        <time>2020-02-08T12:30:45Z</time>
      </trkpt>
      <trkpt lat="42.71702" lon="1.64452">
        <ele>1715.1</ele>
        <time>2020-02-08T12:30:46Z</time>
      </trkpt>
      <trkpt lat="42.71702" lon="1.64452">
        <ele>1715.1</ele>
        <time>2020-02-08T12:30:47Z</time>
      </trkpt>
      <trkpt lat="42.71702" lon="1.64452">
        <ele>1715.1</ele>
        <time>2020-02-08T12:30:48Z</time>
      </trkpt>
      <trkpt lat="42.71702" lon="1.64452">
        <ele>1715.1</ele>
        <time>2020-02-08T12:30:49Z</time>
      </trkpt>
      <trkpt lat="42.71702" lon="1.64452">
        <ele>1715.1</ele>
        <time>2020-02-08T12:30:50Z</time>
      </trkpt>
      <trkpt lat="42.71702" lon="1.64452">
        <ele>1715.1</ele>
        <time>2020-02-08T12:30:51Z</time>
      </trkpt>
      <trkpt lat="42.71702" lon="1.64452">
        <ele>1715.1</ele>
        <time>2020-02-08T12:30:52Z</time>
      </trkpt>
      <trkpt lat="42.71702" lon="1.64452">
        <ele>1715.1</ele>
        <time>2020-02-08T12:30:53Z</time>
      </trkpt>
      <trkpt lat="42.71702" lon="1.64452">
        <ele>1715.1</ele>
        <time>2020-02-08T12:30:54Z</time>
      </trkpt>
      <trkpt lat="42.71702" lon="1.64452">
        <ele>1715.1</ele>
        <time>2020-02-08T12:30:55Z</time>
      </trkpt>
      <trkpt lat="42.71702" lon="1.64452">
        <ele>1715.1</ele>
        <time>2020-02-08T12:30:56Z</time>
      </trkpt>
      <trkpt lat="42.71702" lon="1.64452">
        <ele>1715.1</ele>
        <time>2020-02-08T12:30:57Z</time>
      </trkpt>
      <trkpt lat="42.71702" lon="1.64452">
        <ele>1715.1</ele>
        <time>2020-02-08T12:30:58Z</time>
      </trkpt>
      <trkpt lat="42.71702" lon="1.64452">
        <ele>1715.1</ele>
        <time>2020-02-08T12:30:59Z</time>
      </trkpt>
      <trkpt lat="42.71702" lon="1.64452">
        <ele>1715.1</ele>
        <time>2020-02-08T12:31:00Z</time>
      </trkpt>
      <trkpt lat="42.71702" lon="1.64452">
        <ele>1715.1</ele>
        <time>2020-02-08T12:31:01Z</time>
      </trkpt>
      <trkpt lat="42.71702" lon="1.64452">
        <ele>1715.1</ele>
        <time>2020-02-08T12:31:02Z</time>
      </trkpt>
      <trkpt lat="42.71702" lon="1.64452">
        <ele>1715.1</ele>
        <time>2020-02-08T12:31:03Z</time>
      </trkpt>
      <trkpt lat="42.71702" lon="1.64452">
        <ele>1715.1</ele>
        <time>2020-02-08T12:31:04Z</time>
      </trkpt>
      <trkpt lat="42.71702" lon="1.64452">
        <ele>1715.1</ele>
        <time>2020-02-08T12:31:05Z</time>
      </trkpt>
      <trkpt lat="42.71702" lon="1.64452">
        <ele>1715.1</ele>
        <time>2020-02-08T12:31:06Z</time>
      </trkpt>
      <trkpt lat="42.71702" lon="1.64452">
        <ele>1715.1</ele>
        <time>2020-02-08T12:31:07Z</time>
      </trkpt>
      <trkpt lat="42.71702" lon="1.64452">
        <ele>1715.1</ele>
        <time>2020-02-08T12:31:08Z</time>
      </trkpt>
      <trkpt lat="42.71702" lon="1.64452">
        <ele>1715.1</ele>
        <time>2020-02-08T12:31:09Z</time>
      </trkpt>
      <trkpt lat="42.71702" lon="1.64452">
        <ele>1715.1</ele>
        <time>2020-02-08T12:31:10Z</time>
      </trkpt>
      <trkpt lat="42.71702" lon="1.64452">
        <ele>1715.1</ele>
        <time>2020-02-08T12:31:11Z</time>
      </trkpt>
      <trkpt lat="42.71702" lon="1.64452">
        <ele>1715.1</ele>
        <time>2020-02-08T12:31:12Z</time>
      </trkpt>
      <trkpt lat="42.71702" lon="1.64452">
        <ele>1715.1</ele>
        <time>2020-02-08T12:31:13Z</time>
      </trkpt>
      <trkpt lat="42.71702" lon="1.64452">
        <ele>1715.1</ele>
        <time>2020-02-08T12:31:14Z</time>
      </trkpt>
      <trkpt lat="42.71702" lon="1.64452">
        <ele>1715.1</ele>
        <time>2020-02-08T12:31:15Z</time>
      </trkpt>
      <trkpt lat="42.71702" lon="1.64452">
        <ele>1715.1</ele>
        <time>2020-02-08T12:31:16Z</time>
      </trkpt>
      <trkpt lat="42.71702" lon="1.64452">
        <ele>1715.1</ele>
        <time>2020-02-08T12:31:17Z</time>
      </trkpt>
      <trkpt lat="42.71702" lon="1.64452">
        <ele>1715.1</ele>
        <time>2020-02-08T12:31:18Z</time>
      </trkpt>
      <trkpt lat="42.71702" lon="1.64452">
        <ele>1715.1</ele>
        <time>2020-02-08T12:31:19Z</time>
      </trkpt>
      <trkpt lat="42.71702" lon="1.64452">
        <ele>1715.1</ele>
        <time>2020-02-08T12:31:20Z</time>
      </trkpt>
      <trkpt lat="42.71702" lon="1.64452">
        <ele>1715.1</ele>
        <time>2020-02-08T12:31:21Z</time>
      </trkpt>
      <trkpt lat="42.71702" lon="1.64452">
        <ele>1715.1</ele>
        <time>2020-02-08T12:31:22Z</time>
      </trkpt>
      <trkpt lat="42.71702" lon="1.64452">
        <ele>1715.1</ele>
        <time>2020-02-08T12:31:23Z</time>
      </trkpt>
      <trkpt lat="42.71702" lon="1.64452">
        <ele>1715.1</ele>
        <time>2020-02-08T12:31:24Z</time>
      </trkpt>
      <trkpt lat="42.71702" lon="1.64452">
        <ele>1715.1</ele>
        <time>2020-02-08T12:31:25Z</time>
      </trkpt>
      <trkpt lat="42.71702" lon="1.64452">
        <ele>1715.1</ele>
        <time>2020-02-08T12:31:26Z</time>
      </trkpt>
      <trkpt lat="42.71702" lon="1.64452">
        <ele>1715.1</ele>
        <time>2020-02-08T12:31:27Z</time>
      </trkpt>
      <trkpt lat="42.71702" lon="1.64452">
        <ele>1715.1</ele>
        <time>2020-02-08T12:31:28Z</time>
      </trkpt>
      <trkpt lat="42.71702" lon="1.64452">
        <ele>1715.1</ele>
        <time>2020-02-08T12:31:29Z</time>
      </trkpt>
      <trkpt lat="42.71702" lon="1.64452">
        <ele>1715.1</ele>
        <time>2020-02-08T12:31:30Z</time>
      </trkpt>
      <trkpt lat="42.71702" lon="1.64452">
        <ele>1715.1</ele>
        <time>2020-02-08T12:31:31Z</time>
      </trkpt>
      <trkpt lat="42.71702" lon="1.64452">
        <ele>1715.1</ele>
        <time>2020-02-08T12:31:32Z</time>
      </trkpt>
      <trkpt lat="42.71702" lon="1.64452">
        <ele>1715.1</ele>
        <time>2020-02-08T12:31:33Z</time>
      </trkpt>
      <trkpt lat="42.71702" lon="1.64452">
        <ele>1715.1</ele>
        <time>2020-02-08T12:31:34Z</time>
      </trkpt>
      <trkpt lat="42.71702" lon="1.64452">
        <ele>1715.1</ele>
        <time>2020-02-08T12:31:35Z</time>
      </trkpt>
      <trkpt lat="42.71702" lon="1.64452">
        <ele>1715.1</ele>
        <time>2020-02-08T12:31:36Z</time>
      </trkpt>
      <trkpt lat="42.71702" lon="1.64452">
        <ele>1715.1</ele>
        <time>2020-02-08T12:31:37Z</time>
      </trkpt>
      <trkpt lat="42.71702" lon="1.64452">
        <ele>1715.1</ele>
        <time>2020-02-08T12:31:38Z</time>
      </trkpt>
      <trkpt lat="42.71702" lon="1.64452">
        <ele>1715.1</ele>
        <time>2020-02-08T12:31:39Z</time>
      </trkpt>
      <trkpt lat="42.71702" lon="1.64452">
        <ele>1715.1</ele>
        <time>2020-02-08T12:31:40Z</time>
      </trkpt>
      <trkpt lat="42.71702" lon="1.64452">
        <ele>1715.1</ele>
        <time>2020-02-08T12:31:41Z</time>
      </trkpt>
      <trkpt lat="42.71702" lon="1.64452">
        <ele>1715.1</ele>
        <time>2020-02-08T12:31:42Z</time>
      </trkpt>
      <trkpt lat="42.71702" lon="1.64452">
        <ele>1715.1</ele>
        <time>2020-02-08T12:31:43Z</time>
      </trkpt>
      <trkpt lat="42.71702" lon="1.64452">
        <ele>1715.1</ele>
        <time>2020-02-08T12:31:44Z</time>
      </trkpt>
      <trkpt lat="42.71702" lon="1.64452">
        <ele>1715.1</ele>
        <time>2020-02-08T12:31:45Z</time>
      </trkpt>
      <trkpt lat="42.71702" lon="1.64452">
        <ele>1715.1</ele>
        <time>2020-02-08T12:31:46Z</time>
      </trkpt>
      <trkpt lat="42.71702" lon="1.64452">
        <ele>1715.1</ele>
        <time>2020-02-08T12:31:47Z</time>
      </trkpt>
      <trkpt lat="42.71702" lon="1.64452">
        <ele>1715.1</ele>
        <time>2020-02-08T12:31:48Z</time>
      </trkpt>
      <trkpt lat="42.71702" lon="1.64452">
        <ele>1715.1</ele>
        <time>2020-02-08T12:31:49Z</time>
      </trkpt>
      <trkpt lat="42.71702" lon="1.64452">
        <ele>1715.1</ele>
        <time>2020-02-08T12:31:50Z</time>
      </trkpt>
      <trkpt lat="42.71702" lon="1.64452">
        <ele>1715.1</ele>
        <time>2020-02-08T12:31:51Z</time>
      </trkpt>
      <trkpt lat="42.71702" lon="1.64452">
        <ele>1715.1</ele>
        <time>2020-02-08T12:31:52Z</time>
      </trkpt>
      <trkpt lat="42.71702" lon="1.64452">
        <ele>1715.1</ele>
        <time>2020-02-08T12:31:53Z</time>
      </trkpt>
      <trkpt lat="42.71702" lon="1.64452">
        <ele>1715.1</ele>
        <time>2020-02-08T12:31:54Z</time>
      </trkpt>
      <trkpt lat="42.71702" lon="1.64452">
        <ele>1715.1</ele>
        <time>2020-02-08T12:31:55Z</time>
      </trkpt>
      <trkpt lat="42.71702" lon="1.64452">
        <ele>1715.1</ele>
        <time>2020-02-08T12:31:56Z</time>
      </trkpt>
      <trkpt lat="42.71702" lon="1.64452">
        <ele>1715.1</ele>
        <time>2020-02-08T12:31:57Z</time>
      </trkpt>
      <trkpt lat="42.71702" lon="1.64452">
        <ele>1715.1</ele>
        <time>2020-02-08T12:31:58Z</time>
      </trkpt>
      <trkpt lat="42.71702" lon="1.64452">
        <ele>1715.1</ele>
        <time>2020-02-08T12:31:59Z</time>
      </trkpt>
      <trkpt lat="42.71702" lon="1.64452">
        <ele>1715.1</ele>
        <time>2020-02-08T12:32:00Z</time>
      </trkpt>
      <trkpt lat="42.71702" lon="1.64452">
        <ele>1715.1</ele>
        <time>2020-02-08T12:32:01Z</time>
      </trkpt>
      <trkpt lat="42.71702" lon="1.64452">
        <ele>1715.1</ele>
        <time>2020-02-08T12:32:02Z</time>
      </trkpt>
      <trkpt lat="42.71702" lon="1.64452">
        <ele>1715.1</ele>
        <time>2020-02-08T12:32:03Z</time>
      </trkpt>
      <trkpt lat="42.71702" lon="1.64452">
        <ele>1715.1</ele>
        <time>2020-02-08T12:32:04Z</time>
      </trkpt>
      <trkpt lat="42.71702" lon="1.64452">
        <ele>1715.1</ele>
        <time>2020-02-08T12:32:05Z</time>
      </trkpt>
      <trkpt lat="42.71702" lon="1.64452">
        <ele>1715.1</ele>
        <time>2020-02-08T12:32:06Z</time>
      </trkpt>
      <trkpt lat="42.71702" lon="1.64452">
        <ele>1715.1</ele>
        <time>2020-02-08T12:32:07Z</time>
      </trkpt>
      <trkpt lat="42.71702" lon="1.64452">
        <ele>1715.1</ele>
        <time>2020-02-08T12:32:08Z</time>
      </trkpt>
      <trkpt lat="42.71702" lon="1.64452">
        <ele>1715.1</ele>
        <time>2020-02-08T12:32:09Z</time>
      </trkpt>
      <trkpt lat="42.71702" lon="1.64452">
        <ele>1715.1</ele>
        <time>2020-02-08T12:32:10Z</time>
      </trkpt>
      <trkpt lat="42.71702" lon="1.64452">
        <ele>1715.1</ele>
        <time>2020-02-08T12:32:11Z</time>
      </trkpt>
      <trkpt lat="42.71702" lon="1.64452">
        <ele>1715.1</ele>
        <time>2020-02-08T12:32:12Z</time>
      </trkpt>
      <trkpt lat="42.71702" lon="1.64452">
        <ele>1715.1</ele>
        <time>2020-02-08T12:32:13Z</time>
      </trkpt>
      <trkpt lat="42.71702" lon="1.64452">
        <ele>1715.1</ele>
        <time>2020-02-08T12:32:14Z</time>
      </trkpt>
      <trkpt lat="42.71702" lon="1.64452">
        <ele>1715.1</ele>
        <time>2020-02-08T12:32:15Z</time>
      </trkpt>
      <trkpt lat="42.71702" lon="1.64452">
        <ele>1715.1</ele>
        <time>2020-02-08T12:32:16Z</time>
      </trkpt>
      <trkpt lat="42.71702" lon="1.64452">
        <ele>1715.1</ele>
        <time>2020-02-08T12:32:17Z</time>
      </trkpt>
      <trkpt lat="42.71702" lon="1.64452">
        <ele>1715.1</ele>
        <time>2020-02-08T12:32:18Z</time>
      </trkpt>
      <trkpt lat="42.71702" lon="1.64452">
        <ele>1715.1</ele>
        <time>2020-02-08T12:32:19Z</time>
      </trkpt>
      <trkpt lat="42.71702" lon="1.64452">
        <ele>1715.1</ele>
        <time>2020-02-08T12:32:20Z</time>
      </trkpt>
      <trkpt lat="42.71702" lon="1.64452">
        <ele>1715.1</ele>
        <time>2020-02-08T12:32:21Z</time>
      </trkpt>
      <trkpt lat="42.71702" lon="1.64452">
        <ele>1715.1</ele>
        <time>2020-02-08T12:32:22Z</time>
      </trkpt>
      <trkpt lat="42.71702" lon="1.64452">
        <ele>1715.1</ele>
        <time>2020-02-08T12:32:23Z</time>
      </trkpt>
      <trkpt lat="42.71702" lon="1.64452">
        <ele>1715.1</ele>
        <time>2020-02-08T12:32:24Z</time>
      </trkpt>
      <trkpt lat="42.71702" lon="1.64452">
        <ele>1715.1</ele>
        <time>2020-02-08T12:32:25Z</time>
      </trkpt>
      <trkpt lat="42.71702" lon="1.64452">
        <ele>1715.1</ele>
        <time>2020-02-08T12:32:26Z</time>
      </trkpt>
      <trkpt lat="42.71702" lon="1.64452">
        <ele>1715.1</ele>
        <time>2020-02-08T12:32:27Z</time>
      </trkpt>
      <trkpt lat="42.71702" lon="1.64452">
        <ele>1715.1</ele>
        <time>2020-02-08T12:32:28Z</time>
      </trkpt>
      <trkpt lat="42.71702" lon="1.64452">
        <ele>1715.1</ele>
        <time>2020-02-08T12:32:29Z</time>
      </trkpt>
      <trkpt lat="42.71702" lon="1.64452">
        <ele>1715.1</ele>
        <time>2020-02-08T12:32:30Z</time>
      </trkpt>
      <trkpt lat="42.71702" lon="1.64452">
        <ele>1715.1</ele>
        <time>2020-02-08T12:32:31Z</time>
      </trkpt>
      <trkpt lat="42.71702" lon="1.64452">
        <ele>1715.1</ele>
        <time>2020-02-08T12:32:32Z</time>
      </trkpt>
      <trkpt lat="42.71702" lon="1.64452">
        <ele>1715.1</ele>
        <time>2020-02-08T12:32:33Z</time>
      </trkpt>
      <trkpt lat="42.71702" lon="1.64452">
        <ele>1715.1</ele>
        <time>2020-02-08T12:32:34Z</time>
      </trkpt>
      <trkpt lat="42.71702" lon="1.64452">
        <ele>1715.1</ele>
        <time>2020-02-08T12:32:35Z</time>
      </trkpt>
      <trkpt lat="42.71702" lon="1.64452">
        <ele>1715.1</ele>
        <time>2020-02-08T12:32:36Z</time>
      </trkpt>
      <trkpt lat="42.71702" lon="1.64452">
        <ele>1715.1</ele>
        <time>2020-02-08T12:32:37Z</time>
      </trkpt>
      <trkpt lat="42.71702" lon="1.64452">
        <ele>1715.1</ele>
        <time>2020-02-08T12:32:38Z</time>
      </trkpt>
      <trkpt lat="42.71702" lon="1.64452">
        <ele>1715.1</ele>
        <time>2020-02-08T12:32:39Z</time>
      </trkpt>
      <trkpt lat="42.71702" lon="1.64452">
        <ele>1715.1</ele>
        <time>2020-02-08T12:32:40Z</time>
      </trkpt>
      <trkpt lat="42.71702" lon="1.64452">
        <ele>1715.1</ele>
        <time>2020-02-08T12:32:41Z</time>
      </trkpt>
      <trkpt lat="42.71702" lon="1.64452">
        <ele>1715.1</ele>
        <time>2020-02-08T12:32:42Z</time>
      </trkpt>
      <trkpt lat="42.71702" lon="1.64452">
        <ele>1715.1</ele>
        <time>2020-02-08T12:32:43Z</time>
      </trkpt>
      <trkpt lat="42.71702" lon="1.64452">
        <ele>1715.1</ele>
        <time>2020-02-08T12:32:44Z</time>
      </trkpt>
      <trkpt lat="42.71702" lon="1.64452">
        <ele>1715.1</ele>
        <time>2020-02-08T12:32:45Z</time>
      </trkpt>
      <trkpt lat="42.71702" lon="1.64452">
        <ele>1715.1</ele>
        <time>2020-02-08T12:32:46Z</time>
      </trkpt>
      <trkpt lat="42.71702" lon="1.64452">
        <ele>1715.1</ele>
        <time>2020-02-08T12:32:47Z</time>
      </trkpt>
      <trkpt lat="42.71702" lon="1.64452">
        <ele>1715.1</ele>
        <time>2020-02-08T12:32:48Z</time>
      </trkpt>
      <trkpt lat="42.71702" lon="1.64452">
        <ele>1715.1</ele>
        <time>2020-02-08T12:32:49Z</time>
      </trkpt>
      <trkpt lat="42.71702" lon="1.64452">
        <ele>1715.1</ele>
        <time>2020-02-08T12:32:50Z</time>
      </trkpt>
      <trkpt lat="42.71702" lon="1.64452">
        <ele>1715.1</ele>
        <time>2020-02-08T12:32:51Z</time>
      </trkpt>
      <trkpt lat="42.71702" lon="1.64452">
        <ele>1715.1</ele>
        <time>2020-02-08T12:32:52Z</time>
      </trkpt>
      <trkpt lat="42.71702" lon="1.64452">
        <ele>1715.1</ele>
        <time>2020-02-08T12:32:53Z</time>
      </trkpt>
      <trkpt lat="42.71702" lon="1.64452">
        <ele>1715.1</ele>
        <time>2020-02-08T12:32:54Z</time>
      </trkpt>
      <trkpt lat="42.71702" lon="1.64452">
        <ele>1715.1</ele>
        <time>2020-02-08T12:32:55Z</time>
      </trkpt>
      <trkpt lat="42.71702" lon="1.64452">
        <ele>1715.1</ele>
        <time>2020-02-08T12:32:56Z</time>
      </trkpt>
      <trkpt lat="42.71702" lon="1.64452">
        <ele>1715.1</ele>
        <time>2020-02-08T12:32:57Z</time>
      </trkpt>
      <trkpt lat="42.71702" lon="1.64452">
        <ele>1715.1</ele>
        <time>2020-02-08T12:32:58Z</time>
      </trkpt>
      <trkpt lat="42.71702" lon="1.64452">
        <ele>1715.1</ele>
        <time>2020-02-08T12:32:59Z</time>
      </trkpt>
      <trkpt lat="42.71702" lon="1.64452">
        <ele>1715.1</ele>
        <time>2020-02-08T12:33:00Z</time>
      </trkpt>
      <trkpt lat="42.71702" lon="1.64452">
        <ele>1715.1</ele>
        <time>2020-02-08T12:33:01Z</time>
      </trkpt>
      <trkpt lat="42.71702" lon="1.64452">
        <ele>1715.1</ele>
        <time>2020-02-08T12:33:02Z</time>
      </trkpt>
      <trkpt lat="42.71702" lon="1.64452">
        <ele>1715.1</ele>
        <time>2020-02-08T12:33:03Z</time>
      </trkpt>
      <trkpt lat="42.71702" lon="1.64452">
        <ele>1715.1</ele>
        <time>2020-02-08T12:33:04Z</time>
      </trkpt>
      <trkpt lat="42.71702" lon="1.64452">
        <ele>1715.1</ele>
        <time>2020-02-08T12:33:05Z</time>
      </trkpt>
      <trkpt lat="42.71702" lon="1.64452">
        <ele>1715.1</ele>
        <time>2020-02-08T12:33:06Z</time>
      </trkpt>
      <trkpt lat="42.71702" lon="1.64452">
        <ele>1715.1</ele>
        <time>2020-02-08T12:33:07Z</time>
      </trkpt>
      <trkpt lat="42.71702" lon="1.64452">
        <ele>1715.1</ele>
        <time>2020-02-08T12:33:08Z</time>
      </trkpt>
      <trkpt lat="42.71702" lon="1.64452">
        <ele>1715.1</ele>
        <time>2020-02-08T12:33:09Z</time>
      </trkpt>
      <trkpt lat="42.71702" lon="1.64452">
        <ele>1715.1</ele>
        <time>2020-02-08T12:33:10Z</time>
      </trkpt>
      <trkpt lat="42.71702" lon="1.64452">
        <ele>1715.1</ele>
        <time>2020-02-08T12:33:11Z</time>
      </trkpt>
      <trkpt lat="42.71702" lon="1.64452">
        <ele>1715.1</ele>
        <time>2020-02-08T12:33:12Z</time>
      </trkpt>
      <trkpt lat="42.71702" lon="1.64452">
        <ele>1715.1</ele>
        <time>2020-02-08T12:33:13Z</time>
      </trkpt>
      <trkpt lat="42.71702" lon="1.64452">
        <ele>1715.1</ele>
        <time>2020-02-08T12:33:14Z</time>
      </trkpt>
      <trkpt lat="42.71702" lon="1.64452">
        <ele>1715.1</ele>
        <time>2020-02-08T12:33:15Z</time>
      </trkpt>
      <trkpt lat="42.71702" lon="1.64452">
        <ele>1715.1</ele>
        <time>2020-02-08T12:33:16Z</time>
      </trkpt>
      <trkpt lat="42.71702" lon="1.64452">
        <ele>1715.1</ele>
        <time>2020-02-08T12:33:17Z</time>
      </trkpt>
      <trkpt lat="42.71702" lon="1.64452">
        <ele>1715.1</ele>
        <time>2020-02-08T12:33:18Z</time>
      </trkpt>
      <trkpt lat="42.71702" lon="1.64452">
        <ele>1715.1</ele>
        <time>2020-02-08T12:33:19Z</time>
      </trkpt>
      <trkpt lat="42.71702" lon="1.64452">
        <ele>1715.1</ele>
        <time>2020-02-08T12:33:20Z</time>
      </trkpt>
      <trkpt lat="42.71702" lon="1.64452">
        <ele>1715.1</ele>
        <time>2020-02-08T12:33:21Z</time>
      </trkpt>
      <trkpt lat="42.71702" lon="1.64452">
        <ele>1715.1</ele>
        <time>2020-02-08T12:33:22Z</time>
      </trkpt>
      <trkpt lat="42.71702" lon="1.64452">
        <ele>1715.1</ele>
        <time>2020-02-08T12:33:23Z</time>
      </trkpt>
      <trkpt lat="42.71702" lon="1.64452">
        <ele>1715.1</ele>
        <time>2020-02-08T12:33:24Z</time>
      </trkpt>
      <trkpt lat="42.71702" lon="1.64452">
        <ele>1715.1</ele>
        <time>2020-02-08T12:33:25Z</time>
      </trkpt>
      <trkpt lat="42.71702" lon="1.64452">
        <ele>1715.1</ele>
        <time>2020-02-08T12:33:26Z</time>
      </trkpt>
      <trkpt lat="42.71702" lon="1.64452">
        <ele>1715.1</ele>
        <time>2020-02-08T12:33:27Z</time>
      </trkpt>
      <trkpt lat="42.71702" lon="1.64452">
        <ele>1715.1</ele>
        <time>2020-02-08T12:33:28Z</time>
      </trkpt>
      <trkpt lat="42.71702" lon="1.64452">
        <ele>1715.1</ele>
        <time>2020-02-08T12:33:29Z</time>
      </trkpt>
      <trkpt lat="42.71702" lon="1.64452">
        <ele>1715.1</ele>
        <time>2020-02-08T12:33:30Z</time>
      </trkpt>
      <trkpt lat="42.71702" lon="1.64452">
        <ele>1715.1</ele>
        <time>2020-02-08T12:33:31Z</time>
      </trkpt>
      <trkpt lat="42.71702" lon="1.64452">
        <ele>1715.1</ele>
        <time>2020-02-08T12:33:32Z</time>
      </trkpt>
      <trkpt lat="42.71702" lon="1.64452">
        <ele>1715.1</ele>
        <time>2020-02-08T12:33:33Z</time>
      </trkpt>
      <trkpt lat="42.71702" lon="1.64452">
        <ele>1715.1</ele>
        <time>2020-02-08T12:33:34Z</time>
      </trkpt>
      <trkpt lat="42.71702" lon="1.64452">
        <ele>1715.1</ele>
        <time>2020-02-08T12:33:35Z</time>
      </trkpt>
      <trkpt lat="42.71702" lon="1.64452">
        <ele>1715.1</ele>
        <time>2020-02-08T12:33:36Z</time>
      </trkpt>
      <trkpt lat="42.71702" lon="1.64452">
        <ele>1715.1</ele>
        <time>2020-02-08T12:33:37Z</time>
      </trkpt>
      <trkpt lat="42.71702" lon="1.64452">
        <ele>1715.1</ele>
        <time>2020-02-08T12:33:38Z</time>
      </trkpt>
      <trkpt lat="42.71702" lon="1.64452">
        <ele>1715.1</ele>
        <time>2020-02-08T12:33:39Z</time>
      </trkpt>
      <trkpt lat="42.71702" lon="1.64452">
        <ele>1715.1</ele>
        <time>2020-02-08T12:33:40Z</time>
      </trkpt>
      <trkpt lat="42.71702" lon="1.64452">
        <ele>1715.1</ele>
        <time>2020-02-08T12:33:41Z</time>
      </trkpt>
      <trkpt lat="42.71702" lon="1.64452">
        <ele>1715.1</ele>
        <time>2020-02-08T12:33:42Z</time>
      </trkpt>
      <trkpt lat="42.71702" lon="1.64452">
        <ele>1715.1</ele>
        <time>2020-02-08T12:33:43Z</time>
      </trkpt>
      <trkpt lat="42.71702" lon="1.64452">
        <ele>1715.1</ele>
        <time>2020-02-08T12:33:44Z</time>
      </trkpt>
      <trkpt lat="42.71702" lon="1.64452">
        <ele>1715.1</ele>
        <time>2020-02-08T12:33:45Z</time>
      </trkpt>
      <trkpt lat="42.71702" lon="1.64452">
        <ele>1715.1</ele>
        <time>2020-02-08T12:33:46Z</time>
      </trkpt>
      <trkpt lat="42.71702" lon="1.64452">
        <ele>1715.1</ele>
        <time>2020-02-08T12:33:47Z</time>
      </trkpt>
      <trkpt lat="42.71702" lon="1.64452">
        <ele>1715.1</ele>
        <time>2020-02-08T12:33:48Z</time>
      </trkpt>
      <trkpt lat="42.71702" lon="1.64452">
        <ele>1715.1</ele>
        <time>2020-02-08T12:33:49Z</time>
      </trkpt>
      <trkpt lat="42.71702" lon="1.64452">
        <ele>1715.1</ele>
        <time>2020-02-08T12:33:50Z</time>
      </trkpt>
      <trkpt lat="42.71702" lon="1.64452">
        <ele>1715.1</ele>
        <time>2020-02-08T12:33:51Z</time>
      </trkpt>
      <trkpt lat="42.71702" lon="1.64452">
        <ele>1715.1</ele>
        <time>2020-02-08T12:33:52Z</time>
      </trkpt>
      <trkpt lat="42.71702" lon="1.64452">
        <ele>1715.1</ele>
        <time>2020-02-08T12:33:53Z</time>
      </trkpt>
      <trkpt lat="42.71702" lon="1.64452">
        <ele>1715.1</ele>
        <time>2020-02-08T12:33:54Z</time>
      </trkpt>
      <trkpt lat="42.71702" lon="1.64452">
        <ele>1715.1</ele>
        <time>2020-02-08T12:33:55Z</time>
      </trkpt>
      <trkpt lat="42.71702" lon="1.64452">
        <ele>1715.1</ele>
        <time>2020-02-08T12:33:56Z</time>
      </trkpt>
      <trkpt lat="42.71702" lon="1.64452">
        <ele>1715.1</ele>
        <time>2020-02-08T12:33:57Z</time>
      </trkpt>
      <trkpt lat="42.71702" lon="1.64452">
        <ele>1715.1</ele>
        <time>2020-02-08T12:33:58Z</time>
      </trkpt>
      <trkpt lat="42.71702" lon="1.64452">
        <ele>1715.1</ele>
        <time>2020-02-08T12:33:59Z</time>
      </trkpt>
      <trkpt lat="42.71702" lon="1.64452">
        <ele>1715.1</ele>
        <time>2020-02-08T12:34:00Z</time>
      </trkpt>
      <trkpt lat="42.71702" lon="1.64452">
        <ele>1715.1</ele>
        <time>2020-02-08T12:34:01Z</time>
      </trkpt>
      <trkpt lat="42.71702" lon="1.64452">
        <ele>1715.1</ele>
        <time>2020-02-08T12:34:02Z</time>
      </trkpt>
      <trkpt lat="42.71702" lon="1.64452">
        <ele>1715.1</ele>
        <time>2020-02-08T12:34:03Z</time>
      </trkpt>
      <trkpt lat="42.71702" lon="1.64452">
        <ele>1715.1</ele>
        <time>2020-02-08T12:34:04Z</time>
      </trkpt>
      <trkpt lat="42.71702" lon="1.64452">
        <ele>1715.1</ele>
        <time>2020-02-08T12:34:05Z</time>
      </trkpt>
      <trkpt lat="42.71702" lon="1.64452">
        <ele>1715.1</ele>
        <time>2020-02-08T12:34:06Z</time>
      </trkpt>
      <trkpt lat="42.71702" lon="1.64452">
        <ele>1715.1</ele>
        <time>2020-02-08T12:34:07Z</time>
      </trkpt>
      <trkpt lat="42.71702" lon="1.64452">
        <ele>1715.1</ele>
        <time>2020-02-08T12:34:08Z</time>
      </trkpt>
      <trkpt lat="42.71702" lon="1.64452">
        <ele>1715.1</ele>
        <time>2020-02-08T12:34:09Z</time>
      </trkpt>
      <trkpt lat="42.71702" lon="1.64452">
        <ele>1715.1</ele>
        <time>2020-02-08T12:34:10Z</time>
      </trkpt>
      <trkpt lat="42.71702" lon="1.64452">
        <ele>1715.1</ele>
        <time>2020-02-08T12:34:11Z</time>
      </trkpt>
      <trkpt lat="42.71702" lon="1.64452">
        <ele>1715.1</ele>
        <time>2020-02-08T12:34:12Z</time>
      </trkpt>
      <trkpt lat="42.71702" lon="1.64452">
        <ele>1715.1</ele>
        <time>2020-02-08T12:34:13Z</time>
      </trkpt>
      <trkpt lat="42.71702" lon="1.64452">
        <ele>1715.1</ele>
        <time>2020-02-08T12:34:14Z</time>
      </trkpt>
      <trkpt lat="42.71702" lon="1.64452">
        <ele>1715.1</ele>
        <time>2020-02-08T12:34:15Z</time>
      </trkpt>
      <trkpt lat="42.71702" lon="1.64452">
        <ele>1715.1</ele>
        <time>2020-02-08T12:34:16Z</time>
      </trkpt>
      <trkpt lat="42.71702" lon="1.64452">
        <ele>1715.1</ele>
        <time>2020-02-08T12:34:17Z</time>
      </trkpt>
      <trkpt lat="42.71702" lon="1.64452">
        <ele>1715.1</ele>
        <time>2020-02-08T12:34:18Z</time>
      </trkpt>
      <trkpt lat="42.71702" lon="1.64452">
        <ele>1715.1</ele>
        <time>2020-02-08T12:34:19Z</time>
      </trkpt>
      <trkpt lat="42.71702" lon="1.64452">
        <ele>1715.1</ele>
        <time>2020-02-08T12:34:20Z</time>
      </trkpt>
      <trkpt lat="42.71702" lon="1.64452">
        <ele>1715.1</ele>
        <time>2020-02-08T12:34:21Z</time>
      </trkpt>
      <trkpt lat="42.71702" lon="1.64452">
        <ele>1715.1</ele>
        <time>2020-02-08T12:34:22Z</time>
      </trkpt>
      <trkpt lat="42.71702" lon="1.64452">
        <ele>1715.1</ele>
        <time>2020-02-08T12:34:23Z</time>
      </trkpt>
      <trkpt lat="42.71702" lon="1.64452">
        <ele>1715.1</ele>
        <time>2020-02-08T12:34:24Z</time>
      </trkpt>
      <trkpt lat="42.71702" lon="1.64452">
        <ele>1715.1</ele>
        <time>2020-02-08T12:34:25Z</time>
      </trkpt>
      <trkpt lat="42.71702" lon="1.64452">
        <ele>1715.1</ele>
        <time>2020-02-08T12:34:26Z</time>
      </trkpt>
      <trkpt lat="42.71702" lon="1.64452">
        <ele>1715.1</ele>
        <time>2020-02-08T12:34:27Z</time>
      </trkpt>
      <trkpt lat="42.71702" lon="1.64452">
        <ele>1715.1</ele>
        <time>2020-02-08T12:34:28Z</time>
      </trkpt>
      <trkpt lat="42.71702" lon="1.64452">
        <ele>1715.1</ele>
        <time>2020-02-08T12:34:29Z</time>
      </trkpt>
      <trkpt lat="42.71702" lon="1.64452">
        <ele>1715.1</ele>
        <time>2020-02-08T12:34:30Z</time>
      </trkpt>
      <trkpt lat="42.71702" lon="1.64452">
        <ele>1715.1</ele>
        <time>2020-02-08T12:34:31Z</time>
      </trkpt>
      <trkpt lat="42.71702" lon="1.64452">
        <ele>1715.1</ele>
        <time>2020-02-08T12:34:32Z</time>
      </trkpt>
      <trkpt lat="42.71702" lon="1.64452">
        <ele>1715.1</ele>
        <time>2020-02-08T12:34:33Z</time>
      </trkpt>
      <trkpt lat="42.71702" lon="1.64452">
        <ele>1715.1</ele>
        <time>2020-02-08T12:34:34Z</time>
      </trkpt>
      <trkpt lat="42.71702" lon="1.64452">
        <ele>1715.1</ele>
        <time>2020-02-08T12:34:35Z</time>
      </trkpt>
      <trkpt lat="42.71702" lon="1.64452">
        <ele>1715.1</ele>
        <time>2020-02-08T12:34:36Z</time>
      </trkpt>
      <trkpt lat="42.71702" lon="1.64452">
        <ele>1715.1</ele>
        <time>2020-02-08T12:34:37Z</time>
      </trkpt>
      <trkpt lat="42.71702" lon="1.64452">
        <ele>1715.1</ele>
        <time>2020-02-08T12:34:38Z</time>
      </trkpt>
      <trkpt lat="42.71702" lon="1.64452">
        <ele>1715.1</ele>
        <time>2020-02-08T12:34:39Z</time>
      </trkpt>
      <trkpt lat="42.71702" lon="1.64452">
        <ele>1715.1</ele>
        <time>2020-02-08T12:34:40Z</time>
      </trkpt>
      <trkpt lat="42.71702" lon="1.64452">
        <ele>1715.1</ele>
        <time>2020-02-08T12:34:41Z</time>
      </trkpt>
      <trkpt lat="42.71702" lon="1.64452">
        <ele>1715.1</ele>
        <time>2020-02-08T12:34:42Z</time>
      </trkpt>
      <trkpt lat="42.71702" lon="1.64452">
        <ele>1715.1</ele>
        <time>2020-02-08T12:34:43Z</time>
      </trkpt>
      <trkpt lat="42.71702" lon="1.64452">
        <ele>1715.1</ele>
        <time>2020-02-08T12:34:44Z</time>
      </trkpt>
      <trkpt lat="42.71702" lon="1.64452">
        <ele>1715.1</ele>
        <time>2020-02-08T12:34:45Z</time>
      </trkpt>
      <trkpt lat="42.71702" lon="1.64452">
        <ele>1715.1</ele>
        <time>2020-02-08T12:34:46Z</time>
      </trkpt>
      <trkpt lat="42.71702" lon="1.64452">
        <ele>1715.1</ele>
        <time>2020-02-08T12:34:47Z</time>
      </trkpt>
      <trkpt lat="42.71702" lon="1.64452">
        <ele>1715.1</ele>
        <time>2020-02-08T12:34:48Z</time>
      </trkpt>
      <trkpt lat="42.71702" lon="1.64452">
        <ele>1715.1</ele>
        <time>2020-02-08T12:34:49Z</time>
      </trkpt>
      <trkpt lat="42.71702" lon="1.64452">
        <ele>1715.1</ele>
        <time>2020-02-08T12:34:50Z</time>
      </trkpt>
      <trkpt lat="42.71702" lon="1.64452">
        <ele>1715.1</ele>
        <time>2020-02-08T12:34:51Z</time>
      </trkpt>
      <trkpt lat="42.71702" lon="1.64452">
        <ele>1715.1</ele>
        <time>2020-02-08T12:34:52Z</time>
      </trkpt>
      <trkpt lat="42.71702" lon="1.64452">
        <ele>1715.1</ele>
        <time>2020-02-08T12:34:53Z</time>
      </trkpt>
      <trkpt lat="42.71702" lon="1.64452">
        <ele>1715.1</ele>
        <time>2020-02-08T12:34:54Z</time>
      </trkpt>
      <trkpt lat="42.71702" lon="1.64452">
        <ele>1715.1</ele>
        <time>2020-02-08T12:34:55Z</time>
      </trkpt>
      <trkpt lat="42.71702" lon="1.64452">
        <ele>1715.1</ele>
        <time>2020-02-08T12:34:56Z</time>
      </trkpt>
      <trkpt lat="42.71702" lon="1.64452">
        <ele>1715.1</ele>
        <time>2020-02-08T12:34:57Z</time>
      </trkpt>
      <trkpt lat="42.71702" lon="1.64452">
        <ele>1715.1</ele>
        <time>2020-02-08T12:34:58Z</time>
      </trkpt>
      <trkpt lat="42.71702" lon="1.64452">
        <ele>1715.1</ele>
        <time>2020-02-08T12:34:59Z</time>
      </trkpt>
      <trkpt lat="42.71702" lon="1.64452">
        <ele>1715.1</ele>
        <time>2020-02-08T12:35:00Z</time>
      </trkpt>
      <trkpt lat="42.71702" lon="1.64452">
        <ele>1715.1</ele>
        <time>2020-02-08T12:35:01Z</time>
      </trkpt>
      <trkpt lat="42.71702" lon="1.64452">
        <ele>1715.1</ele>
        <time>2020-02-08T12:35:02Z</time>
      </trkpt>
      <trkpt lat="42.71702" lon="1.64452">
        <ele>1715.1</ele>
        <time>2020-02-08T12:35:03Z</time>
      </trkpt>
      <trkpt lat="42.71702" lon="1.64452">
        <ele>1715.1</ele>
        <time>2020-02-08T12:35:04Z</time>
      </trkpt>
      <trkpt lat="42.71702" lon="1.64452">
        <ele>1715.1</ele>
        <time>2020-02-08T12:35:05Z</time>
      </trkpt>
      <trkpt lat="42.71702" lon="1.64452">
        <ele>1715.1</ele>
        <time>2020-02-08T12:35:06Z</time>
      </trkpt>
      <trkpt lat="42.71702" lon="1.64452">
        <ele>1715.1</ele>
        <time>2020-02-08T12:35:07Z</time>
      </trkpt>
      <trkpt lat="42.71702" lon="1.64452">
        <ele>1715.1</ele>
        <time>2020-02-08T12:35:08Z</time>
      </trkpt>
      <trkpt lat="42.71702" lon="1.64452">
        <ele>1715.1</ele>
        <time>2020-02-08T12:35:09Z</time>
      </trkpt>
      <trkpt lat="42.71702" lon="1.64452">
        <ele>1715.1</ele>
        <time>2020-02-08T12:35:10Z</time>
      </trkpt>
      <trkpt lat="42.71702" lon="1.64452">
        <ele>1715.1</ele>
        <time>2020-02-08T12:35:11Z</time>
      </trkpt>
      <trkpt lat="42.71702" lon="1.64452">
        <ele>1715.1</ele>
        <time>2020-02-08T12:35:12Z</time>
      </trkpt>
      <trkpt lat="42.71702" lon="1.64452">
        <ele>1715.1</ele>
        <time>2020-02-08T12:35:13Z</time>
      </trkpt>
      <trkpt lat="42.71702" lon="1.64452">
        <ele>1715.1</ele>
        <time>2020-02-08T12:35:14Z</time>
      </trkpt>
      <trkpt lat="42.71702" lon="1.64452">
        <ele>1715.1</ele>
        <time>2020-02-08T12:35:15Z</time>
      </trkpt>
      <trkpt lat="42.71702" lon="1.64452">
        <ele>1715.1</ele>
        <time>2020-02-08T12:35:16Z</time>
      </trkpt>
      <trkpt lat="42.71702" lon="1.64452">
        <ele>1715.1</ele>
        <time>2020-02-08T12:35:17Z</time>
      </trkpt>
      <trkpt lat="42.71702" lon="1.64452">
        <ele>1715.1</ele>
        <time>2020-02-08T12:35:18Z</time>
      </trkpt>
      <trkpt lat="42.71702" lon="1.64452">
        <ele>1715.1</ele>
        <time>2020-02-08T12:35:19Z</time>
      </trkpt>
      <trkpt lat="42.71702" lon="1.64452">
        <ele>1715.1</ele>
        <time>2020-02-08T12:35:20Z</time>
      </trkpt>
      <trkpt lat="42.71702" lon="1.64452">
        <ele>1715.1</ele>
        <time>2020-02-08T12:35:21Z</time>
      </trkpt>
      <trkpt lat="42.71702" lon="1.64452">
        <ele>1715.1</ele>
        <time>2020-02-08T12:35:22Z</time>
      </trkpt>
      <trkpt lat="42.71702" lon="1.64452">
        <ele>1715.1</ele>
        <time>2020-02-08T12:35:23Z</time>
      </trkpt>
      <trkpt lat="42.71702" lon="1.64452">
        <ele>1715.1</ele>
        <time>2020-02-08T12:35:24Z</time>
      </trkpt>
      <trkpt lat="42.71702" lon="1.64452">
        <ele>1715.1</ele>
        <time>2020-02-08T12:35:25Z</time>
      </trkpt>
      <trkpt lat="42.71702" lon="1.64452">
        <ele>1715.1</ele>
        <time>2020-02-08T12:35:26Z</time>
      </trkpt>
      <trkpt lat="42.71702" lon="1.64452">
        <ele>1715.1</ele>
        <time>2020-02-08T12:35:27Z</time>
      </trkpt>
      <trkpt lat="42.71702" lon="1.64452">
        <ele>1715.1</ele>
        <time>2020-02-08T12:35:28Z</time>
      </trkpt>
      <trkpt lat="42.71702" lon="1.64452">
        <ele>1715.1</ele>
        <time>2020-02-08T12:35:29Z</time>
      </trkpt>
      <trkpt lat="42.71702" lon="1.64452">
        <ele>1715.1</ele>
        <time>2020-02-08T12:35:30Z</time>
      </trkpt>
      <trkpt lat="42.71702" lon="1.64452">
        <ele>1715.1</ele>
        <time>2020-02-08T12:35:31Z</time>
      </trkpt>
      <trkpt lat="42.71702" lon="1.64452">
        <ele>1715.1</ele>
        <time>2020-02-08T12:35:32Z</time>
      </trkpt>
      <trkpt lat="42.71702" lon="1.64452">
        <ele>1715.1</ele>
        <time>2020-02-08T12:35:33Z</time>
      </trkpt>
      <trkpt lat="42.71702" lon="1.64452">
        <ele>1715.1</ele>
        <time>2020-02-08T12:35:34Z</time>
      </trkpt>
      <trkpt lat="42.71702" lon="1.64452">
        <ele>1715.1</ele>
        <time>2020-02-08T12:35:35Z</time>
      </trkpt>
      <trkpt lat="42.71702" lon="1.64452">
        <ele>1715.1</ele>
        <time>2020-02-08T12:35:36Z</time>
      </trkpt>
      <trkpt lat="42.71702" lon="1.64452">
        <ele>1715.1</ele>
        <time>2020-02-08T12:35:37Z</time>
      </trkpt>
      <trkpt lat="42.71702" lon="1.64452">
        <ele>1715.1</ele>
        <time>2020-02-08T12:35:38Z</time>
      </trkpt>
      <trkpt lat="42.71702" lon="1.64452">
        <ele>1715.1</ele>
        <time>2020-02-08T12:35:39Z</time>
      </trkpt>
      <trkpt lat="42.71702" lon="1.64452">
        <ele>1715.1</ele>
        <time>2020-02-08T12:35:40Z</time>
      </trkpt>
      <trkpt lat="42.71702" lon="1.64452">
        <ele>1715.1</ele>
        <time>2020-02-08T12:35:41Z</time>
      </trkpt>
      <trkpt lat="42.71702" lon="1.64452">
        <ele>1715.1</ele>
        <time>2020-02-08T12:35:42Z</time>
      </trkpt>
      <trkpt lat="42.71702" lon="1.64452">
        <ele>1715.1</ele>
        <time>2020-02-08T12:35:43Z</time>
      </trkpt>
      <trkpt lat="42.71702" lon="1.64452">
        <ele>1715.1</ele>
        <time>2020-02-08T12:35:44Z</time>
      </trkpt>
      <trkpt lat="42.71702" lon="1.64452">
        <ele>1715.1</ele>
        <time>2020-02-08T12:35:45Z</time>
      </trkpt>
      <trkpt lat="42.71702" lon="1.64452">
        <ele>1715.1</ele>
        <time>2020-02-08T12:35:46Z</time>
      </trkpt>
      <trkpt lat="42.71702" lon="1.64452">
        <ele>1715.1</ele>
        <time>2020-02-08T12:35:47Z</time>
      </trkpt>
      <trkpt lat="42.71702" lon="1.64452">
        <ele>1715.1</ele>
        <time>2020-02-08T12:35:48Z</time>
      </trkpt>
      <trkpt lat="42.71702" lon="1.64452">
        <ele>1715.1</ele>
        <time>2020-02-08T12:35:49Z</time>
      </trkpt>
      <trkpt lat="42.71702" lon="1.64452">
        <ele>1715.1</ele>
        <time>2020-02-08T12:35:50Z</time>
      </trkpt>
      <trkpt lat="42.71702" lon="1.64452">
        <ele>1715.1</ele>
        <time>2020-02-08T12:35:51Z</time>
      </trkpt>
      <trkpt lat="42.71702" lon="1.64452">
        <ele>1715.1</ele>
        <time>2020-02-08T12:35:52Z</time>
      </trkpt>
      <trkpt lat="42.71702" lon="1.64452">
        <ele>1715.1</ele>
        <time>2020-02-08T12:35:53Z</time>
      </trkpt>
      <trkpt lat="42.71702" lon="1.64452">
        <ele>1715.1</ele>
        <time>2020-02-08T12:35:54Z</time>
      </trkpt>
      <trkpt lat="42.71702" lon="1.64452">
        <ele>1715.1</ele>
        <time>2020-02-08T12:35:55Z</time>
      </trkpt>
      <trkpt lat="42.71702" lon="1.64452">
        <ele>1715.1</ele>
        <time>2020-02-08T12:35:56Z</time>
      </trkpt>
      <trkpt lat="42.71702" lon="1.64452">
        <ele>1715.1</ele>
        <time>2020-02-08T12:35:57Z</time>
      </trkpt>
      <trkpt lat="42.71702" lon="1.64452">
        <ele>1715.1</ele>
        <time>2020-02-08T12:35:58Z</time>
      </trkpt>
      <trkpt lat="42.71702" lon="1.64452">
        <ele>1715.1</ele>
        <time>2020-02-08T12:35:59Z</time>
      </trkpt>
      <trkpt lat="42.71702" lon="1.64452">
        <ele>1715.1</ele>
        <time>2020-02-08T12:36:00Z</time>
      </trkpt>
      <trkpt lat="42.71702" lon="1.64452">
        <ele>1715.1</ele>
        <time>2020-02-08T12:36:01Z</time>
      </trkpt>
      <trkpt lat="42.71702" lon="1.64452">
        <ele>1715.1</ele>
        <time>2020-02-08T12:36:02Z</time>
      </trkpt>
      <trkpt lat="42.71702" lon="1.64452">
        <ele>1715.1</ele>
        <time>2020-02-08T12:36:03Z</time>
      </trkpt>
      <trkpt lat="42.71702" lon="1.64452">
        <ele>1715.1</ele>
        <time>2020-02-08T12:36:04Z</time>
      </trkpt>
      <trkpt lat="42.71702" lon="1.64452">
        <ele>1715.1</ele>
        <time>2020-02-08T12:36:05Z</time>
      </trkpt>
      <trkpt lat="42.71702" lon="1.64452">
        <ele>1715.1</ele>
        <time>2020-02-08T12:36:06Z</time>
      </trkpt>
      <trkpt lat="42.71702" lon="1.64452">
        <ele>1715.1</ele>
        <time>2020-02-08T12:36:07Z</time>
      </trkpt>
      <trkpt lat="42.71702" lon="1.64452">
        <ele>1715.1</ele>
        <time>2020-02-08T12:36:08Z</time>
      </trkpt>
      <trkpt lat="42.71702" lon="1.64452">
        <ele>1715.1</ele>
        <time>2020-02-08T12:36:09Z</time>
      </trkpt>
      <trkpt lat="42.71702" lon="1.64452">
        <ele>1715.1</ele>
        <time>2020-02-08T12:36:10Z</time>
      </trkpt>
      <trkpt lat="42.71702" lon="1.64452">
        <ele>1715.1</ele>
        <time>2020-02-08T12:36:11Z</time>
      </trkpt>
      <trkpt lat="42.71702" lon="1.64452">
        <ele>1715.1</ele>
        <time>2020-02-08T12:36:12Z</time>
      </trkpt>
      <trkpt lat="42.71702" lon="1.64452">
        <ele>1715.1</ele>
        <time>2020-02-08T12:36:13Z</time>
      </trkpt>
      <trkpt lat="42.71702" lon="1.64452">
        <ele>1715.1</ele>
        <time>2020-02-08T12:36:14Z</time>
      </trkpt>
      <trkpt lat="42.71702" lon="1.64452">
        <ele>1715.1</ele>
        <time>2020-02-08T12:36:15Z</time>
      </trkpt>
      <trkpt lat="42.71702" lon="1.64452">
        <ele>1715.1</ele>
        <time>2020-02-08T12:36:16Z</time>
      </trkpt>
      <trkpt lat="42.71702" lon="1.64452">
        <ele>1715.1</ele>
        <time>2020-02-08T12:36:17Z</time>
      </trkpt>
      <trkpt lat="42.71702" lon="1.64452">
        <ele>1715.1</ele>
        <time>2020-02-08T12:36:18Z</time>
      </trkpt>
      <trkpt lat="42.71702" lon="1.64452">
        <ele>1715.1</ele>
        <time>2020-02-08T12:36:19Z</time>
      </trkpt>
      <trkpt lat="42.71702" lon="1.64452">
        <ele>1715.1</ele>
        <time>2020-02-08T12:36:20Z</time>
      </trkpt>
      <trkpt lat="42.71702" lon="1.64452">
        <ele>1715.1</ele>
        <time>2020-02-08T12:36:21Z</time>
      </trkpt>
      <trkpt lat="42.71702" lon="1.64452">
        <ele>1715.1</ele>
        <time>2020-02-08T12:36:22Z</time>
      </trkpt>
      <trkpt lat="42.71702" lon="1.64452">
        <ele>1715.1</ele>
        <time>2020-02-08T12:36:23Z</time>
      </trkpt>
      <trkpt lat="42.71702" lon="1.64452">
        <ele>1715.1</ele>
        <time>2020-02-08T12:36:24Z</time>
      </trkpt>
      <trkpt lat="42.71702" lon="1.64452">
        <ele>1715.1</ele>
        <time>2020-02-08T12:36:25Z</time>
      </trkpt>
      <trkpt lat="42.71702" lon="1.64452">
        <ele>1715.1</ele>
        <time>2020-02-08T12:36:26Z</time>
      </trkpt>
      <trkpt lat="42.71702" lon="1.64452">
        <ele>1715.1</ele>
        <time>2020-02-08T12:36:27Z</time>
      </trkpt>
      <trkpt lat="42.71702" lon="1.64452">
        <ele>1715.1</ele>
        <time>2020-02-08T12:36:28Z</time>
      </trkpt>
      <trkpt lat="42.71702" lon="1.64452">
        <ele>1715.1</ele>
        <time>2020-02-08T12:36:29Z</time>
      </trkpt>
      <trkpt lat="42.71702" lon="1.64452">
        <ele>1715.1</ele>
        <time>2020-02-08T12:36:30Z</time>
      </trkpt>
      <trkpt lat="42.71702" lon="1.64452">
        <ele>1715.1</ele>
        <time>2020-02-08T12:36:31Z</time>
      </trkpt>
      <trkpt lat="42.71702" lon="1.64452">
        <ele>1715.1</ele>
        <time>2020-02-08T12:36:32Z</time>
      </trkpt>
      <trkpt lat="42.71702" lon="1.64452">
        <ele>1715.1</ele>
        <time>2020-02-08T12:36:33Z</time>
      </trkpt>
      <trkpt lat="42.71702" lon="1.64452">
        <ele>1715.1</ele>
        <time>2020-02-08T12:36:34Z</time>
      </trkpt>
      <trkpt lat="42.71702" lon="1.64452">
        <ele>1715.1</ele>
        <time>2020-02-08T12:36:35Z</time>
      </trkpt>
      <trkpt lat="42.71702" lon="1.64452">
        <ele>1715.1</ele>
        <time>2020-02-08T12:36:36Z</time>
      </trkpt>
      <trkpt lat="42.71702" lon="1.64452">
        <ele>1715.1</ele>
        <time>2020-02-08T12:36:37Z</time>
      </trkpt>
      <trkpt lat="42.71702" lon="1.64452">
        <ele>1715.1</ele>
        <time>2020-02-08T12:36:38Z</time>
      </trkpt>
      <trkpt lat="42.71702" lon="1.64452">
        <ele>1715.1</ele>
        <time>2020-02-08T12:36:39Z</time>
      </trkpt>
      <trkpt lat="42.71702" lon="1.64452">
        <ele>1715.1</ele>
        <time>2020-02-08T12:36:40Z</time>
      </trkpt>
      <trkpt lat="42.71702" lon="1.64452">
        <ele>1715.1</ele>
        <time>2020-02-08T12:36:41Z</time>
      </trkpt>
      <trkpt lat="42.71702" lon="1.64452">
        <ele>1715.1</ele>
        <time>2020-02-08T12:36:42Z</time>
      </trkpt>
      <trkpt lat="42.71702" lon="1.64452">
        <ele>1715.1</ele>
        <time>2020-02-08T12:36:43Z</time>
      </trkpt>
      <trkpt lat="42.71702" lon="1.64452">
        <ele>1715.1</ele>
        <time>2020-02-08T12:36:44Z</time>
      </trkpt>
      <trkpt lat="42.71702" lon="1.64452">
        <ele>1715.1</ele>
        <time>2020-02-08T12:36:45Z</time>
      </trkpt>
      <trkpt lat="42.71702" lon="1.64452">
        <ele>1715.1</ele>
        <time>2020-02-08T12:36:46Z</time>
      </trkpt>
      <trkpt lat="42.71702" lon="1.64452">
        <ele>1715.1</ele>
        <time>2020-02-08T12:36:47Z</time>
      </trkpt>
      <trkpt lat="42.71702" lon="1.64452">
        <ele>1715.1</ele>
        <time>2020-02-08T12:36:48Z</time>
      </trkpt>
      <trkpt lat="42.71702" lon="1.64452">
        <ele>1715.1</ele>
        <time>2020-02-08T12:36:49Z</time>
      </trkpt>
      <trkpt lat="42.71702" lon="1.64452">
        <ele>1715.1</ele>
        <time>2020-02-08T12:36:50Z</time>
      </trkpt>
      <trkpt lat="42.71702" lon="1.64452">
        <ele>1715.1</ele>
        <time>2020-02-08T12:36:51Z</time>
      </trkpt>
      <trkpt lat="42.71702" lon="1.64452">
        <ele>1715.1</ele>
        <time>2020-02-08T12:36:52Z</time>
      </trkpt>
      <trkpt lat="42.71702" lon="1.64452">
        <ele>1715.1</ele>
        <time>2020-02-08T12:36:53Z</time>
      </trkpt>
      <trkpt lat="42.71702" lon="1.64452">
        <ele>1715.1</ele>
        <time>2020-02-08T12:36:54Z</time>
      </trkpt>
      <trkpt lat="42.71702" lon="1.64452">
        <ele>1715.1</ele>
        <time>2020-02-08T12:36:55Z</time>
      </trkpt>
      <trkpt lat="42.71702" lon="1.64452">
        <ele>1715.1</ele>
        <time>2020-02-08T12:36:56Z</time>
      </trkpt>
      <trkpt lat="42.71702" lon="1.64452">
        <ele>1715.1</ele>
        <time>2020-02-08T12:36:57Z</time>
      </trkpt>
      <trkpt lat="42.71702" lon="1.64452">
        <ele>1715.1</ele>
        <time>2020-02-08T12:36:58Z</time>
      </trkpt>
      <trkpt lat="42.71702" lon="1.64452">
        <ele>1715.1</ele>
        <time>2020-02-08T12:36:59Z</time>
      </trkpt>
      <trkpt lat="42.71702" lon="1.64452">
        <ele>1715.1</ele>
        <time>2020-02-08T12:37:00Z</time>
      </trkpt>
      <trkpt lat="42.71702" lon="1.64452">
        <ele>1715.1</ele>
        <time>2020-02-08T12:37:01Z</time>
      </trkpt>
      <trkpt lat="42.71702" lon="1.64452">
        <ele>1715.1</ele>
        <time>2020-02-08T12:37:02Z</time>
      </trkpt>
      <trkpt lat="42.71702" lon="1.64452">
        <ele>1715.1</ele>
        <time>2020-02-08T12:37:03Z</time>
      </trkpt>
      <trkpt lat="42.71702" lon="1.64452">
        <ele>1715.1</ele>
        <time>2020-02-08T12:37:04Z</time>
      </trkpt>
      <trkpt lat="42.71702" lon="1.64452">
        <ele>1715.1</ele>
        <time>2020-02-08T12:37:05Z</time>
      </trkpt>
      <trkpt lat="42.71702" lon="1.64452">
        <ele>1715.1</ele>
        <time>2020-02-08T12:37:06Z</time>
      </trkpt>
      <trkpt lat="42.71702" lon="1.64452">
        <ele>1715.1</ele>
        <time>2020-02-08T12:37:07Z</time>
      </trkpt>
      <trkpt lat="42.71702" lon="1.64452">
        <ele>1715.1</ele>
        <time>2020-02-08T12:37:08Z</time>
      </trkpt>
      <trkpt lat="42.71702" lon="1.64452">
        <ele>1715.1</ele>
        <time>2020-02-08T12:37:09Z</time>
      </trkpt>
      <trkpt lat="42.71702" lon="1.64452">
        <ele>1715.1</ele>
        <time>2020-02-08T12:37:10Z</time>
      </trkpt>
      <trkpt lat="42.71702" lon="1.64452">
        <ele>1715.1</ele>
        <time>2020-02-08T12:37:11Z</time>
      </trkpt>
      <trkpt lat="42.71702" lon="1.64452">
        <ele>1715.1</ele>
        <time>2020-02-08T12:37:12Z</time>
      </trkpt>
      <trkpt lat="42.71702" lon="1.64452">
        <ele>1715.1</ele>
        <time>2020-02-08T12:37:13Z</time>
      </trkpt>
      <trkpt lat="42.71702" lon="1.64452">
        <ele>1715.1</ele>
        <time>2020-02-08T12:37:14Z</time>
      </trkpt>
      <trkpt lat="42.71702" lon="1.64452">
        <ele>1715.1</ele>
        <time>2020-02-08T12:37:15Z</time>
      </trkpt>
      <trkpt lat="42.71702" lon="1.64452">
        <ele>1715.1</ele>
        <time>2020-02-08T12:37:16Z</time>
      </trkpt>
      <trkpt lat="42.71702" lon="1.64452">
        <ele>1715.1</ele>
        <time>2020-02-08T12:37:17Z</time>
      </trkpt>
      <trkpt lat="42.71702" lon="1.64452">
        <ele>1715.1</ele>
        <time>2020-02-08T12:37:18Z</time>
      </trkpt>
      <trkpt lat="42.71702" lon="1.64452">
        <ele>1715.1</ele>
        <time>2020-02-08T12:37:19Z</time>
      </trkpt>
      <trkpt lat="42.71702" lon="1.64452">
        <ele>1715.1</ele>
        <time>2020-02-08T12:37:20Z</time>
      </trkpt>
      <trkpt lat="42.71702" lon="1.64452">
        <ele>1715.1</ele>
        <time>2020-02-08T12:37:21Z</time>
      </trkpt>
      <trkpt lat="42.71702" lon="1.64452">
        <ele>1715.1</ele>
        <time>2020-02-08T12:37:22Z</time>
      </trkpt>
      <trkpt lat="42.71702" lon="1.64452">
        <ele>1715.1</ele>
        <time>2020-02-08T12:37:23Z</time>
      </trkpt>
      <trkpt lat="42.71702" lon="1.64452">
        <ele>1715.1</ele>
        <time>2020-02-08T12:37:24Z</time>
      </trkpt>
      <trkpt lat="42.71702" lon="1.64452">
        <ele>1715.1</ele>
        <time>2020-02-08T12:37:25Z</time>
      </trkpt>
      <trkpt lat="42.71702" lon="1.64452">
        <ele>1715.1</ele>
        <time>2020-02-08T12:37:26Z</time>
      </trkpt>
      <trkpt lat="42.71702" lon="1.64452">
        <ele>1715.1</ele>
        <time>2020-02-08T12:37:27Z</time>
      </trkpt>
      <trkpt lat="42.71702" lon="1.64452">
        <ele>1715.1</ele>
        <time>2020-02-08T12:37:28Z</time>
      </trkpt>
      <trkpt lat="42.71702" lon="1.64452">
        <ele>1715.1</ele>
        <time>2020-02-08T12:37:29Z</time>
      </trkpt>
      <trkpt lat="42.71702" lon="1.64452">
        <ele>1715.1</ele>
        <time>2020-02-08T12:37:30Z</time>
      </trkpt>
      <trkpt lat="42.71702" lon="1.64452">
        <ele>1715.1</ele>
        <time>2020-02-08T12:37:31Z</time>
      </trkpt>
      <trkpt lat="42.71702" lon="1.64452">
        <ele>1715.1</ele>
        <time>2020-02-08T12:37:32Z</time>
      </trkpt>
      <trkpt lat="42.71702" lon="1.64452">
        <ele>1715.1</ele>
        <time>2020-02-08T12:37:33Z</time>
      </trkpt>
      <trkpt lat="42.71702" lon="1.64452">
        <ele>1715.1</ele>
        <time>2020-02-08T12:37:34Z</time>
      </trkpt>
      <trkpt lat="42.71702" lon="1.64452">
        <ele>1715.1</ele>
        <time>2020-02-08T12:37:35Z</time>
      </trkpt>
      <trkpt lat="42.71702" lon="1.64452">
        <ele>1715.1</ele>
        <time>2020-02-08T12:37:36Z</time>
      </trkpt>
      <trkpt lat="42.71702" lon="1.64452">
        <ele>1715.1</ele>
        <time>2020-02-08T12:37:37Z</time>
      </trkpt>
      <trkpt lat="42.71702" lon="1.64452">
        <ele>1715.1</ele>
        <time>2020-02-08T12:37:38Z</time>
      </trkpt>
      <trkpt lat="42.71702" lon="1.64452">
        <ele>1715.1</ele>
        <time>2020-02-08T12:37:39Z</time>
      </trkpt>
      <trkpt lat="42.71702" lon="1.64452">
        <ele>1715.1</ele>
        <time>2020-02-08T12:37:40Z</time>
      </trkpt>
      <trkpt lat="42.71702" lon="1.64452">
        <ele>1715.1</ele>
        <time>2020-02-08T12:37:41Z</time>
      </trkpt>
      <trkpt lat="42.71702" lon="1.64452">
        <ele>1715.1</ele>
        <time>2020-02-08T12:37:42Z</time>
      </trkpt>
      <trkpt lat="42.71702" lon="1.64452">
        <ele>1715.1</ele>
        <time>2020-02-08T12:37:43Z</time>
      </trkpt>
      <trkpt lat="42.71702" lon="1.64452">
        <ele>1715.1</ele>
        <time>2020-02-08T12:37:44Z</time>
      </trkpt>
      <trkpt lat="42.71702" lon="1.64452">
        <ele>1715.1</ele>
        <time>2020-02-08T12:37:45Z</time>
      </trkpt>
      <trkpt lat="42.71702" lon="1.64452">
        <ele>1715.1</ele>
        <time>2020-02-08T12:37:46Z</time>
      </trkpt>
      <trkpt lat="42.71702" lon="1.64452">
        <ele>1715.1</ele>
        <time>2020-02-08T12:37:47Z</time>
      </trkpt>
      <trkpt lat="42.71702" lon="1.64452">
        <ele>1715.1</ele>
        <time>2020-02-08T12:37:48Z</time>
      </trkpt>
      <trkpt lat="42.71702" lon="1.64452">
        <ele>1715.1</ele>
        <time>2020-02-08T12:37:49Z</time>
      </trkpt>
      <trkpt lat="42.71702" lon="1.64452">
        <ele>1715.1</ele>
        <time>2020-02-08T12:37:50Z</time>
      </trkpt>
      <trkpt lat="42.71702" lon="1.64452">
        <ele>1715.1</ele>
        <time>2020-02-08T12:37:51Z</time>
      </trkpt>
      <trkpt lat="42.71702" lon="1.64452">
        <ele>1715.1</ele>
        <time>2020-02-08T12:37:52Z</time>
      </trkpt>
      <trkpt lat="42.71702" lon="1.64452">
        <ele>1715.1</ele>
        <time>2020-02-08T12:37:53Z</time>
      </trkpt>
      <trkpt lat="42.71702" lon="1.64452">
        <ele>1715.1</ele>
        <time>2020-02-08T12:37:54Z</time>
      </trkpt>
      <trkpt lat="42.71702" lon="1.64452">
        <ele>1715.1</ele>
        <time>2020-02-08T12:37:55Z</time>
      </trkpt>
      <trkpt lat="42.71702" lon="1.64452">
        <ele>1715.1</ele>
        <time>2020-02-08T12:37:56Z</time>
      </trkpt>
      <trkpt lat="42.71702" lon="1.64452">
        <ele>1715.1</ele>
        <time>2020-02-08T12:37:57Z</time>
      </trkpt>
      <trkpt lat="42.71702" lon="1.64452">
        <ele>1715.1</ele>
        <time>2020-02-08T12:37:58Z</time>
      </trkpt>
      <trkpt lat="42.71702" lon="1.64452">
        <ele>1715.1</ele>
        <time>2020-02-08T12:37:59Z</time>
      </trkpt>
      <trkpt lat="42.71702" lon="1.64452">
        <ele>1715.1</ele>
        <time>2020-02-08T12:38:00Z</time>
      </trkpt>
      <trkpt lat="42.71702" lon="1.64452">
        <ele>1715.1</ele>
        <time>2020-02-08T12:38:01Z</time>
      </trkpt>
      <trkpt lat="42.71702" lon="1.64452">
        <ele>1715.1</ele>
        <time>2020-02-08T12:38:02Z</time>
      </trkpt>
      <trkpt lat="42.71702" lon="1.64452">
        <ele>1715.1</ele>
        <time>2020-02-08T12:38:03Z</time>
      </trkpt>
      <trkpt lat="42.71702" lon="1.64452">
        <ele>1715.1</ele>
        <time>2020-02-08T12:38:04Z</time>
      </trkpt>
      <trkpt lat="42.71702" lon="1.64452">
        <ele>1715.1</ele>
        <time>2020-02-08T12:38:05Z</time>
      </trkpt>
      <trkpt lat="42.71702" lon="1.64452">
        <ele>1715.1</ele>
        <time>2020-02-08T12:38:06Z</time>
      </trkpt>
      <trkpt lat="42.71702" lon="1.64452">
        <ele>1715.1</ele>
        <time>2020-02-08T12:38:07Z</time>
      </trkpt>
      <trkpt lat="42.71702" lon="1.64452">
        <ele>1715.1</ele>
        <time>2020-02-08T12:38:08Z</time>
      </trkpt>
      <trkpt lat="42.71702" lon="1.64452">
        <ele>1715.1</ele>
        <time>2020-02-08T12:38:09Z</time>
      </trkpt>
      <trkpt lat="42.71702" lon="1.64452">
        <ele>1715.1</ele>
        <time>2020-02-08T12:38:10Z</time>
      </trkpt>
      <trkpt lat="42.71702" lon="1.64452">
        <ele>1715.1</ele>
        <time>2020-02-08T12:38:11Z</time>
      </trkpt>
      <trkpt lat="42.71702" lon="1.64452">
        <ele>1715.1</ele>
        <time>2020-02-08T12:38:12Z</time>
      </trkpt>
      <trkpt lat="42.71702" lon="1.64452">
        <ele>1715.1</ele>
        <time>2020-02-08T12:38:13Z</time>
      </trkpt>
      <trkpt lat="42.71702" lon="1.64452">
        <ele>1715.1</ele>
        <time>2020-02-08T12:38:14Z</time>
      </trkpt>
      <trkpt lat="42.71702" lon="1.64452">
        <ele>1715.1</ele>
        <time>2020-02-08T12:38:15Z</time>
      </trkpt>
      <trkpt lat="42.71702" lon="1.64452">
        <ele>1715.1</ele>
        <time>2020-02-08T12:38:16Z</time>
      </trkpt>
      <trkpt lat="42.71704" lon="1.6445">
        <ele>1715.5</ele>
        <time>2020-02-08T12:38:17Z</time>
      </trkpt>
      <trkpt lat="42.71704" lon="1.6445">
        <ele>1715.5</ele>
        <time>2020-02-08T12:38:18Z</time>
      </trkpt>
      <trkpt lat="42.71704" lon="1.6445">
        <ele>1715.5</ele>
        <time>2020-02-08T12:38:19Z</time>
      </trkpt>
      <trkpt lat="42.71704" lon="1.6445">
        <ele>1715.5</ele>
        <time>2020-02-08T12:38:20Z</time>
      </trkpt>
      <trkpt lat="42.71704" lon="1.6445">
        <ele>1715.5</ele>
        <time>2020-02-08T12:38:21Z</time>
      </trkpt>
      <trkpt lat="42.71704" lon="1.6445">
        <ele>1715.5</ele>
        <time>2020-02-08T12:38:22Z</time>
      </trkpt>
      <trkpt lat="42.71704" lon="1.6445">
        <ele>1715.5</ele>
        <time>2020-02-08T12:38:23Z</time>
      </trkpt>
      <trkpt lat="42.71704" lon="1.6445">
        <ele>1715.5</ele>
        <time>2020-02-08T12:38:24Z</time>
      </trkpt>
      <trkpt lat="42.71704" lon="1.6445">
        <ele>1715.5</ele>
        <time>2020-02-08T12:38:25Z</time>
      </trkpt>
      <trkpt lat="42.71704" lon="1.6445">
        <ele>1715.5</ele>
        <time>2020-02-08T12:38:26Z</time>
      </trkpt>
      <trkpt lat="42.71704" lon="1.6445">
        <ele>1715.5</ele>
        <time>2020-02-08T12:38:27Z</time>
      </trkpt>
      <trkpt lat="42.71704" lon="1.6445">
        <ele>1715.5</ele>
        <time>2020-02-08T12:38:28Z</time>
      </trkpt>
      <trkpt lat="42.71704" lon="1.6445">
        <ele>1715.5</ele>
        <time>2020-02-08T12:38:29Z</time>
      </trkpt>
      <trkpt lat="42.71704" lon="1.6445">
        <ele>1715.5</ele>
        <time>2020-02-08T12:38:30Z</time>
      </trkpt>
      <trkpt lat="42.71704" lon="1.6445">
        <ele>1715.5</ele>
        <time>2020-02-08T12:38:31Z</time>
      </trkpt>
      <trkpt lat="42.71704" lon="1.6445">
        <ele>1715.5</ele>
        <time>2020-02-08T12:38:32Z</time>
      </trkpt>
      <trkpt lat="42.71704" lon="1.6445">
        <ele>1715.5</ele>
        <time>2020-02-08T12:38:33Z</time>
      </trkpt>
      <trkpt lat="42.71704" lon="1.6445">
        <ele>1715.5</ele>
        <time>2020-02-08T12:38:34Z</time>
      </trkpt>
      <trkpt lat="42.71704" lon="1.6445">
        <ele>1715.5</ele>
        <time>2020-02-08T12:38:35Z</time>
      </trkpt>
      <trkpt lat="42.71704" lon="1.6445">
        <ele>1715.5</ele>
        <time>2020-02-08T12:38:36Z</time>
      </trkpt>
      <trkpt lat="42.71704" lon="1.6445">
        <ele>1715.5</ele>
        <time>2020-02-08T12:38:37Z</time>
      </trkpt>
      <trkpt lat="42.71704" lon="1.6445">
        <ele>1715.5</ele>
        <time>2020-02-08T12:38:38Z</time>
      </trkpt>
      <trkpt lat="42.71704" lon="1.6445">
        <ele>1715.5</ele>
        <time>2020-02-08T12:38:39Z</time>
      </trkpt>
      <trkpt lat="42.71704" lon="1.6445">
        <ele>1715.5</ele>
        <time>2020-02-08T12:38:40Z</time>
      </trkpt>
      <trkpt lat="42.71704" lon="1.6445">
        <ele>1715.5</ele>
        <time>2020-02-08T12:38:41Z</time>
      </trkpt>
      <trkpt lat="42.71704" lon="1.6445">
        <ele>1715.5</ele>
        <time>2020-02-08T12:38:42Z</time>
      </trkpt>
      <trkpt lat="42.71704" lon="1.6445">
        <ele>1715.5</ele>
        <time>2020-02-08T12:38:43Z</time>
      </trkpt>
      <trkpt lat="42.71704" lon="1.6445">
        <ele>1715.5</ele>
        <time>2020-02-08T12:38:44Z</time>
      </trkpt>
      <trkpt lat="42.71704" lon="1.6445">
        <ele>1715.5</ele>
        <time>2020-02-08T12:38:45Z</time>
      </trkpt>
      <trkpt lat="42.71704" lon="1.6445">
        <ele>1715.5</ele>
        <time>2020-02-08T12:38:46Z</time>
      </trkpt>
      <trkpt lat="42.71704" lon="1.6445">
        <ele>1715.5</ele>
        <time>2020-02-08T12:38:47Z</time>
      </trkpt>
      <trkpt lat="42.71704" lon="1.6445">
        <ele>1715.5</ele>
        <time>2020-02-08T12:38:48Z</time>
      </trkpt>
      <trkpt lat="42.71704" lon="1.6445">
        <ele>1715.5</ele>
        <time>2020-02-08T12:38:49Z</time>
      </trkpt>
      <trkpt lat="42.71704" lon="1.6445">
        <ele>1715.5</ele>
        <time>2020-02-08T12:38:50Z</time>
      </trkpt>
      <trkpt lat="42.71704" lon="1.6445">
        <ele>1715.5</ele>
        <time>2020-02-08T12:38:51Z</time>
      </trkpt>
      <trkpt lat="42.71704" lon="1.6445">
        <ele>1715.5</ele>
        <time>2020-02-08T12:38:52Z</time>
      </trkpt>
      <trkpt lat="42.71704" lon="1.6445">
        <ele>1715.5</ele>
        <time>2020-02-08T12:38:53Z</time>
      </trkpt>
      <trkpt lat="42.71704" lon="1.6445">
        <ele>1715.5</ele>
        <time>2020-02-08T12:38:54Z</time>
      </trkpt>
      <trkpt lat="42.71704" lon="1.6445">
        <ele>1715.5</ele>
        <time>2020-02-08T12:38:55Z</time>
      </trkpt>
      <trkpt lat="42.71704" lon="1.6445">
        <ele>1715.5</ele>
        <time>2020-02-08T12:38:56Z</time>
      </trkpt>
      <trkpt lat="42.71704" lon="1.6445">
        <ele>1715.5</ele>
        <time>2020-02-08T12:38:57Z</time>
      </trkpt>
      <trkpt lat="42.71704" lon="1.6445">
        <ele>1715.5</ele>
        <time>2020-02-08T12:38:58Z</time>
      </trkpt>
      <trkpt lat="42.71704" lon="1.6445">
        <ele>1715.5</ele>
        <time>2020-02-08T12:38:59Z</time>
      </trkpt>
      <trkpt lat="42.71704" lon="1.6445">
        <ele>1715.5</ele>
        <time>2020-02-08T12:39:00Z</time>
      </trkpt>
      <trkpt lat="42.71704" lon="1.6445">
        <ele>1715.5</ele>
        <time>2020-02-08T12:39:01Z</time>
      </trkpt>
      <trkpt lat="42.71704" lon="1.6445">
        <ele>1715.5</ele>
        <time>2020-02-08T12:39:02Z</time>
      </trkpt>
      <trkpt lat="42.71704" lon="1.6445">
        <ele>1715.5</ele>
        <time>2020-02-08T12:39:03Z</time>
      </trkpt>
      <trkpt lat="42.71704" lon="1.6445">
        <ele>1715.5</ele>
        <time>2020-02-08T12:39:04Z</time>
      </trkpt>
      <trkpt lat="42.71704" lon="1.6445">
        <ele>1715.5</ele>
        <time>2020-02-08T12:39:05Z</time>
      </trkpt>
      <trkpt lat="42.71704" lon="1.6445">
        <ele>1715.5</ele>
        <time>2020-02-08T12:39:06Z</time>
      </trkpt>
      <trkpt lat="42.71704" lon="1.6445">
        <ele>1715.5</ele>
        <time>2020-02-08T12:39:07Z</time>
      </trkpt>
      <trkpt lat="42.71704" lon="1.6445">
        <ele>1715.5</ele>
        <time>2020-02-08T12:39:08Z</time>
      </trkpt>
      <trkpt lat="42.71704" lon="1.6445">
        <ele>1715.5</ele>
        <time>2020-02-08T12:39:09Z</time>
      </trkpt>
      <trkpt lat="42.71704" lon="1.6445">
        <ele>1715.5</ele>
        <time>2020-02-08T12:39:10Z</time>
      </trkpt>
      <trkpt lat="42.71704" lon="1.6445">
        <ele>1715.5</ele>
        <time>2020-02-08T12:39:11Z</time>
      </trkpt>
      <trkpt lat="42.71704" lon="1.6445">
        <ele>1715.5</ele>
        <time>2020-02-08T12:39:12Z</time>
      </trkpt>
      <trkpt lat="42.71704" lon="1.6445">
        <ele>1715.5</ele>
        <time>2020-02-08T12:39:13Z</time>
      </trkpt>
      <trkpt lat="42.71704" lon="1.6445">
        <ele>1715.5</ele>
        <time>2020-02-08T12:39:14Z</time>
      </trkpt>
      <trkpt lat="42.71704" lon="1.6445">
        <ele>1715.5</ele>
        <time>2020-02-08T12:39:15Z</time>
      </trkpt>
      <trkpt lat="42.71704" lon="1.6445">
        <ele>1715.5</ele>
        <time>2020-02-08T12:39:16Z</time>
      </trkpt>
      <trkpt lat="42.71704" lon="1.6445">
        <ele>1715.5</ele>
        <time>2020-02-08T12:39:17Z</time>
      </trkpt>
      <trkpt lat="42.71704" lon="1.6445">
        <ele>1715.5</ele>
        <time>2020-02-08T12:39:18Z</time>
      </trkpt>
      <trkpt lat="42.71704" lon="1.6445">
        <ele>1715.5</ele>
        <time>2020-02-08T12:39:19Z</time>
      </trkpt>
      <trkpt lat="42.71704" lon="1.6445">
        <ele>1715.5</ele>
        <time>2020-02-08T12:39:20Z</time>
      </trkpt>
      <trkpt lat="42.71704" lon="1.6445">
        <ele>1715.5</ele>
        <time>2020-02-08T12:39:21Z</time>
      </trkpt>
      <trkpt lat="42.71704" lon="1.6445">
        <ele>1715.5</ele>
        <time>2020-02-08T12:39:22Z</time>
      </trkpt>
      <trkpt lat="42.71704" lon="1.6445">
        <ele>1715.5</ele>
        <time>2020-02-08T12:39:23Z</time>
      </trkpt>
      <trkpt lat="42.71704" lon="1.6445">
        <ele>1715.5</ele>
        <time>2020-02-08T12:39:24Z</time>
      </trkpt>
      <trkpt lat="42.71704" lon="1.6445">
        <ele>1715.5</ele>
        <time>2020-02-08T12:39:25Z</time>
      </trkpt>
      <trkpt lat="42.71704" lon="1.6445">
        <ele>1715.5</ele>
        <time>2020-02-08T12:39:26Z</time>
      </trkpt>
      <trkpt lat="42.71704" lon="1.6445">
        <ele>1715.5</ele>
        <time>2020-02-08T12:39:27Z</time>
      </trkpt>
      <trkpt lat="42.71704" lon="1.6445">
        <ele>1715.5</ele>
        <time>2020-02-08T12:39:28Z</time>
      </trkpt>
      <trkpt lat="42.71704" lon="1.6445">
        <ele>1715.5</ele>
        <time>2020-02-08T12:39:29Z</time>
      </trkpt>
      <trkpt lat="42.71704" lon="1.6445">
        <ele>1715.5</ele>
        <time>2020-02-08T12:39:30Z</time>
      </trkpt>
      <trkpt lat="42.71704" lon="1.6445">
        <ele>1715.5</ele>
        <time>2020-02-08T12:39:31Z</time>
      </trkpt>
      <trkpt lat="42.71704" lon="1.6445">
        <ele>1715.5</ele>
        <time>2020-02-08T12:39:32Z</time>
      </trkpt>
      <trkpt lat="42.71704" lon="1.6445">
        <ele>1715.5</ele>
        <time>2020-02-08T12:39:33Z</time>
      </trkpt>
      <trkpt lat="42.71704" lon="1.6445">
        <ele>1715.5</ele>
        <time>2020-02-08T12:39:34Z</time>
      </trkpt>
      <trkpt lat="42.71704" lon="1.6445">
        <ele>1715.5</ele>
        <time>2020-02-08T12:39:35Z</time>
      </trkpt>
      <trkpt lat="42.71704" lon="1.6445">
        <ele>1715.5</ele>
        <time>2020-02-08T12:39:36Z</time>
      </trkpt>
      <trkpt lat="42.71704" lon="1.6445">
        <ele>1715.5</ele>
        <time>2020-02-08T12:39:37Z</time>
      </trkpt>
      <trkpt lat="42.71704" lon="1.6445">
        <ele>1715.5</ele>
        <time>2020-02-08T12:39:38Z</time>
      </trkpt>
      <trkpt lat="42.71704" lon="1.6445">
        <ele>1715.5</ele>
        <time>2020-02-08T12:39:39Z</time>
      </trkpt>
      <trkpt lat="42.71704" lon="1.6445">
        <ele>1715.5</ele>
        <time>2020-02-08T12:39:40Z</time>
      </trkpt>
      <trkpt lat="42.71704" lon="1.6445">
        <ele>1715.5</ele>
        <time>2020-02-08T12:39:41Z</time>
      </trkpt>
      <trkpt lat="42.71704" lon="1.6445">
        <ele>1715.5</ele>
        <time>2020-02-08T12:39:42Z</time>
      </trkpt>
      <trkpt lat="42.71704" lon="1.6445">
        <ele>1715.5</ele>
        <time>2020-02-08T12:39:43Z</time>
      </trkpt>
      <trkpt lat="42.71704" lon="1.6445">
        <ele>1715.5</ele>
        <time>2020-02-08T12:39:44Z</time>
      </trkpt>
      <trkpt lat="42.71704" lon="1.6445">
        <ele>1715.5</ele>
        <time>2020-02-08T12:39:45Z</time>
      </trkpt>
      <trkpt lat="42.71704" lon="1.6445">
        <ele>1715.5</ele>
        <time>2020-02-08T12:39:46Z</time>
      </trkpt>
      <trkpt lat="42.71704" lon="1.6445">
        <ele>1715.5</ele>
        <time>2020-02-08T12:39:47Z</time>
      </trkpt>
      <trkpt lat="42.71704" lon="1.6445">
        <ele>1715.5</ele>
        <time>2020-02-08T12:39:48Z</time>
      </trkpt>
      <trkpt lat="42.71704" lon="1.6445">
        <ele>1715.5</ele>
        <time>2020-02-08T12:39:49Z</time>
      </trkpt>
      <trkpt lat="42.71704" lon="1.6445">
        <ele>1715.5</ele>
        <time>2020-02-08T12:39:50Z</time>
      </trkpt>
      <trkpt lat="42.71704" lon="1.6445">
        <ele>1715.5</ele>
        <time>2020-02-08T12:39:51Z</time>
      </trkpt>
      <trkpt lat="42.71704" lon="1.6445">
        <ele>1715.5</ele>
        <time>2020-02-08T12:39:52Z</time>
      </trkpt>
      <trkpt lat="42.71704" lon="1.6445">
        <ele>1715.5</ele>
        <time>2020-02-08T12:39:53Z</time>
      </trkpt>
      <trkpt lat="42.71704" lon="1.6445">
        <ele>1715.5</ele>
        <time>2020-02-08T12:39:54Z</time>
      </trkpt>
      <trkpt lat="42.71704" lon="1.6445">
        <ele>1715.5</ele>
        <time>2020-02-08T12:39:55Z</time>
      </trkpt>
      <trkpt lat="42.71704" lon="1.6445">
        <ele>1715.5</ele>
        <time>2020-02-08T12:39:56Z</time>
      </trkpt>
      <trkpt lat="42.71704" lon="1.6445">
        <ele>1715.5</ele>
        <time>2020-02-08T12:39:57Z</time>
      </trkpt>
      <trkpt lat="42.71704" lon="1.6445">
        <ele>1715.5</ele>
        <time>2020-02-08T12:39:58Z</time>
      </trkpt>
      <trkpt lat="42.71704" lon="1.6445">
        <ele>1715.5</ele>
        <time>2020-02-08T12:39:59Z</time>
      </trkpt>
      <trkpt lat="42.71704" lon="1.6445">
        <ele>1715.5</ele>
        <time>2020-02-08T12:40:00Z</time>
      </trkpt>
      <trkpt lat="42.71704" lon="1.6445">
        <ele>1715.5</ele>
        <time>2020-02-08T12:40:01Z</time>
      </trkpt>
      <trkpt lat="42.71704" lon="1.6445">
        <ele>1715.5</ele>
        <time>2020-02-08T12:40:02Z</time>
      </trkpt>
      <trkpt lat="42.71704" lon="1.6445">
        <ele>1715.5</ele>
        <time>2020-02-08T12:40:03Z</time>
      </trkpt>
      <trkpt lat="42.71704" lon="1.6445">
        <ele>1715.5</ele>
        <time>2020-02-08T12:40:04Z</time>
      </trkpt>
      <trkpt lat="42.71704" lon="1.6445">
        <ele>1715.5</ele>
        <time>2020-02-08T12:40:05Z</time>
      </trkpt>
      <trkpt lat="42.71704" lon="1.6445">
        <ele>1715.5</ele>
        <time>2020-02-08T12:40:06Z</time>
      </trkpt>
      <trkpt lat="42.71704" lon="1.6445">
        <ele>1715.5</ele>
        <time>2020-02-08T12:40:07Z</time>
      </trkpt>
      <trkpt lat="42.71704" lon="1.6445">
        <ele>1715.5</ele>
        <time>2020-02-08T12:40:08Z</time>
      </trkpt>
      <trkpt lat="42.71704" lon="1.6445">
        <ele>1715.5</ele>
        <time>2020-02-08T12:40:09Z</time>
      </trkpt>
      <trkpt lat="42.71704" lon="1.6445">
        <ele>1715.5</ele>
        <time>2020-02-08T12:40:10Z</time>
      </trkpt>
      <trkpt lat="42.71704" lon="1.6445">
        <ele>1715.5</ele>
        <time>2020-02-08T12:40:11Z</time>
      </trkpt>
      <trkpt lat="42.71704" lon="1.6445">
        <ele>1715.5</ele>
        <time>2020-02-08T12:40:12Z</time>
      </trkpt>
      <trkpt lat="42.71704" lon="1.6445">
        <ele>1715.5</ele>
        <time>2020-02-08T12:40:13Z</time>
      </trkpt>
      <trkpt lat="42.71704" lon="1.6445">
        <ele>1715.5</ele>
        <time>2020-02-08T12:40:14Z</time>
      </trkpt>
      <trkpt lat="42.71704" lon="1.6445">
        <ele>1715.5</ele>
        <time>2020-02-08T12:40:15Z</time>
      </trkpt>
      <trkpt lat="42.71704" lon="1.6445">
        <ele>1715.5</ele>
        <time>2020-02-08T12:40:16Z</time>
      </trkpt>
      <trkpt lat="42.71704" lon="1.6445">
        <ele>1715.5</ele>
        <time>2020-02-08T12:40:17Z</time>
      </trkpt>
      <trkpt lat="42.71704" lon="1.6445">
        <ele>1715.5</ele>
        <time>2020-02-08T12:40:18Z</time>
      </trkpt>
      <trkpt lat="42.71704" lon="1.6445">
        <ele>1715.5</ele>
        <time>2020-02-08T12:40:19Z</time>
      </trkpt>
      <trkpt lat="42.71704" lon="1.6445">
        <ele>1715.5</ele>
        <time>2020-02-08T12:40:20Z</time>
      </trkpt>
      <trkpt lat="42.71704" lon="1.6445">
        <ele>1715.5</ele>
        <time>2020-02-08T12:40:21Z</time>
      </trkpt>
      <trkpt lat="42.71704" lon="1.6445">
        <ele>1715.5</ele>
        <time>2020-02-08T12:40:22Z</time>
      </trkpt>
      <trkpt lat="42.71704" lon="1.6445">
        <ele>1715.5</ele>
        <time>2020-02-08T12:40:23Z</time>
      </trkpt>
      <trkpt lat="42.71704" lon="1.6445">
        <ele>1715.5</ele>
        <time>2020-02-08T12:40:24Z</time>
      </trkpt>
      <trkpt lat="42.71704" lon="1.6445">
        <ele>1715.5</ele>
        <time>2020-02-08T12:40:25Z</time>
      </trkpt>
      <trkpt lat="42.71704" lon="1.6445">
        <ele>1715.5</ele>
        <time>2020-02-08T12:40:26Z</time>
      </trkpt>
      <trkpt lat="42.71704" lon="1.6445">
        <ele>1715.5</ele>
        <time>2020-02-08T12:40:27Z</time>
      </trkpt>
      <trkpt lat="42.71704" lon="1.6445">
        <ele>1715.5</ele>
        <time>2020-02-08T12:40:28Z</time>
      </trkpt>
      <trkpt lat="42.71704" lon="1.6445">
        <ele>1715.5</ele>
        <time>2020-02-08T12:40:29Z</time>
      </trkpt>
      <trkpt lat="42.71704" lon="1.6445">
        <ele>1715.5</ele>
        <time>2020-02-08T12:40:30Z</time>
      </trkpt>
      <trkpt lat="42.71704" lon="1.6445">
        <ele>1715.5</ele>
        <time>2020-02-08T12:40:31Z</time>
      </trkpt>
      <trkpt lat="42.71704" lon="1.6445">
        <ele>1715.5</ele>
        <time>2020-02-08T12:40:32Z</time>
      </trkpt>
      <trkpt lat="42.71704" lon="1.6445">
        <ele>1715.5</ele>
        <time>2020-02-08T12:40:33Z</time>
      </trkpt>
      <trkpt lat="42.71704" lon="1.6445">
        <ele>1715.5</ele>
        <time>2020-02-08T12:40:34Z</time>
      </trkpt>
      <trkpt lat="42.71704" lon="1.6445">
        <ele>1715.5</ele>
        <time>2020-02-08T12:40:35Z</time>
      </trkpt>
      <trkpt lat="42.71704" lon="1.6445">
        <ele>1715.5</ele>
        <time>2020-02-08T12:40:36Z</time>
      </trkpt>
      <trkpt lat="42.71704" lon="1.6445">
        <ele>1715.5</ele>
        <time>2020-02-08T12:40:37Z</time>
      </trkpt>
      <trkpt lat="42.71704" lon="1.6445">
        <ele>1715.5</ele>
        <time>2020-02-08T12:40:38Z</time>
      </trkpt>
      <trkpt lat="42.71704" lon="1.6445">
        <ele>1715.5</ele>
        <time>2020-02-08T12:40:39Z</time>
      </trkpt>
      <trkpt lat="42.71703" lon="1.64452">
        <ele>1715.1</ele>
        <time>2020-02-08T12:40:40Z</time>
      </trkpt>
      <trkpt lat="42.71703" lon="1.64452">
        <ele>1715.1</ele>
        <time>2020-02-08T12:40:41Z</time>
      </trkpt>
      <trkpt lat="42.71703" lon="1.64452">
        <ele>1715.1</ele>
        <time>2020-02-08T12:40:42Z</time>
      </trkpt>
      <trkpt lat="42.71703" lon="1.64452">
        <ele>1715.1</ele>
        <time>2020-02-08T12:40:43Z</time>
      </trkpt>
      <trkpt lat="42.71703" lon="1.64452">
        <ele>1715.1</ele>
        <time>2020-02-08T12:40:44Z</time>
      </trkpt>
      <trkpt lat="42.71703" lon="1.64452">
        <ele>1715.1</ele>
        <time>2020-02-08T12:40:45Z</time>
      </trkpt>
      <trkpt lat="42.71703" lon="1.64452">
        <ele>1715.1</ele>
        <time>2020-02-08T12:40:46Z</time>
      </trkpt>
      <trkpt lat="42.71703" lon="1.64452">
        <ele>1715.1</ele>
        <time>2020-02-08T12:40:47Z</time>
      </trkpt>
      <trkpt lat="42.71703" lon="1.64452">
        <ele>1715.1</ele>
        <time>2020-02-08T12:40:48Z</time>
      </trkpt>
      <trkpt lat="42.71703" lon="1.64452">
        <ele>1715.1</ele>
        <time>2020-02-08T12:40:49Z</time>
      </trkpt>
      <trkpt lat="42.71703" lon="1.64452">
        <ele>1715.1</ele>
        <time>2020-02-08T12:40:50Z</time>
      </trkpt>
      <trkpt lat="42.71703" lon="1.64452">
        <ele>1715.1</ele>
        <time>2020-02-08T12:40:51Z</time>
      </trkpt>
      <trkpt lat="42.71703" lon="1.64452">
        <ele>1715.1</ele>
        <time>2020-02-08T12:40:52Z</time>
      </trkpt>
      <trkpt lat="42.71703" lon="1.64452">
        <ele>1715.1</ele>
        <time>2020-02-08T12:40:53Z</time>
      </trkpt>
      <trkpt lat="42.71703" lon="1.64452">
        <ele>1715.1</ele>
        <time>2020-02-08T12:40:54Z</time>
      </trkpt>
      <trkpt lat="42.71703" lon="1.64452">
        <ele>1715.1</ele>
        <time>2020-02-08T12:40:55Z</time>
      </trkpt>
      <trkpt lat="42.71703" lon="1.64452">
        <ele>1715.1</ele>
        <time>2020-02-08T12:40:56Z</time>
      </trkpt>
      <trkpt lat="42.71703" lon="1.64452">
        <ele>1715.1</ele>
        <time>2020-02-08T12:40:57Z</time>
      </trkpt>
      <trkpt lat="42.71703" lon="1.64452">
        <ele>1715.1</ele>
        <time>2020-02-08T12:40:58Z</time>
      </trkpt>
      <trkpt lat="42.71703" lon="1.64452">
        <ele>1715.1</ele>
        <time>2020-02-08T12:40:59Z</time>
      </trkpt>
      <trkpt lat="42.71703" lon="1.64452">
        <ele>1715.1</ele>
        <time>2020-02-08T12:41:00Z</time>
      </trkpt>
      <trkpt lat="42.71703" lon="1.64452">
        <ele>1715.1</ele>
        <time>2020-02-08T12:41:01Z</time>
      </trkpt>
      <trkpt lat="42.71703" lon="1.64452">
        <ele>1715.1</ele>
        <time>2020-02-08T12:41:02Z</time>
      </trkpt>
      <trkpt lat="42.71703" lon="1.64452">
        <ele>1715.1</ele>
        <time>2020-02-08T12:41:03Z</time>
      </trkpt>
      <trkpt lat="42.71703" lon="1.64452">
        <ele>1715.1</ele>
        <time>2020-02-08T12:41:04Z</time>
      </trkpt>
      <trkpt lat="42.71703" lon="1.64452">
        <ele>1715.1</ele>
        <time>2020-02-08T12:41:05Z</time>
      </trkpt>
      <trkpt lat="42.71703" lon="1.64452">
        <ele>1715.1</ele>
        <time>2020-02-08T12:41:06Z</time>
      </trkpt>
      <trkpt lat="42.71703" lon="1.64452">
        <ele>1715.1</ele>
        <time>2020-02-08T12:41:07Z</time>
      </trkpt>
      <trkpt lat="42.71703" lon="1.64452">
        <ele>1715.1</ele>
        <time>2020-02-08T12:41:08Z</time>
      </trkpt>
      <trkpt lat="42.71703" lon="1.64452">
        <ele>1715.1</ele>
        <time>2020-02-08T12:41:09Z</time>
      </trkpt>
      <trkpt lat="42.71703" lon="1.64452">
        <ele>1715.1</ele>
        <time>2020-02-08T12:41:10Z</time>
      </trkpt>
      <trkpt lat="42.71703" lon="1.64452">
        <ele>1715.1</ele>
        <time>2020-02-08T12:41:11Z</time>
      </trkpt>
      <trkpt lat="42.71703" lon="1.64452">
        <ele>1715.1</ele>
        <time>2020-02-08T12:41:12Z</time>
      </trkpt>
      <trkpt lat="42.71703" lon="1.64452">
        <ele>1715.1</ele>
        <time>2020-02-08T12:41:13Z</time>
      </trkpt>
      <trkpt lat="42.71703" lon="1.64452">
        <ele>1715.1</ele>
        <time>2020-02-08T12:41:14Z</time>
      </trkpt>
      <trkpt lat="42.71703" lon="1.64452">
        <ele>1715.1</ele>
        <time>2020-02-08T12:41:15Z</time>
      </trkpt>
      <trkpt lat="42.71703" lon="1.64452">
        <ele>1715.1</ele>
        <time>2020-02-08T12:41:16Z</time>
      </trkpt>
      <trkpt lat="42.71703" lon="1.64452">
        <ele>1715.1</ele>
        <time>2020-02-08T12:41:17Z</time>
      </trkpt>
      <trkpt lat="42.71703" lon="1.64452">
        <ele>1715.1</ele>
        <time>2020-02-08T12:41:18Z</time>
      </trkpt>
      <trkpt lat="42.71703" lon="1.64452">
        <ele>1715.1</ele>
        <time>2020-02-08T12:41:19Z</time>
      </trkpt>
      <trkpt lat="42.71703" lon="1.64452">
        <ele>1715.1</ele>
        <time>2020-02-08T12:41:20Z</time>
      </trkpt>
      <trkpt lat="42.71703" lon="1.64452">
        <ele>1715.1</ele>
        <time>2020-02-08T12:41:21Z</time>
      </trkpt>
      <trkpt lat="42.71703" lon="1.64452">
        <ele>1715.1</ele>
        <time>2020-02-08T12:41:22Z</time>
      </trkpt>
      <trkpt lat="42.71703" lon="1.64452">
        <ele>1715.1</ele>
        <time>2020-02-08T12:41:23Z</time>
      </trkpt>
      <trkpt lat="42.71703" lon="1.64452">
        <ele>1715.1</ele>
        <time>2020-02-08T12:41:24Z</time>
      </trkpt>
      <trkpt lat="42.71703" lon="1.64452">
        <ele>1715.1</ele>
        <time>2020-02-08T12:41:25Z</time>
      </trkpt>
      <trkpt lat="42.71703" lon="1.64452">
        <ele>1715.1</ele>
        <time>2020-02-08T12:41:26Z</time>
      </trkpt>
      <trkpt lat="42.71703" lon="1.64452">
        <ele>1715.1</ele>
        <time>2020-02-08T12:41:27Z</time>
      </trkpt>
      <trkpt lat="42.71703" lon="1.64452">
        <ele>1715.1</ele>
        <time>2020-02-08T12:41:28Z</time>
      </trkpt>
      <trkpt lat="42.71703" lon="1.64452">
        <ele>1715.1</ele>
        <time>2020-02-08T12:41:29Z</time>
      </trkpt>
      <trkpt lat="42.71703" lon="1.64452">
        <ele>1715.1</ele>
        <time>2020-02-08T12:41:30Z</time>
      </trkpt>
      <trkpt lat="42.71703" lon="1.64452">
        <ele>1715.1</ele>
        <time>2020-02-08T12:41:31Z</time>
      </trkpt>
      <trkpt lat="42.71703" lon="1.64452">
        <ele>1715.1</ele>
        <time>2020-02-08T12:41:32Z</time>
      </trkpt>
      <trkpt lat="42.71703" lon="1.64452">
        <ele>1715.1</ele>
        <time>2020-02-08T12:41:33Z</time>
      </trkpt>
      <trkpt lat="42.71703" lon="1.64452">
        <ele>1715.1</ele>
        <time>2020-02-08T12:41:34Z</time>
      </trkpt>
      <trkpt lat="42.71703" lon="1.64452">
        <ele>1715.1</ele>
        <time>2020-02-08T12:41:35Z</time>
      </trkpt>
      <trkpt lat="42.71703" lon="1.64452">
        <ele>1715.1</ele>
        <time>2020-02-08T12:41:36Z</time>
      </trkpt>
      <trkpt lat="42.71703" lon="1.64452">
        <ele>1715.1</ele>
        <time>2020-02-08T12:41:37Z</time>
      </trkpt>
      <trkpt lat="42.71703" lon="1.64452">
        <ele>1715.1</ele>
        <time>2020-02-08T12:41:38Z</time>
      </trkpt>
      <trkpt lat="42.71703" lon="1.64452">
        <ele>1715.1</ele>
        <time>2020-02-08T12:41:39Z</time>
      </trkpt>
      <trkpt lat="42.71703" lon="1.64452">
        <ele>1715.1</ele>
        <time>2020-02-08T12:41:40Z</time>
      </trkpt>
      <trkpt lat="42.71703" lon="1.64452">
        <ele>1715.1</ele>
        <time>2020-02-08T12:41:41Z</time>
      </trkpt>
      <trkpt lat="42.71703" lon="1.64452">
        <ele>1715.1</ele>
        <time>2020-02-08T12:41:42Z</time>
      </trkpt>
      <trkpt lat="42.71703" lon="1.64452">
        <ele>1715.1</ele>
        <time>2020-02-08T12:41:43Z</time>
      </trkpt>
      <trkpt lat="42.71703" lon="1.64452">
        <ele>1715.1</ele>
        <time>2020-02-08T12:41:44Z</time>
      </trkpt>
      <trkpt lat="42.71703" lon="1.64452">
        <ele>1715.1</ele>
        <time>2020-02-08T12:41:45Z</time>
      </trkpt>
      <trkpt lat="42.71703" lon="1.64452">
        <ele>1715.1</ele>
        <time>2020-02-08T12:41:46Z</time>
      </trkpt>
      <trkpt lat="42.71703" lon="1.64452">
        <ele>1715.1</ele>
        <time>2020-02-08T12:41:47Z</time>
      </trkpt>
      <trkpt lat="42.71703" lon="1.64452">
        <ele>1715.1</ele>
        <time>2020-02-08T12:41:48Z</time>
      </trkpt>
      <trkpt lat="42.71703" lon="1.64452">
        <ele>1715.1</ele>
        <time>2020-02-08T12:41:49Z</time>
      </trkpt>
      <trkpt lat="42.71703" lon="1.64452">
        <ele>1715.1</ele>
        <time>2020-02-08T12:41:50Z</time>
      </trkpt>
      <trkpt lat="42.71703" lon="1.64452">
        <ele>1715.1</ele>
        <time>2020-02-08T12:41:51Z</time>
      </trkpt>
      <trkpt lat="42.71703" lon="1.64452">
        <ele>1715.1</ele>
        <time>2020-02-08T12:41:52Z</time>
      </trkpt>
      <trkpt lat="42.71703" lon="1.64452">
        <ele>1715.1</ele>
        <time>2020-02-08T12:41:53Z</time>
      </trkpt>
      <trkpt lat="42.71703" lon="1.64452">
        <ele>1715.1</ele>
        <time>2020-02-08T12:41:54Z</time>
      </trkpt>
      <trkpt lat="42.71703" lon="1.64452">
        <ele>1715.1</ele>
        <time>2020-02-08T12:41:55Z</time>
      </trkpt>
      <trkpt lat="42.71703" lon="1.64452">
        <ele>1715.1</ele>
        <time>2020-02-08T12:41:56Z</time>
      </trkpt>
      <trkpt lat="42.71703" lon="1.64452">
        <ele>1715.1</ele>
        <time>2020-02-08T12:41:57Z</time>
      </trkpt>
      <trkpt lat="42.71703" lon="1.64452">
        <ele>1715.1</ele>
        <time>2020-02-08T12:41:58Z</time>
      </trkpt>
      <trkpt lat="42.71703" lon="1.64452">
        <ele>1715.1</ele>
        <time>2020-02-08T12:41:59Z</time>
      </trkpt>
      <trkpt lat="42.71703" lon="1.64452">
        <ele>1715.1</ele>
        <time>2020-02-08T12:42:00Z</time>
      </trkpt>
      <trkpt lat="42.71703" lon="1.64452">
        <ele>1715.1</ele>
        <time>2020-02-08T12:42:01Z</time>
      </trkpt>
      <trkpt lat="42.71703" lon="1.64452">
        <ele>1715.1</ele>
        <time>2020-02-08T12:42:02Z</time>
      </trkpt>
      <trkpt lat="42.71703" lon="1.64452">
        <ele>1715.1</ele>
        <time>2020-02-08T12:42:03Z</time>
      </trkpt>
      <trkpt lat="42.71703" lon="1.64452">
        <ele>1715.1</ele>
        <time>2020-02-08T12:42:04Z</time>
      </trkpt>
      <trkpt lat="42.71703" lon="1.64452">
        <ele>1715.1</ele>
        <time>2020-02-08T12:42:05Z</time>
      </trkpt>
      <trkpt lat="42.71703" lon="1.64452">
        <ele>1715.1</ele>
        <time>2020-02-08T12:42:06Z</time>
      </trkpt>
      <trkpt lat="42.71703" lon="1.64452">
        <ele>1715.1</ele>
        <time>2020-02-08T12:42:07Z</time>
      </trkpt>
      <trkpt lat="42.71703" lon="1.64452">
        <ele>1715.1</ele>
        <time>2020-02-08T12:42:08Z</time>
      </trkpt>
      <trkpt lat="42.71703" lon="1.64452">
        <ele>1715.1</ele>
        <time>2020-02-08T12:42:09Z</time>
      </trkpt>
      <trkpt lat="42.71703" lon="1.64452">
        <ele>1715.1</ele>
        <time>2020-02-08T12:42:10Z</time>
      </trkpt>
      <trkpt lat="42.71703" lon="1.64452">
        <ele>1715.1</ele>
        <time>2020-02-08T12:42:11Z</time>
      </trkpt>
      <trkpt lat="42.71703" lon="1.64452">
        <ele>1715.1</ele>
        <time>2020-02-08T12:42:12Z</time>
      </trkpt>
      <trkpt lat="42.71703" lon="1.64452">
        <ele>1715.1</ele>
        <time>2020-02-08T12:42:13Z</time>
      </trkpt>
      <trkpt lat="42.71703" lon="1.64452">
        <ele>1715.1</ele>
        <time>2020-02-08T12:42:14Z</time>
      </trkpt>
      <trkpt lat="42.71703" lon="1.64452">
        <ele>1715.1</ele>
        <time>2020-02-08T12:42:15Z</time>
      </trkpt>
      <trkpt lat="42.71703" lon="1.64452">
        <ele>1715.1</ele>
        <time>2020-02-08T12:42:16Z</time>
      </trkpt>
      <trkpt lat="42.71703" lon="1.64452">
        <ele>1715.1</ele>
        <time>2020-02-08T12:42:17Z</time>
      </trkpt>
      <trkpt lat="42.71703" lon="1.64452">
        <ele>1715.1</ele>
        <time>2020-02-08T12:42:18Z</time>
      </trkpt>
      <trkpt lat="42.71703" lon="1.64452">
        <ele>1715.1</ele>
        <time>2020-02-08T12:42:19Z</time>
      </trkpt>
      <trkpt lat="42.71703" lon="1.64452">
        <ele>1715.1</ele>
        <time>2020-02-08T12:42:20Z</time>
      </trkpt>
      <trkpt lat="42.71703" lon="1.64452">
        <ele>1715.1</ele>
        <time>2020-02-08T12:42:21Z</time>
      </trkpt>
      <trkpt lat="42.71703" lon="1.64452">
        <ele>1715.1</ele>
        <time>2020-02-08T12:42:22Z</time>
      </trkpt>
      <trkpt lat="42.71703" lon="1.64452">
        <ele>1715.1</ele>
        <time>2020-02-08T12:42:23Z</time>
      </trkpt>
      <trkpt lat="42.71703" lon="1.64452">
        <ele>1715.1</ele>
        <time>2020-02-08T12:42:24Z</time>
      </trkpt>
      <trkpt lat="42.71703" lon="1.64452">
        <ele>1715.1</ele>
        <time>2020-02-08T12:42:25Z</time>
      </trkpt>
      <trkpt lat="42.71703" lon="1.64452">
        <ele>1715.1</ele>
        <time>2020-02-08T12:42:26Z</time>
      </trkpt>
      <trkpt lat="42.71703" lon="1.64452">
        <ele>1715.1</ele>
        <time>2020-02-08T12:42:27Z</time>
      </trkpt>
      <trkpt lat="42.71703" lon="1.64452">
        <ele>1715.1</ele>
        <time>2020-02-08T12:42:28Z</time>
      </trkpt>
      <trkpt lat="42.71703" lon="1.64452">
        <ele>1715.1</ele>
        <time>2020-02-08T12:42:29Z</time>
      </trkpt>
      <trkpt lat="42.71703" lon="1.64452">
        <ele>1715.1</ele>
        <time>2020-02-08T12:42:30Z</time>
      </trkpt>
      <trkpt lat="42.71703" lon="1.64452">
        <ele>1715.1</ele>
        <time>2020-02-08T12:42:31Z</time>
      </trkpt>
      <trkpt lat="42.71703" lon="1.64452">
        <ele>1715.1</ele>
        <time>2020-02-08T12:42:32Z</time>
      </trkpt>
      <trkpt lat="42.71703" lon="1.64452">
        <ele>1715.1</ele>
        <time>2020-02-08T12:42:33Z</time>
      </trkpt>
      <trkpt lat="42.71703" lon="1.64452">
        <ele>1715.1</ele>
        <time>2020-02-08T12:42:34Z</time>
      </trkpt>
      <trkpt lat="42.71703" lon="1.64452">
        <ele>1715.1</ele>
        <time>2020-02-08T12:42:35Z</time>
      </trkpt>
      <trkpt lat="42.71703" lon="1.64452">
        <ele>1715.1</ele>
        <time>2020-02-08T12:42:36Z</time>
      </trkpt>
      <trkpt lat="42.71703" lon="1.64452">
        <ele>1715.1</ele>
        <time>2020-02-08T12:42:37Z</time>
      </trkpt>
      <trkpt lat="42.71703" lon="1.64452">
        <ele>1715.1</ele>
        <time>2020-02-08T12:42:38Z</time>
      </trkpt>
      <trkpt lat="42.71703" lon="1.64452">
        <ele>1715.1</ele>
        <time>2020-02-08T12:42:39Z</time>
      </trkpt>
      <trkpt lat="42.71703" lon="1.64452">
        <ele>1715.1</ele>
        <time>2020-02-08T12:42:40Z</time>
      </trkpt>
      <trkpt lat="42.71703" lon="1.64452">
        <ele>1715.1</ele>
        <time>2020-02-08T12:42:41Z</time>
      </trkpt>
      <trkpt lat="42.71703" lon="1.64452">
        <ele>1715.1</ele>
        <time>2020-02-08T12:42:42Z</time>
      </trkpt>
      <trkpt lat="42.71703" lon="1.64452">
        <ele>1715.1</ele>
        <time>2020-02-08T12:42:43Z</time>
      </trkpt>
      <trkpt lat="42.71703" lon="1.64452">
        <ele>1715.1</ele>
        <time>2020-02-08T12:42:44Z</time>
      </trkpt>
      <trkpt lat="42.71703" lon="1.64452">
        <ele>1715.1</ele>
        <time>2020-02-08T12:42:45Z</time>
      </trkpt>
      <trkpt lat="42.71703" lon="1.64452">
        <ele>1715.1</ele>
        <time>2020-02-08T12:42:46Z</time>
      </trkpt>
      <trkpt lat="42.71703" lon="1.64452">
        <ele>1715.1</ele>
        <time>2020-02-08T12:42:47Z</time>
      </trkpt>
      <trkpt lat="42.71703" lon="1.64452">
        <ele>1715.1</ele>
        <time>2020-02-08T12:42:48Z</time>
      </trkpt>
      <trkpt lat="42.71703" lon="1.64452">
        <ele>1715.1</ele>
        <time>2020-02-08T12:42:49Z</time>
      </trkpt>
      <trkpt lat="42.71703" lon="1.64452">
        <ele>1715.1</ele>
        <time>2020-02-08T12:42:50Z</time>
      </trkpt>
      <trkpt lat="42.71703" lon="1.64452">
        <ele>1715.1</ele>
        <time>2020-02-08T12:42:51Z</time>
      </trkpt>
      <trkpt lat="42.71703" lon="1.64452">
        <ele>1715.1</ele>
        <time>2020-02-08T12:42:52Z</time>
      </trkpt>
      <trkpt lat="42.71703" lon="1.64452">
        <ele>1715.1</ele>
        <time>2020-02-08T12:42:53Z</time>
      </trkpt>
      <trkpt lat="42.71703" lon="1.64452">
        <ele>1715.1</ele>
        <time>2020-02-08T12:42:54Z</time>
      </trkpt>
      <trkpt lat="42.71703" lon="1.64452">
        <ele>1715.1</ele>
        <time>2020-02-08T12:42:55Z</time>
      </trkpt>
      <trkpt lat="42.71703" lon="1.64452">
        <ele>1715.1</ele>
        <time>2020-02-08T12:42:56Z</time>
      </trkpt>
      <trkpt lat="42.71703" lon="1.64452">
        <ele>1715.1</ele>
        <time>2020-02-08T12:42:57Z</time>
      </trkpt>
      <trkpt lat="42.71703" lon="1.64452">
        <ele>1715.1</ele>
        <time>2020-02-08T12:42:58Z</time>
      </trkpt>
      <trkpt lat="42.71703" lon="1.64452">
        <ele>1715.1</ele>
        <time>2020-02-08T12:42:59Z</time>
      </trkpt>
      <trkpt lat="42.71703" lon="1.64452">
        <ele>1715.1</ele>
        <time>2020-02-08T12:43:00Z</time>
      </trkpt>
      <trkpt lat="42.71703" lon="1.64452">
        <ele>1715.1</ele>
        <time>2020-02-08T12:43:01Z</time>
      </trkpt>
      <trkpt lat="42.71703" lon="1.64452">
        <ele>1715.1</ele>
        <time>2020-02-08T12:43:02Z</time>
      </trkpt>
      <trkpt lat="42.71703" lon="1.64452">
        <ele>1715.1</ele>
        <time>2020-02-08T12:43:03Z</time>
      </trkpt>
      <trkpt lat="42.71703" lon="1.64452">
        <ele>1715.1</ele>
        <time>2020-02-08T12:43:04Z</time>
      </trkpt>
      <trkpt lat="42.71703" lon="1.64452">
        <ele>1715.1</ele>
        <time>2020-02-08T12:43:05Z</time>
      </trkpt>
      <trkpt lat="42.71703" lon="1.64452">
        <ele>1715.1</ele>
        <time>2020-02-08T12:43:06Z</time>
      </trkpt>
      <trkpt lat="42.71703" lon="1.64452">
        <ele>1715.1</ele>
        <time>2020-02-08T12:43:07Z</time>
      </trkpt>
      <trkpt lat="42.71703" lon="1.64452">
        <ele>1715.1</ele>
        <time>2020-02-08T12:43:08Z</time>
      </trkpt>
      <trkpt lat="42.71703" lon="1.64452">
        <ele>1715.1</ele>
        <time>2020-02-08T12:43:09Z</time>
      </trkpt>
      <trkpt lat="42.71703" lon="1.64452">
        <ele>1715.1</ele>
        <time>2020-02-08T12:43:10Z</time>
      </trkpt>
      <trkpt lat="42.71703" lon="1.64452">
        <ele>1715.1</ele>
        <time>2020-02-08T12:43:11Z</time>
      </trkpt>
      <trkpt lat="42.71703" lon="1.64452">
        <ele>1715.1</ele>
        <time>2020-02-08T12:43:12Z</time>
      </trkpt>
      <trkpt lat="42.71703" lon="1.64452">
        <ele>1715.1</ele>
        <time>2020-02-08T12:43:13Z</time>
      </trkpt>
      <trkpt lat="42.71703" lon="1.64452">
        <ele>1715.1</ele>
        <time>2020-02-08T12:43:14Z</time>
      </trkpt>
      <trkpt lat="42.71703" lon="1.64452">
        <ele>1715.1</ele>
        <time>2020-02-08T12:43:15Z</time>
      </trkpt>
      <trkpt lat="42.71703" lon="1.64452">
        <ele>1715.1</ele>
        <time>2020-02-08T12:43:16Z</time>
      </trkpt>
      <trkpt lat="42.71703" lon="1.64452">
        <ele>1715.1</ele>
        <time>2020-02-08T12:43:17Z</time>
      </trkpt>
      <trkpt lat="42.71703" lon="1.64452">
        <ele>1715.1</ele>
        <time>2020-02-08T12:43:18Z</time>
      </trkpt>
      <trkpt lat="42.71703" lon="1.64452">
        <ele>1715.1</ele>
        <time>2020-02-08T12:43:19Z</time>
      </trkpt>
      <trkpt lat="42.71703" lon="1.64452">
        <ele>1715.1</ele>
        <time>2020-02-08T12:43:20Z</time>
      </trkpt>
      <trkpt lat="42.71703" lon="1.64452">
        <ele>1715.1</ele>
        <time>2020-02-08T12:43:21Z</time>
      </trkpt>
      <trkpt lat="42.71703" lon="1.64452">
        <ele>1715.1</ele>
        <time>2020-02-08T12:43:22Z</time>
      </trkpt>
      <trkpt lat="42.71703" lon="1.64452">
        <ele>1715.1</ele>
        <time>2020-02-08T12:43:23Z</time>
      </trkpt>
      <trkpt lat="42.71703" lon="1.64452">
        <ele>1715.1</ele>
        <time>2020-02-08T12:43:24Z</time>
      </trkpt>
      <trkpt lat="42.71703" lon="1.64452">
        <ele>1715.1</ele>
        <time>2020-02-08T12:43:25Z</time>
      </trkpt>
      <trkpt lat="42.71703" lon="1.64452">
        <ele>1715.1</ele>
        <time>2020-02-08T12:43:26Z</time>
      </trkpt>
      <trkpt lat="42.71703" lon="1.64452">
        <ele>1715.1</ele>
        <time>2020-02-08T12:43:27Z</time>
      </trkpt>
      <trkpt lat="42.71703" lon="1.64452">
        <ele>1715.1</ele>
        <time>2020-02-08T12:43:28Z</time>
      </trkpt>
      <trkpt lat="42.71703" lon="1.64452">
        <ele>1715.1</ele>
        <time>2020-02-08T12:43:29Z</time>
      </trkpt>
      <trkpt lat="42.71703" lon="1.64452">
        <ele>1715.1</ele>
        <time>2020-02-08T12:43:30Z</time>
      </trkpt>
      <trkpt lat="42.71701" lon="1.64451">
        <ele>1715.5</ele>
        <time>2020-02-08T12:43:31Z</time>
      </trkpt>
      <trkpt lat="42.71701" lon="1.64451">
        <ele>1715.5</ele>
        <time>2020-02-08T12:43:32Z</time>
      </trkpt>
      <trkpt lat="42.71701" lon="1.64451">
        <ele>1715.5</ele>
        <time>2020-02-08T12:43:33Z</time>
      </trkpt>
      <trkpt lat="42.71701" lon="1.64451">
        <ele>1715.5</ele>
        <time>2020-02-08T12:43:34Z</time>
      </trkpt>
      <trkpt lat="42.71701" lon="1.64451">
        <ele>1715.5</ele>
        <time>2020-02-08T12:43:35Z</time>
      </trkpt>
      <trkpt lat="42.71701" lon="1.64451">
        <ele>1715.5</ele>
        <time>2020-02-08T12:43:36Z</time>
      </trkpt>
      <trkpt lat="42.71701" lon="1.64451">
        <ele>1715.5</ele>
        <time>2020-02-08T12:43:37Z</time>
      </trkpt>
      <trkpt lat="42.71701" lon="1.64451">
        <ele>1715.5</ele>
        <time>2020-02-08T12:43:38Z</time>
      </trkpt>
      <trkpt lat="42.71701" lon="1.64451">
        <ele>1715.5</ele>
        <time>2020-02-08T12:43:39Z</time>
      </trkpt>
      <trkpt lat="42.71701" lon="1.64451">
        <ele>1715.5</ele>
        <time>2020-02-08T12:43:40Z</time>
      </trkpt>
      <trkpt lat="42.71701" lon="1.64451">
        <ele>1715.5</ele>
        <time>2020-02-08T12:43:41Z</time>
      </trkpt>
      <trkpt lat="42.71701" lon="1.64451">
        <ele>1715.5</ele>
        <time>2020-02-08T12:43:42Z</time>
      </trkpt>
      <trkpt lat="42.71701" lon="1.64451">
        <ele>1715.5</ele>
        <time>2020-02-08T12:43:43Z</time>
      </trkpt>
      <trkpt lat="42.71701" lon="1.64451">
        <ele>1715.5</ele>
        <time>2020-02-08T12:43:44Z</time>
      </trkpt>
      <trkpt lat="42.71701" lon="1.64451">
        <ele>1715.5</ele>
        <time>2020-02-08T12:43:45Z</time>
      </trkpt>
      <trkpt lat="42.71701" lon="1.64451">
        <ele>1715.5</ele>
        <time>2020-02-08T12:43:46Z</time>
      </trkpt>
      <trkpt lat="42.71701" lon="1.64451">
        <ele>1715.5</ele>
        <time>2020-02-08T12:43:47Z</time>
      </trkpt>
      <trkpt lat="42.71701" lon="1.64451">
        <ele>1715.5</ele>
        <time>2020-02-08T12:43:48Z</time>
      </trkpt>
      <trkpt lat="42.71701" lon="1.64451">
        <ele>1715.5</ele>
        <time>2020-02-08T12:43:49Z</time>
      </trkpt>
      <trkpt lat="42.71701" lon="1.64451">
        <ele>1715.5</ele>
        <time>2020-02-08T12:43:50Z</time>
      </trkpt>
      <trkpt lat="42.71701" lon="1.64451">
        <ele>1715.5</ele>
        <time>2020-02-08T12:43:51Z</time>
      </trkpt>
      <trkpt lat="42.71701" lon="1.64451">
        <ele>1715.5</ele>
        <time>2020-02-08T12:43:52Z</time>
      </trkpt>
      <trkpt lat="42.71701" lon="1.64451">
        <ele>1715.5</ele>
        <time>2020-02-08T12:43:53Z</time>
      </trkpt>
      <trkpt lat="42.71701" lon="1.64451">
        <ele>1715.5</ele>
        <time>2020-02-08T12:43:54Z</time>
      </trkpt>
      <trkpt lat="42.71701" lon="1.64451">
        <ele>1715.5</ele>
        <time>2020-02-08T12:43:55Z</time>
      </trkpt>
      <trkpt lat="42.71701" lon="1.64451">
        <ele>1715.5</ele>
        <time>2020-02-08T12:43:56Z</time>
      </trkpt>
      <trkpt lat="42.71701" lon="1.64451">
        <ele>1715.5</ele>
        <time>2020-02-08T12:43:57Z</time>
      </trkpt>
      <trkpt lat="42.71701" lon="1.64451">
        <ele>1715.5</ele>
        <time>2020-02-08T12:43:58Z</time>
      </trkpt>
      <trkpt lat="42.71701" lon="1.64451">
        <ele>1715.5</ele>
        <time>2020-02-08T12:43:59Z</time>
      </trkpt>
      <trkpt lat="42.71701" lon="1.64451">
        <ele>1715.5</ele>
        <time>2020-02-08T12:44:00Z</time>
      </trkpt>
      <trkpt lat="42.71701" lon="1.64451">
        <ele>1715.5</ele>
        <time>2020-02-08T12:44:01Z</time>
      </trkpt>
      <trkpt lat="42.71701" lon="1.64451">
        <ele>1715.5</ele>
        <time>2020-02-08T12:44:02Z</time>
      </trkpt>
      <trkpt lat="42.71701" lon="1.64451">
        <ele>1715.5</ele>
        <time>2020-02-08T12:44:03Z</time>
      </trkpt>
      <trkpt lat="42.71701" lon="1.64451">
        <ele>1715.5</ele>
        <time>2020-02-08T12:44:04Z</time>
      </trkpt>
      <trkpt lat="42.71701" lon="1.64451">
        <ele>1715.5</ele>
        <time>2020-02-08T12:44:05Z</time>
      </trkpt>
      <trkpt lat="42.71701" lon="1.64451">
        <ele>1715.5</ele>
        <time>2020-02-08T12:44:06Z</time>
      </trkpt>
      <trkpt lat="42.71701" lon="1.64451">
        <ele>1715.5</ele>
        <time>2020-02-08T12:44:07Z</time>
      </trkpt>
      <trkpt lat="42.71701" lon="1.64451">
        <ele>1715.5</ele>
        <time>2020-02-08T12:44:08Z</time>
      </trkpt>
      <trkpt lat="42.71701" lon="1.64451">
        <ele>1715.5</ele>
        <time>2020-02-08T12:44:09Z</time>
      </trkpt>
      <trkpt lat="42.71701" lon="1.64451">
        <ele>1715.5</ele>
        <time>2020-02-08T12:44:10Z</time>
      </trkpt>
      <trkpt lat="42.71701" lon="1.64451">
        <ele>1715.5</ele>
        <time>2020-02-08T12:44:11Z</time>
      </trkpt>
      <trkpt lat="42.71701" lon="1.64451">
        <ele>1715.5</ele>
        <time>2020-02-08T12:44:12Z</time>
      </trkpt>
      <trkpt lat="42.71701" lon="1.64451">
        <ele>1715.5</ele>
        <time>2020-02-08T12:44:13Z</time>
      </trkpt>
      <trkpt lat="42.71701" lon="1.64451">
        <ele>1715.5</ele>
        <time>2020-02-08T12:44:14Z</time>
      </trkpt>
      <trkpt lat="42.71701" lon="1.64451">
        <ele>1715.5</ele>
        <time>2020-02-08T12:44:15Z</time>
      </trkpt>
      <trkpt lat="42.71701" lon="1.64451">
        <ele>1715.5</ele>
        <time>2020-02-08T12:44:16Z</time>
      </trkpt>
      <trkpt lat="42.71701" lon="1.64451">
        <ele>1715.5</ele>
        <time>2020-02-08T12:44:17Z</time>
      </trkpt>
      <trkpt lat="42.71701" lon="1.64451">
        <ele>1715.5</ele>
        <time>2020-02-08T12:44:18Z</time>
      </trkpt>
      <trkpt lat="42.71701" lon="1.64451">
        <ele>1715.5</ele>
        <time>2020-02-08T12:44:19Z</time>
      </trkpt>
      <trkpt lat="42.71701" lon="1.64451">
        <ele>1715.5</ele>
        <time>2020-02-08T12:44:20Z</time>
      </trkpt>
      <trkpt lat="42.71701" lon="1.64451">
        <ele>1715.5</ele>
        <time>2020-02-08T12:44:21Z</time>
      </trkpt>
      <trkpt lat="42.71701" lon="1.64451">
        <ele>1715.5</ele>
        <time>2020-02-08T12:44:22Z</time>
      </trkpt>
      <trkpt lat="42.71701" lon="1.64451">
        <ele>1715.5</ele>
        <time>2020-02-08T12:44:23Z</time>
      </trkpt>
      <trkpt lat="42.71701" lon="1.64451">
        <ele>1715.5</ele>
        <time>2020-02-08T12:44:24Z</time>
      </trkpt>
      <trkpt lat="42.71701" lon="1.64451">
        <ele>1715.5</ele>
        <time>2020-02-08T12:44:25Z</time>
      </trkpt>
      <trkpt lat="42.71701" lon="1.64451">
        <ele>1715.5</ele>
        <time>2020-02-08T12:44:26Z</time>
      </trkpt>
      <trkpt lat="42.71701" lon="1.64451">
        <ele>1715.5</ele>
        <time>2020-02-08T12:44:27Z</time>
      </trkpt>
      <trkpt lat="42.71701" lon="1.64451">
        <ele>1715.5</ele>
        <time>2020-02-08T12:44:28Z</time>
      </trkpt>
      <trkpt lat="42.71701" lon="1.64451">
        <ele>1715.5</ele>
        <time>2020-02-08T12:44:29Z</time>
      </trkpt>
      <trkpt lat="42.71701" lon="1.64451">
        <ele>1715.5</ele>
        <time>2020-02-08T12:44:30Z</time>
      </trkpt>
      <trkpt lat="42.71701" lon="1.64451">
        <ele>1715.5</ele>
        <time>2020-02-08T12:44:31Z</time>
      </trkpt>
      <trkpt lat="42.71701" lon="1.64451">
        <ele>1715.5</ele>
        <time>2020-02-08T12:44:32Z</time>
      </trkpt>
      <trkpt lat="42.71701" lon="1.64451">
        <ele>1715.5</ele>
        <time>2020-02-08T12:44:33Z</time>
      </trkpt>
      <trkpt lat="42.71701" lon="1.64451">
        <ele>1715.5</ele>
        <time>2020-02-08T12:44:34Z</time>
      </trkpt>
      <trkpt lat="42.71701" lon="1.64451">
        <ele>1715.5</ele>
        <time>2020-02-08T12:44:35Z</time>
      </trkpt>
      <trkpt lat="42.71701" lon="1.64451">
        <ele>1715.5</ele>
        <time>2020-02-08T12:44:36Z</time>
      </trkpt>
      <trkpt lat="42.71701" lon="1.64451">
        <ele>1715.5</ele>
        <time>2020-02-08T12:44:37Z</time>
      </trkpt>
      <trkpt lat="42.71701" lon="1.64451">
        <ele>1715.5</ele>
        <time>2020-02-08T12:44:38Z</time>
      </trkpt>
      <trkpt lat="42.71701" lon="1.64451">
        <ele>1715.5</ele>
        <time>2020-02-08T12:44:39Z</time>
      </trkpt>
      <trkpt lat="42.71701" lon="1.64451">
        <ele>1715.5</ele>
        <time>2020-02-08T12:44:40Z</time>
      </trkpt>
      <trkpt lat="42.71701" lon="1.64451">
        <ele>1715.5</ele>
        <time>2020-02-08T12:44:41Z</time>
      </trkpt>
      <trkpt lat="42.71701" lon="1.64451">
        <ele>1715.5</ele>
        <time>2020-02-08T12:44:42Z</time>
      </trkpt>
      <trkpt lat="42.71701" lon="1.64451">
        <ele>1715.5</ele>
        <time>2020-02-08T12:44:43Z</time>
      </trkpt>
      <trkpt lat="42.71701" lon="1.64451">
        <ele>1715.5</ele>
        <time>2020-02-08T12:44:44Z</time>
      </trkpt>
      <trkpt lat="42.71701" lon="1.64451">
        <ele>1715.5</ele>
        <time>2020-02-08T12:44:45Z</time>
      </trkpt>
      <trkpt lat="42.71701" lon="1.64451">
        <ele>1715.5</ele>
        <time>2020-02-08T12:44:46Z</time>
      </trkpt>
      <trkpt lat="42.71701" lon="1.64451">
        <ele>1715.5</ele>
        <time>2020-02-08T12:44:47Z</time>
      </trkpt>
      <trkpt lat="42.71701" lon="1.64451">
        <ele>1715.5</ele>
        <time>2020-02-08T12:44:48Z</time>
      </trkpt>
      <trkpt lat="42.71701" lon="1.64451">
        <ele>1715.5</ele>
        <time>2020-02-08T12:44:49Z</time>
      </trkpt>
      <trkpt lat="42.71701" lon="1.64451">
        <ele>1715.5</ele>
        <time>2020-02-08T12:44:50Z</time>
      </trkpt>
      <trkpt lat="42.71701" lon="1.64451">
        <ele>1715.5</ele>
        <time>2020-02-08T12:44:51Z</time>
      </trkpt>
      <trkpt lat="42.71701" lon="1.64451">
        <ele>1715.5</ele>
        <time>2020-02-08T12:44:52Z</time>
      </trkpt>
      <trkpt lat="42.71701" lon="1.64451">
        <ele>1715.5</ele>
        <time>2020-02-08T12:44:53Z</time>
      </trkpt>
      <trkpt lat="42.71701" lon="1.64451">
        <ele>1715.5</ele>
        <time>2020-02-08T12:44:54Z</time>
      </trkpt>
      <trkpt lat="42.71701" lon="1.64451">
        <ele>1715.5</ele>
        <time>2020-02-08T12:44:55Z</time>
      </trkpt>
      <trkpt lat="42.71701" lon="1.64451">
        <ele>1715.5</ele>
        <time>2020-02-08T12:44:56Z</time>
      </trkpt>
      <trkpt lat="42.71701" lon="1.64451">
        <ele>1715.5</ele>
        <time>2020-02-08T12:44:57Z</time>
      </trkpt>
      <trkpt lat="42.71701" lon="1.64451">
        <ele>1715.5</ele>
        <time>2020-02-08T12:44:58Z</time>
      </trkpt>
      <trkpt lat="42.71701" lon="1.64451">
        <ele>1715.5</ele>
        <time>2020-02-08T12:44:59Z</time>
      </trkpt>
      <trkpt lat="42.71701" lon="1.64451">
        <ele>1715.5</ele>
        <time>2020-02-08T12:45:00Z</time>
      </trkpt>
      <trkpt lat="42.71701" lon="1.64451">
        <ele>1715.5</ele>
        <time>2020-02-08T12:45:01Z</time>
      </trkpt>
      <trkpt lat="42.71701" lon="1.64451">
        <ele>1715.5</ele>
        <time>2020-02-08T12:45:02Z</time>
      </trkpt>
      <trkpt lat="42.71701" lon="1.64451">
        <ele>1715.5</ele>
        <time>2020-02-08T12:45:03Z</time>
      </trkpt>
      <trkpt lat="42.71701" lon="1.64451">
        <ele>1715.5</ele>
        <time>2020-02-08T12:45:04Z</time>
      </trkpt>
      <trkpt lat="42.71701" lon="1.64451">
        <ele>1715.5</ele>
        <time>2020-02-08T12:45:05Z</time>
      </trkpt>
      <trkpt lat="42.71701" lon="1.64451">
        <ele>1715.5</ele>
        <time>2020-02-08T12:45:06Z</time>
      </trkpt>
      <trkpt lat="42.71701" lon="1.64451">
        <ele>1715.5</ele>
        <time>2020-02-08T12:45:07Z</time>
      </trkpt>
      <trkpt lat="42.71701" lon="1.64451">
        <ele>1715.5</ele>
        <time>2020-02-08T12:45:08Z</time>
      </trkpt>
      <trkpt lat="42.71701" lon="1.64451">
        <ele>1715.5</ele>
        <time>2020-02-08T12:45:09Z</time>
      </trkpt>
      <trkpt lat="42.71701" lon="1.64451">
        <ele>1715.5</ele>
        <time>2020-02-08T12:45:10Z</time>
      </trkpt>
      <trkpt lat="42.71701" lon="1.64451">
        <ele>1715.5</ele>
        <time>2020-02-08T12:45:11Z</time>
      </trkpt>
      <trkpt lat="42.71701" lon="1.64451">
        <ele>1715.5</ele>
        <time>2020-02-08T12:45:12Z</time>
      </trkpt>
      <trkpt lat="42.71701" lon="1.64451">
        <ele>1715.5</ele>
        <time>2020-02-08T12:45:13Z</time>
      </trkpt>
      <trkpt lat="42.71701" lon="1.64451">
        <ele>1715.5</ele>
        <time>2020-02-08T12:45:14Z</time>
      </trkpt>
      <trkpt lat="42.71701" lon="1.64451">
        <ele>1715.5</ele>
        <time>2020-02-08T12:45:15Z</time>
      </trkpt>
      <trkpt lat="42.71701" lon="1.64451">
        <ele>1715.5</ele>
        <time>2020-02-08T12:45:16Z</time>
      </trkpt>
      <trkpt lat="42.71701" lon="1.64451">
        <ele>1715.5</ele>
        <time>2020-02-08T12:45:17Z</time>
      </trkpt>
      <trkpt lat="42.71701" lon="1.64451">
        <ele>1715.5</ele>
        <time>2020-02-08T12:45:18Z</time>
      </trkpt>
      <trkpt lat="42.71701" lon="1.64451">
        <ele>1715.5</ele>
        <time>2020-02-08T12:45:19Z</time>
      </trkpt>
      <trkpt lat="42.71701" lon="1.64451">
        <ele>1715.5</ele>
        <time>2020-02-08T12:45:20Z</time>
      </trkpt>
      <trkpt lat="42.71701" lon="1.64451">
        <ele>1715.5</ele>
        <time>2020-02-08T12:45:21Z</time>
      </trkpt>
      <trkpt lat="42.71701" lon="1.64451">
        <ele>1715.5</ele>
        <time>2020-02-08T12:45:22Z</time>
      </trkpt>
      <trkpt lat="42.71701" lon="1.64451">
        <ele>1715.5</ele>
        <time>2020-02-08T12:45:23Z</time>
      </trkpt>
      <trkpt lat="42.71701" lon="1.64451">
        <ele>1715.5</ele>
        <time>2020-02-08T12:45:24Z</time>
      </trkpt>
      <trkpt lat="42.71701" lon="1.64451">
        <ele>1715.5</ele>
        <time>2020-02-08T12:45:25Z</time>
      </trkpt>
      <trkpt lat="42.71701" lon="1.64451">
        <ele>1715.5</ele>
        <time>2020-02-08T12:45:26Z</time>
      </trkpt>
      <trkpt lat="42.71701" lon="1.64451">
        <ele>1715.5</ele>
        <time>2020-02-08T12:45:27Z</time>
      </trkpt>
      <trkpt lat="42.71701" lon="1.64451">
        <ele>1715.5</ele>
        <time>2020-02-08T12:45:28Z</time>
      </trkpt>
      <trkpt lat="42.71701" lon="1.64451">
        <ele>1715.5</ele>
        <time>2020-02-08T12:45:29Z</time>
      </trkpt>
      <trkpt lat="42.71701" lon="1.64451">
        <ele>1715.5</ele>
        <time>2020-02-08T12:45:30Z</time>
      </trkpt>
      <trkpt lat="42.71701" lon="1.64451">
        <ele>1715.5</ele>
        <time>2020-02-08T12:45:31Z</time>
      </trkpt>
      <trkpt lat="42.71701" lon="1.64451">
        <ele>1715.5</ele>
        <time>2020-02-08T12:45:32Z</time>
      </trkpt>
      <trkpt lat="42.71701" lon="1.64451">
        <ele>1715.5</ele>
        <time>2020-02-08T12:45:33Z</time>
      </trkpt>
      <trkpt lat="42.71701" lon="1.64451">
        <ele>1715.5</ele>
        <time>2020-02-08T12:45:34Z</time>
      </trkpt>
      <trkpt lat="42.71701" lon="1.64451">
        <ele>1715.5</ele>
        <time>2020-02-08T12:45:35Z</time>
      </trkpt>
      <trkpt lat="42.71701" lon="1.64451">
        <ele>1715.5</ele>
        <time>2020-02-08T12:45:36Z</time>
      </trkpt>
      <trkpt lat="42.71701" lon="1.64451">
        <ele>1715.5</ele>
        <time>2020-02-08T12:45:37Z</time>
      </trkpt>
      <trkpt lat="42.71701" lon="1.64451">
        <ele>1715.5</ele>
        <time>2020-02-08T12:45:38Z</time>
      </trkpt>
      <trkpt lat="42.71701" lon="1.64451">
        <ele>1715.5</ele>
        <time>2020-02-08T12:45:39Z</time>
      </trkpt>
      <trkpt lat="42.71701" lon="1.64451">
        <ele>1715.5</ele>
        <time>2020-02-08T12:45:40Z</time>
      </trkpt>
      <trkpt lat="42.71701" lon="1.64451">
        <ele>1715.5</ele>
        <time>2020-02-08T12:45:41Z</time>
      </trkpt>
      <trkpt lat="42.71701" lon="1.64451">
        <ele>1715.5</ele>
        <time>2020-02-08T12:45:42Z</time>
      </trkpt>
      <trkpt lat="42.71701" lon="1.64451">
        <ele>1715.5</ele>
        <time>2020-02-08T12:45:43Z</time>
      </trkpt>
      <trkpt lat="42.71701" lon="1.64451">
        <ele>1715.5</ele>
        <time>2020-02-08T12:45:44Z</time>
      </trkpt>
      <trkpt lat="42.71701" lon="1.64451">
        <ele>1715.5</ele>
        <time>2020-02-08T12:45:45Z</time>
      </trkpt>
      <trkpt lat="42.71701" lon="1.64451">
        <ele>1715.5</ele>
        <time>2020-02-08T12:45:46Z</time>
      </trkpt>
      <trkpt lat="42.71701" lon="1.64451">
        <ele>1715.5</ele>
        <time>2020-02-08T12:45:47Z</time>
      </trkpt>
      <trkpt lat="42.71701" lon="1.64451">
        <ele>1715.5</ele>
        <time>2020-02-08T12:45:48Z</time>
      </trkpt>
      <trkpt lat="42.71701" lon="1.64451">
        <ele>1715.5</ele>
        <time>2020-02-08T12:45:49Z</time>
      </trkpt>
      <trkpt lat="42.71701" lon="1.64451">
        <ele>1715.5</ele>
        <time>2020-02-08T12:45:50Z</time>
      </trkpt>
      <trkpt lat="42.71701" lon="1.64451">
        <ele>1715.5</ele>
        <time>2020-02-08T12:45:51Z</time>
      </trkpt>
      <trkpt lat="42.71701" lon="1.64451">
        <ele>1715.5</ele>
        <time>2020-02-08T12:45:52Z</time>
      </trkpt>
      <trkpt lat="42.71701" lon="1.64451">
        <ele>1715.5</ele>
        <time>2020-02-08T12:45:53Z</time>
      </trkpt>
      <trkpt lat="42.71701" lon="1.64451">
        <ele>1715.5</ele>
        <time>2020-02-08T12:45:54Z</time>
      </trkpt>
      <trkpt lat="42.71701" lon="1.64451">
        <ele>1715.5</ele>
        <time>2020-02-08T12:45:55Z</time>
      </trkpt>
      <trkpt lat="42.71701" lon="1.64451">
        <ele>1715.5</ele>
        <time>2020-02-08T12:45:56Z</time>
      </trkpt>
      <trkpt lat="42.71701" lon="1.64451">
        <ele>1715.5</ele>
        <time>2020-02-08T12:45:57Z</time>
      </trkpt>
      <trkpt lat="42.71701" lon="1.64451">
        <ele>1715.5</ele>
        <time>2020-02-08T12:45:58Z</time>
      </trkpt>
      <trkpt lat="42.71701" lon="1.64451">
        <ele>1715.5</ele>
        <time>2020-02-08T12:45:59Z</time>
      </trkpt>
      <trkpt lat="42.71701" lon="1.64451">
        <ele>1715.5</ele>
        <time>2020-02-08T12:46:00Z</time>
      </trkpt>
      <trkpt lat="42.71701" lon="1.64451">
        <ele>1715.5</ele>
        <time>2020-02-08T12:46:01Z</time>
      </trkpt>
      <trkpt lat="42.71701" lon="1.64451">
        <ele>1715.5</ele>
        <time>2020-02-08T12:46:02Z</time>
      </trkpt>
      <trkpt lat="42.71701" lon="1.64451">
        <ele>1715.5</ele>
        <time>2020-02-08T12:46:03Z</time>
      </trkpt>
      <trkpt lat="42.71701" lon="1.64451">
        <ele>1715.5</ele>
        <time>2020-02-08T12:46:04Z</time>
      </trkpt>
      <trkpt lat="42.71701" lon="1.64451">
        <ele>1715.5</ele>
        <time>2020-02-08T12:46:05Z</time>
      </trkpt>
      <trkpt lat="42.71701" lon="1.64451">
        <ele>1715.5</ele>
        <time>2020-02-08T12:46:06Z</time>
      </trkpt>
      <trkpt lat="42.71701" lon="1.64451">
        <ele>1715.5</ele>
        <time>2020-02-08T12:46:07Z</time>
      </trkpt>
      <trkpt lat="42.71701" lon="1.64451">
        <ele>1715.5</ele>
        <time>2020-02-08T12:46:08Z</time>
      </trkpt>
      <trkpt lat="42.71701" lon="1.64451">
        <ele>1715.5</ele>
        <time>2020-02-08T12:46:09Z</time>
      </trkpt>
      <trkpt lat="42.71701" lon="1.64451">
        <ele>1715.5</ele>
        <time>2020-02-08T12:46:10Z</time>
      </trkpt>
      <trkpt lat="42.71701" lon="1.64451">
        <ele>1715.5</ele>
        <time>2020-02-08T12:46:11Z</time>
      </trkpt>
      <trkpt lat="42.71701" lon="1.64451">
        <ele>1715.5</ele>
        <time>2020-02-08T12:46:12Z</time>
      </trkpt>
      <trkpt lat="42.71701" lon="1.64451">
        <ele>1715.5</ele>
        <time>2020-02-08T12:46:13Z</time>
      </trkpt>
      <trkpt lat="42.71701" lon="1.64451">
        <ele>1715.5</ele>
        <time>2020-02-08T12:46:14Z</time>
      </trkpt>
      <trkpt lat="42.71701" lon="1.64451">
        <ele>1715.5</ele>
        <time>2020-02-08T12:46:15Z</time>
      </trkpt>
      <trkpt lat="42.71701" lon="1.64451">
        <ele>1715.5</ele>
        <time>2020-02-08T12:46:16Z</time>
      </trkpt>
      <trkpt lat="42.71701" lon="1.64451">
        <ele>1715.5</ele>
        <time>2020-02-08T12:46:17Z</time>
      </trkpt>
      <trkpt lat="42.71701" lon="1.64451">
        <ele>1715.5</ele>
        <time>2020-02-08T12:46:18Z</time>
      </trkpt>
      <trkpt lat="42.71701" lon="1.64451">
        <ele>1715.5</ele>
        <time>2020-02-08T12:46:19Z</time>
      </trkpt>
      <trkpt lat="42.71701" lon="1.64451">
        <ele>1715.5</ele>
        <time>2020-02-08T12:46:20Z</time>
      </trkpt>
      <trkpt lat="42.71701" lon="1.64451">
        <ele>1715.5</ele>
        <time>2020-02-08T12:46:21Z</time>
      </trkpt>
      <trkpt lat="42.71701" lon="1.64451">
        <ele>1715.5</ele>
        <time>2020-02-08T12:46:22Z</time>
      </trkpt>
      <trkpt lat="42.71701" lon="1.64451">
        <ele>1715.5</ele>
        <time>2020-02-08T12:46:23Z</time>
      </trkpt>
      <trkpt lat="42.71701" lon="1.64451">
        <ele>1715.5</ele>
        <time>2020-02-08T12:46:24Z</time>
      </trkpt>
      <trkpt lat="42.71701" lon="1.64451">
        <ele>1715.5</ele>
        <time>2020-02-08T12:46:25Z</time>
      </trkpt>
      <trkpt lat="42.71701" lon="1.64451">
        <ele>1715.5</ele>
        <time>2020-02-08T12:46:26Z</time>
      </trkpt>
      <trkpt lat="42.71701" lon="1.64451">
        <ele>1715.5</ele>
        <time>2020-02-08T12:46:27Z</time>
      </trkpt>
      <trkpt lat="42.71701" lon="1.64451">
        <ele>1715.5</ele>
        <time>2020-02-08T12:46:28Z</time>
      </trkpt>
      <trkpt lat="42.71701" lon="1.64451">
        <ele>1715.5</ele>
        <time>2020-02-08T12:46:29Z</time>
      </trkpt>
      <trkpt lat="42.71701" lon="1.64451">
        <ele>1715.5</ele>
        <time>2020-02-08T12:46:30Z</time>
      </trkpt>
      <trkpt lat="42.71701" lon="1.64451">
        <ele>1715.5</ele>
        <time>2020-02-08T12:46:31Z</time>
      </trkpt>
      <trkpt lat="42.71701" lon="1.64451">
        <ele>1715.5</ele>
        <time>2020-02-08T12:46:32Z</time>
      </trkpt>
      <trkpt lat="42.71701" lon="1.64451">
        <ele>1715.5</ele>
        <time>2020-02-08T12:46:33Z</time>
      </trkpt>
      <trkpt lat="42.71701" lon="1.64451">
        <ele>1715.5</ele>
        <time>2020-02-08T12:46:34Z</time>
      </trkpt>
      <trkpt lat="42.71701" lon="1.64451">
        <ele>1715.5</ele>
        <time>2020-02-08T12:46:35Z</time>
      </trkpt>
      <trkpt lat="42.71701" lon="1.64451">
        <ele>1715.5</ele>
        <time>2020-02-08T12:46:36Z</time>
      </trkpt>
      <trkpt lat="42.71701" lon="1.64451">
        <ele>1715.5</ele>
        <time>2020-02-08T12:46:37Z</time>
      </trkpt>
      <trkpt lat="42.71701" lon="1.64451">
        <ele>1715.5</ele>
        <time>2020-02-08T12:46:38Z</time>
      </trkpt>
      <trkpt lat="42.71701" lon="1.64451">
        <ele>1715.5</ele>
        <time>2020-02-08T12:46:39Z</time>
      </trkpt>
      <trkpt lat="42.71701" lon="1.64451">
        <ele>1715.5</ele>
        <time>2020-02-08T12:46:40Z</time>
      </trkpt>
      <trkpt lat="42.71701" lon="1.64451">
        <ele>1715.5</ele>
        <time>2020-02-08T12:46:41Z</time>
      </trkpt>
      <trkpt lat="42.71701" lon="1.64451">
        <ele>1715.5</ele>
        <time>2020-02-08T12:46:42Z</time>
      </trkpt>
      <trkpt lat="42.71701" lon="1.64451">
        <ele>1715.5</ele>
        <time>2020-02-08T12:46:43Z</time>
      </trkpt>
      <trkpt lat="42.71701" lon="1.64451">
        <ele>1715.5</ele>
        <time>2020-02-08T12:46:44Z</time>
      </trkpt>
      <trkpt lat="42.71701" lon="1.64451">
        <ele>1715.5</ele>
        <time>2020-02-08T12:46:45Z</time>
      </trkpt>
      <trkpt lat="42.71701" lon="1.64451">
        <ele>1715.5</ele>
        <time>2020-02-08T12:46:46Z</time>
      </trkpt>
      <trkpt lat="42.71701" lon="1.64451">
        <ele>1715.5</ele>
        <time>2020-02-08T12:46:47Z</time>
      </trkpt>
      <trkpt lat="42.71701" lon="1.64451">
        <ele>1715.5</ele>
        <time>2020-02-08T12:46:48Z</time>
      </trkpt>
      <trkpt lat="42.71701" lon="1.64451">
        <ele>1715.5</ele>
        <time>2020-02-08T12:46:49Z</time>
      </trkpt>
      <trkpt lat="42.71701" lon="1.64451">
        <ele>1715.5</ele>
        <time>2020-02-08T12:46:50Z</time>
      </trkpt>
      <trkpt lat="42.71701" lon="1.64451">
        <ele>1715.5</ele>
        <time>2020-02-08T12:46:51Z</time>
      </trkpt>
      <trkpt lat="42.71701" lon="1.64451">
        <ele>1715.5</ele>
        <time>2020-02-08T12:46:52Z</time>
      </trkpt>
      <trkpt lat="42.71701" lon="1.64451">
        <ele>1715.5</ele>
        <time>2020-02-08T12:46:53Z</time>
      </trkpt>
      <trkpt lat="42.71701" lon="1.64451">
        <ele>1715.5</ele>
        <time>2020-02-08T12:46:54Z</time>
      </trkpt>
      <trkpt lat="42.71701" lon="1.64451">
        <ele>1715.5</ele>
        <time>2020-02-08T12:46:55Z</time>
      </trkpt>
      <trkpt lat="42.71701" lon="1.64451">
        <ele>1715.5</ele>
        <time>2020-02-08T12:46:56Z</time>
      </trkpt>
      <trkpt lat="42.71701" lon="1.64451">
        <ele>1715.5</ele>
        <time>2020-02-08T12:46:57Z</time>
      </trkpt>
      <trkpt lat="42.71701" lon="1.64451">
        <ele>1715.5</ele>
        <time>2020-02-08T12:46:58Z</time>
      </trkpt>
      <trkpt lat="42.71701" lon="1.64451">
        <ele>1715.5</ele>
        <time>2020-02-08T12:46:59Z</time>
      </trkpt>
      <trkpt lat="42.71701" lon="1.64451">
        <ele>1715.5</ele>
        <time>2020-02-08T12:47:00Z</time>
      </trkpt>
      <trkpt lat="42.71701" lon="1.64451">
        <ele>1715.5</ele>
        <time>2020-02-08T12:47:01Z</time>
      </trkpt>
      <trkpt lat="42.71701" lon="1.64451">
        <ele>1715.5</ele>
        <time>2020-02-08T12:47:02Z</time>
      </trkpt>
      <trkpt lat="42.71701" lon="1.64451">
        <ele>1715.5</ele>
        <time>2020-02-08T12:47:03Z</time>
      </trkpt>
      <trkpt lat="42.71701" lon="1.64451">
        <ele>1715.5</ele>
        <time>2020-02-08T12:47:04Z</time>
      </trkpt>
      <trkpt lat="42.71701" lon="1.64451">
        <ele>1715.5</ele>
        <time>2020-02-08T12:47:05Z</time>
      </trkpt>
      <trkpt lat="42.71701" lon="1.64451">
        <ele>1715.5</ele>
        <time>2020-02-08T12:47:06Z</time>
      </trkpt>
      <trkpt lat="42.71701" lon="1.64451">
        <ele>1715.5</ele>
        <time>2020-02-08T12:47:07Z</time>
      </trkpt>
      <trkpt lat="42.71701" lon="1.64451">
        <ele>1715.5</ele>
        <time>2020-02-08T12:47:08Z</time>
      </trkpt>
      <trkpt lat="42.71701" lon="1.64451">
        <ele>1715.5</ele>
        <time>2020-02-08T12:47:09Z</time>
      </trkpt>
      <trkpt lat="42.71701" lon="1.64451">
        <ele>1715.5</ele>
        <time>2020-02-08T12:47:10Z</time>
      </trkpt>
      <trkpt lat="42.71701" lon="1.64451">
        <ele>1715.5</ele>
        <time>2020-02-08T12:47:11Z</time>
      </trkpt>
      <trkpt lat="42.71701" lon="1.64451">
        <ele>1715.5</ele>
        <time>2020-02-08T12:47:12Z</time>
      </trkpt>
      <trkpt lat="42.71701" lon="1.64451">
        <ele>1715.5</ele>
        <time>2020-02-08T12:47:13Z</time>
      </trkpt>
      <trkpt lat="42.71701" lon="1.64451">
        <ele>1715.5</ele>
        <time>2020-02-08T12:47:14Z</time>
      </trkpt>
      <trkpt lat="42.71701" lon="1.64451">
        <ele>1715.5</ele>
        <time>2020-02-08T12:47:15Z</time>
      </trkpt>
      <trkpt lat="42.71701" lon="1.64451">
        <ele>1715.5</ele>
        <time>2020-02-08T12:47:16Z</time>
      </trkpt>
      <trkpt lat="42.71701" lon="1.64451">
        <ele>1715.5</ele>
        <time>2020-02-08T12:47:17Z</time>
      </trkpt>
      <trkpt lat="42.71701" lon="1.64451">
        <ele>1715.5</ele>
        <time>2020-02-08T12:47:18Z</time>
      </trkpt>
      <trkpt lat="42.71701" lon="1.64451">
        <ele>1715.5</ele>
        <time>2020-02-08T12:47:19Z</time>
      </trkpt>
      <trkpt lat="42.71701" lon="1.64451">
        <ele>1715.5</ele>
        <time>2020-02-08T12:47:20Z</time>
      </trkpt>
      <trkpt lat="42.71701" lon="1.64451">
        <ele>1715.5</ele>
        <time>2020-02-08T12:47:21Z</time>
      </trkpt>
      <trkpt lat="42.71701" lon="1.64451">
        <ele>1715.5</ele>
        <time>2020-02-08T12:47:22Z</time>
      </trkpt>
      <trkpt lat="42.71701" lon="1.64451">
        <ele>1715.5</ele>
        <time>2020-02-08T12:47:23Z</time>
      </trkpt>
      <trkpt lat="42.71701" lon="1.64451">
        <ele>1715.5</ele>
        <time>2020-02-08T12:47:24Z</time>
      </trkpt>
      <trkpt lat="42.71701" lon="1.64451">
        <ele>1715.5</ele>
        <time>2020-02-08T12:47:25Z</time>
      </trkpt>
      <trkpt lat="42.71702" lon="1.64453">
        <ele>1715.1</ele>
        <time>2020-02-08T12:47:26Z</time>
      </trkpt>
      <trkpt lat="42.71702" lon="1.64453">
        <ele>1715.1</ele>
        <time>2020-02-08T12:47:27Z</time>
      </trkpt>
      <trkpt lat="42.71702" lon="1.64453">
        <ele>1715.1</ele>
        <time>2020-02-08T12:47:28Z</time>
      </trkpt>
      <trkpt lat="42.71702" lon="1.64453">
        <ele>1715.1</ele>
        <time>2020-02-08T12:47:29Z</time>
      </trkpt>
      <trkpt lat="42.71702" lon="1.64453">
        <ele>1715.1</ele>
        <time>2020-02-08T12:47:30Z</time>
      </trkpt>
      <trkpt lat="42.71702" lon="1.64453">
        <ele>1715.1</ele>
        <time>2020-02-08T12:47:31Z</time>
      </trkpt>
      <trkpt lat="42.71702" lon="1.64453">
        <ele>1715.1</ele>
        <time>2020-02-08T12:47:32Z</time>
      </trkpt>
      <trkpt lat="42.71702" lon="1.64453">
        <ele>1715.1</ele>
        <time>2020-02-08T12:47:33Z</time>
      </trkpt>
      <trkpt lat="42.71702" lon="1.64453">
        <ele>1715.1</ele>
        <time>2020-02-08T12:47:34Z</time>
      </trkpt>
      <trkpt lat="42.71702" lon="1.64453">
        <ele>1715.1</ele>
        <time>2020-02-08T12:47:35Z</time>
      </trkpt>
      <trkpt lat="42.71702" lon="1.64453">
        <ele>1715.1</ele>
        <time>2020-02-08T12:47:36Z</time>
      </trkpt>
      <trkpt lat="42.71702" lon="1.64453">
        <ele>1715.1</ele>
        <time>2020-02-08T12:47:37Z</time>
      </trkpt>
      <trkpt lat="42.71702" lon="1.64453">
        <ele>1715.1</ele>
        <time>2020-02-08T12:47:38Z</time>
      </trkpt>
      <trkpt lat="42.71702" lon="1.64453">
        <ele>1715.1</ele>
        <time>2020-02-08T12:47:39Z</time>
      </trkpt>
      <trkpt lat="42.71702" lon="1.64453">
        <ele>1715.1</ele>
        <time>2020-02-08T12:47:40Z</time>
      </trkpt>
      <trkpt lat="42.71702" lon="1.64453">
        <ele>1715.1</ele>
        <time>2020-02-08T12:47:41Z</time>
      </trkpt>
      <trkpt lat="42.71702" lon="1.64453">
        <ele>1715.1</ele>
        <time>2020-02-08T12:47:42Z</time>
      </trkpt>
      <trkpt lat="42.71702" lon="1.64453">
        <ele>1715.1</ele>
        <time>2020-02-08T12:47:43Z</time>
      </trkpt>
      <trkpt lat="42.71702" lon="1.64453">
        <ele>1715.1</ele>
        <time>2020-02-08T12:47:44Z</time>
      </trkpt>
      <trkpt lat="42.71702" lon="1.64453">
        <ele>1715.1</ele>
        <time>2020-02-08T12:47:45Z</time>
      </trkpt>
      <trkpt lat="42.71702" lon="1.64453">
        <ele>1715.1</ele>
        <time>2020-02-08T12:47:46Z</time>
      </trkpt>
      <trkpt lat="42.71702" lon="1.64453">
        <ele>1715.1</ele>
        <time>2020-02-08T12:47:47Z</time>
      </trkpt>
      <trkpt lat="42.71702" lon="1.64453">
        <ele>1715.1</ele>
        <time>2020-02-08T12:47:48Z</time>
      </trkpt>
      <trkpt lat="42.71702" lon="1.64453">
        <ele>1715.1</ele>
        <time>2020-02-08T12:47:49Z</time>
      </trkpt>
      <trkpt lat="42.71702" lon="1.64453">
        <ele>1715.1</ele>
        <time>2020-02-08T12:47:50Z</time>
      </trkpt>
      <trkpt lat="42.71702" lon="1.64453">
        <ele>1715.1</ele>
        <time>2020-02-08T12:47:51Z</time>
      </trkpt>
      <trkpt lat="42.71702" lon="1.64453">
        <ele>1715.1</ele>
        <time>2020-02-08T12:47:52Z</time>
      </trkpt>
      <trkpt lat="42.71702" lon="1.64453">
        <ele>1715.1</ele>
        <time>2020-02-08T12:47:53Z</time>
      </trkpt>
      <trkpt lat="42.71702" lon="1.64453">
        <ele>1715.1</ele>
        <time>2020-02-08T12:47:54Z</time>
      </trkpt>
      <trkpt lat="42.71702" lon="1.64453">
        <ele>1715.1</ele>
        <time>2020-02-08T12:47:55Z</time>
      </trkpt>
      <trkpt lat="42.71702" lon="1.64453">
        <ele>1715.1</ele>
        <time>2020-02-08T12:47:56Z</time>
      </trkpt>
      <trkpt lat="42.71702" lon="1.64453">
        <ele>1715.1</ele>
        <time>2020-02-08T12:47:57Z</time>
      </trkpt>
      <trkpt lat="42.71702" lon="1.64453">
        <ele>1715.1</ele>
        <time>2020-02-08T12:47:58Z</time>
      </trkpt>
      <trkpt lat="42.71702" lon="1.64453">
        <ele>1715.1</ele>
        <time>2020-02-08T12:47:59Z</time>
      </trkpt>
      <trkpt lat="42.71702" lon="1.64453">
        <ele>1715.1</ele>
        <time>2020-02-08T12:48:00Z</time>
      </trkpt>
      <trkpt lat="42.71702" lon="1.64453">
        <ele>1715.1</ele>
        <time>2020-02-08T12:48:01Z</time>
      </trkpt>
      <trkpt lat="42.71702" lon="1.64453">
        <ele>1715.1</ele>
        <time>2020-02-08T12:48:02Z</time>
      </trkpt>
      <trkpt lat="42.71702" lon="1.64453">
        <ele>1715.1</ele>
        <time>2020-02-08T12:48:03Z</time>
      </trkpt>
      <trkpt lat="42.71702" lon="1.64453">
        <ele>1715.1</ele>
        <time>2020-02-08T12:48:04Z</time>
      </trkpt>
      <trkpt lat="42.71702" lon="1.64453">
        <ele>1715.1</ele>
        <time>2020-02-08T12:48:05Z</time>
      </trkpt>
      <trkpt lat="42.71702" lon="1.64453">
        <ele>1715.1</ele>
        <time>2020-02-08T12:48:06Z</time>
      </trkpt>
      <trkpt lat="42.71702" lon="1.64453">
        <ele>1715.1</ele>
        <time>2020-02-08T12:48:07Z</time>
      </trkpt>
      <trkpt lat="42.71702" lon="1.64453">
        <ele>1715.1</ele>
        <time>2020-02-08T12:48:08Z</time>
      </trkpt>
      <trkpt lat="42.71702" lon="1.64453">
        <ele>1715.1</ele>
        <time>2020-02-08T12:48:09Z</time>
      </trkpt>
      <trkpt lat="42.71702" lon="1.64453">
        <ele>1715.1</ele>
        <time>2020-02-08T12:48:10Z</time>
      </trkpt>
      <trkpt lat="42.71702" lon="1.64453">
        <ele>1715.1</ele>
        <time>2020-02-08T12:48:11Z</time>
      </trkpt>
      <trkpt lat="42.71702" lon="1.64453">
        <ele>1715.1</ele>
        <time>2020-02-08T12:48:12Z</time>
      </trkpt>
      <trkpt lat="42.71702" lon="1.64453">
        <ele>1715.1</ele>
        <time>2020-02-08T12:48:13Z</time>
      </trkpt>
      <trkpt lat="42.71702" lon="1.64453">
        <ele>1715.1</ele>
        <time>2020-02-08T12:48:14Z</time>
      </trkpt>
      <trkpt lat="42.71702" lon="1.64453">
        <ele>1715.1</ele>
        <time>2020-02-08T12:48:15Z</time>
      </trkpt>
      <trkpt lat="42.71702" lon="1.64453">
        <ele>1715.1</ele>
        <time>2020-02-08T12:48:16Z</time>
      </trkpt>
      <trkpt lat="42.71702" lon="1.64453">
        <ele>1715.1</ele>
        <time>2020-02-08T12:48:17Z</time>
      </trkpt>
      <trkpt lat="42.71702" lon="1.64453">
        <ele>1715.1</ele>
        <time>2020-02-08T12:48:18Z</time>
      </trkpt>
      <trkpt lat="42.71702" lon="1.64453">
        <ele>1715.1</ele>
        <time>2020-02-08T12:48:19Z</time>
      </trkpt>
      <trkpt lat="42.71702" lon="1.64453">
        <ele>1715.1</ele>
        <time>2020-02-08T12:48:20Z</time>
      </trkpt>
      <trkpt lat="42.71702" lon="1.64453">
        <ele>1715.1</ele>
        <time>2020-02-08T12:48:21Z</time>
      </trkpt>
      <trkpt lat="42.71702" lon="1.64453">
        <ele>1715.1</ele>
        <time>2020-02-08T12:48:22Z</time>
      </trkpt>
      <trkpt lat="42.71702" lon="1.64453">
        <ele>1715.1</ele>
        <time>2020-02-08T12:48:23Z</time>
      </trkpt>
      <trkpt lat="42.71702" lon="1.64453">
        <ele>1715.1</ele>
        <time>2020-02-08T12:48:24Z</time>
      </trkpt>
      <trkpt lat="42.71702" lon="1.64453">
        <ele>1715.1</ele>
        <time>2020-02-08T12:48:25Z</time>
      </trkpt>
      <trkpt lat="42.71702" lon="1.64453">
        <ele>1715.1</ele>
        <time>2020-02-08T12:48:26Z</time>
      </trkpt>
      <trkpt lat="42.71702" lon="1.64453">
        <ele>1715.1</ele>
        <time>2020-02-08T12:48:27Z</time>
      </trkpt>
      <trkpt lat="42.71702" lon="1.64453">
        <ele>1715.1</ele>
        <time>2020-02-08T12:48:28Z</time>
      </trkpt>
      <trkpt lat="42.71702" lon="1.64453">
        <ele>1715.1</ele>
        <time>2020-02-08T12:48:29Z</time>
      </trkpt>
      <trkpt lat="42.71702" lon="1.64453">
        <ele>1715.1</ele>
        <time>2020-02-08T12:48:30Z</time>
      </trkpt>
      <trkpt lat="42.71702" lon="1.64453">
        <ele>1715.1</ele>
        <time>2020-02-08T12:48:31Z</time>
      </trkpt>
      <trkpt lat="42.71702" lon="1.64453">
        <ele>1715.1</ele>
        <time>2020-02-08T12:48:32Z</time>
      </trkpt>
      <trkpt lat="42.71702" lon="1.64453">
        <ele>1715.1</ele>
        <time>2020-02-08T12:48:33Z</time>
      </trkpt>
      <trkpt lat="42.71702" lon="1.64453">
        <ele>1715.1</ele>
        <time>2020-02-08T12:48:34Z</time>
      </trkpt>
      <trkpt lat="42.71702" lon="1.64453">
        <ele>1715.1</ele>
        <time>2020-02-08T12:48:35Z</time>
      </trkpt>
      <trkpt lat="42.71702" lon="1.64453">
        <ele>1715.1</ele>
        <time>2020-02-08T12:48:36Z</time>
      </trkpt>
      <trkpt lat="42.71702" lon="1.64453">
        <ele>1715.1</ele>
        <time>2020-02-08T12:48:37Z</time>
      </trkpt>
      <trkpt lat="42.71702" lon="1.64453">
        <ele>1715.1</ele>
        <time>2020-02-08T12:48:38Z</time>
      </trkpt>
      <trkpt lat="42.71702" lon="1.64453">
        <ele>1715.1</ele>
        <time>2020-02-08T12:48:39Z</time>
      </trkpt>
      <trkpt lat="42.71702" lon="1.64453">
        <ele>1715.1</ele>
        <time>2020-02-08T12:48:40Z</time>
      </trkpt>
      <trkpt lat="42.71702" lon="1.64453">
        <ele>1715.1</ele>
        <time>2020-02-08T12:48:41Z</time>
      </trkpt>
      <trkpt lat="42.71702" lon="1.64453">
        <ele>1715.1</ele>
        <time>2020-02-08T12:48:42Z</time>
      </trkpt>
      <trkpt lat="42.71702" lon="1.64453">
        <ele>1715.1</ele>
        <time>2020-02-08T12:48:43Z</time>
      </trkpt>
      <trkpt lat="42.71702" lon="1.64453">
        <ele>1715.1</ele>
        <time>2020-02-08T12:48:44Z</time>
      </trkpt>
      <trkpt lat="42.71702" lon="1.64453">
        <ele>1715.1</ele>
        <time>2020-02-08T12:48:45Z</time>
      </trkpt>
      <trkpt lat="42.71702" lon="1.64453">
        <ele>1715.1</ele>
        <time>2020-02-08T12:48:46Z</time>
      </trkpt>
      <trkpt lat="42.71702" lon="1.64453">
        <ele>1715.1</ele>
        <time>2020-02-08T12:48:47Z</time>
      </trkpt>
      <trkpt lat="42.71702" lon="1.64453">
        <ele>1715.1</ele>
        <time>2020-02-08T12:48:48Z</time>
      </trkpt>
      <trkpt lat="42.71702" lon="1.64453">
        <ele>1715.1</ele>
        <time>2020-02-08T12:48:49Z</time>
      </trkpt>
      <trkpt lat="42.71702" lon="1.64453">
        <ele>1715.1</ele>
        <time>2020-02-08T12:48:50Z</time>
      </trkpt>
      <trkpt lat="42.71702" lon="1.64453">
        <ele>1715.1</ele>
        <time>2020-02-08T12:48:51Z</time>
      </trkpt>
      <trkpt lat="42.71702" lon="1.64453">
        <ele>1715.1</ele>
        <time>2020-02-08T12:48:52Z</time>
      </trkpt>
      <trkpt lat="42.71702" lon="1.64453">
        <ele>1715.1</ele>
        <time>2020-02-08T12:48:53Z</time>
      </trkpt>
      <trkpt lat="42.71702" lon="1.64453">
        <ele>1715.1</ele>
        <time>2020-02-08T12:48:54Z</time>
      </trkpt>
      <trkpt lat="42.71702" lon="1.64453">
        <ele>1715.1</ele>
        <time>2020-02-08T12:48:55Z</time>
      </trkpt>
      <trkpt lat="42.71702" lon="1.64453">
        <ele>1715.1</ele>
        <time>2020-02-08T12:48:56Z</time>
      </trkpt>
      <trkpt lat="42.71702" lon="1.64453">
        <ele>1715.1</ele>
        <time>2020-02-08T12:48:57Z</time>
      </trkpt>
      <trkpt lat="42.71702" lon="1.64453">
        <ele>1715.1</ele>
        <time>2020-02-08T12:48:58Z</time>
      </trkpt>
      <trkpt lat="42.71702" lon="1.64453">
        <ele>1715.1</ele>
        <time>2020-02-08T12:48:59Z</time>
      </trkpt>
      <trkpt lat="42.71702" lon="1.64453">
        <ele>1715.1</ele>
        <time>2020-02-08T12:49:00Z</time>
      </trkpt>
      <trkpt lat="42.71702" lon="1.64453">
        <ele>1715.1</ele>
        <time>2020-02-08T12:49:01Z</time>
      </trkpt>
      <trkpt lat="42.71702" lon="1.64453">
        <ele>1715.1</ele>
        <time>2020-02-08T12:49:02Z</time>
      </trkpt>
      <trkpt lat="42.71702" lon="1.64453">
        <ele>1715.1</ele>
        <time>2020-02-08T12:49:03Z</time>
      </trkpt>
      <trkpt lat="42.71702" lon="1.64453">
        <ele>1715.1</ele>
        <time>2020-02-08T12:49:04Z</time>
      </trkpt>
      <trkpt lat="42.71702" lon="1.64453">
        <ele>1715.1</ele>
        <time>2020-02-08T12:49:05Z</time>
      </trkpt>
      <trkpt lat="42.71702" lon="1.64453">
        <ele>1715.1</ele>
        <time>2020-02-08T12:49:06Z</time>
      </trkpt>
      <trkpt lat="42.71702" lon="1.64453">
        <ele>1715.1</ele>
        <time>2020-02-08T12:49:07Z</time>
      </trkpt>
      <trkpt lat="42.71702" lon="1.64453">
        <ele>1715.1</ele>
        <time>2020-02-08T12:49:08Z</time>
      </trkpt>
      <trkpt lat="42.71702" lon="1.64453">
        <ele>1715.1</ele>
        <time>2020-02-08T12:49:09Z</time>
      </trkpt>
      <trkpt lat="42.71702" lon="1.64453">
        <ele>1715.1</ele>
        <time>2020-02-08T12:49:10Z</time>
      </trkpt>
      <trkpt lat="42.71702" lon="1.64453">
        <ele>1715.1</ele>
        <time>2020-02-08T12:49:11Z</time>
      </trkpt>
      <trkpt lat="42.71702" lon="1.64453">
        <ele>1715.1</ele>
        <time>2020-02-08T12:49:12Z</time>
      </trkpt>
      <trkpt lat="42.71702" lon="1.64453">
        <ele>1715.1</ele>
        <time>2020-02-08T12:49:13Z</time>
      </trkpt>
      <trkpt lat="42.71702" lon="1.64453">
        <ele>1715.1</ele>
        <time>2020-02-08T12:49:14Z</time>
      </trkpt>
      <trkpt lat="42.71702" lon="1.64453">
        <ele>1715.1</ele>
        <time>2020-02-08T12:49:15Z</time>
      </trkpt>
      <trkpt lat="42.71702" lon="1.64453">
        <ele>1715.1</ele>
        <time>2020-02-08T12:49:16Z</time>
      </trkpt>
      <trkpt lat="42.71702" lon="1.64453">
        <ele>1715.1</ele>
        <time>2020-02-08T12:49:17Z</time>
      </trkpt>
      <trkpt lat="42.71702" lon="1.64453">
        <ele>1715.1</ele>
        <time>2020-02-08T12:49:18Z</time>
      </trkpt>
      <trkpt lat="42.71702" lon="1.64453">
        <ele>1715.1</ele>
        <time>2020-02-08T12:49:19Z</time>
      </trkpt>
      <trkpt lat="42.71702" lon="1.64453">
        <ele>1715.1</ele>
        <time>2020-02-08T12:49:20Z</time>
      </trkpt>
      <trkpt lat="42.71702" lon="1.64453">
        <ele>1715.1</ele>
        <time>2020-02-08T12:49:21Z</time>
      </trkpt>
      <trkpt lat="42.71702" lon="1.64453">
        <ele>1715.1</ele>
        <time>2020-02-08T12:49:22Z</time>
      </trkpt>
      <trkpt lat="42.71702" lon="1.64453">
        <ele>1715.1</ele>
        <time>2020-02-08T12:49:23Z</time>
      </trkpt>
      <trkpt lat="42.71702" lon="1.64453">
        <ele>1715.1</ele>
        <time>2020-02-08T12:49:24Z</time>
      </trkpt>
      <trkpt lat="42.71702" lon="1.64453">
        <ele>1715.1</ele>
        <time>2020-02-08T12:49:25Z</time>
      </trkpt>
      <trkpt lat="42.71702" lon="1.64453">
        <ele>1715.1</ele>
        <time>2020-02-08T12:49:26Z</time>
      </trkpt>
      <trkpt lat="42.71702" lon="1.64453">
        <ele>1715.1</ele>
        <time>2020-02-08T12:49:27Z</time>
      </trkpt>
      <trkpt lat="42.71702" lon="1.64453">
        <ele>1715.1</ele>
        <time>2020-02-08T12:49:28Z</time>
      </trkpt>
      <trkpt lat="42.71702" lon="1.64453">
        <ele>1715.1</ele>
        <time>2020-02-08T12:49:29Z</time>
      </trkpt>
      <trkpt lat="42.71702" lon="1.64453">
        <ele>1715.1</ele>
        <time>2020-02-08T12:49:30Z</time>
      </trkpt>
      <trkpt lat="42.71702" lon="1.64453">
        <ele>1715.1</ele>
        <time>2020-02-08T12:49:31Z</time>
      </trkpt>
      <trkpt lat="42.71702" lon="1.64453">
        <ele>1715.1</ele>
        <time>2020-02-08T12:49:32Z</time>
      </trkpt>
      <trkpt lat="42.71702" lon="1.64453">
        <ele>1715.1</ele>
        <time>2020-02-08T12:49:33Z</time>
      </trkpt>
      <trkpt lat="42.71702" lon="1.64453">
        <ele>1715.1</ele>
        <time>2020-02-08T12:49:34Z</time>
      </trkpt>
      <trkpt lat="42.71702" lon="1.64453">
        <ele>1715.1</ele>
        <time>2020-02-08T12:49:35Z</time>
      </trkpt>
      <trkpt lat="42.71702" lon="1.64453">
        <ele>1715.1</ele>
        <time>2020-02-08T12:49:36Z</time>
      </trkpt>
      <trkpt lat="42.71702" lon="1.64453">
        <ele>1715.1</ele>
        <time>2020-02-08T12:49:37Z</time>
      </trkpt>
      <trkpt lat="42.71702" lon="1.64453">
        <ele>1715.1</ele>
        <time>2020-02-08T12:49:38Z</time>
      </trkpt>
      <trkpt lat="42.71702" lon="1.64453">
        <ele>1715.1</ele>
        <time>2020-02-08T12:49:39Z</time>
      </trkpt>
      <trkpt lat="42.71702" lon="1.64453">
        <ele>1715.1</ele>
        <time>2020-02-08T12:49:40Z</time>
      </trkpt>
      <trkpt lat="42.71702" lon="1.64453">
        <ele>1715.1</ele>
        <time>2020-02-08T12:49:41Z</time>
      </trkpt>
      <trkpt lat="42.71702" lon="1.64453">
        <ele>1715.1</ele>
        <time>2020-02-08T12:49:42Z</time>
      </trkpt>
      <trkpt lat="42.71702" lon="1.64453">
        <ele>1715.1</ele>
        <time>2020-02-08T12:49:43Z</time>
      </trkpt>
      <trkpt lat="42.71702" lon="1.64453">
        <ele>1715.1</ele>
        <time>2020-02-08T12:49:44Z</time>
      </trkpt>
      <trkpt lat="42.71702" lon="1.64453">
        <ele>1715.1</ele>
        <time>2020-02-08T12:49:45Z</time>
      </trkpt>
      <trkpt lat="42.71702" lon="1.64453">
        <ele>1715.1</ele>
        <time>2020-02-08T12:49:46Z</time>
      </trkpt>
      <trkpt lat="42.71702" lon="1.64453">
        <ele>1715.1</ele>
        <time>2020-02-08T12:49:47Z</time>
      </trkpt>
      <trkpt lat="42.71702" lon="1.64453">
        <ele>1715.1</ele>
        <time>2020-02-08T12:49:48Z</time>
      </trkpt>
      <trkpt lat="42.71702" lon="1.64453">
        <ele>1715.1</ele>
        <time>2020-02-08T12:49:49Z</time>
      </trkpt>
      <trkpt lat="42.71702" lon="1.64453">
        <ele>1715.1</ele>
        <time>2020-02-08T12:49:50Z</time>
      </trkpt>
      <trkpt lat="42.71702" lon="1.64453">
        <ele>1715.1</ele>
        <time>2020-02-08T12:49:51Z</time>
      </trkpt>
      <trkpt lat="42.71702" lon="1.64453">
        <ele>1715.1</ele>
        <time>2020-02-08T12:49:52Z</time>
      </trkpt>
      <trkpt lat="42.71702" lon="1.64453">
        <ele>1715.1</ele>
        <time>2020-02-08T12:49:53Z</time>
      </trkpt>
      <trkpt lat="42.71702" lon="1.64453">
        <ele>1715.1</ele>
        <time>2020-02-08T12:49:54Z</time>
      </trkpt>
      <trkpt lat="42.71702" lon="1.64453">
        <ele>1715.1</ele>
        <time>2020-02-08T12:49:55Z</time>
      </trkpt>
      <trkpt lat="42.71702" lon="1.64453">
        <ele>1715.1</ele>
        <time>2020-02-08T12:49:56Z</time>
      </trkpt>
      <trkpt lat="42.71702" lon="1.64453">
        <ele>1715.1</ele>
        <time>2020-02-08T12:49:57Z</time>
      </trkpt>
      <trkpt lat="42.71702" lon="1.64453">
        <ele>1715.1</ele>
        <time>2020-02-08T12:49:58Z</time>
      </trkpt>
      <trkpt lat="42.71702" lon="1.64453">
        <ele>1715.1</ele>
        <time>2020-02-08T12:49:59Z</time>
      </trkpt>
      <trkpt lat="42.71702" lon="1.64453">
        <ele>1715.1</ele>
        <time>2020-02-08T12:50:00Z</time>
      </trkpt>
      <trkpt lat="42.71702" lon="1.64453">
        <ele>1715.1</ele>
        <time>2020-02-08T12:50:01Z</time>
      </trkpt>
      <trkpt lat="42.71702" lon="1.64453">
        <ele>1715.1</ele>
        <time>2020-02-08T12:50:02Z</time>
      </trkpt>
      <trkpt lat="42.71702" lon="1.64453">
        <ele>1715.1</ele>
        <time>2020-02-08T12:50:03Z</time>
      </trkpt>
      <trkpt lat="42.71702" lon="1.64453">
        <ele>1715.1</ele>
        <time>2020-02-08T12:50:04Z</time>
      </trkpt>
      <trkpt lat="42.71702" lon="1.64453">
        <ele>1715.1</ele>
        <time>2020-02-08T12:50:05Z</time>
      </trkpt>
      <trkpt lat="42.71702" lon="1.64453">
        <ele>1715.1</ele>
        <time>2020-02-08T12:50:06Z</time>
      </trkpt>
      <trkpt lat="42.71702" lon="1.64453">
        <ele>1715.1</ele>
        <time>2020-02-08T12:50:07Z</time>
      </trkpt>
      <trkpt lat="42.71702" lon="1.64453">
        <ele>1715.1</ele>
        <time>2020-02-08T12:50:08Z</time>
      </trkpt>
      <trkpt lat="42.71702" lon="1.64453">
        <ele>1715.1</ele>
        <time>2020-02-08T12:50:09Z</time>
      </trkpt>
      <trkpt lat="42.71702" lon="1.64453">
        <ele>1715.1</ele>
        <time>2020-02-08T12:50:10Z</time>
      </trkpt>
      <trkpt lat="42.71702" lon="1.64453">
        <ele>1715.1</ele>
        <time>2020-02-08T12:50:11Z</time>
      </trkpt>
      <trkpt lat="42.71702" lon="1.64453">
        <ele>1715.1</ele>
        <time>2020-02-08T12:50:12Z</time>
      </trkpt>
      <trkpt lat="42.71702" lon="1.64453">
        <ele>1715.1</ele>
        <time>2020-02-08T12:50:13Z</time>
      </trkpt>
      <trkpt lat="42.71702" lon="1.64453">
        <ele>1715.1</ele>
        <time>2020-02-08T12:50:14Z</time>
      </trkpt>
      <trkpt lat="42.71702" lon="1.64453">
        <ele>1715.1</ele>
        <time>2020-02-08T12:50:15Z</time>
      </trkpt>
      <trkpt lat="42.71702" lon="1.64453">
        <ele>1715.1</ele>
        <time>2020-02-08T12:50:16Z</time>
      </trkpt>
      <trkpt lat="42.71702" lon="1.64453">
        <ele>1715.1</ele>
        <time>2020-02-08T12:50:17Z</time>
      </trkpt>
      <trkpt lat="42.71702" lon="1.64453">
        <ele>1715.1</ele>
        <time>2020-02-08T12:50:18Z</time>
      </trkpt>
      <trkpt lat="42.71702" lon="1.64453">
        <ele>1715.1</ele>
        <time>2020-02-08T12:50:19Z</time>
      </trkpt>
      <trkpt lat="42.71702" lon="1.64453">
        <ele>1715.1</ele>
        <time>2020-02-08T12:50:20Z</time>
      </trkpt>
      <trkpt lat="42.71702" lon="1.64453">
        <ele>1715.1</ele>
        <time>2020-02-08T12:50:21Z</time>
      </trkpt>
      <trkpt lat="42.71702" lon="1.64453">
        <ele>1715.1</ele>
        <time>2020-02-08T12:50:22Z</time>
      </trkpt>
      <trkpt lat="42.71702" lon="1.64453">
        <ele>1715.1</ele>
        <time>2020-02-08T12:50:23Z</time>
      </trkpt>
      <trkpt lat="42.71702" lon="1.64453">
        <ele>1715.1</ele>
        <time>2020-02-08T12:50:24Z</time>
      </trkpt>
      <trkpt lat="42.71702" lon="1.64453">
        <ele>1715.1</ele>
        <time>2020-02-08T12:50:25Z</time>
      </trkpt>
      <trkpt lat="42.71702" lon="1.64453">
        <ele>1715.1</ele>
        <time>2020-02-08T12:50:26Z</time>
      </trkpt>
      <trkpt lat="42.71702" lon="1.64453">
        <ele>1715.1</ele>
        <time>2020-02-08T12:50:27Z</time>
      </trkpt>
      <trkpt lat="42.71702" lon="1.64453">
        <ele>1715.1</ele>
        <time>2020-02-08T12:50:28Z</time>
      </trkpt>
      <trkpt lat="42.71702" lon="1.64453">
        <ele>1715.1</ele>
        <time>2020-02-08T12:50:29Z</time>
      </trkpt>
      <trkpt lat="42.71702" lon="1.64453">
        <ele>1715.1</ele>
        <time>2020-02-08T12:50:30Z</time>
      </trkpt>
      <trkpt lat="42.71702" lon="1.64453">
        <ele>1715.1</ele>
        <time>2020-02-08T12:50:31Z</time>
      </trkpt>
      <trkpt lat="42.71702" lon="1.64453">
        <ele>1715.1</ele>
        <time>2020-02-08T12:50:32Z</time>
      </trkpt>
      <trkpt lat="42.71702" lon="1.64453">
        <ele>1715.1</ele>
        <time>2020-02-08T12:50:33Z</time>
      </trkpt>
      <trkpt lat="42.71702" lon="1.64453">
        <ele>1715.1</ele>
        <time>2020-02-08T12:50:34Z</time>
      </trkpt>
      <trkpt lat="42.71702" lon="1.64453">
        <ele>1715.1</ele>
        <time>2020-02-08T12:50:35Z</time>
      </trkpt>
      <trkpt lat="42.71702" lon="1.64453">
        <ele>1715.1</ele>
        <time>2020-02-08T12:50:36Z</time>
      </trkpt>
      <trkpt lat="42.71702" lon="1.64453">
        <ele>1715.1</ele>
        <time>2020-02-08T12:50:37Z</time>
      </trkpt>
      <trkpt lat="42.71702" lon="1.64453">
        <ele>1715.1</ele>
        <time>2020-02-08T12:50:38Z</time>
      </trkpt>
      <trkpt lat="42.71702" lon="1.64453">
        <ele>1715.1</ele>
        <time>2020-02-08T12:50:39Z</time>
      </trkpt>
      <trkpt lat="42.71702" lon="1.64453">
        <ele>1715.1</ele>
        <time>2020-02-08T12:50:40Z</time>
      </trkpt>
      <trkpt lat="42.71702" lon="1.64453">
        <ele>1715.1</ele>
        <time>2020-02-08T12:50:41Z</time>
      </trkpt>
      <trkpt lat="42.71702" lon="1.64453">
        <ele>1715.1</ele>
        <time>2020-02-08T12:50:42Z</time>
      </trkpt>
      <trkpt lat="42.71702" lon="1.64453">
        <ele>1715.1</ele>
        <time>2020-02-08T12:50:43Z</time>
      </trkpt>
      <trkpt lat="42.71702" lon="1.64453">
        <ele>1715.1</ele>
        <time>2020-02-08T12:50:44Z</time>
      </trkpt>
      <trkpt lat="42.71702" lon="1.64453">
        <ele>1715.1</ele>
        <time>2020-02-08T12:50:45Z</time>
      </trkpt>
      <trkpt lat="42.71702" lon="1.64453">
        <ele>1715.1</ele>
        <time>2020-02-08T12:50:46Z</time>
      </trkpt>
      <trkpt lat="42.71702" lon="1.64453">
        <ele>1715.1</ele>
        <time>2020-02-08T12:50:47Z</time>
      </trkpt>
      <trkpt lat="42.71702" lon="1.64453">
        <ele>1715.1</ele>
        <time>2020-02-08T12:50:48Z</time>
      </trkpt>
      <trkpt lat="42.71702" lon="1.64453">
        <ele>1715.1</ele>
        <time>2020-02-08T12:50:49Z</time>
      </trkpt>
      <trkpt lat="42.71702" lon="1.64453">
        <ele>1715.1</ele>
        <time>2020-02-08T12:50:50Z</time>
      </trkpt>
      <trkpt lat="42.71702" lon="1.64453">
        <ele>1715.1</ele>
        <time>2020-02-08T12:50:51Z</time>
      </trkpt>
      <trkpt lat="42.71702" lon="1.64453">
        <ele>1715.1</ele>
        <time>2020-02-08T12:50:52Z</time>
      </trkpt>
      <trkpt lat="42.71702" lon="1.64453">
        <ele>1715.1</ele>
        <time>2020-02-08T12:50:53Z</time>
      </trkpt>
      <trkpt lat="42.71702" lon="1.64453">
        <ele>1715.1</ele>
        <time>2020-02-08T12:50:54Z</time>
      </trkpt>
      <trkpt lat="42.71702" lon="1.64453">
        <ele>1715.1</ele>
        <time>2020-02-08T12:50:55Z</time>
      </trkpt>
      <trkpt lat="42.71702" lon="1.64453">
        <ele>1715.1</ele>
        <time>2020-02-08T12:50:56Z</time>
      </trkpt>
      <trkpt lat="42.71702" lon="1.64453">
        <ele>1715.1</ele>
        <time>2020-02-08T12:50:57Z</time>
      </trkpt>
      <trkpt lat="42.71702" lon="1.64453">
        <ele>1715.1</ele>
        <time>2020-02-08T12:50:58Z</time>
      </trkpt>
      <trkpt lat="42.71702" lon="1.64453">
        <ele>1715.1</ele>
        <time>2020-02-08T12:50:59Z</time>
      </trkpt>
      <trkpt lat="42.71702" lon="1.64453">
        <ele>1715.1</ele>
        <time>2020-02-08T12:51:00Z</time>
      </trkpt>
      <trkpt lat="42.71702" lon="1.64453">
        <ele>1715.1</ele>
        <time>2020-02-08T12:51:01Z</time>
      </trkpt>
      <trkpt lat="42.71702" lon="1.64453">
        <ele>1715.1</ele>
        <time>2020-02-08T12:51:02Z</time>
      </trkpt>
      <trkpt lat="42.71702" lon="1.64453">
        <ele>1715.1</ele>
        <time>2020-02-08T12:51:03Z</time>
      </trkpt>
      <trkpt lat="42.71702" lon="1.64453">
        <ele>1715.1</ele>
        <time>2020-02-08T12:51:04Z</time>
      </trkpt>
      <trkpt lat="42.71702" lon="1.64453">
        <ele>1715.1</ele>
        <time>2020-02-08T12:51:05Z</time>
      </trkpt>
      <trkpt lat="42.71702" lon="1.64453">
        <ele>1715.1</ele>
        <time>2020-02-08T12:51:06Z</time>
      </trkpt>
      <trkpt lat="42.71702" lon="1.64453">
        <ele>1715.1</ele>
        <time>2020-02-08T12:51:07Z</time>
      </trkpt>
      <trkpt lat="42.71702" lon="1.64453">
        <ele>1715.1</ele>
        <time>2020-02-08T12:51:08Z</time>
      </trkpt>
      <trkpt lat="42.71702" lon="1.64453">
        <ele>1715.1</ele>
        <time>2020-02-08T12:51:09Z</time>
      </trkpt>
      <trkpt lat="42.71702" lon="1.64453">
        <ele>1715.1</ele>
        <time>2020-02-08T12:51:10Z</time>
      </trkpt>
      <trkpt lat="42.71702" lon="1.64453">
        <ele>1715.1</ele>
        <time>2020-02-08T12:51:11Z</time>
      </trkpt>
      <trkpt lat="42.71702" lon="1.64453">
        <ele>1715.1</ele>
        <time>2020-02-08T12:51:12Z</time>
      </trkpt>
      <trkpt lat="42.71702" lon="1.64453">
        <ele>1715.1</ele>
        <time>2020-02-08T12:51:13Z</time>
      </trkpt>
      <trkpt lat="42.71702" lon="1.64453">
        <ele>1715.1</ele>
        <time>2020-02-08T12:51:14Z</time>
      </trkpt>
      <trkpt lat="42.71702" lon="1.64453">
        <ele>1715.1</ele>
        <time>2020-02-08T12:51:15Z</time>
      </trkpt>
      <trkpt lat="42.71702" lon="1.64453">
        <ele>1715.1</ele>
        <time>2020-02-08T12:51:16Z</time>
      </trkpt>
      <trkpt lat="42.71702" lon="1.64453">
        <ele>1715.1</ele>
        <time>2020-02-08T12:51:17Z</time>
      </trkpt>
      <trkpt lat="42.71702" lon="1.64453">
        <ele>1715.1</ele>
        <time>2020-02-08T12:51:18Z</time>
      </trkpt>
      <trkpt lat="42.71702" lon="1.64453">
        <ele>1715.1</ele>
        <time>2020-02-08T12:51:19Z</time>
      </trkpt>
      <trkpt lat="42.71702" lon="1.64453">
        <ele>1715.1</ele>
        <time>2020-02-08T12:51:20Z</time>
      </trkpt>
      <trkpt lat="42.71702" lon="1.64453">
        <ele>1715.1</ele>
        <time>2020-02-08T12:51:21Z</time>
      </trkpt>
      <trkpt lat="42.71702" lon="1.64453">
        <ele>1715.1</ele>
        <time>2020-02-08T12:51:22Z</time>
      </trkpt>
      <trkpt lat="42.71702" lon="1.64453">
        <ele>1715.1</ele>
        <time>2020-02-08T12:51:23Z</time>
      </trkpt>
      <trkpt lat="42.71702" lon="1.64453">
        <ele>1715.1</ele>
        <time>2020-02-08T12:51:24Z</time>
      </trkpt>
      <trkpt lat="42.71702" lon="1.64453">
        <ele>1715.1</ele>
        <time>2020-02-08T12:51:25Z</time>
      </trkpt>
      <trkpt lat="42.71702" lon="1.64453">
        <ele>1715.1</ele>
        <time>2020-02-08T12:51:26Z</time>
      </trkpt>
      <trkpt lat="42.71702" lon="1.64453">
        <ele>1715.1</ele>
        <time>2020-02-08T12:51:27Z</time>
      </trkpt>
      <trkpt lat="42.71702" lon="1.64453">
        <ele>1715.1</ele>
        <time>2020-02-08T12:51:28Z</time>
      </trkpt>
      <trkpt lat="42.71702" lon="1.64453">
        <ele>1715.1</ele>
        <time>2020-02-08T12:51:29Z</time>
      </trkpt>
      <trkpt lat="42.71702" lon="1.64453">
        <ele>1715.1</ele>
        <time>2020-02-08T12:51:30Z</time>
      </trkpt>
      <trkpt lat="42.71702" lon="1.64453">
        <ele>1715.1</ele>
        <time>2020-02-08T12:51:31Z</time>
      </trkpt>
      <trkpt lat="42.71702" lon="1.64453">
        <ele>1715.1</ele>
        <time>2020-02-08T12:51:32Z</time>
      </trkpt>
      <trkpt lat="42.71702" lon="1.64453">
        <ele>1715.1</ele>
        <time>2020-02-08T12:51:33Z</time>
      </trkpt>
      <trkpt lat="42.71702" lon="1.64453">
        <ele>1715.1</ele>
        <time>2020-02-08T12:51:34Z</time>
      </trkpt>
      <trkpt lat="42.71702" lon="1.64453">
        <ele>1715.1</ele>
        <time>2020-02-08T12:51:35Z</time>
      </trkpt>
      <trkpt lat="42.71702" lon="1.64453">
        <ele>1715.1</ele>
        <time>2020-02-08T12:51:36Z</time>
      </trkpt>
      <trkpt lat="42.71702" lon="1.64453">
        <ele>1715.1</ele>
        <time>2020-02-08T12:51:37Z</time>
      </trkpt>
      <trkpt lat="42.71702" lon="1.64453">
        <ele>1715.1</ele>
        <time>2020-02-08T12:51:38Z</time>
      </trkpt>
      <trkpt lat="42.71702" lon="1.64453">
        <ele>1715.1</ele>
        <time>2020-02-08T12:51:39Z</time>
      </trkpt>
      <trkpt lat="42.71702" lon="1.64453">
        <ele>1715.1</ele>
        <time>2020-02-08T12:51:40Z</time>
      </trkpt>
      <trkpt lat="42.71702" lon="1.64453">
        <ele>1715.1</ele>
        <time>2020-02-08T12:51:41Z</time>
      </trkpt>
      <trkpt lat="42.71702" lon="1.64453">
        <ele>1715.1</ele>
        <time>2020-02-08T12:51:42Z</time>
      </trkpt>
      <trkpt lat="42.71702" lon="1.64453">
        <ele>1715.1</ele>
        <time>2020-02-08T12:51:43Z</time>
      </trkpt>
      <trkpt lat="42.71702" lon="1.64453">
        <ele>1715.1</ele>
        <time>2020-02-08T12:51:44Z</time>
      </trkpt>
      <trkpt lat="42.71702" lon="1.64453">
        <ele>1715.1</ele>
        <time>2020-02-08T12:51:45Z</time>
      </trkpt>
      <trkpt lat="42.71702" lon="1.64453">
        <ele>1715.1</ele>
        <time>2020-02-08T12:51:46Z</time>
      </trkpt>
      <trkpt lat="42.71702" lon="1.64453">
        <ele>1715.1</ele>
        <time>2020-02-08T12:51:47Z</time>
      </trkpt>
      <trkpt lat="42.71702" lon="1.64453">
        <ele>1715.1</ele>
        <time>2020-02-08T12:51:48Z</time>
      </trkpt>
      <trkpt lat="42.71702" lon="1.64453">
        <ele>1715.1</ele>
        <time>2020-02-08T12:51:49Z</time>
      </trkpt>
      <trkpt lat="42.71702" lon="1.64453">
        <ele>1715.1</ele>
        <time>2020-02-08T12:51:50Z</time>
      </trkpt>
      <trkpt lat="42.71702" lon="1.64453">
        <ele>1715.1</ele>
        <time>2020-02-08T12:51:51Z</time>
      </trkpt>
      <trkpt lat="42.71702" lon="1.64453">
        <ele>1715.1</ele>
        <time>2020-02-08T12:51:52Z</time>
      </trkpt>
      <trkpt lat="42.71702" lon="1.64453">
        <ele>1715.1</ele>
        <time>2020-02-08T12:51:53Z</time>
      </trkpt>
      <trkpt lat="42.71702" lon="1.64453">
        <ele>1715.1</ele>
        <time>2020-02-08T12:51:54Z</time>
      </trkpt>
      <trkpt lat="42.71702" lon="1.64453">
        <ele>1715.1</ele>
        <time>2020-02-08T12:51:55Z</time>
      </trkpt>
      <trkpt lat="42.71702" lon="1.64453">
        <ele>1715.1</ele>
        <time>2020-02-08T12:51:56Z</time>
      </trkpt>
      <trkpt lat="42.71702" lon="1.64453">
        <ele>1715.1</ele>
        <time>2020-02-08T12:51:57Z</time>
      </trkpt>
      <trkpt lat="42.71702" lon="1.64453">
        <ele>1715.1</ele>
        <time>2020-02-08T12:51:58Z</time>
      </trkpt>
      <trkpt lat="42.71702" lon="1.64453">
        <ele>1715.1</ele>
        <time>2020-02-08T12:51:59Z</time>
      </trkpt>
      <trkpt lat="42.71702" lon="1.64453">
        <ele>1715.1</ele>
        <time>2020-02-08T12:52:00Z</time>
      </trkpt>
      <trkpt lat="42.71702" lon="1.64453">
        <ele>1715.1</ele>
        <time>2020-02-08T12:52:01Z</time>
      </trkpt>
      <trkpt lat="42.71702" lon="1.64453">
        <ele>1715.1</ele>
        <time>2020-02-08T12:52:02Z</time>
      </trkpt>
      <trkpt lat="42.71702" lon="1.64453">
        <ele>1715.1</ele>
        <time>2020-02-08T12:52:03Z</time>
      </trkpt>
      <trkpt lat="42.71702" lon="1.64453">
        <ele>1715.1</ele>
        <time>2020-02-08T12:52:04Z</time>
      </trkpt>
      <trkpt lat="42.71702" lon="1.64453">
        <ele>1715.1</ele>
        <time>2020-02-08T12:52:05Z</time>
      </trkpt>
      <trkpt lat="42.71702" lon="1.64453">
        <ele>1715.1</ele>
        <time>2020-02-08T12:52:06Z</time>
      </trkpt>
      <trkpt lat="42.71702" lon="1.64453">
        <ele>1715.1</ele>
        <time>2020-02-08T12:52:07Z</time>
      </trkpt>
      <trkpt lat="42.71702" lon="1.64453">
        <ele>1715.1</ele>
        <time>2020-02-08T12:52:08Z</time>
      </trkpt>
      <trkpt lat="42.71702" lon="1.64453">
        <ele>1715.1</ele>
        <time>2020-02-08T12:52:09Z</time>
      </trkpt>
      <trkpt lat="42.71702" lon="1.64453">
        <ele>1715.1</ele>
        <time>2020-02-08T12:52:10Z</time>
      </trkpt>
      <trkpt lat="42.71702" lon="1.64453">
        <ele>1715.1</ele>
        <time>2020-02-08T12:52:11Z</time>
      </trkpt>
      <trkpt lat="42.71702" lon="1.64453">
        <ele>1715.1</ele>
        <time>2020-02-08T12:52:12Z</time>
      </trkpt>
      <trkpt lat="42.71702" lon="1.64453">
        <ele>1715.1</ele>
        <time>2020-02-08T12:52:13Z</time>
      </trkpt>
      <trkpt lat="42.71702" lon="1.64453">
        <ele>1715.1</ele>
        <time>2020-02-08T12:52:14Z</time>
      </trkpt>
      <trkpt lat="42.71702" lon="1.64453">
        <ele>1715.1</ele>
        <time>2020-02-08T12:52:15Z</time>
      </trkpt>
      <trkpt lat="42.71702" lon="1.64453">
        <ele>1715.1</ele>
        <time>2020-02-08T12:52:16Z</time>
      </trkpt>
      <trkpt lat="42.71702" lon="1.64453">
        <ele>1715.1</ele>
        <time>2020-02-08T12:52:17Z</time>
      </trkpt>
      <trkpt lat="42.71702" lon="1.64453">
        <ele>1715.1</ele>
        <time>2020-02-08T12:52:18Z</time>
      </trkpt>
      <trkpt lat="42.71702" lon="1.64453">
        <ele>1715.1</ele>
        <time>2020-02-08T12:52:19Z</time>
      </trkpt>
      <trkpt lat="42.71702" lon="1.64453">
        <ele>1715.1</ele>
        <time>2020-02-08T12:52:20Z</time>
      </trkpt>
      <trkpt lat="42.71702" lon="1.64453">
        <ele>1715.1</ele>
        <time>2020-02-08T12:52:21Z</time>
      </trkpt>
      <trkpt lat="42.71702" lon="1.64453">
        <ele>1715.1</ele>
        <time>2020-02-08T12:52:22Z</time>
      </trkpt>
      <trkpt lat="42.71702" lon="1.64453">
        <ele>1715.1</ele>
        <time>2020-02-08T12:52:23Z</time>
      </trkpt>
      <trkpt lat="42.71702" lon="1.64453">
        <ele>1715.1</ele>
        <time>2020-02-08T12:52:24Z</time>
      </trkpt>
      <trkpt lat="42.71702" lon="1.64453">
        <ele>1715.1</ele>
        <time>2020-02-08T12:52:25Z</time>
      </trkpt>
      <trkpt lat="42.71702" lon="1.64453">
        <ele>1715.1</ele>
        <time>2020-02-08T12:52:26Z</time>
      </trkpt>
      <trkpt lat="42.71702" lon="1.64453">
        <ele>1715.1</ele>
        <time>2020-02-08T12:52:27Z</time>
      </trkpt>
      <trkpt lat="42.71702" lon="1.64453">
        <ele>1715.1</ele>
        <time>2020-02-08T12:52:28Z</time>
      </trkpt>
      <trkpt lat="42.71702" lon="1.64453">
        <ele>1715.1</ele>
        <time>2020-02-08T12:52:29Z</time>
      </trkpt>
      <trkpt lat="42.71702" lon="1.64453">
        <ele>1715.1</ele>
        <time>2020-02-08T12:52:30Z</time>
      </trkpt>
      <trkpt lat="42.71702" lon="1.64453">
        <ele>1715.1</ele>
        <time>2020-02-08T12:52:31Z</time>
      </trkpt>
      <trkpt lat="42.71702" lon="1.64453">
        <ele>1715.1</ele>
        <time>2020-02-08T12:52:32Z</time>
      </trkpt>
      <trkpt lat="42.71702" lon="1.64453">
        <ele>1715.1</ele>
        <time>2020-02-08T12:52:33Z</time>
      </trkpt>
      <trkpt lat="42.71702" lon="1.64453">
        <ele>1715.1</ele>
        <time>2020-02-08T12:52:34Z</time>
      </trkpt>
      <trkpt lat="42.71702" lon="1.64453">
        <ele>1715.1</ele>
        <time>2020-02-08T12:52:35Z</time>
      </trkpt>
      <trkpt lat="42.71702" lon="1.64453">
        <ele>1715.1</ele>
        <time>2020-02-08T12:52:37Z</time>
      </trkpt>
      <trkpt lat="42.71702" lon="1.64453">
        <ele>1715.1</ele>
        <time>2020-02-08T12:52:38Z</time>
      </trkpt>
      <trkpt lat="42.71702" lon="1.64453">
        <ele>1715.1</ele>
        <time>2020-02-08T12:52:39Z</time>
      </trkpt>
      <trkpt lat="42.71702" lon="1.64453">
        <ele>1715.1</ele>
        <time>2020-02-08T12:52:40Z</time>
      </trkpt>
      <trkpt lat="42.71702" lon="1.64453">
        <ele>1715.1</ele>
        <time>2020-02-08T12:52:41Z</time>
      </trkpt>
      <trkpt lat="42.71702" lon="1.64453">
        <ele>1715.1</ele>
        <time>2020-02-08T12:52:42Z</time>
      </trkpt>
      <trkpt lat="42.71702" lon="1.64453">
        <ele>1715.1</ele>
        <time>2020-02-08T12:52:43Z</time>
      </trkpt>
      <trkpt lat="42.71702" lon="1.64453">
        <ele>1715.1</ele>
        <time>2020-02-08T12:52:44Z</time>
      </trkpt>
      <trkpt lat="42.71702" lon="1.64453">
        <ele>1715.1</ele>
        <time>2020-02-08T12:52:45Z</time>
      </trkpt>
      <trkpt lat="42.71702" lon="1.64453">
        <ele>1715.1</ele>
        <time>2020-02-08T12:52:46Z</time>
      </trkpt>
      <trkpt lat="42.71702" lon="1.64453">
        <ele>1715.1</ele>
        <time>2020-02-08T12:52:47Z</time>
      </trkpt>
      <trkpt lat="42.71702" lon="1.64453">
        <ele>1715.1</ele>
        <time>2020-02-08T12:52:48Z</time>
      </trkpt>
      <trkpt lat="42.71702" lon="1.64453">
        <ele>1715.1</ele>
        <time>2020-02-08T12:52:49Z</time>
      </trkpt>
      <trkpt lat="42.71702" lon="1.64453">
        <ele>1715.1</ele>
        <time>2020-02-08T12:52:50Z</time>
      </trkpt>
      <trkpt lat="42.71702" lon="1.64453">
        <ele>1715.1</ele>
        <time>2020-02-08T12:52:51Z</time>
      </trkpt>
      <trkpt lat="42.71702" lon="1.64453">
        <ele>1715.1</ele>
        <time>2020-02-08T12:52:52Z</time>
      </trkpt>
      <trkpt lat="42.71702" lon="1.64453">
        <ele>1715.1</ele>
        <time>2020-02-08T12:52:53Z</time>
      </trkpt>
      <trkpt lat="42.71702" lon="1.64453">
        <ele>1715.1</ele>
        <time>2020-02-08T12:52:54Z</time>
      </trkpt>
      <trkpt lat="42.71702" lon="1.64453">
        <ele>1715.1</ele>
        <time>2020-02-08T12:52:55Z</time>
      </trkpt>
      <trkpt lat="42.71702" lon="1.64453">
        <ele>1715.1</ele>
        <time>2020-02-08T12:52:56Z</time>
      </trkpt>
      <trkpt lat="42.71702" lon="1.64453">
        <ele>1715.1</ele>
        <time>2020-02-08T12:52:57Z</time>
      </trkpt>
      <trkpt lat="42.71702" lon="1.64453">
        <ele>1715.1</ele>
        <time>2020-02-08T12:52:58Z</time>
      </trkpt>
      <trkpt lat="42.71702" lon="1.64453">
        <ele>1715.1</ele>
        <time>2020-02-08T12:52:59Z</time>
      </trkpt>
      <trkpt lat="42.71702" lon="1.64453">
        <ele>1715.1</ele>
        <time>2020-02-08T12:53:00Z</time>
      </trkpt>
      <trkpt lat="42.71702" lon="1.64453">
        <ele>1715.1</ele>
        <time>2020-02-08T12:53:01Z</time>
      </trkpt>
      <trkpt lat="42.71702" lon="1.64453">
        <ele>1715.1</ele>
        <time>2020-02-08T12:53:02Z</time>
      </trkpt>
      <trkpt lat="42.71702" lon="1.64453">
        <ele>1715.1</ele>
        <time>2020-02-08T12:53:03Z</time>
      </trkpt>
      <trkpt lat="42.71702" lon="1.64453">
        <ele>1715.1</ele>
        <time>2020-02-08T12:53:04Z</time>
      </trkpt>
      <trkpt lat="42.71702" lon="1.64453">
        <ele>1715.1</ele>
        <time>2020-02-08T12:53:05Z</time>
      </trkpt>
      <trkpt lat="42.71702" lon="1.64453">
        <ele>1715.1</ele>
        <time>2020-02-08T12:53:06Z</time>
      </trkpt>
      <trkpt lat="42.71702" lon="1.64453">
        <ele>1715.1</ele>
        <time>2020-02-08T12:53:07Z</time>
      </trkpt>
      <trkpt lat="42.71702" lon="1.64453">
        <ele>1715.1</ele>
        <time>2020-02-08T12:53:08Z</time>
      </trkpt>
      <trkpt lat="42.71702" lon="1.64453">
        <ele>1715.1</ele>
        <time>2020-02-08T12:53:09Z</time>
      </trkpt>
      <trkpt lat="42.71702" lon="1.64453">
        <ele>1715.1</ele>
        <time>2020-02-08T12:53:10Z</time>
      </trkpt>
      <trkpt lat="42.71702" lon="1.64453">
        <ele>1715.1</ele>
        <time>2020-02-08T12:53:11Z</time>
      </trkpt>
      <trkpt lat="42.71702" lon="1.64453">
        <ele>1715.1</ele>
        <time>2020-02-08T12:53:12Z</time>
      </trkpt>
      <trkpt lat="42.71702" lon="1.64453">
        <ele>1715.1</ele>
        <time>2020-02-08T12:53:13Z</time>
      </trkpt>
      <trkpt lat="42.71702" lon="1.64453">
        <ele>1715.1</ele>
        <time>2020-02-08T12:53:14Z</time>
      </trkpt>
      <trkpt lat="42.71702" lon="1.64453">
        <ele>1715.1</ele>
        <time>2020-02-08T12:53:15Z</time>
      </trkpt>
      <trkpt lat="42.71702" lon="1.64453">
        <ele>1715.1</ele>
        <time>2020-02-08T12:53:16Z</time>
      </trkpt>
      <trkpt lat="42.71702" lon="1.64453">
        <ele>1715.1</ele>
        <time>2020-02-08T12:53:17Z</time>
      </trkpt>
      <trkpt lat="42.71702" lon="1.64453">
        <ele>1715.1</ele>
        <time>2020-02-08T12:53:18Z</time>
      </trkpt>
      <trkpt lat="42.71702" lon="1.64453">
        <ele>1715.1</ele>
        <time>2020-02-08T12:53:19Z</time>
      </trkpt>
      <trkpt lat="42.71702" lon="1.64453">
        <ele>1715.1</ele>
        <time>2020-02-08T12:53:20Z</time>
      </trkpt>
      <trkpt lat="42.71702" lon="1.64453">
        <ele>1715.1</ele>
        <time>2020-02-08T12:53:21Z</time>
      </trkpt>
      <trkpt lat="42.71702" lon="1.64453">
        <ele>1715.1</ele>
        <time>2020-02-08T12:53:22Z</time>
      </trkpt>
      <trkpt lat="42.71702" lon="1.64453">
        <ele>1715.1</ele>
        <time>2020-02-08T12:53:23Z</time>
      </trkpt>
      <trkpt lat="42.71702" lon="1.64453">
        <ele>1715.1</ele>
        <time>2020-02-08T12:53:24Z</time>
      </trkpt>
      <trkpt lat="42.71702" lon="1.64453">
        <ele>1715.1</ele>
        <time>2020-02-08T12:53:25Z</time>
      </trkpt>
      <trkpt lat="42.71702" lon="1.64453">
        <ele>1715.1</ele>
        <time>2020-02-08T12:53:26Z</time>
      </trkpt>
      <trkpt lat="42.71702" lon="1.64453">
        <ele>1715.1</ele>
        <time>2020-02-08T12:53:27Z</time>
      </trkpt>
      <trkpt lat="42.71702" lon="1.64453">
        <ele>1715.1</ele>
        <time>2020-02-08T12:53:28Z</time>
      </trkpt>
      <trkpt lat="42.71702" lon="1.64453">
        <ele>1715.1</ele>
        <time>2020-02-08T12:53:29Z</time>
      </trkpt>
      <trkpt lat="42.71702" lon="1.64453">
        <ele>1715.1</ele>
        <time>2020-02-08T12:53:30Z</time>
      </trkpt>
      <trkpt lat="42.71702" lon="1.64453">
        <ele>1715.1</ele>
        <time>2020-02-08T12:53:31Z</time>
      </trkpt>
      <trkpt lat="42.71702" lon="1.64453">
        <ele>1715.1</ele>
        <time>2020-02-08T12:53:32Z</time>
      </trkpt>
      <trkpt lat="42.71702" lon="1.64453">
        <ele>1715.1</ele>
        <time>2020-02-08T12:53:33Z</time>
      </trkpt>
      <trkpt lat="42.71702" lon="1.64453">
        <ele>1715.1</ele>
        <time>2020-02-08T12:53:34Z</time>
      </trkpt>
      <trkpt lat="42.71702" lon="1.64453">
        <ele>1715.1</ele>
        <time>2020-02-08T12:53:35Z</time>
      </trkpt>
      <trkpt lat="42.71702" lon="1.64453">
        <ele>1715.1</ele>
        <time>2020-02-08T12:53:36Z</time>
      </trkpt>
      <trkpt lat="42.71702" lon="1.64453">
        <ele>1715.1</ele>
        <time>2020-02-08T12:53:37Z</time>
      </trkpt>
      <trkpt lat="42.71702" lon="1.64453">
        <ele>1715.1</ele>
        <time>2020-02-08T12:53:38Z</time>
      </trkpt>
      <trkpt lat="42.71702" lon="1.64453">
        <ele>1715.1</ele>
        <time>2020-02-08T12:53:39Z</time>
      </trkpt>
      <trkpt lat="42.71702" lon="1.64453">
        <ele>1715.1</ele>
        <time>2020-02-08T12:53:40Z</time>
      </trkpt>
      <trkpt lat="42.71702" lon="1.64453">
        <ele>1715.1</ele>
        <time>2020-02-08T12:53:41Z</time>
      </trkpt>
      <trkpt lat="42.71702" lon="1.64453">
        <ele>1715.1</ele>
        <time>2020-02-08T12:53:42Z</time>
      </trkpt>
      <trkpt lat="42.71702" lon="1.64453">
        <ele>1715.1</ele>
        <time>2020-02-08T12:53:43Z</time>
      </trkpt>
      <trkpt lat="42.71702" lon="1.64453">
        <ele>1715.1</ele>
        <time>2020-02-08T12:53:44Z</time>
      </trkpt>
      <trkpt lat="42.71702" lon="1.64453">
        <ele>1715.1</ele>
        <time>2020-02-08T12:53:45Z</time>
      </trkpt>
      <trkpt lat="42.71702" lon="1.64453">
        <ele>1715.1</ele>
        <time>2020-02-08T12:53:46Z</time>
      </trkpt>
      <trkpt lat="42.71702" lon="1.64453">
        <ele>1715.1</ele>
        <time>2020-02-08T12:53:47Z</time>
      </trkpt>
      <trkpt lat="42.71702" lon="1.64453">
        <ele>1715.1</ele>
        <time>2020-02-08T12:53:48Z</time>
      </trkpt>
      <trkpt lat="42.71702" lon="1.64453">
        <ele>1715.1</ele>
        <time>2020-02-08T12:53:49Z</time>
      </trkpt>
      <trkpt lat="42.71702" lon="1.64453">
        <ele>1715.1</ele>
        <time>2020-02-08T12:53:50Z</time>
      </trkpt>
      <trkpt lat="42.71702" lon="1.64453">
        <ele>1715.1</ele>
        <time>2020-02-08T12:53:51Z</time>
      </trkpt>
      <trkpt lat="42.71702" lon="1.64453">
        <ele>1715.1</ele>
        <time>2020-02-08T12:53:52Z</time>
      </trkpt>
      <trkpt lat="42.71702" lon="1.64453">
        <ele>1715.1</ele>
        <time>2020-02-08T12:53:53Z</time>
      </trkpt>
      <trkpt lat="42.71702" lon="1.64453">
        <ele>1715.1</ele>
        <time>2020-02-08T12:53:54Z</time>
      </trkpt>
      <trkpt lat="42.71702" lon="1.64453">
        <ele>1715.1</ele>
        <time>2020-02-08T12:53:55Z</time>
      </trkpt>
      <trkpt lat="42.71702" lon="1.64453">
        <ele>1715.1</ele>
        <time>2020-02-08T12:53:56Z</time>
      </trkpt>
      <trkpt lat="42.71702" lon="1.64453">
        <ele>1715.1</ele>
        <time>2020-02-08T12:53:57Z</time>
      </trkpt>
      <trkpt lat="42.71702" lon="1.64453">
        <ele>1715.1</ele>
        <time>2020-02-08T12:53:58Z</time>
      </trkpt>
      <trkpt lat="42.71702" lon="1.64453">
        <ele>1715.1</ele>
        <time>2020-02-08T12:53:59Z</time>
      </trkpt>
      <trkpt lat="42.71702" lon="1.64453">
        <ele>1715.1</ele>
        <time>2020-02-08T12:54:00Z</time>
      </trkpt>
      <trkpt lat="42.71702" lon="1.64453">
        <ele>1715.1</ele>
        <time>2020-02-08T12:54:01Z</time>
      </trkpt>
      <trkpt lat="42.71702" lon="1.64453">
        <ele>1715.1</ele>
        <time>2020-02-08T12:54:02Z</time>
      </trkpt>
      <trkpt lat="42.71702" lon="1.64453">
        <ele>1715.1</ele>
        <time>2020-02-08T12:54:03Z</time>
      </trkpt>
      <trkpt lat="42.71702" lon="1.64453">
        <ele>1715.1</ele>
        <time>2020-02-08T12:54:04Z</time>
      </trkpt>
      <trkpt lat="42.71702" lon="1.64453">
        <ele>1715.1</ele>
        <time>2020-02-08T12:54:05Z</time>
      </trkpt>
      <trkpt lat="42.71702" lon="1.64453">
        <ele>1715.1</ele>
        <time>2020-02-08T12:54:06Z</time>
      </trkpt>
      <trkpt lat="42.71702" lon="1.64453">
        <ele>1715.1</ele>
        <time>2020-02-08T12:54:07Z</time>
      </trkpt>
      <trkpt lat="42.71702" lon="1.64453">
        <ele>1715.1</ele>
        <time>2020-02-08T12:54:08Z</time>
      </trkpt>
      <trkpt lat="42.71702" lon="1.64453">
        <ele>1715.1</ele>
        <time>2020-02-08T12:54:09Z</time>
      </trkpt>
      <trkpt lat="42.71702" lon="1.64453">
        <ele>1715.1</ele>
        <time>2020-02-08T12:54:10Z</time>
      </trkpt>
      <trkpt lat="42.71702" lon="1.64453">
        <ele>1715.1</ele>
        <time>2020-02-08T12:54:11Z</time>
      </trkpt>
      <trkpt lat="42.71702" lon="1.64453">
        <ele>1715.1</ele>
        <time>2020-02-08T12:54:12Z</time>
      </trkpt>
      <trkpt lat="42.71702" lon="1.64453">
        <ele>1715.1</ele>
        <time>2020-02-08T12:54:13Z</time>
      </trkpt>
      <trkpt lat="42.71702" lon="1.64453">
        <ele>1715.1</ele>
        <time>2020-02-08T12:54:14Z</time>
      </trkpt>
      <trkpt lat="42.71702" lon="1.64453">
        <ele>1715.1</ele>
        <time>2020-02-08T12:54:15Z</time>
      </trkpt>
      <trkpt lat="42.71702" lon="1.64453">
        <ele>1715.1</ele>
        <time>2020-02-08T12:54:16Z</time>
      </trkpt>
      <trkpt lat="42.71702" lon="1.64453">
        <ele>1715.1</ele>
        <time>2020-02-08T12:54:17Z</time>
      </trkpt>
      <trkpt lat="42.71702" lon="1.64453">
        <ele>1715.1</ele>
        <time>2020-02-08T12:54:18Z</time>
      </trkpt>
      <trkpt lat="42.71702" lon="1.64453">
        <ele>1715.1</ele>
        <time>2020-02-08T12:54:19Z</time>
      </trkpt>
      <trkpt lat="42.71702" lon="1.64453">
        <ele>1715.1</ele>
        <time>2020-02-08T12:54:20Z</time>
      </trkpt>
      <trkpt lat="42.71702" lon="1.64453">
        <ele>1715.1</ele>
        <time>2020-02-08T12:54:21Z</time>
      </trkpt>
      <trkpt lat="42.71702" lon="1.64453">
        <ele>1715.1</ele>
        <time>2020-02-08T12:54:22Z</time>
      </trkpt>
      <trkpt lat="42.71702" lon="1.64453">
        <ele>1715.1</ele>
        <time>2020-02-08T12:54:23Z</time>
      </trkpt>
      <trkpt lat="42.71702" lon="1.64453">
        <ele>1715.1</ele>
        <time>2020-02-08T12:54:24Z</time>
      </trkpt>
      <trkpt lat="42.71702" lon="1.64453">
        <ele>1715.1</ele>
        <time>2020-02-08T12:54:25Z</time>
      </trkpt>
      <trkpt lat="42.71702" lon="1.64453">
        <ele>1715.1</ele>
        <time>2020-02-08T12:54:26Z</time>
      </trkpt>
      <trkpt lat="42.71702" lon="1.64453">
        <ele>1715.1</ele>
        <time>2020-02-08T12:54:27Z</time>
      </trkpt>
      <trkpt lat="42.71702" lon="1.64453">
        <ele>1715.1</ele>
        <time>2020-02-08T12:54:28Z</time>
      </trkpt>
      <trkpt lat="42.71702" lon="1.64453">
        <ele>1715.1</ele>
        <time>2020-02-08T12:54:29Z</time>
      </trkpt>
      <trkpt lat="42.71702" lon="1.64453">
        <ele>1715.1</ele>
        <time>2020-02-08T12:54:30Z</time>
      </trkpt>
      <trkpt lat="42.71702" lon="1.64453">
        <ele>1715.1</ele>
        <time>2020-02-08T12:54:31Z</time>
      </trkpt>
      <trkpt lat="42.71702" lon="1.64453">
        <ele>1715.1</ele>
        <time>2020-02-08T12:54:32Z</time>
      </trkpt>
      <trkpt lat="42.71702" lon="1.64453">
        <ele>1715.1</ele>
        <time>2020-02-08T12:54:33Z</time>
      </trkpt>
      <trkpt lat="42.71702" lon="1.64453">
        <ele>1715.1</ele>
        <time>2020-02-08T12:54:34Z</time>
      </trkpt>
      <trkpt lat="42.71702" lon="1.64453">
        <ele>1715.1</ele>
        <time>2020-02-08T12:54:35Z</time>
      </trkpt>
      <trkpt lat="42.71702" lon="1.64453">
        <ele>1715.1</ele>
        <time>2020-02-08T12:54:36Z</time>
      </trkpt>
      <trkpt lat="42.71702" lon="1.64453">
        <ele>1715.1</ele>
        <time>2020-02-08T12:54:37Z</time>
      </trkpt>
      <trkpt lat="42.71702" lon="1.64453">
        <ele>1715.1</ele>
        <time>2020-02-08T12:54:38Z</time>
      </trkpt>
      <trkpt lat="42.71702" lon="1.64453">
        <ele>1715.1</ele>
        <time>2020-02-08T12:54:39Z</time>
      </trkpt>
      <trkpt lat="42.71702" lon="1.64453">
        <ele>1715.1</ele>
        <time>2020-02-08T12:54:40Z</time>
      </trkpt>
      <trkpt lat="42.71702" lon="1.64453">
        <ele>1715.1</ele>
        <time>2020-02-08T12:54:41Z</time>
      </trkpt>
      <trkpt lat="42.71702" lon="1.64453">
        <ele>1715.1</ele>
        <time>2020-02-08T12:54:42Z</time>
      </trkpt>
      <trkpt lat="42.71702" lon="1.64453">
        <ele>1715.1</ele>
        <time>2020-02-08T12:54:43Z</time>
      </trkpt>
      <trkpt lat="42.71702" lon="1.64453">
        <ele>1715.1</ele>
        <time>2020-02-08T12:54:44Z</time>
      </trkpt>
      <trkpt lat="42.71702" lon="1.64453">
        <ele>1715.1</ele>
        <time>2020-02-08T12:54:45Z</time>
      </trkpt>
      <trkpt lat="42.71702" lon="1.64453">
        <ele>1715.1</ele>
        <time>2020-02-08T12:54:46Z</time>
      </trkpt>
      <trkpt lat="42.71702" lon="1.64453">
        <ele>1715.1</ele>
        <time>2020-02-08T12:54:47Z</time>
      </trkpt>
      <trkpt lat="42.71702" lon="1.64453">
        <ele>1715.1</ele>
        <time>2020-02-08T12:54:48Z</time>
      </trkpt>
      <trkpt lat="42.71702" lon="1.64453">
        <ele>1715.1</ele>
        <time>2020-02-08T12:54:49Z</time>
      </trkpt>
      <trkpt lat="42.71702" lon="1.64453">
        <ele>1715.1</ele>
        <time>2020-02-08T12:54:50Z</time>
      </trkpt>
      <trkpt lat="42.71702" lon="1.64453">
        <ele>1715.1</ele>
        <time>2020-02-08T12:54:51Z</time>
      </trkpt>
      <trkpt lat="42.71702" lon="1.64453">
        <ele>1715.1</ele>
        <time>2020-02-08T12:54:52Z</time>
      </trkpt>
      <trkpt lat="42.71702" lon="1.64453">
        <ele>1715.1</ele>
        <time>2020-02-08T12:54:53Z</time>
      </trkpt>
      <trkpt lat="42.71702" lon="1.64453">
        <ele>1715.1</ele>
        <time>2020-02-08T12:54:54Z</time>
      </trkpt>
      <trkpt lat="42.71702" lon="1.64453">
        <ele>1715.1</ele>
        <time>2020-02-08T12:54:55Z</time>
      </trkpt>
      <trkpt lat="42.71702" lon="1.64453">
        <ele>1715.1</ele>
        <time>2020-02-08T12:54:56Z</time>
      </trkpt>
      <trkpt lat="42.71702" lon="1.64453">
        <ele>1715.1</ele>
        <time>2020-02-08T12:54:57Z</time>
      </trkpt>
      <trkpt lat="42.71702" lon="1.64453">
        <ele>1715.1</ele>
        <time>2020-02-08T12:54:58Z</time>
      </trkpt>
      <trkpt lat="42.71702" lon="1.64453">
        <ele>1715.1</ele>
        <time>2020-02-08T12:54:59Z</time>
      </trkpt>
      <trkpt lat="42.71702" lon="1.64453">
        <ele>1715.1</ele>
        <time>2020-02-08T12:55:00Z</time>
      </trkpt>
      <trkpt lat="42.71702" lon="1.64453">
        <ele>1715.1</ele>
        <time>2020-02-08T12:55:01Z</time>
      </trkpt>
      <trkpt lat="42.71702" lon="1.64453">
        <ele>1715.1</ele>
        <time>2020-02-08T12:55:02Z</time>
      </trkpt>
      <trkpt lat="42.71702" lon="1.64453">
        <ele>1715.1</ele>
        <time>2020-02-08T12:55:03Z</time>
      </trkpt>
      <trkpt lat="42.71702" lon="1.64453">
        <ele>1715.1</ele>
        <time>2020-02-08T12:55:04Z</time>
      </trkpt>
      <trkpt lat="42.71702" lon="1.64453">
        <ele>1715.1</ele>
        <time>2020-02-08T12:55:05Z</time>
      </trkpt>
      <trkpt lat="42.71702" lon="1.64453">
        <ele>1715.1</ele>
        <time>2020-02-08T12:55:06Z</time>
      </trkpt>
      <trkpt lat="42.71702" lon="1.64453">
        <ele>1715.1</ele>
        <time>2020-02-08T12:55:07Z</time>
      </trkpt>
      <trkpt lat="42.71702" lon="1.64453">
        <ele>1715.1</ele>
        <time>2020-02-08T12:55:08Z</time>
      </trkpt>
      <trkpt lat="42.71702" lon="1.64453">
        <ele>1715.1</ele>
        <time>2020-02-08T12:55:09Z</time>
      </trkpt>
      <trkpt lat="42.71702" lon="1.64453">
        <ele>1715.1</ele>
        <time>2020-02-08T12:55:10Z</time>
      </trkpt>
      <trkpt lat="42.71702" lon="1.64453">
        <ele>1715.1</ele>
        <time>2020-02-08T12:55:11Z</time>
      </trkpt>
      <trkpt lat="42.71702" lon="1.64453">
        <ele>1715.1</ele>
        <time>2020-02-08T12:55:12Z</time>
      </trkpt>
      <trkpt lat="42.71702" lon="1.64453">
        <ele>1715.1</ele>
        <time>2020-02-08T12:55:13Z</time>
      </trkpt>
      <trkpt lat="42.71702" lon="1.64453">
        <ele>1715.1</ele>
        <time>2020-02-08T12:55:14Z</time>
      </trkpt>
      <trkpt lat="42.71702" lon="1.64453">
        <ele>1715.1</ele>
        <time>2020-02-08T12:55:15Z</time>
      </trkpt>
      <trkpt lat="42.71702" lon="1.64453">
        <ele>1715.1</ele>
        <time>2020-02-08T12:55:16Z</time>
      </trkpt>
      <trkpt lat="42.71702" lon="1.64453">
        <ele>1715.1</ele>
        <time>2020-02-08T12:55:17Z</time>
      </trkpt>
      <trkpt lat="42.71702" lon="1.64453">
        <ele>1715.1</ele>
        <time>2020-02-08T12:55:18Z</time>
      </trkpt>
      <trkpt lat="42.71702" lon="1.64453">
        <ele>1715.1</ele>
        <time>2020-02-08T12:55:19Z</time>
      </trkpt>
      <trkpt lat="42.71702" lon="1.64453">
        <ele>1715.1</ele>
        <time>2020-02-08T12:55:20Z</time>
      </trkpt>
      <trkpt lat="42.71702" lon="1.64453">
        <ele>1715.1</ele>
        <time>2020-02-08T12:55:21Z</time>
      </trkpt>
      <trkpt lat="42.71702" lon="1.64453">
        <ele>1715.1</ele>
        <time>2020-02-08T12:55:22Z</time>
      </trkpt>
      <trkpt lat="42.71702" lon="1.64453">
        <ele>1715.1</ele>
        <time>2020-02-08T12:55:23Z</time>
      </trkpt>
      <trkpt lat="42.71702" lon="1.64453">
        <ele>1715.1</ele>
        <time>2020-02-08T12:55:24Z</time>
      </trkpt>
      <trkpt lat="42.71702" lon="1.64453">
        <ele>1715.1</ele>
        <time>2020-02-08T12:55:25Z</time>
      </trkpt>
      <trkpt lat="42.71702" lon="1.64453">
        <ele>1715.1</ele>
        <time>2020-02-08T12:55:26Z</time>
      </trkpt>
      <trkpt lat="42.71702" lon="1.64453">
        <ele>1715.1</ele>
        <time>2020-02-08T12:55:27Z</time>
      </trkpt>
      <trkpt lat="42.71702" lon="1.64453">
        <ele>1715.1</ele>
        <time>2020-02-08T12:55:28Z</time>
      </trkpt>
      <trkpt lat="42.71702" lon="1.64453">
        <ele>1715.1</ele>
        <time>2020-02-08T12:55:29Z</time>
      </trkpt>
      <trkpt lat="42.71702" lon="1.64453">
        <ele>1715.1</ele>
        <time>2020-02-08T12:55:30Z</time>
      </trkpt>
      <trkpt lat="42.71702" lon="1.64453">
        <ele>1715.1</ele>
        <time>2020-02-08T12:55:31Z</time>
      </trkpt>
      <trkpt lat="42.71702" lon="1.64453">
        <ele>1715.1</ele>
        <time>2020-02-08T12:55:32Z</time>
      </trkpt>
      <trkpt lat="42.71702" lon="1.64453">
        <ele>1715.1</ele>
        <time>2020-02-08T12:55:33Z</time>
      </trkpt>
      <trkpt lat="42.71702" lon="1.64453">
        <ele>1715.1</ele>
        <time>2020-02-08T12:55:34Z</time>
      </trkpt>
      <trkpt lat="42.71702" lon="1.64453">
        <ele>1715.1</ele>
        <time>2020-02-08T12:55:35Z</time>
      </trkpt>
      <trkpt lat="42.71702" lon="1.64453">
        <ele>1715.1</ele>
        <time>2020-02-08T12:55:36Z</time>
      </trkpt>
      <trkpt lat="42.71702" lon="1.64453">
        <ele>1715.1</ele>
        <time>2020-02-08T12:55:37Z</time>
      </trkpt>
      <trkpt lat="42.71702" lon="1.64453">
        <ele>1715.1</ele>
        <time>2020-02-08T12:55:38Z</time>
      </trkpt>
      <trkpt lat="42.71702" lon="1.64453">
        <ele>1715.1</ele>
        <time>2020-02-08T12:55:39Z</time>
      </trkpt>
      <trkpt lat="42.71702" lon="1.64453">
        <ele>1715.1</ele>
        <time>2020-02-08T12:55:40Z</time>
      </trkpt>
      <trkpt lat="42.71702" lon="1.64453">
        <ele>1715.1</ele>
        <time>2020-02-08T12:55:41Z</time>
      </trkpt>
      <trkpt lat="42.71702" lon="1.64453">
        <ele>1715.1</ele>
        <time>2020-02-08T12:55:42Z</time>
      </trkpt>
      <trkpt lat="42.71702" lon="1.64453">
        <ele>1715.1</ele>
        <time>2020-02-08T12:55:43Z</time>
      </trkpt>
      <trkpt lat="42.71702" lon="1.64453">
        <ele>1715.1</ele>
        <time>2020-02-08T12:55:44Z</time>
      </trkpt>
      <trkpt lat="42.71702" lon="1.64453">
        <ele>1715.1</ele>
        <time>2020-02-08T12:55:45Z</time>
      </trkpt>
      <trkpt lat="42.71702" lon="1.64453">
        <ele>1715.1</ele>
        <time>2020-02-08T12:55:46Z</time>
      </trkpt>
      <trkpt lat="42.71702" lon="1.64453">
        <ele>1715.1</ele>
        <time>2020-02-08T12:55:47Z</time>
      </trkpt>
      <trkpt lat="42.71702" lon="1.64453">
        <ele>1715.1</ele>
        <time>2020-02-08T12:55:48Z</time>
      </trkpt>
      <trkpt lat="42.71702" lon="1.64453">
        <ele>1715.1</ele>
        <time>2020-02-08T12:55:49Z</time>
      </trkpt>
      <trkpt lat="42.71702" lon="1.64453">
        <ele>1715.1</ele>
        <time>2020-02-08T12:55:50Z</time>
      </trkpt>
      <trkpt lat="42.71702" lon="1.64453">
        <ele>1715.1</ele>
        <time>2020-02-08T12:55:51Z</time>
      </trkpt>
      <trkpt lat="42.71702" lon="1.64453">
        <ele>1715.1</ele>
        <time>2020-02-08T12:55:52Z</time>
      </trkpt>
      <trkpt lat="42.71702" lon="1.64453">
        <ele>1715.1</ele>
        <time>2020-02-08T12:55:53Z</time>
      </trkpt>
      <trkpt lat="42.71702" lon="1.64453">
        <ele>1715.1</ele>
        <time>2020-02-08T12:55:54Z</time>
      </trkpt>
      <trkpt lat="42.71702" lon="1.64453">
        <ele>1715.1</ele>
        <time>2020-02-08T12:55:55Z</time>
      </trkpt>
      <trkpt lat="42.71702" lon="1.64453">
        <ele>1715.1</ele>
        <time>2020-02-08T12:55:56Z</time>
      </trkpt>
      <trkpt lat="42.71702" lon="1.64453">
        <ele>1715.1</ele>
        <time>2020-02-08T12:55:57Z</time>
      </trkpt>
      <trkpt lat="42.71702" lon="1.64453">
        <ele>1715.1</ele>
        <time>2020-02-08T12:55:58Z</time>
      </trkpt>
      <trkpt lat="42.71702" lon="1.64453">
        <ele>1715.1</ele>
        <time>2020-02-08T12:55:59Z</time>
      </trkpt>
      <trkpt lat="42.71702" lon="1.64453">
        <ele>1715.1</ele>
        <time>2020-02-08T12:56:00Z</time>
      </trkpt>
      <trkpt lat="42.71702" lon="1.64453">
        <ele>1715.1</ele>
        <time>2020-02-08T12:56:01Z</time>
      </trkpt>
      <trkpt lat="42.71702" lon="1.64453">
        <ele>1715.1</ele>
        <time>2020-02-08T12:56:02Z</time>
      </trkpt>
      <trkpt lat="42.71702" lon="1.64453">
        <ele>1715.1</ele>
        <time>2020-02-08T12:56:03Z</time>
      </trkpt>
      <trkpt lat="42.71702" lon="1.64453">
        <ele>1715.1</ele>
        <time>2020-02-08T12:56:04Z</time>
      </trkpt>
      <trkpt lat="42.71702" lon="1.64453">
        <ele>1715.1</ele>
        <time>2020-02-08T12:56:05Z</time>
      </trkpt>
      <trkpt lat="42.71702" lon="1.64453">
        <ele>1715.1</ele>
        <time>2020-02-08T12:56:06Z</time>
      </trkpt>
      <trkpt lat="42.71702" lon="1.64453">
        <ele>1715.1</ele>
        <time>2020-02-08T12:56:07Z</time>
      </trkpt>
      <trkpt lat="42.71702" lon="1.64453">
        <ele>1715.1</ele>
        <time>2020-02-08T12:56:08Z</time>
      </trkpt>
      <trkpt lat="42.71702" lon="1.64453">
        <ele>1715.1</ele>
        <time>2020-02-08T12:56:09Z</time>
      </trkpt>
      <trkpt lat="42.71702" lon="1.64453">
        <ele>1715.1</ele>
        <time>2020-02-08T12:56:10Z</time>
      </trkpt>
      <trkpt lat="42.71702" lon="1.64453">
        <ele>1715.1</ele>
        <time>2020-02-08T12:56:11Z</time>
      </trkpt>
      <trkpt lat="42.71702" lon="1.64453">
        <ele>1715.1</ele>
        <time>2020-02-08T12:56:12Z</time>
      </trkpt>
      <trkpt lat="42.71702" lon="1.64453">
        <ele>1715.1</ele>
        <time>2020-02-08T12:56:13Z</time>
      </trkpt>
      <trkpt lat="42.71702" lon="1.64453">
        <ele>1715.1</ele>
        <time>2020-02-08T12:56:14Z</time>
      </trkpt>
      <trkpt lat="42.71702" lon="1.64453">
        <ele>1715.1</ele>
        <time>2020-02-08T12:56:15Z</time>
      </trkpt>
      <trkpt lat="42.71702" lon="1.64453">
        <ele>1715.1</ele>
        <time>2020-02-08T12:56:16Z</time>
      </trkpt>
      <trkpt lat="42.71702" lon="1.64453">
        <ele>1715.1</ele>
        <time>2020-02-08T12:56:17Z</time>
      </trkpt>
      <trkpt lat="42.71702" lon="1.64453">
        <ele>1715.1</ele>
        <time>2020-02-08T12:56:18Z</time>
      </trkpt>
      <trkpt lat="42.71702" lon="1.64453">
        <ele>1715.1</ele>
        <time>2020-02-08T12:56:19Z</time>
      </trkpt>
      <trkpt lat="42.71702" lon="1.64453">
        <ele>1715.1</ele>
        <time>2020-02-08T12:56:20Z</time>
      </trkpt>
      <trkpt lat="42.71702" lon="1.64453">
        <ele>1715.1</ele>
        <time>2020-02-08T12:56:21Z</time>
      </trkpt>
      <trkpt lat="42.71702" lon="1.64453">
        <ele>1715.1</ele>
        <time>2020-02-08T12:56:22Z</time>
      </trkpt>
      <trkpt lat="42.71702" lon="1.64453">
        <ele>1715.1</ele>
        <time>2020-02-08T12:56:23Z</time>
      </trkpt>
      <trkpt lat="42.71702" lon="1.64453">
        <ele>1715.1</ele>
        <time>2020-02-08T12:56:24Z</time>
      </trkpt>
      <trkpt lat="42.71702" lon="1.64453">
        <ele>1715.1</ele>
        <time>2020-02-08T12:56:25Z</time>
      </trkpt>
      <trkpt lat="42.71702" lon="1.64453">
        <ele>1715.1</ele>
        <time>2020-02-08T12:56:26Z</time>
      </trkpt>
      <trkpt lat="42.71702" lon="1.64453">
        <ele>1715.1</ele>
        <time>2020-02-08T12:56:27Z</time>
      </trkpt>
      <trkpt lat="42.71702" lon="1.64453">
        <ele>1715.1</ele>
        <time>2020-02-08T12:56:28Z</time>
      </trkpt>
      <trkpt lat="42.71702" lon="1.64453">
        <ele>1715.1</ele>
        <time>2020-02-08T12:56:29Z</time>
      </trkpt>
      <trkpt lat="42.71702" lon="1.64453">
        <ele>1715.1</ele>
        <time>2020-02-08T12:56:30Z</time>
      </trkpt>
      <trkpt lat="42.71702" lon="1.64453">
        <ele>1715.1</ele>
        <time>2020-02-08T12:56:31Z</time>
      </trkpt>
      <trkpt lat="42.71702" lon="1.64453">
        <ele>1715.1</ele>
        <time>2020-02-08T12:56:32Z</time>
      </trkpt>
      <trkpt lat="42.71702" lon="1.64453">
        <ele>1715.1</ele>
        <time>2020-02-08T12:56:33Z</time>
      </trkpt>
      <trkpt lat="42.71702" lon="1.64453">
        <ele>1715.1</ele>
        <time>2020-02-08T12:56:34Z</time>
      </trkpt>
      <trkpt lat="42.71702" lon="1.64453">
        <ele>1715.1</ele>
        <time>2020-02-08T12:56:35Z</time>
      </trkpt>
      <trkpt lat="42.71702" lon="1.64453">
        <ele>1715.1</ele>
        <time>2020-02-08T12:56:36Z</time>
      </trkpt>
      <trkpt lat="42.71702" lon="1.64453">
        <ele>1715.1</ele>
        <time>2020-02-08T12:56:37Z</time>
      </trkpt>
      <trkpt lat="42.71702" lon="1.64453">
        <ele>1715.1</ele>
        <time>2020-02-08T12:56:38Z</time>
      </trkpt>
      <trkpt lat="42.71702" lon="1.64453">
        <ele>1715.1</ele>
        <time>2020-02-08T12:56:39Z</time>
      </trkpt>
      <trkpt lat="42.71702" lon="1.64453">
        <ele>1715.1</ele>
        <time>2020-02-08T12:56:40Z</time>
      </trkpt>
      <trkpt lat="42.71702" lon="1.64453">
        <ele>1715.1</ele>
        <time>2020-02-08T12:56:41Z</time>
      </trkpt>
      <trkpt lat="42.71702" lon="1.64453">
        <ele>1715.1</ele>
        <time>2020-02-08T12:56:42Z</time>
      </trkpt>
      <trkpt lat="42.71702" lon="1.64453">
        <ele>1715.1</ele>
        <time>2020-02-08T12:56:43Z</time>
      </trkpt>
      <trkpt lat="42.71702" lon="1.64453">
        <ele>1715.1</ele>
        <time>2020-02-08T12:56:44Z</time>
      </trkpt>
      <trkpt lat="42.71702" lon="1.64453">
        <ele>1715.1</ele>
        <time>2020-02-08T12:56:45Z</time>
      </trkpt>
      <trkpt lat="42.71702" lon="1.64453">
        <ele>1715.1</ele>
        <time>2020-02-08T12:56:46Z</time>
      </trkpt>
      <trkpt lat="42.71702" lon="1.64453">
        <ele>1715.1</ele>
        <time>2020-02-08T12:56:47Z</time>
      </trkpt>
      <trkpt lat="42.71702" lon="1.64453">
        <ele>1715.1</ele>
        <time>2020-02-08T12:56:48Z</time>
      </trkpt>
      <trkpt lat="42.71702" lon="1.64453">
        <ele>1715.1</ele>
        <time>2020-02-08T12:56:49Z</time>
      </trkpt>
      <trkpt lat="42.71702" lon="1.64453">
        <ele>1715.1</ele>
        <time>2020-02-08T12:56:50Z</time>
      </trkpt>
      <trkpt lat="42.71702" lon="1.64453">
        <ele>1715.1</ele>
        <time>2020-02-08T12:56:51Z</time>
      </trkpt>
      <trkpt lat="42.71702" lon="1.64453">
        <ele>1715.1</ele>
        <time>2020-02-08T12:56:52Z</time>
      </trkpt>
      <trkpt lat="42.71702" lon="1.64453">
        <ele>1715.1</ele>
        <time>2020-02-08T12:56:53Z</time>
      </trkpt>
      <trkpt lat="42.71702" lon="1.64453">
        <ele>1715.1</ele>
        <time>2020-02-08T12:56:54Z</time>
      </trkpt>
      <trkpt lat="42.71702" lon="1.64453">
        <ele>1715.1</ele>
        <time>2020-02-08T12:56:55Z</time>
      </trkpt>
      <trkpt lat="42.71702" lon="1.64453">
        <ele>1715.1</ele>
        <time>2020-02-08T12:56:56Z</time>
      </trkpt>
      <trkpt lat="42.71702" lon="1.64453">
        <ele>1715.1</ele>
        <time>2020-02-08T12:56:57Z</time>
      </trkpt>
      <trkpt lat="42.71702" lon="1.64453">
        <ele>1715.1</ele>
        <time>2020-02-08T12:56:58Z</time>
      </trkpt>
      <trkpt lat="42.71702" lon="1.64453">
        <ele>1715.1</ele>
        <time>2020-02-08T12:56:59Z</time>
      </trkpt>
      <trkpt lat="42.71702" lon="1.64453">
        <ele>1715.1</ele>
        <time>2020-02-08T12:57:00Z</time>
      </trkpt>
      <trkpt lat="42.71702" lon="1.64453">
        <ele>1715.1</ele>
        <time>2020-02-08T12:57:01Z</time>
      </trkpt>
      <trkpt lat="42.71702" lon="1.64453">
        <ele>1715.1</ele>
        <time>2020-02-08T12:57:02Z</time>
      </trkpt>
      <trkpt lat="42.71702" lon="1.64453">
        <ele>1715.1</ele>
        <time>2020-02-08T12:57:03Z</time>
      </trkpt>
      <trkpt lat="42.71702" lon="1.64453">
        <ele>1715.1</ele>
        <time>2020-02-08T12:57:04Z</time>
      </trkpt>
      <trkpt lat="42.71702" lon="1.64453">
        <ele>1715.1</ele>
        <time>2020-02-08T12:57:05Z</time>
      </trkpt>
      <trkpt lat="42.71702" lon="1.64453">
        <ele>1715.1</ele>
        <time>2020-02-08T12:57:06Z</time>
      </trkpt>
      <trkpt lat="42.71702" lon="1.64453">
        <ele>1715.1</ele>
        <time>2020-02-08T12:57:07Z</time>
      </trkpt>
      <trkpt lat="42.71702" lon="1.64453">
        <ele>1715.1</ele>
        <time>2020-02-08T12:57:08Z</time>
      </trkpt>
      <trkpt lat="42.71702" lon="1.64453">
        <ele>1715.1</ele>
        <time>2020-02-08T12:57:09Z</time>
      </trkpt>
      <trkpt lat="42.71702" lon="1.64453">
        <ele>1715.1</ele>
        <time>2020-02-08T12:57:10Z</time>
      </trkpt>
      <trkpt lat="42.71702" lon="1.64453">
        <ele>1715.1</ele>
        <time>2020-02-08T12:57:11Z</time>
      </trkpt>
      <trkpt lat="42.71702" lon="1.64453">
        <ele>1715.1</ele>
        <time>2020-02-08T12:57:12Z</time>
      </trkpt>
      <trkpt lat="42.71702" lon="1.64453">
        <ele>1715.1</ele>
        <time>2020-02-08T12:57:13Z</time>
      </trkpt>
      <trkpt lat="42.71702" lon="1.64453">
        <ele>1715.1</ele>
        <time>2020-02-08T12:57:14Z</time>
      </trkpt>
      <trkpt lat="42.71702" lon="1.64453">
        <ele>1715.1</ele>
        <time>2020-02-08T12:57:15Z</time>
      </trkpt>
      <trkpt lat="42.71702" lon="1.64453">
        <ele>1715.1</ele>
        <time>2020-02-08T12:57:16Z</time>
      </trkpt>
      <trkpt lat="42.71702" lon="1.64453">
        <ele>1715.1</ele>
        <time>2020-02-08T12:57:17Z</time>
      </trkpt>
      <trkpt lat="42.71702" lon="1.64453">
        <ele>1715.1</ele>
        <time>2020-02-08T12:57:18Z</time>
      </trkpt>
      <trkpt lat="42.71702" lon="1.64453">
        <ele>1715.1</ele>
        <time>2020-02-08T12:57:19Z</time>
      </trkpt>
      <trkpt lat="42.71702" lon="1.64453">
        <ele>1715.1</ele>
        <time>2020-02-08T12:57:20Z</time>
      </trkpt>
      <trkpt lat="42.71702" lon="1.64453">
        <ele>1715.1</ele>
        <time>2020-02-08T12:57:21Z</time>
      </trkpt>
      <trkpt lat="42.71702" lon="1.64453">
        <ele>1715.1</ele>
        <time>2020-02-08T12:57:22Z</time>
      </trkpt>
      <trkpt lat="42.71702" lon="1.64453">
        <ele>1715.1</ele>
        <time>2020-02-08T12:57:23Z</time>
      </trkpt>
      <trkpt lat="42.71702" lon="1.64453">
        <ele>1715.1</ele>
        <time>2020-02-08T12:57:24Z</time>
      </trkpt>
      <trkpt lat="42.71702" lon="1.64453">
        <ele>1715.1</ele>
        <time>2020-02-08T12:57:25Z</time>
      </trkpt>
      <trkpt lat="42.71702" lon="1.64453">
        <ele>1715.1</ele>
        <time>2020-02-08T12:57:26Z</time>
      </trkpt>
      <trkpt lat="42.71702" lon="1.64453">
        <ele>1715.1</ele>
        <time>2020-02-08T12:57:27Z</time>
      </trkpt>
      <trkpt lat="42.71702" lon="1.64453">
        <ele>1715.1</ele>
        <time>2020-02-08T12:57:28Z</time>
      </trkpt>
      <trkpt lat="42.71702" lon="1.64453">
        <ele>1715.1</ele>
        <time>2020-02-08T12:57:29Z</time>
      </trkpt>
      <trkpt lat="42.71702" lon="1.64453">
        <ele>1715.1</ele>
        <time>2020-02-08T12:57:30Z</time>
      </trkpt>
      <trkpt lat="42.71702" lon="1.64453">
        <ele>1715.1</ele>
        <time>2020-02-08T12:57:31Z</time>
      </trkpt>
      <trkpt lat="42.71702" lon="1.64453">
        <ele>1715.1</ele>
        <time>2020-02-08T12:57:32Z</time>
      </trkpt>
      <trkpt lat="42.71702" lon="1.64453">
        <ele>1715.1</ele>
        <time>2020-02-08T12:57:33Z</time>
      </trkpt>
      <trkpt lat="42.71702" lon="1.64453">
        <ele>1715.1</ele>
        <time>2020-02-08T12:57:34Z</time>
      </trkpt>
      <trkpt lat="42.71702" lon="1.64453">
        <ele>1715.1</ele>
        <time>2020-02-08T12:57:35Z</time>
      </trkpt>
      <trkpt lat="42.71702" lon="1.64453">
        <ele>1715.1</ele>
        <time>2020-02-08T12:57:36Z</time>
      </trkpt>
      <trkpt lat="42.71702" lon="1.64453">
        <ele>1715.1</ele>
        <time>2020-02-08T12:57:37Z</time>
      </trkpt>
      <trkpt lat="42.71702" lon="1.64453">
        <ele>1715.1</ele>
        <time>2020-02-08T12:57:38Z</time>
      </trkpt>
      <trkpt lat="42.71702" lon="1.64453">
        <ele>1715.1</ele>
        <time>2020-02-08T12:57:39Z</time>
      </trkpt>
      <trkpt lat="42.71702" lon="1.64453">
        <ele>1715.1</ele>
        <time>2020-02-08T12:57:40Z</time>
      </trkpt>
      <trkpt lat="42.71702" lon="1.64453">
        <ele>1715.1</ele>
        <time>2020-02-08T12:57:41Z</time>
      </trkpt>
      <trkpt lat="42.71702" lon="1.64453">
        <ele>1715.1</ele>
        <time>2020-02-08T12:57:42Z</time>
      </trkpt>
      <trkpt lat="42.71702" lon="1.64453">
        <ele>1715.1</ele>
        <time>2020-02-08T12:57:43Z</time>
      </trkpt>
      <trkpt lat="42.71702" lon="1.64453">
        <ele>1715.1</ele>
        <time>2020-02-08T12:57:44Z</time>
      </trkpt>
      <trkpt lat="42.71702" lon="1.64453">
        <ele>1715.1</ele>
        <time>2020-02-08T12:57:45Z</time>
      </trkpt>
      <trkpt lat="42.71702" lon="1.64453">
        <ele>1715.1</ele>
        <time>2020-02-08T12:57:46Z</time>
      </trkpt>
      <trkpt lat="42.71702" lon="1.64453">
        <ele>1715.1</ele>
        <time>2020-02-08T12:57:47Z</time>
      </trkpt>
      <trkpt lat="42.71702" lon="1.64453">
        <ele>1715.1</ele>
        <time>2020-02-08T12:57:48Z</time>
      </trkpt>
      <trkpt lat="42.71702" lon="1.64453">
        <ele>1715.1</ele>
        <time>2020-02-08T12:57:49Z</time>
      </trkpt>
      <trkpt lat="42.71702" lon="1.64453">
        <ele>1715.1</ele>
        <time>2020-02-08T12:57:50Z</time>
      </trkpt>
      <trkpt lat="42.71702" lon="1.64453">
        <ele>1715.1</ele>
        <time>2020-02-08T12:57:51Z</time>
      </trkpt>
      <trkpt lat="42.71702" lon="1.64453">
        <ele>1715.1</ele>
        <time>2020-02-08T12:57:52Z</time>
      </trkpt>
      <trkpt lat="42.71702" lon="1.64453">
        <ele>1715.1</ele>
        <time>2020-02-08T12:57:53Z</time>
      </trkpt>
      <trkpt lat="42.71702" lon="1.64453">
        <ele>1715.1</ele>
        <time>2020-02-08T12:57:54Z</time>
      </trkpt>
      <trkpt lat="42.71702" lon="1.64453">
        <ele>1715.1</ele>
        <time>2020-02-08T12:57:55Z</time>
      </trkpt>
      <trkpt lat="42.71702" lon="1.64453">
        <ele>1715.1</ele>
        <time>2020-02-08T12:57:56Z</time>
      </trkpt>
      <trkpt lat="42.71702" lon="1.64453">
        <ele>1715.1</ele>
        <time>2020-02-08T12:57:57Z</time>
      </trkpt>
      <trkpt lat="42.71702" lon="1.64453">
        <ele>1715.1</ele>
        <time>2020-02-08T12:57:58Z</time>
      </trkpt>
      <trkpt lat="42.71702" lon="1.64453">
        <ele>1715.1</ele>
        <time>2020-02-08T12:57:59Z</time>
      </trkpt>
      <trkpt lat="42.71702" lon="1.64453">
        <ele>1715.1</ele>
        <time>2020-02-08T12:58:00Z</time>
      </trkpt>
      <trkpt lat="42.71702" lon="1.64453">
        <ele>1715.1</ele>
        <time>2020-02-08T12:58:01Z</time>
      </trkpt>
      <trkpt lat="42.71702" lon="1.64453">
        <ele>1715.1</ele>
        <time>2020-02-08T12:58:02Z</time>
      </trkpt>
      <trkpt lat="42.71702" lon="1.64453">
        <ele>1715.1</ele>
        <time>2020-02-08T12:58:03Z</time>
      </trkpt>
      <trkpt lat="42.71702" lon="1.64453">
        <ele>1715.1</ele>
        <time>2020-02-08T12:58:04Z</time>
      </trkpt>
      <trkpt lat="42.71702" lon="1.64453">
        <ele>1715.1</ele>
        <time>2020-02-08T12:58:05Z</time>
      </trkpt>
      <trkpt lat="42.71702" lon="1.64453">
        <ele>1715.1</ele>
        <time>2020-02-08T12:58:06Z</time>
      </trkpt>
      <trkpt lat="42.71702" lon="1.64453">
        <ele>1715.1</ele>
        <time>2020-02-08T12:58:07Z</time>
      </trkpt>
      <trkpt lat="42.71702" lon="1.64453">
        <ele>1715.1</ele>
        <time>2020-02-08T12:58:08Z</time>
      </trkpt>
      <trkpt lat="42.71702" lon="1.64453">
        <ele>1715.1</ele>
        <time>2020-02-08T12:58:09Z</time>
      </trkpt>
      <trkpt lat="42.71702" lon="1.64453">
        <ele>1715.1</ele>
        <time>2020-02-08T12:58:10Z</time>
      </trkpt>
      <trkpt lat="42.71702" lon="1.64453">
        <ele>1715.1</ele>
        <time>2020-02-08T12:58:11Z</time>
      </trkpt>
      <trkpt lat="42.71702" lon="1.64453">
        <ele>1715.1</ele>
        <time>2020-02-08T12:58:12Z</time>
      </trkpt>
      <trkpt lat="42.71702" lon="1.64453">
        <ele>1715.1</ele>
        <time>2020-02-08T12:58:13Z</time>
      </trkpt>
      <trkpt lat="42.71702" lon="1.64453">
        <ele>1715.1</ele>
        <time>2020-02-08T12:58:14Z</time>
      </trkpt>
      <trkpt lat="42.71702" lon="1.64453">
        <ele>1715.1</ele>
        <time>2020-02-08T12:58:15Z</time>
      </trkpt>
      <trkpt lat="42.71702" lon="1.64453">
        <ele>1715.1</ele>
        <time>2020-02-08T12:58:16Z</time>
      </trkpt>
      <trkpt lat="42.71702" lon="1.64453">
        <ele>1715.1</ele>
        <time>2020-02-08T12:58:17Z</time>
      </trkpt>
      <trkpt lat="42.71702" lon="1.64453">
        <ele>1715.1</ele>
        <time>2020-02-08T12:58:18Z</time>
      </trkpt>
      <trkpt lat="42.71702" lon="1.64453">
        <ele>1715.1</ele>
        <time>2020-02-08T12:58:19Z</time>
      </trkpt>
      <trkpt lat="42.71702" lon="1.64453">
        <ele>1715.1</ele>
        <time>2020-02-08T12:58:20Z</time>
      </trkpt>
      <trkpt lat="42.71702" lon="1.64453">
        <ele>1715.1</ele>
        <time>2020-02-08T12:58:21Z</time>
      </trkpt>
      <trkpt lat="42.71702" lon="1.64453">
        <ele>1715.1</ele>
        <time>2020-02-08T12:58:22Z</time>
      </trkpt>
      <trkpt lat="42.71702" lon="1.64453">
        <ele>1715.1</ele>
        <time>2020-02-08T12:58:23Z</time>
      </trkpt>
      <trkpt lat="42.71702" lon="1.64453">
        <ele>1715.1</ele>
        <time>2020-02-08T12:58:24Z</time>
      </trkpt>
      <trkpt lat="42.71702" lon="1.64453">
        <ele>1715.1</ele>
        <time>2020-02-08T12:58:25Z</time>
      </trkpt>
      <trkpt lat="42.71702" lon="1.64453">
        <ele>1715.1</ele>
        <time>2020-02-08T12:58:26Z</time>
      </trkpt>
      <trkpt lat="42.71702" lon="1.64453">
        <ele>1715.1</ele>
        <time>2020-02-08T12:58:27Z</time>
      </trkpt>
      <trkpt lat="42.71702" lon="1.64453">
        <ele>1715.1</ele>
        <time>2020-02-08T12:58:28Z</time>
      </trkpt>
      <trkpt lat="42.71702" lon="1.64453">
        <ele>1715.1</ele>
        <time>2020-02-08T12:58:29Z</time>
      </trkpt>
      <trkpt lat="42.71702" lon="1.64453">
        <ele>1715.1</ele>
        <time>2020-02-08T12:58:30Z</time>
      </trkpt>
      <trkpt lat="42.71702" lon="1.64453">
        <ele>1715.1</ele>
        <time>2020-02-08T12:58:31Z</time>
      </trkpt>
      <trkpt lat="42.71702" lon="1.64453">
        <ele>1715.1</ele>
        <time>2020-02-08T12:58:32Z</time>
      </trkpt>
      <trkpt lat="42.71702" lon="1.64453">
        <ele>1715.1</ele>
        <time>2020-02-08T12:58:33Z</time>
      </trkpt>
      <trkpt lat="42.71702" lon="1.64453">
        <ele>1715.1</ele>
        <time>2020-02-08T12:58:34Z</time>
      </trkpt>
      <trkpt lat="42.71702" lon="1.64453">
        <ele>1715.1</ele>
        <time>2020-02-08T12:58:35Z</time>
      </trkpt>
      <trkpt lat="42.71702" lon="1.64453">
        <ele>1715.1</ele>
        <time>2020-02-08T12:58:36Z</time>
      </trkpt>
      <trkpt lat="42.71702" lon="1.64453">
        <ele>1715.1</ele>
        <time>2020-02-08T12:58:37Z</time>
      </trkpt>
      <trkpt lat="42.71702" lon="1.64453">
        <ele>1715.1</ele>
        <time>2020-02-08T12:58:38Z</time>
      </trkpt>
      <trkpt lat="42.71702" lon="1.64453">
        <ele>1715.1</ele>
        <time>2020-02-08T12:58:39Z</time>
      </trkpt>
      <trkpt lat="42.71702" lon="1.64453">
        <ele>1715.1</ele>
        <time>2020-02-08T12:58:40Z</time>
      </trkpt>
      <trkpt lat="42.71702" lon="1.64453">
        <ele>1715.1</ele>
        <time>2020-02-08T12:58:41Z</time>
      </trkpt>
      <trkpt lat="42.71702" lon="1.64453">
        <ele>1715.1</ele>
        <time>2020-02-08T12:58:42Z</time>
      </trkpt>
      <trkpt lat="42.71702" lon="1.64453">
        <ele>1715.1</ele>
        <time>2020-02-08T12:58:43Z</time>
      </trkpt>
      <trkpt lat="42.71702" lon="1.64453">
        <ele>1715.1</ele>
        <time>2020-02-08T12:58:44Z</time>
      </trkpt>
      <trkpt lat="42.71702" lon="1.64453">
        <ele>1715.1</ele>
        <time>2020-02-08T12:58:45Z</time>
      </trkpt>
      <trkpt lat="42.71702" lon="1.64453">
        <ele>1715.1</ele>
        <time>2020-02-08T12:58:46Z</time>
      </trkpt>
      <trkpt lat="42.71702" lon="1.64453">
        <ele>1715.1</ele>
        <time>2020-02-08T12:58:47Z</time>
      </trkpt>
      <trkpt lat="42.71702" lon="1.64453">
        <ele>1715.1</ele>
        <time>2020-02-08T12:58:48Z</time>
      </trkpt>
      <trkpt lat="42.71702" lon="1.64453">
        <ele>1715.1</ele>
        <time>2020-02-08T12:58:49Z</time>
      </trkpt>
      <trkpt lat="42.71702" lon="1.64453">
        <ele>1715.1</ele>
        <time>2020-02-08T12:58:50Z</time>
      </trkpt>
      <trkpt lat="42.71702" lon="1.64453">
        <ele>1715.1</ele>
        <time>2020-02-08T12:58:51Z</time>
      </trkpt>
      <trkpt lat="42.71702" lon="1.64453">
        <ele>1715.1</ele>
        <time>2020-02-08T12:58:52Z</time>
      </trkpt>
      <trkpt lat="42.71702" lon="1.64453">
        <ele>1715.1</ele>
        <time>2020-02-08T12:58:53Z</time>
      </trkpt>
      <trkpt lat="42.71702" lon="1.64453">
        <ele>1715.1</ele>
        <time>2020-02-08T12:58:54Z</time>
      </trkpt>
      <trkpt lat="42.71702" lon="1.64453">
        <ele>1715.1</ele>
        <time>2020-02-08T12:58:55Z</time>
      </trkpt>
      <trkpt lat="42.71702" lon="1.64453">
        <ele>1715.1</ele>
        <time>2020-02-08T12:58:56Z</time>
      </trkpt>
      <trkpt lat="42.71702" lon="1.64453">
        <ele>1715.1</ele>
        <time>2020-02-08T12:58:57Z</time>
      </trkpt>
      <trkpt lat="42.71702" lon="1.64453">
        <ele>1715.1</ele>
        <time>2020-02-08T12:58:58Z</time>
      </trkpt>
      <trkpt lat="42.71702" lon="1.64453">
        <ele>1715.1</ele>
        <time>2020-02-08T12:58:59Z</time>
      </trkpt>
      <trkpt lat="42.71702" lon="1.64453">
        <ele>1715.1</ele>
        <time>2020-02-08T12:59:00Z</time>
      </trkpt>
      <trkpt lat="42.71702" lon="1.64453">
        <ele>1715.1</ele>
        <time>2020-02-08T12:59:01Z</time>
      </trkpt>
      <trkpt lat="42.71702" lon="1.64453">
        <ele>1715.1</ele>
        <time>2020-02-08T12:59:02Z</time>
      </trkpt>
      <trkpt lat="42.71702" lon="1.64453">
        <ele>1715.1</ele>
        <time>2020-02-08T12:59:03Z</time>
      </trkpt>
      <trkpt lat="42.71702" lon="1.64453">
        <ele>1715.1</ele>
        <time>2020-02-08T12:59:04Z</time>
      </trkpt>
      <trkpt lat="42.71702" lon="1.64453">
        <ele>1715.1</ele>
        <time>2020-02-08T12:59:05Z</time>
      </trkpt>
      <trkpt lat="42.71702" lon="1.64453">
        <ele>1715.1</ele>
        <time>2020-02-08T12:59:06Z</time>
      </trkpt>
      <trkpt lat="42.71702" lon="1.64453">
        <ele>1715.1</ele>
        <time>2020-02-08T12:59:07Z</time>
      </trkpt>
      <trkpt lat="42.71702" lon="1.64453">
        <ele>1715.1</ele>
        <time>2020-02-08T12:59:08Z</time>
      </trkpt>
      <trkpt lat="42.71702" lon="1.64453">
        <ele>1715.1</ele>
        <time>2020-02-08T12:59:09Z</time>
      </trkpt>
      <trkpt lat="42.71702" lon="1.64453">
        <ele>1715.1</ele>
        <time>2020-02-08T12:59:10Z</time>
      </trkpt>
      <trkpt lat="42.71702" lon="1.64453">
        <ele>1715.1</ele>
        <time>2020-02-08T12:59:11Z</time>
      </trkpt>
      <trkpt lat="42.71702" lon="1.64453">
        <ele>1715.1</ele>
        <time>2020-02-08T12:59:12Z</time>
      </trkpt>
      <trkpt lat="42.71702" lon="1.64453">
        <ele>1715.1</ele>
        <time>2020-02-08T12:59:13Z</time>
      </trkpt>
      <trkpt lat="42.71702" lon="1.64453">
        <ele>1715.1</ele>
        <time>2020-02-08T12:59:14Z</time>
      </trkpt>
      <trkpt lat="42.71702" lon="1.64453">
        <ele>1715.1</ele>
        <time>2020-02-08T12:59:15Z</time>
      </trkpt>
      <trkpt lat="42.71702" lon="1.64453">
        <ele>1715.1</ele>
        <time>2020-02-08T12:59:16Z</time>
      </trkpt>
      <trkpt lat="42.71702" lon="1.64453">
        <ele>1715.1</ele>
        <time>2020-02-08T12:59:17Z</time>
      </trkpt>
      <trkpt lat="42.71702" lon="1.64453">
        <ele>1715.1</ele>
        <time>2020-02-08T12:59:18Z</time>
      </trkpt>
      <trkpt lat="42.71702" lon="1.64453">
        <ele>1715.1</ele>
        <time>2020-02-08T12:59:19Z</time>
      </trkpt>
      <trkpt lat="42.71702" lon="1.64453">
        <ele>1715.1</ele>
        <time>2020-02-08T12:59:20Z</time>
      </trkpt>
      <trkpt lat="42.71702" lon="1.64453">
        <ele>1715.1</ele>
        <time>2020-02-08T12:59:21Z</time>
      </trkpt>
      <trkpt lat="42.71702" lon="1.64453">
        <ele>1715.1</ele>
        <time>2020-02-08T12:59:22Z</time>
      </trkpt>
      <trkpt lat="42.71702" lon="1.64453">
        <ele>1715.1</ele>
        <time>2020-02-08T12:59:23Z</time>
      </trkpt>
      <trkpt lat="42.71702" lon="1.64453">
        <ele>1715.1</ele>
        <time>2020-02-08T12:59:24Z</time>
      </trkpt>
      <trkpt lat="42.71702" lon="1.64453">
        <ele>1715.1</ele>
        <time>2020-02-08T12:59:25Z</time>
      </trkpt>
      <trkpt lat="42.71702" lon="1.64453">
        <ele>1715.1</ele>
        <time>2020-02-08T12:59:26Z</time>
      </trkpt>
      <trkpt lat="42.71702" lon="1.64453">
        <ele>1715.1</ele>
        <time>2020-02-08T12:59:27Z</time>
      </trkpt>
      <trkpt lat="42.71702" lon="1.64453">
        <ele>1715.1</ele>
        <time>2020-02-08T12:59:28Z</time>
      </trkpt>
      <trkpt lat="42.71702" lon="1.64453">
        <ele>1715.1</ele>
        <time>2020-02-08T12:59:29Z</time>
      </trkpt>
      <trkpt lat="42.71702" lon="1.64453">
        <ele>1715.1</ele>
        <time>2020-02-08T12:59:30Z</time>
      </trkpt>
      <trkpt lat="42.71702" lon="1.64453">
        <ele>1715.1</ele>
        <time>2020-02-08T12:59:31Z</time>
      </trkpt>
      <trkpt lat="42.71702" lon="1.64453">
        <ele>1715.1</ele>
        <time>2020-02-08T12:59:32Z</time>
      </trkpt>
      <trkpt lat="42.71702" lon="1.64453">
        <ele>1715.1</ele>
        <time>2020-02-08T12:59:33Z</time>
      </trkpt>
      <trkpt lat="42.71702" lon="1.64453">
        <ele>1715.1</ele>
        <time>2020-02-08T12:59:34Z</time>
      </trkpt>
      <trkpt lat="42.71702" lon="1.64453">
        <ele>1715.1</ele>
        <time>2020-02-08T12:59:35Z</time>
      </trkpt>
      <trkpt lat="42.71702" lon="1.64453">
        <ele>1715.1</ele>
        <time>2020-02-08T12:59:36Z</time>
      </trkpt>
      <trkpt lat="42.71702" lon="1.64453">
        <ele>1715.1</ele>
        <time>2020-02-08T12:59:37Z</time>
      </trkpt>
      <trkpt lat="42.71702" lon="1.64453">
        <ele>1715.1</ele>
        <time>2020-02-08T12:59:38Z</time>
      </trkpt>
      <trkpt lat="42.71702" lon="1.64453">
        <ele>1715.1</ele>
        <time>2020-02-08T12:59:39Z</time>
      </trkpt>
      <trkpt lat="42.71702" lon="1.64453">
        <ele>1715.1</ele>
        <time>2020-02-08T12:59:40Z</time>
      </trkpt>
      <trkpt lat="42.71702" lon="1.64453">
        <ele>1715.1</ele>
        <time>2020-02-08T12:59:41Z</time>
      </trkpt>
      <trkpt lat="42.71702" lon="1.64453">
        <ele>1715.1</ele>
        <time>2020-02-08T12:59:42Z</time>
      </trkpt>
      <trkpt lat="42.71702" lon="1.64453">
        <ele>1715.1</ele>
        <time>2020-02-08T12:59:43Z</time>
      </trkpt>
      <trkpt lat="42.71702" lon="1.64453">
        <ele>1715.1</ele>
        <time>2020-02-08T12:59:44Z</time>
      </trkpt>
      <trkpt lat="42.71702" lon="1.64453">
        <ele>1715.1</ele>
        <time>2020-02-08T12:59:45Z</time>
      </trkpt>
      <trkpt lat="42.71702" lon="1.64453">
        <ele>1715.1</ele>
        <time>2020-02-08T12:59:46Z</time>
      </trkpt>
      <trkpt lat="42.71702" lon="1.64453">
        <ele>1715.1</ele>
        <time>2020-02-08T12:59:47Z</time>
      </trkpt>
      <trkpt lat="42.71702" lon="1.64453">
        <ele>1715.1</ele>
        <time>2020-02-08T12:59:48Z</time>
      </trkpt>
      <trkpt lat="42.71702" lon="1.64453">
        <ele>1715.1</ele>
        <time>2020-02-08T12:59:49Z</time>
      </trkpt>
      <trkpt lat="42.71702" lon="1.64453">
        <ele>1715.1</ele>
        <time>2020-02-08T12:59:50Z</time>
      </trkpt>
      <trkpt lat="42.71702" lon="1.64453">
        <ele>1715.1</ele>
        <time>2020-02-08T12:59:51Z</time>
      </trkpt>
      <trkpt lat="42.71702" lon="1.64453">
        <ele>1715.1</ele>
        <time>2020-02-08T12:59:52Z</time>
      </trkpt>
      <trkpt lat="42.71702" lon="1.64453">
        <ele>1715.1</ele>
        <time>2020-02-08T12:59:53Z</time>
      </trkpt>
      <trkpt lat="42.71702" lon="1.64453">
        <ele>1715.1</ele>
        <time>2020-02-08T12:59:54Z</time>
      </trkpt>
      <trkpt lat="42.71702" lon="1.64453">
        <ele>1715.1</ele>
        <time>2020-02-08T12:59:55Z</time>
      </trkpt>
      <trkpt lat="42.71702" lon="1.64453">
        <ele>1715.1</ele>
        <time>2020-02-08T12:59:56Z</time>
      </trkpt>
      <trkpt lat="42.71702" lon="1.64453">
        <ele>1715.1</ele>
        <time>2020-02-08T12:59:57Z</time>
      </trkpt>
      <trkpt lat="42.71702" lon="1.64453">
        <ele>1715.1</ele>
        <time>2020-02-08T12:59:58Z</time>
      </trkpt>
      <trkpt lat="42.71702" lon="1.64453">
        <ele>1715.1</ele>
        <time>2020-02-08T12:59:59Z</time>
      </trkpt>
      <trkpt lat="42.71702" lon="1.64453">
        <ele>1715.1</ele>
        <time>2020-02-08T13:00:00Z</time>
      </trkpt>
      <trkpt lat="42.71702" lon="1.64453">
        <ele>1715.1</ele>
        <time>2020-02-08T13:00:01Z</time>
      </trkpt>
      <trkpt lat="42.71702" lon="1.64453">
        <ele>1715.1</ele>
        <time>2020-02-08T13:00:02Z</time>
      </trkpt>
      <trkpt lat="42.71702" lon="1.64453">
        <ele>1715.1</ele>
        <time>2020-02-08T13:00:03Z</time>
      </trkpt>
      <trkpt lat="42.71702" lon="1.64453">
        <ele>1715.1</ele>
        <time>2020-02-08T13:00:04Z</time>
      </trkpt>
      <trkpt lat="42.71702" lon="1.64453">
        <ele>1715.1</ele>
        <time>2020-02-08T13:00:05Z</time>
      </trkpt>
      <trkpt lat="42.71702" lon="1.64453">
        <ele>1715.1</ele>
        <time>2020-02-08T13:00:06Z</time>
      </trkpt>
      <trkpt lat="42.71702" lon="1.64453">
        <ele>1715.1</ele>
        <time>2020-02-08T13:00:07Z</time>
      </trkpt>
      <trkpt lat="42.71702" lon="1.64453">
        <ele>1715.1</ele>
        <time>2020-02-08T13:00:08Z</time>
      </trkpt>
      <trkpt lat="42.71702" lon="1.64453">
        <ele>1715.1</ele>
        <time>2020-02-08T13:00:09Z</time>
      </trkpt>
      <trkpt lat="42.71702" lon="1.64453">
        <ele>1715.1</ele>
        <time>2020-02-08T13:00:10Z</time>
      </trkpt>
      <trkpt lat="42.71702" lon="1.64453">
        <ele>1715.1</ele>
        <time>2020-02-08T13:00:11Z</time>
      </trkpt>
      <trkpt lat="42.71702" lon="1.64453">
        <ele>1715.1</ele>
        <time>2020-02-08T13:00:12Z</time>
      </trkpt>
      <trkpt lat="42.71702" lon="1.64453">
        <ele>1715.1</ele>
        <time>2020-02-08T13:00:13Z</time>
      </trkpt>
      <trkpt lat="42.71702" lon="1.64453">
        <ele>1715.1</ele>
        <time>2020-02-08T13:00:14Z</time>
      </trkpt>
      <trkpt lat="42.71702" lon="1.64453">
        <ele>1715.1</ele>
        <time>2020-02-08T13:00:15Z</time>
      </trkpt>
      <trkpt lat="42.71702" lon="1.64453">
        <ele>1715.1</ele>
        <time>2020-02-08T13:00:16Z</time>
      </trkpt>
      <trkpt lat="42.71702" lon="1.64453">
        <ele>1715.1</ele>
        <time>2020-02-08T13:00:17Z</time>
      </trkpt>
      <trkpt lat="42.71702" lon="1.64453">
        <ele>1715.1</ele>
        <time>2020-02-08T13:00:18Z</time>
      </trkpt>
      <trkpt lat="42.71702" lon="1.64453">
        <ele>1715.1</ele>
        <time>2020-02-08T13:00:19Z</time>
      </trkpt>
      <trkpt lat="42.71702" lon="1.64453">
        <ele>1715.1</ele>
        <time>2020-02-08T13:00:20Z</time>
      </trkpt>
      <trkpt lat="42.71702" lon="1.64453">
        <ele>1715.1</ele>
        <time>2020-02-08T13:00:21Z</time>
      </trkpt>
      <trkpt lat="42.71702" lon="1.64453">
        <ele>1715.1</ele>
        <time>2020-02-08T13:00:22Z</time>
      </trkpt>
      <trkpt lat="42.71702" lon="1.64453">
        <ele>1715.1</ele>
        <time>2020-02-08T13:00:23Z</time>
      </trkpt>
      <trkpt lat="42.71702" lon="1.64453">
        <ele>1715.1</ele>
        <time>2020-02-08T13:00:24Z</time>
      </trkpt>
      <trkpt lat="42.71702" lon="1.64453">
        <ele>1715.1</ele>
        <time>2020-02-08T13:00:25Z</time>
      </trkpt>
      <trkpt lat="42.71702" lon="1.64453">
        <ele>1715.1</ele>
        <time>2020-02-08T13:00:26Z</time>
      </trkpt>
      <trkpt lat="42.71702" lon="1.64453">
        <ele>1715.1</ele>
        <time>2020-02-08T13:00:27Z</time>
      </trkpt>
      <trkpt lat="42.71702" lon="1.64453">
        <ele>1715.1</ele>
        <time>2020-02-08T13:00:28Z</time>
      </trkpt>
      <trkpt lat="42.71702" lon="1.64453">
        <ele>1715.1</ele>
        <time>2020-02-08T13:00:29Z</time>
      </trkpt>
      <trkpt lat="42.71702" lon="1.64453">
        <ele>1715.1</ele>
        <time>2020-02-08T13:00:30Z</time>
      </trkpt>
      <trkpt lat="42.71702" lon="1.64453">
        <ele>1715.1</ele>
        <time>2020-02-08T13:00:31Z</time>
      </trkpt>
      <trkpt lat="42.71702" lon="1.64453">
        <ele>1715.1</ele>
        <time>2020-02-08T13:00:32Z</time>
      </trkpt>
      <trkpt lat="42.71702" lon="1.64453">
        <ele>1715.1</ele>
        <time>2020-02-08T13:00:33Z</time>
      </trkpt>
      <trkpt lat="42.71702" lon="1.64453">
        <ele>1715.1</ele>
        <time>2020-02-08T13:00:34Z</time>
      </trkpt>
      <trkpt lat="42.71702" lon="1.64453">
        <ele>1715.1</ele>
        <time>2020-02-08T13:00:35Z</time>
      </trkpt>
      <trkpt lat="42.71702" lon="1.64453">
        <ele>1715.1</ele>
        <time>2020-02-08T13:00:36Z</time>
      </trkpt>
      <trkpt lat="42.71702" lon="1.64453">
        <ele>1715.1</ele>
        <time>2020-02-08T13:00:37Z</time>
      </trkpt>
      <trkpt lat="42.71702" lon="1.64453">
        <ele>1715.1</ele>
        <time>2020-02-08T13:00:38Z</time>
      </trkpt>
      <trkpt lat="42.71702" lon="1.64453">
        <ele>1715.1</ele>
        <time>2020-02-08T13:00:39Z</time>
      </trkpt>
      <trkpt lat="42.71702" lon="1.64453">
        <ele>1715.1</ele>
        <time>2020-02-08T13:00:40Z</time>
      </trkpt>
      <trkpt lat="42.71702" lon="1.64453">
        <ele>1715.1</ele>
        <time>2020-02-08T13:00:41Z</time>
      </trkpt>
      <trkpt lat="42.71702" lon="1.64453">
        <ele>1715.1</ele>
        <time>2020-02-08T13:00:42Z</time>
      </trkpt>
      <trkpt lat="42.71702" lon="1.64453">
        <ele>1715.1</ele>
        <time>2020-02-08T13:00:43Z</time>
      </trkpt>
      <trkpt lat="42.71702" lon="1.64453">
        <ele>1715.1</ele>
        <time>2020-02-08T13:00:44Z</time>
      </trkpt>
      <trkpt lat="42.71702" lon="1.64453">
        <ele>1715.1</ele>
        <time>2020-02-08T13:00:45Z</time>
      </trkpt>
      <trkpt lat="42.71702" lon="1.64453">
        <ele>1715.1</ele>
        <time>2020-02-08T13:00:46Z</time>
      </trkpt>
      <trkpt lat="42.71702" lon="1.64453">
        <ele>1715.1</ele>
        <time>2020-02-08T13:00:47Z</time>
      </trkpt>
      <trkpt lat="42.71702" lon="1.64453">
        <ele>1715.1</ele>
        <time>2020-02-08T13:00:48Z</time>
      </trkpt>
      <trkpt lat="42.71702" lon="1.64453">
        <ele>1715.1</ele>
        <time>2020-02-08T13:00:49Z</time>
      </trkpt>
      <trkpt lat="42.71702" lon="1.64453">
        <ele>1715.1</ele>
        <time>2020-02-08T13:00:50Z</time>
      </trkpt>
      <trkpt lat="42.71702" lon="1.64453">
        <ele>1715.1</ele>
        <time>2020-02-08T13:00:51Z</time>
      </trkpt>
      <trkpt lat="42.71702" lon="1.64453">
        <ele>1715.1</ele>
        <time>2020-02-08T13:00:52Z</time>
      </trkpt>
      <trkpt lat="42.71702" lon="1.64453">
        <ele>1715.1</ele>
        <time>2020-02-08T13:00:53Z</time>
      </trkpt>
      <trkpt lat="42.71702" lon="1.64453">
        <ele>1715.1</ele>
        <time>2020-02-08T13:00:54Z</time>
      </trkpt>
      <trkpt lat="42.71702" lon="1.64453">
        <ele>1715.1</ele>
        <time>2020-02-08T13:00:55Z</time>
      </trkpt>
      <trkpt lat="42.71702" lon="1.64453">
        <ele>1715.1</ele>
        <time>2020-02-08T13:00:56Z</time>
      </trkpt>
      <trkpt lat="42.71702" lon="1.64453">
        <ele>1715.1</ele>
        <time>2020-02-08T13:00:57Z</time>
      </trkpt>
      <trkpt lat="42.71702" lon="1.64453">
        <ele>1715.1</ele>
        <time>2020-02-08T13:00:58Z</time>
      </trkpt>
      <trkpt lat="42.71702" lon="1.64453">
        <ele>1715.1</ele>
        <time>2020-02-08T13:00:59Z</time>
      </trkpt>
      <trkpt lat="42.71702" lon="1.64453">
        <ele>1715.1</ele>
        <time>2020-02-08T13:01:00Z</time>
      </trkpt>
      <trkpt lat="42.71702" lon="1.64453">
        <ele>1715.1</ele>
        <time>2020-02-08T13:01:01Z</time>
      </trkpt>
      <trkpt lat="42.71702" lon="1.64453">
        <ele>1715.1</ele>
        <time>2020-02-08T13:01:02Z</time>
      </trkpt>
      <trkpt lat="42.71702" lon="1.64453">
        <ele>1715.1</ele>
        <time>2020-02-08T13:01:03Z</time>
      </trkpt>
      <trkpt lat="42.71702" lon="1.64453">
        <ele>1715.1</ele>
        <time>2020-02-08T13:01:04Z</time>
      </trkpt>
      <trkpt lat="42.71702" lon="1.64453">
        <ele>1715.1</ele>
        <time>2020-02-08T13:01:05Z</time>
      </trkpt>
      <trkpt lat="42.71702" lon="1.64453">
        <ele>1715.1</ele>
        <time>2020-02-08T13:01:06Z</time>
      </trkpt>
      <trkpt lat="42.71702" lon="1.64453">
        <ele>1715.1</ele>
        <time>2020-02-08T13:01:07Z</time>
      </trkpt>
      <trkpt lat="42.71702" lon="1.64453">
        <ele>1715.1</ele>
        <time>2020-02-08T13:01:08Z</time>
      </trkpt>
      <trkpt lat="42.71702" lon="1.64453">
        <ele>1715.1</ele>
        <time>2020-02-08T13:01:09Z</time>
      </trkpt>
      <trkpt lat="42.71702" lon="1.64453">
        <ele>1715.1</ele>
        <time>2020-02-08T13:01:10Z</time>
      </trkpt>
      <trkpt lat="42.71702" lon="1.64453">
        <ele>1715.1</ele>
        <time>2020-02-08T13:01:11Z</time>
      </trkpt>
      <trkpt lat="42.71702" lon="1.64453">
        <ele>1715.1</ele>
        <time>2020-02-08T13:01:12Z</time>
      </trkpt>
      <trkpt lat="42.71702" lon="1.64453">
        <ele>1715.1</ele>
        <time>2020-02-08T13:01:13Z</time>
      </trkpt>
      <trkpt lat="42.71702" lon="1.64453">
        <ele>1715.1</ele>
        <time>2020-02-08T13:01:14Z</time>
      </trkpt>
      <trkpt lat="42.71702" lon="1.64453">
        <ele>1715.1</ele>
        <time>2020-02-08T13:01:15Z</time>
      </trkpt>
      <trkpt lat="42.71702" lon="1.64453">
        <ele>1715.1</ele>
        <time>2020-02-08T13:01:16Z</time>
      </trkpt>
      <trkpt lat="42.71702" lon="1.64453">
        <ele>1715.1</ele>
        <time>2020-02-08T13:01:17Z</time>
      </trkpt>
      <trkpt lat="42.71702" lon="1.64453">
        <ele>1715.1</ele>
        <time>2020-02-08T13:01:18Z</time>
      </trkpt>
      <trkpt lat="42.71702" lon="1.64453">
        <ele>1715.1</ele>
        <time>2020-02-08T13:01:19Z</time>
      </trkpt>
      <trkpt lat="42.71702" lon="1.64453">
        <ele>1715.1</ele>
        <time>2020-02-08T13:01:20Z</time>
      </trkpt>
      <trkpt lat="42.71702" lon="1.64453">
        <ele>1715.1</ele>
        <time>2020-02-08T13:01:21Z</time>
      </trkpt>
      <trkpt lat="42.71702" lon="1.64453">
        <ele>1715.1</ele>
        <time>2020-02-08T13:01:22Z</time>
      </trkpt>
      <trkpt lat="42.71702" lon="1.64453">
        <ele>1715.1</ele>
        <time>2020-02-08T13:01:23Z</time>
      </trkpt>
      <trkpt lat="42.71702" lon="1.64453">
        <ele>1715.1</ele>
        <time>2020-02-08T13:01:24Z</time>
      </trkpt>
      <trkpt lat="42.71702" lon="1.64453">
        <ele>1715.1</ele>
        <time>2020-02-08T13:01:25Z</time>
      </trkpt>
      <trkpt lat="42.71702" lon="1.64453">
        <ele>1715.1</ele>
        <time>2020-02-08T13:01:26Z</time>
      </trkpt>
      <trkpt lat="42.71702" lon="1.64453">
        <ele>1715.1</ele>
        <time>2020-02-08T13:01:27Z</time>
      </trkpt>
      <trkpt lat="42.71702" lon="1.64453">
        <ele>1715.1</ele>
        <time>2020-02-08T13:01:28Z</time>
      </trkpt>
      <trkpt lat="42.71702" lon="1.64453">
        <ele>1715.1</ele>
        <time>2020-02-08T13:01:29Z</time>
      </trkpt>
      <trkpt lat="42.71702" lon="1.64453">
        <ele>1715.1</ele>
        <time>2020-02-08T13:01:30Z</time>
      </trkpt>
      <trkpt lat="42.71702" lon="1.64453">
        <ele>1715.1</ele>
        <time>2020-02-08T13:01:31Z</time>
      </trkpt>
      <trkpt lat="42.71702" lon="1.64453">
        <ele>1715.1</ele>
        <time>2020-02-08T13:01:32Z</time>
      </trkpt>
      <trkpt lat="42.71702" lon="1.64453">
        <ele>1715.1</ele>
        <time>2020-02-08T13:01:33Z</time>
      </trkpt>
      <trkpt lat="42.71702" lon="1.64453">
        <ele>1715.1</ele>
        <time>2020-02-08T13:01:34Z</time>
      </trkpt>
      <trkpt lat="42.71702" lon="1.64453">
        <ele>1715.1</ele>
        <time>2020-02-08T13:01:35Z</time>
      </trkpt>
      <trkpt lat="42.71702" lon="1.64453">
        <ele>1715.1</ele>
        <time>2020-02-08T13:01:36Z</time>
      </trkpt>
      <trkpt lat="42.71702" lon="1.64453">
        <ele>1715.1</ele>
        <time>2020-02-08T13:01:37Z</time>
      </trkpt>
      <trkpt lat="42.71702" lon="1.64453">
        <ele>1715.1</ele>
        <time>2020-02-08T13:01:38Z</time>
      </trkpt>
      <trkpt lat="42.71702" lon="1.64453">
        <ele>1715.1</ele>
        <time>2020-02-08T13:01:39Z</time>
      </trkpt>
      <trkpt lat="42.71702" lon="1.64453">
        <ele>1715.1</ele>
        <time>2020-02-08T13:01:40Z</time>
      </trkpt>
      <trkpt lat="42.71702" lon="1.64453">
        <ele>1715.1</ele>
        <time>2020-02-08T13:01:41Z</time>
      </trkpt>
      <trkpt lat="42.71702" lon="1.64453">
        <ele>1715.1</ele>
        <time>2020-02-08T13:01:42Z</time>
      </trkpt>
      <trkpt lat="42.71702" lon="1.64453">
        <ele>1715.1</ele>
        <time>2020-02-08T13:01:43Z</time>
      </trkpt>
      <trkpt lat="42.71702" lon="1.64453">
        <ele>1715.1</ele>
        <time>2020-02-08T13:01:44Z</time>
      </trkpt>
      <trkpt lat="42.71702" lon="1.64453">
        <ele>1715.1</ele>
        <time>2020-02-08T13:01:45Z</time>
      </trkpt>
      <trkpt lat="42.71702" lon="1.64453">
        <ele>1715.1</ele>
        <time>2020-02-08T13:01:46Z</time>
      </trkpt>
      <trkpt lat="42.71702" lon="1.64453">
        <ele>1715.1</ele>
        <time>2020-02-08T13:01:47Z</time>
      </trkpt>
      <trkpt lat="42.71702" lon="1.64453">
        <ele>1715.1</ele>
        <time>2020-02-08T13:01:48Z</time>
      </trkpt>
      <trkpt lat="42.71702" lon="1.64453">
        <ele>1715.1</ele>
        <time>2020-02-08T13:01:49Z</time>
      </trkpt>
      <trkpt lat="42.71702" lon="1.64453">
        <ele>1715.1</ele>
        <time>2020-02-08T13:01:50Z</time>
      </trkpt>
      <trkpt lat="42.71702" lon="1.64453">
        <ele>1715.1</ele>
        <time>2020-02-08T13:01:51Z</time>
      </trkpt>
      <trkpt lat="42.71702" lon="1.64453">
        <ele>1715.1</ele>
        <time>2020-02-08T13:01:52Z</time>
      </trkpt>
      <trkpt lat="42.71702" lon="1.64453">
        <ele>1715.1</ele>
        <time>2020-02-08T13:01:53Z</time>
      </trkpt>
      <trkpt lat="42.71702" lon="1.64453">
        <ele>1715.1</ele>
        <time>2020-02-08T13:01:54Z</time>
      </trkpt>
      <trkpt lat="42.71702" lon="1.64453">
        <ele>1715.1</ele>
        <time>2020-02-08T13:01:55Z</time>
      </trkpt>
      <trkpt lat="42.71702" lon="1.64453">
        <ele>1715.1</ele>
        <time>2020-02-08T13:01:56Z</time>
      </trkpt>
      <trkpt lat="42.71704" lon="1.64452">
        <ele>1715.1</ele>
        <time>2020-02-08T13:01:57Z</time>
      </trkpt>
      <trkpt lat="42.71704" lon="1.64452">
        <ele>1715.1</ele>
        <time>2020-02-08T13:01:58Z</time>
      </trkpt>
      <trkpt lat="42.71704" lon="1.64452">
        <ele>1715.1</ele>
        <time>2020-02-08T13:01:59Z</time>
      </trkpt>
      <trkpt lat="42.71705" lon="1.64453">
        <ele>1715.1</ele>
        <time>2020-02-08T13:02:00Z</time>
      </trkpt>
      <trkpt lat="42.71706" lon="1.64454">
        <ele>1715.1</ele>
        <time>2020-02-08T13:02:01Z</time>
      </trkpt>
      <trkpt lat="42.71707" lon="1.64455">
        <ele>1715.1</ele>
        <time>2020-02-08T13:02:02Z</time>
      </trkpt>
      <trkpt lat="42.71707" lon="1.64456">
        <ele>1715.1</ele>
        <time>2020-02-08T13:02:03Z</time>
      </trkpt>
      <trkpt lat="42.71708" lon="1.64456">
        <ele>1714.7</ele>
        <time>2020-02-08T13:02:04Z</time>
      </trkpt>
      <trkpt lat="42.71709" lon="1.64457">
        <ele>1714.7</ele>
        <time>2020-02-08T13:02:05Z</time>
      </trkpt>
      <trkpt lat="42.71709" lon="1.64458">
        <ele>1714.7</ele>
        <time>2020-02-08T13:02:06Z</time>
      </trkpt>
      <trkpt lat="42.7171" lon="1.64459">
        <ele>1714.7</ele>
        <time>2020-02-08T13:02:07Z</time>
      </trkpt>
      <trkpt lat="42.71711" lon="1.6446">
        <ele>1714.7</ele>
        <time>2020-02-08T13:02:08Z</time>
      </trkpt>
      <trkpt lat="42.71712" lon="1.64461">
        <ele>1714.2</ele>
        <time>2020-02-08T13:02:09Z</time>
      </trkpt>
      <trkpt lat="42.71711" lon="1.6446">
        <ele>1714.7</ele>
        <time>2020-02-08T13:02:10Z</time>
      </trkpt>
      <trkpt lat="42.7171" lon="1.64459">
        <ele>1714.7</ele>
        <time>2020-02-08T13:02:11Z</time>
      </trkpt>
      <trkpt lat="42.71709" lon="1.64458">
        <ele>1714.7</ele>
        <time>2020-02-08T13:02:12Z</time>
      </trkpt>
      <trkpt lat="42.71708" lon="1.64458">
        <ele>1714.7</ele>
        <time>2020-02-08T13:02:13Z</time>
      </trkpt>
      <trkpt lat="42.71708" lon="1.64457">
        <ele>1714.7</ele>
        <time>2020-02-08T13:02:14Z</time>
      </trkpt>
      <trkpt lat="42.71707" lon="1.64456">
        <ele>1714.7</ele>
        <time>2020-02-08T13:02:15Z</time>
      </trkpt>
      <trkpt lat="42.71706" lon="1.64455">
        <ele>1715.1</ele>
        <time>2020-02-08T13:02:16Z</time>
      </trkpt>
      <trkpt lat="42.71705" lon="1.64455">
        <ele>1715.1</ele>
        <time>2020-02-08T13:02:17Z</time>
      </trkpt>
      <trkpt lat="42.71704" lon="1.64454">
        <ele>1715.1</ele>
        <time>2020-02-08T13:02:18Z</time>
      </trkpt>
      <trkpt lat="42.71704" lon="1.64453">
        <ele>1715.1</ele>
        <time>2020-02-08T13:02:19Z</time>
      </trkpt>
      <trkpt lat="42.71704" lon="1.64453">
        <ele>1715.1</ele>
        <time>2020-02-08T13:02:20Z</time>
      </trkpt>
      <trkpt lat="42.71704" lon="1.64453">
        <ele>1715.1</ele>
        <time>2020-02-08T13:02:21Z</time>
      </trkpt>
      <trkpt lat="42.71704" lon="1.64453">
        <ele>1715.1</ele>
        <time>2020-02-08T13:02:22Z</time>
      </trkpt>
      <trkpt lat="42.71704" lon="1.64453">
        <ele>1715.1</ele>
        <time>2020-02-08T13:02:23Z</time>
      </trkpt>
      <trkpt lat="42.71704" lon="1.64453">
        <ele>1715.1</ele>
        <time>2020-02-08T13:02:24Z</time>
      </trkpt>
      <trkpt lat="42.71704" lon="1.64453">
        <ele>1715.1</ele>
        <time>2020-02-08T13:02:25Z</time>
      </trkpt>
      <trkpt lat="42.71704" lon="1.64453">
        <ele>1715.1</ele>
        <time>2020-02-08T13:02:26Z</time>
      </trkpt>
      <trkpt lat="42.71704" lon="1.64453">
        <ele>1715.1</ele>
        <time>2020-02-08T13:02:27Z</time>
      </trkpt>
      <trkpt lat="42.71704" lon="1.64453">
        <ele>1715.1</ele>
        <time>2020-02-08T13:02:28Z</time>
      </trkpt>
      <trkpt lat="42.71704" lon="1.64453">
        <ele>1715.1</ele>
        <time>2020-02-08T13:02:29Z</time>
      </trkpt>
      <trkpt lat="42.71704" lon="1.64453">
        <ele>1715.1</ele>
        <time>2020-02-08T13:02:30Z</time>
      </trkpt>
      <trkpt lat="42.71704" lon="1.64453">
        <ele>1715.1</ele>
        <time>2020-02-08T13:02:31Z</time>
      </trkpt>
      <trkpt lat="42.71704" lon="1.64453">
        <ele>1715.1</ele>
        <time>2020-02-08T13:02:32Z</time>
      </trkpt>
      <trkpt lat="42.71704" lon="1.64453">
        <ele>1715.1</ele>
        <time>2020-02-08T13:02:33Z</time>
      </trkpt>
      <trkpt lat="42.71704" lon="1.64453">
        <ele>1715.1</ele>
        <time>2020-02-08T13:02:34Z</time>
      </trkpt>
      <trkpt lat="42.71704" lon="1.64453">
        <ele>1715.1</ele>
        <time>2020-02-08T13:02:35Z</time>
      </trkpt>
      <trkpt lat="42.71704" lon="1.64453">
        <ele>1715.1</ele>
        <time>2020-02-08T13:02:36Z</time>
      </trkpt>
      <trkpt lat="42.71704" lon="1.64453">
        <ele>1715.1</ele>
        <time>2020-02-08T13:02:37Z</time>
      </trkpt>
      <trkpt lat="42.71704" lon="1.64453">
        <ele>1715.1</ele>
        <time>2020-02-08T13:02:38Z</time>
      </trkpt>
      <trkpt lat="42.71704" lon="1.64453">
        <ele>1715.1</ele>
        <time>2020-02-08T13:02:39Z</time>
      </trkpt>
      <trkpt lat="42.71704" lon="1.64453">
        <ele>1715.1</ele>
        <time>2020-02-08T13:02:40Z</time>
      </trkpt>
      <trkpt lat="42.71704" lon="1.64453">
        <ele>1715.1</ele>
        <time>2020-02-08T13:02:41Z</time>
      </trkpt>
      <trkpt lat="42.71704" lon="1.64453">
        <ele>1715.1</ele>
        <time>2020-02-08T13:02:42Z</time>
      </trkpt>
      <trkpt lat="42.71704" lon="1.64453">
        <ele>1715.1</ele>
        <time>2020-02-08T13:02:43Z</time>
      </trkpt>
      <trkpt lat="42.71704" lon="1.64453">
        <ele>1715.1</ele>
        <time>2020-02-08T13:02:44Z</time>
      </trkpt>
      <trkpt lat="42.71704" lon="1.64453">
        <ele>1715.1</ele>
        <time>2020-02-08T13:02:45Z</time>
      </trkpt>
      <trkpt lat="42.71704" lon="1.64453">
        <ele>1715.1</ele>
        <time>2020-02-08T13:02:46Z</time>
      </trkpt>
      <trkpt lat="42.71704" lon="1.64453">
        <ele>1715.1</ele>
        <time>2020-02-08T13:02:47Z</time>
      </trkpt>
      <trkpt lat="42.71704" lon="1.64453">
        <ele>1715.1</ele>
        <time>2020-02-08T13:02:48Z</time>
      </trkpt>
      <trkpt lat="42.71704" lon="1.64453">
        <ele>1715.1</ele>
        <time>2020-02-08T13:02:49Z</time>
      </trkpt>
      <trkpt lat="42.71704" lon="1.64453">
        <ele>1715.1</ele>
        <time>2020-02-08T13:02:50Z</time>
      </trkpt>
      <trkpt lat="42.71704" lon="1.64453">
        <ele>1715.1</ele>
        <time>2020-02-08T13:02:51Z</time>
      </trkpt>
      <trkpt lat="42.71704" lon="1.64453">
        <ele>1715.1</ele>
        <time>2020-02-08T13:02:52Z</time>
      </trkpt>
      <trkpt lat="42.71704" lon="1.64453">
        <ele>1715.1</ele>
        <time>2020-02-08T13:02:53Z</time>
      </trkpt>
      <trkpt lat="42.71704" lon="1.64453">
        <ele>1715.1</ele>
        <time>2020-02-08T13:02:54Z</time>
      </trkpt>
      <trkpt lat="42.71704" lon="1.64453">
        <ele>1715.1</ele>
        <time>2020-02-08T13:02:55Z</time>
      </trkpt>
      <trkpt lat="42.71704" lon="1.64453">
        <ele>1715.1</ele>
        <time>2020-02-08T13:02:56Z</time>
      </trkpt>
      <trkpt lat="42.71704" lon="1.64453">
        <ele>1715.1</ele>
        <time>2020-02-08T13:02:57Z</time>
      </trkpt>
      <trkpt lat="42.71704" lon="1.64453">
        <ele>1715.1</ele>
        <time>2020-02-08T13:02:58Z</time>
      </trkpt>
      <trkpt lat="42.71704" lon="1.64453">
        <ele>1715.1</ele>
        <time>2020-02-08T13:02:59Z</time>
      </trkpt>
      <trkpt lat="42.71704" lon="1.64453">
        <ele>1715.1</ele>
        <time>2020-02-08T13:03:00Z</time>
      </trkpt>
      <trkpt lat="42.71704" lon="1.64453">
        <ele>1715.1</ele>
        <time>2020-02-08T13:03:01Z</time>
      </trkpt>
      <trkpt lat="42.71704" lon="1.64453">
        <ele>1715.1</ele>
        <time>2020-02-08T13:03:02Z</time>
      </trkpt>
      <trkpt lat="42.71704" lon="1.64453">
        <ele>1715.1</ele>
        <time>2020-02-08T13:03:03Z</time>
      </trkpt>
      <trkpt lat="42.71704" lon="1.64453">
        <ele>1715.1</ele>
        <time>2020-02-08T13:03:04Z</time>
      </trkpt>
      <trkpt lat="42.71704" lon="1.64453">
        <ele>1715.1</ele>
        <time>2020-02-08T13:03:05Z</time>
      </trkpt>
      <trkpt lat="42.71704" lon="1.64453">
        <ele>1715.1</ele>
        <time>2020-02-08T13:03:06Z</time>
      </trkpt>
      <trkpt lat="42.71704" lon="1.64453">
        <ele>1715.1</ele>
        <time>2020-02-08T13:03:07Z</time>
      </trkpt>
      <trkpt lat="42.71704" lon="1.64453">
        <ele>1715.1</ele>
        <time>2020-02-08T13:03:08Z</time>
      </trkpt>
      <trkpt lat="42.71704" lon="1.64453">
        <ele>1715.1</ele>
        <time>2020-02-08T13:03:09Z</time>
      </trkpt>
      <trkpt lat="42.71704" lon="1.64453">
        <ele>1715.1</ele>
        <time>2020-02-08T13:03:10Z</time>
      </trkpt>
      <trkpt lat="42.71704" lon="1.64453">
        <ele>1715.1</ele>
        <time>2020-02-08T13:03:11Z</time>
      </trkpt>
      <trkpt lat="42.71704" lon="1.64453">
        <ele>1715.1</ele>
        <time>2020-02-08T13:03:12Z</time>
      </trkpt>
      <trkpt lat="42.71704" lon="1.64453">
        <ele>1715.1</ele>
        <time>2020-02-08T13:03:13Z</time>
      </trkpt>
      <trkpt lat="42.71704" lon="1.64453">
        <ele>1715.1</ele>
        <time>2020-02-08T13:03:14Z</time>
      </trkpt>
      <trkpt lat="42.71704" lon="1.64453">
        <ele>1715.1</ele>
        <time>2020-02-08T13:03:15Z</time>
      </trkpt>
      <trkpt lat="42.71704" lon="1.64453">
        <ele>1715.1</ele>
        <time>2020-02-08T13:03:16Z</time>
      </trkpt>
      <trkpt lat="42.71704" lon="1.64453">
        <ele>1715.1</ele>
        <time>2020-02-08T13:03:17Z</time>
      </trkpt>
      <trkpt lat="42.71704" lon="1.64453">
        <ele>1715.1</ele>
        <time>2020-02-08T13:03:18Z</time>
      </trkpt>
      <trkpt lat="42.71704" lon="1.64453">
        <ele>1715.1</ele>
        <time>2020-02-08T13:03:19Z</time>
      </trkpt>
      <trkpt lat="42.71704" lon="1.64453">
        <ele>1715.1</ele>
        <time>2020-02-08T13:03:20Z</time>
      </trkpt>
      <trkpt lat="42.71704" lon="1.64453">
        <ele>1715.1</ele>
        <time>2020-02-08T13:03:21Z</time>
      </trkpt>
      <trkpt lat="42.71704" lon="1.64453">
        <ele>1715.1</ele>
        <time>2020-02-08T13:03:22Z</time>
      </trkpt>
      <trkpt lat="42.71704" lon="1.64453">
        <ele>1715.1</ele>
        <time>2020-02-08T13:03:23Z</time>
      </trkpt>
      <trkpt lat="42.71704" lon="1.64453">
        <ele>1715.1</ele>
        <time>2020-02-08T13:03:24Z</time>
      </trkpt>
      <trkpt lat="42.71704" lon="1.64453">
        <ele>1715.1</ele>
        <time>2020-02-08T13:03:25Z</time>
      </trkpt>
      <trkpt lat="42.71704" lon="1.64453">
        <ele>1715.1</ele>
        <time>2020-02-08T13:03:26Z</time>
      </trkpt>
      <trkpt lat="42.71704" lon="1.64453">
        <ele>1715.1</ele>
        <time>2020-02-08T13:03:27Z</time>
      </trkpt>
      <trkpt lat="42.71704" lon="1.64453">
        <ele>1715.1</ele>
        <time>2020-02-08T13:03:28Z</time>
      </trkpt>
      <trkpt lat="42.71704" lon="1.64453">
        <ele>1715.1</ele>
        <time>2020-02-08T13:03:29Z</time>
      </trkpt>
      <trkpt lat="42.71704" lon="1.64453">
        <ele>1715.1</ele>
        <time>2020-02-08T13:03:30Z</time>
      </trkpt>
      <trkpt lat="42.71704" lon="1.64453">
        <ele>1715.1</ele>
        <time>2020-02-08T13:03:31Z</time>
      </trkpt>
      <trkpt lat="42.71704" lon="1.64453">
        <ele>1715.1</ele>
        <time>2020-02-08T13:03:32Z</time>
      </trkpt>
      <trkpt lat="42.71704" lon="1.64453">
        <ele>1715.1</ele>
        <time>2020-02-08T13:03:33Z</time>
      </trkpt>
      <trkpt lat="42.71704" lon="1.64453">
        <ele>1715.1</ele>
        <time>2020-02-08T13:03:34Z</time>
      </trkpt>
      <trkpt lat="42.71704" lon="1.64453">
        <ele>1715.1</ele>
        <time>2020-02-08T13:03:35Z</time>
      </trkpt>
      <trkpt lat="42.71704" lon="1.64453">
        <ele>1715.1</ele>
        <time>2020-02-08T13:03:36Z</time>
      </trkpt>
      <trkpt lat="42.71704" lon="1.64453">
        <ele>1715.1</ele>
        <time>2020-02-08T13:03:37Z</time>
      </trkpt>
      <trkpt lat="42.71704" lon="1.64453">
        <ele>1715.1</ele>
        <time>2020-02-08T13:03:38Z</time>
      </trkpt>
      <trkpt lat="42.71704" lon="1.64453">
        <ele>1715.1</ele>
        <time>2020-02-08T13:03:39Z</time>
      </trkpt>
      <trkpt lat="42.71704" lon="1.64453">
        <ele>1715.1</ele>
        <time>2020-02-08T13:03:40Z</time>
      </trkpt>
      <trkpt lat="42.71704" lon="1.64453">
        <ele>1715.1</ele>
        <time>2020-02-08T13:03:41Z</time>
      </trkpt>
      <trkpt lat="42.71704" lon="1.64453">
        <ele>1715.1</ele>
        <time>2020-02-08T13:03:42Z</time>
      </trkpt>
      <trkpt lat="42.71704" lon="1.64453">
        <ele>1715.1</ele>
        <time>2020-02-08T13:03:43Z</time>
      </trkpt>
      <trkpt lat="42.71704" lon="1.64453">
        <ele>1715.1</ele>
        <time>2020-02-08T13:03:44Z</time>
      </trkpt>
      <trkpt lat="42.71704" lon="1.64453">
        <ele>1715.1</ele>
        <time>2020-02-08T13:03:45Z</time>
      </trkpt>
      <trkpt lat="42.71704" lon="1.64453">
        <ele>1715.1</ele>
        <time>2020-02-08T13:03:46Z</time>
      </trkpt>
      <trkpt lat="42.71704" lon="1.64453">
        <ele>1715.1</ele>
        <time>2020-02-08T13:03:47Z</time>
      </trkpt>
      <trkpt lat="42.71704" lon="1.64453">
        <ele>1715.1</ele>
        <time>2020-02-08T13:03:48Z</time>
      </trkpt>
      <trkpt lat="42.71704" lon="1.64453">
        <ele>1715.1</ele>
        <time>2020-02-08T13:03:49Z</time>
      </trkpt>
      <trkpt lat="42.71704" lon="1.64453">
        <ele>1715.1</ele>
        <time>2020-02-08T13:03:50Z</time>
      </trkpt>
      <trkpt lat="42.71704" lon="1.64453">
        <ele>1715.1</ele>
        <time>2020-02-08T13:03:51Z</time>
      </trkpt>
      <trkpt lat="42.71704" lon="1.64453">
        <ele>1715.1</ele>
        <time>2020-02-08T13:03:52Z</time>
      </trkpt>
      <trkpt lat="42.71704" lon="1.64453">
        <ele>1715.1</ele>
        <time>2020-02-08T13:03:53Z</time>
      </trkpt>
      <trkpt lat="42.71704" lon="1.64453">
        <ele>1715.1</ele>
        <time>2020-02-08T13:03:54Z</time>
      </trkpt>
      <trkpt lat="42.71704" lon="1.64453">
        <ele>1715.1</ele>
        <time>2020-02-08T13:03:55Z</time>
      </trkpt>
      <trkpt lat="42.71704" lon="1.64453">
        <ele>1715.1</ele>
        <time>2020-02-08T13:03:56Z</time>
      </trkpt>
      <trkpt lat="42.71704" lon="1.64453">
        <ele>1715.1</ele>
        <time>2020-02-08T13:03:57Z</time>
      </trkpt>
      <trkpt lat="42.71704" lon="1.64453">
        <ele>1715.1</ele>
        <time>2020-02-08T13:03:58Z</time>
      </trkpt>
      <trkpt lat="42.71704" lon="1.64453">
        <ele>1715.1</ele>
        <time>2020-02-08T13:03:59Z</time>
      </trkpt>
      <trkpt lat="42.71704" lon="1.64453">
        <ele>1715.1</ele>
        <time>2020-02-08T13:04:00Z</time>
      </trkpt>
      <trkpt lat="42.71704" lon="1.64453">
        <ele>1715.1</ele>
        <time>2020-02-08T13:04:01Z</time>
      </trkpt>
      <trkpt lat="42.71704" lon="1.64453">
        <ele>1715.1</ele>
        <time>2020-02-08T13:04:02Z</time>
      </trkpt>
      <trkpt lat="42.71704" lon="1.64453">
        <ele>1715.1</ele>
        <time>2020-02-08T13:04:03Z</time>
      </trkpt>
      <trkpt lat="42.71704" lon="1.64453">
        <ele>1715.1</ele>
        <time>2020-02-08T13:04:04Z</time>
      </trkpt>
      <trkpt lat="42.71704" lon="1.64453">
        <ele>1715.1</ele>
        <time>2020-02-08T13:04:05Z</time>
      </trkpt>
      <trkpt lat="42.71704" lon="1.64453">
        <ele>1715.1</ele>
        <time>2020-02-08T13:04:06Z</time>
      </trkpt>
      <trkpt lat="42.71704" lon="1.64453">
        <ele>1715.1</ele>
        <time>2020-02-08T13:04:07Z</time>
      </trkpt>
      <trkpt lat="42.71704" lon="1.64453">
        <ele>1715.1</ele>
        <time>2020-02-08T13:04:08Z</time>
      </trkpt>
      <trkpt lat="42.71704" lon="1.64453">
        <ele>1715.1</ele>
        <time>2020-02-08T13:04:09Z</time>
      </trkpt>
      <trkpt lat="42.71704" lon="1.64453">
        <ele>1715.1</ele>
        <time>2020-02-08T13:04:10Z</time>
      </trkpt>
      <trkpt lat="42.71704" lon="1.64453">
        <ele>1715.1</ele>
        <time>2020-02-08T13:04:11Z</time>
      </trkpt>
      <trkpt lat="42.71704" lon="1.64453">
        <ele>1715.1</ele>
        <time>2020-02-08T13:04:12Z</time>
      </trkpt>
      <trkpt lat="42.71704" lon="1.64453">
        <ele>1715.1</ele>
        <time>2020-02-08T13:04:13Z</time>
      </trkpt>
      <trkpt lat="42.71704" lon="1.64453">
        <ele>1715.1</ele>
        <time>2020-02-08T13:04:14Z</time>
      </trkpt>
      <trkpt lat="42.71704" lon="1.64453">
        <ele>1715.1</ele>
        <time>2020-02-08T13:04:15Z</time>
      </trkpt>
      <trkpt lat="42.71704" lon="1.64453">
        <ele>1715.1</ele>
        <time>2020-02-08T13:04:16Z</time>
      </trkpt>
      <trkpt lat="42.71704" lon="1.64453">
        <ele>1715.1</ele>
        <time>2020-02-08T13:04:17Z</time>
      </trkpt>
      <trkpt lat="42.71704" lon="1.64453">
        <ele>1715.1</ele>
        <time>2020-02-08T13:04:18Z</time>
      </trkpt>
      <trkpt lat="42.71704" lon="1.64453">
        <ele>1715.1</ele>
        <time>2020-02-08T13:04:19Z</time>
      </trkpt>
      <trkpt lat="42.71704" lon="1.64453">
        <ele>1715.1</ele>
        <time>2020-02-08T13:04:20Z</time>
      </trkpt>
      <trkpt lat="42.71704" lon="1.64453">
        <ele>1715.1</ele>
        <time>2020-02-08T13:04:21Z</time>
      </trkpt>
      <trkpt lat="42.71704" lon="1.64453">
        <ele>1715.1</ele>
        <time>2020-02-08T13:04:22Z</time>
      </trkpt>
      <trkpt lat="42.71704" lon="1.64453">
        <ele>1715.1</ele>
        <time>2020-02-08T13:04:23Z</time>
      </trkpt>
      <trkpt lat="42.71701" lon="1.64453">
        <ele>1715.1</ele>
        <time>2020-02-08T13:04:24Z</time>
      </trkpt>
      <trkpt lat="42.71701" lon="1.64453">
        <ele>1715.1</ele>
        <time>2020-02-08T13:04:25Z</time>
      </trkpt>
      <trkpt lat="42.71701" lon="1.64453">
        <ele>1715.1</ele>
        <time>2020-02-08T13:04:26Z</time>
      </trkpt>
      <trkpt lat="42.71701" lon="1.64453">
        <ele>1715.1</ele>
        <time>2020-02-08T13:04:27Z</time>
      </trkpt>
      <trkpt lat="42.71701" lon="1.64453">
        <ele>1715.1</ele>
        <time>2020-02-08T13:04:28Z</time>
      </trkpt>
      <trkpt lat="42.71701" lon="1.64453">
        <ele>1715.1</ele>
        <time>2020-02-08T13:04:29Z</time>
      </trkpt>
      <trkpt lat="42.71701" lon="1.64453">
        <ele>1715.1</ele>
        <time>2020-02-08T13:04:30Z</time>
      </trkpt>
      <trkpt lat="42.71701" lon="1.64453">
        <ele>1715.1</ele>
        <time>2020-02-08T13:04:31Z</time>
      </trkpt>
      <trkpt lat="42.717" lon="1.64452">
        <ele>1715.1</ele>
        <time>2020-02-08T13:04:32Z</time>
      </trkpt>
      <trkpt lat="42.717" lon="1.64452">
        <ele>1715</ele>
        <time>2020-02-08T13:04:33Z</time>
      </trkpt>
      <trkpt lat="42.717" lon="1.64452">
        <ele>1715</ele>
        <time>2020-02-08T13:04:34Z</time>
      </trkpt>
      <trkpt lat="42.71699" lon="1.64451">
        <ele>1715.4</ele>
        <time>2020-02-08T13:04:35Z</time>
      </trkpt>
      <trkpt lat="42.71699" lon="1.64451">
        <ele>1715.4</ele>
        <time>2020-02-08T13:04:36Z</time>
      </trkpt>
      <trkpt lat="42.71699" lon="1.64451">
        <ele>1715.4</ele>
        <time>2020-02-08T13:04:37Z</time>
      </trkpt>
      <trkpt lat="42.71698" lon="1.64451">
        <ele>1715.4</ele>
        <time>2020-02-08T14:04:23Z</time>
      </trkpt>
      <trkpt lat="42.71698" lon="1.6445">
        <ele>1715.4</ele>
        <time>2020-02-08T14:04:24Z</time>
      </trkpt>
      <trkpt lat="42.71697" lon="1.6445">
        <ele>1715.4</ele>
        <time>2020-02-08T14:04:25Z</time>
      </trkpt>
      <trkpt lat="42.71697" lon="1.6445">
        <ele>1715.4</ele>
        <time>2020-02-08T14:04:26Z</time>
      </trkpt>
      <trkpt lat="42.71697" lon="1.6445">
        <ele>1715.3</ele>
        <time>2020-02-08T14:04:27Z</time>
      </trkpt>
      <trkpt lat="42.71696" lon="1.64449">
        <ele>1715.3</ele>
        <time>2020-02-08T14:04:28Z</time>
      </trkpt>
      <trkpt lat="42.71696" lon="1.64449">
        <ele>1715.3</ele>
        <time>2020-02-08T14:04:29Z</time>
      </trkpt>
      <trkpt lat="42.71696" lon="1.64449">
        <ele>1715.3</ele>
        <time>2020-02-08T14:04:30Z</time>
      </trkpt>
      <trkpt lat="42.71695" lon="1.64448">
        <ele>1715.3</ele>
        <time>2020-02-08T14:04:31Z</time>
      </trkpt>
      <trkpt lat="42.71695" lon="1.64448">
        <ele>1715.3</ele>
        <time>2020-02-08T14:04:32Z</time>
      </trkpt>
      <trkpt lat="42.71695" lon="1.64448">
        <ele>1715.3</ele>
        <time>2020-02-08T14:04:33Z</time>
      </trkpt>
      <trkpt lat="42.71694" lon="1.64448">
        <ele>1715.3</ele>
        <time>2020-02-08T14:04:34Z</time>
      </trkpt>
      <trkpt lat="42.71694" lon="1.64447">
        <ele>1715.6</ele>
        <time>2020-02-08T14:04:35Z</time>
      </trkpt>
      <trkpt lat="42.71693" lon="1.64447">
        <ele>1715.6</ele>
        <time>2020-02-08T14:04:36Z</time>
      </trkpt>
      <trkpt lat="42.71693" lon="1.64447">
        <ele>1715.6</ele>
        <time>2020-02-08T14:04:37Z</time>
      </trkpt>
      <trkpt lat="42.71693" lon="1.64447">
        <ele>1715.6</ele>
        <time>2020-02-08T14:04:38Z</time>
      </trkpt>
      <trkpt lat="42.71692" lon="1.64446">
        <ele>1715.6</ele>
        <time>2020-02-08T14:04:39Z</time>
      </trkpt>
      <trkpt lat="42.71692" lon="1.64446">
        <ele>1715.6</ele>
        <time>2020-02-08T14:04:40Z</time>
      </trkpt>
      <trkpt lat="42.71692" lon="1.64446">
        <ele>1715.6</ele>
        <time>2020-02-08T14:04:41Z</time>
      </trkpt>
      <trkpt lat="42.71691" lon="1.64445">
        <ele>1715.6</ele>
        <time>2020-02-08T14:04:42Z</time>
      </trkpt>
      <trkpt lat="42.71691" lon="1.64445">
        <ele>1715.6</ele>
        <time>2020-02-08T14:04:43Z</time>
      </trkpt>
      <trkpt lat="42.7169" lon="1.64442">
        <ele>1715.8</ele>
        <time>2020-02-08T14:04:44Z</time>
      </trkpt>
      <trkpt lat="42.71689" lon="1.64441">
        <ele>1715.8</ele>
        <time>2020-02-08T14:04:45Z</time>
      </trkpt>
      <trkpt lat="42.71689" lon="1.6444">
        <ele>1715.8</ele>
        <time>2020-02-08T14:04:46Z</time>
      </trkpt>
      <trkpt lat="42.71689" lon="1.6444">
        <ele>1715.8</ele>
        <time>2020-02-08T14:04:47Z</time>
      </trkpt>
      <trkpt lat="42.71688" lon="1.64439">
        <ele>1716.1</ele>
        <time>2020-02-08T14:04:48Z</time>
      </trkpt>
      <trkpt lat="42.71688" lon="1.64438">
        <ele>1716.1</ele>
        <time>2020-02-08T14:04:49Z</time>
      </trkpt>
      <trkpt lat="42.71687" lon="1.64437">
        <ele>1715.9</ele>
        <time>2020-02-08T14:04:50Z</time>
      </trkpt>
      <trkpt lat="42.71687" lon="1.64436">
        <ele>1715.9</ele>
        <time>2020-02-08T14:04:51Z</time>
      </trkpt>
      <trkpt lat="42.71687" lon="1.64435">
        <ele>1715.9</ele>
        <time>2020-02-08T14:04:52Z</time>
      </trkpt>
      <trkpt lat="42.71686" lon="1.64435">
        <ele>1715.9</ele>
        <time>2020-02-08T14:04:53Z</time>
      </trkpt>
      <trkpt lat="42.71686" lon="1.64434">
        <ele>1716.2</ele>
        <time>2020-02-08T14:04:54Z</time>
      </trkpt>
      <trkpt lat="42.71685" lon="1.64433">
        <ele>1716.2</ele>
        <time>2020-02-08T14:04:55Z</time>
      </trkpt>
      <trkpt lat="42.71684" lon="1.64432">
        <ele>1716</ele>
        <time>2020-02-08T14:04:56Z</time>
      </trkpt>
      <trkpt lat="42.71684" lon="1.64431">
        <ele>1716</ele>
        <time>2020-02-08T14:04:57Z</time>
      </trkpt>
      <trkpt lat="42.71683" lon="1.6443">
        <ele>1716.4</ele>
        <time>2020-02-08T14:04:58Z</time>
      </trkpt>
      <trkpt lat="42.71682" lon="1.64429">
        <ele>1716.4</ele>
        <time>2020-02-08T14:04:59Z</time>
      </trkpt>
      <trkpt lat="42.71682" lon="1.64428">
        <ele>1716.4</ele>
        <time>2020-02-08T14:05:00Z</time>
      </trkpt>
      <trkpt lat="42.71681" lon="1.64427">
        <ele>1716.1</ele>
        <time>2020-02-08T14:05:01Z</time>
      </trkpt>
      <trkpt lat="42.71681" lon="1.64426">
        <ele>1716.1</ele>
        <time>2020-02-08T14:05:02Z</time>
      </trkpt>
      <trkpt lat="42.7168" lon="1.64425">
        <ele>1716.4</ele>
        <time>2020-02-08T14:05:03Z</time>
      </trkpt>
      <trkpt lat="42.7168" lon="1.64424">
        <ele>1716.4</ele>
        <time>2020-02-08T14:05:04Z</time>
      </trkpt>
      <trkpt lat="42.7168" lon="1.64423">
        <ele>1716.4</ele>
        <time>2020-02-08T14:05:05Z</time>
      </trkpt>
      <trkpt lat="42.71679" lon="1.64422">
        <ele>1716.4</ele>
        <time>2020-02-08T14:05:06Z</time>
      </trkpt>
      <trkpt lat="42.71679" lon="1.64422">
        <ele>1716.8</ele>
        <time>2020-02-08T14:05:07Z</time>
      </trkpt>
      <trkpt lat="42.71679" lon="1.64421">
        <ele>1716.8</ele>
        <time>2020-02-08T14:05:08Z</time>
      </trkpt>
      <trkpt lat="42.71679" lon="1.6442">
        <ele>1716.8</ele>
        <time>2020-02-08T14:05:09Z</time>
      </trkpt>
      <trkpt lat="42.71679" lon="1.64419">
        <ele>1716.8</ele>
        <time>2020-02-08T14:05:10Z</time>
      </trkpt>
      <trkpt lat="42.71679" lon="1.64418">
        <ele>1716.8</ele>
        <time>2020-02-08T14:05:11Z</time>
      </trkpt>
      <trkpt lat="42.71679" lon="1.64417">
        <ele>1717.2</ele>
        <time>2020-02-08T14:05:12Z</time>
      </trkpt>
      <trkpt lat="42.71678" lon="1.64416">
        <ele>1717.2</ele>
        <time>2020-02-08T14:05:13Z</time>
      </trkpt>
      <trkpt lat="42.71678" lon="1.64415">
        <ele>1716.9</ele>
        <time>2020-02-08T14:05:14Z</time>
      </trkpt>
      <trkpt lat="42.71678" lon="1.64414">
        <ele>1716.9</ele>
        <time>2020-02-08T14:05:15Z</time>
      </trkpt>
      <trkpt lat="42.71678" lon="1.64413">
        <ele>1717.3</ele>
        <time>2020-02-08T14:05:16Z</time>
      </trkpt>
      <trkpt lat="42.71678" lon="1.64412">
        <ele>1717.3</ele>
        <time>2020-02-08T14:05:17Z</time>
      </trkpt>
      <trkpt lat="42.71678" lon="1.64411">
        <ele>1717.3</ele>
        <time>2020-02-08T14:05:18Z</time>
      </trkpt>
      <trkpt lat="42.71677" lon="1.6441">
        <ele>1717.3</ele>
        <time>2020-02-08T14:05:19Z</time>
      </trkpt>
      <trkpt lat="42.71677" lon="1.64409">
        <ele>1717.3</ele>
        <time>2020-02-08T14:05:20Z</time>
      </trkpt>
      <trkpt lat="42.71677" lon="1.64408">
        <ele>1717.6</ele>
        <time>2020-02-08T14:05:21Z</time>
      </trkpt>
      <trkpt lat="42.71677" lon="1.64407">
        <ele>1717.6</ele>
        <time>2020-02-08T14:05:22Z</time>
      </trkpt>
      <trkpt lat="42.71677" lon="1.64407">
        <ele>1717.6</ele>
        <time>2020-02-08T14:05:23Z</time>
      </trkpt>
      <trkpt lat="42.71676" lon="1.64402">
        <ele>1717.9</ele>
        <time>2020-02-08T14:05:24Z</time>
      </trkpt>
      <trkpt lat="42.71676" lon="1.644">
        <ele>1717.9</ele>
        <time>2020-02-08T14:05:25Z</time>
      </trkpt>
      <trkpt lat="42.71675" lon="1.64399">
        <ele>1717.8</ele>
        <time>2020-02-08T14:05:26Z</time>
      </trkpt>
      <trkpt lat="42.71675" lon="1.64398">
        <ele>1717.8</ele>
        <time>2020-02-08T14:05:27Z</time>
      </trkpt>
      <trkpt lat="42.71674" lon="1.64397">
        <ele>1717.8</ele>
        <time>2020-02-08T14:05:28Z</time>
      </trkpt>
      <trkpt lat="42.71674" lon="1.64395">
        <ele>1718.1</ele>
        <time>2020-02-08T14:05:29Z</time>
      </trkpt>
      <trkpt lat="42.71673" lon="1.64394">
        <ele>1718.1</ele>
        <time>2020-02-08T14:05:30Z</time>
      </trkpt>
      <trkpt lat="42.71673" lon="1.64393">
        <ele>1718.1</ele>
        <time>2020-02-08T14:05:31Z</time>
      </trkpt>
      <trkpt lat="42.71672" lon="1.64392">
        <ele>1718.1</ele>
        <time>2020-02-08T14:05:32Z</time>
      </trkpt>
      <trkpt lat="42.71672" lon="1.64391">
        <ele>1718</ele>
        <time>2020-02-08T14:05:33Z</time>
      </trkpt>
      <trkpt lat="42.71671" lon="1.64388">
        <ele>1718</ele>
        <time>2020-02-08T14:05:34Z</time>
      </trkpt>
      <trkpt lat="42.71671" lon="1.64387">
        <ele>1718.3</ele>
        <time>2020-02-08T14:05:35Z</time>
      </trkpt>
      <trkpt lat="42.7167" lon="1.64386">
        <ele>1718.3</ele>
        <time>2020-02-08T14:05:36Z</time>
      </trkpt>
      <trkpt lat="42.7167" lon="1.64384">
        <ele>1718.3</ele>
        <time>2020-02-08T14:05:37Z</time>
      </trkpt>
      <trkpt lat="42.7167" lon="1.64383">
        <ele>1718.3</ele>
        <time>2020-02-08T14:05:38Z</time>
      </trkpt>
      <trkpt lat="42.7167" lon="1.64382">
        <ele>1718.6</ele>
        <time>2020-02-08T14:05:39Z</time>
      </trkpt>
      <trkpt lat="42.71669" lon="1.64381">
        <ele>1718.6</ele>
        <time>2020-02-08T14:05:40Z</time>
      </trkpt>
      <trkpt lat="42.71669" lon="1.6438">
        <ele>1718.6</ele>
        <time>2020-02-08T14:05:41Z</time>
      </trkpt>
      <trkpt lat="42.71669" lon="1.64379">
        <ele>1718.9</ele>
        <time>2020-02-08T14:05:42Z</time>
      </trkpt>
      <trkpt lat="42.71669" lon="1.64378">
        <ele>1718.6</ele>
        <time>2020-02-08T14:05:43Z</time>
      </trkpt>
      <trkpt lat="42.71669" lon="1.64377">
        <ele>1718.9</ele>
        <time>2020-02-08T14:05:44Z</time>
      </trkpt>
      <trkpt lat="42.71669" lon="1.64376">
        <ele>1718.9</ele>
        <time>2020-02-08T14:05:45Z</time>
      </trkpt>
      <trkpt lat="42.71669" lon="1.64375">
        <ele>1718.9</ele>
        <time>2020-02-08T14:05:46Z</time>
      </trkpt>
      <trkpt lat="42.71669" lon="1.64374">
        <ele>1719.2</ele>
        <time>2020-02-08T14:05:47Z</time>
      </trkpt>
      <trkpt lat="42.7167" lon="1.64373">
        <ele>1719.2</ele>
        <time>2020-02-08T14:05:48Z</time>
      </trkpt>
      <trkpt lat="42.7167" lon="1.64372">
        <ele>1719.2</ele>
        <time>2020-02-08T14:05:49Z</time>
      </trkpt>
      <trkpt lat="42.7167" lon="1.64371">
        <ele>1719.2</ele>
        <time>2020-02-08T14:05:50Z</time>
      </trkpt>
      <trkpt lat="42.7167" lon="1.6437">
        <ele>1719.2</ele>
        <time>2020-02-08T14:05:51Z</time>
      </trkpt>
      <trkpt lat="42.7167" lon="1.64369">
        <ele>1719.6</ele>
        <time>2020-02-08T14:05:52Z</time>
      </trkpt>
      <trkpt lat="42.7167" lon="1.64368">
        <ele>1719.6</ele>
        <time>2020-02-08T14:05:53Z</time>
      </trkpt>
      <trkpt lat="42.71671" lon="1.64368">
        <ele>1719.6</ele>
        <time>2020-02-08T14:05:54Z</time>
      </trkpt>
      <trkpt lat="42.71671" lon="1.64367">
        <ele>1719.6</ele>
        <time>2020-02-08T14:05:55Z</time>
      </trkpt>
      <trkpt lat="42.71672" lon="1.64366">
        <ele>1719.6</ele>
        <time>2020-02-08T14:05:56Z</time>
      </trkpt>
      <trkpt lat="42.71672" lon="1.64366">
        <ele>1720.1</ele>
        <time>2020-02-08T14:05:57Z</time>
      </trkpt>
      <trkpt lat="42.71673" lon="1.64365">
        <ele>1720.1</ele>
        <time>2020-02-08T14:05:58Z</time>
      </trkpt>
      <trkpt lat="42.71673" lon="1.64364">
        <ele>1720.1</ele>
        <time>2020-02-08T14:05:59Z</time>
      </trkpt>
      <trkpt lat="42.71674" lon="1.64363">
        <ele>1720.1</ele>
        <time>2020-02-08T14:06:00Z</time>
      </trkpt>
      <trkpt lat="42.71674" lon="1.64363">
        <ele>1720.1</ele>
        <time>2020-02-08T14:06:01Z</time>
      </trkpt>
      <trkpt lat="42.71675" lon="1.64362">
        <ele>1720.1</ele>
        <time>2020-02-08T14:06:02Z</time>
      </trkpt>
      <trkpt lat="42.71675" lon="1.64361">
        <ele>1720.6</ele>
        <time>2020-02-08T14:06:03Z</time>
      </trkpt>
      <trkpt lat="42.71675" lon="1.64361">
        <ele>1720.6</ele>
        <time>2020-02-08T14:06:04Z</time>
      </trkpt>
      <trkpt lat="42.71675" lon="1.6436">
        <ele>1720.6</ele>
        <time>2020-02-08T14:06:05Z</time>
      </trkpt>
      <trkpt lat="42.71675" lon="1.64359">
        <ele>1720.6</ele>
        <time>2020-02-08T14:06:06Z</time>
      </trkpt>
      <trkpt lat="42.71675" lon="1.64358">
        <ele>1720.6</ele>
        <time>2020-02-08T14:06:07Z</time>
      </trkpt>
      <trkpt lat="42.71675" lon="1.64357">
        <ele>1720.6</ele>
        <time>2020-02-08T14:06:08Z</time>
      </trkpt>
      <trkpt lat="42.71675" lon="1.64356">
        <ele>1720.9</ele>
        <time>2020-02-08T14:06:09Z</time>
      </trkpt>
      <trkpt lat="42.71675" lon="1.64356">
        <ele>1720.7</ele>
        <time>2020-02-08T14:06:10Z</time>
      </trkpt>
      <trkpt lat="42.71675" lon="1.64355">
        <ele>1720.7</ele>
        <time>2020-02-08T14:06:11Z</time>
      </trkpt>
      <trkpt lat="42.71675" lon="1.64354">
        <ele>1720.7</ele>
        <time>2020-02-08T14:06:12Z</time>
      </trkpt>
      <trkpt lat="42.71675" lon="1.64353">
        <ele>1720.7</ele>
        <time>2020-02-08T14:06:13Z</time>
      </trkpt>
      <trkpt lat="42.71675" lon="1.64352">
        <ele>1721.1</ele>
        <time>2020-02-08T14:06:14Z</time>
      </trkpt>
      <trkpt lat="42.71676" lon="1.64351">
        <ele>1721.1</ele>
        <time>2020-02-08T14:06:15Z</time>
      </trkpt>
      <trkpt lat="42.71677" lon="1.6435">
        <ele>1721.1</ele>
        <time>2020-02-08T14:06:16Z</time>
      </trkpt>
      <trkpt lat="42.71677" lon="1.6435">
        <ele>1721.1</ele>
        <time>2020-02-08T14:06:17Z</time>
      </trkpt>
      <trkpt lat="42.71678" lon="1.64349">
        <ele>1721.4</ele>
        <time>2020-02-08T14:06:18Z</time>
      </trkpt>
      <trkpt lat="42.71678" lon="1.64348">
        <ele>1721.4</ele>
        <time>2020-02-08T14:06:19Z</time>
      </trkpt>
      <trkpt lat="42.71679" lon="1.64347">
        <ele>1721.5</ele>
        <time>2020-02-08T14:06:20Z</time>
      </trkpt>
      <trkpt lat="42.71679" lon="1.64346">
        <ele>1721.5</ele>
        <time>2020-02-08T14:06:21Z</time>
      </trkpt>
      <trkpt lat="42.7168" lon="1.64345">
        <ele>1721.5</ele>
        <time>2020-02-08T14:06:22Z</time>
      </trkpt>
      <trkpt lat="42.7168" lon="1.64344">
        <ele>1721.8</ele>
        <time>2020-02-08T14:06:23Z</time>
      </trkpt>
      <trkpt lat="42.71681" lon="1.64343">
        <ele>1721.8</ele>
        <time>2020-02-08T14:06:24Z</time>
      </trkpt>
      <trkpt lat="42.71681" lon="1.64342">
        <ele>1721.8</ele>
        <time>2020-02-08T14:06:25Z</time>
      </trkpt>
      <trkpt lat="42.71681" lon="1.64341">
        <ele>1721.8</ele>
        <time>2020-02-08T14:06:26Z</time>
      </trkpt>
      <trkpt lat="42.71681" lon="1.64341">
        <ele>1721.8</ele>
        <time>2020-02-08T14:06:27Z</time>
      </trkpt>
      <trkpt lat="42.71681" lon="1.6434">
        <ele>1722</ele>
        <time>2020-02-08T14:06:28Z</time>
      </trkpt>
      <trkpt lat="42.71681" lon="1.64339">
        <ele>1722</ele>
        <time>2020-02-08T14:06:29Z</time>
      </trkpt>
      <trkpt lat="42.71681" lon="1.64338">
        <ele>1722.2</ele>
        <time>2020-02-08T14:06:30Z</time>
      </trkpt>
      <trkpt lat="42.71682" lon="1.64337">
        <ele>1722.2</ele>
        <time>2020-02-08T14:06:31Z</time>
      </trkpt>
      <trkpt lat="42.71682" lon="1.64336">
        <ele>1722.2</ele>
        <time>2020-02-08T14:06:32Z</time>
      </trkpt>
      <trkpt lat="42.71682" lon="1.64335">
        <ele>1722.5</ele>
        <time>2020-02-08T14:06:33Z</time>
      </trkpt>
      <trkpt lat="42.7168" lon="1.64332">
        <ele>1722.3</ele>
        <time>2020-02-08T14:06:34Z</time>
      </trkpt>
      <trkpt lat="42.7168" lon="1.64331">
        <ele>1722.6</ele>
        <time>2020-02-08T14:06:35Z</time>
      </trkpt>
      <trkpt lat="42.71679" lon="1.6433">
        <ele>1722.6</ele>
        <time>2020-02-08T14:06:36Z</time>
      </trkpt>
      <trkpt lat="42.71678" lon="1.64329">
        <ele>1722.6</ele>
        <time>2020-02-08T14:06:37Z</time>
      </trkpt>
      <trkpt lat="42.71678" lon="1.64328">
        <ele>1722.5</ele>
        <time>2020-02-08T14:06:38Z</time>
      </trkpt>
      <trkpt lat="42.71677" lon="1.64327">
        <ele>1722.8</ele>
        <time>2020-02-08T14:06:39Z</time>
      </trkpt>
      <trkpt lat="42.71676" lon="1.64326">
        <ele>1722.8</ele>
        <time>2020-02-08T14:06:40Z</time>
      </trkpt>
      <trkpt lat="42.71676" lon="1.64325">
        <ele>1722.8</ele>
        <time>2020-02-08T14:06:41Z</time>
      </trkpt>
      <trkpt lat="42.71675" lon="1.64324">
        <ele>1722.7</ele>
        <time>2020-02-08T14:06:42Z</time>
      </trkpt>
      <trkpt lat="42.71674" lon="1.64323">
        <ele>1722.7</ele>
        <time>2020-02-08T14:06:43Z</time>
      </trkpt>
      <trkpt lat="42.71673" lon="1.64322">
        <ele>1723</ele>
        <time>2020-02-08T14:06:44Z</time>
      </trkpt>
      <trkpt lat="42.71672" lon="1.64321">
        <ele>1722.8</ele>
        <time>2020-02-08T14:06:45Z</time>
      </trkpt>
      <trkpt lat="42.71671" lon="1.64321">
        <ele>1722.8</ele>
        <time>2020-02-08T14:06:46Z</time>
      </trkpt>
      <trkpt lat="42.7167" lon="1.6432">
        <ele>1722.8</ele>
        <time>2020-02-08T14:06:47Z</time>
      </trkpt>
      <trkpt lat="42.71669" lon="1.6432">
        <ele>1722.8</ele>
        <time>2020-02-08T14:06:48Z</time>
      </trkpt>
      <trkpt lat="42.71669" lon="1.64319">
        <ele>1722.6</ele>
        <time>2020-02-08T14:06:49Z</time>
      </trkpt>
      <trkpt lat="42.71668" lon="1.64319">
        <ele>1722.6</ele>
        <time>2020-02-08T14:06:50Z</time>
      </trkpt>
      <trkpt lat="42.71667" lon="1.64318">
        <ele>1722.9</ele>
        <time>2020-02-08T14:06:51Z</time>
      </trkpt>
      <trkpt lat="42.71666" lon="1.64318">
        <ele>1722.9</ele>
        <time>2020-02-08T14:06:52Z</time>
      </trkpt>
      <trkpt lat="42.71665" lon="1.64317">
        <ele>1722.6</ele>
        <time>2020-02-08T14:06:53Z</time>
      </trkpt>
      <trkpt lat="42.71665" lon="1.64316">
        <ele>1722.6</ele>
        <time>2020-02-08T14:06:54Z</time>
      </trkpt>
      <trkpt lat="42.71665" lon="1.64315">
        <ele>1722.6</ele>
        <time>2020-02-08T14:06:55Z</time>
      </trkpt>
      <trkpt lat="42.71665" lon="1.64314">
        <ele>1722.9</ele>
        <time>2020-02-08T14:06:56Z</time>
      </trkpt>
      <trkpt lat="42.71664" lon="1.64313">
        <ele>1722.9</ele>
        <time>2020-02-08T14:06:57Z</time>
      </trkpt>
      <trkpt lat="42.71664" lon="1.64312">
        <ele>1722.9</ele>
        <time>2020-02-08T14:06:58Z</time>
      </trkpt>
      <trkpt lat="42.71664" lon="1.6431">
        <ele>1722.9</ele>
        <time>2020-02-08T14:06:59Z</time>
      </trkpt>
      <trkpt lat="42.71663" lon="1.64309">
        <ele>1723.2</ele>
        <time>2020-02-08T14:07:00Z</time>
      </trkpt>
      <trkpt lat="42.71663" lon="1.64308">
        <ele>1723.2</ele>
        <time>2020-02-08T14:07:01Z</time>
      </trkpt>
      <trkpt lat="42.71663" lon="1.64307">
        <ele>1723.2</ele>
        <time>2020-02-08T14:07:02Z</time>
      </trkpt>
      <trkpt lat="42.71662" lon="1.64306">
        <ele>1722.9</ele>
        <time>2020-02-08T14:07:03Z</time>
      </trkpt>
      <trkpt lat="42.71662" lon="1.64303">
        <ele>1723.2</ele>
        <time>2020-02-08T14:07:04Z</time>
      </trkpt>
      <trkpt lat="42.71662" lon="1.64302">
        <ele>1723.2</ele>
        <time>2020-02-08T14:07:05Z</time>
      </trkpt>
      <trkpt lat="42.71661" lon="1.64301">
        <ele>1723.5</ele>
        <time>2020-02-08T14:07:06Z</time>
      </trkpt>
      <trkpt lat="42.71661" lon="1.64299">
        <ele>1723.5</ele>
        <time>2020-02-08T14:07:07Z</time>
      </trkpt>
      <trkpt lat="42.71661" lon="1.64298">
        <ele>1723.5</ele>
        <time>2020-02-08T14:07:08Z</time>
      </trkpt>
      <trkpt lat="42.71661" lon="1.64297">
        <ele>1723.7</ele>
        <time>2020-02-08T14:07:09Z</time>
      </trkpt>
      <trkpt lat="42.7166" lon="1.64295">
        <ele>1723.7</ele>
        <time>2020-02-08T14:07:10Z</time>
      </trkpt>
      <trkpt lat="42.7166" lon="1.64294">
        <ele>1723.7</ele>
        <time>2020-02-08T14:07:11Z</time>
      </trkpt>
      <trkpt lat="42.7166" lon="1.64293">
        <ele>1724</ele>
        <time>2020-02-08T14:07:12Z</time>
      </trkpt>
      <trkpt lat="42.71659" lon="1.64292">
        <ele>1724</ele>
        <time>2020-02-08T14:07:13Z</time>
      </trkpt>
      <trkpt lat="42.71659" lon="1.6429">
        <ele>1723.7</ele>
        <time>2020-02-08T14:07:14Z</time>
      </trkpt>
      <trkpt lat="42.71658" lon="1.64289">
        <ele>1723.7</ele>
        <time>2020-02-08T14:07:15Z</time>
      </trkpt>
      <trkpt lat="42.71658" lon="1.64288">
        <ele>1723.9</ele>
        <time>2020-02-08T14:07:16Z</time>
      </trkpt>
      <trkpt lat="42.71657" lon="1.64287">
        <ele>1723.9</ele>
        <time>2020-02-08T14:07:17Z</time>
      </trkpt>
      <trkpt lat="42.71657" lon="1.64286">
        <ele>1723.9</ele>
        <time>2020-02-08T14:07:18Z</time>
      </trkpt>
      <trkpt lat="42.71656" lon="1.64285">
        <ele>1723.9</ele>
        <time>2020-02-08T14:07:19Z</time>
      </trkpt>
      <trkpt lat="42.71656" lon="1.64284">
        <ele>1723.8</ele>
        <time>2020-02-08T14:07:20Z</time>
      </trkpt>
      <trkpt lat="42.71655" lon="1.64283">
        <ele>1723.8</ele>
        <time>2020-02-08T14:07:21Z</time>
      </trkpt>
      <trkpt lat="42.71655" lon="1.64282">
        <ele>1723.8</ele>
        <time>2020-02-08T14:07:22Z</time>
      </trkpt>
      <trkpt lat="42.71654" lon="1.6428">
        <ele>1723.8</ele>
        <time>2020-02-08T14:07:23Z</time>
      </trkpt>
      <trkpt lat="42.71653" lon="1.64278">
        <ele>1723.7</ele>
        <time>2020-02-08T14:07:24Z</time>
      </trkpt>
      <trkpt lat="42.71652" lon="1.64278">
        <ele>1723.7</ele>
        <time>2020-02-08T14:07:25Z</time>
      </trkpt>
      <trkpt lat="42.71652" lon="1.64277">
        <ele>1723.7</ele>
        <time>2020-02-08T14:07:26Z</time>
      </trkpt>
      <trkpt lat="42.71651" lon="1.64276">
        <ele>1723.7</ele>
        <time>2020-02-08T14:07:27Z</time>
      </trkpt>
      <trkpt lat="42.71651" lon="1.64275">
        <ele>1723.9</ele>
        <time>2020-02-08T14:07:28Z</time>
      </trkpt>
      <trkpt lat="42.7165" lon="1.64274">
        <ele>1723.9</ele>
        <time>2020-02-08T14:07:29Z</time>
      </trkpt>
      <trkpt lat="42.7165" lon="1.64273">
        <ele>1723.5</ele>
        <time>2020-02-08T14:07:30Z</time>
      </trkpt>
      <trkpt lat="42.71649" lon="1.64272">
        <ele>1723.5</ele>
        <time>2020-02-08T14:07:31Z</time>
      </trkpt>
      <trkpt lat="42.71649" lon="1.64272">
        <ele>1723.5</ele>
        <time>2020-02-08T14:07:32Z</time>
      </trkpt>
      <trkpt lat="42.71648" lon="1.64271">
        <ele>1723.7</ele>
        <time>2020-02-08T14:07:33Z</time>
      </trkpt>
      <trkpt lat="42.71647" lon="1.64266">
        <ele>1723.4</ele>
        <time>2020-02-08T14:07:34Z</time>
      </trkpt>
      <trkpt lat="42.71646" lon="1.64265">
        <ele>1723.4</ele>
        <time>2020-02-08T14:07:35Z</time>
      </trkpt>
      <trkpt lat="42.71646" lon="1.64264">
        <ele>1723.4</ele>
        <time>2020-02-08T14:07:36Z</time>
      </trkpt>
      <trkpt lat="42.71646" lon="1.64262">
        <ele>1723.6</ele>
        <time>2020-02-08T14:07:37Z</time>
      </trkpt>
      <trkpt lat="42.71645" lon="1.64261">
        <ele>1723.6</ele>
        <time>2020-02-08T14:07:38Z</time>
      </trkpt>
      <trkpt lat="42.71645" lon="1.6426">
        <ele>1723.6</ele>
        <time>2020-02-08T14:07:39Z</time>
      </trkpt>
      <trkpt lat="42.71645" lon="1.64259">
        <ele>1723.6</ele>
        <time>2020-02-08T14:07:40Z</time>
      </trkpt>
      <trkpt lat="42.71644" lon="1.64258">
        <ele>1723.8</ele>
        <time>2020-02-08T14:07:41Z</time>
      </trkpt>
      <trkpt lat="42.71644" lon="1.64256">
        <ele>1723.8</ele>
        <time>2020-02-08T14:07:42Z</time>
      </trkpt>
      <trkpt lat="42.71644" lon="1.64255">
        <ele>1723.8</ele>
        <time>2020-02-08T14:07:43Z</time>
      </trkpt>
      <trkpt lat="42.71643" lon="1.64253">
        <ele>1723.5</ele>
        <time>2020-02-08T14:07:44Z</time>
      </trkpt>
      <trkpt lat="42.71643" lon="1.64252">
        <ele>1723.5</ele>
        <time>2020-02-08T14:07:45Z</time>
      </trkpt>
      <trkpt lat="42.71642" lon="1.64251">
        <ele>1723.5</ele>
        <time>2020-02-08T14:07:46Z</time>
      </trkpt>
      <trkpt lat="42.71642" lon="1.6425">
        <ele>1723.5</ele>
        <time>2020-02-08T14:07:47Z</time>
      </trkpt>
      <trkpt lat="42.71642" lon="1.6425">
        <ele>1723.7</ele>
        <time>2020-02-08T14:07:48Z</time>
      </trkpt>
      <trkpt lat="42.71641" lon="1.64249">
        <ele>1723.7</ele>
        <time>2020-02-08T14:07:49Z</time>
      </trkpt>
      <trkpt lat="42.71641" lon="1.64248">
        <ele>1723.7</ele>
        <time>2020-02-08T14:07:50Z</time>
      </trkpt>
      <trkpt lat="42.71641" lon="1.64247">
        <ele>1723.7</ele>
        <time>2020-02-08T14:07:51Z</time>
      </trkpt>
      <trkpt lat="42.7164" lon="1.64246">
        <ele>1723.2</ele>
        <time>2020-02-08T14:07:52Z</time>
      </trkpt>
      <trkpt lat="42.7164" lon="1.64245">
        <ele>1723.4</ele>
        <time>2020-02-08T14:07:53Z</time>
      </trkpt>
      <trkpt lat="42.71639" lon="1.64241">
        <ele>1723.7</ele>
        <time>2020-02-08T14:07:54Z</time>
      </trkpt>
      <trkpt lat="42.71639" lon="1.6424">
        <ele>1723.7</ele>
        <time>2020-02-08T14:07:55Z</time>
      </trkpt>
      <trkpt lat="42.71639" lon="1.64239">
        <ele>1723.7</ele>
        <time>2020-02-08T14:07:56Z</time>
      </trkpt>
      <trkpt lat="42.71639" lon="1.64238">
        <ele>1723.7</ele>
        <time>2020-02-08T14:07:57Z</time>
      </trkpt>
      <trkpt lat="42.71639" lon="1.64237">
        <ele>1724</ele>
        <time>2020-02-08T14:07:58Z</time>
      </trkpt>
      <trkpt lat="42.71639" lon="1.64235">
        <ele>1724</ele>
        <time>2020-02-08T14:07:59Z</time>
      </trkpt>
      <trkpt lat="42.71638" lon="1.64234">
        <ele>1724</ele>
        <time>2020-02-08T14:08:00Z</time>
      </trkpt>
      <trkpt lat="42.71638" lon="1.64233">
        <ele>1724</ele>
        <time>2020-02-08T14:08:01Z</time>
      </trkpt>
      <trkpt lat="42.71638" lon="1.64232">
        <ele>1724.3</ele>
        <time>2020-02-08T14:08:02Z</time>
      </trkpt>
      <trkpt lat="42.71638" lon="1.64231">
        <ele>1724.3</ele>
        <time>2020-02-08T14:08:03Z</time>
      </trkpt>
      <trkpt lat="42.71638" lon="1.64229">
        <ele>1724.3</ele>
        <time>2020-02-08T14:08:04Z</time>
      </trkpt>
      <trkpt lat="42.71637" lon="1.64228">
        <ele>1724.6</ele>
        <time>2020-02-08T14:08:05Z</time>
      </trkpt>
      <trkpt lat="42.71637" lon="1.64227">
        <ele>1724.1</ele>
        <time>2020-02-08T14:08:06Z</time>
      </trkpt>
      <trkpt lat="42.71637" lon="1.64226">
        <ele>1724.1</ele>
        <time>2020-02-08T14:08:07Z</time>
      </trkpt>
      <trkpt lat="42.71637" lon="1.64225">
        <ele>1724.1</ele>
        <time>2020-02-08T14:08:08Z</time>
      </trkpt>
      <trkpt lat="42.71636" lon="1.64224">
        <ele>1724.4</ele>
        <time>2020-02-08T14:08:09Z</time>
      </trkpt>
      <trkpt lat="42.71636" lon="1.64223">
        <ele>1724.4</ele>
        <time>2020-02-08T14:08:10Z</time>
      </trkpt>
      <trkpt lat="42.71636" lon="1.64221">
        <ele>1724.4</ele>
        <time>2020-02-08T14:08:11Z</time>
      </trkpt>
      <trkpt lat="42.71635" lon="1.6422">
        <ele>1724.4</ele>
        <time>2020-02-08T14:08:12Z</time>
      </trkpt>
      <trkpt lat="42.71635" lon="1.64219">
        <ele>1724.8</ele>
        <time>2020-02-08T14:08:13Z</time>
      </trkpt>
      <trkpt lat="42.71635" lon="1.64218">
        <ele>1724.8</ele>
        <time>2020-02-08T14:08:14Z</time>
      </trkpt>
      <trkpt lat="42.71634" lon="1.64218">
        <ele>1724.8</ele>
        <time>2020-02-08T14:08:15Z</time>
      </trkpt>
      <trkpt lat="42.71634" lon="1.64217">
        <ele>1724.2</ele>
        <time>2020-02-08T14:08:16Z</time>
      </trkpt>
      <trkpt lat="42.71634" lon="1.64216">
        <ele>1724.2</ele>
        <time>2020-02-08T14:08:17Z</time>
      </trkpt>
      <trkpt lat="42.71633" lon="1.64215">
        <ele>1724.6</ele>
        <time>2020-02-08T14:08:18Z</time>
      </trkpt>
      <trkpt lat="42.71633" lon="1.64215">
        <ele>1724.6</ele>
        <time>2020-02-08T14:08:19Z</time>
      </trkpt>
      <trkpt lat="42.71633" lon="1.64214">
        <ele>1724.6</ele>
        <time>2020-02-08T14:08:20Z</time>
      </trkpt>
      <trkpt lat="42.71632" lon="1.64213">
        <ele>1724.6</ele>
        <time>2020-02-08T14:08:21Z</time>
      </trkpt>
      <trkpt lat="42.71632" lon="1.64213">
        <ele>1724.6</ele>
        <time>2020-02-08T14:08:22Z</time>
      </trkpt>
      <trkpt lat="42.71632" lon="1.64212">
        <ele>1724.6</ele>
        <time>2020-02-08T14:08:23Z</time>
      </trkpt>
      <trkpt lat="42.71631" lon="1.64209">
        <ele>1724.9</ele>
        <time>2020-02-08T14:08:24Z</time>
      </trkpt>
      <trkpt lat="42.71631" lon="1.64208">
        <ele>1724.9</ele>
        <time>2020-02-08T14:08:25Z</time>
      </trkpt>
      <trkpt lat="42.71631" lon="1.64207">
        <ele>1724.9</ele>
        <time>2020-02-08T14:08:26Z</time>
      </trkpt>
      <trkpt lat="42.71631" lon="1.64207">
        <ele>1725.2</ele>
        <time>2020-02-08T14:08:27Z</time>
      </trkpt>
      <trkpt lat="42.71631" lon="1.64206">
        <ele>1725.2</ele>
        <time>2020-02-08T14:08:28Z</time>
      </trkpt>
      <trkpt lat="42.71631" lon="1.64205">
        <ele>1725.2</ele>
        <time>2020-02-08T14:08:29Z</time>
      </trkpt>
      <trkpt lat="42.71631" lon="1.64205">
        <ele>1725.2</ele>
        <time>2020-02-08T14:08:30Z</time>
      </trkpt>
      <trkpt lat="42.71631" lon="1.64204">
        <ele>1725.2</ele>
        <time>2020-02-08T14:08:31Z</time>
      </trkpt>
      <trkpt lat="42.71631" lon="1.64203">
        <ele>1725.2</ele>
        <time>2020-02-08T14:08:32Z</time>
      </trkpt>
      <trkpt lat="42.71631" lon="1.64203">
        <ele>1725.2</ele>
        <time>2020-02-08T14:08:33Z</time>
      </trkpt>
      <trkpt lat="42.71632" lon="1.64202">
        <ele>1725.6</ele>
        <time>2020-02-08T14:08:34Z</time>
      </trkpt>
      <trkpt lat="42.71632" lon="1.64202">
        <ele>1725.6</ele>
        <time>2020-02-08T14:08:35Z</time>
      </trkpt>
      <trkpt lat="42.71633" lon="1.64202">
        <ele>1725.6</ele>
        <time>2020-02-08T14:08:36Z</time>
      </trkpt>
      <trkpt lat="42.71634" lon="1.64202">
        <ele>1725.6</ele>
        <time>2020-02-08T14:08:37Z</time>
      </trkpt>
      <trkpt lat="42.71635" lon="1.64201">
        <ele>1726.1</ele>
        <time>2020-02-08T14:08:38Z</time>
      </trkpt>
      <trkpt lat="42.71636" lon="1.64201">
        <ele>1726.1</ele>
        <time>2020-02-08T14:08:39Z</time>
      </trkpt>
      <trkpt lat="42.71636" lon="1.64201">
        <ele>1726.1</ele>
        <time>2020-02-08T14:08:40Z</time>
      </trkpt>
      <trkpt lat="42.71637" lon="1.64201">
        <ele>1726.1</ele>
        <time>2020-02-08T14:08:41Z</time>
      </trkpt>
      <trkpt lat="42.71638" lon="1.642">
        <ele>1726.5</ele>
        <time>2020-02-08T14:08:42Z</time>
      </trkpt>
      <trkpt lat="42.71639" lon="1.642">
        <ele>1726.5</ele>
        <time>2020-02-08T14:08:43Z</time>
      </trkpt>
      <trkpt lat="42.71639" lon="1.64199">
        <ele>1726.5</ele>
        <time>2020-02-08T14:08:44Z</time>
      </trkpt>
      <trkpt lat="42.71639" lon="1.64197">
        <ele>1726.9</ele>
        <time>2020-02-08T14:08:45Z</time>
      </trkpt>
      <trkpt lat="42.71638" lon="1.64196">
        <ele>1726.9</ele>
        <time>2020-02-08T14:08:46Z</time>
      </trkpt>
      <trkpt lat="42.71638" lon="1.64194">
        <ele>1727.2</ele>
        <time>2020-02-08T14:08:47Z</time>
      </trkpt>
      <trkpt lat="42.71638" lon="1.64193">
        <ele>1727.2</ele>
        <time>2020-02-08T14:08:48Z</time>
      </trkpt>
      <trkpt lat="42.71638" lon="1.64191">
        <ele>1727.2</ele>
        <time>2020-02-08T14:08:49Z</time>
      </trkpt>
      <trkpt lat="42.71638" lon="1.6419">
        <ele>1727.5</ele>
        <time>2020-02-08T14:08:50Z</time>
      </trkpt>
      <trkpt lat="42.71638" lon="1.64188">
        <ele>1727.5</ele>
        <time>2020-02-08T14:08:51Z</time>
      </trkpt>
      <trkpt lat="42.71638" lon="1.64187">
        <ele>1727.5</ele>
        <time>2020-02-08T14:08:52Z</time>
      </trkpt>
      <trkpt lat="42.71638" lon="1.64185">
        <ele>1727.8</ele>
        <time>2020-02-08T14:08:53Z</time>
      </trkpt>
      <trkpt lat="42.71638" lon="1.64184">
        <ele>1727.8</ele>
        <time>2020-02-08T14:08:54Z</time>
      </trkpt>
      <trkpt lat="42.71638" lon="1.64183">
        <ele>1727.8</ele>
        <time>2020-02-08T14:08:55Z</time>
      </trkpt>
      <trkpt lat="42.71637" lon="1.64182">
        <ele>1727.8</ele>
        <time>2020-02-08T14:08:56Z</time>
      </trkpt>
      <trkpt lat="42.71637" lon="1.64181">
        <ele>1727.6</ele>
        <time>2020-02-08T14:08:57Z</time>
      </trkpt>
      <trkpt lat="42.71637" lon="1.6418">
        <ele>1727.6</ele>
        <time>2020-02-08T14:08:58Z</time>
      </trkpt>
      <trkpt lat="42.71637" lon="1.64179">
        <ele>1727.6</ele>
        <time>2020-02-08T14:08:59Z</time>
      </trkpt>
      <trkpt lat="42.71636" lon="1.64177">
        <ele>1727.6</ele>
        <time>2020-02-08T14:09:00Z</time>
      </trkpt>
      <trkpt lat="42.71636" lon="1.64176">
        <ele>1727.9</ele>
        <time>2020-02-08T14:09:01Z</time>
      </trkpt>
      <trkpt lat="42.71636" lon="1.64175">
        <ele>1727.9</ele>
        <time>2020-02-08T14:09:02Z</time>
      </trkpt>
      <trkpt lat="42.71635" lon="1.64174">
        <ele>1727.9</ele>
        <time>2020-02-08T14:09:03Z</time>
      </trkpt>
      <trkpt lat="42.71635" lon="1.64173">
        <ele>1727.9</ele>
        <time>2020-02-08T14:09:04Z</time>
      </trkpt>
      <trkpt lat="42.71634" lon="1.64171">
        <ele>1728.2</ele>
        <time>2020-02-08T14:09:05Z</time>
      </trkpt>
      <trkpt lat="42.71634" lon="1.6417">
        <ele>1727.7</ele>
        <time>2020-02-08T14:09:06Z</time>
      </trkpt>
      <trkpt lat="42.71633" lon="1.64169">
        <ele>1727.7</ele>
        <time>2020-02-08T14:09:07Z</time>
      </trkpt>
      <trkpt lat="42.71632" lon="1.64167">
        <ele>1728</ele>
        <time>2020-02-08T14:09:08Z</time>
      </trkpt>
      <trkpt lat="42.71632" lon="1.64166">
        <ele>1728</ele>
        <time>2020-02-08T14:09:09Z</time>
      </trkpt>
      <trkpt lat="42.71631" lon="1.64165">
        <ele>1728</ele>
        <time>2020-02-08T14:09:10Z</time>
      </trkpt>
      <trkpt lat="42.71631" lon="1.64163">
        <ele>1727.8</ele>
        <time>2020-02-08T14:09:11Z</time>
      </trkpt>
      <trkpt lat="42.7163" lon="1.64162">
        <ele>1727.8</ele>
        <time>2020-02-08T14:09:12Z</time>
      </trkpt>
      <trkpt lat="42.71629" lon="1.64161">
        <ele>1727.8</ele>
        <time>2020-02-08T14:09:13Z</time>
      </trkpt>
      <trkpt lat="42.71629" lon="1.6416">
        <ele>1727.8</ele>
        <time>2020-02-08T14:09:14Z</time>
      </trkpt>
      <trkpt lat="42.71629" lon="1.64159">
        <ele>1728.1</ele>
        <time>2020-02-08T14:09:15Z</time>
      </trkpt>
      <trkpt lat="42.71628" lon="1.64158">
        <ele>1728.1</ele>
        <time>2020-02-08T14:09:16Z</time>
      </trkpt>
      <trkpt lat="42.71628" lon="1.64157">
        <ele>1728.1</ele>
        <time>2020-02-08T14:09:17Z</time>
      </trkpt>
      <trkpt lat="42.71627" lon="1.64156">
        <ele>1727.6</ele>
        <time>2020-02-08T14:09:18Z</time>
      </trkpt>
      <trkpt lat="42.71627" lon="1.64156">
        <ele>1727.6</ele>
        <time>2020-02-08T14:09:19Z</time>
      </trkpt>
      <trkpt lat="42.71627" lon="1.64155">
        <ele>1727.9</ele>
        <time>2020-02-08T14:09:20Z</time>
      </trkpt>
      <trkpt lat="42.71626" lon="1.64154">
        <ele>1727.9</ele>
        <time>2020-02-08T14:09:21Z</time>
      </trkpt>
      <trkpt lat="42.71626" lon="1.64153">
        <ele>1727.9</ele>
        <time>2020-02-08T14:09:22Z</time>
      </trkpt>
      <trkpt lat="42.71626" lon="1.64152">
        <ele>1727.9</ele>
        <time>2020-02-08T14:09:23Z</time>
      </trkpt>
      <trkpt lat="42.71625" lon="1.64148">
        <ele>1728.2</ele>
        <time>2020-02-08T14:09:24Z</time>
      </trkpt>
      <trkpt lat="42.71624" lon="1.64147">
        <ele>1728.1</ele>
        <time>2020-02-08T14:09:25Z</time>
      </trkpt>
      <trkpt lat="42.71624" lon="1.64146">
        <ele>1728.1</ele>
        <time>2020-02-08T14:09:26Z</time>
      </trkpt>
      <trkpt lat="42.71624" lon="1.64145">
        <ele>1728.1</ele>
        <time>2020-02-08T14:09:27Z</time>
      </trkpt>
      <trkpt lat="42.71624" lon="1.64144">
        <ele>1728.1</ele>
        <time>2020-02-08T14:09:28Z</time>
      </trkpt>
      <trkpt lat="42.71624" lon="1.64144">
        <ele>1728.1</ele>
        <time>2020-02-08T14:09:29Z</time>
      </trkpt>
      <trkpt lat="42.71623" lon="1.64143">
        <ele>1728.1</ele>
        <time>2020-02-08T14:09:30Z</time>
      </trkpt>
      <trkpt lat="42.71623" lon="1.64142">
        <ele>1728.4</ele>
        <time>2020-02-08T14:09:31Z</time>
      </trkpt>
      <trkpt lat="42.71623" lon="1.64141">
        <ele>1728.4</ele>
        <time>2020-02-08T14:09:32Z</time>
      </trkpt>
      <trkpt lat="42.71623" lon="1.6414">
        <ele>1728.4</ele>
        <time>2020-02-08T14:09:33Z</time>
      </trkpt>
      <trkpt lat="42.71623" lon="1.64137">
        <ele>1728.8</ele>
        <time>2020-02-08T14:09:34Z</time>
      </trkpt>
      <trkpt lat="42.71623" lon="1.64136">
        <ele>1728.8</ele>
        <time>2020-02-08T14:09:35Z</time>
      </trkpt>
      <trkpt lat="42.71623" lon="1.64135">
        <ele>1728.8</ele>
        <time>2020-02-08T14:09:36Z</time>
      </trkpt>
      <trkpt lat="42.71622" lon="1.64134">
        <ele>1728.8</ele>
        <time>2020-02-08T14:09:37Z</time>
      </trkpt>
      <trkpt lat="42.71622" lon="1.64134">
        <ele>1729.2</ele>
        <time>2020-02-08T14:09:38Z</time>
      </trkpt>
      <trkpt lat="42.71622" lon="1.64133">
        <ele>1729.2</ele>
        <time>2020-02-08T14:09:39Z</time>
      </trkpt>
      <trkpt lat="42.71622" lon="1.64132">
        <ele>1729.2</ele>
        <time>2020-02-08T14:09:40Z</time>
      </trkpt>
      <trkpt lat="42.71622" lon="1.64131">
        <ele>1729.2</ele>
        <time>2020-02-08T14:09:41Z</time>
      </trkpt>
      <trkpt lat="42.71621" lon="1.64131">
        <ele>1728.7</ele>
        <time>2020-02-08T14:09:42Z</time>
      </trkpt>
      <trkpt lat="42.71621" lon="1.6413">
        <ele>1729</ele>
        <time>2020-02-08T14:09:43Z</time>
      </trkpt>
      <trkpt lat="42.71621" lon="1.64128">
        <ele>1729</ele>
        <time>2020-02-08T14:09:44Z</time>
      </trkpt>
      <trkpt lat="42.71621" lon="1.64127">
        <ele>1729</ele>
        <time>2020-02-08T14:09:45Z</time>
      </trkpt>
      <trkpt lat="42.71621" lon="1.64126">
        <ele>1729</ele>
        <time>2020-02-08T14:09:46Z</time>
      </trkpt>
      <trkpt lat="42.7162" lon="1.64124">
        <ele>1729.4</ele>
        <time>2020-02-08T14:09:47Z</time>
      </trkpt>
      <trkpt lat="42.7162" lon="1.64123">
        <ele>1729.4</ele>
        <time>2020-02-08T14:09:48Z</time>
      </trkpt>
      <trkpt lat="42.7162" lon="1.64122">
        <ele>1729.4</ele>
        <time>2020-02-08T14:09:49Z</time>
      </trkpt>
      <trkpt lat="42.7162" lon="1.6412">
        <ele>1729.8</ele>
        <time>2020-02-08T14:09:50Z</time>
      </trkpt>
      <trkpt lat="42.71619" lon="1.64119">
        <ele>1729.8</ele>
        <time>2020-02-08T14:09:51Z</time>
      </trkpt>
      <trkpt lat="42.71619" lon="1.64118">
        <ele>1729.8</ele>
        <time>2020-02-08T14:09:52Z</time>
      </trkpt>
      <trkpt lat="42.71619" lon="1.64116">
        <ele>1730.2</ele>
        <time>2020-02-08T14:09:53Z</time>
      </trkpt>
      <trkpt lat="42.71619" lon="1.64115">
        <ele>1730.2</ele>
        <time>2020-02-08T14:09:54Z</time>
      </trkpt>
      <trkpt lat="42.71618" lon="1.64114">
        <ele>1729.6</ele>
        <time>2020-02-08T14:09:55Z</time>
      </trkpt>
      <trkpt lat="42.71618" lon="1.64113">
        <ele>1729.6</ele>
        <time>2020-02-08T14:09:56Z</time>
      </trkpt>
      <trkpt lat="42.71618" lon="1.64112">
        <ele>1730.1</ele>
        <time>2020-02-08T14:09:57Z</time>
      </trkpt>
      <trkpt lat="42.71617" lon="1.64111">
        <ele>1730.1</ele>
        <time>2020-02-08T14:09:58Z</time>
      </trkpt>
      <trkpt lat="42.71617" lon="1.64109">
        <ele>1730.1</ele>
        <time>2020-02-08T14:09:59Z</time>
      </trkpt>
      <trkpt lat="42.71617" lon="1.64108">
        <ele>1730.1</ele>
        <time>2020-02-08T14:10:00Z</time>
      </trkpt>
      <trkpt lat="42.71617" lon="1.64107">
        <ele>1730.5</ele>
        <time>2020-02-08T14:10:01Z</time>
      </trkpt>
      <trkpt lat="42.71616" lon="1.64106">
        <ele>1730.5</ele>
        <time>2020-02-08T14:10:02Z</time>
      </trkpt>
      <trkpt lat="42.71616" lon="1.64105">
        <ele>1730.5</ele>
        <time>2020-02-08T14:10:03Z</time>
      </trkpt>
      <trkpt lat="42.71616" lon="1.64104">
        <ele>1731</ele>
        <time>2020-02-08T14:10:04Z</time>
      </trkpt>
      <trkpt lat="42.71616" lon="1.64103">
        <ele>1731</ele>
        <time>2020-02-08T14:10:05Z</time>
      </trkpt>
      <trkpt lat="42.71616" lon="1.64101">
        <ele>1731</ele>
        <time>2020-02-08T14:10:06Z</time>
      </trkpt>
      <trkpt lat="42.71616" lon="1.641">
        <ele>1731</ele>
        <time>2020-02-08T14:10:07Z</time>
      </trkpt>
      <trkpt lat="42.71616" lon="1.64099">
        <ele>1731.5</ele>
        <time>2020-02-08T14:10:08Z</time>
      </trkpt>
      <trkpt lat="42.71616" lon="1.64098">
        <ele>1731.5</ele>
        <time>2020-02-08T14:10:09Z</time>
      </trkpt>
      <trkpt lat="42.71616" lon="1.64097">
        <ele>1731.5</ele>
        <time>2020-02-08T14:10:10Z</time>
      </trkpt>
      <trkpt lat="42.71616" lon="1.64095">
        <ele>1732</ele>
        <time>2020-02-08T14:10:11Z</time>
      </trkpt>
      <trkpt lat="42.71616" lon="1.64094">
        <ele>1732</ele>
        <time>2020-02-08T14:10:12Z</time>
      </trkpt>
      <trkpt lat="42.71616" lon="1.64093">
        <ele>1732</ele>
        <time>2020-02-08T14:10:13Z</time>
      </trkpt>
      <trkpt lat="42.71615" lon="1.6409">
        <ele>1732.4</ele>
        <time>2020-02-08T14:10:14Z</time>
      </trkpt>
      <trkpt lat="42.71615" lon="1.64089">
        <ele>1731.8</ele>
        <time>2020-02-08T14:10:15Z</time>
      </trkpt>
      <trkpt lat="42.71615" lon="1.64087">
        <ele>1731.8</ele>
        <time>2020-02-08T14:10:16Z</time>
      </trkpt>
      <trkpt lat="42.71615" lon="1.64086">
        <ele>1732.3</ele>
        <time>2020-02-08T14:10:17Z</time>
      </trkpt>
      <trkpt lat="42.71614" lon="1.64085">
        <ele>1732.3</ele>
        <time>2020-02-08T14:10:18Z</time>
      </trkpt>
      <trkpt lat="42.71614" lon="1.64083">
        <ele>1732.3</ele>
        <time>2020-02-08T14:10:19Z</time>
      </trkpt>
      <trkpt lat="42.71614" lon="1.64082">
        <ele>1732.8</ele>
        <time>2020-02-08T14:10:20Z</time>
      </trkpt>
      <trkpt lat="42.71614" lon="1.64081">
        <ele>1732.8</ele>
        <time>2020-02-08T14:10:21Z</time>
      </trkpt>
      <trkpt lat="42.71613" lon="1.64079">
        <ele>1732.8</ele>
        <time>2020-02-08T14:10:22Z</time>
      </trkpt>
      <trkpt lat="42.71613" lon="1.64078">
        <ele>1733.3</ele>
        <time>2020-02-08T14:10:23Z</time>
      </trkpt>
      <trkpt lat="42.71613" lon="1.64075">
        <ele>1733.3</ele>
        <time>2020-02-08T14:10:24Z</time>
      </trkpt>
      <trkpt lat="42.71612" lon="1.64073">
        <ele>1733.8</ele>
        <time>2020-02-08T14:10:25Z</time>
      </trkpt>
      <trkpt lat="42.71612" lon="1.64072">
        <ele>1733.8</ele>
        <time>2020-02-08T14:10:26Z</time>
      </trkpt>
      <trkpt lat="42.71612" lon="1.64071">
        <ele>1733.3</ele>
        <time>2020-02-08T14:10:27Z</time>
      </trkpt>
      <trkpt lat="42.71612" lon="1.64069">
        <ele>1733.9</ele>
        <time>2020-02-08T14:10:28Z</time>
      </trkpt>
      <trkpt lat="42.71612" lon="1.64068">
        <ele>1733.9</ele>
        <time>2020-02-08T14:10:29Z</time>
      </trkpt>
      <trkpt lat="42.71611" lon="1.64066">
        <ele>1733.9</ele>
        <time>2020-02-08T14:10:30Z</time>
      </trkpt>
      <trkpt lat="42.71611" lon="1.64065">
        <ele>1734.6</ele>
        <time>2020-02-08T14:10:31Z</time>
      </trkpt>
      <trkpt lat="42.71611" lon="1.64064">
        <ele>1734.6</ele>
        <time>2020-02-08T14:10:32Z</time>
      </trkpt>
      <trkpt lat="42.71611" lon="1.64062">
        <ele>1734.6</ele>
        <time>2020-02-08T14:10:33Z</time>
      </trkpt>
      <trkpt lat="42.7161" lon="1.64061">
        <ele>1735.4</ele>
        <time>2020-02-08T14:10:34Z</time>
      </trkpt>
      <trkpt lat="42.7161" lon="1.6406">
        <ele>1735.4</ele>
        <time>2020-02-08T14:10:35Z</time>
      </trkpt>
      <trkpt lat="42.7161" lon="1.64059">
        <ele>1735.4</ele>
        <time>2020-02-08T14:10:36Z</time>
      </trkpt>
      <trkpt lat="42.7161" lon="1.64059">
        <ele>1735.4</ele>
        <time>2020-02-08T14:10:37Z</time>
      </trkpt>
      <trkpt lat="42.7161" lon="1.64058">
        <ele>1735.4</ele>
        <time>2020-02-08T14:10:38Z</time>
      </trkpt>
      <trkpt lat="42.7161" lon="1.64058">
        <ele>1735.4</ele>
        <time>2020-02-08T14:10:39Z</time>
      </trkpt>
      <trkpt lat="42.7161" lon="1.64057">
        <ele>1735.4</ele>
        <time>2020-02-08T14:10:40Z</time>
      </trkpt>
      <trkpt lat="42.7161" lon="1.64057">
        <ele>1735.4</ele>
        <time>2020-02-08T14:10:41Z</time>
      </trkpt>
      <trkpt lat="42.7161" lon="1.64056">
        <ele>1736.2</ele>
        <time>2020-02-08T14:10:42Z</time>
      </trkpt>
      <trkpt lat="42.7161" lon="1.64056">
        <ele>1736.2</ele>
        <time>2020-02-08T14:10:43Z</time>
      </trkpt>
      <trkpt lat="42.7161" lon="1.64056">
        <ele>1736.2</ele>
        <time>2020-02-08T14:10:44Z</time>
      </trkpt>
      <trkpt lat="42.7161" lon="1.64056">
        <ele>1736.2</ele>
        <time>2020-02-08T14:10:45Z</time>
      </trkpt>
      <trkpt lat="42.7161" lon="1.64056">
        <ele>1736.2</ele>
        <time>2020-02-08T14:10:46Z</time>
      </trkpt>
      <trkpt lat="42.7161" lon="1.64056">
        <ele>1736.2</ele>
        <time>2020-02-08T14:10:47Z</time>
      </trkpt>
      <trkpt lat="42.7161" lon="1.64056">
        <ele>1736.2</ele>
        <time>2020-02-08T14:10:48Z</time>
      </trkpt>
      <trkpt lat="42.7161" lon="1.64053">
        <ele>1736.2</ele>
        <time>2020-02-08T14:10:49Z</time>
      </trkpt>
      <trkpt lat="42.7161" lon="1.64053">
        <ele>1736.2</ele>
        <time>2020-02-08T14:10:50Z</time>
      </trkpt>
      <trkpt lat="42.7161" lon="1.64053">
        <ele>1736.2</ele>
        <time>2020-02-08T14:10:51Z</time>
      </trkpt>
      <trkpt lat="42.7161" lon="1.64053">
        <ele>1736.2</ele>
        <time>2020-02-08T14:10:52Z</time>
      </trkpt>
      <trkpt lat="42.7161" lon="1.64049">
        <ele>1737</ele>
        <time>2020-02-08T14:10:53Z</time>
      </trkpt>
      <trkpt lat="42.7161" lon="1.64049">
        <ele>1737</ele>
        <time>2020-02-08T14:10:54Z</time>
      </trkpt>
      <trkpt lat="42.71611" lon="1.64048">
        <ele>1737</ele>
        <time>2020-02-08T14:10:55Z</time>
      </trkpt>
      <trkpt lat="42.71611" lon="1.64048">
        <ele>1737.9</ele>
        <time>2020-02-08T14:10:56Z</time>
      </trkpt>
      <trkpt lat="42.71612" lon="1.64047">
        <ele>1737.9</ele>
        <time>2020-02-08T14:10:57Z</time>
      </trkpt>
      <trkpt lat="42.71612" lon="1.64047">
        <ele>1738.4</ele>
        <time>2020-02-08T14:10:58Z</time>
      </trkpt>
      <trkpt lat="42.71613" lon="1.64046">
        <ele>1738.4</ele>
        <time>2020-02-08T14:10:59Z</time>
      </trkpt>
      <trkpt lat="42.71613" lon="1.64046">
        <ele>1738.4</ele>
        <time>2020-02-08T14:11:00Z</time>
      </trkpt>
      <trkpt lat="42.71614" lon="1.64045">
        <ele>1738.4</ele>
        <time>2020-02-08T14:11:01Z</time>
      </trkpt>
      <trkpt lat="42.71614" lon="1.64045">
        <ele>1738.4</ele>
        <time>2020-02-08T14:11:02Z</time>
      </trkpt>
      <trkpt lat="42.71615" lon="1.64044">
        <ele>1738.4</ele>
        <time>2020-02-08T14:11:03Z</time>
      </trkpt>
      <trkpt lat="42.71617" lon="1.64043">
        <ele>1739.7</ele>
        <time>2020-02-08T14:11:04Z</time>
      </trkpt>
      <trkpt lat="42.71618" lon="1.64042">
        <ele>1739.7</ele>
        <time>2020-02-08T14:11:05Z</time>
      </trkpt>
      <trkpt lat="42.71619" lon="1.64041">
        <ele>1740.2</ele>
        <time>2020-02-08T14:11:06Z</time>
      </trkpt>
      <trkpt lat="42.71619" lon="1.64041">
        <ele>1740.2</ele>
        <time>2020-02-08T14:11:07Z</time>
      </trkpt>
      <trkpt lat="42.7162" lon="1.6404">
        <ele>1740.2</ele>
        <time>2020-02-08T14:11:08Z</time>
      </trkpt>
      <trkpt lat="42.7162" lon="1.6404">
        <ele>1741</ele>
        <time>2020-02-08T14:11:09Z</time>
      </trkpt>
      <trkpt lat="42.71621" lon="1.64039">
        <ele>1741</ele>
        <time>2020-02-08T14:11:10Z</time>
      </trkpt>
      <trkpt lat="42.71621" lon="1.64039">
        <ele>1741</ele>
        <time>2020-02-08T14:11:11Z</time>
      </trkpt>
      <trkpt lat="42.71622" lon="1.64038">
        <ele>1741.4</ele>
        <time>2020-02-08T14:11:12Z</time>
      </trkpt>
      <trkpt lat="42.71622" lon="1.64037">
        <ele>1741.4</ele>
        <time>2020-02-08T14:11:13Z</time>
      </trkpt>
      <trkpt lat="42.71622" lon="1.64036">
        <ele>1741.4</ele>
        <time>2020-02-08T14:11:14Z</time>
      </trkpt>
      <trkpt lat="42.71622" lon="1.64036">
        <ele>1741.4</ele>
        <time>2020-02-08T14:11:15Z</time>
      </trkpt>
      <trkpt lat="42.71622" lon="1.64035">
        <ele>1742.2</ele>
        <time>2020-02-08T14:11:16Z</time>
      </trkpt>
      <trkpt lat="42.71622" lon="1.64034">
        <ele>1742.2</ele>
        <time>2020-02-08T14:11:17Z</time>
      </trkpt>
      <trkpt lat="42.71622" lon="1.64033">
        <ele>1742.2</ele>
        <time>2020-02-08T14:11:18Z</time>
      </trkpt>
      <trkpt lat="42.71622" lon="1.64032">
        <ele>1742.2</ele>
        <time>2020-02-08T14:11:19Z</time>
      </trkpt>
      <trkpt lat="42.71622" lon="1.64031">
        <ele>1743</ele>
        <time>2020-02-08T14:11:20Z</time>
      </trkpt>
      <trkpt lat="42.71622" lon="1.6403">
        <ele>1743</ele>
        <time>2020-02-08T14:11:21Z</time>
      </trkpt>
      <trkpt lat="42.71622" lon="1.64029">
        <ele>1743</ele>
        <time>2020-02-08T14:11:22Z</time>
      </trkpt>
      <trkpt lat="42.71622" lon="1.64028">
        <ele>1743</ele>
        <time>2020-02-08T14:11:23Z</time>
      </trkpt>
      <trkpt lat="42.71623" lon="1.64027">
        <ele>1743</ele>
        <time>2020-02-08T14:11:24Z</time>
      </trkpt>
      <trkpt lat="42.71623" lon="1.64027">
        <ele>1743.9</ele>
        <time>2020-02-08T14:11:25Z</time>
      </trkpt>
      <trkpt lat="42.71624" lon="1.64026">
        <ele>1743.9</ele>
        <time>2020-02-08T14:11:26Z</time>
      </trkpt>
      <trkpt lat="42.71624" lon="1.64025">
        <ele>1743.9</ele>
        <time>2020-02-08T14:11:27Z</time>
      </trkpt>
      <trkpt lat="42.71624" lon="1.64024">
        <ele>1743.9</ele>
        <time>2020-02-08T14:11:28Z</time>
      </trkpt>
      <trkpt lat="42.71625" lon="1.64023">
        <ele>1744.2</ele>
        <time>2020-02-08T14:11:29Z</time>
      </trkpt>
      <trkpt lat="42.71625" lon="1.64023">
        <ele>1744.2</ele>
        <time>2020-02-08T14:11:30Z</time>
      </trkpt>
      <trkpt lat="42.71625" lon="1.64022">
        <ele>1745.1</ele>
        <time>2020-02-08T14:11:31Z</time>
      </trkpt>
      <trkpt lat="42.71626" lon="1.64021">
        <ele>1745.1</ele>
        <time>2020-02-08T14:11:32Z</time>
      </trkpt>
      <trkpt lat="42.71626" lon="1.6402">
        <ele>1745.1</ele>
        <time>2020-02-08T14:11:33Z</time>
      </trkpt>
      <trkpt lat="42.71628" lon="1.64017">
        <ele>1746.1</ele>
        <time>2020-02-08T14:11:34Z</time>
      </trkpt>
      <trkpt lat="42.71628" lon="1.64016">
        <ele>1746.3</ele>
        <time>2020-02-08T14:11:35Z</time>
      </trkpt>
      <trkpt lat="42.71628" lon="1.64015">
        <ele>1746.3</ele>
        <time>2020-02-08T14:11:36Z</time>
      </trkpt>
      <trkpt lat="42.71628" lon="1.64014">
        <ele>1746.3</ele>
        <time>2020-02-08T14:11:37Z</time>
      </trkpt>
      <trkpt lat="42.71629" lon="1.64013">
        <ele>1747.2</ele>
        <time>2020-02-08T14:11:38Z</time>
      </trkpt>
      <trkpt lat="42.71629" lon="1.64012">
        <ele>1747.2</ele>
        <time>2020-02-08T14:11:39Z</time>
      </trkpt>
      <trkpt lat="42.71629" lon="1.64011">
        <ele>1747.2</ele>
        <time>2020-02-08T14:11:40Z</time>
      </trkpt>
      <trkpt lat="42.7163" lon="1.6401">
        <ele>1747.2</ele>
        <time>2020-02-08T14:11:41Z</time>
      </trkpt>
      <trkpt lat="42.7163" lon="1.6401">
        <ele>1748.2</ele>
        <time>2020-02-08T14:11:42Z</time>
      </trkpt>
      <trkpt lat="42.7163" lon="1.64009">
        <ele>1748.2</ele>
        <time>2020-02-08T14:11:43Z</time>
      </trkpt>
      <trkpt lat="42.71631" lon="1.64008">
        <ele>1748.2</ele>
        <time>2020-02-08T14:11:44Z</time>
      </trkpt>
      <trkpt lat="42.71631" lon="1.64007">
        <ele>1748.3</ele>
        <time>2020-02-08T14:11:45Z</time>
      </trkpt>
      <trkpt lat="42.71631" lon="1.64006">
        <ele>1748.3</ele>
        <time>2020-02-08T14:11:46Z</time>
      </trkpt>
      <trkpt lat="42.71632" lon="1.64005">
        <ele>1748.3</ele>
        <time>2020-02-08T14:11:47Z</time>
      </trkpt>
      <trkpt lat="42.71632" lon="1.64005">
        <ele>1749.2</ele>
        <time>2020-02-08T14:11:48Z</time>
      </trkpt>
      <trkpt lat="42.71632" lon="1.64004">
        <ele>1749.2</ele>
        <time>2020-02-08T14:11:49Z</time>
      </trkpt>
      <trkpt lat="42.71632" lon="1.64003">
        <ele>1749.2</ele>
        <time>2020-02-08T14:11:50Z</time>
      </trkpt>
      <trkpt lat="42.71633" lon="1.64002">
        <ele>1749.2</ele>
        <time>2020-02-08T14:11:51Z</time>
      </trkpt>
      <trkpt lat="42.71633" lon="1.64001">
        <ele>1749.2</ele>
        <time>2020-02-08T14:11:52Z</time>
      </trkpt>
      <trkpt lat="42.71633" lon="1.64">
        <ele>1750.1</ele>
        <time>2020-02-08T14:11:53Z</time>
      </trkpt>
      <trkpt lat="42.71634" lon="1.64">
        <ele>1750.1</ele>
        <time>2020-02-08T14:11:54Z</time>
      </trkpt>
      <trkpt lat="42.71634" lon="1.63999">
        <ele>1750.1</ele>
        <time>2020-02-08T14:11:55Z</time>
      </trkpt>
      <trkpt lat="42.71634" lon="1.63998">
        <ele>1750.1</ele>
        <time>2020-02-08T14:11:56Z</time>
      </trkpt>
      <trkpt lat="42.71635" lon="1.63997">
        <ele>1750.1</ele>
        <time>2020-02-08T14:11:57Z</time>
      </trkpt>
      <trkpt lat="42.71635" lon="1.63997">
        <ele>1750.1</ele>
        <time>2020-02-08T14:11:58Z</time>
      </trkpt>
      <trkpt lat="42.71635" lon="1.63996">
        <ele>1751</ele>
        <time>2020-02-08T14:11:59Z</time>
      </trkpt>
      <trkpt lat="42.71636" lon="1.63995">
        <ele>1751</ele>
        <time>2020-02-08T14:12:00Z</time>
      </trkpt>
      <trkpt lat="42.71636" lon="1.63994">
        <ele>1751</ele>
        <time>2020-02-08T14:12:01Z</time>
      </trkpt>
      <trkpt lat="42.71636" lon="1.63994">
        <ele>1751</ele>
        <time>2020-02-08T14:12:02Z</time>
      </trkpt>
      <trkpt lat="42.71637" lon="1.63993">
        <ele>1751</ele>
        <time>2020-02-08T14:12:03Z</time>
      </trkpt>
      <trkpt lat="42.71637" lon="1.63992">
        <ele>1751.9</ele>
        <time>2020-02-08T14:12:04Z</time>
      </trkpt>
      <trkpt lat="42.71637" lon="1.63992">
        <ele>1751.9</ele>
        <time>2020-02-08T14:12:05Z</time>
      </trkpt>
      <trkpt lat="42.71637" lon="1.63991">
        <ele>1751.9</ele>
        <time>2020-02-08T14:12:06Z</time>
      </trkpt>
      <trkpt lat="42.71637" lon="1.63991">
        <ele>1751.9</ele>
        <time>2020-02-08T14:12:07Z</time>
      </trkpt>
      <trkpt lat="42.71637" lon="1.6399">
        <ele>1751.9</ele>
        <time>2020-02-08T14:12:08Z</time>
      </trkpt>
      <trkpt lat="42.71637" lon="1.6399">
        <ele>1751.8</ele>
        <time>2020-02-08T14:12:09Z</time>
      </trkpt>
      <trkpt lat="42.71637" lon="1.63989">
        <ele>1751.8</ele>
        <time>2020-02-08T14:12:10Z</time>
      </trkpt>
      <trkpt lat="42.71637" lon="1.63989">
        <ele>1751.8</ele>
        <time>2020-02-08T14:12:11Z</time>
      </trkpt>
      <trkpt lat="42.71638" lon="1.63988">
        <ele>1751.8</ele>
        <time>2020-02-08T14:12:12Z</time>
      </trkpt>
      <trkpt lat="42.71638" lon="1.63988">
        <ele>1752.6</ele>
        <time>2020-02-08T14:12:13Z</time>
      </trkpt>
      <trkpt lat="42.71636" lon="1.63985">
        <ele>1752.8</ele>
        <time>2020-02-08T14:12:14Z</time>
      </trkpt>
      <trkpt lat="42.71636" lon="1.63985">
        <ele>1752.8</ele>
        <time>2020-02-08T14:12:15Z</time>
      </trkpt>
      <trkpt lat="42.71636" lon="1.63984">
        <ele>1752.8</ele>
        <time>2020-02-08T14:12:16Z</time>
      </trkpt>
      <trkpt lat="42.71636" lon="1.63984">
        <ele>1753.8</ele>
        <time>2020-02-08T14:12:17Z</time>
      </trkpt>
      <trkpt lat="42.71636" lon="1.63983">
        <ele>1753.8</ele>
        <time>2020-02-08T14:12:18Z</time>
      </trkpt>
      <trkpt lat="42.71636" lon="1.63983">
        <ele>1753.8</ele>
        <time>2020-02-08T14:12:19Z</time>
      </trkpt>
      <trkpt lat="42.71636" lon="1.63982">
        <ele>1753.8</ele>
        <time>2020-02-08T14:12:20Z</time>
      </trkpt>
      <trkpt lat="42.71636" lon="1.63982">
        <ele>1753.8</ele>
        <time>2020-02-08T14:12:21Z</time>
      </trkpt>
      <trkpt lat="42.71636" lon="1.63981">
        <ele>1753.8</ele>
        <time>2020-02-08T14:12:22Z</time>
      </trkpt>
      <trkpt lat="42.71636" lon="1.6398">
        <ele>1753.8</ele>
        <time>2020-02-08T14:12:23Z</time>
      </trkpt>
      <trkpt lat="42.71635" lon="1.6398">
        <ele>1753.8</ele>
        <time>2020-02-08T14:12:24Z</time>
      </trkpt>
      <trkpt lat="42.71635" lon="1.63979">
        <ele>1754.8</ele>
        <time>2020-02-08T14:12:25Z</time>
      </trkpt>
      <trkpt lat="42.71635" lon="1.63979">
        <ele>1754.8</ele>
        <time>2020-02-08T14:12:26Z</time>
      </trkpt>
      <trkpt lat="42.71635" lon="1.63978">
        <ele>1754.8</ele>
        <time>2020-02-08T14:12:27Z</time>
      </trkpt>
      <trkpt lat="42.71635" lon="1.63978">
        <ele>1754.8</ele>
        <time>2020-02-08T14:12:28Z</time>
      </trkpt>
      <trkpt lat="42.71635" lon="1.63977">
        <ele>1754.8</ele>
        <time>2020-02-08T14:12:29Z</time>
      </trkpt>
      <trkpt lat="42.71635" lon="1.63977">
        <ele>1754.8</ele>
        <time>2020-02-08T14:12:30Z</time>
      </trkpt>
      <trkpt lat="42.71635" lon="1.63976">
        <ele>1754.8</ele>
        <time>2020-02-08T14:12:31Z</time>
      </trkpt>
      <trkpt lat="42.71635" lon="1.63976">
        <ele>1754.8</ele>
        <time>2020-02-08T14:12:32Z</time>
      </trkpt>
      <trkpt lat="42.71635" lon="1.63975">
        <ele>1755.9</ele>
        <time>2020-02-08T14:12:33Z</time>
      </trkpt>
      <trkpt lat="42.71634" lon="1.63975">
        <ele>1755.9</ele>
        <time>2020-02-08T14:12:34Z</time>
      </trkpt>
      <trkpt lat="42.71634" lon="1.63974">
        <ele>1756.1</ele>
        <time>2020-02-08T14:12:35Z</time>
      </trkpt>
      <trkpt lat="42.71634" lon="1.63973">
        <ele>1756.1</ele>
        <time>2020-02-08T14:12:36Z</time>
      </trkpt>
      <trkpt lat="42.71633" lon="1.63973">
        <ele>1756.1</ele>
        <time>2020-02-08T14:12:37Z</time>
      </trkpt>
      <trkpt lat="42.71633" lon="1.63972">
        <ele>1756.1</ele>
        <time>2020-02-08T14:12:38Z</time>
      </trkpt>
      <trkpt lat="42.71632" lon="1.63972">
        <ele>1756.1</ele>
        <time>2020-02-08T14:12:39Z</time>
      </trkpt>
      <trkpt lat="42.71632" lon="1.63971">
        <ele>1756.1</ele>
        <time>2020-02-08T14:12:40Z</time>
      </trkpt>
      <trkpt lat="42.71632" lon="1.63971">
        <ele>1757.2</ele>
        <time>2020-02-08T14:12:41Z</time>
      </trkpt>
      <trkpt lat="42.71631" lon="1.6397">
        <ele>1757.2</ele>
        <time>2020-02-08T14:12:42Z</time>
      </trkpt>
      <trkpt lat="42.71631" lon="1.6397">
        <ele>1757.4</ele>
        <time>2020-02-08T14:12:43Z</time>
      </trkpt>
      <trkpt lat="42.71628" lon="1.63967">
        <ele>1757.4</ele>
        <time>2020-02-08T14:12:44Z</time>
      </trkpt>
      <trkpt lat="42.71628" lon="1.63967">
        <ele>1757.4</ele>
        <time>2020-02-08T14:12:45Z</time>
      </trkpt>
      <trkpt lat="42.71627" lon="1.63966">
        <ele>1758.7</ele>
        <time>2020-02-08T14:12:46Z</time>
      </trkpt>
      <trkpt lat="42.71627" lon="1.63966">
        <ele>1758.7</ele>
        <time>2020-02-08T14:12:47Z</time>
      </trkpt>
      <trkpt lat="42.71626" lon="1.63965">
        <ele>1758.7</ele>
        <time>2020-02-08T14:12:48Z</time>
      </trkpt>
      <trkpt lat="42.71626" lon="1.63965">
        <ele>1758.7</ele>
        <time>2020-02-08T14:12:49Z</time>
      </trkpt>
      <trkpt lat="42.71625" lon="1.63964">
        <ele>1758.7</ele>
        <time>2020-02-08T14:12:50Z</time>
      </trkpt>
      <trkpt lat="42.71625" lon="1.63964">
        <ele>1758.7</ele>
        <time>2020-02-08T14:12:51Z</time>
      </trkpt>
      <trkpt lat="42.71624" lon="1.63963">
        <ele>1758.7</ele>
        <time>2020-02-08T14:12:52Z</time>
      </trkpt>
      <trkpt lat="42.71624" lon="1.63963">
        <ele>1758.7</ele>
        <time>2020-02-08T14:12:53Z</time>
      </trkpt>
      <trkpt lat="42.71623" lon="1.63962">
        <ele>1759.8</ele>
        <time>2020-02-08T14:12:54Z</time>
      </trkpt>
      <trkpt lat="42.71623" lon="1.63962">
        <ele>1759.8</ele>
        <time>2020-02-08T14:12:55Z</time>
      </trkpt>
      <trkpt lat="42.71622" lon="1.63961">
        <ele>1759.8</ele>
        <time>2020-02-08T14:12:56Z</time>
      </trkpt>
      <trkpt lat="42.71622" lon="1.63961">
        <ele>1759.8</ele>
        <time>2020-02-08T14:12:57Z</time>
      </trkpt>
      <trkpt lat="42.71621" lon="1.6396">
        <ele>1759.9</ele>
        <time>2020-02-08T14:12:58Z</time>
      </trkpt>
      <trkpt lat="42.71621" lon="1.6396">
        <ele>1759.9</ele>
        <time>2020-02-08T14:12:59Z</time>
      </trkpt>
      <trkpt lat="42.7162" lon="1.63959">
        <ele>1759.9</ele>
        <time>2020-02-08T14:13:00Z</time>
      </trkpt>
      <trkpt lat="42.71619" lon="1.63958">
        <ele>1759.9</ele>
        <time>2020-02-08T14:13:01Z</time>
      </trkpt>
      <trkpt lat="42.71619" lon="1.63958">
        <ele>1761</ele>
        <time>2020-02-08T14:13:02Z</time>
      </trkpt>
      <trkpt lat="42.71618" lon="1.63957">
        <ele>1761</ele>
        <time>2020-02-08T14:13:03Z</time>
      </trkpt>
      <trkpt lat="42.71618" lon="1.63957">
        <ele>1761</ele>
        <time>2020-02-08T14:13:04Z</time>
      </trkpt>
      <trkpt lat="42.71618" lon="1.63956">
        <ele>1761</ele>
        <time>2020-02-08T14:13:05Z</time>
      </trkpt>
      <trkpt lat="42.71617" lon="1.63955">
        <ele>1761</ele>
        <time>2020-02-08T14:13:06Z</time>
      </trkpt>
      <trkpt lat="42.71617" lon="1.63954">
        <ele>1761</ele>
        <time>2020-02-08T14:13:07Z</time>
      </trkpt>
      <trkpt lat="42.71617" lon="1.63954">
        <ele>1762.1</ele>
        <time>2020-02-08T14:13:08Z</time>
      </trkpt>
      <trkpt lat="42.71616" lon="1.63953">
        <ele>1762.1</ele>
        <time>2020-02-08T14:13:09Z</time>
      </trkpt>
      <trkpt lat="42.71616" lon="1.63952">
        <ele>1762.1</ele>
        <time>2020-02-08T14:13:10Z</time>
      </trkpt>
      <trkpt lat="42.71616" lon="1.63951">
        <ele>1762.1</ele>
        <time>2020-02-08T14:13:11Z</time>
      </trkpt>
      <trkpt lat="42.71615" lon="1.63951">
        <ele>1762.1</ele>
        <time>2020-02-08T14:13:12Z</time>
      </trkpt>
      <trkpt lat="42.71615" lon="1.6395">
        <ele>1762.2</ele>
        <time>2020-02-08T14:13:13Z</time>
      </trkpt>
      <trkpt lat="42.71615" lon="1.63949">
        <ele>1763.2</ele>
        <time>2020-02-08T14:13:14Z</time>
      </trkpt>
      <trkpt lat="42.71615" lon="1.63949">
        <ele>1763.2</ele>
        <time>2020-02-08T14:13:15Z</time>
      </trkpt>
      <trkpt lat="42.71615" lon="1.63948">
        <ele>1763.2</ele>
        <time>2020-02-08T14:13:16Z</time>
      </trkpt>
      <trkpt lat="42.71615" lon="1.63948">
        <ele>1763.2</ele>
        <time>2020-02-08T14:13:17Z</time>
      </trkpt>
      <trkpt lat="42.71615" lon="1.63947">
        <ele>1763.2</ele>
        <time>2020-02-08T14:13:18Z</time>
      </trkpt>
      <trkpt lat="42.71614" lon="1.63947">
        <ele>1763.2</ele>
        <time>2020-02-08T14:13:19Z</time>
      </trkpt>
      <trkpt lat="42.71614" lon="1.63946">
        <ele>1763.2</ele>
        <time>2020-02-08T14:13:20Z</time>
      </trkpt>
      <trkpt lat="42.71614" lon="1.63946">
        <ele>1763.2</ele>
        <time>2020-02-08T14:13:21Z</time>
      </trkpt>
      <trkpt lat="42.71614" lon="1.63945">
        <ele>1764.3</ele>
        <time>2020-02-08T14:13:22Z</time>
      </trkpt>
      <trkpt lat="42.71614" lon="1.63944">
        <ele>1764.3</ele>
        <time>2020-02-08T14:13:23Z</time>
      </trkpt>
      <trkpt lat="42.71612" lon="1.63942">
        <ele>1764.4</ele>
        <time>2020-02-08T14:13:24Z</time>
      </trkpt>
      <trkpt lat="42.71611" lon="1.63941">
        <ele>1764.4</ele>
        <time>2020-02-08T14:13:25Z</time>
      </trkpt>
      <trkpt lat="42.71611" lon="1.63941">
        <ele>1765.6</ele>
        <time>2020-02-08T14:13:26Z</time>
      </trkpt>
      <trkpt lat="42.7161" lon="1.6394">
        <ele>1765.6</ele>
        <time>2020-02-08T14:13:27Z</time>
      </trkpt>
      <trkpt lat="42.7161" lon="1.6394">
        <ele>1765.6</ele>
        <time>2020-02-08T14:13:28Z</time>
      </trkpt>
      <trkpt lat="42.71609" lon="1.63939">
        <ele>1765.6</ele>
        <time>2020-02-08T14:13:29Z</time>
      </trkpt>
      <trkpt lat="42.71609" lon="1.63939">
        <ele>1765.7</ele>
        <time>2020-02-08T14:13:30Z</time>
      </trkpt>
      <trkpt lat="42.71608" lon="1.63939">
        <ele>1765.7</ele>
        <time>2020-02-08T14:13:31Z</time>
      </trkpt>
      <trkpt lat="42.71608" lon="1.63938">
        <ele>1765.7</ele>
        <time>2020-02-08T14:13:32Z</time>
      </trkpt>
      <trkpt lat="42.71607" lon="1.63938">
        <ele>1765.7</ele>
        <time>2020-02-08T14:13:33Z</time>
      </trkpt>
      <trkpt lat="42.71607" lon="1.63937">
        <ele>1765.7</ele>
        <time>2020-02-08T14:13:34Z</time>
      </trkpt>
      <trkpt lat="42.71606" lon="1.63937">
        <ele>1765.7</ele>
        <time>2020-02-08T14:13:35Z</time>
      </trkpt>
      <trkpt lat="42.71606" lon="1.63937">
        <ele>1765.7</ele>
        <time>2020-02-08T14:13:36Z</time>
      </trkpt>
      <trkpt lat="42.71605" lon="1.63937">
        <ele>1767</ele>
        <time>2020-02-08T14:13:37Z</time>
      </trkpt>
      <trkpt lat="42.71605" lon="1.63936">
        <ele>1767</ele>
        <time>2020-02-08T14:13:38Z</time>
      </trkpt>
      <trkpt lat="42.71605" lon="1.63936">
        <ele>1767</ele>
        <time>2020-02-08T14:13:39Z</time>
      </trkpt>
      <trkpt lat="42.71604" lon="1.63936">
        <ele>1767</ele>
        <time>2020-02-08T14:13:40Z</time>
      </trkpt>
      <trkpt lat="42.71604" lon="1.63936">
        <ele>1767</ele>
        <time>2020-02-08T14:13:41Z</time>
      </trkpt>
      <trkpt lat="42.71603" lon="1.63935">
        <ele>1767</ele>
        <time>2020-02-08T14:13:42Z</time>
      </trkpt>
      <trkpt lat="42.71603" lon="1.63935">
        <ele>1767</ele>
        <time>2020-02-08T14:13:43Z</time>
      </trkpt>
      <trkpt lat="42.71601" lon="1.63933">
        <ele>1767</ele>
        <time>2020-02-08T14:13:44Z</time>
      </trkpt>
      <trkpt lat="42.71601" lon="1.63932">
        <ele>1768.3</ele>
        <time>2020-02-08T14:13:45Z</time>
      </trkpt>
      <trkpt lat="42.716" lon="1.63932">
        <ele>1768.3</ele>
        <time>2020-02-08T14:13:46Z</time>
      </trkpt>
      <trkpt lat="42.716" lon="1.63931">
        <ele>1768.3</ele>
        <time>2020-02-08T14:13:47Z</time>
      </trkpt>
      <trkpt lat="42.716" lon="1.63931">
        <ele>1768.3</ele>
        <time>2020-02-08T14:13:48Z</time>
      </trkpt>
      <trkpt lat="42.71599" lon="1.63931">
        <ele>1768.3</ele>
        <time>2020-02-08T14:13:49Z</time>
      </trkpt>
      <trkpt lat="42.71599" lon="1.6393">
        <ele>1768.3</ele>
        <time>2020-02-08T14:13:50Z</time>
      </trkpt>
      <trkpt lat="42.71599" lon="1.6393">
        <ele>1768.3</ele>
        <time>2020-02-08T14:13:51Z</time>
      </trkpt>
      <trkpt lat="42.71598" lon="1.63929">
        <ele>1768.3</ele>
        <time>2020-02-08T14:13:52Z</time>
      </trkpt>
      <trkpt lat="42.71598" lon="1.63929">
        <ele>1768.3</ele>
        <time>2020-02-08T14:13:53Z</time>
      </trkpt>
      <trkpt lat="42.71596" lon="1.63927">
        <ele>1769.7</ele>
        <time>2020-02-08T14:13:54Z</time>
      </trkpt>
      <trkpt lat="42.71596" lon="1.63926">
        <ele>1769.7</ele>
        <time>2020-02-08T14:13:55Z</time>
      </trkpt>
      <trkpt lat="42.71595" lon="1.63926">
        <ele>1769.7</ele>
        <time>2020-02-08T14:13:56Z</time>
      </trkpt>
      <trkpt lat="42.71595" lon="1.63925">
        <ele>1769.7</ele>
        <time>2020-02-08T14:13:57Z</time>
      </trkpt>
      <trkpt lat="42.71594" lon="1.63925">
        <ele>1769.7</ele>
        <time>2020-02-08T14:13:58Z</time>
      </trkpt>
      <trkpt lat="42.71594" lon="1.63924">
        <ele>1769.7</ele>
        <time>2020-02-08T14:13:59Z</time>
      </trkpt>
      <trkpt lat="42.71593" lon="1.63924">
        <ele>1771</ele>
        <time>2020-02-08T14:14:00Z</time>
      </trkpt>
      <trkpt lat="42.71593" lon="1.63923">
        <ele>1771</ele>
        <time>2020-02-08T14:14:01Z</time>
      </trkpt>
      <trkpt lat="42.71592" lon="1.63923">
        <ele>1771</ele>
        <time>2020-02-08T14:14:02Z</time>
      </trkpt>
      <trkpt lat="42.71592" lon="1.63922">
        <ele>1771</ele>
        <time>2020-02-08T14:14:03Z</time>
      </trkpt>
      <trkpt lat="42.71591" lon="1.63922">
        <ele>1771</ele>
        <time>2020-02-08T14:14:04Z</time>
      </trkpt>
      <trkpt lat="42.71591" lon="1.63921">
        <ele>1771</ele>
        <time>2020-02-08T14:14:05Z</time>
      </trkpt>
      <trkpt lat="42.7159" lon="1.63921">
        <ele>1771</ele>
        <time>2020-02-08T14:14:06Z</time>
      </trkpt>
      <trkpt lat="42.7159" lon="1.6392">
        <ele>1771.1</ele>
        <time>2020-02-08T14:14:07Z</time>
      </trkpt>
      <trkpt lat="42.71589" lon="1.6392">
        <ele>1771.1</ele>
        <time>2020-02-08T14:14:08Z</time>
      </trkpt>
      <trkpt lat="42.71589" lon="1.63919">
        <ele>1772.4</ele>
        <time>2020-02-08T14:14:09Z</time>
      </trkpt>
      <trkpt lat="42.71588" lon="1.63919">
        <ele>1772.4</ele>
        <time>2020-02-08T14:14:10Z</time>
      </trkpt>
      <trkpt lat="42.71588" lon="1.63918">
        <ele>1772.4</ele>
        <time>2020-02-08T14:14:11Z</time>
      </trkpt>
      <trkpt lat="42.71587" lon="1.63918">
        <ele>1772.4</ele>
        <time>2020-02-08T14:14:12Z</time>
      </trkpt>
      <trkpt lat="42.71587" lon="1.63917">
        <ele>1772.4</ele>
        <time>2020-02-08T14:14:13Z</time>
      </trkpt>
      <trkpt lat="42.71587" lon="1.63917">
        <ele>1772.4</ele>
        <time>2020-02-08T14:14:14Z</time>
      </trkpt>
      <trkpt lat="42.71585" lon="1.63916">
        <ele>1772.4</ele>
        <time>2020-02-08T14:14:15Z</time>
      </trkpt>
      <trkpt lat="42.71585" lon="1.63916">
        <ele>1772.4</ele>
        <time>2020-02-08T14:14:16Z</time>
      </trkpt>
      <trkpt lat="42.71585" lon="1.63916">
        <ele>1772.4</ele>
        <time>2020-02-08T14:14:17Z</time>
      </trkpt>
      <trkpt lat="42.71585" lon="1.63916">
        <ele>1772.4</ele>
        <time>2020-02-08T14:14:18Z</time>
      </trkpt>
      <trkpt lat="42.71585" lon="1.63913">
        <ele>1773.7</ele>
        <time>2020-02-08T14:14:19Z</time>
      </trkpt>
      <trkpt lat="42.71585" lon="1.63913">
        <ele>1773.7</ele>
        <time>2020-02-08T14:14:20Z</time>
      </trkpt>
      <trkpt lat="42.71585" lon="1.63913">
        <ele>1773.7</ele>
        <time>2020-02-08T14:14:21Z</time>
      </trkpt>
      <trkpt lat="42.71585" lon="1.63913">
        <ele>1773.7</ele>
        <time>2020-02-08T14:14:22Z</time>
      </trkpt>
      <trkpt lat="42.71585" lon="1.63913">
        <ele>1773.7</ele>
        <time>2020-02-08T14:14:23Z</time>
      </trkpt>
      <trkpt lat="42.71584" lon="1.6391">
        <ele>1774.9</ele>
        <time>2020-02-08T14:14:24Z</time>
      </trkpt>
      <trkpt lat="42.71584" lon="1.6391">
        <ele>1774.9</ele>
        <time>2020-02-08T14:14:25Z</time>
      </trkpt>
      <trkpt lat="42.71584" lon="1.63909">
        <ele>1774.9</ele>
        <time>2020-02-08T14:14:26Z</time>
      </trkpt>
      <trkpt lat="42.71583" lon="1.63908">
        <ele>1774.9</ele>
        <time>2020-02-08T14:14:27Z</time>
      </trkpt>
      <trkpt lat="42.71583" lon="1.63908">
        <ele>1774.9</ele>
        <time>2020-02-08T14:14:28Z</time>
      </trkpt>
      <trkpt lat="42.71583" lon="1.63907">
        <ele>1774.9</ele>
        <time>2020-02-08T14:14:29Z</time>
      </trkpt>
      <trkpt lat="42.71583" lon="1.63907">
        <ele>1774.9</ele>
        <time>2020-02-08T14:14:30Z</time>
      </trkpt>
      <trkpt lat="42.71583" lon="1.63906">
        <ele>1776</ele>
        <time>2020-02-08T14:14:31Z</time>
      </trkpt>
      <trkpt lat="42.71583" lon="1.63906">
        <ele>1776</ele>
        <time>2020-02-08T14:14:32Z</time>
      </trkpt>
      <trkpt lat="42.71583" lon="1.63905">
        <ele>1776</ele>
        <time>2020-02-08T14:14:33Z</time>
      </trkpt>
      <trkpt lat="42.71582" lon="1.63904">
        <ele>1776</ele>
        <time>2020-02-08T14:14:34Z</time>
      </trkpt>
      <trkpt lat="42.71582" lon="1.63904">
        <ele>1776</ele>
        <time>2020-02-08T14:14:35Z</time>
      </trkpt>
      <trkpt lat="42.71582" lon="1.63904">
        <ele>1776</ele>
        <time>2020-02-08T14:14:36Z</time>
      </trkpt>
      <trkpt lat="42.71582" lon="1.63903">
        <ele>1776</ele>
        <time>2020-02-08T14:14:37Z</time>
      </trkpt>
      <trkpt lat="42.71582" lon="1.63903">
        <ele>1776</ele>
        <time>2020-02-08T14:14:38Z</time>
      </trkpt>
      <trkpt lat="42.71582" lon="1.63902">
        <ele>1777</ele>
        <time>2020-02-08T14:14:39Z</time>
      </trkpt>
      <trkpt lat="42.71581" lon="1.63902">
        <ele>1777</ele>
        <time>2020-02-08T14:14:40Z</time>
      </trkpt>
      <trkpt lat="42.71581" lon="1.63901">
        <ele>1777</ele>
        <time>2020-02-08T14:14:41Z</time>
      </trkpt>
      <trkpt lat="42.71581" lon="1.63901">
        <ele>1777</ele>
        <time>2020-02-08T14:14:42Z</time>
      </trkpt>
      <trkpt lat="42.71581" lon="1.639">
        <ele>1777</ele>
        <time>2020-02-08T14:14:43Z</time>
      </trkpt>
      <trkpt lat="42.7158" lon="1.639">
        <ele>1777.1</ele>
        <time>2020-02-08T14:14:44Z</time>
      </trkpt>
      <trkpt lat="42.71579" lon="1.63899">
        <ele>1777.1</ele>
        <time>2020-02-08T14:14:45Z</time>
      </trkpt>
      <trkpt lat="42.71579" lon="1.63898">
        <ele>1777.1</ele>
        <time>2020-02-08T14:14:46Z</time>
      </trkpt>
      <trkpt lat="42.71578" lon="1.63898">
        <ele>1778.1</ele>
        <time>2020-02-08T14:14:47Z</time>
      </trkpt>
      <trkpt lat="42.71577" lon="1.63897">
        <ele>1778.1</ele>
        <time>2020-02-08T14:14:48Z</time>
      </trkpt>
      <trkpt lat="42.71577" lon="1.63897">
        <ele>1778.1</ele>
        <time>2020-02-08T14:14:49Z</time>
      </trkpt>
      <trkpt lat="42.71576" lon="1.63896">
        <ele>1778.1</ele>
        <time>2020-02-08T14:14:50Z</time>
      </trkpt>
      <trkpt lat="42.71575" lon="1.63895">
        <ele>1778.1</ele>
        <time>2020-02-08T14:14:51Z</time>
      </trkpt>
      <trkpt lat="42.71575" lon="1.63895">
        <ele>1778.1</ele>
        <time>2020-02-08T14:14:52Z</time>
      </trkpt>
      <trkpt lat="42.71574" lon="1.63894">
        <ele>1778.1</ele>
        <time>2020-02-08T14:14:53Z</time>
      </trkpt>
      <trkpt lat="42.71573" lon="1.63894">
        <ele>1778.1</ele>
        <time>2020-02-08T14:14:54Z</time>
      </trkpt>
      <trkpt lat="42.71573" lon="1.63893">
        <ele>1779.2</ele>
        <time>2020-02-08T14:14:55Z</time>
      </trkpt>
      <trkpt lat="42.71572" lon="1.63893">
        <ele>1779.2</ele>
        <time>2020-02-08T14:14:56Z</time>
      </trkpt>
      <trkpt lat="42.71572" lon="1.63892">
        <ele>1779.2</ele>
        <time>2020-02-08T14:14:57Z</time>
      </trkpt>
      <trkpt lat="42.71571" lon="1.63892">
        <ele>1779.1</ele>
        <time>2020-02-08T14:14:58Z</time>
      </trkpt>
      <trkpt lat="42.7157" lon="1.63892">
        <ele>1779.1</ele>
        <time>2020-02-08T14:14:59Z</time>
      </trkpt>
      <trkpt lat="42.7157" lon="1.63891">
        <ele>1779.1</ele>
        <time>2020-02-08T14:15:00Z</time>
      </trkpt>
      <trkpt lat="42.71569" lon="1.63891">
        <ele>1779.1</ele>
        <time>2020-02-08T14:15:01Z</time>
      </trkpt>
      <trkpt lat="42.71569" lon="1.6389">
        <ele>1779.1</ele>
        <time>2020-02-08T14:15:02Z</time>
      </trkpt>
      <trkpt lat="42.71568" lon="1.6389">
        <ele>1779.1</ele>
        <time>2020-02-08T14:15:03Z</time>
      </trkpt>
      <trkpt lat="42.71566" lon="1.63888">
        <ele>1780.2</ele>
        <time>2020-02-08T14:15:04Z</time>
      </trkpt>
      <trkpt lat="42.71566" lon="1.63888">
        <ele>1780.2</ele>
        <time>2020-02-08T14:15:05Z</time>
      </trkpt>
      <trkpt lat="42.71565" lon="1.63887">
        <ele>1780.2</ele>
        <time>2020-02-08T14:15:06Z</time>
      </trkpt>
      <trkpt lat="42.71565" lon="1.63887">
        <ele>1780.2</ele>
        <time>2020-02-08T14:15:07Z</time>
      </trkpt>
      <trkpt lat="42.71565" lon="1.63887">
        <ele>1780.1</ele>
        <time>2020-02-08T14:15:08Z</time>
      </trkpt>
      <trkpt lat="42.71564" lon="1.63887">
        <ele>1780.1</ele>
        <time>2020-02-08T14:15:09Z</time>
      </trkpt>
      <trkpt lat="42.71564" lon="1.63886">
        <ele>1780.1</ele>
        <time>2020-02-08T14:15:10Z</time>
      </trkpt>
      <trkpt lat="42.71564" lon="1.63886">
        <ele>1780.1</ele>
        <time>2020-02-08T14:15:11Z</time>
      </trkpt>
      <trkpt lat="42.71563" lon="1.63886">
        <ele>1780.1</ele>
        <time>2020-02-08T14:15:12Z</time>
      </trkpt>
      <trkpt lat="42.71563" lon="1.63885">
        <ele>1780.1</ele>
        <time>2020-02-08T14:15:13Z</time>
      </trkpt>
      <trkpt lat="42.71562" lon="1.63883">
        <ele>1781.2</ele>
        <time>2020-02-08T14:15:14Z</time>
      </trkpt>
      <trkpt lat="42.71561" lon="1.63882">
        <ele>1781.2</ele>
        <time>2020-02-08T14:15:15Z</time>
      </trkpt>
      <trkpt lat="42.71561" lon="1.63882">
        <ele>1781.2</ele>
        <time>2020-02-08T14:15:16Z</time>
      </trkpt>
      <trkpt lat="42.71561" lon="1.63881">
        <ele>1781.2</ele>
        <time>2020-02-08T14:15:17Z</time>
      </trkpt>
      <trkpt lat="42.71561" lon="1.6388">
        <ele>1782.3</ele>
        <time>2020-02-08T14:15:18Z</time>
      </trkpt>
      <trkpt lat="42.71561" lon="1.6388">
        <ele>1782.3</ele>
        <time>2020-02-08T14:15:19Z</time>
      </trkpt>
      <trkpt lat="42.71561" lon="1.63879">
        <ele>1782.3</ele>
        <time>2020-02-08T14:15:20Z</time>
      </trkpt>
      <trkpt lat="42.71561" lon="1.63879">
        <ele>1782.3</ele>
        <time>2020-02-08T14:15:21Z</time>
      </trkpt>
      <trkpt lat="42.71561" lon="1.63878">
        <ele>1782.3</ele>
        <time>2020-02-08T14:15:22Z</time>
      </trkpt>
      <trkpt lat="42.71561" lon="1.63878">
        <ele>1782.3</ele>
        <time>2020-02-08T14:15:23Z</time>
      </trkpt>
      <trkpt lat="42.71561" lon="1.63878">
        <ele>1782.3</ele>
        <time>2020-02-08T14:15:24Z</time>
      </trkpt>
      <trkpt lat="42.71561" lon="1.63878">
        <ele>1782.3</ele>
        <time>2020-02-08T14:15:25Z</time>
      </trkpt>
      <trkpt lat="42.71561" lon="1.63878">
        <ele>1782.3</ele>
        <time>2020-02-08T14:15:26Z</time>
      </trkpt>
      <trkpt lat="42.71561" lon="1.63878">
        <ele>1782.3</ele>
        <time>2020-02-08T14:15:27Z</time>
      </trkpt>
      <trkpt lat="42.71561" lon="1.63878">
        <ele>1782.3</ele>
        <time>2020-02-08T14:15:28Z</time>
      </trkpt>
      <trkpt lat="42.71561" lon="1.63875">
        <ele>1783.4</ele>
        <time>2020-02-08T14:15:29Z</time>
      </trkpt>
      <trkpt lat="42.71561" lon="1.63875">
        <ele>1783.4</ele>
        <time>2020-02-08T14:15:30Z</time>
      </trkpt>
      <trkpt lat="42.71561" lon="1.63875">
        <ele>1783.4</ele>
        <time>2020-02-08T14:15:31Z</time>
      </trkpt>
      <trkpt lat="42.7156" lon="1.63872">
        <ele>1784.4</ele>
        <time>2020-02-08T14:15:32Z</time>
      </trkpt>
      <trkpt lat="42.7156" lon="1.63872">
        <ele>1784.4</ele>
        <time>2020-02-08T14:15:33Z</time>
      </trkpt>
      <trkpt lat="42.7156" lon="1.63872">
        <ele>1784.4</ele>
        <time>2020-02-08T14:15:34Z</time>
      </trkpt>
      <trkpt lat="42.7156" lon="1.63872">
        <ele>1784.4</ele>
        <time>2020-02-08T14:15:35Z</time>
      </trkpt>
      <trkpt lat="42.71561" lon="1.6387">
        <ele>1784.4</ele>
        <time>2020-02-08T14:15:36Z</time>
      </trkpt>
      <trkpt lat="42.71561" lon="1.6387">
        <ele>1784.4</ele>
        <time>2020-02-08T14:15:37Z</time>
      </trkpt>
      <trkpt lat="42.71561" lon="1.6387">
        <ele>1784.4</ele>
        <time>2020-02-08T14:15:38Z</time>
      </trkpt>
      <trkpt lat="42.71561" lon="1.6387">
        <ele>1784.4</ele>
        <time>2020-02-08T14:15:39Z</time>
      </trkpt>
      <trkpt lat="42.71563" lon="1.6387">
        <ele>1784.5</ele>
        <time>2020-02-08T14:15:40Z</time>
      </trkpt>
      <trkpt lat="42.71563" lon="1.6387">
        <ele>1784.5</ele>
        <time>2020-02-08T14:15:41Z</time>
      </trkpt>
      <trkpt lat="42.71563" lon="1.6387">
        <ele>1784.5</ele>
        <time>2020-02-08T14:15:42Z</time>
      </trkpt>
      <trkpt lat="42.71563" lon="1.6387">
        <ele>1784.5</ele>
        <time>2020-02-08T14:15:43Z</time>
      </trkpt>
      <trkpt lat="42.71563" lon="1.6387">
        <ele>1784.5</ele>
        <time>2020-02-08T14:15:44Z</time>
      </trkpt>
      <trkpt lat="42.71563" lon="1.6387">
        <ele>1784.5</ele>
        <time>2020-02-08T14:15:45Z</time>
      </trkpt>
      <trkpt lat="42.71563" lon="1.6387">
        <ele>1784.5</ele>
        <time>2020-02-08T14:15:46Z</time>
      </trkpt>
      <trkpt lat="42.71563" lon="1.6387">
        <ele>1784.5</ele>
        <time>2020-02-08T14:15:47Z</time>
      </trkpt>
      <trkpt lat="42.71563" lon="1.6387">
        <ele>1784.5</ele>
        <time>2020-02-08T14:15:48Z</time>
      </trkpt>
      <trkpt lat="42.71563" lon="1.6387">
        <ele>1784.5</ele>
        <time>2020-02-08T14:15:49Z</time>
      </trkpt>
      <trkpt lat="42.71564" lon="1.63867">
        <ele>1785.4</ele>
        <time>2020-02-08T14:15:50Z</time>
      </trkpt>
      <trkpt lat="42.71564" lon="1.63867">
        <ele>1785.4</ele>
        <time>2020-02-08T14:15:51Z</time>
      </trkpt>
      <trkpt lat="42.71564" lon="1.63867">
        <ele>1785.4</ele>
        <time>2020-02-08T14:15:52Z</time>
      </trkpt>
      <trkpt lat="42.71564" lon="1.63867">
        <ele>1785.4</ele>
        <time>2020-02-08T14:15:53Z</time>
      </trkpt>
      <trkpt lat="42.71563" lon="1.63867">
        <ele>1785.4</ele>
        <time>2020-02-08T14:15:54Z</time>
      </trkpt>
      <trkpt lat="42.71563" lon="1.63866">
        <ele>1785.4</ele>
        <time>2020-02-08T14:15:55Z</time>
      </trkpt>
      <trkpt lat="42.71562" lon="1.63865">
        <ele>1785.4</ele>
        <time>2020-02-08T14:15:56Z</time>
      </trkpt>
      <trkpt lat="42.71562" lon="1.63864">
        <ele>1785.4</ele>
        <time>2020-02-08T14:15:57Z</time>
      </trkpt>
      <trkpt lat="42.71561" lon="1.63863">
        <ele>1786.2</ele>
        <time>2020-02-08T14:15:58Z</time>
      </trkpt>
      <trkpt lat="42.7156" lon="1.63863">
        <ele>1786.2</ele>
        <time>2020-02-08T14:15:59Z</time>
      </trkpt>
      <trkpt lat="42.7156" lon="1.63862">
        <ele>1786.2</ele>
        <time>2020-02-08T14:16:00Z</time>
      </trkpt>
      <trkpt lat="42.71559" lon="1.63861">
        <ele>1786.2</ele>
        <time>2020-02-08T14:16:01Z</time>
      </trkpt>
      <trkpt lat="42.71559" lon="1.6386">
        <ele>1786.2</ele>
        <time>2020-02-08T14:16:02Z</time>
      </trkpt>
      <trkpt lat="42.71558" lon="1.63859">
        <ele>1786.9</ele>
        <time>2020-02-08T14:16:03Z</time>
      </trkpt>
      <trkpt lat="42.71558" lon="1.63859">
        <ele>1786.9</ele>
        <time>2020-02-08T14:16:04Z</time>
      </trkpt>
      <trkpt lat="42.71559" lon="1.63858">
        <ele>1786.9</ele>
        <time>2020-02-08T14:16:05Z</time>
      </trkpt>
      <trkpt lat="42.71559" lon="1.63857">
        <ele>1786.9</ele>
        <time>2020-02-08T14:16:06Z</time>
      </trkpt>
      <trkpt lat="42.71559" lon="1.63857">
        <ele>1786.9</ele>
        <time>2020-02-08T14:16:07Z</time>
      </trkpt>
      <trkpt lat="42.7156" lon="1.63856">
        <ele>1786.9</ele>
        <time>2020-02-08T14:16:08Z</time>
      </trkpt>
      <trkpt lat="42.7156" lon="1.63855">
        <ele>1786.9</ele>
        <time>2020-02-08T14:16:09Z</time>
      </trkpt>
      <trkpt lat="42.7156" lon="1.63854">
        <ele>1787.6</ele>
        <time>2020-02-08T14:16:10Z</time>
      </trkpt>
      <trkpt lat="42.71561" lon="1.63854">
        <ele>1787.6</ele>
        <time>2020-02-08T14:16:11Z</time>
      </trkpt>
      <trkpt lat="42.71561" lon="1.63853">
        <ele>1787.6</ele>
        <time>2020-02-08T14:16:12Z</time>
      </trkpt>
      <trkpt lat="42.71561" lon="1.63852">
        <ele>1787.6</ele>
        <time>2020-02-08T14:16:13Z</time>
      </trkpt>
      <trkpt lat="42.71562" lon="1.63852">
        <ele>1787.6</ele>
        <time>2020-02-08T14:16:14Z</time>
      </trkpt>
      <trkpt lat="42.71562" lon="1.63852">
        <ele>1787.7</ele>
        <time>2020-02-08T14:16:15Z</time>
      </trkpt>
      <trkpt lat="42.71562" lon="1.63851">
        <ele>1787.7</ele>
        <time>2020-02-08T14:16:16Z</time>
      </trkpt>
      <trkpt lat="42.71563" lon="1.63851">
        <ele>1787.7</ele>
        <time>2020-02-08T14:16:17Z</time>
      </trkpt>
      <trkpt lat="42.71563" lon="1.63851">
        <ele>1788.3</ele>
        <time>2020-02-08T14:16:18Z</time>
      </trkpt>
      <trkpt lat="42.71563" lon="1.6385">
        <ele>1788.3</ele>
        <time>2020-02-08T14:16:19Z</time>
      </trkpt>
      <trkpt lat="42.71564" lon="1.6385">
        <ele>1788.3</ele>
        <time>2020-02-08T14:16:20Z</time>
      </trkpt>
      <trkpt lat="42.71564" lon="1.6385">
        <ele>1788.3</ele>
        <time>2020-02-08T14:16:21Z</time>
      </trkpt>
      <trkpt lat="42.71564" lon="1.63849">
        <ele>1788.3</ele>
        <time>2020-02-08T14:16:22Z</time>
      </trkpt>
      <trkpt lat="42.71565" lon="1.63849">
        <ele>1788.3</ele>
        <time>2020-02-08T14:16:23Z</time>
      </trkpt>
      <trkpt lat="42.71565" lon="1.63849">
        <ele>1788.3</ele>
        <time>2020-02-08T14:16:24Z</time>
      </trkpt>
      <trkpt lat="42.71565" lon="1.63849">
        <ele>1788.3</ele>
        <time>2020-02-08T14:16:25Z</time>
      </trkpt>
      <trkpt lat="42.71565" lon="1.63849">
        <ele>1788.3</ele>
        <time>2020-02-08T14:16:26Z</time>
      </trkpt>
      <trkpt lat="42.71565" lon="1.63849">
        <ele>1788.3</ele>
        <time>2020-02-08T14:16:27Z</time>
      </trkpt>
      <trkpt lat="42.71565" lon="1.63849">
        <ele>1788.3</ele>
        <time>2020-02-08T14:16:28Z</time>
      </trkpt>
      <trkpt lat="42.71565" lon="1.63849">
        <ele>1788.3</ele>
        <time>2020-02-08T14:16:29Z</time>
      </trkpt>
      <trkpt lat="42.71565" lon="1.63849">
        <ele>1788.3</ele>
        <time>2020-02-08T14:16:30Z</time>
      </trkpt>
      <trkpt lat="42.71565" lon="1.63849">
        <ele>1788.3</ele>
        <time>2020-02-08T14:16:31Z</time>
      </trkpt>
      <trkpt lat="42.71565" lon="1.63849">
        <ele>1788.3</ele>
        <time>2020-02-08T14:16:32Z</time>
      </trkpt>
      <trkpt lat="42.71565" lon="1.63849">
        <ele>1788.3</ele>
        <time>2020-02-08T14:16:33Z</time>
      </trkpt>
      <trkpt lat="42.71566" lon="1.63847">
        <ele>1788.3</ele>
        <time>2020-02-08T14:16:34Z</time>
      </trkpt>
      <trkpt lat="42.71566" lon="1.63847">
        <ele>1788.3</ele>
        <time>2020-02-08T14:16:35Z</time>
      </trkpt>
      <trkpt lat="42.71566" lon="1.63847">
        <ele>1788.3</ele>
        <time>2020-02-08T14:16:36Z</time>
      </trkpt>
      <trkpt lat="42.71566" lon="1.63847">
        <ele>1788.3</ele>
        <time>2020-02-08T14:16:37Z</time>
      </trkpt>
      <trkpt lat="42.71566" lon="1.63847">
        <ele>1788.3</ele>
        <time>2020-02-08T14:16:38Z</time>
      </trkpt>
      <trkpt lat="42.71566" lon="1.63844">
        <ele>1788.8</ele>
        <time>2020-02-08T14:16:39Z</time>
      </trkpt>
      <trkpt lat="42.71566" lon="1.63844">
        <ele>1788.8</ele>
        <time>2020-02-08T14:16:40Z</time>
      </trkpt>
      <trkpt lat="42.71566" lon="1.63844">
        <ele>1788.8</ele>
        <time>2020-02-08T14:16:41Z</time>
      </trkpt>
      <trkpt lat="42.71566" lon="1.63844">
        <ele>1788.8</ele>
        <time>2020-02-08T14:16:42Z</time>
      </trkpt>
      <trkpt lat="42.71566" lon="1.63844">
        <ele>1788.8</ele>
        <time>2020-02-08T14:16:43Z</time>
      </trkpt>
      <trkpt lat="42.71566" lon="1.6384">
        <ele>1789.4</ele>
        <time>2020-02-08T14:16:44Z</time>
      </trkpt>
      <trkpt lat="42.71566" lon="1.6384">
        <ele>1789.4</ele>
        <time>2020-02-08T14:16:45Z</time>
      </trkpt>
      <trkpt lat="42.71566" lon="1.63839">
        <ele>1789.4</ele>
        <time>2020-02-08T14:16:46Z</time>
      </trkpt>
      <trkpt lat="42.71565" lon="1.63839">
        <ele>1789.4</ele>
        <time>2020-02-08T14:16:47Z</time>
      </trkpt>
      <trkpt lat="42.71565" lon="1.63839">
        <ele>1789.4</ele>
        <time>2020-02-08T14:16:48Z</time>
      </trkpt>
      <trkpt lat="42.71565" lon="1.63838">
        <ele>1789.5</ele>
        <time>2020-02-08T14:16:49Z</time>
      </trkpt>
      <trkpt lat="42.71564" lon="1.63838">
        <ele>1790.1</ele>
        <time>2020-02-08T14:16:50Z</time>
      </trkpt>
      <trkpt lat="42.71564" lon="1.63837">
        <ele>1790.1</ele>
        <time>2020-02-08T14:16:51Z</time>
      </trkpt>
      <trkpt lat="42.71564" lon="1.63837">
        <ele>1790.1</ele>
        <time>2020-02-08T14:16:52Z</time>
      </trkpt>
      <trkpt lat="42.71564" lon="1.63836">
        <ele>1790.1</ele>
        <time>2020-02-08T14:16:53Z</time>
      </trkpt>
      <trkpt lat="42.71563" lon="1.63836">
        <ele>1790.1</ele>
        <time>2020-02-08T14:16:54Z</time>
      </trkpt>
      <trkpt lat="42.71563" lon="1.63835">
        <ele>1790.1</ele>
        <time>2020-02-08T14:16:55Z</time>
      </trkpt>
      <trkpt lat="42.71563" lon="1.63835">
        <ele>1790.1</ele>
        <time>2020-02-08T14:16:56Z</time>
      </trkpt>
      <trkpt lat="42.71563" lon="1.63834">
        <ele>1790.1</ele>
        <time>2020-02-08T14:16:57Z</time>
      </trkpt>
      <trkpt lat="42.71563" lon="1.63834">
        <ele>1790.6</ele>
        <time>2020-02-08T14:16:58Z</time>
      </trkpt>
      <trkpt lat="42.71562" lon="1.63833">
        <ele>1790.6</ele>
        <time>2020-02-08T14:16:59Z</time>
      </trkpt>
      <trkpt lat="42.71562" lon="1.63833">
        <ele>1790.6</ele>
        <time>2020-02-08T14:17:00Z</time>
      </trkpt>
      <trkpt lat="42.71562" lon="1.63832">
        <ele>1790.6</ele>
        <time>2020-02-08T14:17:01Z</time>
      </trkpt>
      <trkpt lat="42.71562" lon="1.63832">
        <ele>1790.6</ele>
        <time>2020-02-08T14:17:02Z</time>
      </trkpt>
      <trkpt lat="42.71562" lon="1.63831">
        <ele>1790.6</ele>
        <time>2020-02-08T14:17:03Z</time>
      </trkpt>
      <trkpt lat="42.71562" lon="1.63831">
        <ele>1790.7</ele>
        <time>2020-02-08T14:17:04Z</time>
      </trkpt>
      <trkpt lat="42.71561" lon="1.6383">
        <ele>1790.7</ele>
        <time>2020-02-08T14:17:05Z</time>
      </trkpt>
      <trkpt lat="42.71561" lon="1.6383">
        <ele>1790.7</ele>
        <time>2020-02-08T14:17:06Z</time>
      </trkpt>
      <trkpt lat="42.71561" lon="1.63829">
        <ele>1791.2</ele>
        <time>2020-02-08T14:17:07Z</time>
      </trkpt>
      <trkpt lat="42.71561" lon="1.63829">
        <ele>1791.2</ele>
        <time>2020-02-08T14:17:08Z</time>
      </trkpt>
      <trkpt lat="42.7156" lon="1.63828">
        <ele>1791.2</ele>
        <time>2020-02-08T14:17:09Z</time>
      </trkpt>
      <trkpt lat="42.7156" lon="1.63828">
        <ele>1791.2</ele>
        <time>2020-02-08T14:17:10Z</time>
      </trkpt>
      <trkpt lat="42.7156" lon="1.63827">
        <ele>1791.2</ele>
        <time>2020-02-08T14:17:11Z</time>
      </trkpt>
      <trkpt lat="42.7156" lon="1.63827">
        <ele>1791.2</ele>
        <time>2020-02-08T14:17:12Z</time>
      </trkpt>
      <trkpt lat="42.7156" lon="1.63826">
        <ele>1791.2</ele>
        <time>2020-02-08T14:17:13Z</time>
      </trkpt>
      <trkpt lat="42.7156" lon="1.63826">
        <ele>1791.2</ele>
        <time>2020-02-08T14:17:14Z</time>
      </trkpt>
      <trkpt lat="42.7156" lon="1.63826">
        <ele>1791.2</ele>
        <time>2020-02-08T14:17:15Z</time>
      </trkpt>
      <trkpt lat="42.7156" lon="1.63826">
        <ele>1791.2</ele>
        <time>2020-02-08T14:17:16Z</time>
      </trkpt>
      <trkpt lat="42.7156" lon="1.63826">
        <ele>1791.2</ele>
        <time>2020-02-08T14:17:17Z</time>
      </trkpt>
      <trkpt lat="42.71559" lon="1.63824">
        <ele>1791.7</ele>
        <time>2020-02-08T14:17:18Z</time>
      </trkpt>
      <trkpt lat="42.71559" lon="1.63824">
        <ele>1791.7</ele>
        <time>2020-02-08T14:17:19Z</time>
      </trkpt>
      <trkpt lat="42.71559" lon="1.63824">
        <ele>1791.7</ele>
        <time>2020-02-08T14:17:20Z</time>
      </trkpt>
      <trkpt lat="42.71558" lon="1.63821">
        <ele>1791.8</ele>
        <time>2020-02-08T14:17:21Z</time>
      </trkpt>
      <trkpt lat="42.71558" lon="1.63821">
        <ele>1791.8</ele>
        <time>2020-02-08T14:17:22Z</time>
      </trkpt>
      <trkpt lat="42.71558" lon="1.63821">
        <ele>1791.8</ele>
        <time>2020-02-08T14:17:23Z</time>
      </trkpt>
      <trkpt lat="42.71557" lon="1.63821">
        <ele>1791.8</ele>
        <time>2020-02-08T14:17:24Z</time>
      </trkpt>
      <trkpt lat="42.71557" lon="1.6382">
        <ele>1792.2</ele>
        <time>2020-02-08T14:17:25Z</time>
      </trkpt>
      <trkpt lat="42.71557" lon="1.6382">
        <ele>1792.2</ele>
        <time>2020-02-08T14:17:26Z</time>
      </trkpt>
      <trkpt lat="42.71557" lon="1.63819">
        <ele>1792.2</ele>
        <time>2020-02-08T14:17:27Z</time>
      </trkpt>
      <trkpt lat="42.71556" lon="1.63819">
        <ele>1792.2</ele>
        <time>2020-02-08T14:17:28Z</time>
      </trkpt>
      <trkpt lat="42.71556" lon="1.63818">
        <ele>1792.2</ele>
        <time>2020-02-08T14:17:29Z</time>
      </trkpt>
      <trkpt lat="42.71556" lon="1.63818">
        <ele>1792.2</ele>
        <time>2020-02-08T14:17:30Z</time>
      </trkpt>
      <trkpt lat="42.71555" lon="1.63817">
        <ele>1792.2</ele>
        <time>2020-02-08T14:17:31Z</time>
      </trkpt>
      <trkpt lat="42.71555" lon="1.63817">
        <ele>1792.3</ele>
        <time>2020-02-08T14:17:32Z</time>
      </trkpt>
      <trkpt lat="42.71555" lon="1.63816">
        <ele>1792.7</ele>
        <time>2020-02-08T14:17:33Z</time>
      </trkpt>
      <trkpt lat="42.71554" lon="1.63813">
        <ele>1792.7</ele>
        <time>2020-02-08T14:17:34Z</time>
      </trkpt>
      <trkpt lat="42.71554" lon="1.63812">
        <ele>1792.7</ele>
        <time>2020-02-08T14:17:35Z</time>
      </trkpt>
      <trkpt lat="42.71553" lon="1.63812">
        <ele>1793.2</ele>
        <time>2020-02-08T14:17:36Z</time>
      </trkpt>
      <trkpt lat="42.71553" lon="1.63811">
        <ele>1793.2</ele>
        <time>2020-02-08T14:17:37Z</time>
      </trkpt>
      <trkpt lat="42.71553" lon="1.63811">
        <ele>1793.2</ele>
        <time>2020-02-08T14:17:38Z</time>
      </trkpt>
      <trkpt lat="42.71553" lon="1.6381">
        <ele>1793.2</ele>
        <time>2020-02-08T14:17:39Z</time>
      </trkpt>
      <trkpt lat="42.71553" lon="1.6381">
        <ele>1793.2</ele>
        <time>2020-02-08T14:17:40Z</time>
      </trkpt>
      <trkpt lat="42.71552" lon="1.63809">
        <ele>1793.2</ele>
        <time>2020-02-08T14:17:41Z</time>
      </trkpt>
      <trkpt lat="42.71552" lon="1.63809">
        <ele>1793.2</ele>
        <time>2020-02-08T14:17:42Z</time>
      </trkpt>
      <trkpt lat="42.71552" lon="1.63808">
        <ele>1793.2</ele>
        <time>2020-02-08T14:17:43Z</time>
      </trkpt>
      <trkpt lat="42.71552" lon="1.63808">
        <ele>1793.6</ele>
        <time>2020-02-08T14:17:44Z</time>
      </trkpt>
      <trkpt lat="42.71551" lon="1.63807">
        <ele>1793.6</ele>
        <time>2020-02-08T14:17:45Z</time>
      </trkpt>
      <trkpt lat="42.71551" lon="1.63807">
        <ele>1793.6</ele>
        <time>2020-02-08T14:17:46Z</time>
      </trkpt>
      <trkpt lat="42.71551" lon="1.63807">
        <ele>1793.6</ele>
        <time>2020-02-08T14:17:47Z</time>
      </trkpt>
      <trkpt lat="42.71551" lon="1.63806">
        <ele>1793.6</ele>
        <time>2020-02-08T14:17:48Z</time>
      </trkpt>
      <trkpt lat="42.7155" lon="1.63806">
        <ele>1793.6</ele>
        <time>2020-02-08T14:17:49Z</time>
      </trkpt>
      <trkpt lat="42.7155" lon="1.63805">
        <ele>1793.6</ele>
        <time>2020-02-08T14:17:50Z</time>
      </trkpt>
      <trkpt lat="42.7155" lon="1.63805">
        <ele>1793.6</ele>
        <time>2020-02-08T14:17:51Z</time>
      </trkpt>
      <trkpt lat="42.71549" lon="1.63805">
        <ele>1793.6</ele>
        <time>2020-02-08T14:17:52Z</time>
      </trkpt>
      <trkpt lat="42.71549" lon="1.63804">
        <ele>1793.6</ele>
        <time>2020-02-08T14:17:53Z</time>
      </trkpt>
      <trkpt lat="42.71549" lon="1.63804">
        <ele>1793.6</ele>
        <time>2020-02-08T14:17:54Z</time>
      </trkpt>
      <trkpt lat="42.71549" lon="1.63804">
        <ele>1793.6</ele>
        <time>2020-02-08T14:17:55Z</time>
      </trkpt>
      <trkpt lat="42.71549" lon="1.63804">
        <ele>1793.6</ele>
        <time>2020-02-08T14:17:56Z</time>
      </trkpt>
      <trkpt lat="42.71549" lon="1.63804">
        <ele>1793.6</ele>
        <time>2020-02-08T14:17:57Z</time>
      </trkpt>
      <trkpt lat="42.71549" lon="1.63804">
        <ele>1793.6</ele>
        <time>2020-02-08T14:17:58Z</time>
      </trkpt>
      <trkpt lat="42.71549" lon="1.63804">
        <ele>1793.6</ele>
        <time>2020-02-08T14:17:59Z</time>
      </trkpt>
      <trkpt lat="42.71548" lon="1.63802">
        <ele>1794.1</ele>
        <time>2020-02-08T14:18:00Z</time>
      </trkpt>
      <trkpt lat="42.71548" lon="1.63802">
        <ele>1794.1</ele>
        <time>2020-02-08T14:18:01Z</time>
      </trkpt>
      <trkpt lat="42.71548" lon="1.63802">
        <ele>1794.1</ele>
        <time>2020-02-08T14:18:02Z</time>
      </trkpt>
      <trkpt lat="42.71547" lon="1.638">
        <ele>1794.1</ele>
        <time>2020-02-08T14:18:03Z</time>
      </trkpt>
      <trkpt lat="42.71547" lon="1.63799">
        <ele>1794.5</ele>
        <time>2020-02-08T14:18:04Z</time>
      </trkpt>
      <trkpt lat="42.71546" lon="1.63799">
        <ele>1794.5</ele>
        <time>2020-02-08T14:18:05Z</time>
      </trkpt>
      <trkpt lat="42.71546" lon="1.63798">
        <ele>1794.5</ele>
        <time>2020-02-08T14:18:06Z</time>
      </trkpt>
      <trkpt lat="42.71545" lon="1.63797">
        <ele>1794.5</ele>
        <time>2020-02-08T14:18:07Z</time>
      </trkpt>
      <trkpt lat="42.71545" lon="1.63796">
        <ele>1794.5</ele>
        <time>2020-02-08T14:18:08Z</time>
      </trkpt>
      <trkpt lat="42.71544" lon="1.63796">
        <ele>1794.5</ele>
        <time>2020-02-08T14:18:09Z</time>
      </trkpt>
      <trkpt lat="42.71544" lon="1.63795">
        <ele>1794.5</ele>
        <time>2020-02-08T14:18:10Z</time>
      </trkpt>
      <trkpt lat="42.71544" lon="1.63794">
        <ele>1794.9</ele>
        <time>2020-02-08T14:18:11Z</time>
      </trkpt>
      <trkpt lat="42.71543" lon="1.63794">
        <ele>1794.9</ele>
        <time>2020-02-08T14:18:12Z</time>
      </trkpt>
      <trkpt lat="42.71543" lon="1.63793">
        <ele>1794.9</ele>
        <time>2020-02-08T14:18:13Z</time>
      </trkpt>
      <trkpt lat="42.71543" lon="1.63793">
        <ele>1794.9</ele>
        <time>2020-02-08T14:18:14Z</time>
      </trkpt>
      <trkpt lat="42.71543" lon="1.63793">
        <ele>1794.9</ele>
        <time>2020-02-08T14:18:15Z</time>
      </trkpt>
      <trkpt lat="42.71542" lon="1.6379">
        <ele>1795.3</ele>
        <time>2020-02-08T14:18:16Z</time>
      </trkpt>
      <trkpt lat="42.71542" lon="1.6379">
        <ele>1795.3</ele>
        <time>2020-02-08T14:18:17Z</time>
      </trkpt>
      <trkpt lat="42.71542" lon="1.6379">
        <ele>1795.3</ele>
        <time>2020-02-08T14:18:18Z</time>
      </trkpt>
      <trkpt lat="42.71542" lon="1.6379">
        <ele>1795.3</ele>
        <time>2020-02-08T14:18:19Z</time>
      </trkpt>
      <trkpt lat="42.71542" lon="1.63788">
        <ele>1795.3</ele>
        <time>2020-02-08T14:18:20Z</time>
      </trkpt>
      <trkpt lat="42.71542" lon="1.63788">
        <ele>1795.3</ele>
        <time>2020-02-08T14:18:21Z</time>
      </trkpt>
      <trkpt lat="42.71542" lon="1.63788">
        <ele>1795.3</ele>
        <time>2020-02-08T14:18:22Z</time>
      </trkpt>
      <trkpt lat="42.71542" lon="1.63788">
        <ele>1795.3</ele>
        <time>2020-02-08T14:18:23Z</time>
      </trkpt>
      <trkpt lat="42.71542" lon="1.63788">
        <ele>1795.3</ele>
        <time>2020-02-08T14:18:24Z</time>
      </trkpt>
      <trkpt lat="42.71542" lon="1.63785">
        <ele>1795.8</ele>
        <time>2020-02-08T14:18:25Z</time>
      </trkpt>
      <trkpt lat="42.71542" lon="1.63785">
        <ele>1795.8</ele>
        <time>2020-02-08T14:18:26Z</time>
      </trkpt>
      <trkpt lat="42.71542" lon="1.63785">
        <ele>1795.8</ele>
        <time>2020-02-08T14:18:27Z</time>
      </trkpt>
      <trkpt lat="42.71542" lon="1.63785">
        <ele>1795.8</ele>
        <time>2020-02-08T14:18:28Z</time>
      </trkpt>
      <trkpt lat="42.71543" lon="1.63783">
        <ele>1795.8</ele>
        <time>2020-02-08T14:18:29Z</time>
      </trkpt>
      <trkpt lat="42.71543" lon="1.63783">
        <ele>1795.8</ele>
        <time>2020-02-08T14:18:30Z</time>
      </trkpt>
      <trkpt lat="42.71543" lon="1.63783">
        <ele>1795.8</ele>
        <time>2020-02-08T14:18:31Z</time>
      </trkpt>
      <trkpt lat="42.71543" lon="1.63783">
        <ele>1795.8</ele>
        <time>2020-02-08T14:18:32Z</time>
      </trkpt>
      <trkpt lat="42.71541" lon="1.63781">
        <ele>1796.2</ele>
        <time>2020-02-08T14:18:33Z</time>
      </trkpt>
      <trkpt lat="42.71541" lon="1.6378">
        <ele>1796.2</ele>
        <time>2020-02-08T14:18:34Z</time>
      </trkpt>
      <trkpt lat="42.71541" lon="1.6378">
        <ele>1796.2</ele>
        <time>2020-02-08T14:18:35Z</time>
      </trkpt>
      <trkpt lat="42.71541" lon="1.63779">
        <ele>1796.2</ele>
        <time>2020-02-08T14:18:36Z</time>
      </trkpt>
      <trkpt lat="42.71541" lon="1.63779">
        <ele>1796.2</ele>
        <time>2020-02-08T14:18:37Z</time>
      </trkpt>
      <trkpt lat="42.71541" lon="1.63778">
        <ele>1796.2</ele>
        <time>2020-02-08T14:18:38Z</time>
      </trkpt>
      <trkpt lat="42.71541" lon="1.63777">
        <ele>1796.6</ele>
        <time>2020-02-08T14:18:39Z</time>
      </trkpt>
      <trkpt lat="42.71541" lon="1.63777">
        <ele>1796.6</ele>
        <time>2020-02-08T14:18:40Z</time>
      </trkpt>
      <trkpt lat="42.71541" lon="1.63776">
        <ele>1796.6</ele>
        <time>2020-02-08T14:18:41Z</time>
      </trkpt>
      <trkpt lat="42.71541" lon="1.63776">
        <ele>1796.6</ele>
        <time>2020-02-08T14:18:42Z</time>
      </trkpt>
      <trkpt lat="42.71541" lon="1.63775">
        <ele>1796.6</ele>
        <time>2020-02-08T14:18:43Z</time>
      </trkpt>
      <trkpt lat="42.71541" lon="1.63775">
        <ele>1796.6</ele>
        <time>2020-02-08T14:18:44Z</time>
      </trkpt>
      <trkpt lat="42.7154" lon="1.63774">
        <ele>1796.6</ele>
        <time>2020-02-08T14:18:45Z</time>
      </trkpt>
      <trkpt lat="42.7154" lon="1.63774">
        <ele>1797</ele>
        <time>2020-02-08T14:18:46Z</time>
      </trkpt>
      <trkpt lat="42.7154" lon="1.63773">
        <ele>1797</ele>
        <time>2020-02-08T14:18:47Z</time>
      </trkpt>
      <trkpt lat="42.71539" lon="1.63772">
        <ele>1797</ele>
        <time>2020-02-08T14:18:48Z</time>
      </trkpt>
      <trkpt lat="42.71539" lon="1.63772">
        <ele>1797</ele>
        <time>2020-02-08T14:18:49Z</time>
      </trkpt>
      <trkpt lat="42.71539" lon="1.63771">
        <ele>1797</ele>
        <time>2020-02-08T14:18:50Z</time>
      </trkpt>
      <trkpt lat="42.71538" lon="1.6377">
        <ele>1797</ele>
        <time>2020-02-08T14:18:51Z</time>
      </trkpt>
      <trkpt lat="42.71538" lon="1.6377">
        <ele>1797</ele>
        <time>2020-02-08T14:18:52Z</time>
      </trkpt>
      <trkpt lat="42.71537" lon="1.63769">
        <ele>1797.4</ele>
        <time>2020-02-08T14:18:53Z</time>
      </trkpt>
      <trkpt lat="42.71537" lon="1.63769">
        <ele>1797.4</ele>
        <time>2020-02-08T14:18:54Z</time>
      </trkpt>
      <trkpt lat="42.71537" lon="1.63768">
        <ele>1797.4</ele>
        <time>2020-02-08T14:18:55Z</time>
      </trkpt>
      <trkpt lat="42.71537" lon="1.63768">
        <ele>1797.4</ele>
        <time>2020-02-08T14:18:56Z</time>
      </trkpt>
      <trkpt lat="42.71536" lon="1.63768">
        <ele>1797.4</ele>
        <time>2020-02-08T14:18:57Z</time>
      </trkpt>
      <trkpt lat="42.71536" lon="1.63767">
        <ele>1797.4</ele>
        <time>2020-02-08T14:18:58Z</time>
      </trkpt>
      <trkpt lat="42.71536" lon="1.63767">
        <ele>1797.4</ele>
        <time>2020-02-08T14:18:59Z</time>
      </trkpt>
      <trkpt lat="42.71536" lon="1.63767">
        <ele>1797.4</ele>
        <time>2020-02-08T14:19:00Z</time>
      </trkpt>
      <trkpt lat="42.71535" lon="1.63766">
        <ele>1797.4</ele>
        <time>2020-02-08T14:19:01Z</time>
      </trkpt>
      <trkpt lat="42.71535" lon="1.63766">
        <ele>1797.4</ele>
        <time>2020-02-08T14:19:02Z</time>
      </trkpt>
      <trkpt lat="42.71535" lon="1.63765">
        <ele>1797.4</ele>
        <time>2020-02-08T14:19:03Z</time>
      </trkpt>
      <trkpt lat="42.71533" lon="1.63764">
        <ele>1797.7</ele>
        <time>2020-02-08T14:19:04Z</time>
      </trkpt>
      <trkpt lat="42.71532" lon="1.63764">
        <ele>1797.7</ele>
        <time>2020-02-08T14:19:05Z</time>
      </trkpt>
      <trkpt lat="42.71532" lon="1.63763">
        <ele>1797.7</ele>
        <time>2020-02-08T14:19:06Z</time>
      </trkpt>
      <trkpt lat="42.71532" lon="1.63763">
        <ele>1797.7</ele>
        <time>2020-02-08T14:19:07Z</time>
      </trkpt>
      <trkpt lat="42.71532" lon="1.63763">
        <ele>1797.7</ele>
        <time>2020-02-08T14:19:08Z</time>
      </trkpt>
      <trkpt lat="42.71531" lon="1.63762">
        <ele>1797.7</ele>
        <time>2020-02-08T14:19:09Z</time>
      </trkpt>
      <trkpt lat="42.71531" lon="1.63762">
        <ele>1797.7</ele>
        <time>2020-02-08T14:19:10Z</time>
      </trkpt>
      <trkpt lat="42.71531" lon="1.63762">
        <ele>1797.7</ele>
        <time>2020-02-08T14:19:11Z</time>
      </trkpt>
      <trkpt lat="42.71531" lon="1.63761">
        <ele>1797.7</ele>
        <time>2020-02-08T14:19:12Z</time>
      </trkpt>
      <trkpt lat="42.7153" lon="1.63761">
        <ele>1797.7</ele>
        <time>2020-02-08T14:19:13Z</time>
      </trkpt>
      <trkpt lat="42.7153" lon="1.63761">
        <ele>1797.7</ele>
        <time>2020-02-08T14:19:14Z</time>
      </trkpt>
      <trkpt lat="42.7153" lon="1.63761">
        <ele>1797.7</ele>
        <time>2020-02-08T14:19:15Z</time>
      </trkpt>
      <trkpt lat="42.7153" lon="1.63761">
        <ele>1797.7</ele>
        <time>2020-02-08T14:19:16Z</time>
      </trkpt>
      <trkpt lat="42.7153" lon="1.63761">
        <ele>1797.7</ele>
        <time>2020-02-08T14:19:17Z</time>
      </trkpt>
      <trkpt lat="42.7153" lon="1.63761">
        <ele>1797.7</ele>
        <time>2020-02-08T14:19:18Z</time>
      </trkpt>
      <trkpt lat="42.7153" lon="1.63761">
        <ele>1797.7</ele>
        <time>2020-02-08T14:19:19Z</time>
      </trkpt>
      <trkpt lat="42.7153" lon="1.63761">
        <ele>1797.7</ele>
        <time>2020-02-08T14:19:20Z</time>
      </trkpt>
      <trkpt lat="42.7153" lon="1.63761">
        <ele>1797.7</ele>
        <time>2020-02-08T14:19:21Z</time>
      </trkpt>
      <trkpt lat="42.7153" lon="1.63761">
        <ele>1797.7</ele>
        <time>2020-02-08T14:19:22Z</time>
      </trkpt>
      <trkpt lat="42.7153" lon="1.63761">
        <ele>1797.7</ele>
        <time>2020-02-08T14:19:23Z</time>
      </trkpt>
      <trkpt lat="42.7153" lon="1.63761">
        <ele>1797.7</ele>
        <time>2020-02-08T14:19:24Z</time>
      </trkpt>
      <trkpt lat="42.7153" lon="1.63761">
        <ele>1797.7</ele>
        <time>2020-02-08T14:19:25Z</time>
      </trkpt>
      <trkpt lat="42.7153" lon="1.63761">
        <ele>1797.7</ele>
        <time>2020-02-08T14:19:26Z</time>
      </trkpt>
      <trkpt lat="42.7153" lon="1.63761">
        <ele>1797.7</ele>
        <time>2020-02-08T14:19:27Z</time>
      </trkpt>
      <trkpt lat="42.7153" lon="1.63761">
        <ele>1797.7</ele>
        <time>2020-02-08T14:19:28Z</time>
      </trkpt>
      <trkpt lat="42.7153" lon="1.63761">
        <ele>1797.7</ele>
        <time>2020-02-08T14:19:29Z</time>
      </trkpt>
      <trkpt lat="42.7153" lon="1.63761">
        <ele>1797.7</ele>
        <time>2020-02-08T14:19:30Z</time>
      </trkpt>
      <trkpt lat="42.7153" lon="1.63761">
        <ele>1797.7</ele>
        <time>2020-02-08T14:19:31Z</time>
      </trkpt>
      <trkpt lat="42.7153" lon="1.63761">
        <ele>1797.7</ele>
        <time>2020-02-08T14:19:32Z</time>
      </trkpt>
      <trkpt lat="42.7153" lon="1.63761">
        <ele>1797.7</ele>
        <time>2020-02-08T14:19:33Z</time>
      </trkpt>
      <trkpt lat="42.7153" lon="1.63761">
        <ele>1797.7</ele>
        <time>2020-02-08T14:19:34Z</time>
      </trkpt>
      <trkpt lat="42.7153" lon="1.63761">
        <ele>1797.7</ele>
        <time>2020-02-08T14:19:35Z</time>
      </trkpt>
      <trkpt lat="42.7153" lon="1.63761">
        <ele>1797.7</ele>
        <time>2020-02-08T14:19:36Z</time>
      </trkpt>
      <trkpt lat="42.7153" lon="1.63761">
        <ele>1797.7</ele>
        <time>2020-02-08T14:19:37Z</time>
      </trkpt>
      <trkpt lat="42.7153" lon="1.63761">
        <ele>1797.7</ele>
        <time>2020-02-08T14:19:38Z</time>
      </trkpt>
      <trkpt lat="42.7153" lon="1.63761">
        <ele>1797.7</ele>
        <time>2020-02-08T14:19:39Z</time>
      </trkpt>
      <trkpt lat="42.7153" lon="1.63761">
        <ele>1797.7</ele>
        <time>2020-02-08T14:19:40Z</time>
      </trkpt>
      <trkpt lat="42.7153" lon="1.63761">
        <ele>1797.7</ele>
        <time>2020-02-08T14:19:41Z</time>
      </trkpt>
      <trkpt lat="42.7153" lon="1.63761">
        <ele>1797.7</ele>
        <time>2020-02-08T14:19:42Z</time>
      </trkpt>
      <trkpt lat="42.7153" lon="1.63761">
        <ele>1797.7</ele>
        <time>2020-02-08T14:19:43Z</time>
      </trkpt>
      <trkpt lat="42.7153" lon="1.63761">
        <ele>1797.7</ele>
        <time>2020-02-08T14:19:44Z</time>
      </trkpt>
      <trkpt lat="42.7153" lon="1.63761">
        <ele>1797.7</ele>
        <time>2020-02-08T14:19:45Z</time>
      </trkpt>
      <trkpt lat="42.7153" lon="1.63761">
        <ele>1797.7</ele>
        <time>2020-02-08T14:19:46Z</time>
      </trkpt>
      <trkpt lat="42.7153" lon="1.63759">
        <ele>1798.2</ele>
        <time>2020-02-08T14:19:47Z</time>
      </trkpt>
      <trkpt lat="42.7153" lon="1.63759">
        <ele>1798.2</ele>
        <time>2020-02-08T14:19:48Z</time>
      </trkpt>
      <trkpt lat="42.7153" lon="1.63759">
        <ele>1798.2</ele>
        <time>2020-02-08T14:19:49Z</time>
      </trkpt>
      <trkpt lat="42.7153" lon="1.63759">
        <ele>1798.2</ele>
        <time>2020-02-08T14:19:50Z</time>
      </trkpt>
      <trkpt lat="42.7153" lon="1.63759">
        <ele>1798.2</ele>
        <time>2020-02-08T14:19:51Z</time>
      </trkpt>
      <trkpt lat="42.7153" lon="1.63759">
        <ele>1798.2</ele>
        <time>2020-02-08T14:19:52Z</time>
      </trkpt>
      <trkpt lat="42.7153" lon="1.63759">
        <ele>1798.2</ele>
        <time>2020-02-08T14:19:53Z</time>
      </trkpt>
      <trkpt lat="42.7153" lon="1.63759">
        <ele>1798.2</ele>
        <time>2020-02-08T14:19:54Z</time>
      </trkpt>
      <trkpt lat="42.7153" lon="1.63759">
        <ele>1798.2</ele>
        <time>2020-02-08T14:19:55Z</time>
      </trkpt>
      <trkpt lat="42.7153" lon="1.63759">
        <ele>1798.2</ele>
        <time>2020-02-08T14:19:56Z</time>
      </trkpt>
      <trkpt lat="42.7153" lon="1.63759">
        <ele>1798.2</ele>
        <time>2020-02-08T14:19:57Z</time>
      </trkpt>
      <trkpt lat="42.71529" lon="1.63758">
        <ele>1798.2</ele>
        <time>2020-02-08T14:19:58Z</time>
      </trkpt>
      <trkpt lat="42.71529" lon="1.63758">
        <ele>1798.2</ele>
        <time>2020-02-08T14:19:59Z</time>
      </trkpt>
      <trkpt lat="42.71529" lon="1.63758">
        <ele>1798.2</ele>
        <time>2020-02-08T14:20:00Z</time>
      </trkpt>
      <trkpt lat="42.71529" lon="1.63758">
        <ele>1798.2</ele>
        <time>2020-02-08T14:20:01Z</time>
      </trkpt>
      <trkpt lat="42.71529" lon="1.63758">
        <ele>1798.2</ele>
        <time>2020-02-08T14:20:02Z</time>
      </trkpt>
      <trkpt lat="42.71529" lon="1.63758">
        <ele>1798.2</ele>
        <time>2020-02-08T14:20:03Z</time>
      </trkpt>
      <trkpt lat="42.71529" lon="1.63758">
        <ele>1798.2</ele>
        <time>2020-02-08T14:20:04Z</time>
      </trkpt>
      <trkpt lat="42.71529" lon="1.63758">
        <ele>1798.2</ele>
        <time>2020-02-08T14:20:05Z</time>
      </trkpt>
      <trkpt lat="42.71529" lon="1.63758">
        <ele>1798.2</ele>
        <time>2020-02-08T14:20:06Z</time>
      </trkpt>
      <trkpt lat="42.71529" lon="1.63758">
        <ele>1798.2</ele>
        <time>2020-02-08T14:20:07Z</time>
      </trkpt>
      <trkpt lat="42.71529" lon="1.63758">
        <ele>1798.2</ele>
        <time>2020-02-08T14:20:08Z</time>
      </trkpt>
      <trkpt lat="42.71529" lon="1.63758">
        <ele>1798.2</ele>
        <time>2020-02-08T14:20:09Z</time>
      </trkpt>
      <trkpt lat="42.71529" lon="1.63758">
        <ele>1798.2</ele>
        <time>2020-02-08T14:20:10Z</time>
      </trkpt>
      <trkpt lat="42.71529" lon="1.63758">
        <ele>1798.2</ele>
        <time>2020-02-08T14:20:11Z</time>
      </trkpt>
      <trkpt lat="42.71529" lon="1.63758">
        <ele>1798.2</ele>
        <time>2020-02-08T14:20:12Z</time>
      </trkpt>
      <trkpt lat="42.71529" lon="1.63758">
        <ele>1798.2</ele>
        <time>2020-02-08T14:20:13Z</time>
      </trkpt>
      <trkpt lat="42.71529" lon="1.63758">
        <ele>1798.2</ele>
        <time>2020-02-08T14:20:14Z</time>
      </trkpt>
      <trkpt lat="42.71529" lon="1.63757">
        <ele>1798.2</ele>
        <time>2020-02-08T14:20:15Z</time>
      </trkpt>
      <trkpt lat="42.71529" lon="1.63757">
        <ele>1798.2</ele>
        <time>2020-02-08T14:20:16Z</time>
      </trkpt>
      <trkpt lat="42.71529" lon="1.63757">
        <ele>1798.2</ele>
        <time>2020-02-08T14:20:17Z</time>
      </trkpt>
      <trkpt lat="42.71529" lon="1.63757">
        <ele>1798.2</ele>
        <time>2020-02-08T14:20:18Z</time>
      </trkpt>
      <trkpt lat="42.71529" lon="1.63757">
        <ele>1798.2</ele>
        <time>2020-02-08T14:20:19Z</time>
      </trkpt>
      <trkpt lat="42.71529" lon="1.63757">
        <ele>1798.2</ele>
        <time>2020-02-08T14:20:20Z</time>
      </trkpt>
      <trkpt lat="42.71529" lon="1.63757">
        <ele>1798.2</ele>
        <time>2020-02-08T14:20:21Z</time>
      </trkpt>
      <trkpt lat="42.71529" lon="1.63757">
        <ele>1798.2</ele>
        <time>2020-02-08T14:20:22Z</time>
      </trkpt>
      <trkpt lat="42.71529" lon="1.63757">
        <ele>1798.2</ele>
        <time>2020-02-08T14:20:23Z</time>
      </trkpt>
      <trkpt lat="42.71529" lon="1.63757">
        <ele>1798.2</ele>
        <time>2020-02-08T14:20:24Z</time>
      </trkpt>
      <trkpt lat="42.71529" lon="1.63757">
        <ele>1798.2</ele>
        <time>2020-02-08T14:20:25Z</time>
      </trkpt>
      <trkpt lat="42.71528" lon="1.63757">
        <ele>1798.2</ele>
        <time>2020-02-08T14:20:26Z</time>
      </trkpt>
      <trkpt lat="42.71528" lon="1.63757">
        <ele>1798.2</ele>
        <time>2020-02-08T14:20:27Z</time>
      </trkpt>
      <trkpt lat="42.71528" lon="1.63757">
        <ele>1798.2</ele>
        <time>2020-02-08T14:20:28Z</time>
      </trkpt>
      <trkpt lat="42.71528" lon="1.63757">
        <ele>1798.2</ele>
        <time>2020-02-08T14:20:29Z</time>
      </trkpt>
      <trkpt lat="42.71528" lon="1.63757">
        <ele>1798.2</ele>
        <time>2020-02-08T14:20:30Z</time>
      </trkpt>
      <trkpt lat="42.71528" lon="1.63757">
        <ele>1798.2</ele>
        <time>2020-02-08T14:20:31Z</time>
      </trkpt>
      <trkpt lat="42.71528" lon="1.63756">
        <ele>1798.2</ele>
        <time>2020-02-08T14:20:32Z</time>
      </trkpt>
      <trkpt lat="42.71528" lon="1.63756">
        <ele>1798.7</ele>
        <time>2020-02-08T14:20:33Z</time>
      </trkpt>
      <trkpt lat="42.71528" lon="1.63756">
        <ele>1798.7</ele>
        <time>2020-02-08T14:20:34Z</time>
      </trkpt>
      <trkpt lat="42.71528" lon="1.63756">
        <ele>1798.7</ele>
        <time>2020-02-08T14:20:35Z</time>
      </trkpt>
      <trkpt lat="42.71528" lon="1.63756">
        <ele>1798.7</ele>
        <time>2020-02-08T14:20:36Z</time>
      </trkpt>
      <trkpt lat="42.71528" lon="1.63756">
        <ele>1798.7</ele>
        <time>2020-02-08T14:20:37Z</time>
      </trkpt>
      <trkpt lat="42.71528" lon="1.63756">
        <ele>1798.7</ele>
        <time>2020-02-08T14:20:38Z</time>
      </trkpt>
      <trkpt lat="42.71528" lon="1.63756">
        <ele>1798.7</ele>
        <time>2020-02-08T14:20:39Z</time>
      </trkpt>
      <trkpt lat="42.71528" lon="1.63756">
        <ele>1798.7</ele>
        <time>2020-02-08T14:20:40Z</time>
      </trkpt>
      <trkpt lat="42.71528" lon="1.63756">
        <ele>1798.7</ele>
        <time>2020-02-08T14:20:41Z</time>
      </trkpt>
      <trkpt lat="42.71528" lon="1.63756">
        <ele>1798.7</ele>
        <time>2020-02-08T14:20:42Z</time>
      </trkpt>
      <trkpt lat="42.71528" lon="1.63756">
        <ele>1798.7</ele>
        <time>2020-02-08T14:20:43Z</time>
      </trkpt>
      <trkpt lat="42.71528" lon="1.63756">
        <ele>1798.7</ele>
        <time>2020-02-08T14:20:44Z</time>
      </trkpt>
      <trkpt lat="42.71528" lon="1.63756">
        <ele>1798.7</ele>
        <time>2020-02-08T14:20:45Z</time>
      </trkpt>
      <trkpt lat="42.71528" lon="1.63756">
        <ele>1798.7</ele>
        <time>2020-02-08T14:20:46Z</time>
      </trkpt>
      <trkpt lat="42.71528" lon="1.63756">
        <ele>1798.7</ele>
        <time>2020-02-08T14:20:47Z</time>
      </trkpt>
      <trkpt lat="42.71528" lon="1.63756">
        <ele>1798.7</ele>
        <time>2020-02-08T14:20:48Z</time>
      </trkpt>
      <trkpt lat="42.71528" lon="1.63755">
        <ele>1798.7</ele>
        <time>2020-02-08T14:20:49Z</time>
      </trkpt>
      <trkpt lat="42.71528" lon="1.63755">
        <ele>1798.7</ele>
        <time>2020-02-08T14:20:50Z</time>
      </trkpt>
      <trkpt lat="42.71528" lon="1.63755">
        <ele>1798.7</ele>
        <time>2020-02-08T14:20:51Z</time>
      </trkpt>
      <trkpt lat="42.71528" lon="1.63755">
        <ele>1798.7</ele>
        <time>2020-02-08T14:20:52Z</time>
      </trkpt>
      <trkpt lat="42.71528" lon="1.63755">
        <ele>1798.7</ele>
        <time>2020-02-08T14:20:53Z</time>
      </trkpt>
      <trkpt lat="42.71528" lon="1.63755">
        <ele>1798.7</ele>
        <time>2020-02-08T14:20:54Z</time>
      </trkpt>
      <trkpt lat="42.71527" lon="1.63755">
        <ele>1798.7</ele>
        <time>2020-02-08T14:20:55Z</time>
      </trkpt>
      <trkpt lat="42.71527" lon="1.63755">
        <ele>1798.7</ele>
        <time>2020-02-08T14:20:56Z</time>
      </trkpt>
      <trkpt lat="42.71527" lon="1.63755">
        <ele>1798.7</ele>
        <time>2020-02-08T14:20:57Z</time>
      </trkpt>
      <trkpt lat="42.71527" lon="1.63755">
        <ele>1798.7</ele>
        <time>2020-02-08T14:20:58Z</time>
      </trkpt>
      <trkpt lat="42.71527" lon="1.63755">
        <ele>1798.7</ele>
        <time>2020-02-08T14:20:59Z</time>
      </trkpt>
      <trkpt lat="42.71527" lon="1.63755">
        <ele>1798.7</ele>
        <time>2020-02-08T14:21:00Z</time>
      </trkpt>
      <trkpt lat="42.71527" lon="1.63755">
        <ele>1798.7</ele>
        <time>2020-02-08T14:21:01Z</time>
      </trkpt>
      <trkpt lat="42.71527" lon="1.63755">
        <ele>1798.7</ele>
        <time>2020-02-08T14:21:02Z</time>
      </trkpt>
      <trkpt lat="42.71527" lon="1.63755">
        <ele>1798.7</ele>
        <time>2020-02-08T14:21:03Z</time>
      </trkpt>
      <trkpt lat="42.71527" lon="1.63755">
        <ele>1798.7</ele>
        <time>2020-02-08T14:21:04Z</time>
      </trkpt>
      <trkpt lat="42.71527" lon="1.63755">
        <ele>1798.7</ele>
        <time>2020-02-08T14:21:05Z</time>
      </trkpt>
      <trkpt lat="42.71527" lon="1.63754">
        <ele>1798.7</ele>
        <time>2020-02-08T14:21:06Z</time>
      </trkpt>
      <trkpt lat="42.71527" lon="1.63754">
        <ele>1798.7</ele>
        <time>2020-02-08T14:21:07Z</time>
      </trkpt>
      <trkpt lat="42.71527" lon="1.63754">
        <ele>1798.7</ele>
        <time>2020-02-08T14:21:08Z</time>
      </trkpt>
      <trkpt lat="42.71527" lon="1.63754">
        <ele>1798.7</ele>
        <time>2020-02-08T14:21:09Z</time>
      </trkpt>
      <trkpt lat="42.71527" lon="1.63754">
        <ele>1798.7</ele>
        <time>2020-02-08T14:21:10Z</time>
      </trkpt>
      <trkpt lat="42.71527" lon="1.63754">
        <ele>1798.7</ele>
        <time>2020-02-08T14:21:11Z</time>
      </trkpt>
      <trkpt lat="42.71527" lon="1.63754">
        <ele>1798.7</ele>
        <time>2020-02-08T14:21:12Z</time>
      </trkpt>
      <trkpt lat="42.71527" lon="1.63754">
        <ele>1798.7</ele>
        <time>2020-02-08T14:21:13Z</time>
      </trkpt>
      <trkpt lat="42.71526" lon="1.63753">
        <ele>1798.7</ele>
        <time>2020-02-08T14:21:14Z</time>
      </trkpt>
      <trkpt lat="42.71526" lon="1.63753">
        <ele>1798.7</ele>
        <time>2020-02-08T14:21:15Z</time>
      </trkpt>
      <trkpt lat="42.71526" lon="1.63752">
        <ele>1799.3</ele>
        <time>2020-02-08T14:21:16Z</time>
      </trkpt>
      <trkpt lat="42.71525" lon="1.63751">
        <ele>1799.3</ele>
        <time>2020-02-08T14:21:17Z</time>
      </trkpt>
      <trkpt lat="42.71525" lon="1.6375">
        <ele>1799.3</ele>
        <time>2020-02-08T14:21:18Z</time>
      </trkpt>
      <trkpt lat="42.71524" lon="1.6375">
        <ele>1799.3</ele>
        <time>2020-02-08T14:21:19Z</time>
      </trkpt>
      <trkpt lat="42.71524" lon="1.63749">
        <ele>1799.3</ele>
        <time>2020-02-08T14:21:20Z</time>
      </trkpt>
      <trkpt lat="42.71523" lon="1.63748">
        <ele>1799.3</ele>
        <time>2020-02-08T14:21:21Z</time>
      </trkpt>
      <trkpt lat="42.71523" lon="1.63748">
        <ele>1799.9</ele>
        <time>2020-02-08T14:21:22Z</time>
      </trkpt>
      <trkpt lat="42.71523" lon="1.63747">
        <ele>1799.9</ele>
        <time>2020-02-08T14:21:23Z</time>
      </trkpt>
      <trkpt lat="42.71522" lon="1.63746">
        <ele>1799.9</ele>
        <time>2020-02-08T14:21:24Z</time>
      </trkpt>
      <trkpt lat="42.71522" lon="1.63745">
        <ele>1799.9</ele>
        <time>2020-02-08T14:21:25Z</time>
      </trkpt>
      <trkpt lat="42.71521" lon="1.63745">
        <ele>1799.9</ele>
        <time>2020-02-08T14:21:26Z</time>
      </trkpt>
      <trkpt lat="42.71521" lon="1.63744">
        <ele>1799.9</ele>
        <time>2020-02-08T14:21:27Z</time>
      </trkpt>
      <trkpt lat="42.71521" lon="1.63743">
        <ele>1800.5</ele>
        <time>2020-02-08T14:21:28Z</time>
      </trkpt>
      <trkpt lat="42.7152" lon="1.63742">
        <ele>1800.6</ele>
        <time>2020-02-08T14:21:29Z</time>
      </trkpt>
      <trkpt lat="42.7152" lon="1.63741">
        <ele>1800.6</ele>
        <time>2020-02-08T14:21:30Z</time>
      </trkpt>
      <trkpt lat="42.7152" lon="1.63741">
        <ele>1800.6</ele>
        <time>2020-02-08T14:21:31Z</time>
      </trkpt>
      <trkpt lat="42.71519" lon="1.6374">
        <ele>1800.6</ele>
        <time>2020-02-08T14:21:32Z</time>
      </trkpt>
      <trkpt lat="42.71519" lon="1.63739">
        <ele>1801.2</ele>
        <time>2020-02-08T14:21:33Z</time>
      </trkpt>
      <trkpt lat="42.71519" lon="1.63739">
        <ele>1801.2</ele>
        <time>2020-02-08T14:21:34Z</time>
      </trkpt>
      <trkpt lat="42.71518" lon="1.63738">
        <ele>1801.2</ele>
        <time>2020-02-08T14:21:35Z</time>
      </trkpt>
      <trkpt lat="42.71518" lon="1.63738">
        <ele>1801.2</ele>
        <time>2020-02-08T14:21:36Z</time>
      </trkpt>
      <trkpt lat="42.71518" lon="1.63737">
        <ele>1801.2</ele>
        <time>2020-02-08T14:21:37Z</time>
      </trkpt>
      <trkpt lat="42.71517" lon="1.63737">
        <ele>1801.3</ele>
        <time>2020-02-08T14:21:38Z</time>
      </trkpt>
      <trkpt lat="42.71517" lon="1.63736">
        <ele>1801.3</ele>
        <time>2020-02-08T14:21:39Z</time>
      </trkpt>
      <trkpt lat="42.71517" lon="1.63736">
        <ele>1801.3</ele>
        <time>2020-02-08T14:21:40Z</time>
      </trkpt>
      <trkpt lat="42.71516" lon="1.63735">
        <ele>1801.3</ele>
        <time>2020-02-08T14:21:41Z</time>
      </trkpt>
      <trkpt lat="42.71516" lon="1.63735">
        <ele>1801.3</ele>
        <time>2020-02-08T14:21:42Z</time>
      </trkpt>
      <trkpt lat="42.71516" lon="1.63735">
        <ele>1802</ele>
        <time>2020-02-08T14:21:43Z</time>
      </trkpt>
      <trkpt lat="42.71515" lon="1.63732">
        <ele>1802</ele>
        <time>2020-02-08T14:21:44Z</time>
      </trkpt>
      <trkpt lat="42.71514" lon="1.63731">
        <ele>1802</ele>
        <time>2020-02-08T14:21:45Z</time>
      </trkpt>
      <trkpt lat="42.71514" lon="1.63731">
        <ele>1802</ele>
        <time>2020-02-08T14:21:46Z</time>
      </trkpt>
      <trkpt lat="42.71514" lon="1.6373">
        <ele>1802.7</ele>
        <time>2020-02-08T14:21:47Z</time>
      </trkpt>
      <trkpt lat="42.71514" lon="1.6373">
        <ele>1802.7</ele>
        <time>2020-02-08T14:21:48Z</time>
      </trkpt>
      <trkpt lat="42.71514" lon="1.63729">
        <ele>1802.7</ele>
        <time>2020-02-08T14:21:49Z</time>
      </trkpt>
      <trkpt lat="42.71513" lon="1.63729">
        <ele>1802.7</ele>
        <time>2020-02-08T14:21:50Z</time>
      </trkpt>
      <trkpt lat="42.71513" lon="1.63728">
        <ele>1802.7</ele>
        <time>2020-02-08T14:21:51Z</time>
      </trkpt>
      <trkpt lat="42.71513" lon="1.63728">
        <ele>1802.7</ele>
        <time>2020-02-08T14:21:52Z</time>
      </trkpt>
      <trkpt lat="42.71513" lon="1.63727">
        <ele>1802.7</ele>
        <time>2020-02-08T14:21:53Z</time>
      </trkpt>
      <trkpt lat="42.71512" lon="1.63727">
        <ele>1802.7</ele>
        <time>2020-02-08T14:21:54Z</time>
      </trkpt>
      <trkpt lat="42.71512" lon="1.63726">
        <ele>1803.3</ele>
        <time>2020-02-08T14:21:55Z</time>
      </trkpt>
      <trkpt lat="42.71512" lon="1.63725">
        <ele>1803.3</ele>
        <time>2020-02-08T14:21:56Z</time>
      </trkpt>
      <trkpt lat="42.71511" lon="1.63725">
        <ele>1803.3</ele>
        <time>2020-02-08T14:21:57Z</time>
      </trkpt>
      <trkpt lat="42.71511" lon="1.63724">
        <ele>1803.4</ele>
        <time>2020-02-08T14:21:58Z</time>
      </trkpt>
      <trkpt lat="42.71511" lon="1.63723">
        <ele>1803.4</ele>
        <time>2020-02-08T14:21:59Z</time>
      </trkpt>
      <trkpt lat="42.7151" lon="1.63723">
        <ele>1803.4</ele>
        <time>2020-02-08T14:22:00Z</time>
      </trkpt>
      <trkpt lat="42.7151" lon="1.63722">
        <ele>1804</ele>
        <time>2020-02-08T14:22:01Z</time>
      </trkpt>
      <trkpt lat="42.7151" lon="1.63721">
        <ele>1804</ele>
        <time>2020-02-08T14:22:02Z</time>
      </trkpt>
      <trkpt lat="42.71509" lon="1.63721">
        <ele>1804</ele>
        <time>2020-02-08T14:22:03Z</time>
      </trkpt>
      <trkpt lat="42.71509" lon="1.6372">
        <ele>1804</ele>
        <time>2020-02-08T14:22:04Z</time>
      </trkpt>
      <trkpt lat="42.71509" lon="1.6372">
        <ele>1804</ele>
        <time>2020-02-08T14:22:05Z</time>
      </trkpt>
      <trkpt lat="42.71509" lon="1.63719">
        <ele>1804</ele>
        <time>2020-02-08T14:22:06Z</time>
      </trkpt>
      <trkpt lat="42.71509" lon="1.63719">
        <ele>1804</ele>
        <time>2020-02-08T14:22:07Z</time>
      </trkpt>
      <trkpt lat="42.71509" lon="1.63718">
        <ele>1804</ele>
        <time>2020-02-08T14:22:08Z</time>
      </trkpt>
      <trkpt lat="42.71508" lon="1.63718">
        <ele>1804.6</ele>
        <time>2020-02-08T14:22:09Z</time>
      </trkpt>
      <trkpt lat="42.71508" lon="1.63717">
        <ele>1804.6</ele>
        <time>2020-02-08T14:22:10Z</time>
      </trkpt>
      <trkpt lat="42.71508" lon="1.63716">
        <ele>1804.6</ele>
        <time>2020-02-08T14:22:11Z</time>
      </trkpt>
      <trkpt lat="42.71508" lon="1.63716">
        <ele>1804.7</ele>
        <time>2020-02-08T14:22:12Z</time>
      </trkpt>
      <trkpt lat="42.71508" lon="1.63715">
        <ele>1804.7</ele>
        <time>2020-02-08T14:22:13Z</time>
      </trkpt>
      <trkpt lat="42.71507" lon="1.63713">
        <ele>1805.4</ele>
        <time>2020-02-08T14:22:14Z</time>
      </trkpt>
      <trkpt lat="42.71507" lon="1.63713">
        <ele>1805.4</ele>
        <time>2020-02-08T14:22:15Z</time>
      </trkpt>
      <trkpt lat="42.71507" lon="1.63713">
        <ele>1805.4</ele>
        <time>2020-02-08T14:22:16Z</time>
      </trkpt>
      <trkpt lat="42.71507" lon="1.63713">
        <ele>1805.4</ele>
        <time>2020-02-08T14:22:17Z</time>
      </trkpt>
      <trkpt lat="42.71507" lon="1.63713">
        <ele>1805.4</ele>
        <time>2020-02-08T14:22:18Z</time>
      </trkpt>
      <trkpt lat="42.71507" lon="1.6371">
        <ele>1805.4</ele>
        <time>2020-02-08T14:22:19Z</time>
      </trkpt>
      <trkpt lat="42.71507" lon="1.6371">
        <ele>1805.4</ele>
        <time>2020-02-08T14:22:20Z</time>
      </trkpt>
      <trkpt lat="42.71507" lon="1.6371">
        <ele>1805.4</ele>
        <time>2020-02-08T14:22:21Z</time>
      </trkpt>
      <trkpt lat="42.71507" lon="1.6371">
        <ele>1805.4</ele>
        <time>2020-02-08T14:22:22Z</time>
      </trkpt>
      <trkpt lat="42.71507" lon="1.6371">
        <ele>1805.4</ele>
        <time>2020-02-08T14:22:23Z</time>
      </trkpt>
      <trkpt lat="42.71505" lon="1.63707">
        <ele>1806.1</ele>
        <time>2020-02-08T14:22:24Z</time>
      </trkpt>
      <trkpt lat="42.71505" lon="1.63707">
        <ele>1806.1</ele>
        <time>2020-02-08T14:22:25Z</time>
      </trkpt>
      <trkpt lat="42.71505" lon="1.63706">
        <ele>1806.1</ele>
        <time>2020-02-08T14:22:26Z</time>
      </trkpt>
      <trkpt lat="42.71505" lon="1.63706">
        <ele>1806.2</ele>
        <time>2020-02-08T14:22:27Z</time>
      </trkpt>
      <trkpt lat="42.71504" lon="1.63705">
        <ele>1806.2</ele>
        <time>2020-02-08T14:22:28Z</time>
      </trkpt>
      <trkpt lat="42.71504" lon="1.63705">
        <ele>1807</ele>
        <time>2020-02-08T14:22:29Z</time>
      </trkpt>
      <trkpt lat="42.71504" lon="1.63704">
        <ele>1807</ele>
        <time>2020-02-08T14:22:30Z</time>
      </trkpt>
      <trkpt lat="42.71504" lon="1.63704">
        <ele>1807</ele>
        <time>2020-02-08T14:22:31Z</time>
      </trkpt>
      <trkpt lat="42.71503" lon="1.63703">
        <ele>1807</ele>
        <time>2020-02-08T14:22:32Z</time>
      </trkpt>
      <trkpt lat="42.71503" lon="1.63703">
        <ele>1807</ele>
        <time>2020-02-08T14:22:33Z</time>
      </trkpt>
      <trkpt lat="42.71503" lon="1.63703">
        <ele>1807</ele>
        <time>2020-02-08T14:22:34Z</time>
      </trkpt>
      <trkpt lat="42.71503" lon="1.63702">
        <ele>1807</ele>
        <time>2020-02-08T14:22:35Z</time>
      </trkpt>
      <trkpt lat="42.71502" lon="1.63702">
        <ele>1807</ele>
        <time>2020-02-08T14:22:36Z</time>
      </trkpt>
      <trkpt lat="42.71502" lon="1.63701">
        <ele>1807</ele>
        <time>2020-02-08T14:22:37Z</time>
      </trkpt>
      <trkpt lat="42.71502" lon="1.63701">
        <ele>1807</ele>
        <time>2020-02-08T14:22:38Z</time>
      </trkpt>
      <trkpt lat="42.71502" lon="1.637">
        <ele>1807.9</ele>
        <time>2020-02-08T14:22:39Z</time>
      </trkpt>
      <trkpt lat="42.71501" lon="1.637">
        <ele>1807.9</ele>
        <time>2020-02-08T14:22:40Z</time>
      </trkpt>
      <trkpt lat="42.71501" lon="1.637">
        <ele>1807.9</ele>
        <time>2020-02-08T14:22:41Z</time>
      </trkpt>
      <trkpt lat="42.71501" lon="1.63699">
        <ele>1807.9</ele>
        <time>2020-02-08T14:22:42Z</time>
      </trkpt>
      <trkpt lat="42.715" lon="1.63699">
        <ele>1807.9</ele>
        <time>2020-02-08T14:22:43Z</time>
      </trkpt>
      <trkpt lat="42.715" lon="1.63698">
        <ele>1807.9</ele>
        <time>2020-02-08T14:22:44Z</time>
      </trkpt>
      <trkpt lat="42.715" lon="1.63697">
        <ele>1807.9</ele>
        <time>2020-02-08T14:22:45Z</time>
      </trkpt>
      <trkpt lat="42.715" lon="1.63696">
        <ele>1807.9</ele>
        <time>2020-02-08T14:22:46Z</time>
      </trkpt>
      <trkpt lat="42.71499" lon="1.63696">
        <ele>1809.2</ele>
        <time>2020-02-08T14:22:47Z</time>
      </trkpt>
      <trkpt lat="42.71499" lon="1.63695">
        <ele>1809.2</ele>
        <time>2020-02-08T14:22:48Z</time>
      </trkpt>
      <trkpt lat="42.71499" lon="1.63694">
        <ele>1809.2</ele>
        <time>2020-02-08T14:22:49Z</time>
      </trkpt>
      <trkpt lat="42.71499" lon="1.63693">
        <ele>1809.2</ele>
        <time>2020-02-08T14:22:50Z</time>
      </trkpt>
      <trkpt lat="42.71498" lon="1.63693">
        <ele>1809.4</ele>
        <time>2020-02-08T14:22:51Z</time>
      </trkpt>
      <trkpt lat="42.71498" lon="1.63692">
        <ele>1810.2</ele>
        <time>2020-02-08T14:22:52Z</time>
      </trkpt>
      <trkpt lat="42.71498" lon="1.63691">
        <ele>1810.2</ele>
        <time>2020-02-08T14:22:53Z</time>
      </trkpt>
      <trkpt lat="42.71498" lon="1.63691">
        <ele>1810.2</ele>
        <time>2020-02-08T14:22:54Z</time>
      </trkpt>
      <trkpt lat="42.71498" lon="1.63691">
        <ele>1810.2</ele>
        <time>2020-02-08T14:22:55Z</time>
      </trkpt>
      <trkpt lat="42.71498" lon="1.63691">
        <ele>1810.2</ele>
        <time>2020-02-08T14:22:56Z</time>
      </trkpt>
      <trkpt lat="42.71497" lon="1.63689">
        <ele>1810.2</ele>
        <time>2020-02-08T14:22:57Z</time>
      </trkpt>
      <trkpt lat="42.71497" lon="1.63689">
        <ele>1810.2</ele>
        <time>2020-02-08T14:22:58Z</time>
      </trkpt>
      <trkpt lat="42.71497" lon="1.63689">
        <ele>1810.2</ele>
        <time>2020-02-08T14:22:59Z</time>
      </trkpt>
      <trkpt lat="42.71497" lon="1.63689">
        <ele>1810.2</ele>
        <time>2020-02-08T14:23:00Z</time>
      </trkpt>
      <trkpt lat="42.71497" lon="1.63689">
        <ele>1810.2</ele>
        <time>2020-02-08T14:23:01Z</time>
      </trkpt>
      <trkpt lat="42.71497" lon="1.63689">
        <ele>1810.2</ele>
        <time>2020-02-08T14:23:02Z</time>
      </trkpt>
      <trkpt lat="42.71495" lon="1.63687">
        <ele>1811</ele>
        <time>2020-02-08T14:23:03Z</time>
      </trkpt>
      <trkpt lat="42.71495" lon="1.63686">
        <ele>1811.3</ele>
        <time>2020-02-08T14:23:04Z</time>
      </trkpt>
      <trkpt lat="42.71495" lon="1.63686">
        <ele>1811.3</ele>
        <time>2020-02-08T14:23:05Z</time>
      </trkpt>
      <trkpt lat="42.71495" lon="1.63686">
        <ele>1811.3</ele>
        <time>2020-02-08T14:23:06Z</time>
      </trkpt>
      <trkpt lat="42.71494" lon="1.63685">
        <ele>1811.3</ele>
        <time>2020-02-08T14:23:07Z</time>
      </trkpt>
      <trkpt lat="42.71494" lon="1.63685">
        <ele>1811.3</ele>
        <time>2020-02-08T14:23:08Z</time>
      </trkpt>
      <trkpt lat="42.71494" lon="1.63684">
        <ele>1811.3</ele>
        <time>2020-02-08T14:23:09Z</time>
      </trkpt>
      <trkpt lat="42.71493" lon="1.63684">
        <ele>1811.3</ele>
        <time>2020-02-08T14:23:10Z</time>
      </trkpt>
      <trkpt lat="42.71493" lon="1.63684">
        <ele>1811.3</ele>
        <time>2020-02-08T14:23:11Z</time>
      </trkpt>
      <trkpt lat="42.71493" lon="1.63683">
        <ele>1812.1</ele>
        <time>2020-02-08T14:23:12Z</time>
      </trkpt>
      <trkpt lat="42.71493" lon="1.63683">
        <ele>1812.1</ele>
        <time>2020-02-08T14:23:13Z</time>
      </trkpt>
      <trkpt lat="42.71493" lon="1.63683">
        <ele>1812.1</ele>
        <time>2020-02-08T14:23:14Z</time>
      </trkpt>
      <trkpt lat="42.71492" lon="1.63681">
        <ele>1812.4</ele>
        <time>2020-02-08T14:23:15Z</time>
      </trkpt>
      <trkpt lat="42.71492" lon="1.63681">
        <ele>1812.4</ele>
        <time>2020-02-08T14:23:16Z</time>
      </trkpt>
      <trkpt lat="42.71492" lon="1.63681">
        <ele>1812.4</ele>
        <time>2020-02-08T14:23:17Z</time>
      </trkpt>
      <trkpt lat="42.71492" lon="1.63681">
        <ele>1812.4</ele>
        <time>2020-02-08T14:23:18Z</time>
      </trkpt>
      <trkpt lat="42.7149" lon="1.63678">
        <ele>1813.2</ele>
        <time>2020-02-08T14:23:19Z</time>
      </trkpt>
      <trkpt lat="42.7149" lon="1.63678">
        <ele>1813.2</ele>
        <time>2020-02-08T14:23:20Z</time>
      </trkpt>
      <trkpt lat="42.7149" lon="1.63678">
        <ele>1813.2</ele>
        <time>2020-02-08T14:23:21Z</time>
      </trkpt>
      <trkpt lat="42.7149" lon="1.63678">
        <ele>1813.2</ele>
        <time>2020-02-08T14:23:22Z</time>
      </trkpt>
      <trkpt lat="42.71489" lon="1.63677">
        <ele>1813.4</ele>
        <time>2020-02-08T14:23:23Z</time>
      </trkpt>
      <trkpt lat="42.71488" lon="1.63677">
        <ele>1813.4</ele>
        <time>2020-02-08T14:23:24Z</time>
      </trkpt>
      <trkpt lat="42.71488" lon="1.63676">
        <ele>1813.4</ele>
        <time>2020-02-08T14:23:25Z</time>
      </trkpt>
      <trkpt lat="42.71487" lon="1.63676">
        <ele>1813.4</ele>
        <time>2020-02-08T14:23:26Z</time>
      </trkpt>
      <trkpt lat="42.71487" lon="1.63676">
        <ele>1813.4</ele>
        <time>2020-02-08T14:23:27Z</time>
      </trkpt>
      <trkpt lat="42.71487" lon="1.63676">
        <ele>1813.4</ele>
        <time>2020-02-08T14:23:28Z</time>
      </trkpt>
      <trkpt lat="42.71486" lon="1.63676">
        <ele>1813.4</ele>
        <time>2020-02-08T14:23:29Z</time>
      </trkpt>
      <trkpt lat="42.71486" lon="1.63676">
        <ele>1813.7</ele>
        <time>2020-02-08T14:23:30Z</time>
      </trkpt>
      <trkpt lat="42.71485" lon="1.63676">
        <ele>1813.7</ele>
        <time>2020-02-08T14:23:31Z</time>
      </trkpt>
      <trkpt lat="42.71485" lon="1.63676">
        <ele>1813.7</ele>
        <time>2020-02-08T14:23:32Z</time>
      </trkpt>
      <trkpt lat="42.71484" lon="1.63676">
        <ele>1813.7</ele>
        <time>2020-02-08T14:23:33Z</time>
      </trkpt>
      <trkpt lat="42.71484" lon="1.63675">
        <ele>1813.7</ele>
        <time>2020-02-08T14:23:34Z</time>
      </trkpt>
      <trkpt lat="42.71484" lon="1.63675">
        <ele>1814.5</ele>
        <time>2020-02-08T14:23:35Z</time>
      </trkpt>
      <trkpt lat="42.71484" lon="1.63674">
        <ele>1814.5</ele>
        <time>2020-02-08T14:23:36Z</time>
      </trkpt>
      <trkpt lat="42.71483" lon="1.63674">
        <ele>1814.5</ele>
        <time>2020-02-08T14:23:37Z</time>
      </trkpt>
      <trkpt lat="42.71483" lon="1.63674">
        <ele>1814.5</ele>
        <time>2020-02-08T14:23:38Z</time>
      </trkpt>
      <trkpt lat="42.71483" lon="1.63673">
        <ele>1814.5</ele>
        <time>2020-02-08T14:23:39Z</time>
      </trkpt>
      <trkpt lat="42.71483" lon="1.63673">
        <ele>1814.5</ele>
        <time>2020-02-08T14:23:40Z</time>
      </trkpt>
      <trkpt lat="42.71483" lon="1.63672">
        <ele>1814.8</ele>
        <time>2020-02-08T14:23:41Z</time>
      </trkpt>
      <trkpt lat="42.71482" lon="1.63672">
        <ele>1814.8</ele>
        <time>2020-02-08T14:23:42Z</time>
      </trkpt>
      <trkpt lat="42.71482" lon="1.63672">
        <ele>1814.8</ele>
        <time>2020-02-08T14:23:43Z</time>
      </trkpt>
      <trkpt lat="42.71481" lon="1.63668">
        <ele>1815.7</ele>
        <time>2020-02-08T14:23:44Z</time>
      </trkpt>
      <trkpt lat="42.71481" lon="1.63668">
        <ele>1815.7</ele>
        <time>2020-02-08T14:23:45Z</time>
      </trkpt>
      <trkpt lat="42.71481" lon="1.63667">
        <ele>1815.7</ele>
        <time>2020-02-08T14:23:46Z</time>
      </trkpt>
      <trkpt lat="42.71481" lon="1.63667">
        <ele>1815.7</ele>
        <time>2020-02-08T14:23:47Z</time>
      </trkpt>
      <trkpt lat="42.71481" lon="1.63666">
        <ele>1816.6</ele>
        <time>2020-02-08T14:23:48Z</time>
      </trkpt>
      <trkpt lat="42.7148" lon="1.63666">
        <ele>1816.6</ele>
        <time>2020-02-08T14:23:49Z</time>
      </trkpt>
      <trkpt lat="42.7148" lon="1.63665">
        <ele>1816.6</ele>
        <time>2020-02-08T14:23:50Z</time>
      </trkpt>
      <trkpt lat="42.7148" lon="1.63665">
        <ele>1816.6</ele>
        <time>2020-02-08T14:23:51Z</time>
      </trkpt>
      <trkpt lat="42.7148" lon="1.63664">
        <ele>1816.6</ele>
        <time>2020-02-08T14:23:52Z</time>
      </trkpt>
      <trkpt lat="42.7148" lon="1.63664">
        <ele>1816.6</ele>
        <time>2020-02-08T14:23:53Z</time>
      </trkpt>
      <trkpt lat="42.7148" lon="1.63664">
        <ele>1816.6</ele>
        <time>2020-02-08T14:23:54Z</time>
      </trkpt>
      <trkpt lat="42.7148" lon="1.63664">
        <ele>1816.6</ele>
        <time>2020-02-08T14:23:55Z</time>
      </trkpt>
      <trkpt lat="42.71478" lon="1.63662">
        <ele>1817.9</ele>
        <time>2020-02-08T14:23:56Z</time>
      </trkpt>
      <trkpt lat="42.71478" lon="1.63662">
        <ele>1817.9</ele>
        <time>2020-02-08T14:23:57Z</time>
      </trkpt>
      <trkpt lat="42.71478" lon="1.63662">
        <ele>1817.9</ele>
        <time>2020-02-08T14:23:58Z</time>
      </trkpt>
      <trkpt lat="42.71478" lon="1.63662">
        <ele>1817.9</ele>
        <time>2020-02-08T14:23:59Z</time>
      </trkpt>
      <trkpt lat="42.71476" lon="1.63661">
        <ele>1818.2</ele>
        <time>2020-02-08T14:24:00Z</time>
      </trkpt>
      <trkpt lat="42.71476" lon="1.63661">
        <ele>1818.2</ele>
        <time>2020-02-08T14:24:01Z</time>
      </trkpt>
      <trkpt lat="42.71476" lon="1.63661">
        <ele>1818.2</ele>
        <time>2020-02-08T14:24:02Z</time>
      </trkpt>
      <trkpt lat="42.71474" lon="1.63661">
        <ele>1818.2</ele>
        <time>2020-02-08T14:24:03Z</time>
      </trkpt>
      <trkpt lat="42.71473" lon="1.63661">
        <ele>1818.2</ele>
        <time>2020-02-08T14:24:04Z</time>
      </trkpt>
      <trkpt lat="42.71473" lon="1.63661">
        <ele>1818.8</ele>
        <time>2020-02-08T14:24:05Z</time>
      </trkpt>
      <trkpt lat="42.71472" lon="1.63661">
        <ele>1818.8</ele>
        <time>2020-02-08T14:24:06Z</time>
      </trkpt>
      <trkpt lat="42.71471" lon="1.63661">
        <ele>1818.8</ele>
        <time>2020-02-08T14:24:07Z</time>
      </trkpt>
      <trkpt lat="42.71471" lon="1.63661">
        <ele>1818.8</ele>
        <time>2020-02-08T14:24:08Z</time>
      </trkpt>
      <trkpt lat="42.7147" lon="1.63661">
        <ele>1819.1</ele>
        <time>2020-02-08T14:24:09Z</time>
      </trkpt>
      <trkpt lat="42.71469" lon="1.63661">
        <ele>1819.1</ele>
        <time>2020-02-08T14:24:10Z</time>
      </trkpt>
      <trkpt lat="42.71469" lon="1.63661">
        <ele>1819.1</ele>
        <time>2020-02-08T14:24:11Z</time>
      </trkpt>
      <trkpt lat="42.71468" lon="1.63661">
        <ele>1819.1</ele>
        <time>2020-02-08T14:24:12Z</time>
      </trkpt>
      <trkpt lat="42.71467" lon="1.63661">
        <ele>1819.1</ele>
        <time>2020-02-08T14:24:13Z</time>
      </trkpt>
      <trkpt lat="42.71467" lon="1.63661">
        <ele>1819.1</ele>
        <time>2020-02-08T14:24:14Z</time>
      </trkpt>
      <trkpt lat="42.71467" lon="1.63661">
        <ele>1819.1</ele>
        <time>2020-02-08T14:24:15Z</time>
      </trkpt>
      <trkpt lat="42.71466" lon="1.6366">
        <ele>1819.4</ele>
        <time>2020-02-08T14:24:16Z</time>
      </trkpt>
      <trkpt lat="42.71466" lon="1.6366">
        <ele>1819.4</ele>
        <time>2020-02-08T14:24:17Z</time>
      </trkpt>
      <trkpt lat="42.71466" lon="1.6366">
        <ele>1819.4</ele>
        <time>2020-02-08T14:24:18Z</time>
      </trkpt>
      <trkpt lat="42.71464" lon="1.63659">
        <ele>1819.4</ele>
        <time>2020-02-08T14:24:19Z</time>
      </trkpt>
      <trkpt lat="42.71464" lon="1.63659">
        <ele>1819.4</ele>
        <time>2020-02-08T14:24:20Z</time>
      </trkpt>
      <trkpt lat="42.71464" lon="1.63659">
        <ele>1819.4</ele>
        <time>2020-02-08T14:24:21Z</time>
      </trkpt>
      <trkpt lat="42.71464" lon="1.63659">
        <ele>1819.4</ele>
        <time>2020-02-08T14:24:22Z</time>
      </trkpt>
      <trkpt lat="42.71462" lon="1.63658">
        <ele>1820.8</ele>
        <time>2020-02-08T14:24:23Z</time>
      </trkpt>
      <trkpt lat="42.71462" lon="1.63657">
        <ele>1820.8</ele>
        <time>2020-02-08T14:24:24Z</time>
      </trkpt>
      <trkpt lat="42.71461" lon="1.63657">
        <ele>1820.8</ele>
        <time>2020-02-08T14:24:25Z</time>
      </trkpt>
      <trkpt lat="42.71461" lon="1.63657">
        <ele>1820.8</ele>
        <time>2020-02-08T14:24:26Z</time>
      </trkpt>
      <trkpt lat="42.71461" lon="1.63657">
        <ele>1821.1</ele>
        <time>2020-02-08T14:24:27Z</time>
      </trkpt>
      <trkpt lat="42.7146" lon="1.63656">
        <ele>1821.1</ele>
        <time>2020-02-08T14:24:28Z</time>
      </trkpt>
      <trkpt lat="42.7146" lon="1.63656">
        <ele>1821.1</ele>
        <time>2020-02-08T14:24:29Z</time>
      </trkpt>
      <trkpt lat="42.7146" lon="1.63656">
        <ele>1821.1</ele>
        <time>2020-02-08T14:24:30Z</time>
      </trkpt>
      <trkpt lat="42.71459" lon="1.63656">
        <ele>1821.1</ele>
        <time>2020-02-08T14:24:31Z</time>
      </trkpt>
      <trkpt lat="42.71459" lon="1.63655">
        <ele>1821.1</ele>
        <time>2020-02-08T14:24:32Z</time>
      </trkpt>
      <trkpt lat="42.71459" lon="1.63655">
        <ele>1821.1</ele>
        <time>2020-02-08T14:24:33Z</time>
      </trkpt>
      <trkpt lat="42.71456" lon="1.63654">
        <ele>1821.4</ele>
        <time>2020-02-08T14:24:34Z</time>
      </trkpt>
      <trkpt lat="42.71456" lon="1.63654">
        <ele>1821.4</ele>
        <time>2020-02-08T14:24:35Z</time>
      </trkpt>
      <trkpt lat="42.71455" lon="1.63654">
        <ele>1821.4</ele>
        <time>2020-02-08T14:24:36Z</time>
      </trkpt>
      <trkpt lat="42.71455" lon="1.63654">
        <ele>1821.4</ele>
        <time>2020-02-08T14:24:37Z</time>
      </trkpt>
      <trkpt lat="42.71455" lon="1.63653">
        <ele>1822.4</ele>
        <time>2020-02-08T14:24:38Z</time>
      </trkpt>
      <trkpt lat="42.71454" lon="1.63653">
        <ele>1822.8</ele>
        <time>2020-02-08T14:24:39Z</time>
      </trkpt>
      <trkpt lat="42.71454" lon="1.63653">
        <ele>1822.8</ele>
        <time>2020-02-08T14:24:40Z</time>
      </trkpt>
      <trkpt lat="42.71453" lon="1.63653">
        <ele>1822.8</ele>
        <time>2020-02-08T14:24:41Z</time>
      </trkpt>
      <trkpt lat="42.71453" lon="1.63652">
        <ele>1822.8</ele>
        <time>2020-02-08T14:24:42Z</time>
      </trkpt>
      <trkpt lat="42.71453" lon="1.63652">
        <ele>1822.8</ele>
        <time>2020-02-08T14:24:43Z</time>
      </trkpt>
      <trkpt lat="42.71452" lon="1.63652">
        <ele>1822.8</ele>
        <time>2020-02-08T14:24:44Z</time>
      </trkpt>
      <trkpt lat="42.71451" lon="1.63652">
        <ele>1822.8</ele>
        <time>2020-02-08T14:24:45Z</time>
      </trkpt>
      <trkpt lat="42.71451" lon="1.63651">
        <ele>1823.2</ele>
        <time>2020-02-08T14:24:46Z</time>
      </trkpt>
      <trkpt lat="42.7145" lon="1.63651">
        <ele>1823.2</ele>
        <time>2020-02-08T14:24:47Z</time>
      </trkpt>
      <trkpt lat="42.71449" lon="1.63651">
        <ele>1823.2</ele>
        <time>2020-02-08T14:24:48Z</time>
      </trkpt>
      <trkpt lat="42.71449" lon="1.6365">
        <ele>1823.2</ele>
        <time>2020-02-08T14:24:49Z</time>
      </trkpt>
      <trkpt lat="42.71448" lon="1.6365">
        <ele>1823.6</ele>
        <time>2020-02-08T14:24:50Z</time>
      </trkpt>
      <trkpt lat="42.71447" lon="1.6365">
        <ele>1823.6</ele>
        <time>2020-02-08T14:24:51Z</time>
      </trkpt>
      <trkpt lat="42.71447" lon="1.63649">
        <ele>1823.6</ele>
        <time>2020-02-08T14:24:52Z</time>
      </trkpt>
      <trkpt lat="42.71446" lon="1.63649">
        <ele>1824.8</ele>
        <time>2020-02-08T14:24:53Z</time>
      </trkpt>
      <trkpt lat="42.71444" lon="1.63647">
        <ele>1825.2</ele>
        <time>2020-02-08T14:24:54Z</time>
      </trkpt>
      <trkpt lat="42.71444" lon="1.63647">
        <ele>1825.2</ele>
        <time>2020-02-08T14:24:55Z</time>
      </trkpt>
      <trkpt lat="42.71443" lon="1.63646">
        <ele>1825.2</ele>
        <time>2020-02-08T14:24:56Z</time>
      </trkpt>
      <trkpt lat="42.71443" lon="1.63646">
        <ele>1825.2</ele>
        <time>2020-02-08T14:24:57Z</time>
      </trkpt>
      <trkpt lat="42.71443" lon="1.63646">
        <ele>1825.2</ele>
        <time>2020-02-08T14:24:58Z</time>
      </trkpt>
      <trkpt lat="42.71442" lon="1.63645">
        <ele>1825.2</ele>
        <time>2020-02-08T14:24:59Z</time>
      </trkpt>
      <trkpt lat="42.71442" lon="1.63645">
        <ele>1826.3</ele>
        <time>2020-02-08T14:25:00Z</time>
      </trkpt>
      <trkpt lat="42.71442" lon="1.63644">
        <ele>1826.3</ele>
        <time>2020-02-08T14:25:01Z</time>
      </trkpt>
      <trkpt lat="42.71442" lon="1.63644">
        <ele>1826.7</ele>
        <time>2020-02-08T14:25:02Z</time>
      </trkpt>
      <trkpt lat="42.71441" lon="1.63643">
        <ele>1826.7</ele>
        <time>2020-02-08T14:25:03Z</time>
      </trkpt>
      <trkpt lat="42.71441" lon="1.63643">
        <ele>1826.7</ele>
        <time>2020-02-08T14:25:04Z</time>
      </trkpt>
      <trkpt lat="42.7144" lon="1.63642">
        <ele>1826.7</ele>
        <time>2020-02-08T14:25:05Z</time>
      </trkpt>
      <trkpt lat="42.7144" lon="1.63641">
        <ele>1826.7</ele>
        <time>2020-02-08T14:25:06Z</time>
      </trkpt>
      <trkpt lat="42.7144" lon="1.63641">
        <ele>1826.7</ele>
        <time>2020-02-08T14:25:07Z</time>
      </trkpt>
      <trkpt lat="42.71439" lon="1.6364">
        <ele>1827.8</ele>
        <time>2020-02-08T14:25:08Z</time>
      </trkpt>
      <trkpt lat="42.71439" lon="1.6364">
        <ele>1827.8</ele>
        <time>2020-02-08T14:25:09Z</time>
      </trkpt>
      <trkpt lat="42.71438" lon="1.63639">
        <ele>1828.2</ele>
        <time>2020-02-08T14:25:10Z</time>
      </trkpt>
      <trkpt lat="42.71438" lon="1.63638">
        <ele>1828.2</ele>
        <time>2020-02-08T14:25:11Z</time>
      </trkpt>
      <trkpt lat="42.71437" lon="1.63638">
        <ele>1828.2</ele>
        <time>2020-02-08T14:25:12Z</time>
      </trkpt>
      <trkpt lat="42.71437" lon="1.63637">
        <ele>1828.2</ele>
        <time>2020-02-08T14:25:13Z</time>
      </trkpt>
      <trkpt lat="42.71437" lon="1.63636">
        <ele>1828.2</ele>
        <time>2020-02-08T14:25:14Z</time>
      </trkpt>
      <trkpt lat="42.71436" lon="1.63636">
        <ele>1829.2</ele>
        <time>2020-02-08T14:25:15Z</time>
      </trkpt>
      <trkpt lat="42.71436" lon="1.63635">
        <ele>1829.2</ele>
        <time>2020-02-08T14:25:16Z</time>
      </trkpt>
      <trkpt lat="42.71436" lon="1.63635">
        <ele>1829.2</ele>
        <time>2020-02-08T14:25:17Z</time>
      </trkpt>
      <trkpt lat="42.71435" lon="1.63634">
        <ele>1829.6</ele>
        <time>2020-02-08T14:25:18Z</time>
      </trkpt>
      <trkpt lat="42.71435" lon="1.63633">
        <ele>1829.6</ele>
        <time>2020-02-08T14:25:19Z</time>
      </trkpt>
      <trkpt lat="42.71435" lon="1.63633">
        <ele>1829.6</ele>
        <time>2020-02-08T14:25:20Z</time>
      </trkpt>
      <trkpt lat="42.71434" lon="1.63632">
        <ele>1829.6</ele>
        <time>2020-02-08T14:25:21Z</time>
      </trkpt>
      <trkpt lat="42.71434" lon="1.63631">
        <ele>1830.6</ele>
        <time>2020-02-08T14:25:22Z</time>
      </trkpt>
      <trkpt lat="42.71433" lon="1.63631">
        <ele>1830.6</ele>
        <time>2020-02-08T14:25:23Z</time>
      </trkpt>
      <trkpt lat="42.71433" lon="1.6363">
        <ele>1830.6</ele>
        <time>2020-02-08T14:25:24Z</time>
      </trkpt>
      <trkpt lat="42.71432" lon="1.6363">
        <ele>1830.6</ele>
        <time>2020-02-08T14:25:25Z</time>
      </trkpt>
      <trkpt lat="42.71432" lon="1.6363">
        <ele>1830.9</ele>
        <time>2020-02-08T14:25:26Z</time>
      </trkpt>
      <trkpt lat="42.71431" lon="1.63629">
        <ele>1830.9</ele>
        <time>2020-02-08T14:25:27Z</time>
      </trkpt>
      <trkpt lat="42.71431" lon="1.63629">
        <ele>1830.9</ele>
        <time>2020-02-08T14:25:28Z</time>
      </trkpt>
      <trkpt lat="42.7143" lon="1.63628">
        <ele>1830.9</ele>
        <time>2020-02-08T14:25:29Z</time>
      </trkpt>
      <trkpt lat="42.7143" lon="1.63628">
        <ele>1830.9</ele>
        <time>2020-02-08T14:25:30Z</time>
      </trkpt>
      <trkpt lat="42.71429" lon="1.63627">
        <ele>1831.8</ele>
        <time>2020-02-08T14:25:31Z</time>
      </trkpt>
      <trkpt lat="42.71429" lon="1.63627">
        <ele>1832.2</ele>
        <time>2020-02-08T14:25:32Z</time>
      </trkpt>
      <trkpt lat="42.71428" lon="1.63627">
        <ele>1832.2</ele>
        <time>2020-02-08T14:25:33Z</time>
      </trkpt>
      <trkpt lat="42.71428" lon="1.63626">
        <ele>1832.2</ele>
        <time>2020-02-08T14:25:34Z</time>
      </trkpt>
      <trkpt lat="42.71427" lon="1.63626">
        <ele>1832.2</ele>
        <time>2020-02-08T14:25:35Z</time>
      </trkpt>
      <trkpt lat="42.71427" lon="1.63625">
        <ele>1832.2</ele>
        <time>2020-02-08T14:25:36Z</time>
      </trkpt>
      <trkpt lat="42.71426" lon="1.63625">
        <ele>1832.2</ele>
        <time>2020-02-08T14:25:37Z</time>
      </trkpt>
      <trkpt lat="42.71425" lon="1.63624">
        <ele>1832.5</ele>
        <time>2020-02-08T14:25:38Z</time>
      </trkpt>
      <trkpt lat="42.71425" lon="1.63624">
        <ele>1832.5</ele>
        <time>2020-02-08T14:25:39Z</time>
      </trkpt>
      <trkpt lat="42.71424" lon="1.63624">
        <ele>1832.5</ele>
        <time>2020-02-08T14:25:40Z</time>
      </trkpt>
      <trkpt lat="42.71424" lon="1.63623">
        <ele>1833.4</ele>
        <time>2020-02-08T14:25:41Z</time>
      </trkpt>
      <trkpt lat="42.71423" lon="1.63623">
        <ele>1833.4</ele>
        <time>2020-02-08T14:25:42Z</time>
      </trkpt>
      <trkpt lat="42.71422" lon="1.63622">
        <ele>1833.8</ele>
        <time>2020-02-08T14:25:43Z</time>
      </trkpt>
      <trkpt lat="42.71422" lon="1.63622">
        <ele>1833.8</ele>
        <time>2020-02-08T14:25:44Z</time>
      </trkpt>
      <trkpt lat="42.71421" lon="1.63622">
        <ele>1833.8</ele>
        <time>2020-02-08T14:25:45Z</time>
      </trkpt>
      <trkpt lat="42.71421" lon="1.63621">
        <ele>1833.8</ele>
        <time>2020-02-08T14:25:46Z</time>
      </trkpt>
      <trkpt lat="42.7142" lon="1.63621">
        <ele>1833.8</ele>
        <time>2020-02-08T14:25:47Z</time>
      </trkpt>
      <trkpt lat="42.71419" lon="1.63621">
        <ele>1834.1</ele>
        <time>2020-02-08T14:25:48Z</time>
      </trkpt>
      <trkpt lat="42.71419" lon="1.6362">
        <ele>1834.1</ele>
        <time>2020-02-08T14:25:49Z</time>
      </trkpt>
      <trkpt lat="42.71418" lon="1.6362">
        <ele>1834.1</ele>
        <time>2020-02-08T14:25:50Z</time>
      </trkpt>
      <trkpt lat="42.71418" lon="1.6362">
        <ele>1834.1</ele>
        <time>2020-02-08T14:25:51Z</time>
      </trkpt>
      <trkpt lat="42.71417" lon="1.63619">
        <ele>1834.1</ele>
        <time>2020-02-08T14:25:52Z</time>
      </trkpt>
      <trkpt lat="42.71417" lon="1.63619">
        <ele>1835</ele>
        <time>2020-02-08T14:25:53Z</time>
      </trkpt>
      <trkpt lat="42.71416" lon="1.63619">
        <ele>1835.3</ele>
        <time>2020-02-08T14:25:54Z</time>
      </trkpt>
      <trkpt lat="42.71415" lon="1.63618">
        <ele>1835.3</ele>
        <time>2020-02-08T14:25:55Z</time>
      </trkpt>
      <trkpt lat="42.71415" lon="1.63618">
        <ele>1835.3</ele>
        <time>2020-02-08T14:25:56Z</time>
      </trkpt>
      <trkpt lat="42.71414" lon="1.63618">
        <ele>1835.3</ele>
        <time>2020-02-08T14:25:57Z</time>
      </trkpt>
      <trkpt lat="42.71414" lon="1.63617">
        <ele>1835.3</ele>
        <time>2020-02-08T14:25:58Z</time>
      </trkpt>
      <trkpt lat="42.71413" lon="1.63617">
        <ele>1835.6</ele>
        <time>2020-02-08T14:25:59Z</time>
      </trkpt>
      <trkpt lat="42.71413" lon="1.63617">
        <ele>1835.6</ele>
        <time>2020-02-08T14:26:00Z</time>
      </trkpt>
      <trkpt lat="42.71412" lon="1.63616">
        <ele>1835.6</ele>
        <time>2020-02-08T14:26:01Z</time>
      </trkpt>
      <trkpt lat="42.71412" lon="1.63616">
        <ele>1835.6</ele>
        <time>2020-02-08T14:26:02Z</time>
      </trkpt>
      <trkpt lat="42.71411" lon="1.63616">
        <ele>1835.6</ele>
        <time>2020-02-08T14:26:03Z</time>
      </trkpt>
      <trkpt lat="42.71409" lon="1.63615">
        <ele>1835.9</ele>
        <time>2020-02-08T14:26:04Z</time>
      </trkpt>
      <trkpt lat="42.71409" lon="1.63615">
        <ele>1835.9</ele>
        <time>2020-02-08T14:26:05Z</time>
      </trkpt>
      <trkpt lat="42.71408" lon="1.63615">
        <ele>1835.9</ele>
        <time>2020-02-08T14:26:06Z</time>
      </trkpt>
      <trkpt lat="42.71408" lon="1.63615">
        <ele>1836.9</ele>
        <time>2020-02-08T14:26:07Z</time>
      </trkpt>
      <trkpt lat="42.71408" lon="1.63615">
        <ele>1836.9</ele>
        <time>2020-02-08T14:26:08Z</time>
      </trkpt>
      <trkpt lat="42.71407" lon="1.63614">
        <ele>1836.9</ele>
        <time>2020-02-08T14:26:09Z</time>
      </trkpt>
      <trkpt lat="42.71407" lon="1.63614">
        <ele>1837.2</ele>
        <time>2020-02-08T14:26:10Z</time>
      </trkpt>
      <trkpt lat="42.71406" lon="1.63614">
        <ele>1837.2</ele>
        <time>2020-02-08T14:26:11Z</time>
      </trkpt>
      <trkpt lat="42.71406" lon="1.63614">
        <ele>1837.2</ele>
        <time>2020-02-08T14:26:12Z</time>
      </trkpt>
      <trkpt lat="42.71406" lon="1.63614">
        <ele>1837.2</ele>
        <time>2020-02-08T14:26:13Z</time>
      </trkpt>
      <trkpt lat="42.71403" lon="1.63612">
        <ele>1837.5</ele>
        <time>2020-02-08T14:26:14Z</time>
      </trkpt>
      <trkpt lat="42.71403" lon="1.63612">
        <ele>1837.5</ele>
        <time>2020-02-08T14:26:15Z</time>
      </trkpt>
      <trkpt lat="42.71403" lon="1.63612">
        <ele>1837.5</ele>
        <time>2020-02-08T14:26:16Z</time>
      </trkpt>
      <trkpt lat="42.71402" lon="1.63611">
        <ele>1837.5</ele>
        <time>2020-02-08T14:26:17Z</time>
      </trkpt>
      <trkpt lat="42.71402" lon="1.63611">
        <ele>1837.5</ele>
        <time>2020-02-08T14:26:18Z</time>
      </trkpt>
      <trkpt lat="42.71402" lon="1.63611">
        <ele>1837.5</ele>
        <time>2020-02-08T14:26:19Z</time>
      </trkpt>
      <trkpt lat="42.71401" lon="1.6361">
        <ele>1838.5</ele>
        <time>2020-02-08T14:26:20Z</time>
      </trkpt>
      <trkpt lat="42.71401" lon="1.6361">
        <ele>1838.5</ele>
        <time>2020-02-08T14:26:21Z</time>
      </trkpt>
      <trkpt lat="42.71401" lon="1.6361">
        <ele>1838.8</ele>
        <time>2020-02-08T14:26:22Z</time>
      </trkpt>
      <trkpt lat="42.714" lon="1.6361">
        <ele>1838.8</ele>
        <time>2020-02-08T14:26:23Z</time>
      </trkpt>
      <trkpt lat="42.71398" lon="1.63609">
        <ele>1838.8</ele>
        <time>2020-02-08T14:26:24Z</time>
      </trkpt>
      <trkpt lat="42.71397" lon="1.63609">
        <ele>1839.1</ele>
        <time>2020-02-08T14:26:25Z</time>
      </trkpt>
      <trkpt lat="42.71397" lon="1.63608">
        <ele>1839.1</ele>
        <time>2020-02-08T14:26:26Z</time>
      </trkpt>
      <trkpt lat="42.71396" lon="1.63608">
        <ele>1839.1</ele>
        <time>2020-02-08T14:26:27Z</time>
      </trkpt>
      <trkpt lat="42.71396" lon="1.63608">
        <ele>1839.1</ele>
        <time>2020-02-08T14:26:28Z</time>
      </trkpt>
      <trkpt lat="42.71395" lon="1.63607">
        <ele>1839.1</ele>
        <time>2020-02-08T14:26:29Z</time>
      </trkpt>
      <trkpt lat="42.71395" lon="1.63607">
        <ele>1839.1</ele>
        <time>2020-02-08T14:26:30Z</time>
      </trkpt>
      <trkpt lat="42.71394" lon="1.63607">
        <ele>1839.3</ele>
        <time>2020-02-08T14:26:31Z</time>
      </trkpt>
      <trkpt lat="42.71393" lon="1.63606">
        <ele>1840.3</ele>
        <time>2020-02-08T14:26:32Z</time>
      </trkpt>
      <trkpt lat="42.71393" lon="1.63606">
        <ele>1840.3</ele>
        <time>2020-02-08T14:26:33Z</time>
      </trkpt>
      <trkpt lat="42.71392" lon="1.63606">
        <ele>1840.3</ele>
        <time>2020-02-08T14:26:34Z</time>
      </trkpt>
      <trkpt lat="42.71392" lon="1.63605">
        <ele>1840.3</ele>
        <time>2020-02-08T14:26:35Z</time>
      </trkpt>
      <trkpt lat="42.71391" lon="1.63605">
        <ele>1840.6</ele>
        <time>2020-02-08T14:26:36Z</time>
      </trkpt>
      <trkpt lat="42.7139" lon="1.63605">
        <ele>1840.6</ele>
        <time>2020-02-08T14:26:37Z</time>
      </trkpt>
      <trkpt lat="42.7139" lon="1.63604">
        <ele>1840.6</ele>
        <time>2020-02-08T14:26:38Z</time>
      </trkpt>
      <trkpt lat="42.71389" lon="1.63604">
        <ele>1840.6</ele>
        <time>2020-02-08T14:26:39Z</time>
      </trkpt>
      <trkpt lat="42.71389" lon="1.63604">
        <ele>1840.6</ele>
        <time>2020-02-08T14:26:40Z</time>
      </trkpt>
      <trkpt lat="42.71388" lon="1.63604">
        <ele>1840.6</ele>
        <time>2020-02-08T14:26:41Z</time>
      </trkpt>
      <trkpt lat="42.71388" lon="1.63603">
        <ele>1840.9</ele>
        <time>2020-02-08T14:26:42Z</time>
      </trkpt>
      <trkpt lat="42.71387" lon="1.63603">
        <ele>1840.9</ele>
        <time>2020-02-08T14:26:43Z</time>
      </trkpt>
      <trkpt lat="42.71386" lon="1.63603">
        <ele>1840.9</ele>
        <time>2020-02-08T14:26:44Z</time>
      </trkpt>
      <trkpt lat="42.71386" lon="1.63602">
        <ele>1840.9</ele>
        <time>2020-02-08T14:26:45Z</time>
      </trkpt>
      <trkpt lat="42.71385" lon="1.63602">
        <ele>1841.8</ele>
        <time>2020-02-08T14:26:46Z</time>
      </trkpt>
      <trkpt lat="42.71385" lon="1.63601">
        <ele>1842.1</ele>
        <time>2020-02-08T14:26:47Z</time>
      </trkpt>
      <trkpt lat="42.71384" lon="1.63601">
        <ele>1842.1</ele>
        <time>2020-02-08T14:26:48Z</time>
      </trkpt>
      <trkpt lat="42.71384" lon="1.636">
        <ele>1842.1</ele>
        <time>2020-02-08T14:26:49Z</time>
      </trkpt>
      <trkpt lat="42.71383" lon="1.636">
        <ele>1842.1</ele>
        <time>2020-02-08T14:26:50Z</time>
      </trkpt>
      <trkpt lat="42.71382" lon="1.636">
        <ele>1842.1</ele>
        <time>2020-02-08T14:26:51Z</time>
      </trkpt>
      <trkpt lat="42.71382" lon="1.63599">
        <ele>1842.1</ele>
        <time>2020-02-08T14:26:52Z</time>
      </trkpt>
      <trkpt lat="42.71381" lon="1.63599">
        <ele>1842.4</ele>
        <time>2020-02-08T14:26:53Z</time>
      </trkpt>
      <trkpt lat="42.71378" lon="1.63597">
        <ele>1843.5</ele>
        <time>2020-02-08T14:26:54Z</time>
      </trkpt>
      <trkpt lat="42.71378" lon="1.63596">
        <ele>1843.5</ele>
        <time>2020-02-08T14:26:55Z</time>
      </trkpt>
      <trkpt lat="42.71377" lon="1.63596">
        <ele>1843.5</ele>
        <time>2020-02-08T14:26:56Z</time>
      </trkpt>
      <trkpt lat="42.71377" lon="1.63595">
        <ele>1843.5</ele>
        <time>2020-02-08T14:26:57Z</time>
      </trkpt>
      <trkpt lat="42.71376" lon="1.63595">
        <ele>1843.5</ele>
        <time>2020-02-08T14:26:58Z</time>
      </trkpt>
      <trkpt lat="42.71376" lon="1.63594">
        <ele>1843.5</ele>
        <time>2020-02-08T14:26:59Z</time>
      </trkpt>
      <trkpt lat="42.71375" lon="1.63594">
        <ele>1843.7</ele>
        <time>2020-02-08T14:27:00Z</time>
      </trkpt>
      <trkpt lat="42.71375" lon="1.63593">
        <ele>1844.4</ele>
        <time>2020-02-08T14:27:01Z</time>
      </trkpt>
      <trkpt lat="42.71374" lon="1.63593">
        <ele>1844.4</ele>
        <time>2020-02-08T14:27:02Z</time>
      </trkpt>
      <trkpt lat="42.71373" lon="1.63592">
        <ele>1844.4</ele>
        <time>2020-02-08T14:27:03Z</time>
      </trkpt>
      <trkpt lat="42.71373" lon="1.63592">
        <ele>1844.4</ele>
        <time>2020-02-08T14:27:04Z</time>
      </trkpt>
      <trkpt lat="42.71372" lon="1.63591">
        <ele>1844.7</ele>
        <time>2020-02-08T14:27:05Z</time>
      </trkpt>
      <trkpt lat="42.71372" lon="1.63591">
        <ele>1844.7</ele>
        <time>2020-02-08T14:27:06Z</time>
      </trkpt>
      <trkpt lat="42.71371" lon="1.6359">
        <ele>1844.7</ele>
        <time>2020-02-08T14:27:07Z</time>
      </trkpt>
      <trkpt lat="42.71371" lon="1.6359">
        <ele>1844.7</ele>
        <time>2020-02-08T14:27:08Z</time>
      </trkpt>
      <trkpt lat="42.7137" lon="1.6359">
        <ele>1844.7</ele>
        <time>2020-02-08T14:27:09Z</time>
      </trkpt>
      <trkpt lat="42.7137" lon="1.63589">
        <ele>1844.7</ele>
        <time>2020-02-08T14:27:10Z</time>
      </trkpt>
      <trkpt lat="42.71369" lon="1.63589">
        <ele>1845.6</ele>
        <time>2020-02-08T14:27:11Z</time>
      </trkpt>
      <trkpt lat="42.71368" lon="1.63588">
        <ele>1845.6</ele>
        <time>2020-02-08T14:27:12Z</time>
      </trkpt>
      <trkpt lat="42.71368" lon="1.63588">
        <ele>1845.6</ele>
        <time>2020-02-08T14:27:13Z</time>
      </trkpt>
      <trkpt lat="42.71367" lon="1.63587">
        <ele>1845.6</ele>
        <time>2020-02-08T14:27:14Z</time>
      </trkpt>
      <trkpt lat="42.71367" lon="1.63587">
        <ele>1845.6</ele>
        <time>2020-02-08T14:27:15Z</time>
      </trkpt>
      <trkpt lat="42.71366" lon="1.63587">
        <ele>1845.6</ele>
        <time>2020-02-08T14:27:16Z</time>
      </trkpt>
      <trkpt lat="42.71366" lon="1.63586">
        <ele>1845.9</ele>
        <time>2020-02-08T14:27:17Z</time>
      </trkpt>
      <trkpt lat="42.71365" lon="1.63586">
        <ele>1845.9</ele>
        <time>2020-02-08T14:27:18Z</time>
      </trkpt>
      <trkpt lat="42.71365" lon="1.63585">
        <ele>1845.9</ele>
        <time>2020-02-08T14:27:19Z</time>
      </trkpt>
      <trkpt lat="42.71364" lon="1.63585">
        <ele>1846.6</ele>
        <time>2020-02-08T14:27:20Z</time>
      </trkpt>
      <trkpt lat="42.71364" lon="1.63584">
        <ele>1846.6</ele>
        <time>2020-02-08T14:27:21Z</time>
      </trkpt>
      <trkpt lat="42.71363" lon="1.63584">
        <ele>1846.6</ele>
        <time>2020-02-08T14:27:22Z</time>
      </trkpt>
      <trkpt lat="42.71363" lon="1.63583">
        <ele>1846.6</ele>
        <time>2020-02-08T14:27:23Z</time>
      </trkpt>
      <trkpt lat="42.71361" lon="1.63581">
        <ele>1846.9</ele>
        <time>2020-02-08T14:27:24Z</time>
      </trkpt>
      <trkpt lat="42.71361" lon="1.63581">
        <ele>1846.9</ele>
        <time>2020-02-08T14:27:25Z</time>
      </trkpt>
      <trkpt lat="42.7136" lon="1.6358">
        <ele>1847.5</ele>
        <time>2020-02-08T14:27:26Z</time>
      </trkpt>
      <trkpt lat="42.7136" lon="1.6358">
        <ele>1847.5</ele>
        <time>2020-02-08T14:27:27Z</time>
      </trkpt>
      <trkpt lat="42.71359" lon="1.63579">
        <ele>1847.8</ele>
        <time>2020-02-08T14:27:28Z</time>
      </trkpt>
      <trkpt lat="42.71359" lon="1.63578">
        <ele>1847.8</ele>
        <time>2020-02-08T14:27:29Z</time>
      </trkpt>
      <trkpt lat="42.71359" lon="1.63578">
        <ele>1847.8</ele>
        <time>2020-02-08T14:27:30Z</time>
      </trkpt>
      <trkpt lat="42.71358" lon="1.63577">
        <ele>1847.8</ele>
        <time>2020-02-08T14:27:31Z</time>
      </trkpt>
      <trkpt lat="42.71358" lon="1.63577">
        <ele>1847.8</ele>
        <time>2020-02-08T14:27:32Z</time>
      </trkpt>
      <trkpt lat="42.71357" lon="1.63576">
        <ele>1847.8</ele>
        <time>2020-02-08T14:27:33Z</time>
      </trkpt>
      <trkpt lat="42.71357" lon="1.63576">
        <ele>1848.4</ele>
        <time>2020-02-08T14:27:34Z</time>
      </trkpt>
      <trkpt lat="42.71356" lon="1.63575">
        <ele>1848.7</ele>
        <time>2020-02-08T14:27:35Z</time>
      </trkpt>
      <trkpt lat="42.71356" lon="1.63574">
        <ele>1848.7</ele>
        <time>2020-02-08T14:27:36Z</time>
      </trkpt>
      <trkpt lat="42.71356" lon="1.63574">
        <ele>1848.7</ele>
        <time>2020-02-08T14:27:37Z</time>
      </trkpt>
      <trkpt lat="42.71355" lon="1.63573">
        <ele>1848.7</ele>
        <time>2020-02-08T14:27:38Z</time>
      </trkpt>
      <trkpt lat="42.71355" lon="1.63572">
        <ele>1848.7</ele>
        <time>2020-02-08T14:27:39Z</time>
      </trkpt>
      <trkpt lat="42.71354" lon="1.63572">
        <ele>1849.3</ele>
        <time>2020-02-08T14:27:40Z</time>
      </trkpt>
      <trkpt lat="42.71354" lon="1.63571">
        <ele>1849.3</ele>
        <time>2020-02-08T14:27:41Z</time>
      </trkpt>
      <trkpt lat="42.71354" lon="1.6357">
        <ele>1849.3</ele>
        <time>2020-02-08T14:27:42Z</time>
      </trkpt>
      <trkpt lat="42.71353" lon="1.6357">
        <ele>1849.6</ele>
        <time>2020-02-08T14:27:43Z</time>
      </trkpt>
      <trkpt lat="42.71353" lon="1.63569">
        <ele>1849.6</ele>
        <time>2020-02-08T14:27:44Z</time>
      </trkpt>
      <trkpt lat="42.71353" lon="1.63569">
        <ele>1849.6</ele>
        <time>2020-02-08T14:27:45Z</time>
      </trkpt>
      <trkpt lat="42.71353" lon="1.63568">
        <ele>1849.6</ele>
        <time>2020-02-08T14:27:46Z</time>
      </trkpt>
      <trkpt lat="42.71352" lon="1.63568">
        <ele>1849.6</ele>
        <time>2020-02-08T14:27:47Z</time>
      </trkpt>
      <trkpt lat="42.71352" lon="1.63567">
        <ele>1850.2</ele>
        <time>2020-02-08T14:27:48Z</time>
      </trkpt>
      <trkpt lat="42.71352" lon="1.63567">
        <ele>1850.2</ele>
        <time>2020-02-08T14:27:49Z</time>
      </trkpt>
      <trkpt lat="42.71352" lon="1.63566">
        <ele>1850.2</ele>
        <time>2020-02-08T14:27:50Z</time>
      </trkpt>
      <trkpt lat="42.71352" lon="1.63566">
        <ele>1850.2</ele>
        <time>2020-02-08T14:27:51Z</time>
      </trkpt>
      <trkpt lat="42.71352" lon="1.63565">
        <ele>1850.2</ele>
        <time>2020-02-08T14:27:52Z</time>
      </trkpt>
      <trkpt lat="42.71351" lon="1.63565">
        <ele>1850.2</ele>
        <time>2020-02-08T14:27:53Z</time>
      </trkpt>
      <trkpt lat="42.71349" lon="1.63562">
        <ele>1851.1</ele>
        <time>2020-02-08T14:27:54Z</time>
      </trkpt>
      <trkpt lat="42.71349" lon="1.63562">
        <ele>1851.1</ele>
        <time>2020-02-08T14:27:55Z</time>
      </trkpt>
      <trkpt lat="42.71348" lon="1.63561">
        <ele>1851.1</ele>
        <time>2020-02-08T14:27:56Z</time>
      </trkpt>
      <trkpt lat="42.71348" lon="1.63561">
        <ele>1851.1</ele>
        <time>2020-02-08T14:27:57Z</time>
      </trkpt>
      <trkpt lat="42.71347" lon="1.6356">
        <ele>1851.1</ele>
        <time>2020-02-08T14:27:58Z</time>
      </trkpt>
      <trkpt lat="42.71347" lon="1.6356">
        <ele>1851.4</ele>
        <time>2020-02-08T14:27:59Z</time>
      </trkpt>
      <trkpt lat="42.71346" lon="1.6356">
        <ele>1851.4</ele>
        <time>2020-02-08T14:28:00Z</time>
      </trkpt>
      <trkpt lat="42.71346" lon="1.63559">
        <ele>1851.4</ele>
        <time>2020-02-08T14:28:01Z</time>
      </trkpt>
      <trkpt lat="42.71345" lon="1.63559">
        <ele>1851.4</ele>
        <time>2020-02-08T14:28:02Z</time>
      </trkpt>
      <trkpt lat="42.71345" lon="1.63559">
        <ele>1852.1</ele>
        <time>2020-02-08T14:28:03Z</time>
      </trkpt>
      <trkpt lat="42.71344" lon="1.63558">
        <ele>1852.1</ele>
        <time>2020-02-08T14:28:04Z</time>
      </trkpt>
      <trkpt lat="42.71343" lon="1.63558">
        <ele>1852.4</ele>
        <time>2020-02-08T14:28:05Z</time>
      </trkpt>
      <trkpt lat="42.71343" lon="1.63558">
        <ele>1852.4</ele>
        <time>2020-02-08T14:28:06Z</time>
      </trkpt>
      <trkpt lat="42.71342" lon="1.63558">
        <ele>1852.4</ele>
        <time>2020-02-08T14:28:07Z</time>
      </trkpt>
      <trkpt lat="42.71342" lon="1.63557">
        <ele>1852.4</ele>
        <time>2020-02-08T14:28:08Z</time>
      </trkpt>
      <trkpt lat="42.71341" lon="1.63557">
        <ele>1852.4</ele>
        <time>2020-02-08T14:28:09Z</time>
      </trkpt>
      <trkpt lat="42.71341" lon="1.63557">
        <ele>1852.8</ele>
        <time>2020-02-08T14:28:10Z</time>
      </trkpt>
      <trkpt lat="42.7134" lon="1.63557">
        <ele>1852.8</ele>
        <time>2020-02-08T14:28:11Z</time>
      </trkpt>
      <trkpt lat="42.71339" lon="1.63556">
        <ele>1852.8</ele>
        <time>2020-02-08T14:28:12Z</time>
      </trkpt>
      <trkpt lat="42.71339" lon="1.63556">
        <ele>1852.8</ele>
        <time>2020-02-08T14:28:13Z</time>
      </trkpt>
      <trkpt lat="42.71339" lon="1.63556">
        <ele>1852.8</ele>
        <time>2020-02-08T14:28:14Z</time>
      </trkpt>
      <trkpt lat="42.71339" lon="1.63556">
        <ele>1852.8</ele>
        <time>2020-02-08T14:28:15Z</time>
      </trkpt>
      <trkpt lat="42.71337" lon="1.63555">
        <ele>1853.2</ele>
        <time>2020-02-08T14:28:16Z</time>
      </trkpt>
      <trkpt lat="42.71337" lon="1.63555">
        <ele>1853.2</ele>
        <time>2020-02-08T14:28:17Z</time>
      </trkpt>
      <trkpt lat="42.71337" lon="1.63555">
        <ele>1853.2</ele>
        <time>2020-02-08T14:28:18Z</time>
      </trkpt>
      <trkpt lat="42.71337" lon="1.63555">
        <ele>1853.2</ele>
        <time>2020-02-08T14:28:19Z</time>
      </trkpt>
      <trkpt lat="42.71337" lon="1.63555">
        <ele>1853.2</ele>
        <time>2020-02-08T14:28:20Z</time>
      </trkpt>
      <trkpt lat="42.71337" lon="1.63555">
        <ele>1853.2</ele>
        <time>2020-02-08T14:28:21Z</time>
      </trkpt>
      <trkpt lat="42.71337" lon="1.63555">
        <ele>1853.2</ele>
        <time>2020-02-08T14:28:22Z</time>
      </trkpt>
      <trkpt lat="42.71337" lon="1.63555">
        <ele>1853.2</ele>
        <time>2020-02-08T14:28:23Z</time>
      </trkpt>
      <trkpt lat="42.71337" lon="1.63555">
        <ele>1853.2</ele>
        <time>2020-02-08T14:28:24Z</time>
      </trkpt>
      <trkpt lat="42.71336" lon="1.63555">
        <ele>1853.2</ele>
        <time>2020-02-08T14:28:25Z</time>
      </trkpt>
      <trkpt lat="42.71336" lon="1.63555">
        <ele>1853.2</ele>
        <time>2020-02-08T14:28:26Z</time>
      </trkpt>
      <trkpt lat="42.71336" lon="1.63555">
        <ele>1853.9</ele>
        <time>2020-02-08T14:28:27Z</time>
      </trkpt>
      <trkpt lat="42.71336" lon="1.63555">
        <ele>1853.9</ele>
        <time>2020-02-08T14:28:28Z</time>
      </trkpt>
      <trkpt lat="42.71336" lon="1.63554">
        <ele>1853.9</ele>
        <time>2020-02-08T14:28:29Z</time>
      </trkpt>
      <trkpt lat="42.71335" lon="1.63554">
        <ele>1853.9</ele>
        <time>2020-02-08T14:28:30Z</time>
      </trkpt>
      <trkpt lat="42.71335" lon="1.63554">
        <ele>1853.9</ele>
        <time>2020-02-08T14:28:31Z</time>
      </trkpt>
      <trkpt lat="42.71335" lon="1.63554">
        <ele>1853.9</ele>
        <time>2020-02-08T14:28:32Z</time>
      </trkpt>
      <trkpt lat="42.71335" lon="1.63554">
        <ele>1853.9</ele>
        <time>2020-02-08T14:28:33Z</time>
      </trkpt>
      <trkpt lat="42.71335" lon="1.63554">
        <ele>1853.9</ele>
        <time>2020-02-08T14:28:34Z</time>
      </trkpt>
      <trkpt lat="42.71334" lon="1.63554">
        <ele>1854.4</ele>
        <time>2020-02-08T14:28:35Z</time>
      </trkpt>
      <trkpt lat="42.71334" lon="1.63554">
        <ele>1854.4</ele>
        <time>2020-02-08T14:28:36Z</time>
      </trkpt>
      <trkpt lat="42.71334" lon="1.63553">
        <ele>1854.4</ele>
        <time>2020-02-08T14:28:37Z</time>
      </trkpt>
      <trkpt lat="42.71334" lon="1.63553">
        <ele>1854.4</ele>
        <time>2020-02-08T14:28:38Z</time>
      </trkpt>
      <trkpt lat="42.71334" lon="1.63553">
        <ele>1854.4</ele>
        <time>2020-02-08T14:28:39Z</time>
      </trkpt>
      <trkpt lat="42.71333" lon="1.63553">
        <ele>1854.4</ele>
        <time>2020-02-08T14:28:40Z</time>
      </trkpt>
      <trkpt lat="42.71333" lon="1.63553">
        <ele>1854.4</ele>
        <time>2020-02-08T14:28:41Z</time>
      </trkpt>
      <trkpt lat="42.71333" lon="1.63553">
        <ele>1854.4</ele>
        <time>2020-02-08T14:28:42Z</time>
      </trkpt>
      <trkpt lat="42.71333" lon="1.63553">
        <ele>1854.4</ele>
        <time>2020-02-08T14:28:43Z</time>
      </trkpt>
      <trkpt lat="42.71333" lon="1.63553">
        <ele>1854.4</ele>
        <time>2020-02-08T14:28:44Z</time>
      </trkpt>
      <trkpt lat="42.71332" lon="1.63553">
        <ele>1854.4</ele>
        <time>2020-02-08T14:28:45Z</time>
      </trkpt>
      <trkpt lat="42.71332" lon="1.63552">
        <ele>1854.4</ele>
        <time>2020-02-08T14:28:46Z</time>
      </trkpt>
      <trkpt lat="42.71332" lon="1.63552">
        <ele>1854.4</ele>
        <time>2020-02-08T14:28:47Z</time>
      </trkpt>
      <trkpt lat="42.71332" lon="1.63552">
        <ele>1854.4</ele>
        <time>2020-02-08T14:28:48Z</time>
      </trkpt>
      <trkpt lat="42.71332" lon="1.63552">
        <ele>1854.4</ele>
        <time>2020-02-08T14:28:49Z</time>
      </trkpt>
      <trkpt lat="42.71332" lon="1.63552">
        <ele>1854.4</ele>
        <time>2020-02-08T14:28:50Z</time>
      </trkpt>
      <trkpt lat="42.71331" lon="1.63552">
        <ele>1854.8</ele>
        <time>2020-02-08T14:28:51Z</time>
      </trkpt>
      <trkpt lat="42.71331" lon="1.63552">
        <ele>1854.8</ele>
        <time>2020-02-08T14:28:52Z</time>
      </trkpt>
      <trkpt lat="42.71331" lon="1.63552">
        <ele>1854.8</ele>
        <time>2020-02-08T14:28:53Z</time>
      </trkpt>
      <trkpt lat="42.71329" lon="1.6355">
        <ele>1855.6</ele>
        <time>2020-02-08T14:28:54Z</time>
      </trkpt>
      <trkpt lat="42.71329" lon="1.63549">
        <ele>1855.6</ele>
        <time>2020-02-08T14:28:55Z</time>
      </trkpt>
      <trkpt lat="42.71328" lon="1.63549">
        <ele>1855.6</ele>
        <time>2020-02-08T14:28:56Z</time>
      </trkpt>
      <trkpt lat="42.71328" lon="1.63548">
        <ele>1856</ele>
        <time>2020-02-08T14:28:57Z</time>
      </trkpt>
      <trkpt lat="42.71328" lon="1.63548">
        <ele>1856</ele>
        <time>2020-02-08T14:28:58Z</time>
      </trkpt>
      <trkpt lat="42.71327" lon="1.63548">
        <ele>1856</ele>
        <time>2020-02-08T14:28:59Z</time>
      </trkpt>
      <trkpt lat="42.71327" lon="1.63547">
        <ele>1856</ele>
        <time>2020-02-08T14:29:00Z</time>
      </trkpt>
      <trkpt lat="42.71327" lon="1.63547">
        <ele>1856</ele>
        <time>2020-02-08T14:29:01Z</time>
      </trkpt>
      <trkpt lat="42.71327" lon="1.63547">
        <ele>1856</ele>
        <time>2020-02-08T14:29:02Z</time>
      </trkpt>
      <trkpt lat="42.71326" lon="1.63546">
        <ele>1856</ele>
        <time>2020-02-08T14:29:03Z</time>
      </trkpt>
      <trkpt lat="42.71324" lon="1.63544">
        <ele>1857.2</ele>
        <time>2020-02-08T14:29:04Z</time>
      </trkpt>
      <trkpt lat="42.71323" lon="1.63543">
        <ele>1857.2</ele>
        <time>2020-02-08T14:29:05Z</time>
      </trkpt>
      <trkpt lat="42.71323" lon="1.63543">
        <ele>1857.2</ele>
        <time>2020-02-08T14:29:06Z</time>
      </trkpt>
      <trkpt lat="42.71322" lon="1.63542">
        <ele>1857.2</ele>
        <time>2020-02-08T14:29:07Z</time>
      </trkpt>
      <trkpt lat="42.71322" lon="1.63542">
        <ele>1858</ele>
        <time>2020-02-08T14:29:08Z</time>
      </trkpt>
      <trkpt lat="42.71322" lon="1.63541">
        <ele>1858.4</ele>
        <time>2020-02-08T14:29:09Z</time>
      </trkpt>
      <trkpt lat="42.71321" lon="1.63541">
        <ele>1858.4</ele>
        <time>2020-02-08T14:29:10Z</time>
      </trkpt>
      <trkpt lat="42.71321" lon="1.6354">
        <ele>1858.4</ele>
        <time>2020-02-08T14:29:11Z</time>
      </trkpt>
      <trkpt lat="42.7132" lon="1.6354">
        <ele>1858.4</ele>
        <time>2020-02-08T14:29:12Z</time>
      </trkpt>
      <trkpt lat="42.7132" lon="1.63539">
        <ele>1858.4</ele>
        <time>2020-02-08T14:29:13Z</time>
      </trkpt>
      <trkpt lat="42.71319" lon="1.63539">
        <ele>1858.4</ele>
        <time>2020-02-08T14:29:14Z</time>
      </trkpt>
      <trkpt lat="42.71319" lon="1.63538">
        <ele>1858.4</ele>
        <time>2020-02-08T14:29:15Z</time>
      </trkpt>
      <trkpt lat="42.71318" lon="1.63538">
        <ele>1858.8</ele>
        <time>2020-02-08T14:29:16Z</time>
      </trkpt>
      <trkpt lat="42.71318" lon="1.63537">
        <ele>1859.6</ele>
        <time>2020-02-08T14:29:17Z</time>
      </trkpt>
      <trkpt lat="42.71317" lon="1.63537">
        <ele>1859.6</ele>
        <time>2020-02-08T14:29:18Z</time>
      </trkpt>
      <trkpt lat="42.71317" lon="1.63536">
        <ele>1859.6</ele>
        <time>2020-02-08T14:29:19Z</time>
      </trkpt>
      <trkpt lat="42.71317" lon="1.63536">
        <ele>1859.6</ele>
        <time>2020-02-08T14:29:20Z</time>
      </trkpt>
      <trkpt lat="42.71316" lon="1.63535">
        <ele>1859.6</ele>
        <time>2020-02-08T14:29:21Z</time>
      </trkpt>
      <trkpt lat="42.71316" lon="1.63535">
        <ele>1859.6</ele>
        <time>2020-02-08T14:29:22Z</time>
      </trkpt>
      <trkpt lat="42.71315" lon="1.63534">
        <ele>1860</ele>
        <time>2020-02-08T14:29:23Z</time>
      </trkpt>
      <trkpt lat="42.71315" lon="1.63534">
        <ele>1860</ele>
        <time>2020-02-08T14:29:24Z</time>
      </trkpt>
      <trkpt lat="42.71314" lon="1.63534">
        <ele>1860</ele>
        <time>2020-02-08T14:29:25Z</time>
      </trkpt>
      <trkpt lat="42.71314" lon="1.63533">
        <ele>1860.8</ele>
        <time>2020-02-08T14:29:26Z</time>
      </trkpt>
      <trkpt lat="42.71313" lon="1.63533">
        <ele>1860.8</ele>
        <time>2020-02-08T14:29:27Z</time>
      </trkpt>
      <trkpt lat="42.71313" lon="1.63532">
        <ele>1860.8</ele>
        <time>2020-02-08T14:29:28Z</time>
      </trkpt>
      <trkpt lat="42.71312" lon="1.63532">
        <ele>1861.2</ele>
        <time>2020-02-08T14:29:29Z</time>
      </trkpt>
      <trkpt lat="42.71312" lon="1.63531">
        <ele>1861.2</ele>
        <time>2020-02-08T14:29:30Z</time>
      </trkpt>
      <trkpt lat="42.71311" lon="1.63531">
        <ele>1861.2</ele>
        <time>2020-02-08T14:29:31Z</time>
      </trkpt>
      <trkpt lat="42.71311" lon="1.63531">
        <ele>1861.2</ele>
        <time>2020-02-08T14:29:32Z</time>
      </trkpt>
      <trkpt lat="42.7131" lon="1.6353">
        <ele>1861.2</ele>
        <time>2020-02-08T14:29:33Z</time>
      </trkpt>
      <trkpt lat="42.71308" lon="1.63529">
        <ele>1862.6</ele>
        <time>2020-02-08T14:29:34Z</time>
      </trkpt>
      <trkpt lat="42.71307" lon="1.63528">
        <ele>1862.6</ele>
        <time>2020-02-08T14:29:35Z</time>
      </trkpt>
      <trkpt lat="42.71307" lon="1.63528">
        <ele>1862.6</ele>
        <time>2020-02-08T14:29:36Z</time>
      </trkpt>
      <trkpt lat="42.71307" lon="1.63528">
        <ele>1862.6</ele>
        <time>2020-02-08T14:29:37Z</time>
      </trkpt>
      <trkpt lat="42.71306" lon="1.63527">
        <ele>1862.6</ele>
        <time>2020-02-08T14:29:38Z</time>
      </trkpt>
      <trkpt lat="42.71306" lon="1.63527">
        <ele>1863</ele>
        <time>2020-02-08T14:29:39Z</time>
      </trkpt>
      <trkpt lat="42.71306" lon="1.63527">
        <ele>1863</ele>
        <time>2020-02-08T14:29:40Z</time>
      </trkpt>
      <trkpt lat="42.71305" lon="1.63526">
        <ele>1863</ele>
        <time>2020-02-08T14:29:41Z</time>
      </trkpt>
      <trkpt lat="42.71305" lon="1.63526">
        <ele>1863</ele>
        <time>2020-02-08T14:29:42Z</time>
      </trkpt>
      <trkpt lat="42.71304" lon="1.63526">
        <ele>1863</ele>
        <time>2020-02-08T14:29:43Z</time>
      </trkpt>
      <trkpt lat="42.71302" lon="1.63525">
        <ele>1863.5</ele>
        <time>2020-02-08T14:29:44Z</time>
      </trkpt>
      <trkpt lat="42.71302" lon="1.63525">
        <ele>1864.4</ele>
        <time>2020-02-08T14:29:45Z</time>
      </trkpt>
      <trkpt lat="42.71301" lon="1.63524">
        <ele>1864.4</ele>
        <time>2020-02-08T14:29:46Z</time>
      </trkpt>
      <trkpt lat="42.71301" lon="1.63524">
        <ele>1864.4</ele>
        <time>2020-02-08T14:29:47Z</time>
      </trkpt>
      <trkpt lat="42.71301" lon="1.63524">
        <ele>1864.4</ele>
        <time>2020-02-08T14:29:48Z</time>
      </trkpt>
      <trkpt lat="42.713" lon="1.63524">
        <ele>1864.4</ele>
        <time>2020-02-08T14:29:49Z</time>
      </trkpt>
      <trkpt lat="42.713" lon="1.63524">
        <ele>1864.8</ele>
        <time>2020-02-08T14:29:50Z</time>
      </trkpt>
      <trkpt lat="42.71299" lon="1.63524">
        <ele>1864.8</ele>
        <time>2020-02-08T14:29:51Z</time>
      </trkpt>
      <trkpt lat="42.71299" lon="1.63524">
        <ele>1864.8</ele>
        <time>2020-02-08T14:29:52Z</time>
      </trkpt>
      <trkpt lat="42.71299" lon="1.63524">
        <ele>1864.8</ele>
        <time>2020-02-08T14:29:53Z</time>
      </trkpt>
      <trkpt lat="42.71296" lon="1.63522">
        <ele>1865.3</ele>
        <time>2020-02-08T14:29:54Z</time>
      </trkpt>
      <trkpt lat="42.71295" lon="1.63522">
        <ele>1865.3</ele>
        <time>2020-02-08T14:29:55Z</time>
      </trkpt>
      <trkpt lat="42.71295" lon="1.63522">
        <ele>1865.3</ele>
        <time>2020-02-08T14:29:56Z</time>
      </trkpt>
      <trkpt lat="42.71294" lon="1.63522">
        <ele>1865.3</ele>
        <time>2020-02-08T14:29:57Z</time>
      </trkpt>
      <trkpt lat="42.71294" lon="1.63522">
        <ele>1865.3</ele>
        <time>2020-02-08T14:29:58Z</time>
      </trkpt>
      <trkpt lat="42.71293" lon="1.63522">
        <ele>1865.7</ele>
        <time>2020-02-08T14:29:59Z</time>
      </trkpt>
      <trkpt lat="42.71292" lon="1.63522">
        <ele>1865.7</ele>
        <time>2020-02-08T14:30:00Z</time>
      </trkpt>
      <trkpt lat="42.71292" lon="1.63522">
        <ele>1865.7</ele>
        <time>2020-02-08T14:30:01Z</time>
      </trkpt>
      <trkpt lat="42.71291" lon="1.63522">
        <ele>1865.7</ele>
        <time>2020-02-08T14:30:02Z</time>
      </trkpt>
      <trkpt lat="42.7129" lon="1.63522">
        <ele>1866.2</ele>
        <time>2020-02-08T14:30:03Z</time>
      </trkpt>
      <trkpt lat="42.7129" lon="1.63521">
        <ele>1866.2</ele>
        <time>2020-02-08T14:30:04Z</time>
      </trkpt>
      <trkpt lat="42.71289" lon="1.63521">
        <ele>1866.2</ele>
        <time>2020-02-08T14:30:05Z</time>
      </trkpt>
      <trkpt lat="42.71289" lon="1.6352">
        <ele>1866.2</ele>
        <time>2020-02-08T14:30:06Z</time>
      </trkpt>
      <trkpt lat="42.71288" lon="1.6352">
        <ele>1867.2</ele>
        <time>2020-02-08T14:30:07Z</time>
      </trkpt>
      <trkpt lat="42.71288" lon="1.6352">
        <ele>1867.2</ele>
        <time>2020-02-08T14:30:08Z</time>
      </trkpt>
      <trkpt lat="42.71287" lon="1.63519">
        <ele>1867.8</ele>
        <time>2020-02-08T14:30:09Z</time>
      </trkpt>
      <trkpt lat="42.71287" lon="1.63519">
        <ele>1867.8</ele>
        <time>2020-02-08T14:30:10Z</time>
      </trkpt>
      <trkpt lat="42.71286" lon="1.63518">
        <ele>1867.8</ele>
        <time>2020-02-08T14:30:11Z</time>
      </trkpt>
      <trkpt lat="42.71286" lon="1.63518">
        <ele>1867.8</ele>
        <time>2020-02-08T14:30:12Z</time>
      </trkpt>
      <trkpt lat="42.71285" lon="1.63518">
        <ele>1867.8</ele>
        <time>2020-02-08T14:30:13Z</time>
      </trkpt>
      <trkpt lat="42.71285" lon="1.63517">
        <ele>1867.8</ele>
        <time>2020-02-08T14:30:14Z</time>
      </trkpt>
      <trkpt lat="42.71284" lon="1.63517">
        <ele>1868.3</ele>
        <time>2020-02-08T14:30:15Z</time>
      </trkpt>
      <trkpt lat="42.71284" lon="1.63516">
        <ele>1868.3</ele>
        <time>2020-02-08T14:30:16Z</time>
      </trkpt>
      <trkpt lat="42.71283" lon="1.63516">
        <ele>1869.3</ele>
        <time>2020-02-08T14:30:17Z</time>
      </trkpt>
      <trkpt lat="42.71283" lon="1.63516">
        <ele>1869.3</ele>
        <time>2020-02-08T14:30:18Z</time>
      </trkpt>
      <trkpt lat="42.71282" lon="1.63515">
        <ele>1869.3</ele>
        <time>2020-02-08T14:30:19Z</time>
      </trkpt>
      <trkpt lat="42.71282" lon="1.63515">
        <ele>1869.3</ele>
        <time>2020-02-08T14:30:20Z</time>
      </trkpt>
      <trkpt lat="42.71281" lon="1.63515">
        <ele>1869.3</ele>
        <time>2020-02-08T14:30:21Z</time>
      </trkpt>
      <trkpt lat="42.71281" lon="1.63514">
        <ele>1869.9</ele>
        <time>2020-02-08T14:30:22Z</time>
      </trkpt>
      <trkpt lat="42.7128" lon="1.63514">
        <ele>1869.9</ele>
        <time>2020-02-08T14:30:23Z</time>
      </trkpt>
      <trkpt lat="42.7128" lon="1.63513">
        <ele>1869.9</ele>
        <time>2020-02-08T14:30:24Z</time>
      </trkpt>
      <trkpt lat="42.71279" lon="1.63513">
        <ele>1869.9</ele>
        <time>2020-02-08T14:30:25Z</time>
      </trkpt>
      <trkpt lat="42.71279" lon="1.63512">
        <ele>1869.9</ele>
        <time>2020-02-08T14:30:26Z</time>
      </trkpt>
      <trkpt lat="42.71278" lon="1.63511">
        <ele>1870.9</ele>
        <time>2020-02-08T14:30:27Z</time>
      </trkpt>
      <trkpt lat="42.71278" lon="1.63511">
        <ele>1871.6</ele>
        <time>2020-02-08T14:30:28Z</time>
      </trkpt>
      <trkpt lat="42.71277" lon="1.6351">
        <ele>1871.6</ele>
        <time>2020-02-08T14:30:29Z</time>
      </trkpt>
      <trkpt lat="42.71277" lon="1.6351">
        <ele>1871.6</ele>
        <time>2020-02-08T14:30:30Z</time>
      </trkpt>
      <trkpt lat="42.71276" lon="1.63509">
        <ele>1871.6</ele>
        <time>2020-02-08T14:30:31Z</time>
      </trkpt>
      <trkpt lat="42.71276" lon="1.63509">
        <ele>1871.6</ele>
        <time>2020-02-08T14:30:32Z</time>
      </trkpt>
      <trkpt lat="42.71275" lon="1.63508">
        <ele>1871.6</ele>
        <time>2020-02-08T14:30:33Z</time>
      </trkpt>
      <trkpt lat="42.71275" lon="1.63507">
        <ele>1872.6</ele>
        <time>2020-02-08T14:30:34Z</time>
      </trkpt>
      <trkpt lat="42.71274" lon="1.63507">
        <ele>1873.2</ele>
        <time>2020-02-08T14:30:35Z</time>
      </trkpt>
      <trkpt lat="42.71274" lon="1.63506">
        <ele>1873.2</ele>
        <time>2020-02-08T14:30:36Z</time>
      </trkpt>
      <trkpt lat="42.71273" lon="1.63506">
        <ele>1873.2</ele>
        <time>2020-02-08T14:30:37Z</time>
      </trkpt>
      <trkpt lat="42.71273" lon="1.63505">
        <ele>1873.2</ele>
        <time>2020-02-08T14:30:38Z</time>
      </trkpt>
      <trkpt lat="42.71272" lon="1.63505">
        <ele>1873.2</ele>
        <time>2020-02-08T14:30:39Z</time>
      </trkpt>
      <trkpt lat="42.71272" lon="1.63504">
        <ele>1873.2</ele>
        <time>2020-02-08T14:30:40Z</time>
      </trkpt>
      <trkpt lat="42.71271" lon="1.63504">
        <ele>1873.9</ele>
        <time>2020-02-08T14:30:41Z</time>
      </trkpt>
      <trkpt lat="42.71271" lon="1.63503">
        <ele>1874.9</ele>
        <time>2020-02-08T14:30:42Z</time>
      </trkpt>
      <trkpt lat="42.7127" lon="1.63503">
        <ele>1874.9</ele>
        <time>2020-02-08T14:30:43Z</time>
      </trkpt>
      <trkpt lat="42.7127" lon="1.63502">
        <ele>1874.9</ele>
        <time>2020-02-08T14:30:44Z</time>
      </trkpt>
      <trkpt lat="42.7127" lon="1.63502">
        <ele>1874.9</ele>
        <time>2020-02-08T14:30:45Z</time>
      </trkpt>
      <trkpt lat="42.71269" lon="1.63502">
        <ele>1874.9</ele>
        <time>2020-02-08T14:30:46Z</time>
      </trkpt>
      <trkpt lat="42.71269" lon="1.63502">
        <ele>1874.9</ele>
        <time>2020-02-08T14:30:47Z</time>
      </trkpt>
      <trkpt lat="42.71268" lon="1.63501">
        <ele>1874.9</ele>
        <time>2020-02-08T14:30:48Z</time>
      </trkpt>
      <trkpt lat="42.71268" lon="1.63501">
        <ele>1875.6</ele>
        <time>2020-02-08T14:30:49Z</time>
      </trkpt>
      <trkpt lat="42.71268" lon="1.63501">
        <ele>1875.6</ele>
        <time>2020-02-08T14:30:50Z</time>
      </trkpt>
      <trkpt lat="42.71267" lon="1.63501">
        <ele>1875.6</ele>
        <time>2020-02-08T14:30:51Z</time>
      </trkpt>
      <trkpt lat="42.71267" lon="1.63501">
        <ele>1875.6</ele>
        <time>2020-02-08T14:30:52Z</time>
      </trkpt>
      <trkpt lat="42.71266" lon="1.635">
        <ele>1875.6</ele>
        <time>2020-02-08T14:30:53Z</time>
      </trkpt>
      <trkpt lat="42.71265" lon="1.63499">
        <ele>1876.2</ele>
        <time>2020-02-08T14:30:54Z</time>
      </trkpt>
      <trkpt lat="42.71265" lon="1.63499">
        <ele>1876.2</ele>
        <time>2020-02-08T14:30:55Z</time>
      </trkpt>
      <trkpt lat="42.71265" lon="1.63499">
        <ele>1876.2</ele>
        <time>2020-02-08T14:30:56Z</time>
      </trkpt>
      <trkpt lat="42.71265" lon="1.63499">
        <ele>1876.2</ele>
        <time>2020-02-08T14:30:57Z</time>
      </trkpt>
      <trkpt lat="42.71265" lon="1.63499">
        <ele>1876.2</ele>
        <time>2020-02-08T14:30:58Z</time>
      </trkpt>
      <trkpt lat="42.71265" lon="1.63499">
        <ele>1876.2</ele>
        <time>2020-02-08T14:30:59Z</time>
      </trkpt>
      <trkpt lat="42.71265" lon="1.63499">
        <ele>1876.2</ele>
        <time>2020-02-08T14:31:00Z</time>
      </trkpt>
      <trkpt lat="42.71265" lon="1.63499">
        <ele>1876.2</ele>
        <time>2020-02-08T14:31:01Z</time>
      </trkpt>
      <trkpt lat="42.71265" lon="1.63499">
        <ele>1876.2</ele>
        <time>2020-02-08T14:31:02Z</time>
      </trkpt>
      <trkpt lat="42.71265" lon="1.63499">
        <ele>1876.2</ele>
        <time>2020-02-08T14:31:03Z</time>
      </trkpt>
      <trkpt lat="42.71265" lon="1.63499">
        <ele>1876.2</ele>
        <time>2020-02-08T14:31:04Z</time>
      </trkpt>
      <trkpt lat="42.71265" lon="1.63499">
        <ele>1876.2</ele>
        <time>2020-02-08T14:31:05Z</time>
      </trkpt>
      <trkpt lat="42.71265" lon="1.63499">
        <ele>1876.2</ele>
        <time>2020-02-08T14:31:06Z</time>
      </trkpt>
      <trkpt lat="42.71265" lon="1.63499">
        <ele>1876.2</ele>
        <time>2020-02-08T14:31:07Z</time>
      </trkpt>
      <trkpt lat="42.71265" lon="1.63499">
        <ele>1876.2</ele>
        <time>2020-02-08T14:31:08Z</time>
      </trkpt>
      <trkpt lat="42.71265" lon="1.63499">
        <ele>1876.2</ele>
        <time>2020-02-08T14:31:09Z</time>
      </trkpt>
      <trkpt lat="42.71265" lon="1.63499">
        <ele>1876.2</ele>
        <time>2020-02-08T14:31:10Z</time>
      </trkpt>
      <trkpt lat="42.71265" lon="1.63499">
        <ele>1876.2</ele>
        <time>2020-02-08T14:31:11Z</time>
      </trkpt>
      <trkpt lat="42.71265" lon="1.63499">
        <ele>1876.2</ele>
        <time>2020-02-08T14:31:12Z</time>
      </trkpt>
      <trkpt lat="42.71265" lon="1.63499">
        <ele>1876.2</ele>
        <time>2020-02-08T14:31:13Z</time>
      </trkpt>
      <trkpt lat="42.71265" lon="1.63499">
        <ele>1876.2</ele>
        <time>2020-02-08T14:31:14Z</time>
      </trkpt>
      <trkpt lat="42.71265" lon="1.63499">
        <ele>1876.2</ele>
        <time>2020-02-08T14:31:15Z</time>
      </trkpt>
      <trkpt lat="42.71265" lon="1.63499">
        <ele>1876.2</ele>
        <time>2020-02-08T14:31:16Z</time>
      </trkpt>
      <trkpt lat="42.71265" lon="1.63499">
        <ele>1876.2</ele>
        <time>2020-02-08T14:31:17Z</time>
      </trkpt>
      <trkpt lat="42.71265" lon="1.63499">
        <ele>1876.2</ele>
        <time>2020-02-08T14:31:18Z</time>
      </trkpt>
      <trkpt lat="42.71265" lon="1.63499">
        <ele>1876.2</ele>
        <time>2020-02-08T14:31:19Z</time>
      </trkpt>
      <trkpt lat="42.71265" lon="1.63499">
        <ele>1876.2</ele>
        <time>2020-02-08T14:31:20Z</time>
      </trkpt>
      <trkpt lat="42.71265" lon="1.63499">
        <ele>1876.2</ele>
        <time>2020-02-08T14:31:21Z</time>
      </trkpt>
      <trkpt lat="42.71265" lon="1.63499">
        <ele>1876.2</ele>
        <time>2020-02-08T14:31:22Z</time>
      </trkpt>
      <trkpt lat="42.71265" lon="1.63499">
        <ele>1876.2</ele>
        <time>2020-02-08T14:31:23Z</time>
      </trkpt>
      <trkpt lat="42.71265" lon="1.63499">
        <ele>1876.2</ele>
        <time>2020-02-08T14:31:24Z</time>
      </trkpt>
      <trkpt lat="42.71265" lon="1.63499">
        <ele>1876.2</ele>
        <time>2020-02-08T14:31:25Z</time>
      </trkpt>
      <trkpt lat="42.71265" lon="1.63499">
        <ele>1876.2</ele>
        <time>2020-02-08T14:31:26Z</time>
      </trkpt>
      <trkpt lat="42.71265" lon="1.63499">
        <ele>1876.2</ele>
        <time>2020-02-08T14:31:27Z</time>
      </trkpt>
      <trkpt lat="42.71265" lon="1.63499">
        <ele>1876.2</ele>
        <time>2020-02-08T14:31:28Z</time>
      </trkpt>
      <trkpt lat="42.71265" lon="1.63499">
        <ele>1876.2</ele>
        <time>2020-02-08T14:31:29Z</time>
      </trkpt>
      <trkpt lat="42.71265" lon="1.63499">
        <ele>1876.2</ele>
        <time>2020-02-08T14:31:30Z</time>
      </trkpt>
      <trkpt lat="42.71265" lon="1.63499">
        <ele>1876.2</ele>
        <time>2020-02-08T14:31:31Z</time>
      </trkpt>
      <trkpt lat="42.71265" lon="1.63499">
        <ele>1876.2</ele>
        <time>2020-02-08T14:31:32Z</time>
      </trkpt>
      <trkpt lat="42.71265" lon="1.63499">
        <ele>1876.2</ele>
        <time>2020-02-08T14:31:33Z</time>
      </trkpt>
      <trkpt lat="42.71265" lon="1.63499">
        <ele>1876.2</ele>
        <time>2020-02-08T14:31:34Z</time>
      </trkpt>
      <trkpt lat="42.71265" lon="1.63499">
        <ele>1876.2</ele>
        <time>2020-02-08T14:31:35Z</time>
      </trkpt>
      <trkpt lat="42.71265" lon="1.63499">
        <ele>1876.2</ele>
        <time>2020-02-08T14:31:36Z</time>
      </trkpt>
      <trkpt lat="42.71265" lon="1.63499">
        <ele>1876.2</ele>
        <time>2020-02-08T14:31:37Z</time>
      </trkpt>
      <trkpt lat="42.71265" lon="1.63499">
        <ele>1876.2</ele>
        <time>2020-02-08T14:31:38Z</time>
      </trkpt>
      <trkpt lat="42.71265" lon="1.63499">
        <ele>1876.2</ele>
        <time>2020-02-08T14:31:39Z</time>
      </trkpt>
      <trkpt lat="42.71265" lon="1.63499">
        <ele>1876.2</ele>
        <time>2020-02-08T14:31:40Z</time>
      </trkpt>
      <trkpt lat="42.71265" lon="1.63499">
        <ele>1876.2</ele>
        <time>2020-02-08T14:31:41Z</time>
      </trkpt>
      <trkpt lat="42.71265" lon="1.63499">
        <ele>1876.2</ele>
        <time>2020-02-08T14:31:42Z</time>
      </trkpt>
      <trkpt lat="42.71265" lon="1.63499">
        <ele>1876.2</ele>
        <time>2020-02-08T14:31:43Z</time>
      </trkpt>
      <trkpt lat="42.71265" lon="1.63499">
        <ele>1876.2</ele>
        <time>2020-02-08T14:31:44Z</time>
      </trkpt>
      <trkpt lat="42.71265" lon="1.63499">
        <ele>1876.2</ele>
        <time>2020-02-08T14:31:45Z</time>
      </trkpt>
      <trkpt lat="42.71265" lon="1.63499">
        <ele>1876.2</ele>
        <time>2020-02-08T14:31:46Z</time>
      </trkpt>
      <trkpt lat="42.71265" lon="1.63499">
        <ele>1876.2</ele>
        <time>2020-02-08T14:31:47Z</time>
      </trkpt>
      <trkpt lat="42.71265" lon="1.63499">
        <ele>1876.2</ele>
        <time>2020-02-08T14:31:48Z</time>
      </trkpt>
      <trkpt lat="42.71265" lon="1.63499">
        <ele>1876.2</ele>
        <time>2020-02-08T14:31:49Z</time>
      </trkpt>
      <trkpt lat="42.71265" lon="1.63499">
        <ele>1876.2</ele>
        <time>2020-02-08T14:31:50Z</time>
      </trkpt>
      <trkpt lat="42.71265" lon="1.63499">
        <ele>1876.2</ele>
        <time>2020-02-08T14:31:51Z</time>
      </trkpt>
      <trkpt lat="42.71265" lon="1.63499">
        <ele>1876.2</ele>
        <time>2020-02-08T14:31:52Z</time>
      </trkpt>
      <trkpt lat="42.71265" lon="1.63499">
        <ele>1876.2</ele>
        <time>2020-02-08T14:31:53Z</time>
      </trkpt>
      <trkpt lat="42.71265" lon="1.63499">
        <ele>1876.2</ele>
        <time>2020-02-08T14:31:54Z</time>
      </trkpt>
      <trkpt lat="42.71265" lon="1.63499">
        <ele>1876.2</ele>
        <time>2020-02-08T14:31:55Z</time>
      </trkpt>
      <trkpt lat="42.71265" lon="1.63499">
        <ele>1876.2</ele>
        <time>2020-02-08T14:31:56Z</time>
      </trkpt>
      <trkpt lat="42.71265" lon="1.63499">
        <ele>1876.2</ele>
        <time>2020-02-08T14:31:57Z</time>
      </trkpt>
      <trkpt lat="42.71265" lon="1.63499">
        <ele>1876.2</ele>
        <time>2020-02-08T14:31:58Z</time>
      </trkpt>
      <trkpt lat="42.71265" lon="1.63499">
        <ele>1876.2</ele>
        <time>2020-02-08T14:31:59Z</time>
      </trkpt>
      <trkpt lat="42.71265" lon="1.63499">
        <ele>1876.2</ele>
        <time>2020-02-08T14:32:00Z</time>
      </trkpt>
      <trkpt lat="42.71265" lon="1.63499">
        <ele>1876.2</ele>
        <time>2020-02-08T14:32:01Z</time>
      </trkpt>
      <trkpt lat="42.71265" lon="1.63499">
        <ele>1876.2</ele>
        <time>2020-02-08T14:32:02Z</time>
      </trkpt>
      <trkpt lat="42.71265" lon="1.63499">
        <ele>1876.2</ele>
        <time>2020-02-08T14:32:03Z</time>
      </trkpt>
      <trkpt lat="42.71265" lon="1.63499">
        <ele>1876.2</ele>
        <time>2020-02-08T14:32:04Z</time>
      </trkpt>
      <trkpt lat="42.71265" lon="1.63499">
        <ele>1876.2</ele>
        <time>2020-02-08T14:32:05Z</time>
      </trkpt>
      <trkpt lat="42.71265" lon="1.63499">
        <ele>1876.2</ele>
        <time>2020-02-08T14:32:06Z</time>
      </trkpt>
      <trkpt lat="42.71265" lon="1.63499">
        <ele>1876.2</ele>
        <time>2020-02-08T14:32:07Z</time>
      </trkpt>
      <trkpt lat="42.71265" lon="1.63499">
        <ele>1876.2</ele>
        <time>2020-02-08T14:32:08Z</time>
      </trkpt>
      <trkpt lat="42.71265" lon="1.63499">
        <ele>1876.2</ele>
        <time>2020-02-08T14:32:09Z</time>
      </trkpt>
      <trkpt lat="42.71265" lon="1.63499">
        <ele>1876.2</ele>
        <time>2020-02-08T14:32:10Z</time>
      </trkpt>
      <trkpt lat="42.71265" lon="1.63499">
        <ele>1876.2</ele>
        <time>2020-02-08T14:32:11Z</time>
      </trkpt>
      <trkpt lat="42.71265" lon="1.63499">
        <ele>1876.2</ele>
        <time>2020-02-08T14:32:12Z</time>
      </trkpt>
      <trkpt lat="42.71265" lon="1.63499">
        <ele>1876.2</ele>
        <time>2020-02-08T14:32:13Z</time>
      </trkpt>
      <trkpt lat="42.71265" lon="1.63499">
        <ele>1876.2</ele>
        <time>2020-02-08T14:32:14Z</time>
      </trkpt>
      <trkpt lat="42.71265" lon="1.63499">
        <ele>1876.2</ele>
        <time>2020-02-08T14:32:15Z</time>
      </trkpt>
      <trkpt lat="42.71265" lon="1.63499">
        <ele>1876.2</ele>
        <time>2020-02-08T14:32:16Z</time>
      </trkpt>
      <trkpt lat="42.71265" lon="1.63499">
        <ele>1876.2</ele>
        <time>2020-02-08T14:32:17Z</time>
      </trkpt>
      <trkpt lat="42.71265" lon="1.63499">
        <ele>1876.2</ele>
        <time>2020-02-08T14:32:18Z</time>
      </trkpt>
      <trkpt lat="42.71265" lon="1.63499">
        <ele>1876.2</ele>
        <time>2020-02-08T14:32:19Z</time>
      </trkpt>
      <trkpt lat="42.71263" lon="1.63499">
        <ele>1877.3</ele>
        <time>2020-02-08T14:32:20Z</time>
      </trkpt>
      <trkpt lat="42.71263" lon="1.63499">
        <ele>1877.3</ele>
        <time>2020-02-08T14:32:21Z</time>
      </trkpt>
      <trkpt lat="42.71263" lon="1.63499">
        <ele>1877.3</ele>
        <time>2020-02-08T14:32:22Z</time>
      </trkpt>
      <trkpt lat="42.71263" lon="1.63499">
        <ele>1877.3</ele>
        <time>2020-02-08T14:32:23Z</time>
      </trkpt>
      <trkpt lat="42.71261" lon="1.63497">
        <ele>1877.9</ele>
        <time>2020-02-08T14:32:24Z</time>
      </trkpt>
      <trkpt lat="42.7126" lon="1.63496">
        <ele>1877.9</ele>
        <time>2020-02-08T14:32:25Z</time>
      </trkpt>
      <trkpt lat="42.7126" lon="1.63496">
        <ele>1877.9</ele>
        <time>2020-02-08T14:32:26Z</time>
      </trkpt>
      <trkpt lat="42.7126" lon="1.63495">
        <ele>1877.9</ele>
        <time>2020-02-08T14:32:27Z</time>
      </trkpt>
      <trkpt lat="42.7126" lon="1.63495">
        <ele>1877.9</ele>
        <time>2020-02-08T14:32:28Z</time>
      </trkpt>
      <trkpt lat="42.71259" lon="1.63494">
        <ele>1879</ele>
        <time>2020-02-08T14:32:29Z</time>
      </trkpt>
      <trkpt lat="42.71259" lon="1.63494">
        <ele>1879</ele>
        <time>2020-02-08T14:32:30Z</time>
      </trkpt>
      <trkpt lat="42.71259" lon="1.63494">
        <ele>1879.6</ele>
        <time>2020-02-08T14:32:31Z</time>
      </trkpt>
      <trkpt lat="42.71258" lon="1.63493">
        <ele>1879.6</ele>
        <time>2020-02-08T14:32:32Z</time>
      </trkpt>
      <trkpt lat="42.71258" lon="1.63493">
        <ele>1879.6</ele>
        <time>2020-02-08T14:32:33Z</time>
      </trkpt>
      <trkpt lat="42.71258" lon="1.63492">
        <ele>1879.6</ele>
        <time>2020-02-08T14:32:34Z</time>
      </trkpt>
      <trkpt lat="42.71257" lon="1.63492">
        <ele>1879.6</ele>
        <time>2020-02-08T14:32:35Z</time>
      </trkpt>
      <trkpt lat="42.71257" lon="1.63491">
        <ele>1879.6</ele>
        <time>2020-02-08T14:32:36Z</time>
      </trkpt>
      <trkpt lat="42.71257" lon="1.6349">
        <ele>1879.6</ele>
        <time>2020-02-08T14:32:37Z</time>
      </trkpt>
      <trkpt lat="42.71256" lon="1.6349">
        <ele>1880.7</ele>
        <time>2020-02-08T14:32:38Z</time>
      </trkpt>
      <trkpt lat="42.71256" lon="1.63489">
        <ele>1880.7</ele>
        <time>2020-02-08T14:32:39Z</time>
      </trkpt>
      <trkpt lat="42.71255" lon="1.63489">
        <ele>1881.4</ele>
        <time>2020-02-08T14:32:40Z</time>
      </trkpt>
      <trkpt lat="42.71255" lon="1.63488">
        <ele>1881.4</ele>
        <time>2020-02-08T14:32:41Z</time>
      </trkpt>
      <trkpt lat="42.71255" lon="1.63488">
        <ele>1881.4</ele>
        <time>2020-02-08T14:32:42Z</time>
      </trkpt>
      <trkpt lat="42.71254" lon="1.63487">
        <ele>1881.4</ele>
        <time>2020-02-08T14:32:43Z</time>
      </trkpt>
      <trkpt lat="42.71254" lon="1.63487">
        <ele>1881.4</ele>
        <time>2020-02-08T14:32:44Z</time>
      </trkpt>
      <trkpt lat="42.71253" lon="1.63487">
        <ele>1881.4</ele>
        <time>2020-02-08T14:32:45Z</time>
      </trkpt>
      <trkpt lat="42.71252" lon="1.63486">
        <ele>1882.1</ele>
        <time>2020-02-08T14:32:46Z</time>
      </trkpt>
      <trkpt lat="42.71252" lon="1.63486">
        <ele>1883.2</ele>
        <time>2020-02-08T14:32:47Z</time>
      </trkpt>
      <trkpt lat="42.71251" lon="1.63486">
        <ele>1883.2</ele>
        <time>2020-02-08T14:32:48Z</time>
      </trkpt>
      <trkpt lat="42.71251" lon="1.63486">
        <ele>1883.2</ele>
        <time>2020-02-08T14:32:49Z</time>
      </trkpt>
      <trkpt lat="42.7125" lon="1.63485">
        <ele>1883.2</ele>
        <time>2020-02-08T14:32:50Z</time>
      </trkpt>
      <trkpt lat="42.71249" lon="1.63485">
        <ele>1883.9</ele>
        <time>2020-02-08T14:32:51Z</time>
      </trkpt>
      <trkpt lat="42.71249" lon="1.63485">
        <ele>1883.9</ele>
        <time>2020-02-08T14:32:52Z</time>
      </trkpt>
      <trkpt lat="42.71248" lon="1.63484">
        <ele>1883.9</ele>
        <time>2020-02-08T14:32:53Z</time>
      </trkpt>
      <trkpt lat="42.71248" lon="1.63484">
        <ele>1883.9</ele>
        <time>2020-02-08T14:32:54Z</time>
      </trkpt>
      <trkpt lat="42.71247" lon="1.63484">
        <ele>1883.9</ele>
        <time>2020-02-08T14:32:55Z</time>
      </trkpt>
      <trkpt lat="42.71247" lon="1.63483">
        <ele>1883.9</ele>
        <time>2020-02-08T14:32:56Z</time>
      </trkpt>
      <trkpt lat="42.71246" lon="1.63483">
        <ele>1884.6</ele>
        <time>2020-02-08T14:32:57Z</time>
      </trkpt>
      <trkpt lat="42.71246" lon="1.63482">
        <ele>1884.6</ele>
        <time>2020-02-08T14:32:58Z</time>
      </trkpt>
      <trkpt lat="42.71245" lon="1.63482">
        <ele>1884.6</ele>
        <time>2020-02-08T14:32:59Z</time>
      </trkpt>
      <trkpt lat="42.71244" lon="1.63482">
        <ele>1885.8</ele>
        <time>2020-02-08T14:33:00Z</time>
      </trkpt>
      <trkpt lat="42.71244" lon="1.63481">
        <ele>1885.8</ele>
        <time>2020-02-08T14:33:01Z</time>
      </trkpt>
      <trkpt lat="42.71243" lon="1.63481">
        <ele>1885.8</ele>
        <time>2020-02-08T14:33:02Z</time>
      </trkpt>
      <trkpt lat="42.71243" lon="1.63481">
        <ele>1886.5</ele>
        <time>2020-02-08T14:33:03Z</time>
      </trkpt>
      <trkpt lat="42.71242" lon="1.6348">
        <ele>1886.5</ele>
        <time>2020-02-08T14:33:04Z</time>
      </trkpt>
      <trkpt lat="42.71242" lon="1.6348">
        <ele>1886.5</ele>
        <time>2020-02-08T14:33:05Z</time>
      </trkpt>
      <trkpt lat="42.71241" lon="1.63479">
        <ele>1886.5</ele>
        <time>2020-02-08T14:33:06Z</time>
      </trkpt>
      <trkpt lat="42.71241" lon="1.63478">
        <ele>1886.5</ele>
        <time>2020-02-08T14:33:07Z</time>
      </trkpt>
      <trkpt lat="42.71241" lon="1.63478">
        <ele>1886.5</ele>
        <time>2020-02-08T14:33:08Z</time>
      </trkpt>
      <trkpt lat="42.7124" lon="1.63477">
        <ele>1887.6</ele>
        <time>2020-02-08T14:33:09Z</time>
      </trkpt>
      <trkpt lat="42.7124" lon="1.63477">
        <ele>1888.3</ele>
        <time>2020-02-08T14:33:10Z</time>
      </trkpt>
      <trkpt lat="42.71239" lon="1.63476">
        <ele>1888.3</ele>
        <time>2020-02-08T14:33:11Z</time>
      </trkpt>
      <trkpt lat="42.71239" lon="1.63476">
        <ele>1888.3</ele>
        <time>2020-02-08T14:33:12Z</time>
      </trkpt>
      <trkpt lat="42.71238" lon="1.63475">
        <ele>1888.3</ele>
        <time>2020-02-08T14:33:13Z</time>
      </trkpt>
      <trkpt lat="42.71238" lon="1.63475">
        <ele>1888.3</ele>
        <time>2020-02-08T14:33:14Z</time>
      </trkpt>
      <trkpt lat="42.71237" lon="1.63475">
        <ele>1888.3</ele>
        <time>2020-02-08T14:33:15Z</time>
      </trkpt>
      <trkpt lat="42.71237" lon="1.63476">
        <ele>1888.9</ele>
        <time>2020-02-08T14:33:16Z</time>
      </trkpt>
      <trkpt lat="42.71236" lon="1.63476">
        <ele>1888.9</ele>
        <time>2020-02-08T14:33:17Z</time>
      </trkpt>
      <trkpt lat="42.71236" lon="1.63476">
        <ele>1888.9</ele>
        <time>2020-02-08T14:33:18Z</time>
      </trkpt>
      <trkpt lat="42.71235" lon="1.63476">
        <ele>1888.9</ele>
        <time>2020-02-08T14:33:19Z</time>
      </trkpt>
      <trkpt lat="42.71234" lon="1.63476">
        <ele>1888.9</ele>
        <time>2020-02-08T14:33:20Z</time>
      </trkpt>
      <trkpt lat="42.71234" lon="1.63476">
        <ele>1888.9</ele>
        <time>2020-02-08T14:33:21Z</time>
      </trkpt>
      <trkpt lat="42.71233" lon="1.63476">
        <ele>1889.4</ele>
        <time>2020-02-08T14:33:22Z</time>
      </trkpt>
      <trkpt lat="42.71233" lon="1.63476">
        <ele>1889.4</ele>
        <time>2020-02-08T14:33:23Z</time>
      </trkpt>
      <trkpt lat="42.71232" lon="1.63476">
        <ele>1889.4</ele>
        <time>2020-02-08T14:33:24Z</time>
      </trkpt>
      <trkpt lat="42.71232" lon="1.63477">
        <ele>1889.4</ele>
        <time>2020-02-08T14:33:25Z</time>
      </trkpt>
      <trkpt lat="42.71231" lon="1.63477">
        <ele>1889.4</ele>
        <time>2020-02-08T14:33:26Z</time>
      </trkpt>
      <trkpt lat="42.7123" lon="1.63477">
        <ele>1890</ele>
        <time>2020-02-08T14:33:27Z</time>
      </trkpt>
      <trkpt lat="42.7123" lon="1.63477">
        <ele>1890</ele>
        <time>2020-02-08T14:33:28Z</time>
      </trkpt>
      <trkpt lat="42.71229" lon="1.63478">
        <ele>1888.7</ele>
        <time>2020-02-08T14:33:29Z</time>
      </trkpt>
      <trkpt lat="42.71229" lon="1.63478">
        <ele>1888.7</ele>
        <time>2020-02-08T14:33:30Z</time>
      </trkpt>
      <trkpt lat="42.71228" lon="1.63478">
        <ele>1888.7</ele>
        <time>2020-02-08T14:33:31Z</time>
      </trkpt>
      <trkpt lat="42.71227" lon="1.63478">
        <ele>1888.7</ele>
        <time>2020-02-08T14:33:32Z</time>
      </trkpt>
      <trkpt lat="42.71227" lon="1.63479">
        <ele>1889.2</ele>
        <time>2020-02-08T14:33:33Z</time>
      </trkpt>
      <trkpt lat="42.71226" lon="1.63479">
        <ele>1889.2</ele>
        <time>2020-02-08T14:33:34Z</time>
      </trkpt>
      <trkpt lat="42.71226" lon="1.63479">
        <ele>1889.2</ele>
        <time>2020-02-08T14:33:35Z</time>
      </trkpt>
      <trkpt lat="42.71225" lon="1.63479">
        <ele>1889.2</ele>
        <time>2020-02-08T14:33:36Z</time>
      </trkpt>
      <trkpt lat="42.71225" lon="1.63479">
        <ele>1889.2</ele>
        <time>2020-02-08T14:33:37Z</time>
      </trkpt>
      <trkpt lat="42.71224" lon="1.63479">
        <ele>1889.7</ele>
        <time>2020-02-08T14:33:38Z</time>
      </trkpt>
      <trkpt lat="42.71224" lon="1.63479">
        <ele>1889.7</ele>
        <time>2020-02-08T14:33:39Z</time>
      </trkpt>
      <trkpt lat="42.71223" lon="1.63479">
        <ele>1889.7</ele>
        <time>2020-02-08T14:33:40Z</time>
      </trkpt>
      <trkpt lat="42.71222" lon="1.63479">
        <ele>1889.7</ele>
        <time>2020-02-08T14:33:41Z</time>
      </trkpt>
      <trkpt lat="42.71222" lon="1.63478">
        <ele>1889.7</ele>
        <time>2020-02-08T14:33:42Z</time>
      </trkpt>
      <trkpt lat="42.71221" lon="1.63478">
        <ele>1889.7</ele>
        <time>2020-02-08T14:33:43Z</time>
      </trkpt>
      <trkpt lat="42.71221" lon="1.63478">
        <ele>1889.7</ele>
        <time>2020-02-08T14:33:44Z</time>
      </trkpt>
      <trkpt lat="42.7122" lon="1.63477">
        <ele>1891.6</ele>
        <time>2020-02-08T14:33:45Z</time>
      </trkpt>
      <trkpt lat="42.7122" lon="1.63477">
        <ele>1891.6</ele>
        <time>2020-02-08T14:33:46Z</time>
      </trkpt>
      <trkpt lat="42.7122" lon="1.63477">
        <ele>1891.6</ele>
        <time>2020-02-08T14:33:47Z</time>
      </trkpt>
      <trkpt lat="42.7122" lon="1.63477">
        <ele>1891.6</ele>
        <time>2020-02-08T14:33:48Z</time>
      </trkpt>
      <trkpt lat="42.7122" lon="1.63477">
        <ele>1891.6</ele>
        <time>2020-02-08T14:33:49Z</time>
      </trkpt>
      <trkpt lat="42.71218" lon="1.63475">
        <ele>1891.6</ele>
        <time>2020-02-08T14:33:50Z</time>
      </trkpt>
      <trkpt lat="42.71218" lon="1.63475">
        <ele>1891.6</ele>
        <time>2020-02-08T14:33:51Z</time>
      </trkpt>
      <trkpt lat="42.71218" lon="1.63475">
        <ele>1891.6</ele>
        <time>2020-02-08T14:33:52Z</time>
      </trkpt>
      <trkpt lat="42.71218" lon="1.63475">
        <ele>1891.6</ele>
        <time>2020-02-08T14:33:53Z</time>
      </trkpt>
      <trkpt lat="42.71218" lon="1.63475">
        <ele>1891.6</ele>
        <time>2020-02-08T14:33:54Z</time>
      </trkpt>
      <trkpt lat="42.71217" lon="1.63474">
        <ele>1892.1</ele>
        <time>2020-02-08T14:33:55Z</time>
      </trkpt>
      <trkpt lat="42.71217" lon="1.63474">
        <ele>1892.1</ele>
        <time>2020-02-08T14:33:56Z</time>
      </trkpt>
      <trkpt lat="42.71217" lon="1.63474">
        <ele>1892.1</ele>
        <time>2020-02-08T14:33:57Z</time>
      </trkpt>
      <trkpt lat="42.71217" lon="1.63474">
        <ele>1892.1</ele>
        <time>2020-02-08T14:33:58Z</time>
      </trkpt>
      <trkpt lat="42.71217" lon="1.63474">
        <ele>1892.1</ele>
        <time>2020-02-08T14:33:59Z</time>
      </trkpt>
      <trkpt lat="42.71215" lon="1.63471">
        <ele>1893.5</ele>
        <time>2020-02-08T14:34:00Z</time>
      </trkpt>
      <trkpt lat="42.71215" lon="1.63471">
        <ele>1893.5</ele>
        <time>2020-02-08T14:34:01Z</time>
      </trkpt>
      <trkpt lat="42.71215" lon="1.63471">
        <ele>1893.5</ele>
        <time>2020-02-08T14:34:02Z</time>
      </trkpt>
      <trkpt lat="42.71215" lon="1.63471">
        <ele>1893.5</ele>
        <time>2020-02-08T14:34:03Z</time>
      </trkpt>
      <trkpt lat="42.71215" lon="1.63471">
        <ele>1893.5</ele>
        <time>2020-02-08T14:34:04Z</time>
      </trkpt>
      <trkpt lat="42.71215" lon="1.6347">
        <ele>1893.5</ele>
        <time>2020-02-08T14:34:05Z</time>
      </trkpt>
      <trkpt lat="42.71215" lon="1.6347">
        <ele>1893.5</ele>
        <time>2020-02-08T14:34:06Z</time>
      </trkpt>
      <trkpt lat="42.71215" lon="1.63469">
        <ele>1894</ele>
        <time>2020-02-08T14:34:07Z</time>
      </trkpt>
      <trkpt lat="42.71214" lon="1.63469">
        <ele>1895.3</ele>
        <time>2020-02-08T14:34:08Z</time>
      </trkpt>
      <trkpt lat="42.71214" lon="1.63468">
        <ele>1895.3</ele>
        <time>2020-02-08T14:34:09Z</time>
      </trkpt>
      <trkpt lat="42.71214" lon="1.63468">
        <ele>1895.3</ele>
        <time>2020-02-08T14:34:10Z</time>
      </trkpt>
      <trkpt lat="42.71214" lon="1.63467">
        <ele>1895.3</ele>
        <time>2020-02-08T14:34:11Z</time>
      </trkpt>
      <trkpt lat="42.71213" lon="1.63467">
        <ele>1895.3</ele>
        <time>2020-02-08T14:34:12Z</time>
      </trkpt>
      <trkpt lat="42.71213" lon="1.63466">
        <ele>1895.3</ele>
        <time>2020-02-08T14:34:13Z</time>
      </trkpt>
      <trkpt lat="42.71213" lon="1.63466">
        <ele>1895.3</ele>
        <time>2020-02-08T14:34:14Z</time>
      </trkpt>
      <trkpt lat="42.71212" lon="1.63464">
        <ele>1896.6</ele>
        <time>2020-02-08T14:34:15Z</time>
      </trkpt>
      <trkpt lat="42.71212" lon="1.63464">
        <ele>1896.6</ele>
        <time>2020-02-08T14:34:16Z</time>
      </trkpt>
      <trkpt lat="42.71212" lon="1.63464">
        <ele>1896.6</ele>
        <time>2020-02-08T14:34:17Z</time>
      </trkpt>
      <trkpt lat="42.71212" lon="1.63464">
        <ele>1896.6</ele>
        <time>2020-02-08T14:34:18Z</time>
      </trkpt>
      <trkpt lat="42.71212" lon="1.63464">
        <ele>1896.6</ele>
        <time>2020-02-08T14:34:19Z</time>
      </trkpt>
      <trkpt lat="42.71212" lon="1.63464">
        <ele>1896.6</ele>
        <time>2020-02-08T14:34:20Z</time>
      </trkpt>
      <trkpt lat="42.71212" lon="1.63464">
        <ele>1896.6</ele>
        <time>2020-02-08T14:34:21Z</time>
      </trkpt>
      <trkpt lat="42.71212" lon="1.63464">
        <ele>1896.6</ele>
        <time>2020-02-08T14:34:22Z</time>
      </trkpt>
      <trkpt lat="42.71211" lon="1.63462">
        <ele>1897.1</ele>
        <time>2020-02-08T14:34:23Z</time>
      </trkpt>
      <trkpt lat="42.71211" lon="1.63462">
        <ele>1897.1</ele>
        <time>2020-02-08T14:34:24Z</time>
      </trkpt>
      <trkpt lat="42.71211" lon="1.63462">
        <ele>1897.1</ele>
        <time>2020-02-08T14:34:25Z</time>
      </trkpt>
      <trkpt lat="42.71211" lon="1.63462">
        <ele>1897.1</ele>
        <time>2020-02-08T14:34:26Z</time>
      </trkpt>
      <trkpt lat="42.71211" lon="1.63462">
        <ele>1897.1</ele>
        <time>2020-02-08T14:34:27Z</time>
      </trkpt>
      <trkpt lat="42.7121" lon="1.63459">
        <ele>1898.2</ele>
        <time>2020-02-08T14:34:28Z</time>
      </trkpt>
      <trkpt lat="42.7121" lon="1.63459">
        <ele>1898.2</ele>
        <time>2020-02-08T14:34:29Z</time>
      </trkpt>
      <trkpt lat="42.7121" lon="1.63459">
        <ele>1898.2</ele>
        <time>2020-02-08T14:34:30Z</time>
      </trkpt>
      <trkpt lat="42.7121" lon="1.63459">
        <ele>1898.2</ele>
        <time>2020-02-08T14:34:31Z</time>
      </trkpt>
      <trkpt lat="42.7121" lon="1.63459">
        <ele>1898.2</ele>
        <time>2020-02-08T14:34:32Z</time>
      </trkpt>
      <trkpt lat="42.7121" lon="1.63457">
        <ele>1898.2</ele>
        <time>2020-02-08T14:34:33Z</time>
      </trkpt>
      <trkpt lat="42.7121" lon="1.63457">
        <ele>1898.2</ele>
        <time>2020-02-08T14:34:34Z</time>
      </trkpt>
      <trkpt lat="42.7121" lon="1.63457">
        <ele>1898.2</ele>
        <time>2020-02-08T14:34:35Z</time>
      </trkpt>
      <trkpt lat="42.7121" lon="1.63457">
        <ele>1898.2</ele>
        <time>2020-02-08T14:34:36Z</time>
      </trkpt>
      <trkpt lat="42.7121" lon="1.63457">
        <ele>1898.2</ele>
        <time>2020-02-08T14:34:37Z</time>
      </trkpt>
      <trkpt lat="42.71209" lon="1.63455">
        <ele>1899.3</ele>
        <time>2020-02-08T14:34:38Z</time>
      </trkpt>
      <trkpt lat="42.71209" lon="1.63455">
        <ele>1899.3</ele>
        <time>2020-02-08T14:34:39Z</time>
      </trkpt>
      <trkpt lat="42.71209" lon="1.63455">
        <ele>1899.3</ele>
        <time>2020-02-08T14:34:40Z</time>
      </trkpt>
      <trkpt lat="42.71209" lon="1.63455">
        <ele>1899.3</ele>
        <time>2020-02-08T14:34:41Z</time>
      </trkpt>
      <trkpt lat="42.71209" lon="1.63455">
        <ele>1899.3</ele>
        <time>2020-02-08T14:34:42Z</time>
      </trkpt>
      <trkpt lat="42.71209" lon="1.63455">
        <ele>1899.3</ele>
        <time>2020-02-08T14:34:43Z</time>
      </trkpt>
      <trkpt lat="42.71209" lon="1.63455">
        <ele>1899.3</ele>
        <time>2020-02-08T14:34:44Z</time>
      </trkpt>
      <trkpt lat="42.71208" lon="1.63452">
        <ele>1899.8</ele>
        <time>2020-02-08T14:34:45Z</time>
      </trkpt>
      <trkpt lat="42.71208" lon="1.63452">
        <ele>1899.8</ele>
        <time>2020-02-08T14:34:46Z</time>
      </trkpt>
      <trkpt lat="42.71208" lon="1.63452">
        <ele>1899.8</ele>
        <time>2020-02-08T14:34:47Z</time>
      </trkpt>
      <trkpt lat="42.71208" lon="1.63452">
        <ele>1899.8</ele>
        <time>2020-02-08T14:34:48Z</time>
      </trkpt>
      <trkpt lat="42.71208" lon="1.63452">
        <ele>1899.8</ele>
        <time>2020-02-08T14:34:49Z</time>
      </trkpt>
      <trkpt lat="42.71208" lon="1.63452">
        <ele>1899.8</ele>
        <time>2020-02-08T14:34:50Z</time>
      </trkpt>
      <trkpt lat="42.71208" lon="1.63449">
        <ele>1900.3</ele>
        <time>2020-02-08T14:34:51Z</time>
      </trkpt>
      <trkpt lat="42.71208" lon="1.63449">
        <ele>1900.3</ele>
        <time>2020-02-08T14:34:52Z</time>
      </trkpt>
      <trkpt lat="42.71208" lon="1.63449">
        <ele>1900.3</ele>
        <time>2020-02-08T14:34:53Z</time>
      </trkpt>
      <trkpt lat="42.71208" lon="1.63449">
        <ele>1900.3</ele>
        <time>2020-02-08T14:34:54Z</time>
      </trkpt>
      <trkpt lat="42.71208" lon="1.63449">
        <ele>1900.3</ele>
        <time>2020-02-08T14:34:55Z</time>
      </trkpt>
      <trkpt lat="42.71208" lon="1.63449">
        <ele>1900.3</ele>
        <time>2020-02-08T14:34:56Z</time>
      </trkpt>
      <trkpt lat="42.71208" lon="1.63449">
        <ele>1900.3</ele>
        <time>2020-02-08T14:34:57Z</time>
      </trkpt>
      <trkpt lat="42.71208" lon="1.63449">
        <ele>1900.3</ele>
        <time>2020-02-08T14:34:58Z</time>
      </trkpt>
      <trkpt lat="42.71208" lon="1.63449">
        <ele>1900.3</ele>
        <time>2020-02-08T14:34:59Z</time>
      </trkpt>
      <trkpt lat="42.71208" lon="1.63447">
        <ele>1901.7</ele>
        <time>2020-02-08T14:35:00Z</time>
      </trkpt>
      <trkpt lat="42.71208" lon="1.63447">
        <ele>1901.7</ele>
        <time>2020-02-08T14:35:01Z</time>
      </trkpt>
      <trkpt lat="42.71208" lon="1.63447">
        <ele>1901.7</ele>
        <time>2020-02-08T14:35:02Z</time>
      </trkpt>
      <trkpt lat="42.71208" lon="1.63447">
        <ele>1901.7</ele>
        <time>2020-02-08T14:35:03Z</time>
      </trkpt>
      <trkpt lat="42.71207" lon="1.63447">
        <ele>1901.7</ele>
        <time>2020-02-08T14:35:04Z</time>
      </trkpt>
      <trkpt lat="42.71207" lon="1.63447">
        <ele>1901.7</ele>
        <time>2020-02-08T14:35:05Z</time>
      </trkpt>
      <trkpt lat="42.71207" lon="1.63446">
        <ele>1901.7</ele>
        <time>2020-02-08T14:35:06Z</time>
      </trkpt>
      <trkpt lat="42.71206" lon="1.63446">
        <ele>1901.7</ele>
        <time>2020-02-08T14:35:07Z</time>
      </trkpt>
      <trkpt lat="42.71206" lon="1.63446">
        <ele>1901.7</ele>
        <time>2020-02-08T14:35:08Z</time>
      </trkpt>
      <trkpt lat="42.71206" lon="1.63446">
        <ele>1901.7</ele>
        <time>2020-02-08T14:35:09Z</time>
      </trkpt>
      <trkpt lat="42.71205" lon="1.63445">
        <ele>1901.7</ele>
        <time>2020-02-08T14:35:10Z</time>
      </trkpt>
      <trkpt lat="42.71205" lon="1.63445">
        <ele>1902.2</ele>
        <time>2020-02-08T14:35:11Z</time>
      </trkpt>
      <trkpt lat="42.71205" lon="1.63445">
        <ele>1902.2</ele>
        <time>2020-02-08T14:35:12Z</time>
      </trkpt>
      <trkpt lat="42.71204" lon="1.63445">
        <ele>1902.2</ele>
        <time>2020-02-08T14:35:13Z</time>
      </trkpt>
      <trkpt lat="42.71202" lon="1.63444">
        <ele>1902.6</ele>
        <time>2020-02-08T14:35:14Z</time>
      </trkpt>
      <trkpt lat="42.71202" lon="1.63443">
        <ele>1902.6</ele>
        <time>2020-02-08T14:35:15Z</time>
      </trkpt>
      <trkpt lat="42.71202" lon="1.63443">
        <ele>1903.5</ele>
        <time>2020-02-08T14:35:16Z</time>
      </trkpt>
      <trkpt lat="42.71202" lon="1.63442">
        <ele>1903.5</ele>
        <time>2020-02-08T14:35:17Z</time>
      </trkpt>
      <trkpt lat="42.71202" lon="1.63442">
        <ele>1903.5</ele>
        <time>2020-02-08T14:35:18Z</time>
      </trkpt>
      <trkpt lat="42.71202" lon="1.63442">
        <ele>1903.5</ele>
        <time>2020-02-08T14:35:19Z</time>
      </trkpt>
      <trkpt lat="42.71202" lon="1.63441">
        <ele>1903.5</ele>
        <time>2020-02-08T14:35:20Z</time>
      </trkpt>
      <trkpt lat="42.71202" lon="1.63441">
        <ele>1903.5</ele>
        <time>2020-02-08T14:35:21Z</time>
      </trkpt>
      <trkpt lat="42.71202" lon="1.6344">
        <ele>1903.5</ele>
        <time>2020-02-08T14:35:22Z</time>
      </trkpt>
      <trkpt lat="42.71202" lon="1.6344">
        <ele>1903.5</ele>
        <time>2020-02-08T14:35:23Z</time>
      </trkpt>
      <trkpt lat="42.71202" lon="1.6344">
        <ele>1903.5</ele>
        <time>2020-02-08T14:35:24Z</time>
      </trkpt>
      <trkpt lat="42.71202" lon="1.63439">
        <ele>1903.1</ele>
        <time>2020-02-08T14:35:25Z</time>
      </trkpt>
      <trkpt lat="42.71202" lon="1.63439">
        <ele>1903.9</ele>
        <time>2020-02-08T14:35:26Z</time>
      </trkpt>
      <trkpt lat="42.71203" lon="1.63438">
        <ele>1903.9</ele>
        <time>2020-02-08T14:35:27Z</time>
      </trkpt>
      <trkpt lat="42.71203" lon="1.63438">
        <ele>1903.9</ele>
        <time>2020-02-08T14:35:28Z</time>
      </trkpt>
      <trkpt lat="42.71203" lon="1.63437">
        <ele>1903.9</ele>
        <time>2020-02-08T14:35:29Z</time>
      </trkpt>
      <trkpt lat="42.71203" lon="1.63437">
        <ele>1903.9</ele>
        <time>2020-02-08T14:35:30Z</time>
      </trkpt>
      <trkpt lat="42.71203" lon="1.63436">
        <ele>1903.9</ele>
        <time>2020-02-08T14:35:31Z</time>
      </trkpt>
      <trkpt lat="42.71204" lon="1.63436">
        <ele>1903.9</ele>
        <time>2020-02-08T14:35:32Z</time>
      </trkpt>
      <trkpt lat="42.71204" lon="1.63436">
        <ele>1903.9</ele>
        <time>2020-02-08T14:35:33Z</time>
      </trkpt>
      <trkpt lat="42.71203" lon="1.63433">
        <ele>1904.6</ele>
        <time>2020-02-08T14:35:34Z</time>
      </trkpt>
      <trkpt lat="42.71202" lon="1.63433">
        <ele>1904.6</ele>
        <time>2020-02-08T14:35:35Z</time>
      </trkpt>
      <trkpt lat="42.71202" lon="1.63433">
        <ele>1905.1</ele>
        <time>2020-02-08T14:35:36Z</time>
      </trkpt>
      <trkpt lat="42.71202" lon="1.63432">
        <ele>1905.1</ele>
        <time>2020-02-08T14:35:37Z</time>
      </trkpt>
      <trkpt lat="42.71201" lon="1.63432">
        <ele>1905.1</ele>
        <time>2020-02-08T14:35:38Z</time>
      </trkpt>
      <trkpt lat="42.71201" lon="1.63432">
        <ele>1905.1</ele>
        <time>2020-02-08T14:35:39Z</time>
      </trkpt>
      <trkpt lat="42.712" lon="1.63431">
        <ele>1905.1</ele>
        <time>2020-02-08T14:35:40Z</time>
      </trkpt>
      <trkpt lat="42.712" lon="1.63431">
        <ele>1905.1</ele>
        <time>2020-02-08T14:35:41Z</time>
      </trkpt>
      <trkpt lat="42.712" lon="1.63431">
        <ele>1905.1</ele>
        <time>2020-02-08T14:35:42Z</time>
      </trkpt>
      <trkpt lat="42.71199" lon="1.6343">
        <ele>1905.1</ele>
        <time>2020-02-08T14:35:43Z</time>
      </trkpt>
      <trkpt lat="42.71199" lon="1.6343">
        <ele>1905.8</ele>
        <time>2020-02-08T14:35:44Z</time>
      </trkpt>
      <trkpt lat="42.71199" lon="1.63429">
        <ele>1906.3</ele>
        <time>2020-02-08T14:35:45Z</time>
      </trkpt>
      <trkpt lat="42.71198" lon="1.63429">
        <ele>1906.3</ele>
        <time>2020-02-08T14:35:46Z</time>
      </trkpt>
      <trkpt lat="42.71198" lon="1.63428">
        <ele>1906.3</ele>
        <time>2020-02-08T14:35:47Z</time>
      </trkpt>
      <trkpt lat="42.71197" lon="1.63427">
        <ele>1906.3</ele>
        <time>2020-02-08T14:35:48Z</time>
      </trkpt>
      <trkpt lat="42.71197" lon="1.63427">
        <ele>1906.3</ele>
        <time>2020-02-08T14:35:49Z</time>
      </trkpt>
      <trkpt lat="42.71197" lon="1.63426">
        <ele>1906.3</ele>
        <time>2020-02-08T14:35:50Z</time>
      </trkpt>
      <trkpt lat="42.71196" lon="1.63425">
        <ele>1906.9</ele>
        <time>2020-02-08T14:35:51Z</time>
      </trkpt>
      <trkpt lat="42.71196" lon="1.63425">
        <ele>1906.9</ele>
        <time>2020-02-08T14:35:52Z</time>
      </trkpt>
      <trkpt lat="42.71195" lon="1.63424">
        <ele>1907.4</ele>
        <time>2020-02-08T14:35:53Z</time>
      </trkpt>
      <trkpt lat="42.71195" lon="1.63424">
        <ele>1907.4</ele>
        <time>2020-02-08T14:35:54Z</time>
      </trkpt>
      <trkpt lat="42.71195" lon="1.63423">
        <ele>1907.4</ele>
        <time>2020-02-08T14:35:55Z</time>
      </trkpt>
      <trkpt lat="42.71195" lon="1.63423">
        <ele>1907.4</ele>
        <time>2020-02-08T14:35:56Z</time>
      </trkpt>
      <trkpt lat="42.71194" lon="1.63423">
        <ele>1907.4</ele>
        <time>2020-02-08T14:35:57Z</time>
      </trkpt>
      <trkpt lat="42.71194" lon="1.63422">
        <ele>1907.4</ele>
        <time>2020-02-08T14:35:58Z</time>
      </trkpt>
      <trkpt lat="42.71194" lon="1.63422">
        <ele>1907.4</ele>
        <time>2020-02-08T14:35:59Z</time>
      </trkpt>
      <trkpt lat="42.71194" lon="1.63421">
        <ele>1908</ele>
        <time>2020-02-08T14:36:00Z</time>
      </trkpt>
      <trkpt lat="42.71193" lon="1.63421">
        <ele>1908</ele>
        <time>2020-02-08T14:36:01Z</time>
      </trkpt>
      <trkpt lat="42.71193" lon="1.63421">
        <ele>1908</ele>
        <time>2020-02-08T14:36:02Z</time>
      </trkpt>
      <trkpt lat="42.71193" lon="1.6342">
        <ele>1908</ele>
        <time>2020-02-08T14:36:03Z</time>
      </trkpt>
      <trkpt lat="42.71191" lon="1.63417">
        <ele>1908.4</ele>
        <time>2020-02-08T14:36:04Z</time>
      </trkpt>
      <trkpt lat="42.71191" lon="1.63417">
        <ele>1909</ele>
        <time>2020-02-08T14:36:05Z</time>
      </trkpt>
      <trkpt lat="42.71191" lon="1.63416">
        <ele>1909</ele>
        <time>2020-02-08T14:36:06Z</time>
      </trkpt>
      <trkpt lat="42.71191" lon="1.63416">
        <ele>1909</ele>
        <time>2020-02-08T14:36:07Z</time>
      </trkpt>
      <trkpt lat="42.71191" lon="1.63415">
        <ele>1909</ele>
        <time>2020-02-08T14:36:08Z</time>
      </trkpt>
      <trkpt lat="42.71191" lon="1.63415">
        <ele>1909</ele>
        <time>2020-02-08T14:36:09Z</time>
      </trkpt>
      <trkpt lat="42.71191" lon="1.63415">
        <ele>1909</ele>
        <time>2020-02-08T14:36:10Z</time>
      </trkpt>
      <trkpt lat="42.71191" lon="1.63414">
        <ele>1909</ele>
        <time>2020-02-08T14:36:11Z</time>
      </trkpt>
      <trkpt lat="42.7119" lon="1.63414">
        <ele>1909</ele>
        <time>2020-02-08T14:36:12Z</time>
      </trkpt>
      <trkpt lat="42.7119" lon="1.63413">
        <ele>1909.4</ele>
        <time>2020-02-08T14:36:13Z</time>
      </trkpt>
      <trkpt lat="42.7119" lon="1.63413">
        <ele>1909.4</ele>
        <time>2020-02-08T14:36:14Z</time>
      </trkpt>
      <trkpt lat="42.7119" lon="1.63413">
        <ele>1909.4</ele>
        <time>2020-02-08T14:36:15Z</time>
      </trkpt>
      <trkpt lat="42.7119" lon="1.63413">
        <ele>1909.4</ele>
        <time>2020-02-08T14:36:16Z</time>
      </trkpt>
      <trkpt lat="42.7119" lon="1.63411">
        <ele>1909.4</ele>
        <time>2020-02-08T14:36:17Z</time>
      </trkpt>
      <trkpt lat="42.7119" lon="1.63411">
        <ele>1909.4</ele>
        <time>2020-02-08T14:36:18Z</time>
      </trkpt>
      <trkpt lat="42.7119" lon="1.63411">
        <ele>1909.4</ele>
        <time>2020-02-08T14:36:19Z</time>
      </trkpt>
      <trkpt lat="42.7119" lon="1.63411">
        <ele>1909.4</ele>
        <time>2020-02-08T14:36:20Z</time>
      </trkpt>
      <trkpt lat="42.7119" lon="1.63411">
        <ele>1909.4</ele>
        <time>2020-02-08T14:36:21Z</time>
      </trkpt>
      <trkpt lat="42.71189" lon="1.63408">
        <ele>1910.4</ele>
        <time>2020-02-08T14:36:22Z</time>
      </trkpt>
      <trkpt lat="42.71189" lon="1.63408">
        <ele>1910.4</ele>
        <time>2020-02-08T14:36:23Z</time>
      </trkpt>
      <trkpt lat="42.71188" lon="1.63408">
        <ele>1910.4</ele>
        <time>2020-02-08T14:36:24Z</time>
      </trkpt>
      <trkpt lat="42.71188" lon="1.63407">
        <ele>1910.4</ele>
        <time>2020-02-08T14:36:25Z</time>
      </trkpt>
      <trkpt lat="42.71187" lon="1.63407">
        <ele>1910.4</ele>
        <time>2020-02-08T14:36:26Z</time>
      </trkpt>
      <trkpt lat="42.71187" lon="1.63407">
        <ele>1910.4</ele>
        <time>2020-02-08T14:36:27Z</time>
      </trkpt>
      <trkpt lat="42.71187" lon="1.63406">
        <ele>1910.4</ele>
        <time>2020-02-08T14:36:28Z</time>
      </trkpt>
      <trkpt lat="42.71186" lon="1.63406">
        <ele>1910.8</ele>
        <time>2020-02-08T14:36:29Z</time>
      </trkpt>
      <trkpt lat="42.71186" lon="1.63405">
        <ele>1910.8</ele>
        <time>2020-02-08T14:36:30Z</time>
      </trkpt>
      <trkpt lat="42.71185" lon="1.63405">
        <ele>1910.8</ele>
        <time>2020-02-08T14:36:31Z</time>
      </trkpt>
      <trkpt lat="42.71185" lon="1.63404">
        <ele>1911.2</ele>
        <time>2020-02-08T14:36:32Z</time>
      </trkpt>
      <trkpt lat="42.71185" lon="1.63404">
        <ele>1911.2</ele>
        <time>2020-02-08T14:36:33Z</time>
      </trkpt>
      <trkpt lat="42.71184" lon="1.63403">
        <ele>1911.2</ele>
        <time>2020-02-08T14:36:34Z</time>
      </trkpt>
      <trkpt lat="42.71184" lon="1.63402">
        <ele>1911.2</ele>
        <time>2020-02-08T14:36:35Z</time>
      </trkpt>
      <trkpt lat="42.71184" lon="1.63401">
        <ele>1911.2</ele>
        <time>2020-02-08T14:36:36Z</time>
      </trkpt>
      <trkpt lat="42.71184" lon="1.63401">
        <ele>1911.2</ele>
        <time>2020-02-08T14:36:37Z</time>
      </trkpt>
      <trkpt lat="42.71184" lon="1.634">
        <ele>1911.6</ele>
        <time>2020-02-08T14:36:38Z</time>
      </trkpt>
      <trkpt lat="42.71183" lon="1.63399">
        <ele>1911.6</ele>
        <time>2020-02-08T14:36:39Z</time>
      </trkpt>
      <trkpt lat="42.71183" lon="1.63398">
        <ele>1911.6</ele>
        <time>2020-02-08T14:36:40Z</time>
      </trkpt>
      <trkpt lat="42.71183" lon="1.63398">
        <ele>1912</ele>
        <time>2020-02-08T14:36:41Z</time>
      </trkpt>
      <trkpt lat="42.71183" lon="1.63397">
        <ele>1912</ele>
        <time>2020-02-08T14:36:42Z</time>
      </trkpt>
      <trkpt lat="42.71183" lon="1.63396">
        <ele>1912</ele>
        <time>2020-02-08T14:36:43Z</time>
      </trkpt>
      <trkpt lat="42.71183" lon="1.63395">
        <ele>1912.4</ele>
        <time>2020-02-08T14:36:44Z</time>
      </trkpt>
      <trkpt lat="42.71182" lon="1.63394">
        <ele>1912.4</ele>
        <time>2020-02-08T14:36:45Z</time>
      </trkpt>
      <trkpt lat="42.71182" lon="1.63394">
        <ele>1912.4</ele>
        <time>2020-02-08T14:36:46Z</time>
      </trkpt>
      <trkpt lat="42.71182" lon="1.63393">
        <ele>1912.4</ele>
        <time>2020-02-08T14:36:47Z</time>
      </trkpt>
      <trkpt lat="42.71182" lon="1.63392">
        <ele>1912.4</ele>
        <time>2020-02-08T14:36:48Z</time>
      </trkpt>
      <trkpt lat="42.71182" lon="1.63391">
        <ele>1912.7</ele>
        <time>2020-02-08T14:36:49Z</time>
      </trkpt>
      <trkpt lat="42.71182" lon="1.6339">
        <ele>1912.7</ele>
        <time>2020-02-08T14:36:50Z</time>
      </trkpt>
      <trkpt lat="42.71182" lon="1.6339">
        <ele>1912.7</ele>
        <time>2020-02-08T14:36:51Z</time>
      </trkpt>
      <trkpt lat="42.71182" lon="1.63389">
        <ele>1912.7</ele>
        <time>2020-02-08T14:36:52Z</time>
      </trkpt>
      <trkpt lat="42.71182" lon="1.63388">
        <ele>1912.7</ele>
        <time>2020-02-08T14:36:53Z</time>
      </trkpt>
      <trkpt lat="42.71181" lon="1.63387">
        <ele>1913.1</ele>
        <time>2020-02-08T14:36:54Z</time>
      </trkpt>
      <trkpt lat="42.71181" lon="1.63387">
        <ele>1913.1</ele>
        <time>2020-02-08T14:36:55Z</time>
      </trkpt>
      <trkpt lat="42.71181" lon="1.63386">
        <ele>1913.1</ele>
        <time>2020-02-08T14:36:56Z</time>
      </trkpt>
      <trkpt lat="42.7118" lon="1.63385">
        <ele>1913.1</ele>
        <time>2020-02-08T14:36:57Z</time>
      </trkpt>
      <trkpt lat="42.7118" lon="1.63384">
        <ele>1913.1</ele>
        <time>2020-02-08T14:36:58Z</time>
      </trkpt>
      <trkpt lat="42.7118" lon="1.63384">
        <ele>1913.5</ele>
        <time>2020-02-08T14:36:59Z</time>
      </trkpt>
      <trkpt lat="42.71179" lon="1.63383">
        <ele>1913.5</ele>
        <time>2020-02-08T14:37:00Z</time>
      </trkpt>
      <trkpt lat="42.71179" lon="1.63382">
        <ele>1913.8</ele>
        <time>2020-02-08T14:37:01Z</time>
      </trkpt>
      <trkpt lat="42.71179" lon="1.63382">
        <ele>1913.8</ele>
        <time>2020-02-08T14:37:02Z</time>
      </trkpt>
      <trkpt lat="42.71178" lon="1.63381">
        <ele>1913.8</ele>
        <time>2020-02-08T14:37:03Z</time>
      </trkpt>
      <trkpt lat="42.71178" lon="1.63378">
        <ele>1914.1</ele>
        <time>2020-02-08T14:37:04Z</time>
      </trkpt>
      <trkpt lat="42.71178" lon="1.63377">
        <ele>1914.1</ele>
        <time>2020-02-08T14:37:05Z</time>
      </trkpt>
      <trkpt lat="42.71178" lon="1.63377">
        <ele>1914.1</ele>
        <time>2020-02-08T14:37:06Z</time>
      </trkpt>
      <trkpt lat="42.71178" lon="1.63376">
        <ele>1914.1</ele>
        <time>2020-02-08T14:37:07Z</time>
      </trkpt>
      <trkpt lat="42.71178" lon="1.63376">
        <ele>1914.1</ele>
        <time>2020-02-08T14:37:08Z</time>
      </trkpt>
      <trkpt lat="42.71178" lon="1.63375">
        <ele>1914.1</ele>
        <time>2020-02-08T14:37:09Z</time>
      </trkpt>
      <trkpt lat="42.71178" lon="1.63375">
        <ele>1914.1</ele>
        <time>2020-02-08T14:37:10Z</time>
      </trkpt>
      <trkpt lat="42.71178" lon="1.63374">
        <ele>1914.3</ele>
        <time>2020-02-08T14:37:11Z</time>
      </trkpt>
      <trkpt lat="42.71177" lon="1.63374">
        <ele>1914.3</ele>
        <time>2020-02-08T14:37:12Z</time>
      </trkpt>
      <trkpt lat="42.71177" lon="1.63373">
        <ele>1914.3</ele>
        <time>2020-02-08T14:37:13Z</time>
      </trkpt>
      <trkpt lat="42.71177" lon="1.63373">
        <ele>1914.3</ele>
        <time>2020-02-08T14:37:14Z</time>
      </trkpt>
      <trkpt lat="42.71177" lon="1.63373">
        <ele>1914.3</ele>
        <time>2020-02-08T14:37:15Z</time>
      </trkpt>
      <trkpt lat="42.71177" lon="1.63373">
        <ele>1914.3</ele>
        <time>2020-02-08T14:37:16Z</time>
      </trkpt>
      <trkpt lat="42.71177" lon="1.63373">
        <ele>1914.3</ele>
        <time>2020-02-08T14:37:17Z</time>
      </trkpt>
      <trkpt lat="42.71177" lon="1.63373">
        <ele>1914.3</ele>
        <time>2020-02-08T14:37:18Z</time>
      </trkpt>
      <trkpt lat="42.71177" lon="1.63373">
        <ele>1914.3</ele>
        <time>2020-02-08T14:37:19Z</time>
      </trkpt>
      <trkpt lat="42.71177" lon="1.63373">
        <ele>1914.3</ele>
        <time>2020-02-08T14:37:20Z</time>
      </trkpt>
      <trkpt lat="42.71177" lon="1.6337">
        <ele>1914.7</ele>
        <time>2020-02-08T14:37:21Z</time>
      </trkpt>
      <trkpt lat="42.71177" lon="1.6337">
        <ele>1914.7</ele>
        <time>2020-02-08T14:37:22Z</time>
      </trkpt>
      <trkpt lat="42.71177" lon="1.6337">
        <ele>1914.7</ele>
        <time>2020-02-08T14:37:23Z</time>
      </trkpt>
      <trkpt lat="42.71177" lon="1.63369">
        <ele>1914.9</ele>
        <time>2020-02-08T14:37:24Z</time>
      </trkpt>
      <trkpt lat="42.71177" lon="1.63369">
        <ele>1914.9</ele>
        <time>2020-02-08T14:37:25Z</time>
      </trkpt>
      <trkpt lat="42.71177" lon="1.63368">
        <ele>1914.9</ele>
        <time>2020-02-08T14:37:26Z</time>
      </trkpt>
      <trkpt lat="42.71177" lon="1.63367">
        <ele>1914.9</ele>
        <time>2020-02-08T14:37:27Z</time>
      </trkpt>
      <trkpt lat="42.71177" lon="1.63366">
        <ele>1915</ele>
        <time>2020-02-08T14:37:28Z</time>
      </trkpt>
      <trkpt lat="42.71177" lon="1.63365">
        <ele>1915</ele>
        <time>2020-02-08T14:37:29Z</time>
      </trkpt>
      <trkpt lat="42.71177" lon="1.63364">
        <ele>1915</ele>
        <time>2020-02-08T14:37:30Z</time>
      </trkpt>
      <trkpt lat="42.71176" lon="1.63363">
        <ele>1915</ele>
        <time>2020-02-08T14:37:31Z</time>
      </trkpt>
      <trkpt lat="42.71176" lon="1.63362">
        <ele>1915</ele>
        <time>2020-02-08T14:37:32Z</time>
      </trkpt>
      <trkpt lat="42.71176" lon="1.63361">
        <ele>1915.1</ele>
        <time>2020-02-08T14:37:33Z</time>
      </trkpt>
      <trkpt lat="42.71176" lon="1.63361">
        <ele>1915.1</ele>
        <time>2020-02-08T14:37:34Z</time>
      </trkpt>
      <trkpt lat="42.71176" lon="1.6336">
        <ele>1915.1</ele>
        <time>2020-02-08T14:37:35Z</time>
      </trkpt>
      <trkpt lat="42.71176" lon="1.6336">
        <ele>1915.1</ele>
        <time>2020-02-08T14:37:36Z</time>
      </trkpt>
      <trkpt lat="42.71176" lon="1.63359">
        <ele>1915.1</ele>
        <time>2020-02-08T14:37:37Z</time>
      </trkpt>
      <trkpt lat="42.71176" lon="1.63359">
        <ele>1915.1</ele>
        <time>2020-02-08T14:37:38Z</time>
      </trkpt>
      <trkpt lat="42.71176" lon="1.63358">
        <ele>1915.1</ele>
        <time>2020-02-08T14:37:39Z</time>
      </trkpt>
      <trkpt lat="42.71176" lon="1.63357">
        <ele>1915.1</ele>
        <time>2020-02-08T14:37:40Z</time>
      </trkpt>
      <trkpt lat="42.71175" lon="1.63357">
        <ele>1915.2</ele>
        <time>2020-02-08T14:37:41Z</time>
      </trkpt>
      <trkpt lat="42.71175" lon="1.63356">
        <ele>1915.2</ele>
        <time>2020-02-08T14:37:42Z</time>
      </trkpt>
      <trkpt lat="42.71175" lon="1.63356">
        <ele>1915.2</ele>
        <time>2020-02-08T14:37:43Z</time>
      </trkpt>
      <trkpt lat="42.71175" lon="1.63355">
        <ele>1915.2</ele>
        <time>2020-02-08T14:37:44Z</time>
      </trkpt>
      <trkpt lat="42.71175" lon="1.63354">
        <ele>1915.2</ele>
        <time>2020-02-08T14:37:45Z</time>
      </trkpt>
      <trkpt lat="42.71175" lon="1.63353">
        <ele>1915.2</ele>
        <time>2020-02-08T14:37:46Z</time>
      </trkpt>
      <trkpt lat="42.71175" lon="1.63353">
        <ele>1915.2</ele>
        <time>2020-02-08T14:37:47Z</time>
      </trkpt>
      <trkpt lat="42.71175" lon="1.63352">
        <ele>1915.2</ele>
        <time>2020-02-08T14:37:48Z</time>
      </trkpt>
      <trkpt lat="42.71175" lon="1.63351">
        <ele>1915.2</ele>
        <time>2020-02-08T14:37:49Z</time>
      </trkpt>
      <trkpt lat="42.71175" lon="1.6335">
        <ele>1915.2</ele>
        <time>2020-02-08T14:37:50Z</time>
      </trkpt>
      <trkpt lat="42.71175" lon="1.63349">
        <ele>1915.2</ele>
        <time>2020-02-08T14:37:51Z</time>
      </trkpt>
      <trkpt lat="42.71175" lon="1.63349">
        <ele>1915.3</ele>
        <time>2020-02-08T14:37:52Z</time>
      </trkpt>
      <trkpt lat="42.71175" lon="1.63348">
        <ele>1915.3</ele>
        <time>2020-02-08T14:37:53Z</time>
      </trkpt>
      <trkpt lat="42.71174" lon="1.63347">
        <ele>1915.3</ele>
        <time>2020-02-08T14:37:54Z</time>
      </trkpt>
      <trkpt lat="42.71174" lon="1.63347">
        <ele>1915.3</ele>
        <time>2020-02-08T14:37:55Z</time>
      </trkpt>
      <trkpt lat="42.71174" lon="1.63346">
        <ele>1915.3</ele>
        <time>2020-02-08T14:37:56Z</time>
      </trkpt>
      <trkpt lat="42.71174" lon="1.63346">
        <ele>1915.3</ele>
        <time>2020-02-08T14:37:57Z</time>
      </trkpt>
      <trkpt lat="42.71174" lon="1.63345">
        <ele>1915.3</ele>
        <time>2020-02-08T14:37:58Z</time>
      </trkpt>
      <trkpt lat="42.71174" lon="1.63345">
        <ele>1915.8</ele>
        <time>2020-02-08T14:37:59Z</time>
      </trkpt>
      <trkpt lat="42.71173" lon="1.63344">
        <ele>1915.9</ele>
        <time>2020-02-08T14:38:00Z</time>
      </trkpt>
      <trkpt lat="42.71173" lon="1.63344">
        <ele>1915.9</ele>
        <time>2020-02-08T14:38:01Z</time>
      </trkpt>
      <trkpt lat="42.71173" lon="1.63343">
        <ele>1915.9</ele>
        <time>2020-02-08T14:38:02Z</time>
      </trkpt>
      <trkpt lat="42.71173" lon="1.63343">
        <ele>1915.9</ele>
        <time>2020-02-08T14:38:03Z</time>
      </trkpt>
      <trkpt lat="42.71173" lon="1.63343">
        <ele>1915.9</ele>
        <time>2020-02-08T14:38:04Z</time>
      </trkpt>
      <trkpt lat="42.71173" lon="1.63343">
        <ele>1915.9</ele>
        <time>2020-02-08T14:38:05Z</time>
      </trkpt>
      <trkpt lat="42.71173" lon="1.63343">
        <ele>1915.9</ele>
        <time>2020-02-08T14:38:06Z</time>
      </trkpt>
      <trkpt lat="42.71173" lon="1.63343">
        <ele>1915.9</ele>
        <time>2020-02-08T14:38:07Z</time>
      </trkpt>
      <trkpt lat="42.71173" lon="1.63343">
        <ele>1915.9</ele>
        <time>2020-02-08T14:38:08Z</time>
      </trkpt>
      <trkpt lat="42.71173" lon="1.63343">
        <ele>1915.9</ele>
        <time>2020-02-08T14:38:09Z</time>
      </trkpt>
      <trkpt lat="42.71172" lon="1.6334">
        <ele>1915.9</ele>
        <time>2020-02-08T14:38:10Z</time>
      </trkpt>
      <trkpt lat="42.71172" lon="1.6334">
        <ele>1915.9</ele>
        <time>2020-02-08T14:38:11Z</time>
      </trkpt>
      <trkpt lat="42.71172" lon="1.6334">
        <ele>1915.9</ele>
        <time>2020-02-08T14:38:12Z</time>
      </trkpt>
      <trkpt lat="42.71172" lon="1.6334">
        <ele>1915.9</ele>
        <time>2020-02-08T14:38:13Z</time>
      </trkpt>
      <trkpt lat="42.71172" lon="1.6334">
        <ele>1915.9</ele>
        <time>2020-02-08T14:38:14Z</time>
      </trkpt>
      <trkpt lat="42.71172" lon="1.6334">
        <ele>1915.9</ele>
        <time>2020-02-08T14:38:15Z</time>
      </trkpt>
      <trkpt lat="42.71172" lon="1.6334">
        <ele>1915.9</ele>
        <time>2020-02-08T14:38:16Z</time>
      </trkpt>
      <trkpt lat="42.71172" lon="1.6334">
        <ele>1915.9</ele>
        <time>2020-02-08T14:38:17Z</time>
      </trkpt>
      <trkpt lat="42.71172" lon="1.6334">
        <ele>1915.9</ele>
        <time>2020-02-08T14:38:18Z</time>
      </trkpt>
      <trkpt lat="42.71172" lon="1.6334">
        <ele>1915.9</ele>
        <time>2020-02-08T14:38:19Z</time>
      </trkpt>
      <trkpt lat="42.71172" lon="1.6334">
        <ele>1915.9</ele>
        <time>2020-02-08T14:38:20Z</time>
      </trkpt>
      <trkpt lat="42.71172" lon="1.6334">
        <ele>1915.9</ele>
        <time>2020-02-08T14:38:21Z</time>
      </trkpt>
      <trkpt lat="42.71172" lon="1.6334">
        <ele>1915.9</ele>
        <time>2020-02-08T14:38:22Z</time>
      </trkpt>
      <trkpt lat="42.71172" lon="1.6334">
        <ele>1915.9</ele>
        <time>2020-02-08T14:38:23Z</time>
      </trkpt>
      <trkpt lat="42.71172" lon="1.6334">
        <ele>1915.9</ele>
        <time>2020-02-08T14:38:24Z</time>
      </trkpt>
      <trkpt lat="42.71172" lon="1.6334">
        <ele>1915.9</ele>
        <time>2020-02-08T14:38:25Z</time>
      </trkpt>
      <trkpt lat="42.71172" lon="1.6334">
        <ele>1915.9</ele>
        <time>2020-02-08T14:38:26Z</time>
      </trkpt>
      <trkpt lat="42.71172" lon="1.6334">
        <ele>1915.9</ele>
        <time>2020-02-08T14:38:27Z</time>
      </trkpt>
      <trkpt lat="42.71172" lon="1.6334">
        <ele>1915.9</ele>
        <time>2020-02-08T14:38:28Z</time>
      </trkpt>
      <trkpt lat="42.71172" lon="1.6334">
        <ele>1915.9</ele>
        <time>2020-02-08T14:38:29Z</time>
      </trkpt>
      <trkpt lat="42.71172" lon="1.6334">
        <ele>1915.9</ele>
        <time>2020-02-08T14:38:30Z</time>
      </trkpt>
      <trkpt lat="42.71174" lon="1.63339">
        <ele>1915.3</ele>
        <time>2020-02-08T14:38:31Z</time>
      </trkpt>
      <trkpt lat="42.71174" lon="1.63339">
        <ele>1915.3</ele>
        <time>2020-02-08T14:38:32Z</time>
      </trkpt>
      <trkpt lat="42.71174" lon="1.63339">
        <ele>1915.3</ele>
        <time>2020-02-08T14:38:33Z</time>
      </trkpt>
      <trkpt lat="42.71176" lon="1.6334">
        <ele>1915.3</ele>
        <time>2020-02-08T14:38:34Z</time>
      </trkpt>
      <trkpt lat="42.71176" lon="1.6334">
        <ele>1915.3</ele>
        <time>2020-02-08T14:38:35Z</time>
      </trkpt>
      <trkpt lat="42.71176" lon="1.6334">
        <ele>1915.3</ele>
        <time>2020-02-08T14:38:36Z</time>
      </trkpt>
      <trkpt lat="42.71177" lon="1.63342">
        <ele>1914.7</ele>
        <time>2020-02-08T14:38:37Z</time>
      </trkpt>
      <trkpt lat="42.71177" lon="1.63342">
        <ele>1914.7</ele>
        <time>2020-02-08T14:38:38Z</time>
      </trkpt>
      <trkpt lat="42.71177" lon="1.63342">
        <ele>1914.7</ele>
        <time>2020-02-08T14:38:39Z</time>
      </trkpt>
      <trkpt lat="42.71177" lon="1.63342">
        <ele>1914.7</ele>
        <time>2020-02-08T14:38:40Z</time>
      </trkpt>
      <trkpt lat="42.71177" lon="1.63342">
        <ele>1914.7</ele>
        <time>2020-02-08T14:38:41Z</time>
      </trkpt>
      <trkpt lat="42.71177" lon="1.63342">
        <ele>1914.7</ele>
        <time>2020-02-08T14:38:42Z</time>
      </trkpt>
      <trkpt lat="42.71177" lon="1.63342">
        <ele>1914.7</ele>
        <time>2020-02-08T14:38:43Z</time>
      </trkpt>
      <trkpt lat="42.71177" lon="1.63342">
        <ele>1914.7</ele>
        <time>2020-02-08T14:38:44Z</time>
      </trkpt>
      <trkpt lat="42.71177" lon="1.63342">
        <ele>1914.7</ele>
        <time>2020-02-08T14:38:45Z</time>
      </trkpt>
      <trkpt lat="42.71177" lon="1.63342">
        <ele>1914.7</ele>
        <time>2020-02-08T14:38:46Z</time>
      </trkpt>
      <trkpt lat="42.71177" lon="1.63342">
        <ele>1914.7</ele>
        <time>2020-02-08T14:38:47Z</time>
      </trkpt>
      <trkpt lat="42.71177" lon="1.63342">
        <ele>1914.7</ele>
        <time>2020-02-08T14:38:48Z</time>
      </trkpt>
      <trkpt lat="42.71177" lon="1.63342">
        <ele>1914.7</ele>
        <time>2020-02-08T14:38:49Z</time>
      </trkpt>
      <trkpt lat="42.71177" lon="1.63342">
        <ele>1914.7</ele>
        <time>2020-02-08T14:38:50Z</time>
      </trkpt>
      <trkpt lat="42.71177" lon="1.63342">
        <ele>1914.7</ele>
        <time>2020-02-08T14:38:51Z</time>
      </trkpt>
      <trkpt lat="42.71177" lon="1.63342">
        <ele>1914.7</ele>
        <time>2020-02-08T14:38:52Z</time>
      </trkpt>
      <trkpt lat="42.71177" lon="1.63342">
        <ele>1914.7</ele>
        <time>2020-02-08T14:38:53Z</time>
      </trkpt>
      <trkpt lat="42.71177" lon="1.63342">
        <ele>1914.7</ele>
        <time>2020-02-08T14:38:54Z</time>
      </trkpt>
      <trkpt lat="42.71177" lon="1.63342">
        <ele>1914.7</ele>
        <time>2020-02-08T14:38:55Z</time>
      </trkpt>
      <trkpt lat="42.71177" lon="1.63342">
        <ele>1914.7</ele>
        <time>2020-02-08T14:38:56Z</time>
      </trkpt>
      <trkpt lat="42.71177" lon="1.63342">
        <ele>1914.7</ele>
        <time>2020-02-08T14:38:57Z</time>
      </trkpt>
      <trkpt lat="42.71177" lon="1.63342">
        <ele>1914.7</ele>
        <time>2020-02-08T14:38:58Z</time>
      </trkpt>
      <trkpt lat="42.71177" lon="1.63342">
        <ele>1914.7</ele>
        <time>2020-02-08T14:38:59Z</time>
      </trkpt>
      <trkpt lat="42.71177" lon="1.63342">
        <ele>1914.7</ele>
        <time>2020-02-08T14:39:00Z</time>
      </trkpt>
      <trkpt lat="42.71177" lon="1.63342">
        <ele>1914.7</ele>
        <time>2020-02-08T14:39:01Z</time>
      </trkpt>
      <trkpt lat="42.71177" lon="1.63342">
        <ele>1914.7</ele>
        <time>2020-02-08T14:39:02Z</time>
      </trkpt>
      <trkpt lat="42.71177" lon="1.63342">
        <ele>1914.7</ele>
        <time>2020-02-08T14:39:03Z</time>
      </trkpt>
      <trkpt lat="42.71177" lon="1.63342">
        <ele>1914.7</ele>
        <time>2020-02-08T14:39:04Z</time>
      </trkpt>
      <trkpt lat="42.71177" lon="1.63342">
        <ele>1914.7</ele>
        <time>2020-02-08T14:39:05Z</time>
      </trkpt>
      <trkpt lat="42.71177" lon="1.63342">
        <ele>1914.7</ele>
        <time>2020-02-08T14:39:06Z</time>
      </trkpt>
      <trkpt lat="42.71177" lon="1.63342">
        <ele>1914.7</ele>
        <time>2020-02-08T14:39:07Z</time>
      </trkpt>
      <trkpt lat="42.71177" lon="1.63342">
        <ele>1914.7</ele>
        <time>2020-02-08T14:39:08Z</time>
      </trkpt>
      <trkpt lat="42.71177" lon="1.63342">
        <ele>1914.7</ele>
        <time>2020-02-08T14:39:09Z</time>
      </trkpt>
      <trkpt lat="42.71177" lon="1.63342">
        <ele>1914.7</ele>
        <time>2020-02-08T14:39:10Z</time>
      </trkpt>
      <trkpt lat="42.71177" lon="1.63342">
        <ele>1914.7</ele>
        <time>2020-02-08T14:39:11Z</time>
      </trkpt>
      <trkpt lat="42.71177" lon="1.63342">
        <ele>1914.7</ele>
        <time>2020-02-08T14:39:12Z</time>
      </trkpt>
      <trkpt lat="42.71177" lon="1.63342">
        <ele>1914.7</ele>
        <time>2020-02-08T14:39:13Z</time>
      </trkpt>
      <trkpt lat="42.71177" lon="1.63342">
        <ele>1914.7</ele>
        <time>2020-02-08T14:39:14Z</time>
      </trkpt>
      <trkpt lat="42.71177" lon="1.63342">
        <ele>1914.7</ele>
        <time>2020-02-08T14:39:15Z</time>
      </trkpt>
      <trkpt lat="42.71177" lon="1.63342">
        <ele>1914.7</ele>
        <time>2020-02-08T14:39:16Z</time>
      </trkpt>
      <trkpt lat="42.71177" lon="1.63342">
        <ele>1914.7</ele>
        <time>2020-02-08T14:39:17Z</time>
      </trkpt>
      <trkpt lat="42.71177" lon="1.63342">
        <ele>1914.7</ele>
        <time>2020-02-08T14:39:18Z</time>
      </trkpt>
      <trkpt lat="42.71177" lon="1.63342">
        <ele>1914.7</ele>
        <time>2020-02-08T14:39:19Z</time>
      </trkpt>
      <trkpt lat="42.71177" lon="1.63342">
        <ele>1914.7</ele>
        <time>2020-02-08T14:39:20Z</time>
      </trkpt>
      <trkpt lat="42.71177" lon="1.63342">
        <ele>1914.7</ele>
        <time>2020-02-08T14:39:21Z</time>
      </trkpt>
      <trkpt lat="42.71177" lon="1.63342">
        <ele>1914.7</ele>
        <time>2020-02-08T14:39:22Z</time>
      </trkpt>
      <trkpt lat="42.71177" lon="1.63342">
        <ele>1914.7</ele>
        <time>2020-02-08T14:39:23Z</time>
      </trkpt>
      <trkpt lat="42.71177" lon="1.63342">
        <ele>1914.7</ele>
        <time>2020-02-08T14:39:24Z</time>
      </trkpt>
      <trkpt lat="42.71177" lon="1.63342">
        <ele>1914.7</ele>
        <time>2020-02-08T14:39:25Z</time>
      </trkpt>
      <trkpt lat="42.71177" lon="1.63342">
        <ele>1914.7</ele>
        <time>2020-02-08T14:39:26Z</time>
      </trkpt>
      <trkpt lat="42.71177" lon="1.63342">
        <ele>1914.7</ele>
        <time>2020-02-08T14:39:27Z</time>
      </trkpt>
      <trkpt lat="42.71177" lon="1.63342">
        <ele>1914.7</ele>
        <time>2020-02-08T14:39:28Z</time>
      </trkpt>
      <trkpt lat="42.71177" lon="1.63342">
        <ele>1914.7</ele>
        <time>2020-02-08T14:39:29Z</time>
      </trkpt>
      <trkpt lat="42.71177" lon="1.63342">
        <ele>1914.7</ele>
        <time>2020-02-08T14:39:30Z</time>
      </trkpt>
      <trkpt lat="42.71177" lon="1.63342">
        <ele>1914.7</ele>
        <time>2020-02-08T14:39:31Z</time>
      </trkpt>
      <trkpt lat="42.71177" lon="1.63342">
        <ele>1914.7</ele>
        <time>2020-02-08T14:39:32Z</time>
      </trkpt>
      <trkpt lat="42.71177" lon="1.63342">
        <ele>1914.7</ele>
        <time>2020-02-08T14:39:33Z</time>
      </trkpt>
      <trkpt lat="42.71177" lon="1.63342">
        <ele>1914.7</ele>
        <time>2020-02-08T14:39:34Z</time>
      </trkpt>
      <trkpt lat="42.71177" lon="1.63342">
        <ele>1914.7</ele>
        <time>2020-02-08T14:39:35Z</time>
      </trkpt>
      <trkpt lat="42.71177" lon="1.63342">
        <ele>1914.7</ele>
        <time>2020-02-08T14:39:36Z</time>
      </trkpt>
      <trkpt lat="42.71177" lon="1.63342">
        <ele>1914.7</ele>
        <time>2020-02-08T14:39:37Z</time>
      </trkpt>
      <trkpt lat="42.71177" lon="1.63342">
        <ele>1914.7</ele>
        <time>2020-02-08T14:39:38Z</time>
      </trkpt>
      <trkpt lat="42.71177" lon="1.63342">
        <ele>1914.7</ele>
        <time>2020-02-08T14:39:39Z</time>
      </trkpt>
      <trkpt lat="42.71177" lon="1.63342">
        <ele>1914.7</ele>
        <time>2020-02-08T14:39:40Z</time>
      </trkpt>
      <trkpt lat="42.71177" lon="1.63342">
        <ele>1914.7</ele>
        <time>2020-02-08T14:39:41Z</time>
      </trkpt>
      <trkpt lat="42.71177" lon="1.63342">
        <ele>1914.7</ele>
        <time>2020-02-08T14:39:42Z</time>
      </trkpt>
      <trkpt lat="42.71177" lon="1.63342">
        <ele>1914.7</ele>
        <time>2020-02-08T14:39:43Z</time>
      </trkpt>
      <trkpt lat="42.71177" lon="1.63342">
        <ele>1914.7</ele>
        <time>2020-02-08T14:39:44Z</time>
      </trkpt>
      <trkpt lat="42.71177" lon="1.63342">
        <ele>1914.7</ele>
        <time>2020-02-08T14:39:45Z</time>
      </trkpt>
      <trkpt lat="42.71177" lon="1.63342">
        <ele>1914.7</ele>
        <time>2020-02-08T14:39:46Z</time>
      </trkpt>
      <trkpt lat="42.71177" lon="1.63342">
        <ele>1914.7</ele>
        <time>2020-02-08T14:39:47Z</time>
      </trkpt>
      <trkpt lat="42.71177" lon="1.63342">
        <ele>1914.7</ele>
        <time>2020-02-08T14:39:48Z</time>
      </trkpt>
      <trkpt lat="42.71177" lon="1.63342">
        <ele>1914.7</ele>
        <time>2020-02-08T14:39:49Z</time>
      </trkpt>
      <trkpt lat="42.71177" lon="1.63342">
        <ele>1914.7</ele>
        <time>2020-02-08T14:39:50Z</time>
      </trkpt>
      <trkpt lat="42.71177" lon="1.63342">
        <ele>1914.7</ele>
        <time>2020-02-08T14:39:51Z</time>
      </trkpt>
      <trkpt lat="42.71177" lon="1.63342">
        <ele>1914.7</ele>
        <time>2020-02-08T14:39:52Z</time>
      </trkpt>
      <trkpt lat="42.71177" lon="1.63342">
        <ele>1914.7</ele>
        <time>2020-02-08T14:39:53Z</time>
      </trkpt>
      <trkpt lat="42.71177" lon="1.63342">
        <ele>1914.7</ele>
        <time>2020-02-08T14:39:54Z</time>
      </trkpt>
      <trkpt lat="42.71177" lon="1.63342">
        <ele>1914.7</ele>
        <time>2020-02-08T14:39:55Z</time>
      </trkpt>
      <trkpt lat="42.71177" lon="1.63342">
        <ele>1914.7</ele>
        <time>2020-02-08T14:39:56Z</time>
      </trkpt>
      <trkpt lat="42.71177" lon="1.63342">
        <ele>1914.7</ele>
        <time>2020-02-08T14:39:57Z</time>
      </trkpt>
      <trkpt lat="42.71177" lon="1.63342">
        <ele>1914.7</ele>
        <time>2020-02-08T14:39:58Z</time>
      </trkpt>
      <trkpt lat="42.71177" lon="1.63342">
        <ele>1914.7</ele>
        <time>2020-02-08T14:39:59Z</time>
      </trkpt>
      <trkpt lat="42.71177" lon="1.63342">
        <ele>1914.7</ele>
        <time>2020-02-08T14:40:00Z</time>
      </trkpt>
      <trkpt lat="42.71177" lon="1.63342">
        <ele>1914.7</ele>
        <time>2020-02-08T14:40:01Z</time>
      </trkpt>
      <trkpt lat="42.71177" lon="1.63342">
        <ele>1914.7</ele>
        <time>2020-02-08T14:40:02Z</time>
      </trkpt>
      <trkpt lat="42.71177" lon="1.63342">
        <ele>1914.7</ele>
        <time>2020-02-08T14:40:03Z</time>
      </trkpt>
      <trkpt lat="42.71177" lon="1.63342">
        <ele>1914.7</ele>
        <time>2020-02-08T14:40:04Z</time>
      </trkpt>
      <trkpt lat="42.71177" lon="1.63342">
        <ele>1914.7</ele>
        <time>2020-02-08T14:40:05Z</time>
      </trkpt>
      <trkpt lat="42.71177" lon="1.63342">
        <ele>1914.7</ele>
        <time>2020-02-08T14:40:06Z</time>
      </trkpt>
      <trkpt lat="42.71177" lon="1.63342">
        <ele>1914.7</ele>
        <time>2020-02-08T14:40:07Z</time>
      </trkpt>
      <trkpt lat="42.71177" lon="1.63342">
        <ele>1914.7</ele>
        <time>2020-02-08T14:40:08Z</time>
      </trkpt>
      <trkpt lat="42.71177" lon="1.63342">
        <ele>1914.7</ele>
        <time>2020-02-08T14:40:09Z</time>
      </trkpt>
      <trkpt lat="42.71177" lon="1.63342">
        <ele>1914.7</ele>
        <time>2020-02-08T14:40:10Z</time>
      </trkpt>
      <trkpt lat="42.71177" lon="1.63342">
        <ele>1914.7</ele>
        <time>2020-02-08T14:40:11Z</time>
      </trkpt>
      <trkpt lat="42.71177" lon="1.63342">
        <ele>1914.7</ele>
        <time>2020-02-08T14:40:12Z</time>
      </trkpt>
      <trkpt lat="42.71177" lon="1.63342">
        <ele>1914.7</ele>
        <time>2020-02-08T14:40:13Z</time>
      </trkpt>
      <trkpt lat="42.71177" lon="1.63342">
        <ele>1914.7</ele>
        <time>2020-02-08T14:40:14Z</time>
      </trkpt>
      <trkpt lat="42.71177" lon="1.63342">
        <ele>1914.7</ele>
        <time>2020-02-08T14:40:15Z</time>
      </trkpt>
      <trkpt lat="42.71177" lon="1.63342">
        <ele>1914.7</ele>
        <time>2020-02-08T14:40:16Z</time>
      </trkpt>
      <trkpt lat="42.71177" lon="1.63342">
        <ele>1914.7</ele>
        <time>2020-02-08T14:40:17Z</time>
      </trkpt>
      <trkpt lat="42.71177" lon="1.63342">
        <ele>1914.7</ele>
        <time>2020-02-08T14:40:18Z</time>
      </trkpt>
      <trkpt lat="42.71177" lon="1.63342">
        <ele>1914.7</ele>
        <time>2020-02-08T14:40:19Z</time>
      </trkpt>
      <trkpt lat="42.71177" lon="1.63342">
        <ele>1914.7</ele>
        <time>2020-02-08T14:40:20Z</time>
      </trkpt>
      <trkpt lat="42.71177" lon="1.63342">
        <ele>1914.7</ele>
        <time>2020-02-08T14:40:21Z</time>
      </trkpt>
      <trkpt lat="42.71177" lon="1.63342">
        <ele>1914.7</ele>
        <time>2020-02-08T14:40:22Z</time>
      </trkpt>
      <trkpt lat="42.71175" lon="1.63342">
        <ele>1915.3</ele>
        <time>2020-02-08T14:40:23Z</time>
      </trkpt>
      <trkpt lat="42.71175" lon="1.63342">
        <ele>1915.3</ele>
        <time>2020-02-08T14:40:24Z</time>
      </trkpt>
      <trkpt lat="42.71175" lon="1.63342">
        <ele>1915.3</ele>
        <time>2020-02-08T14:40:25Z</time>
      </trkpt>
      <trkpt lat="42.71175" lon="1.63342">
        <ele>1915.3</ele>
        <time>2020-02-08T14:40:26Z</time>
      </trkpt>
      <trkpt lat="42.71174" lon="1.63341">
        <ele>1915.9</ele>
        <time>2020-02-08T14:40:27Z</time>
      </trkpt>
      <trkpt lat="42.71174" lon="1.63341">
        <ele>1915.9</ele>
        <time>2020-02-08T14:40:28Z</time>
      </trkpt>
      <trkpt lat="42.71174" lon="1.63341">
        <ele>1915.9</ele>
        <time>2020-02-08T14:40:29Z</time>
      </trkpt>
      <trkpt lat="42.71174" lon="1.63341">
        <ele>1915.9</ele>
        <time>2020-02-08T14:40:30Z</time>
      </trkpt>
      <trkpt lat="42.71174" lon="1.63341">
        <ele>1915.9</ele>
        <time>2020-02-08T14:40:31Z</time>
      </trkpt>
      <trkpt lat="42.71174" lon="1.63341">
        <ele>1915.9</ele>
        <time>2020-02-08T14:40:32Z</time>
      </trkpt>
      <trkpt lat="42.71174" lon="1.63341">
        <ele>1915.9</ele>
        <time>2020-02-08T14:40:33Z</time>
      </trkpt>
      <trkpt lat="42.71174" lon="1.63341">
        <ele>1915.9</ele>
        <time>2020-02-08T14:40:34Z</time>
      </trkpt>
      <trkpt lat="42.71174" lon="1.63341">
        <ele>1915.9</ele>
        <time>2020-02-08T14:40:35Z</time>
      </trkpt>
      <trkpt lat="42.71174" lon="1.63341">
        <ele>1915.9</ele>
        <time>2020-02-08T14:40:36Z</time>
      </trkpt>
      <trkpt lat="42.71174" lon="1.63341">
        <ele>1915.9</ele>
        <time>2020-02-08T14:40:37Z</time>
      </trkpt>
      <trkpt lat="42.71174" lon="1.63341">
        <ele>1915.9</ele>
        <time>2020-02-08T14:40:38Z</time>
      </trkpt>
      <trkpt lat="42.71174" lon="1.63341">
        <ele>1915.9</ele>
        <time>2020-02-08T14:40:39Z</time>
      </trkpt>
      <trkpt lat="42.71174" lon="1.63341">
        <ele>1915.9</ele>
        <time>2020-02-08T14:40:40Z</time>
      </trkpt>
      <trkpt lat="42.71174" lon="1.63341">
        <ele>1915.9</ele>
        <time>2020-02-08T14:40:41Z</time>
      </trkpt>
      <trkpt lat="42.71174" lon="1.63341">
        <ele>1915.9</ele>
        <time>2020-02-08T14:40:42Z</time>
      </trkpt>
      <trkpt lat="42.71174" lon="1.63341">
        <ele>1915.9</ele>
        <time>2020-02-08T14:40:43Z</time>
      </trkpt>
      <trkpt lat="42.71174" lon="1.63341">
        <ele>1915.9</ele>
        <time>2020-02-08T14:40:44Z</time>
      </trkpt>
      <trkpt lat="42.71174" lon="1.63341">
        <ele>1915.9</ele>
        <time>2020-02-08T14:40:45Z</time>
      </trkpt>
      <trkpt lat="42.71174" lon="1.63341">
        <ele>1915.9</ele>
        <time>2020-02-08T14:40:46Z</time>
      </trkpt>
      <trkpt lat="42.71174" lon="1.63341">
        <ele>1915.9</ele>
        <time>2020-02-08T14:40:47Z</time>
      </trkpt>
      <trkpt lat="42.71174" lon="1.63341">
        <ele>1915.9</ele>
        <time>2020-02-08T14:40:48Z</time>
      </trkpt>
      <trkpt lat="42.71174" lon="1.63341">
        <ele>1915.9</ele>
        <time>2020-02-08T14:40:49Z</time>
      </trkpt>
      <trkpt lat="42.71174" lon="1.63341">
        <ele>1915.9</ele>
        <time>2020-02-08T14:40:50Z</time>
      </trkpt>
      <trkpt lat="42.71174" lon="1.63341">
        <ele>1915.9</ele>
        <time>2020-02-08T14:40:51Z</time>
      </trkpt>
      <trkpt lat="42.71174" lon="1.63341">
        <ele>1915.9</ele>
        <time>2020-02-08T14:40:52Z</time>
      </trkpt>
      <trkpt lat="42.71174" lon="1.63341">
        <ele>1915.9</ele>
        <time>2020-02-08T14:40:53Z</time>
      </trkpt>
      <trkpt lat="42.71174" lon="1.63341">
        <ele>1915.9</ele>
        <time>2020-02-08T14:40:54Z</time>
      </trkpt>
      <trkpt lat="42.71174" lon="1.63341">
        <ele>1915.9</ele>
        <time>2020-02-08T14:40:55Z</time>
      </trkpt>
      <trkpt lat="42.71174" lon="1.63341">
        <ele>1915.9</ele>
        <time>2020-02-08T14:40:56Z</time>
      </trkpt>
      <trkpt lat="42.71174" lon="1.63341">
        <ele>1915.9</ele>
        <time>2020-02-08T14:40:57Z</time>
      </trkpt>
      <trkpt lat="42.71174" lon="1.63341">
        <ele>1915.9</ele>
        <time>2020-02-08T14:40:58Z</time>
      </trkpt>
      <trkpt lat="42.71174" lon="1.63341">
        <ele>1915.9</ele>
        <time>2020-02-08T14:40:59Z</time>
      </trkpt>
      <trkpt lat="42.71174" lon="1.63341">
        <ele>1915.9</ele>
        <time>2020-02-08T14:41:00Z</time>
      </trkpt>
      <trkpt lat="42.71174" lon="1.63341">
        <ele>1915.9</ele>
        <time>2020-02-08T14:41:01Z</time>
      </trkpt>
      <trkpt lat="42.71174" lon="1.63341">
        <ele>1915.9</ele>
        <time>2020-02-08T14:41:02Z</time>
      </trkpt>
      <trkpt lat="42.71174" lon="1.63341">
        <ele>1915.9</ele>
        <time>2020-02-08T14:41:03Z</time>
      </trkpt>
      <trkpt lat="42.71174" lon="1.63341">
        <ele>1915.9</ele>
        <time>2020-02-08T14:41:04Z</time>
      </trkpt>
      <trkpt lat="42.71174" lon="1.63341">
        <ele>1915.9</ele>
        <time>2020-02-08T14:41:05Z</time>
      </trkpt>
      <trkpt lat="42.71174" lon="1.63341">
        <ele>1915.9</ele>
        <time>2020-02-08T14:41:06Z</time>
      </trkpt>
      <trkpt lat="42.71174" lon="1.63341">
        <ele>1915.9</ele>
        <time>2020-02-08T14:41:07Z</time>
      </trkpt>
      <trkpt lat="42.71174" lon="1.63341">
        <ele>1915.9</ele>
        <time>2020-02-08T14:41:08Z</time>
      </trkpt>
      <trkpt lat="42.71174" lon="1.63341">
        <ele>1915.9</ele>
        <time>2020-02-08T14:41:09Z</time>
      </trkpt>
      <trkpt lat="42.71174" lon="1.63341">
        <ele>1915.9</ele>
        <time>2020-02-08T14:41:10Z</time>
      </trkpt>
      <trkpt lat="42.71174" lon="1.63341">
        <ele>1915.9</ele>
        <time>2020-02-08T14:41:11Z</time>
      </trkpt>
      <trkpt lat="42.71174" lon="1.63341">
        <ele>1915.9</ele>
        <time>2020-02-08T14:41:12Z</time>
      </trkpt>
      <trkpt lat="42.71174" lon="1.63341">
        <ele>1915.9</ele>
        <time>2020-02-08T14:41:13Z</time>
      </trkpt>
      <trkpt lat="42.71174" lon="1.63341">
        <ele>1915.9</ele>
        <time>2020-02-08T14:41:14Z</time>
      </trkpt>
      <trkpt lat="42.71174" lon="1.63341">
        <ele>1915.9</ele>
        <time>2020-02-08T14:41:15Z</time>
      </trkpt>
      <trkpt lat="42.71174" lon="1.63341">
        <ele>1915.9</ele>
        <time>2020-02-08T14:41:16Z</time>
      </trkpt>
      <trkpt lat="42.71174" lon="1.63341">
        <ele>1915.9</ele>
        <time>2020-02-08T14:41:17Z</time>
      </trkpt>
      <trkpt lat="42.71174" lon="1.63341">
        <ele>1915.9</ele>
        <time>2020-02-08T14:41:18Z</time>
      </trkpt>
      <trkpt lat="42.71174" lon="1.63341">
        <ele>1915.9</ele>
        <time>2020-02-08T14:41:19Z</time>
      </trkpt>
      <trkpt lat="42.71174" lon="1.63341">
        <ele>1915.9</ele>
        <time>2020-02-08T14:41:20Z</time>
      </trkpt>
      <trkpt lat="42.71174" lon="1.63341">
        <ele>1915.9</ele>
        <time>2020-02-08T14:41:21Z</time>
      </trkpt>
      <trkpt lat="42.71174" lon="1.63341">
        <ele>1915.9</ele>
        <time>2020-02-08T14:41:22Z</time>
      </trkpt>
      <trkpt lat="42.71174" lon="1.63341">
        <ele>1915.9</ele>
        <time>2020-02-08T14:41:23Z</time>
      </trkpt>
      <trkpt lat="42.71174" lon="1.63341">
        <ele>1915.9</ele>
        <time>2020-02-08T14:41:24Z</time>
      </trkpt>
      <trkpt lat="42.71174" lon="1.63341">
        <ele>1915.9</ele>
        <time>2020-02-08T14:41:25Z</time>
      </trkpt>
      <trkpt lat="42.71174" lon="1.63341">
        <ele>1915.9</ele>
        <time>2020-02-08T14:41:26Z</time>
      </trkpt>
      <trkpt lat="42.71174" lon="1.63341">
        <ele>1915.9</ele>
        <time>2020-02-08T14:41:27Z</time>
      </trkpt>
      <trkpt lat="42.71174" lon="1.63341">
        <ele>1915.9</ele>
        <time>2020-02-08T14:41:28Z</time>
      </trkpt>
      <trkpt lat="42.71174" lon="1.63341">
        <ele>1915.9</ele>
        <time>2020-02-08T14:41:29Z</time>
      </trkpt>
      <trkpt lat="42.71174" lon="1.63341">
        <ele>1915.9</ele>
        <time>2020-02-08T14:41:30Z</time>
      </trkpt>
      <trkpt lat="42.71174" lon="1.63341">
        <ele>1915.9</ele>
        <time>2020-02-08T14:41:31Z</time>
      </trkpt>
      <trkpt lat="42.71174" lon="1.63341">
        <ele>1915.9</ele>
        <time>2020-02-08T14:41:32Z</time>
      </trkpt>
      <trkpt lat="42.71174" lon="1.63341">
        <ele>1915.9</ele>
        <time>2020-02-08T14:41:33Z</time>
      </trkpt>
      <trkpt lat="42.71174" lon="1.63341">
        <ele>1915.9</ele>
        <time>2020-02-08T14:41:34Z</time>
      </trkpt>
      <trkpt lat="42.71174" lon="1.63341">
        <ele>1915.9</ele>
        <time>2020-02-08T14:41:35Z</time>
      </trkpt>
      <trkpt lat="42.71174" lon="1.63341">
        <ele>1915.9</ele>
        <time>2020-02-08T14:41:36Z</time>
      </trkpt>
      <trkpt lat="42.71174" lon="1.63341">
        <ele>1915.9</ele>
        <time>2020-02-08T14:41:37Z</time>
      </trkpt>
      <trkpt lat="42.71174" lon="1.63341">
        <ele>1915.9</ele>
        <time>2020-02-08T14:41:38Z</time>
      </trkpt>
      <trkpt lat="42.71174" lon="1.63341">
        <ele>1915.9</ele>
        <time>2020-02-08T14:41:39Z</time>
      </trkpt>
      <trkpt lat="42.71174" lon="1.63341">
        <ele>1915.9</ele>
        <time>2020-02-08T14:41:40Z</time>
      </trkpt>
      <trkpt lat="42.71174" lon="1.63341">
        <ele>1915.9</ele>
        <time>2020-02-08T14:41:41Z</time>
      </trkpt>
      <trkpt lat="42.71174" lon="1.63341">
        <ele>1915.9</ele>
        <time>2020-02-08T14:41:42Z</time>
      </trkpt>
      <trkpt lat="42.71174" lon="1.63341">
        <ele>1915.9</ele>
        <time>2020-02-08T14:41:43Z</time>
      </trkpt>
      <trkpt lat="42.71174" lon="1.63341">
        <ele>1915.9</ele>
        <time>2020-02-08T14:41:44Z</time>
      </trkpt>
      <trkpt lat="42.71174" lon="1.63341">
        <ele>1915.9</ele>
        <time>2020-02-08T14:41:45Z</time>
      </trkpt>
      <trkpt lat="42.71174" lon="1.63341">
        <ele>1915.9</ele>
        <time>2020-02-08T14:41:46Z</time>
      </trkpt>
      <trkpt lat="42.71174" lon="1.63341">
        <ele>1915.9</ele>
        <time>2020-02-08T14:41:47Z</time>
      </trkpt>
      <trkpt lat="42.71174" lon="1.63341">
        <ele>1915.9</ele>
        <time>2020-02-08T14:41:48Z</time>
      </trkpt>
      <trkpt lat="42.71174" lon="1.63341">
        <ele>1915.9</ele>
        <time>2020-02-08T14:41:49Z</time>
      </trkpt>
      <trkpt lat="42.71174" lon="1.63341">
        <ele>1915.9</ele>
        <time>2020-02-08T14:41:50Z</time>
      </trkpt>
      <trkpt lat="42.71174" lon="1.63341">
        <ele>1915.9</ele>
        <time>2020-02-08T14:41:51Z</time>
      </trkpt>
      <trkpt lat="42.71174" lon="1.63341">
        <ele>1915.9</ele>
        <time>2020-02-08T14:41:52Z</time>
      </trkpt>
      <trkpt lat="42.71174" lon="1.63341">
        <ele>1915.9</ele>
        <time>2020-02-08T14:41:53Z</time>
      </trkpt>
      <trkpt lat="42.71174" lon="1.63341">
        <ele>1915.9</ele>
        <time>2020-02-08T14:41:54Z</time>
      </trkpt>
      <trkpt lat="42.71174" lon="1.63341">
        <ele>1915.9</ele>
        <time>2020-02-08T14:41:55Z</time>
      </trkpt>
      <trkpt lat="42.71174" lon="1.63341">
        <ele>1915.9</ele>
        <time>2020-02-08T14:41:56Z</time>
      </trkpt>
      <trkpt lat="42.71174" lon="1.63341">
        <ele>1915.9</ele>
        <time>2020-02-08T14:41:57Z</time>
      </trkpt>
      <trkpt lat="42.71174" lon="1.63341">
        <ele>1915.9</ele>
        <time>2020-02-08T14:41:58Z</time>
      </trkpt>
      <trkpt lat="42.71174" lon="1.63341">
        <ele>1915.9</ele>
        <time>2020-02-08T14:41:59Z</time>
      </trkpt>
      <trkpt lat="42.71174" lon="1.63341">
        <ele>1915.9</ele>
        <time>2020-02-08T14:42:00Z</time>
      </trkpt>
      <trkpt lat="42.71174" lon="1.63341">
        <ele>1915.9</ele>
        <time>2020-02-08T14:42:01Z</time>
      </trkpt>
      <trkpt lat="42.71174" lon="1.63341">
        <ele>1915.9</ele>
        <time>2020-02-08T14:42:02Z</time>
      </trkpt>
      <trkpt lat="42.71174" lon="1.63341">
        <ele>1915.9</ele>
        <time>2020-02-08T14:42:03Z</time>
      </trkpt>
      <trkpt lat="42.71174" lon="1.63341">
        <ele>1915.9</ele>
        <time>2020-02-08T14:42:04Z</time>
      </trkpt>
      <trkpt lat="42.71174" lon="1.63341">
        <ele>1915.9</ele>
        <time>2020-02-08T14:42:05Z</time>
      </trkpt>
      <trkpt lat="42.71174" lon="1.63341">
        <ele>1915.9</ele>
        <time>2020-02-08T14:42:06Z</time>
      </trkpt>
      <trkpt lat="42.71174" lon="1.63341">
        <ele>1915.9</ele>
        <time>2020-02-08T14:42:07Z</time>
      </trkpt>
      <trkpt lat="42.71174" lon="1.63341">
        <ele>1915.9</ele>
        <time>2020-02-08T14:42:08Z</time>
      </trkpt>
      <trkpt lat="42.71174" lon="1.63341">
        <ele>1915.9</ele>
        <time>2020-02-08T14:42:09Z</time>
      </trkpt>
      <trkpt lat="42.71174" lon="1.63341">
        <ele>1915.9</ele>
        <time>2020-02-08T14:42:10Z</time>
      </trkpt>
      <trkpt lat="42.71174" lon="1.63341">
        <ele>1915.9</ele>
        <time>2020-02-08T14:42:11Z</time>
      </trkpt>
      <trkpt lat="42.71174" lon="1.63341">
        <ele>1915.9</ele>
        <time>2020-02-08T14:42:12Z</time>
      </trkpt>
      <trkpt lat="42.71174" lon="1.63341">
        <ele>1915.9</ele>
        <time>2020-02-08T14:42:13Z</time>
      </trkpt>
      <trkpt lat="42.71174" lon="1.63341">
        <ele>1915.9</ele>
        <time>2020-02-08T14:42:14Z</time>
      </trkpt>
      <trkpt lat="42.71174" lon="1.63341">
        <ele>1915.9</ele>
        <time>2020-02-08T14:42:15Z</time>
      </trkpt>
      <trkpt lat="42.71174" lon="1.63341">
        <ele>1915.9</ele>
        <time>2020-02-08T14:42:16Z</time>
      </trkpt>
      <trkpt lat="42.71174" lon="1.63341">
        <ele>1915.9</ele>
        <time>2020-02-08T14:42:17Z</time>
      </trkpt>
      <trkpt lat="42.71174" lon="1.63341">
        <ele>1915.9</ele>
        <time>2020-02-08T14:42:18Z</time>
      </trkpt>
      <trkpt lat="42.71174" lon="1.63341">
        <ele>1915.9</ele>
        <time>2020-02-08T14:42:19Z</time>
      </trkpt>
      <trkpt lat="42.71174" lon="1.63341">
        <ele>1915.9</ele>
        <time>2020-02-08T14:42:20Z</time>
      </trkpt>
      <trkpt lat="42.71174" lon="1.63341">
        <ele>1915.9</ele>
        <time>2020-02-08T14:42:21Z</time>
      </trkpt>
      <trkpt lat="42.71174" lon="1.63341">
        <ele>1915.9</ele>
        <time>2020-02-08T14:42:22Z</time>
      </trkpt>
      <trkpt lat="42.71174" lon="1.63341">
        <ele>1915.9</ele>
        <time>2020-02-08T14:42:23Z</time>
      </trkpt>
      <trkpt lat="42.71174" lon="1.63341">
        <ele>1915.9</ele>
        <time>2020-02-08T14:42:24Z</time>
      </trkpt>
      <trkpt lat="42.71174" lon="1.63341">
        <ele>1915.9</ele>
        <time>2020-02-08T14:42:25Z</time>
      </trkpt>
      <trkpt lat="42.71174" lon="1.63341">
        <ele>1915.9</ele>
        <time>2020-02-08T14:42:26Z</time>
      </trkpt>
      <trkpt lat="42.71174" lon="1.63341">
        <ele>1915.9</ele>
        <time>2020-02-08T14:42:27Z</time>
      </trkpt>
      <trkpt lat="42.71174" lon="1.63341">
        <ele>1915.9</ele>
        <time>2020-02-08T14:42:28Z</time>
      </trkpt>
      <trkpt lat="42.71174" lon="1.63341">
        <ele>1915.9</ele>
        <time>2020-02-08T14:42:29Z</time>
      </trkpt>
      <trkpt lat="42.71174" lon="1.63341">
        <ele>1915.9</ele>
        <time>2020-02-08T14:42:30Z</time>
      </trkpt>
      <trkpt lat="42.71174" lon="1.63341">
        <ele>1915.9</ele>
        <time>2020-02-08T14:42:31Z</time>
      </trkpt>
      <trkpt lat="42.71174" lon="1.63341">
        <ele>1915.9</ele>
        <time>2020-02-08T14:42:32Z</time>
      </trkpt>
      <trkpt lat="42.71174" lon="1.63341">
        <ele>1915.9</ele>
        <time>2020-02-08T14:42:33Z</time>
      </trkpt>
      <trkpt lat="42.71174" lon="1.63341">
        <ele>1915.9</ele>
        <time>2020-02-08T14:42:34Z</time>
      </trkpt>
      <trkpt lat="42.71174" lon="1.63341">
        <ele>1915.9</ele>
        <time>2020-02-08T14:42:35Z</time>
      </trkpt>
      <trkpt lat="42.71174" lon="1.63341">
        <ele>1915.9</ele>
        <time>2020-02-08T14:42:36Z</time>
      </trkpt>
      <trkpt lat="42.71174" lon="1.63341">
        <ele>1915.9</ele>
        <time>2020-02-08T14:42:37Z</time>
      </trkpt>
      <trkpt lat="42.71174" lon="1.63341">
        <ele>1915.9</ele>
        <time>2020-02-08T14:42:38Z</time>
      </trkpt>
      <trkpt lat="42.71174" lon="1.63341">
        <ele>1915.9</ele>
        <time>2020-02-08T14:42:39Z</time>
      </trkpt>
      <trkpt lat="42.71174" lon="1.63341">
        <ele>1915.9</ele>
        <time>2020-02-08T14:42:40Z</time>
      </trkpt>
      <trkpt lat="42.71174" lon="1.63341">
        <ele>1915.9</ele>
        <time>2020-02-08T14:42:41Z</time>
      </trkpt>
      <trkpt lat="42.71174" lon="1.63341">
        <ele>1915.9</ele>
        <time>2020-02-08T14:42:42Z</time>
      </trkpt>
      <trkpt lat="42.71174" lon="1.63341">
        <ele>1915.9</ele>
        <time>2020-02-08T14:42:43Z</time>
      </trkpt>
      <trkpt lat="42.71174" lon="1.63341">
        <ele>1915.9</ele>
        <time>2020-02-08T14:42:44Z</time>
      </trkpt>
      <trkpt lat="42.71174" lon="1.63341">
        <ele>1915.9</ele>
        <time>2020-02-08T14:42:45Z</time>
      </trkpt>
      <trkpt lat="42.71174" lon="1.63341">
        <ele>1915.9</ele>
        <time>2020-02-08T14:42:46Z</time>
      </trkpt>
      <trkpt lat="42.71174" lon="1.63341">
        <ele>1915.9</ele>
        <time>2020-02-08T14:42:47Z</time>
      </trkpt>
      <trkpt lat="42.71174" lon="1.63341">
        <ele>1915.9</ele>
        <time>2020-02-08T14:42:48Z</time>
      </trkpt>
      <trkpt lat="42.71174" lon="1.63341">
        <ele>1915.9</ele>
        <time>2020-02-08T14:42:49Z</time>
      </trkpt>
      <trkpt lat="42.71174" lon="1.63341">
        <ele>1915.9</ele>
        <time>2020-02-08T14:42:50Z</time>
      </trkpt>
      <trkpt lat="42.71174" lon="1.63341">
        <ele>1915.9</ele>
        <time>2020-02-08T14:42:51Z</time>
      </trkpt>
      <trkpt lat="42.71174" lon="1.63341">
        <ele>1915.9</ele>
        <time>2020-02-08T14:42:52Z</time>
      </trkpt>
      <trkpt lat="42.71174" lon="1.63341">
        <ele>1915.9</ele>
        <time>2020-02-08T14:42:53Z</time>
      </trkpt>
      <trkpt lat="42.71174" lon="1.63341">
        <ele>1915.9</ele>
        <time>2020-02-08T14:42:54Z</time>
      </trkpt>
      <trkpt lat="42.71174" lon="1.63341">
        <ele>1915.9</ele>
        <time>2020-02-08T14:42:55Z</time>
      </trkpt>
      <trkpt lat="42.71174" lon="1.63341">
        <ele>1915.9</ele>
        <time>2020-02-08T14:42:56Z</time>
      </trkpt>
      <trkpt lat="42.71174" lon="1.63341">
        <ele>1915.9</ele>
        <time>2020-02-08T14:42:57Z</time>
      </trkpt>
      <trkpt lat="42.71174" lon="1.63341">
        <ele>1915.9</ele>
        <time>2020-02-08T14:42:58Z</time>
      </trkpt>
      <trkpt lat="42.71174" lon="1.63341">
        <ele>1915.9</ele>
        <time>2020-02-08T14:42:59Z</time>
      </trkpt>
      <trkpt lat="42.71174" lon="1.63341">
        <ele>1915.9</ele>
        <time>2020-02-08T14:43:00Z</time>
      </trkpt>
      <trkpt lat="42.71174" lon="1.63341">
        <ele>1915.9</ele>
        <time>2020-02-08T14:43:01Z</time>
      </trkpt>
      <trkpt lat="42.71174" lon="1.63341">
        <ele>1915.9</ele>
        <time>2020-02-08T14:43:02Z</time>
      </trkpt>
      <trkpt lat="42.71174" lon="1.63341">
        <ele>1915.9</ele>
        <time>2020-02-08T14:43:03Z</time>
      </trkpt>
      <trkpt lat="42.71174" lon="1.63341">
        <ele>1915.9</ele>
        <time>2020-02-08T14:43:04Z</time>
      </trkpt>
      <trkpt lat="42.71174" lon="1.63341">
        <ele>1915.9</ele>
        <time>2020-02-08T14:43:05Z</time>
      </trkpt>
      <trkpt lat="42.71174" lon="1.63341">
        <ele>1915.9</ele>
        <time>2020-02-08T14:43:06Z</time>
      </trkpt>
      <trkpt lat="42.71174" lon="1.63341">
        <ele>1915.9</ele>
        <time>2020-02-08T14:43:07Z</time>
      </trkpt>
      <trkpt lat="42.71174" lon="1.63341">
        <ele>1915.9</ele>
        <time>2020-02-08T14:43:08Z</time>
      </trkpt>
      <trkpt lat="42.71174" lon="1.63341">
        <ele>1915.9</ele>
        <time>2020-02-08T14:43:09Z</time>
      </trkpt>
      <trkpt lat="42.71174" lon="1.63341">
        <ele>1915.9</ele>
        <time>2020-02-08T14:43:10Z</time>
      </trkpt>
      <trkpt lat="42.71174" lon="1.63341">
        <ele>1915.9</ele>
        <time>2020-02-08T14:43:11Z</time>
      </trkpt>
      <trkpt lat="42.71174" lon="1.63341">
        <ele>1915.9</ele>
        <time>2020-02-08T14:43:12Z</time>
      </trkpt>
      <trkpt lat="42.71174" lon="1.63341">
        <ele>1915.9</ele>
        <time>2020-02-08T14:43:13Z</time>
      </trkpt>
      <trkpt lat="42.71174" lon="1.63341">
        <ele>1915.9</ele>
        <time>2020-02-08T14:43:14Z</time>
      </trkpt>
      <trkpt lat="42.71174" lon="1.63341">
        <ele>1915.9</ele>
        <time>2020-02-08T14:43:15Z</time>
      </trkpt>
      <trkpt lat="42.71174" lon="1.63341">
        <ele>1915.9</ele>
        <time>2020-02-08T14:43:16Z</time>
      </trkpt>
      <trkpt lat="42.71174" lon="1.63341">
        <ele>1915.9</ele>
        <time>2020-02-08T14:43:17Z</time>
      </trkpt>
      <trkpt lat="42.71174" lon="1.63341">
        <ele>1915.9</ele>
        <time>2020-02-08T14:43:18Z</time>
      </trkpt>
      <trkpt lat="42.71174" lon="1.63341">
        <ele>1915.9</ele>
        <time>2020-02-08T14:43:19Z</time>
      </trkpt>
      <trkpt lat="42.71174" lon="1.63341">
        <ele>1915.9</ele>
        <time>2020-02-08T14:43:20Z</time>
      </trkpt>
      <trkpt lat="42.71174" lon="1.63341">
        <ele>1915.9</ele>
        <time>2020-02-08T14:43:21Z</time>
      </trkpt>
      <trkpt lat="42.71174" lon="1.63341">
        <ele>1915.9</ele>
        <time>2020-02-08T14:43:22Z</time>
      </trkpt>
      <trkpt lat="42.71174" lon="1.63341">
        <ele>1915.9</ele>
        <time>2020-02-08T14:43:23Z</time>
      </trkpt>
      <trkpt lat="42.71174" lon="1.63341">
        <ele>1915.9</ele>
        <time>2020-02-08T14:43:24Z</time>
      </trkpt>
      <trkpt lat="42.71174" lon="1.63341">
        <ele>1915.9</ele>
        <time>2020-02-08T14:43:25Z</time>
      </trkpt>
      <trkpt lat="42.71172" lon="1.63339">
        <ele>1915.9</ele>
        <time>2020-02-08T14:43:26Z</time>
      </trkpt>
      <trkpt lat="42.71172" lon="1.63339">
        <ele>1915.9</ele>
        <time>2020-02-08T14:43:27Z</time>
      </trkpt>
      <trkpt lat="42.71172" lon="1.63339">
        <ele>1915.9</ele>
        <time>2020-02-08T14:43:28Z</time>
      </trkpt>
      <trkpt lat="42.71172" lon="1.63339">
        <ele>1915.9</ele>
        <time>2020-02-08T14:43:29Z</time>
      </trkpt>
      <trkpt lat="42.71172" lon="1.63339">
        <ele>1915.9</ele>
        <time>2020-02-08T14:43:30Z</time>
      </trkpt>
      <trkpt lat="42.71172" lon="1.63339">
        <ele>1915.9</ele>
        <time>2020-02-08T14:43:31Z</time>
      </trkpt>
      <trkpt lat="42.71172" lon="1.63339">
        <ele>1915.9</ele>
        <time>2020-02-08T14:43:32Z</time>
      </trkpt>
      <trkpt lat="42.71172" lon="1.63339">
        <ele>1915.9</ele>
        <time>2020-02-08T14:43:33Z</time>
      </trkpt>
      <trkpt lat="42.71172" lon="1.63339">
        <ele>1915.9</ele>
        <time>2020-02-08T14:43:34Z</time>
      </trkpt>
      <trkpt lat="42.71172" lon="1.63339">
        <ele>1915.9</ele>
        <time>2020-02-08T14:43:35Z</time>
      </trkpt>
      <trkpt lat="42.71172" lon="1.63339">
        <ele>1915.9</ele>
        <time>2020-02-08T14:43:36Z</time>
      </trkpt>
      <trkpt lat="42.71172" lon="1.63339">
        <ele>1915.9</ele>
        <time>2020-02-08T14:43:37Z</time>
      </trkpt>
      <trkpt lat="42.71172" lon="1.63339">
        <ele>1915.9</ele>
        <time>2020-02-08T14:43:38Z</time>
      </trkpt>
      <trkpt lat="42.71172" lon="1.63339">
        <ele>1915.9</ele>
        <time>2020-02-08T14:43:39Z</time>
      </trkpt>
      <trkpt lat="42.71172" lon="1.63339">
        <ele>1915.9</ele>
        <time>2020-02-08T14:43:40Z</time>
      </trkpt>
      <trkpt lat="42.71172" lon="1.63339">
        <ele>1915.9</ele>
        <time>2020-02-08T14:43:41Z</time>
      </trkpt>
      <trkpt lat="42.71172" lon="1.63339">
        <ele>1915.9</ele>
        <time>2020-02-08T14:43:42Z</time>
      </trkpt>
      <trkpt lat="42.71172" lon="1.63339">
        <ele>1915.9</ele>
        <time>2020-02-08T14:43:43Z</time>
      </trkpt>
      <trkpt lat="42.71172" lon="1.63339">
        <ele>1915.9</ele>
        <time>2020-02-08T14:43:44Z</time>
      </trkpt>
      <trkpt lat="42.71172" lon="1.63339">
        <ele>1915.9</ele>
        <time>2020-02-08T14:43:45Z</time>
      </trkpt>
      <trkpt lat="42.71172" lon="1.63339">
        <ele>1915.9</ele>
        <time>2020-02-08T14:43:46Z</time>
      </trkpt>
      <trkpt lat="42.71172" lon="1.63339">
        <ele>1915.9</ele>
        <time>2020-02-08T14:43:47Z</time>
      </trkpt>
      <trkpt lat="42.71172" lon="1.63339">
        <ele>1915.9</ele>
        <time>2020-02-08T14:43:48Z</time>
      </trkpt>
      <trkpt lat="42.71172" lon="1.63339">
        <ele>1915.9</ele>
        <time>2020-02-08T14:43:49Z</time>
      </trkpt>
      <trkpt lat="42.71172" lon="1.63339">
        <ele>1915.9</ele>
        <time>2020-02-08T14:43:50Z</time>
      </trkpt>
      <trkpt lat="42.71172" lon="1.63339">
        <ele>1915.9</ele>
        <time>2020-02-08T14:43:51Z</time>
      </trkpt>
      <trkpt lat="42.71172" lon="1.63339">
        <ele>1915.9</ele>
        <time>2020-02-08T14:43:52Z</time>
      </trkpt>
      <trkpt lat="42.71172" lon="1.63339">
        <ele>1915.9</ele>
        <time>2020-02-08T14:43:53Z</time>
      </trkpt>
      <trkpt lat="42.71172" lon="1.63339">
        <ele>1915.9</ele>
        <time>2020-02-08T14:43:54Z</time>
      </trkpt>
      <trkpt lat="42.71172" lon="1.63339">
        <ele>1915.9</ele>
        <time>2020-02-08T14:43:55Z</time>
      </trkpt>
      <trkpt lat="42.71172" lon="1.63339">
        <ele>1915.9</ele>
        <time>2020-02-08T14:43:56Z</time>
      </trkpt>
      <trkpt lat="42.71172" lon="1.63339">
        <ele>1915.9</ele>
        <time>2020-02-08T14:43:57Z</time>
      </trkpt>
      <trkpt lat="42.71172" lon="1.63339">
        <ele>1915.9</ele>
        <time>2020-02-08T14:43:58Z</time>
      </trkpt>
      <trkpt lat="42.71172" lon="1.63339">
        <ele>1915.9</ele>
        <time>2020-02-08T14:43:59Z</time>
      </trkpt>
      <trkpt lat="42.71172" lon="1.63339">
        <ele>1915.9</ele>
        <time>2020-02-08T14:44:00Z</time>
      </trkpt>
      <trkpt lat="42.71172" lon="1.63339">
        <ele>1915.9</ele>
        <time>2020-02-08T14:44:01Z</time>
      </trkpt>
      <trkpt lat="42.71172" lon="1.63339">
        <ele>1915.9</ele>
        <time>2020-02-08T14:44:02Z</time>
      </trkpt>
      <trkpt lat="42.71172" lon="1.63339">
        <ele>1915.9</ele>
        <time>2020-02-08T14:44:03Z</time>
      </trkpt>
      <trkpt lat="42.71172" lon="1.63339">
        <ele>1915.9</ele>
        <time>2020-02-08T14:44:04Z</time>
      </trkpt>
      <trkpt lat="42.71172" lon="1.63339">
        <ele>1915.9</ele>
        <time>2020-02-08T14:44:05Z</time>
      </trkpt>
      <trkpt lat="42.71172" lon="1.63339">
        <ele>1915.9</ele>
        <time>2020-02-08T14:44:06Z</time>
      </trkpt>
      <trkpt lat="42.71172" lon="1.63339">
        <ele>1915.9</ele>
        <time>2020-02-08T14:44:07Z</time>
      </trkpt>
      <trkpt lat="42.71172" lon="1.63339">
        <ele>1915.9</ele>
        <time>2020-02-08T14:44:08Z</time>
      </trkpt>
      <trkpt lat="42.71172" lon="1.63339">
        <ele>1915.9</ele>
        <time>2020-02-08T14:44:09Z</time>
      </trkpt>
      <trkpt lat="42.71172" lon="1.63339">
        <ele>1915.9</ele>
        <time>2020-02-08T14:44:10Z</time>
      </trkpt>
      <trkpt lat="42.71172" lon="1.63339">
        <ele>1915.9</ele>
        <time>2020-02-08T14:44:11Z</time>
      </trkpt>
      <trkpt lat="42.71172" lon="1.63339">
        <ele>1915.9</ele>
        <time>2020-02-08T14:44:12Z</time>
      </trkpt>
      <trkpt lat="42.71172" lon="1.63339">
        <ele>1915.9</ele>
        <time>2020-02-08T14:44:13Z</time>
      </trkpt>
      <trkpt lat="42.71172" lon="1.63339">
        <ele>1915.9</ele>
        <time>2020-02-08T14:44:14Z</time>
      </trkpt>
      <trkpt lat="42.71172" lon="1.63339">
        <ele>1915.9</ele>
        <time>2020-02-08T14:44:15Z</time>
      </trkpt>
      <trkpt lat="42.71172" lon="1.63339">
        <ele>1915.9</ele>
        <time>2020-02-08T14:44:16Z</time>
      </trkpt>
      <trkpt lat="42.71172" lon="1.63339">
        <ele>1915.9</ele>
        <time>2020-02-08T14:44:17Z</time>
      </trkpt>
      <trkpt lat="42.71172" lon="1.63339">
        <ele>1915.9</ele>
        <time>2020-02-08T14:44:18Z</time>
      </trkpt>
      <trkpt lat="42.71172" lon="1.63339">
        <ele>1915.9</ele>
        <time>2020-02-08T14:44:19Z</time>
      </trkpt>
      <trkpt lat="42.71172" lon="1.63339">
        <ele>1915.9</ele>
        <time>2020-02-08T14:44:20Z</time>
      </trkpt>
      <trkpt lat="42.71172" lon="1.63339">
        <ele>1915.9</ele>
        <time>2020-02-08T14:44:21Z</time>
      </trkpt>
      <trkpt lat="42.71172" lon="1.63339">
        <ele>1915.9</ele>
        <time>2020-02-08T14:44:22Z</time>
      </trkpt>
      <trkpt lat="42.71172" lon="1.63339">
        <ele>1915.9</ele>
        <time>2020-02-08T14:44:23Z</time>
      </trkpt>
      <trkpt lat="42.71172" lon="1.63339">
        <ele>1915.9</ele>
        <time>2020-02-08T14:44:24Z</time>
      </trkpt>
      <trkpt lat="42.71172" lon="1.63339">
        <ele>1915.9</ele>
        <time>2020-02-08T14:44:25Z</time>
      </trkpt>
      <trkpt lat="42.71172" lon="1.63339">
        <ele>1915.9</ele>
        <time>2020-02-08T14:44:26Z</time>
      </trkpt>
      <trkpt lat="42.71172" lon="1.63339">
        <ele>1915.9</ele>
        <time>2020-02-08T14:44:27Z</time>
      </trkpt>
      <trkpt lat="42.71172" lon="1.63339">
        <ele>1915.9</ele>
        <time>2020-02-08T14:44:28Z</time>
      </trkpt>
      <trkpt lat="42.71172" lon="1.63339">
        <ele>1915.9</ele>
        <time>2020-02-08T14:44:29Z</time>
      </trkpt>
      <trkpt lat="42.71172" lon="1.63339">
        <ele>1915.9</ele>
        <time>2020-02-08T14:44:30Z</time>
      </trkpt>
      <trkpt lat="42.71172" lon="1.63339">
        <ele>1915.9</ele>
        <time>2020-02-08T14:44:31Z</time>
      </trkpt>
      <trkpt lat="42.71172" lon="1.63339">
        <ele>1915.9</ele>
        <time>2020-02-08T14:44:32Z</time>
      </trkpt>
      <trkpt lat="42.71172" lon="1.63339">
        <ele>1915.9</ele>
        <time>2020-02-08T14:44:33Z</time>
      </trkpt>
      <trkpt lat="42.71172" lon="1.63339">
        <ele>1915.9</ele>
        <time>2020-02-08T14:44:34Z</time>
      </trkpt>
      <trkpt lat="42.71172" lon="1.63339">
        <ele>1915.9</ele>
        <time>2020-02-08T14:44:35Z</time>
      </trkpt>
      <trkpt lat="42.71172" lon="1.63339">
        <ele>1915.9</ele>
        <time>2020-02-08T14:44:36Z</time>
      </trkpt>
      <trkpt lat="42.71172" lon="1.63339">
        <ele>1915.9</ele>
        <time>2020-02-08T14:44:37Z</time>
      </trkpt>
      <trkpt lat="42.71172" lon="1.63339">
        <ele>1915.9</ele>
        <time>2020-02-08T14:44:38Z</time>
      </trkpt>
      <trkpt lat="42.71172" lon="1.63339">
        <ele>1915.9</ele>
        <time>2020-02-08T14:44:39Z</time>
      </trkpt>
      <trkpt lat="42.71172" lon="1.63339">
        <ele>1915.9</ele>
        <time>2020-02-08T14:44:40Z</time>
      </trkpt>
      <trkpt lat="42.71172" lon="1.63339">
        <ele>1915.9</ele>
        <time>2020-02-08T14:44:41Z</time>
      </trkpt>
      <trkpt lat="42.71172" lon="1.63339">
        <ele>1915.9</ele>
        <time>2020-02-08T14:44:42Z</time>
      </trkpt>
      <trkpt lat="42.71172" lon="1.63339">
        <ele>1915.9</ele>
        <time>2020-02-08T14:44:43Z</time>
      </trkpt>
      <trkpt lat="42.71172" lon="1.63339">
        <ele>1915.9</ele>
        <time>2020-02-08T14:44:44Z</time>
      </trkpt>
      <trkpt lat="42.71172" lon="1.63339">
        <ele>1915.9</ele>
        <time>2020-02-08T14:44:45Z</time>
      </trkpt>
      <trkpt lat="42.71172" lon="1.63339">
        <ele>1915.9</ele>
        <time>2020-02-08T14:44:46Z</time>
      </trkpt>
      <trkpt lat="42.71172" lon="1.63339">
        <ele>1915.9</ele>
        <time>2020-02-08T14:44:47Z</time>
      </trkpt>
      <trkpt lat="42.71172" lon="1.63339">
        <ele>1915.9</ele>
        <time>2020-02-08T14:44:48Z</time>
      </trkpt>
      <trkpt lat="42.71172" lon="1.63339">
        <ele>1915.9</ele>
        <time>2020-02-08T14:44:49Z</time>
      </trkpt>
      <trkpt lat="42.71172" lon="1.63339">
        <ele>1915.9</ele>
        <time>2020-02-08T14:44:50Z</time>
      </trkpt>
      <trkpt lat="42.71172" lon="1.63339">
        <ele>1915.9</ele>
        <time>2020-02-08T14:44:51Z</time>
      </trkpt>
      <trkpt lat="42.71172" lon="1.63339">
        <ele>1915.9</ele>
        <time>2020-02-08T14:44:52Z</time>
      </trkpt>
      <trkpt lat="42.71172" lon="1.63339">
        <ele>1915.9</ele>
        <time>2020-02-08T14:44:53Z</time>
      </trkpt>
      <trkpt lat="42.71172" lon="1.63339">
        <ele>1915.9</ele>
        <time>2020-02-08T14:44:54Z</time>
      </trkpt>
      <trkpt lat="42.71172" lon="1.63339">
        <ele>1915.9</ele>
        <time>2020-02-08T14:44:55Z</time>
      </trkpt>
      <trkpt lat="42.71172" lon="1.63339">
        <ele>1915.9</ele>
        <time>2020-02-08T14:44:56Z</time>
      </trkpt>
      <trkpt lat="42.71172" lon="1.63339">
        <ele>1915.9</ele>
        <time>2020-02-08T14:44:57Z</time>
      </trkpt>
      <trkpt lat="42.71172" lon="1.63339">
        <ele>1915.9</ele>
        <time>2020-02-08T14:44:58Z</time>
      </trkpt>
      <trkpt lat="42.71172" lon="1.63339">
        <ele>1915.9</ele>
        <time>2020-02-08T14:44:59Z</time>
      </trkpt>
      <trkpt lat="42.71172" lon="1.63339">
        <ele>1915.9</ele>
        <time>2020-02-08T14:45:00Z</time>
      </trkpt>
      <trkpt lat="42.71172" lon="1.63339">
        <ele>1915.9</ele>
        <time>2020-02-08T14:45:01Z</time>
      </trkpt>
      <trkpt lat="42.71172" lon="1.63339">
        <ele>1915.9</ele>
        <time>2020-02-08T14:45:02Z</time>
      </trkpt>
      <trkpt lat="42.71172" lon="1.63339">
        <ele>1915.9</ele>
        <time>2020-02-08T14:45:03Z</time>
      </trkpt>
      <trkpt lat="42.71172" lon="1.63339">
        <ele>1915.9</ele>
        <time>2020-02-08T14:45:04Z</time>
      </trkpt>
      <trkpt lat="42.71172" lon="1.63339">
        <ele>1915.9</ele>
        <time>2020-02-08T14:45:05Z</time>
      </trkpt>
      <trkpt lat="42.71172" lon="1.63339">
        <ele>1915.9</ele>
        <time>2020-02-08T14:45:06Z</time>
      </trkpt>
      <trkpt lat="42.71172" lon="1.63339">
        <ele>1915.9</ele>
        <time>2020-02-08T14:45:07Z</time>
      </trkpt>
      <trkpt lat="42.71172" lon="1.63339">
        <ele>1915.9</ele>
        <time>2020-02-08T14:45:08Z</time>
      </trkpt>
      <trkpt lat="42.71172" lon="1.63339">
        <ele>1915.9</ele>
        <time>2020-02-08T14:45:09Z</time>
      </trkpt>
      <trkpt lat="42.71172" lon="1.63339">
        <ele>1915.9</ele>
        <time>2020-02-08T14:45:10Z</time>
      </trkpt>
      <trkpt lat="42.71172" lon="1.63339">
        <ele>1915.9</ele>
        <time>2020-02-08T14:45:11Z</time>
      </trkpt>
      <trkpt lat="42.71172" lon="1.63339">
        <ele>1915.9</ele>
        <time>2020-02-08T14:45:12Z</time>
      </trkpt>
      <trkpt lat="42.71172" lon="1.63339">
        <ele>1915.9</ele>
        <time>2020-02-08T14:45:13Z</time>
      </trkpt>
      <trkpt lat="42.71172" lon="1.63339">
        <ele>1915.9</ele>
        <time>2020-02-08T14:45:14Z</time>
      </trkpt>
      <trkpt lat="42.71172" lon="1.63339">
        <ele>1915.9</ele>
        <time>2020-02-08T14:45:15Z</time>
      </trkpt>
      <trkpt lat="42.71172" lon="1.63339">
        <ele>1915.9</ele>
        <time>2020-02-08T14:45:16Z</time>
      </trkpt>
      <trkpt lat="42.71172" lon="1.63339">
        <ele>1915.9</ele>
        <time>2020-02-08T14:45:17Z</time>
      </trkpt>
      <trkpt lat="42.71172" lon="1.63339">
        <ele>1915.9</ele>
        <time>2020-02-08T14:45:18Z</time>
      </trkpt>
      <trkpt lat="42.71172" lon="1.63339">
        <ele>1915.9</ele>
        <time>2020-02-08T14:45:19Z</time>
      </trkpt>
      <trkpt lat="42.71172" lon="1.63339">
        <ele>1915.9</ele>
        <time>2020-02-08T14:45:20Z</time>
      </trkpt>
      <trkpt lat="42.71172" lon="1.63339">
        <ele>1915.9</ele>
        <time>2020-02-08T14:45:21Z</time>
      </trkpt>
      <trkpt lat="42.71172" lon="1.63339">
        <ele>1915.9</ele>
        <time>2020-02-08T14:45:22Z</time>
      </trkpt>
      <trkpt lat="42.71172" lon="1.63339">
        <ele>1915.9</ele>
        <time>2020-02-08T14:45:23Z</time>
      </trkpt>
      <trkpt lat="42.71172" lon="1.63339">
        <ele>1915.9</ele>
        <time>2020-02-08T14:45:24Z</time>
      </trkpt>
      <trkpt lat="42.71172" lon="1.63339">
        <ele>1915.9</ele>
        <time>2020-02-08T14:45:25Z</time>
      </trkpt>
      <trkpt lat="42.71172" lon="1.63339">
        <ele>1915.9</ele>
        <time>2020-02-08T14:45:26Z</time>
      </trkpt>
      <trkpt lat="42.71172" lon="1.63339">
        <ele>1915.9</ele>
        <time>2020-02-08T14:45:27Z</time>
      </trkpt>
      <trkpt lat="42.71172" lon="1.63339">
        <ele>1915.9</ele>
        <time>2020-02-08T14:45:28Z</time>
      </trkpt>
      <trkpt lat="42.71172" lon="1.63339">
        <ele>1915.9</ele>
        <time>2020-02-08T14:45:29Z</time>
      </trkpt>
      <trkpt lat="42.71172" lon="1.63339">
        <ele>1915.9</ele>
        <time>2020-02-08T14:45:30Z</time>
      </trkpt>
      <trkpt lat="42.71172" lon="1.63339">
        <ele>1915.9</ele>
        <time>2020-02-08T14:45:31Z</time>
      </trkpt>
      <trkpt lat="42.71172" lon="1.63339">
        <ele>1915.9</ele>
        <time>2020-02-08T14:45:32Z</time>
      </trkpt>
      <trkpt lat="42.71172" lon="1.63339">
        <ele>1915.9</ele>
        <time>2020-02-08T14:45:33Z</time>
      </trkpt>
      <trkpt lat="42.71172" lon="1.63339">
        <ele>1915.9</ele>
        <time>2020-02-08T14:45:34Z</time>
      </trkpt>
      <trkpt lat="42.71172" lon="1.63339">
        <ele>1915.9</ele>
        <time>2020-02-08T14:45:35Z</time>
      </trkpt>
      <trkpt lat="42.71172" lon="1.63339">
        <ele>1915.9</ele>
        <time>2020-02-08T14:45:36Z</time>
      </trkpt>
      <trkpt lat="42.71172" lon="1.63339">
        <ele>1915.9</ele>
        <time>2020-02-08T14:45:37Z</time>
      </trkpt>
      <trkpt lat="42.71172" lon="1.63339">
        <ele>1915.9</ele>
        <time>2020-02-08T14:45:38Z</time>
      </trkpt>
      <trkpt lat="42.71172" lon="1.63339">
        <ele>1915.9</ele>
        <time>2020-02-08T14:45:39Z</time>
      </trkpt>
      <trkpt lat="42.71172" lon="1.63339">
        <ele>1915.9</ele>
        <time>2020-02-08T14:45:40Z</time>
      </trkpt>
      <trkpt lat="42.71172" lon="1.63339">
        <ele>1915.9</ele>
        <time>2020-02-08T14:45:41Z</time>
      </trkpt>
      <trkpt lat="42.71172" lon="1.63339">
        <ele>1915.9</ele>
        <time>2020-02-08T14:45:42Z</time>
      </trkpt>
      <trkpt lat="42.71172" lon="1.63339">
        <ele>1915.9</ele>
        <time>2020-02-08T14:45:43Z</time>
      </trkpt>
      <trkpt lat="42.71172" lon="1.63339">
        <ele>1915.9</ele>
        <time>2020-02-08T14:45:44Z</time>
      </trkpt>
      <trkpt lat="42.71172" lon="1.63339">
        <ele>1915.9</ele>
        <time>2020-02-08T14:45:45Z</time>
      </trkpt>
      <trkpt lat="42.71172" lon="1.63339">
        <ele>1915.9</ele>
        <time>2020-02-08T14:45:46Z</time>
      </trkpt>
      <trkpt lat="42.71172" lon="1.63339">
        <ele>1915.9</ele>
        <time>2020-02-08T14:45:47Z</time>
      </trkpt>
      <trkpt lat="42.71172" lon="1.63339">
        <ele>1915.9</ele>
        <time>2020-02-08T14:45:48Z</time>
      </trkpt>
      <trkpt lat="42.71172" lon="1.63339">
        <ele>1915.9</ele>
        <time>2020-02-08T14:45:49Z</time>
      </trkpt>
      <trkpt lat="42.71172" lon="1.63339">
        <ele>1915.9</ele>
        <time>2020-02-08T14:45:50Z</time>
      </trkpt>
      <trkpt lat="42.71172" lon="1.63339">
        <ele>1915.9</ele>
        <time>2020-02-08T14:45:51Z</time>
      </trkpt>
      <trkpt lat="42.71172" lon="1.63339">
        <ele>1915.9</ele>
        <time>2020-02-08T14:45:52Z</time>
      </trkpt>
      <trkpt lat="42.71172" lon="1.63339">
        <ele>1915.9</ele>
        <time>2020-02-08T14:45:53Z</time>
      </trkpt>
      <trkpt lat="42.71172" lon="1.63339">
        <ele>1915.9</ele>
        <time>2020-02-08T14:45:54Z</time>
      </trkpt>
      <trkpt lat="42.71172" lon="1.63339">
        <ele>1915.9</ele>
        <time>2020-02-08T14:45:55Z</time>
      </trkpt>
      <trkpt lat="42.71172" lon="1.63339">
        <ele>1915.9</ele>
        <time>2020-02-08T14:45:56Z</time>
      </trkpt>
      <trkpt lat="42.71172" lon="1.63339">
        <ele>1915.9</ele>
        <time>2020-02-08T14:45:57Z</time>
      </trkpt>
      <trkpt lat="42.71172" lon="1.63339">
        <ele>1915.9</ele>
        <time>2020-02-08T14:45:58Z</time>
      </trkpt>
      <trkpt lat="42.71172" lon="1.63339">
        <ele>1915.9</ele>
        <time>2020-02-08T14:45:59Z</time>
      </trkpt>
      <trkpt lat="42.71172" lon="1.63339">
        <ele>1915.9</ele>
        <time>2020-02-08T14:46:00Z</time>
      </trkpt>
      <trkpt lat="42.71172" lon="1.63339">
        <ele>1915.9</ele>
        <time>2020-02-08T14:46:01Z</time>
      </trkpt>
      <trkpt lat="42.71172" lon="1.63339">
        <ele>1915.9</ele>
        <time>2020-02-08T14:46:02Z</time>
      </trkpt>
      <trkpt lat="42.71172" lon="1.63339">
        <ele>1915.9</ele>
        <time>2020-02-08T14:46:03Z</time>
      </trkpt>
      <trkpt lat="42.71172" lon="1.63341">
        <ele>1915.9</ele>
        <time>2020-02-08T14:46:04Z</time>
      </trkpt>
      <trkpt lat="42.71172" lon="1.63341">
        <ele>1915.9</ele>
        <time>2020-02-08T14:46:05Z</time>
      </trkpt>
      <trkpt lat="42.71172" lon="1.63341">
        <ele>1915.9</ele>
        <time>2020-02-08T14:46:06Z</time>
      </trkpt>
      <trkpt lat="42.71172" lon="1.63341">
        <ele>1915.9</ele>
        <time>2020-02-08T14:46:07Z</time>
      </trkpt>
      <trkpt lat="42.71172" lon="1.63341">
        <ele>1915.9</ele>
        <time>2020-02-08T14:46:08Z</time>
      </trkpt>
      <trkpt lat="42.71172" lon="1.63341">
        <ele>1915.9</ele>
        <time>2020-02-08T14:46:09Z</time>
      </trkpt>
      <trkpt lat="42.71172" lon="1.63341">
        <ele>1915.9</ele>
        <time>2020-02-08T14:46:10Z</time>
      </trkpt>
      <trkpt lat="42.71172" lon="1.63341">
        <ele>1915.9</ele>
        <time>2020-02-08T14:46:11Z</time>
      </trkpt>
      <trkpt lat="42.71172" lon="1.63341">
        <ele>1915.9</ele>
        <time>2020-02-08T14:46:12Z</time>
      </trkpt>
      <trkpt lat="42.71172" lon="1.63341">
        <ele>1915.9</ele>
        <time>2020-02-08T14:46:13Z</time>
      </trkpt>
      <trkpt lat="42.71172" lon="1.63341">
        <ele>1915.9</ele>
        <time>2020-02-08T14:46:14Z</time>
      </trkpt>
      <trkpt lat="42.71172" lon="1.63341">
        <ele>1915.9</ele>
        <time>2020-02-08T14:46:15Z</time>
      </trkpt>
      <trkpt lat="42.71172" lon="1.63341">
        <ele>1915.9</ele>
        <time>2020-02-08T14:46:16Z</time>
      </trkpt>
      <trkpt lat="42.71172" lon="1.63341">
        <ele>1915.9</ele>
        <time>2020-02-08T14:46:17Z</time>
      </trkpt>
      <trkpt lat="42.71172" lon="1.63341">
        <ele>1915.9</ele>
        <time>2020-02-08T14:46:18Z</time>
      </trkpt>
      <trkpt lat="42.71172" lon="1.63341">
        <ele>1915.9</ele>
        <time>2020-02-08T14:46:19Z</time>
      </trkpt>
      <trkpt lat="42.71172" lon="1.63341">
        <ele>1915.9</ele>
        <time>2020-02-08T14:46:20Z</time>
      </trkpt>
      <trkpt lat="42.71172" lon="1.63341">
        <ele>1915.9</ele>
        <time>2020-02-08T14:46:21Z</time>
      </trkpt>
      <trkpt lat="42.71172" lon="1.63341">
        <ele>1915.9</ele>
        <time>2020-02-08T14:46:22Z</time>
      </trkpt>
      <trkpt lat="42.71172" lon="1.63341">
        <ele>1915.9</ele>
        <time>2020-02-08T14:46:23Z</time>
      </trkpt>
      <trkpt lat="42.71172" lon="1.63341">
        <ele>1915.9</ele>
        <time>2020-02-08T14:46:24Z</time>
      </trkpt>
      <trkpt lat="42.71172" lon="1.63341">
        <ele>1915.9</ele>
        <time>2020-02-08T14:46:25Z</time>
      </trkpt>
      <trkpt lat="42.71172" lon="1.63341">
        <ele>1915.9</ele>
        <time>2020-02-08T14:46:26Z</time>
      </trkpt>
      <trkpt lat="42.71172" lon="1.63341">
        <ele>1915.9</ele>
        <time>2020-02-08T14:46:27Z</time>
      </trkpt>
      <trkpt lat="42.71172" lon="1.63341">
        <ele>1915.9</ele>
        <time>2020-02-08T14:46:28Z</time>
      </trkpt>
      <trkpt lat="42.71172" lon="1.63341">
        <ele>1915.9</ele>
        <time>2020-02-08T14:46:29Z</time>
      </trkpt>
      <trkpt lat="42.71172" lon="1.63341">
        <ele>1915.9</ele>
        <time>2020-02-08T14:46:30Z</time>
      </trkpt>
      <trkpt lat="42.71172" lon="1.63341">
        <ele>1915.9</ele>
        <time>2020-02-08T14:46:31Z</time>
      </trkpt>
      <trkpt lat="42.71172" lon="1.63341">
        <ele>1915.9</ele>
        <time>2020-02-08T14:46:32Z</time>
      </trkpt>
      <trkpt lat="42.71172" lon="1.63341">
        <ele>1915.9</ele>
        <time>2020-02-08T14:46:33Z</time>
      </trkpt>
      <trkpt lat="42.71172" lon="1.63341">
        <ele>1915.9</ele>
        <time>2020-02-08T14:46:34Z</time>
      </trkpt>
      <trkpt lat="42.71172" lon="1.63341">
        <ele>1915.9</ele>
        <time>2020-02-08T14:46:35Z</time>
      </trkpt>
      <trkpt lat="42.71172" lon="1.63341">
        <ele>1915.9</ele>
        <time>2020-02-08T14:46:36Z</time>
      </trkpt>
      <trkpt lat="42.71172" lon="1.63341">
        <ele>1915.9</ele>
        <time>2020-02-08T14:46:37Z</time>
      </trkpt>
      <trkpt lat="42.71172" lon="1.63341">
        <ele>1915.9</ele>
        <time>2020-02-08T14:46:38Z</time>
      </trkpt>
      <trkpt lat="42.71172" lon="1.63341">
        <ele>1915.9</ele>
        <time>2020-02-08T14:46:39Z</time>
      </trkpt>
      <trkpt lat="42.71172" lon="1.63341">
        <ele>1915.9</ele>
        <time>2020-02-08T14:46:40Z</time>
      </trkpt>
      <trkpt lat="42.71172" lon="1.63341">
        <ele>1915.9</ele>
        <time>2020-02-08T14:46:41Z</time>
      </trkpt>
      <trkpt lat="42.71172" lon="1.63341">
        <ele>1915.9</ele>
        <time>2020-02-08T14:46:42Z</time>
      </trkpt>
      <trkpt lat="42.71172" lon="1.63341">
        <ele>1915.9</ele>
        <time>2020-02-08T14:46:43Z</time>
      </trkpt>
      <trkpt lat="42.71172" lon="1.63341">
        <ele>1915.9</ele>
        <time>2020-02-08T14:46:44Z</time>
      </trkpt>
      <trkpt lat="42.71172" lon="1.63341">
        <ele>1915.9</ele>
        <time>2020-02-08T14:46:45Z</time>
      </trkpt>
      <trkpt lat="42.71172" lon="1.63341">
        <ele>1915.9</ele>
        <time>2020-02-08T14:46:46Z</time>
      </trkpt>
      <trkpt lat="42.71172" lon="1.63341">
        <ele>1915.9</ele>
        <time>2020-02-08T14:46:47Z</time>
      </trkpt>
      <trkpt lat="42.71172" lon="1.63341">
        <ele>1915.9</ele>
        <time>2020-02-08T14:46:48Z</time>
      </trkpt>
      <trkpt lat="42.71172" lon="1.63341">
        <ele>1915.9</ele>
        <time>2020-02-08T14:46:49Z</time>
      </trkpt>
      <trkpt lat="42.71172" lon="1.63341">
        <ele>1915.9</ele>
        <time>2020-02-08T14:46:50Z</time>
      </trkpt>
      <trkpt lat="42.71172" lon="1.63341">
        <ele>1915.9</ele>
        <time>2020-02-08T14:46:51Z</time>
      </trkpt>
      <trkpt lat="42.71172" lon="1.63341">
        <ele>1915.9</ele>
        <time>2020-02-08T14:46:52Z</time>
      </trkpt>
      <trkpt lat="42.71172" lon="1.63341">
        <ele>1915.9</ele>
        <time>2020-02-08T14:46:53Z</time>
      </trkpt>
      <trkpt lat="42.71172" lon="1.63341">
        <ele>1915.9</ele>
        <time>2020-02-08T14:46:54Z</time>
      </trkpt>
      <trkpt lat="42.71172" lon="1.63341">
        <ele>1915.9</ele>
        <time>2020-02-08T14:46:55Z</time>
      </trkpt>
      <trkpt lat="42.71172" lon="1.63341">
        <ele>1915.9</ele>
        <time>2020-02-08T14:46:56Z</time>
      </trkpt>
      <trkpt lat="42.71172" lon="1.63341">
        <ele>1915.9</ele>
        <time>2020-02-08T14:46:57Z</time>
      </trkpt>
      <trkpt lat="42.71172" lon="1.63341">
        <ele>1915.9</ele>
        <time>2020-02-08T14:46:58Z</time>
      </trkpt>
      <trkpt lat="42.71172" lon="1.63341">
        <ele>1915.9</ele>
        <time>2020-02-08T14:46:59Z</time>
      </trkpt>
      <trkpt lat="42.71172" lon="1.63341">
        <ele>1915.9</ele>
        <time>2020-02-08T14:47:00Z</time>
      </trkpt>
      <trkpt lat="42.71172" lon="1.63341">
        <ele>1915.9</ele>
        <time>2020-02-08T14:47:01Z</time>
      </trkpt>
      <trkpt lat="42.71172" lon="1.63341">
        <ele>1915.9</ele>
        <time>2020-02-08T14:47:02Z</time>
      </trkpt>
      <trkpt lat="42.71172" lon="1.63341">
        <ele>1915.9</ele>
        <time>2020-02-08T14:47:03Z</time>
      </trkpt>
      <trkpt lat="42.71172" lon="1.63341">
        <ele>1915.9</ele>
        <time>2020-02-08T14:47:04Z</time>
      </trkpt>
      <trkpt lat="42.71172" lon="1.63341">
        <ele>1915.9</ele>
        <time>2020-02-08T14:47:05Z</time>
      </trkpt>
      <trkpt lat="42.71172" lon="1.63341">
        <ele>1915.9</ele>
        <time>2020-02-08T14:47:06Z</time>
      </trkpt>
      <trkpt lat="42.71172" lon="1.63341">
        <ele>1915.9</ele>
        <time>2020-02-08T14:47:07Z</time>
      </trkpt>
      <trkpt lat="42.71172" lon="1.63341">
        <ele>1915.9</ele>
        <time>2020-02-08T14:47:08Z</time>
      </trkpt>
      <trkpt lat="42.71172" lon="1.63341">
        <ele>1915.9</ele>
        <time>2020-02-08T14:47:09Z</time>
      </trkpt>
      <trkpt lat="42.71172" lon="1.63341">
        <ele>1915.9</ele>
        <time>2020-02-08T14:47:10Z</time>
      </trkpt>
      <trkpt lat="42.71172" lon="1.63341">
        <ele>1915.9</ele>
        <time>2020-02-08T14:47:11Z</time>
      </trkpt>
      <trkpt lat="42.71172" lon="1.63341">
        <ele>1915.9</ele>
        <time>2020-02-08T14:47:12Z</time>
      </trkpt>
      <trkpt lat="42.71172" lon="1.63341">
        <ele>1915.9</ele>
        <time>2020-02-08T14:47:13Z</time>
      </trkpt>
      <trkpt lat="42.71172" lon="1.63341">
        <ele>1915.9</ele>
        <time>2020-02-08T14:47:14Z</time>
      </trkpt>
      <trkpt lat="42.71172" lon="1.63341">
        <ele>1915.9</ele>
        <time>2020-02-08T14:47:15Z</time>
      </trkpt>
      <trkpt lat="42.71172" lon="1.63341">
        <ele>1915.9</ele>
        <time>2020-02-08T14:47:16Z</time>
      </trkpt>
      <trkpt lat="42.71172" lon="1.63341">
        <ele>1915.9</ele>
        <time>2020-02-08T14:47:17Z</time>
      </trkpt>
      <trkpt lat="42.71172" lon="1.63341">
        <ele>1915.9</ele>
        <time>2020-02-08T14:47:18Z</time>
      </trkpt>
      <trkpt lat="42.71172" lon="1.63341">
        <ele>1915.9</ele>
        <time>2020-02-08T14:47:19Z</time>
      </trkpt>
      <trkpt lat="42.71172" lon="1.63341">
        <ele>1915.9</ele>
        <time>2020-02-08T14:47:20Z</time>
      </trkpt>
      <trkpt lat="42.71172" lon="1.63341">
        <ele>1915.9</ele>
        <time>2020-02-08T14:47:21Z</time>
      </trkpt>
      <trkpt lat="42.71172" lon="1.63341">
        <ele>1915.9</ele>
        <time>2020-02-08T14:47:22Z</time>
      </trkpt>
      <trkpt lat="42.71172" lon="1.63341">
        <ele>1915.9</ele>
        <time>2020-02-08T14:47:23Z</time>
      </trkpt>
      <trkpt lat="42.71172" lon="1.63341">
        <ele>1915.9</ele>
        <time>2020-02-08T14:47:24Z</time>
      </trkpt>
      <trkpt lat="42.71172" lon="1.63341">
        <ele>1915.9</ele>
        <time>2020-02-08T14:47:25Z</time>
      </trkpt>
      <trkpt lat="42.71172" lon="1.63341">
        <ele>1915.9</ele>
        <time>2020-02-08T14:47:26Z</time>
      </trkpt>
      <trkpt lat="42.71172" lon="1.63341">
        <ele>1915.9</ele>
        <time>2020-02-08T14:47:27Z</time>
      </trkpt>
      <trkpt lat="42.71172" lon="1.63341">
        <ele>1915.9</ele>
        <time>2020-02-08T14:47:28Z</time>
      </trkpt>
      <trkpt lat="42.71172" lon="1.63341">
        <ele>1915.9</ele>
        <time>2020-02-08T14:47:29Z</time>
      </trkpt>
      <trkpt lat="42.71172" lon="1.63341">
        <ele>1915.9</ele>
        <time>2020-02-08T14:47:30Z</time>
      </trkpt>
      <trkpt lat="42.71172" lon="1.63341">
        <ele>1915.9</ele>
        <time>2020-02-08T14:47:31Z</time>
      </trkpt>
      <trkpt lat="42.71172" lon="1.63341">
        <ele>1915.9</ele>
        <time>2020-02-08T14:47:32Z</time>
      </trkpt>
      <trkpt lat="42.71172" lon="1.63341">
        <ele>1915.9</ele>
        <time>2020-02-08T14:47:33Z</time>
      </trkpt>
      <trkpt lat="42.71172" lon="1.63341">
        <ele>1915.9</ele>
        <time>2020-02-08T14:47:34Z</time>
      </trkpt>
      <trkpt lat="42.71172" lon="1.63341">
        <ele>1915.9</ele>
        <time>2020-02-08T14:47:35Z</time>
      </trkpt>
      <trkpt lat="42.71172" lon="1.63341">
        <ele>1915.9</ele>
        <time>2020-02-08T14:47:36Z</time>
      </trkpt>
      <trkpt lat="42.71172" lon="1.63341">
        <ele>1915.9</ele>
        <time>2020-02-08T14:47:37Z</time>
      </trkpt>
      <trkpt lat="42.71172" lon="1.63341">
        <ele>1915.9</ele>
        <time>2020-02-08T14:47:38Z</time>
      </trkpt>
      <trkpt lat="42.71172" lon="1.63341">
        <ele>1915.9</ele>
        <time>2020-02-08T14:47:39Z</time>
      </trkpt>
      <trkpt lat="42.71172" lon="1.63341">
        <ele>1915.9</ele>
        <time>2020-02-08T14:47:40Z</time>
      </trkpt>
      <trkpt lat="42.71172" lon="1.63341">
        <ele>1915.9</ele>
        <time>2020-02-08T14:47:41Z</time>
      </trkpt>
      <trkpt lat="42.71172" lon="1.63341">
        <ele>1915.9</ele>
        <time>2020-02-08T14:47:42Z</time>
      </trkpt>
      <trkpt lat="42.71172" lon="1.63341">
        <ele>1915.9</ele>
        <time>2020-02-08T14:47:43Z</time>
      </trkpt>
      <trkpt lat="42.71172" lon="1.63341">
        <ele>1915.9</ele>
        <time>2020-02-08T14:47:44Z</time>
      </trkpt>
      <trkpt lat="42.71172" lon="1.63341">
        <ele>1915.9</ele>
        <time>2020-02-08T14:47:45Z</time>
      </trkpt>
      <trkpt lat="42.71172" lon="1.63341">
        <ele>1915.9</ele>
        <time>2020-02-08T14:47:46Z</time>
      </trkpt>
      <trkpt lat="42.71172" lon="1.63341">
        <ele>1915.9</ele>
        <time>2020-02-08T14:47:47Z</time>
      </trkpt>
      <trkpt lat="42.71172" lon="1.63341">
        <ele>1915.9</ele>
        <time>2020-02-08T14:47:48Z</time>
      </trkpt>
      <trkpt lat="42.71172" lon="1.63341">
        <ele>1915.9</ele>
        <time>2020-02-08T14:47:49Z</time>
      </trkpt>
      <trkpt lat="42.71172" lon="1.63341">
        <ele>1915.9</ele>
        <time>2020-02-08T14:47:50Z</time>
      </trkpt>
      <trkpt lat="42.71172" lon="1.63341">
        <ele>1915.9</ele>
        <time>2020-02-08T14:47:51Z</time>
      </trkpt>
      <trkpt lat="42.71172" lon="1.63341">
        <ele>1915.9</ele>
        <time>2020-02-08T14:47:52Z</time>
      </trkpt>
      <trkpt lat="42.71172" lon="1.63341">
        <ele>1915.9</ele>
        <time>2020-02-08T14:47:53Z</time>
      </trkpt>
      <trkpt lat="42.71172" lon="1.63341">
        <ele>1915.9</ele>
        <time>2020-02-08T14:47:54Z</time>
      </trkpt>
      <trkpt lat="42.71172" lon="1.63341">
        <ele>1915.9</ele>
        <time>2020-02-08T14:47:55Z</time>
      </trkpt>
      <trkpt lat="42.71172" lon="1.63341">
        <ele>1915.9</ele>
        <time>2020-02-08T14:47:56Z</time>
      </trkpt>
      <trkpt lat="42.71172" lon="1.63341">
        <ele>1915.9</ele>
        <time>2020-02-08T14:47:57Z</time>
      </trkpt>
      <trkpt lat="42.71172" lon="1.63341">
        <ele>1915.9</ele>
        <time>2020-02-08T14:47:58Z</time>
      </trkpt>
      <trkpt lat="42.71172" lon="1.63341">
        <ele>1915.9</ele>
        <time>2020-02-08T14:47:59Z</time>
      </trkpt>
      <trkpt lat="42.71172" lon="1.63341">
        <ele>1915.9</ele>
        <time>2020-02-08T14:48:00Z</time>
      </trkpt>
      <trkpt lat="42.71172" lon="1.63341">
        <ele>1915.9</ele>
        <time>2020-02-08T14:48:01Z</time>
      </trkpt>
      <trkpt lat="42.71172" lon="1.63341">
        <ele>1915.9</ele>
        <time>2020-02-08T14:48:02Z</time>
      </trkpt>
      <trkpt lat="42.71172" lon="1.63341">
        <ele>1915.9</ele>
        <time>2020-02-08T14:48:03Z</time>
      </trkpt>
      <trkpt lat="42.71172" lon="1.63341">
        <ele>1915.9</ele>
        <time>2020-02-08T14:48:04Z</time>
      </trkpt>
      <trkpt lat="42.71172" lon="1.63341">
        <ele>1915.9</ele>
        <time>2020-02-08T14:48:05Z</time>
      </trkpt>
      <trkpt lat="42.71172" lon="1.63341">
        <ele>1915.9</ele>
        <time>2020-02-08T14:48:06Z</time>
      </trkpt>
      <trkpt lat="42.71172" lon="1.63341">
        <ele>1915.9</ele>
        <time>2020-02-08T14:48:07Z</time>
      </trkpt>
      <trkpt lat="42.71172" lon="1.63341">
        <ele>1915.9</ele>
        <time>2020-02-08T14:48:08Z</time>
      </trkpt>
      <trkpt lat="42.71172" lon="1.63341">
        <ele>1915.9</ele>
        <time>2020-02-08T14:48:09Z</time>
      </trkpt>
      <trkpt lat="42.71172" lon="1.63341">
        <ele>1915.9</ele>
        <time>2020-02-08T14:48:10Z</time>
      </trkpt>
      <trkpt lat="42.71172" lon="1.63341">
        <ele>1915.9</ele>
        <time>2020-02-08T14:48:11Z</time>
      </trkpt>
      <trkpt lat="42.71172" lon="1.63341">
        <ele>1915.9</ele>
        <time>2020-02-08T14:48:12Z</time>
      </trkpt>
      <trkpt lat="42.71172" lon="1.63341">
        <ele>1915.9</ele>
        <time>2020-02-08T14:48:13Z</time>
      </trkpt>
      <trkpt lat="42.71172" lon="1.63341">
        <ele>1915.9</ele>
        <time>2020-02-08T14:48:14Z</time>
      </trkpt>
      <trkpt lat="42.71172" lon="1.63341">
        <ele>1915.9</ele>
        <time>2020-02-08T14:48:15Z</time>
      </trkpt>
      <trkpt lat="42.71172" lon="1.63341">
        <ele>1915.9</ele>
        <time>2020-02-08T14:48:16Z</time>
      </trkpt>
      <trkpt lat="42.71172" lon="1.63341">
        <ele>1915.9</ele>
        <time>2020-02-08T14:48:17Z</time>
      </trkpt>
      <trkpt lat="42.71172" lon="1.63341">
        <ele>1915.9</ele>
        <time>2020-02-08T14:48:18Z</time>
      </trkpt>
      <trkpt lat="42.71172" lon="1.63341">
        <ele>1915.9</ele>
        <time>2020-02-08T14:48:19Z</time>
      </trkpt>
      <trkpt lat="42.71172" lon="1.63341">
        <ele>1915.9</ele>
        <time>2020-02-08T14:48:20Z</time>
      </trkpt>
      <trkpt lat="42.71172" lon="1.63341">
        <ele>1915.9</ele>
        <time>2020-02-08T14:48:21Z</time>
      </trkpt>
      <trkpt lat="42.71172" lon="1.63341">
        <ele>1915.9</ele>
        <time>2020-02-08T14:48:22Z</time>
      </trkpt>
      <trkpt lat="42.71172" lon="1.63341">
        <ele>1915.9</ele>
        <time>2020-02-08T14:48:23Z</time>
      </trkpt>
      <trkpt lat="42.71172" lon="1.63341">
        <ele>1915.9</ele>
        <time>2020-02-08T14:48:24Z</time>
      </trkpt>
      <trkpt lat="42.71172" lon="1.63341">
        <ele>1915.9</ele>
        <time>2020-02-08T14:48:25Z</time>
      </trkpt>
      <trkpt lat="42.71172" lon="1.63341">
        <ele>1915.9</ele>
        <time>2020-02-08T14:48:26Z</time>
      </trkpt>
      <trkpt lat="42.71172" lon="1.63341">
        <ele>1915.9</ele>
        <time>2020-02-08T14:48:27Z</time>
      </trkpt>
      <trkpt lat="42.71172" lon="1.63341">
        <ele>1915.9</ele>
        <time>2020-02-08T14:48:28Z</time>
      </trkpt>
      <trkpt lat="42.71172" lon="1.63341">
        <ele>1915.9</ele>
        <time>2020-02-08T14:48:29Z</time>
      </trkpt>
      <trkpt lat="42.71172" lon="1.63341">
        <ele>1915.9</ele>
        <time>2020-02-08T14:48:30Z</time>
      </trkpt>
      <trkpt lat="42.71172" lon="1.63341">
        <ele>1915.9</ele>
        <time>2020-02-08T14:48:31Z</time>
      </trkpt>
      <trkpt lat="42.71172" lon="1.63341">
        <ele>1915.9</ele>
        <time>2020-02-08T14:48:32Z</time>
      </trkpt>
      <trkpt lat="42.71172" lon="1.63341">
        <ele>1915.9</ele>
        <time>2020-02-08T14:48:33Z</time>
      </trkpt>
      <trkpt lat="42.71172" lon="1.63341">
        <ele>1915.9</ele>
        <time>2020-02-08T14:48:34Z</time>
      </trkpt>
      <trkpt lat="42.71172" lon="1.63341">
        <ele>1915.9</ele>
        <time>2020-02-08T14:48:35Z</time>
      </trkpt>
      <trkpt lat="42.71172" lon="1.63341">
        <ele>1915.9</ele>
        <time>2020-02-08T14:48:36Z</time>
      </trkpt>
      <trkpt lat="42.71172" lon="1.63341">
        <ele>1915.9</ele>
        <time>2020-02-08T14:48:37Z</time>
      </trkpt>
      <trkpt lat="42.71172" lon="1.63341">
        <ele>1915.9</ele>
        <time>2020-02-08T14:48:38Z</time>
      </trkpt>
      <trkpt lat="42.71172" lon="1.63341">
        <ele>1915.9</ele>
        <time>2020-02-08T14:48:39Z</time>
      </trkpt>
      <trkpt lat="42.71172" lon="1.63341">
        <ele>1915.9</ele>
        <time>2020-02-08T14:48:40Z</time>
      </trkpt>
      <trkpt lat="42.71172" lon="1.63341">
        <ele>1915.9</ele>
        <time>2020-02-08T14:48:41Z</time>
      </trkpt>
      <trkpt lat="42.71172" lon="1.63341">
        <ele>1915.9</ele>
        <time>2020-02-08T14:48:42Z</time>
      </trkpt>
      <trkpt lat="42.71172" lon="1.63341">
        <ele>1915.9</ele>
        <time>2020-02-08T14:48:43Z</time>
      </trkpt>
      <trkpt lat="42.71172" lon="1.63341">
        <ele>1915.9</ele>
        <time>2020-02-08T14:48:44Z</time>
      </trkpt>
      <trkpt lat="42.71172" lon="1.63341">
        <ele>1915.9</ele>
        <time>2020-02-08T14:48:45Z</time>
      </trkpt>
      <trkpt lat="42.71172" lon="1.63341">
        <ele>1915.9</ele>
        <time>2020-02-08T14:48:46Z</time>
      </trkpt>
      <trkpt lat="42.71172" lon="1.63341">
        <ele>1915.9</ele>
        <time>2020-02-08T14:48:47Z</time>
      </trkpt>
      <trkpt lat="42.71172" lon="1.63341">
        <ele>1915.9</ele>
        <time>2020-02-08T14:48:48Z</time>
      </trkpt>
      <trkpt lat="42.71172" lon="1.63341">
        <ele>1915.9</ele>
        <time>2020-02-08T14:48:49Z</time>
      </trkpt>
      <trkpt lat="42.71172" lon="1.63341">
        <ele>1915.9</ele>
        <time>2020-02-08T14:48:50Z</time>
      </trkpt>
      <trkpt lat="42.71172" lon="1.63341">
        <ele>1915.9</ele>
        <time>2020-02-08T14:48:51Z</time>
      </trkpt>
      <trkpt lat="42.71172" lon="1.63341">
        <ele>1915.9</ele>
        <time>2020-02-08T14:48:52Z</time>
      </trkpt>
      <trkpt lat="42.71172" lon="1.63341">
        <ele>1915.9</ele>
        <time>2020-02-08T14:48:53Z</time>
      </trkpt>
      <trkpt lat="42.71172" lon="1.63341">
        <ele>1915.9</ele>
        <time>2020-02-08T14:48:54Z</time>
      </trkpt>
      <trkpt lat="42.71172" lon="1.63341">
        <ele>1915.9</ele>
        <time>2020-02-08T14:48:55Z</time>
      </trkpt>
      <trkpt lat="42.71172" lon="1.63341">
        <ele>1915.9</ele>
        <time>2020-02-08T14:48:56Z</time>
      </trkpt>
      <trkpt lat="42.71172" lon="1.63341">
        <ele>1915.9</ele>
        <time>2020-02-08T14:48:57Z</time>
      </trkpt>
      <trkpt lat="42.71172" lon="1.63341">
        <ele>1915.9</ele>
        <time>2020-02-08T14:48:58Z</time>
      </trkpt>
      <trkpt lat="42.71172" lon="1.63341">
        <ele>1915.9</ele>
        <time>2020-02-08T14:48:59Z</time>
      </trkpt>
      <trkpt lat="42.71172" lon="1.63341">
        <ele>1915.9</ele>
        <time>2020-02-08T14:49:00Z</time>
      </trkpt>
      <trkpt lat="42.71172" lon="1.63341">
        <ele>1915.9</ele>
        <time>2020-02-08T14:49:01Z</time>
      </trkpt>
      <trkpt lat="42.71172" lon="1.63341">
        <ele>1915.9</ele>
        <time>2020-02-08T14:49:02Z</time>
      </trkpt>
      <trkpt lat="42.71172" lon="1.63341">
        <ele>1915.9</ele>
        <time>2020-02-08T14:49:03Z</time>
      </trkpt>
      <trkpt lat="42.71172" lon="1.63341">
        <ele>1915.9</ele>
        <time>2020-02-08T14:49:04Z</time>
      </trkpt>
      <trkpt lat="42.71172" lon="1.63341">
        <ele>1915.9</ele>
        <time>2020-02-08T14:49:05Z</time>
      </trkpt>
      <trkpt lat="42.71172" lon="1.63341">
        <ele>1915.9</ele>
        <time>2020-02-08T14:49:06Z</time>
      </trkpt>
      <trkpt lat="42.71172" lon="1.63341">
        <ele>1915.9</ele>
        <time>2020-02-08T14:49:07Z</time>
      </trkpt>
      <trkpt lat="42.71172" lon="1.63341">
        <ele>1915.9</ele>
        <time>2020-02-08T14:49:08Z</time>
      </trkpt>
      <trkpt lat="42.71172" lon="1.63341">
        <ele>1915.9</ele>
        <time>2020-02-08T14:49:09Z</time>
      </trkpt>
      <trkpt lat="42.71172" lon="1.63341">
        <ele>1915.9</ele>
        <time>2020-02-08T14:49:10Z</time>
      </trkpt>
      <trkpt lat="42.71172" lon="1.63341">
        <ele>1915.9</ele>
        <time>2020-02-08T14:49:11Z</time>
      </trkpt>
      <trkpt lat="42.71172" lon="1.63341">
        <ele>1915.9</ele>
        <time>2020-02-08T14:49:12Z</time>
      </trkpt>
      <trkpt lat="42.71172" lon="1.63341">
        <ele>1915.9</ele>
        <time>2020-02-08T14:49:13Z</time>
      </trkpt>
      <trkpt lat="42.71172" lon="1.63341">
        <ele>1915.9</ele>
        <time>2020-02-08T14:49:14Z</time>
      </trkpt>
      <trkpt lat="42.71172" lon="1.63341">
        <ele>1915.9</ele>
        <time>2020-02-08T14:49:15Z</time>
      </trkpt>
      <trkpt lat="42.71172" lon="1.63341">
        <ele>1915.9</ele>
        <time>2020-02-08T14:49:16Z</time>
      </trkpt>
      <trkpt lat="42.71172" lon="1.63341">
        <ele>1915.9</ele>
        <time>2020-02-08T14:49:17Z</time>
      </trkpt>
      <trkpt lat="42.71172" lon="1.63341">
        <ele>1915.9</ele>
        <time>2020-02-08T14:49:18Z</time>
      </trkpt>
      <trkpt lat="42.71172" lon="1.63341">
        <ele>1915.9</ele>
        <time>2020-02-08T14:49:19Z</time>
      </trkpt>
      <trkpt lat="42.71172" lon="1.63341">
        <ele>1915.9</ele>
        <time>2020-02-08T14:49:20Z</time>
      </trkpt>
      <trkpt lat="42.71172" lon="1.63341">
        <ele>1915.9</ele>
        <time>2020-02-08T14:49:21Z</time>
      </trkpt>
      <trkpt lat="42.71172" lon="1.63341">
        <ele>1915.9</ele>
        <time>2020-02-08T14:49:22Z</time>
      </trkpt>
      <trkpt lat="42.71172" lon="1.63341">
        <ele>1915.9</ele>
        <time>2020-02-08T14:49:23Z</time>
      </trkpt>
      <trkpt lat="42.71172" lon="1.63341">
        <ele>1915.9</ele>
        <time>2020-02-08T14:49:24Z</time>
      </trkpt>
      <trkpt lat="42.71172" lon="1.63341">
        <ele>1915.9</ele>
        <time>2020-02-08T14:49:25Z</time>
      </trkpt>
      <trkpt lat="42.71172" lon="1.63341">
        <ele>1915.9</ele>
        <time>2020-02-08T14:49:26Z</time>
      </trkpt>
      <trkpt lat="42.71172" lon="1.63341">
        <ele>1915.9</ele>
        <time>2020-02-08T14:49:27Z</time>
      </trkpt>
      <trkpt lat="42.71172" lon="1.63341">
        <ele>1915.9</ele>
        <time>2020-02-08T14:49:28Z</time>
      </trkpt>
      <trkpt lat="42.71172" lon="1.63341">
        <ele>1915.9</ele>
        <time>2020-02-08T14:49:29Z</time>
      </trkpt>
      <trkpt lat="42.71172" lon="1.63341">
        <ele>1915.9</ele>
        <time>2020-02-08T14:49:30Z</time>
      </trkpt>
      <trkpt lat="42.71172" lon="1.63341">
        <ele>1915.9</ele>
        <time>2020-02-08T14:49:31Z</time>
      </trkpt>
      <trkpt lat="42.71172" lon="1.63341">
        <ele>1915.9</ele>
        <time>2020-02-08T14:49:32Z</time>
      </trkpt>
      <trkpt lat="42.71172" lon="1.63341">
        <ele>1915.9</ele>
        <time>2020-02-08T14:49:33Z</time>
      </trkpt>
      <trkpt lat="42.71172" lon="1.63341">
        <ele>1915.9</ele>
        <time>2020-02-08T14:49:34Z</time>
      </trkpt>
      <trkpt lat="42.71172" lon="1.63341">
        <ele>1915.9</ele>
        <time>2020-02-08T14:49:35Z</time>
      </trkpt>
      <trkpt lat="42.71172" lon="1.63341">
        <ele>1915.9</ele>
        <time>2020-02-08T14:49:36Z</time>
      </trkpt>
      <trkpt lat="42.71172" lon="1.63341">
        <ele>1915.9</ele>
        <time>2020-02-08T14:49:37Z</time>
      </trkpt>
      <trkpt lat="42.71172" lon="1.63341">
        <ele>1915.9</ele>
        <time>2020-02-08T14:49:38Z</time>
      </trkpt>
      <trkpt lat="42.71172" lon="1.63341">
        <ele>1915.9</ele>
        <time>2020-02-08T14:49:39Z</time>
      </trkpt>
      <trkpt lat="42.71172" lon="1.63341">
        <ele>1915.9</ele>
        <time>2020-02-08T14:49:40Z</time>
      </trkpt>
      <trkpt lat="42.71172" lon="1.63341">
        <ele>1915.9</ele>
        <time>2020-02-08T14:49:41Z</time>
      </trkpt>
      <trkpt lat="42.71172" lon="1.63341">
        <ele>1915.9</ele>
        <time>2020-02-08T14:49:42Z</time>
      </trkpt>
      <trkpt lat="42.71172" lon="1.63341">
        <ele>1915.9</ele>
        <time>2020-02-08T14:49:43Z</time>
      </trkpt>
      <trkpt lat="42.71172" lon="1.63341">
        <ele>1915.9</ele>
        <time>2020-02-08T14:49:44Z</time>
      </trkpt>
      <trkpt lat="42.71172" lon="1.63341">
        <ele>1915.9</ele>
        <time>2020-02-08T14:49:45Z</time>
      </trkpt>
      <trkpt lat="42.71172" lon="1.63341">
        <ele>1915.9</ele>
        <time>2020-02-08T14:49:46Z</time>
      </trkpt>
      <trkpt lat="42.71172" lon="1.63341">
        <ele>1915.9</ele>
        <time>2020-02-08T14:49:47Z</time>
      </trkpt>
      <trkpt lat="42.71172" lon="1.63341">
        <ele>1915.9</ele>
        <time>2020-02-08T14:49:48Z</time>
      </trkpt>
      <trkpt lat="42.71172" lon="1.63341">
        <ele>1915.9</ele>
        <time>2020-02-08T14:49:49Z</time>
      </trkpt>
      <trkpt lat="42.71172" lon="1.63341">
        <ele>1915.9</ele>
        <time>2020-02-08T14:49:50Z</time>
      </trkpt>
      <trkpt lat="42.71172" lon="1.63341">
        <ele>1915.9</ele>
        <time>2020-02-08T14:49:51Z</time>
      </trkpt>
      <trkpt lat="42.71172" lon="1.63341">
        <ele>1915.9</ele>
        <time>2020-02-08T14:49:52Z</time>
      </trkpt>
      <trkpt lat="42.71172" lon="1.63341">
        <ele>1915.9</ele>
        <time>2020-02-08T14:49:53Z</time>
      </trkpt>
      <trkpt lat="42.71172" lon="1.63341">
        <ele>1915.9</ele>
        <time>2020-02-08T14:49:54Z</time>
      </trkpt>
      <trkpt lat="42.71172" lon="1.63341">
        <ele>1915.9</ele>
        <time>2020-02-08T14:49:55Z</time>
      </trkpt>
      <trkpt lat="42.71172" lon="1.63341">
        <ele>1915.9</ele>
        <time>2020-02-08T14:49:56Z</time>
      </trkpt>
      <trkpt lat="42.71172" lon="1.63341">
        <ele>1915.9</ele>
        <time>2020-02-08T14:49:57Z</time>
      </trkpt>
      <trkpt lat="42.71172" lon="1.63341">
        <ele>1915.9</ele>
        <time>2020-02-08T14:49:58Z</time>
      </trkpt>
      <trkpt lat="42.71172" lon="1.63341">
        <ele>1915.9</ele>
        <time>2020-02-08T14:49:59Z</time>
      </trkpt>
      <trkpt lat="42.71172" lon="1.63341">
        <ele>1915.9</ele>
        <time>2020-02-08T14:50:00Z</time>
      </trkpt>
      <trkpt lat="42.71172" lon="1.63341">
        <ele>1915.9</ele>
        <time>2020-02-08T14:50:01Z</time>
      </trkpt>
      <trkpt lat="42.71172" lon="1.63341">
        <ele>1915.9</ele>
        <time>2020-02-08T14:50:02Z</time>
      </trkpt>
      <trkpt lat="42.71172" lon="1.63341">
        <ele>1915.9</ele>
        <time>2020-02-08T14:50:03Z</time>
      </trkpt>
      <trkpt lat="42.71172" lon="1.63341">
        <ele>1915.9</ele>
        <time>2020-02-08T14:50:04Z</time>
      </trkpt>
      <trkpt lat="42.71172" lon="1.63341">
        <ele>1915.9</ele>
        <time>2020-02-08T14:50:05Z</time>
      </trkpt>
      <trkpt lat="42.71172" lon="1.63341">
        <ele>1915.9</ele>
        <time>2020-02-08T14:50:06Z</time>
      </trkpt>
      <trkpt lat="42.71172" lon="1.63341">
        <ele>1915.9</ele>
        <time>2020-02-08T14:50:07Z</time>
      </trkpt>
      <trkpt lat="42.71172" lon="1.63341">
        <ele>1915.9</ele>
        <time>2020-02-08T14:50:08Z</time>
      </trkpt>
      <trkpt lat="42.71172" lon="1.63341">
        <ele>1915.9</ele>
        <time>2020-02-08T14:50:09Z</time>
      </trkpt>
      <trkpt lat="42.71172" lon="1.63341">
        <ele>1915.9</ele>
        <time>2020-02-08T14:50:10Z</time>
      </trkpt>
      <trkpt lat="42.71172" lon="1.63341">
        <ele>1915.9</ele>
        <time>2020-02-08T14:50:11Z</time>
      </trkpt>
      <trkpt lat="42.71172" lon="1.63341">
        <ele>1915.9</ele>
        <time>2020-02-08T14:50:12Z</time>
      </trkpt>
      <trkpt lat="42.71172" lon="1.63341">
        <ele>1915.9</ele>
        <time>2020-02-08T14:50:13Z</time>
      </trkpt>
      <trkpt lat="42.71172" lon="1.63341">
        <ele>1915.9</ele>
        <time>2020-02-08T14:50:14Z</time>
      </trkpt>
      <trkpt lat="42.71172" lon="1.63341">
        <ele>1915.9</ele>
        <time>2020-02-08T14:50:15Z</time>
      </trkpt>
      <trkpt lat="42.71172" lon="1.63341">
        <ele>1915.9</ele>
        <time>2020-02-08T14:50:16Z</time>
      </trkpt>
      <trkpt lat="42.71172" lon="1.63341">
        <ele>1915.9</ele>
        <time>2020-02-08T14:50:17Z</time>
      </trkpt>
      <trkpt lat="42.71172" lon="1.63341">
        <ele>1915.9</ele>
        <time>2020-02-08T14:50:18Z</time>
      </trkpt>
      <trkpt lat="42.71172" lon="1.63341">
        <ele>1915.9</ele>
        <time>2020-02-08T14:50:19Z</time>
      </trkpt>
      <trkpt lat="42.71172" lon="1.63341">
        <ele>1915.9</ele>
        <time>2020-02-08T14:50:20Z</time>
      </trkpt>
      <trkpt lat="42.71172" lon="1.63341">
        <ele>1915.9</ele>
        <time>2020-02-08T14:50:21Z</time>
      </trkpt>
      <trkpt lat="42.71172" lon="1.63341">
        <ele>1915.9</ele>
        <time>2020-02-08T14:50:22Z</time>
      </trkpt>
      <trkpt lat="42.71172" lon="1.63341">
        <ele>1915.9</ele>
        <time>2020-02-08T14:50:23Z</time>
      </trkpt>
      <trkpt lat="42.71172" lon="1.63341">
        <ele>1915.9</ele>
        <time>2020-02-08T14:50:24Z</time>
      </trkpt>
      <trkpt lat="42.71172" lon="1.63341">
        <ele>1915.9</ele>
        <time>2020-02-08T14:50:25Z</time>
      </trkpt>
      <trkpt lat="42.71172" lon="1.63341">
        <ele>1915.9</ele>
        <time>2020-02-08T14:50:26Z</time>
      </trkpt>
      <trkpt lat="42.71172" lon="1.63341">
        <ele>1915.9</ele>
        <time>2020-02-08T14:50:27Z</time>
      </trkpt>
      <trkpt lat="42.71172" lon="1.63341">
        <ele>1915.9</ele>
        <time>2020-02-08T14:50:28Z</time>
      </trkpt>
      <trkpt lat="42.71172" lon="1.63341">
        <ele>1915.9</ele>
        <time>2020-02-08T14:50:29Z</time>
      </trkpt>
      <trkpt lat="42.71172" lon="1.63341">
        <ele>1915.9</ele>
        <time>2020-02-08T14:50:30Z</time>
      </trkpt>
      <trkpt lat="42.71172" lon="1.63341">
        <ele>1915.9</ele>
        <time>2020-02-08T14:50:31Z</time>
      </trkpt>
      <trkpt lat="42.71172" lon="1.63341">
        <ele>1915.9</ele>
        <time>2020-02-08T14:50:32Z</time>
      </trkpt>
      <trkpt lat="42.71172" lon="1.63341">
        <ele>1915.9</ele>
        <time>2020-02-08T14:50:33Z</time>
      </trkpt>
      <trkpt lat="42.71172" lon="1.63341">
        <ele>1915.9</ele>
        <time>2020-02-08T14:50:34Z</time>
      </trkpt>
      <trkpt lat="42.71172" lon="1.63341">
        <ele>1915.9</ele>
        <time>2020-02-08T14:50:35Z</time>
      </trkpt>
      <trkpt lat="42.71172" lon="1.63341">
        <ele>1915.9</ele>
        <time>2020-02-08T14:50:36Z</time>
      </trkpt>
      <trkpt lat="42.71172" lon="1.63341">
        <ele>1915.9</ele>
        <time>2020-02-08T14:50:37Z</time>
      </trkpt>
      <trkpt lat="42.71172" lon="1.63341">
        <ele>1915.9</ele>
        <time>2020-02-08T14:50:38Z</time>
      </trkpt>
      <trkpt lat="42.71172" lon="1.63341">
        <ele>1915.9</ele>
        <time>2020-02-08T14:50:39Z</time>
      </trkpt>
      <trkpt lat="42.71172" lon="1.63341">
        <ele>1915.9</ele>
        <time>2020-02-08T14:50:40Z</time>
      </trkpt>
      <trkpt lat="42.71172" lon="1.63341">
        <ele>1915.9</ele>
        <time>2020-02-08T14:50:41Z</time>
      </trkpt>
      <trkpt lat="42.71172" lon="1.63341">
        <ele>1915.9</ele>
        <time>2020-02-08T14:50:42Z</time>
      </trkpt>
      <trkpt lat="42.71172" lon="1.63341">
        <ele>1915.9</ele>
        <time>2020-02-08T14:50:43Z</time>
      </trkpt>
      <trkpt lat="42.71172" lon="1.63341">
        <ele>1915.9</ele>
        <time>2020-02-08T14:50:44Z</time>
      </trkpt>
      <trkpt lat="42.71172" lon="1.63341">
        <ele>1915.9</ele>
        <time>2020-02-08T14:50:45Z</time>
      </trkpt>
      <trkpt lat="42.71172" lon="1.63341">
        <ele>1915.9</ele>
        <time>2020-02-08T14:50:46Z</time>
      </trkpt>
      <trkpt lat="42.71172" lon="1.63341">
        <ele>1915.9</ele>
        <time>2020-02-08T14:50:47Z</time>
      </trkpt>
      <trkpt lat="42.71172" lon="1.63341">
        <ele>1915.9</ele>
        <time>2020-02-08T14:50:48Z</time>
      </trkpt>
      <trkpt lat="42.71172" lon="1.63341">
        <ele>1915.9</ele>
        <time>2020-02-08T14:50:49Z</time>
      </trkpt>
      <trkpt lat="42.71172" lon="1.63341">
        <ele>1915.9</ele>
        <time>2020-02-08T14:50:50Z</time>
      </trkpt>
      <trkpt lat="42.71172" lon="1.63341">
        <ele>1915.9</ele>
        <time>2020-02-08T14:50:51Z</time>
      </trkpt>
      <trkpt lat="42.71172" lon="1.63341">
        <ele>1915.9</ele>
        <time>2020-02-08T14:50:52Z</time>
      </trkpt>
      <trkpt lat="42.71172" lon="1.63341">
        <ele>1915.9</ele>
        <time>2020-02-08T14:50:53Z</time>
      </trkpt>
      <trkpt lat="42.71172" lon="1.63341">
        <ele>1915.9</ele>
        <time>2020-02-08T14:50:54Z</time>
      </trkpt>
      <trkpt lat="42.71172" lon="1.63341">
        <ele>1915.9</ele>
        <time>2020-02-08T14:50:55Z</time>
      </trkpt>
      <trkpt lat="42.71172" lon="1.63341">
        <ele>1915.9</ele>
        <time>2020-02-08T14:50:56Z</time>
      </trkpt>
      <trkpt lat="42.71172" lon="1.63341">
        <ele>1915.9</ele>
        <time>2020-02-08T14:50:57Z</time>
      </trkpt>
      <trkpt lat="42.71172" lon="1.63341">
        <ele>1915.9</ele>
        <time>2020-02-08T14:50:58Z</time>
      </trkpt>
      <trkpt lat="42.71172" lon="1.63341">
        <ele>1915.9</ele>
        <time>2020-02-08T14:50:59Z</time>
      </trkpt>
      <trkpt lat="42.71172" lon="1.63341">
        <ele>1915.9</ele>
        <time>2020-02-08T14:51:00Z</time>
      </trkpt>
      <trkpt lat="42.71172" lon="1.63341">
        <ele>1915.9</ele>
        <time>2020-02-08T14:51:01Z</time>
      </trkpt>
      <trkpt lat="42.71172" lon="1.63341">
        <ele>1915.9</ele>
        <time>2020-02-08T14:51:02Z</time>
      </trkpt>
      <trkpt lat="42.71172" lon="1.63341">
        <ele>1915.9</ele>
        <time>2020-02-08T14:51:03Z</time>
      </trkpt>
      <trkpt lat="42.71172" lon="1.63341">
        <ele>1915.9</ele>
        <time>2020-02-08T14:51:04Z</time>
      </trkpt>
      <trkpt lat="42.71172" lon="1.63341">
        <ele>1915.9</ele>
        <time>2020-02-08T14:51:05Z</time>
      </trkpt>
      <trkpt lat="42.71172" lon="1.63341">
        <ele>1915.9</ele>
        <time>2020-02-08T14:51:06Z</time>
      </trkpt>
      <trkpt lat="42.71172" lon="1.63341">
        <ele>1915.9</ele>
        <time>2020-02-08T14:51:07Z</time>
      </trkpt>
      <trkpt lat="42.71172" lon="1.63341">
        <ele>1915.9</ele>
        <time>2020-02-08T14:51:08Z</time>
      </trkpt>
      <trkpt lat="42.71172" lon="1.63341">
        <ele>1915.9</ele>
        <time>2020-02-08T14:51:09Z</time>
      </trkpt>
      <trkpt lat="42.71172" lon="1.63341">
        <ele>1915.9</ele>
        <time>2020-02-08T14:51:10Z</time>
      </trkpt>
      <trkpt lat="42.71172" lon="1.63341">
        <ele>1915.9</ele>
        <time>2020-02-08T14:51:11Z</time>
      </trkpt>
      <trkpt lat="42.71172" lon="1.63341">
        <ele>1915.9</ele>
        <time>2020-02-08T14:51:12Z</time>
      </trkpt>
      <trkpt lat="42.71172" lon="1.63341">
        <ele>1915.9</ele>
        <time>2020-02-08T14:51:13Z</time>
      </trkpt>
      <trkpt lat="42.71172" lon="1.63341">
        <ele>1915.9</ele>
        <time>2020-02-08T14:51:14Z</time>
      </trkpt>
      <trkpt lat="42.71172" lon="1.63341">
        <ele>1915.9</ele>
        <time>2020-02-08T14:51:15Z</time>
      </trkpt>
      <trkpt lat="42.71172" lon="1.63341">
        <ele>1915.9</ele>
        <time>2020-02-08T14:51:16Z</time>
      </trkpt>
      <trkpt lat="42.71172" lon="1.63341">
        <ele>1915.9</ele>
        <time>2020-02-08T14:51:17Z</time>
      </trkpt>
      <trkpt lat="42.71172" lon="1.63341">
        <ele>1915.9</ele>
        <time>2020-02-08T14:51:18Z</time>
      </trkpt>
      <trkpt lat="42.71172" lon="1.63341">
        <ele>1915.9</ele>
        <time>2020-02-08T14:51:19Z</time>
      </trkpt>
      <trkpt lat="42.71172" lon="1.63341">
        <ele>1915.9</ele>
        <time>2020-02-08T14:51:20Z</time>
      </trkpt>
      <trkpt lat="42.71172" lon="1.63341">
        <ele>1915.9</ele>
        <time>2020-02-08T14:51:21Z</time>
      </trkpt>
      <trkpt lat="42.71172" lon="1.63341">
        <ele>1915.9</ele>
        <time>2020-02-08T14:51:22Z</time>
      </trkpt>
      <trkpt lat="42.71172" lon="1.63341">
        <ele>1915.9</ele>
        <time>2020-02-08T14:51:23Z</time>
      </trkpt>
      <trkpt lat="42.71172" lon="1.63341">
        <ele>1915.9</ele>
        <time>2020-02-08T14:51:24Z</time>
      </trkpt>
      <trkpt lat="42.71172" lon="1.63341">
        <ele>1915.9</ele>
        <time>2020-02-08T14:51:25Z</time>
      </trkpt>
      <trkpt lat="42.71172" lon="1.63341">
        <ele>1915.9</ele>
        <time>2020-02-08T14:51:26Z</time>
      </trkpt>
      <trkpt lat="42.71172" lon="1.63341">
        <ele>1915.9</ele>
        <time>2020-02-08T14:51:27Z</time>
      </trkpt>
      <trkpt lat="42.71172" lon="1.63341">
        <ele>1915.9</ele>
        <time>2020-02-08T14:51:28Z</time>
      </trkpt>
      <trkpt lat="42.71172" lon="1.63341">
        <ele>1915.9</ele>
        <time>2020-02-08T14:51:29Z</time>
      </trkpt>
      <trkpt lat="42.71172" lon="1.63341">
        <ele>1915.9</ele>
        <time>2020-02-08T14:51:30Z</time>
      </trkpt>
      <trkpt lat="42.71172" lon="1.63341">
        <ele>1915.9</ele>
        <time>2020-02-08T14:51:31Z</time>
      </trkpt>
      <trkpt lat="42.71172" lon="1.63341">
        <ele>1915.9</ele>
        <time>2020-02-08T14:51:32Z</time>
      </trkpt>
      <trkpt lat="42.71172" lon="1.63341">
        <ele>1915.9</ele>
        <time>2020-02-08T14:51:33Z</time>
      </trkpt>
      <trkpt lat="42.71172" lon="1.63341">
        <ele>1915.9</ele>
        <time>2020-02-08T14:51:34Z</time>
      </trkpt>
      <trkpt lat="42.71172" lon="1.63341">
        <ele>1915.9</ele>
        <time>2020-02-08T14:51:35Z</time>
      </trkpt>
      <trkpt lat="42.71172" lon="1.63341">
        <ele>1915.9</ele>
        <time>2020-02-08T14:51:36Z</time>
      </trkpt>
      <trkpt lat="42.71172" lon="1.63341">
        <ele>1915.9</ele>
        <time>2020-02-08T14:51:37Z</time>
      </trkpt>
      <trkpt lat="42.71172" lon="1.63341">
        <ele>1915.9</ele>
        <time>2020-02-08T14:51:38Z</time>
      </trkpt>
      <trkpt lat="42.71172" lon="1.63341">
        <ele>1915.9</ele>
        <time>2020-02-08T14:51:39Z</time>
      </trkpt>
      <trkpt lat="42.71172" lon="1.63341">
        <ele>1915.9</ele>
        <time>2020-02-08T14:51:40Z</time>
      </trkpt>
      <trkpt lat="42.71172" lon="1.63341">
        <ele>1915.9</ele>
        <time>2020-02-08T14:51:41Z</time>
      </trkpt>
      <trkpt lat="42.71172" lon="1.63341">
        <ele>1915.9</ele>
        <time>2020-02-08T14:51:42Z</time>
      </trkpt>
      <trkpt lat="42.71172" lon="1.63341">
        <ele>1915.9</ele>
        <time>2020-02-08T14:51:43Z</time>
      </trkpt>
      <trkpt lat="42.71172" lon="1.63341">
        <ele>1915.9</ele>
        <time>2020-02-08T14:51:44Z</time>
      </trkpt>
      <trkpt lat="42.71172" lon="1.63341">
        <ele>1915.9</ele>
        <time>2020-02-08T14:51:45Z</time>
      </trkpt>
      <trkpt lat="42.71172" lon="1.63341">
        <ele>1915.9</ele>
        <time>2020-02-08T14:51:46Z</time>
      </trkpt>
      <trkpt lat="42.71172" lon="1.63341">
        <ele>1915.9</ele>
        <time>2020-02-08T14:51:47Z</time>
      </trkpt>
      <trkpt lat="42.71172" lon="1.63341">
        <ele>1915.9</ele>
        <time>2020-02-08T14:51:48Z</time>
      </trkpt>
      <trkpt lat="42.71172" lon="1.63341">
        <ele>1915.9</ele>
        <time>2020-02-08T14:51:49Z</time>
      </trkpt>
      <trkpt lat="42.71172" lon="1.63341">
        <ele>1915.9</ele>
        <time>2020-02-08T14:51:50Z</time>
      </trkpt>
      <trkpt lat="42.71172" lon="1.63341">
        <ele>1915.9</ele>
        <time>2020-02-08T14:51:51Z</time>
      </trkpt>
      <trkpt lat="42.71172" lon="1.63341">
        <ele>1915.9</ele>
        <time>2020-02-08T14:51:52Z</time>
      </trkpt>
      <trkpt lat="42.71172" lon="1.63341">
        <ele>1915.9</ele>
        <time>2020-02-08T14:51:53Z</time>
      </trkpt>
      <trkpt lat="42.71172" lon="1.63341">
        <ele>1915.9</ele>
        <time>2020-02-08T14:51:54Z</time>
      </trkpt>
      <trkpt lat="42.71172" lon="1.63341">
        <ele>1915.9</ele>
        <time>2020-02-08T14:51:55Z</time>
      </trkpt>
      <trkpt lat="42.71172" lon="1.63341">
        <ele>1915.9</ele>
        <time>2020-02-08T14:51:56Z</time>
      </trkpt>
      <trkpt lat="42.71172" lon="1.63341">
        <ele>1915.9</ele>
        <time>2020-02-08T14:51:57Z</time>
      </trkpt>
      <trkpt lat="42.71172" lon="1.63341">
        <ele>1915.9</ele>
        <time>2020-02-08T14:51:58Z</time>
      </trkpt>
      <trkpt lat="42.71172" lon="1.63341">
        <ele>1915.9</ele>
        <time>2020-02-08T14:51:59Z</time>
      </trkpt>
      <trkpt lat="42.71172" lon="1.63341">
        <ele>1915.9</ele>
        <time>2020-02-08T14:52:00Z</time>
      </trkpt>
      <trkpt lat="42.71172" lon="1.63341">
        <ele>1915.9</ele>
        <time>2020-02-08T14:52:01Z</time>
      </trkpt>
      <trkpt lat="42.71172" lon="1.63341">
        <ele>1915.9</ele>
        <time>2020-02-08T14:52:02Z</time>
      </trkpt>
      <trkpt lat="42.71172" lon="1.63341">
        <ele>1915.9</ele>
        <time>2020-02-08T14:52:03Z</time>
      </trkpt>
      <trkpt lat="42.71172" lon="1.63341">
        <ele>1915.9</ele>
        <time>2020-02-08T14:52:04Z</time>
      </trkpt>
      <trkpt lat="42.71172" lon="1.63341">
        <ele>1915.9</ele>
        <time>2020-02-08T14:52:05Z</time>
      </trkpt>
      <trkpt lat="42.71172" lon="1.63341">
        <ele>1915.9</ele>
        <time>2020-02-08T14:52:06Z</time>
      </trkpt>
      <trkpt lat="42.71172" lon="1.63341">
        <ele>1915.9</ele>
        <time>2020-02-08T14:52:07Z</time>
      </trkpt>
      <trkpt lat="42.71172" lon="1.63341">
        <ele>1915.9</ele>
        <time>2020-02-08T14:52:08Z</time>
      </trkpt>
      <trkpt lat="42.71172" lon="1.63341">
        <ele>1915.9</ele>
        <time>2020-02-08T14:52:09Z</time>
      </trkpt>
      <trkpt lat="42.71172" lon="1.63341">
        <ele>1915.9</ele>
        <time>2020-02-08T14:52:10Z</time>
      </trkpt>
      <trkpt lat="42.71172" lon="1.63341">
        <ele>1915.9</ele>
        <time>2020-02-08T14:52:11Z</time>
      </trkpt>
      <trkpt lat="42.71172" lon="1.63341">
        <ele>1915.9</ele>
        <time>2020-02-08T14:52:12Z</time>
      </trkpt>
      <trkpt lat="42.71172" lon="1.63341">
        <ele>1915.9</ele>
        <time>2020-02-08T14:52:13Z</time>
      </trkpt>
      <trkpt lat="42.71172" lon="1.63341">
        <ele>1915.9</ele>
        <time>2020-02-08T14:52:14Z</time>
      </trkpt>
      <trkpt lat="42.71172" lon="1.63341">
        <ele>1915.9</ele>
        <time>2020-02-08T14:52:15Z</time>
      </trkpt>
      <trkpt lat="42.71172" lon="1.63341">
        <ele>1915.9</ele>
        <time>2020-02-08T14:52:16Z</time>
      </trkpt>
      <trkpt lat="42.71172" lon="1.63341">
        <ele>1915.9</ele>
        <time>2020-02-08T14:52:17Z</time>
      </trkpt>
      <trkpt lat="42.71172" lon="1.63341">
        <ele>1915.9</ele>
        <time>2020-02-08T14:52:18Z</time>
      </trkpt>
      <trkpt lat="42.71172" lon="1.63341">
        <ele>1915.9</ele>
        <time>2020-02-08T14:52:19Z</time>
      </trkpt>
      <trkpt lat="42.71172" lon="1.63341">
        <ele>1915.9</ele>
        <time>2020-02-08T14:52:20Z</time>
      </trkpt>
      <trkpt lat="42.71172" lon="1.63341">
        <ele>1915.9</ele>
        <time>2020-02-08T14:52:21Z</time>
      </trkpt>
      <trkpt lat="42.71172" lon="1.63341">
        <ele>1915.9</ele>
        <time>2020-02-08T14:52:22Z</time>
      </trkpt>
      <trkpt lat="42.71172" lon="1.63341">
        <ele>1915.9</ele>
        <time>2020-02-08T14:52:23Z</time>
      </trkpt>
      <trkpt lat="42.71172" lon="1.63341">
        <ele>1915.9</ele>
        <time>2020-02-08T14:52:24Z</time>
      </trkpt>
      <trkpt lat="42.71172" lon="1.63341">
        <ele>1915.9</ele>
        <time>2020-02-08T14:52:25Z</time>
      </trkpt>
      <trkpt lat="42.71172" lon="1.63341">
        <ele>1915.9</ele>
        <time>2020-02-08T14:52:26Z</time>
      </trkpt>
      <trkpt lat="42.71172" lon="1.63341">
        <ele>1915.9</ele>
        <time>2020-02-08T14:52:27Z</time>
      </trkpt>
      <trkpt lat="42.71172" lon="1.63341">
        <ele>1915.9</ele>
        <time>2020-02-08T14:52:28Z</time>
      </trkpt>
      <trkpt lat="42.71172" lon="1.63341">
        <ele>1915.9</ele>
        <time>2020-02-08T14:52:29Z</time>
      </trkpt>
      <trkpt lat="42.71172" lon="1.63341">
        <ele>1915.9</ele>
        <time>2020-02-08T14:52:30Z</time>
      </trkpt>
      <trkpt lat="42.71172" lon="1.63341">
        <ele>1915.9</ele>
        <time>2020-02-08T14:52:31Z</time>
      </trkpt>
      <trkpt lat="42.71172" lon="1.63341">
        <ele>1915.9</ele>
        <time>2020-02-08T14:52:32Z</time>
      </trkpt>
      <trkpt lat="42.71172" lon="1.63341">
        <ele>1915.9</ele>
        <time>2020-02-08T14:52:33Z</time>
      </trkpt>
      <trkpt lat="42.71172" lon="1.63341">
        <ele>1915.9</ele>
        <time>2020-02-08T14:52:34Z</time>
      </trkpt>
      <trkpt lat="42.71172" lon="1.63341">
        <ele>1915.9</ele>
        <time>2020-02-08T14:52:35Z</time>
      </trkpt>
      <trkpt lat="42.71172" lon="1.63341">
        <ele>1915.9</ele>
        <time>2020-02-08T14:52:36Z</time>
      </trkpt>
      <trkpt lat="42.71172" lon="1.63341">
        <ele>1915.9</ele>
        <time>2020-02-08T14:52:37Z</time>
      </trkpt>
      <trkpt lat="42.71172" lon="1.63341">
        <ele>1915.9</ele>
        <time>2020-02-08T14:52:38Z</time>
      </trkpt>
      <trkpt lat="42.71172" lon="1.63341">
        <ele>1915.9</ele>
        <time>2020-02-08T14:52:39Z</time>
      </trkpt>
      <trkpt lat="42.71172" lon="1.63341">
        <ele>1915.9</ele>
        <time>2020-02-08T14:52:40Z</time>
      </trkpt>
      <trkpt lat="42.71172" lon="1.63341">
        <ele>1915.9</ele>
        <time>2020-02-08T14:52:41Z</time>
      </trkpt>
      <trkpt lat="42.71172" lon="1.63341">
        <ele>1915.9</ele>
        <time>2020-02-08T14:52:42Z</time>
      </trkpt>
      <trkpt lat="42.71172" lon="1.63341">
        <ele>1915.9</ele>
        <time>2020-02-08T14:52:43Z</time>
      </trkpt>
      <trkpt lat="42.71172" lon="1.63341">
        <ele>1915.9</ele>
        <time>2020-02-08T14:52:44Z</time>
      </trkpt>
      <trkpt lat="42.71172" lon="1.63341">
        <ele>1915.9</ele>
        <time>2020-02-08T14:52:45Z</time>
      </trkpt>
      <trkpt lat="42.71172" lon="1.63341">
        <ele>1915.9</ele>
        <time>2020-02-08T14:52:46Z</time>
      </trkpt>
      <trkpt lat="42.71172" lon="1.63341">
        <ele>1915.9</ele>
        <time>2020-02-08T14:52:47Z</time>
      </trkpt>
      <trkpt lat="42.71172" lon="1.63341">
        <ele>1915.9</ele>
        <time>2020-02-08T14:52:48Z</time>
      </trkpt>
      <trkpt lat="42.71172" lon="1.63341">
        <ele>1915.9</ele>
        <time>2020-02-08T14:52:49Z</time>
      </trkpt>
      <trkpt lat="42.71172" lon="1.63341">
        <ele>1915.9</ele>
        <time>2020-02-08T14:52:50Z</time>
      </trkpt>
      <trkpt lat="42.71172" lon="1.63341">
        <ele>1915.9</ele>
        <time>2020-02-08T14:52:51Z</time>
      </trkpt>
      <trkpt lat="42.71172" lon="1.63341">
        <ele>1915.9</ele>
        <time>2020-02-08T14:52:52Z</time>
      </trkpt>
      <trkpt lat="42.71172" lon="1.63341">
        <ele>1915.9</ele>
        <time>2020-02-08T14:52:53Z</time>
      </trkpt>
      <trkpt lat="42.71172" lon="1.63341">
        <ele>1915.9</ele>
        <time>2020-02-08T14:52:54Z</time>
      </trkpt>
      <trkpt lat="42.71172" lon="1.63341">
        <ele>1915.9</ele>
        <time>2020-02-08T14:52:55Z</time>
      </trkpt>
      <trkpt lat="42.71172" lon="1.63341">
        <ele>1915.9</ele>
        <time>2020-02-08T14:52:56Z</time>
      </trkpt>
      <trkpt lat="42.71172" lon="1.63341">
        <ele>1915.9</ele>
        <time>2020-02-08T14:52:57Z</time>
      </trkpt>
      <trkpt lat="42.71172" lon="1.63341">
        <ele>1915.9</ele>
        <time>2020-02-08T14:52:58Z</time>
      </trkpt>
      <trkpt lat="42.71172" lon="1.63341">
        <ele>1915.9</ele>
        <time>2020-02-08T14:52:59Z</time>
      </trkpt>
      <trkpt lat="42.71172" lon="1.63341">
        <ele>1915.9</ele>
        <time>2020-02-08T14:53:00Z</time>
      </trkpt>
      <trkpt lat="42.71172" lon="1.63341">
        <ele>1915.9</ele>
        <time>2020-02-08T14:53:01Z</time>
      </trkpt>
      <trkpt lat="42.71172" lon="1.63341">
        <ele>1915.9</ele>
        <time>2020-02-08T14:53:02Z</time>
      </trkpt>
      <trkpt lat="42.71172" lon="1.63341">
        <ele>1915.9</ele>
        <time>2020-02-08T14:53:03Z</time>
      </trkpt>
      <trkpt lat="42.71172" lon="1.63341">
        <ele>1915.9</ele>
        <time>2020-02-08T14:53:04Z</time>
      </trkpt>
      <trkpt lat="42.71172" lon="1.63341">
        <ele>1915.9</ele>
        <time>2020-02-08T14:53:05Z</time>
      </trkpt>
      <trkpt lat="42.71172" lon="1.63341">
        <ele>1915.9</ele>
        <time>2020-02-08T14:53:06Z</time>
      </trkpt>
      <trkpt lat="42.71172" lon="1.63341">
        <ele>1915.9</ele>
        <time>2020-02-08T14:53:07Z</time>
      </trkpt>
      <trkpt lat="42.71172" lon="1.63341">
        <ele>1915.9</ele>
        <time>2020-02-08T14:53:08Z</time>
      </trkpt>
      <trkpt lat="42.71172" lon="1.63341">
        <ele>1915.9</ele>
        <time>2020-02-08T14:53:09Z</time>
      </trkpt>
      <trkpt lat="42.71172" lon="1.63341">
        <ele>1915.9</ele>
        <time>2020-02-08T14:53:10Z</time>
      </trkpt>
      <trkpt lat="42.71172" lon="1.63341">
        <ele>1915.9</ele>
        <time>2020-02-08T14:53:11Z</time>
      </trkpt>
      <trkpt lat="42.71172" lon="1.63341">
        <ele>1915.9</ele>
        <time>2020-02-08T14:53:12Z</time>
      </trkpt>
      <trkpt lat="42.71172" lon="1.63341">
        <ele>1915.9</ele>
        <time>2020-02-08T14:53:13Z</time>
      </trkpt>
      <trkpt lat="42.71172" lon="1.63341">
        <ele>1915.9</ele>
        <time>2020-02-08T14:53:14Z</time>
      </trkpt>
      <trkpt lat="42.71172" lon="1.63341">
        <ele>1915.9</ele>
        <time>2020-02-08T14:53:15Z</time>
      </trkpt>
      <trkpt lat="42.71172" lon="1.63341">
        <ele>1915.9</ele>
        <time>2020-02-08T14:53:16Z</time>
      </trkpt>
      <trkpt lat="42.71172" lon="1.63341">
        <ele>1915.9</ele>
        <time>2020-02-08T14:53:17Z</time>
      </trkpt>
      <trkpt lat="42.71172" lon="1.63341">
        <ele>1915.9</ele>
        <time>2020-02-08T14:53:18Z</time>
      </trkpt>
      <trkpt lat="42.71172" lon="1.63341">
        <ele>1915.9</ele>
        <time>2020-02-08T14:53:19Z</time>
      </trkpt>
      <trkpt lat="42.71172" lon="1.63341">
        <ele>1915.9</ele>
        <time>2020-02-08T14:53:20Z</time>
      </trkpt>
      <trkpt lat="42.71172" lon="1.63341">
        <ele>1915.9</ele>
        <time>2020-02-08T14:53:21Z</time>
      </trkpt>
      <trkpt lat="42.71172" lon="1.63341">
        <ele>1915.9</ele>
        <time>2020-02-08T14:53:22Z</time>
      </trkpt>
      <trkpt lat="42.71172" lon="1.63341">
        <ele>1915.9</ele>
        <time>2020-02-08T14:53:23Z</time>
      </trkpt>
      <trkpt lat="42.71172" lon="1.63341">
        <ele>1915.9</ele>
        <time>2020-02-08T14:53:24Z</time>
      </trkpt>
      <trkpt lat="42.71172" lon="1.63341">
        <ele>1915.9</ele>
        <time>2020-02-08T14:53:25Z</time>
      </trkpt>
      <trkpt lat="42.71172" lon="1.63341">
        <ele>1915.9</ele>
        <time>2020-02-08T14:53:26Z</time>
      </trkpt>
      <trkpt lat="42.71172" lon="1.63341">
        <ele>1915.9</ele>
        <time>2020-02-08T14:53:27Z</time>
      </trkpt>
      <trkpt lat="42.71172" lon="1.63341">
        <ele>1915.9</ele>
        <time>2020-02-08T14:53:28Z</time>
      </trkpt>
      <trkpt lat="42.71172" lon="1.63341">
        <ele>1915.9</ele>
        <time>2020-02-08T14:53:29Z</time>
      </trkpt>
      <trkpt lat="42.71172" lon="1.63341">
        <ele>1915.9</ele>
        <time>2020-02-08T14:53:30Z</time>
      </trkpt>
      <trkpt lat="42.71172" lon="1.63341">
        <ele>1915.9</ele>
        <time>2020-02-08T14:53:31Z</time>
      </trkpt>
      <trkpt lat="42.71172" lon="1.63341">
        <ele>1915.9</ele>
        <time>2020-02-08T14:53:32Z</time>
      </trkpt>
      <trkpt lat="42.71172" lon="1.63341">
        <ele>1915.9</ele>
        <time>2020-02-08T14:53:33Z</time>
      </trkpt>
      <trkpt lat="42.71172" lon="1.63341">
        <ele>1915.9</ele>
        <time>2020-02-08T14:53:34Z</time>
      </trkpt>
      <trkpt lat="42.71172" lon="1.63341">
        <ele>1915.9</ele>
        <time>2020-02-08T14:53:35Z</time>
      </trkpt>
      <trkpt lat="42.71172" lon="1.63341">
        <ele>1915.9</ele>
        <time>2020-02-08T14:53:36Z</time>
      </trkpt>
      <trkpt lat="42.71172" lon="1.63341">
        <ele>1915.9</ele>
        <time>2020-02-08T14:53:37Z</time>
      </trkpt>
      <trkpt lat="42.71172" lon="1.63341">
        <ele>1915.9</ele>
        <time>2020-02-08T14:53:38Z</time>
      </trkpt>
      <trkpt lat="42.71172" lon="1.63341">
        <ele>1915.9</ele>
        <time>2020-02-08T14:53:39Z</time>
      </trkpt>
      <trkpt lat="42.71172" lon="1.63341">
        <ele>1915.9</ele>
        <time>2020-02-08T14:53:40Z</time>
      </trkpt>
      <trkpt lat="42.71172" lon="1.63341">
        <ele>1915.9</ele>
        <time>2020-02-08T14:53:41Z</time>
      </trkpt>
      <trkpt lat="42.71172" lon="1.63341">
        <ele>1915.9</ele>
        <time>2020-02-08T14:53:42Z</time>
      </trkpt>
      <trkpt lat="42.71172" lon="1.63341">
        <ele>1915.9</ele>
        <time>2020-02-08T14:53:43Z</time>
      </trkpt>
      <trkpt lat="42.71172" lon="1.63341">
        <ele>1915.9</ele>
        <time>2020-02-08T14:53:44Z</time>
      </trkpt>
      <trkpt lat="42.71172" lon="1.63341">
        <ele>1915.9</ele>
        <time>2020-02-08T14:53:45Z</time>
      </trkpt>
      <trkpt lat="42.71172" lon="1.63341">
        <ele>1915.9</ele>
        <time>2020-02-08T14:53:46Z</time>
      </trkpt>
      <trkpt lat="42.71172" lon="1.63341">
        <ele>1915.9</ele>
        <time>2020-02-08T14:53:47Z</time>
      </trkpt>
      <trkpt lat="42.71172" lon="1.63341">
        <ele>1915.9</ele>
        <time>2020-02-08T14:53:48Z</time>
      </trkpt>
      <trkpt lat="42.71172" lon="1.63341">
        <ele>1915.9</ele>
        <time>2020-02-08T14:53:49Z</time>
      </trkpt>
      <trkpt lat="42.71172" lon="1.63341">
        <ele>1915.9</ele>
        <time>2020-02-08T14:53:50Z</time>
      </trkpt>
      <trkpt lat="42.71172" lon="1.63341">
        <ele>1915.9</ele>
        <time>2020-02-08T14:53:51Z</time>
      </trkpt>
      <trkpt lat="42.71172" lon="1.63341">
        <ele>1915.9</ele>
        <time>2020-02-08T14:53:52Z</time>
      </trkpt>
      <trkpt lat="42.71172" lon="1.63341">
        <ele>1915.9</ele>
        <time>2020-02-08T14:53:53Z</time>
      </trkpt>
      <trkpt lat="42.71172" lon="1.63341">
        <ele>1915.9</ele>
        <time>2020-02-08T14:53:54Z</time>
      </trkpt>
      <trkpt lat="42.71172" lon="1.63341">
        <ele>1915.9</ele>
        <time>2020-02-08T14:53:55Z</time>
      </trkpt>
      <trkpt lat="42.71172" lon="1.63341">
        <ele>1915.9</ele>
        <time>2020-02-08T14:53:56Z</time>
      </trkpt>
      <trkpt lat="42.71172" lon="1.63341">
        <ele>1915.9</ele>
        <time>2020-02-08T14:53:57Z</time>
      </trkpt>
      <trkpt lat="42.71172" lon="1.63341">
        <ele>1915.9</ele>
        <time>2020-02-08T14:53:58Z</time>
      </trkpt>
      <trkpt lat="42.71172" lon="1.63341">
        <ele>1915.9</ele>
        <time>2020-02-08T14:53:59Z</time>
      </trkpt>
      <trkpt lat="42.71172" lon="1.63341">
        <ele>1915.9</ele>
        <time>2020-02-08T14:54:00Z</time>
      </trkpt>
      <trkpt lat="42.71172" lon="1.63341">
        <ele>1915.9</ele>
        <time>2020-02-08T14:54:01Z</time>
      </trkpt>
      <trkpt lat="42.71172" lon="1.63341">
        <ele>1915.9</ele>
        <time>2020-02-08T14:54:02Z</time>
      </trkpt>
      <trkpt lat="42.71172" lon="1.63341">
        <ele>1915.9</ele>
        <time>2020-02-08T14:54:03Z</time>
      </trkpt>
      <trkpt lat="42.71172" lon="1.63341">
        <ele>1915.9</ele>
        <time>2020-02-08T14:54:04Z</time>
      </trkpt>
      <trkpt lat="42.71172" lon="1.63341">
        <ele>1915.9</ele>
        <time>2020-02-08T14:54:05Z</time>
      </trkpt>
      <trkpt lat="42.71172" lon="1.63341">
        <ele>1915.9</ele>
        <time>2020-02-08T14:54:06Z</time>
      </trkpt>
      <trkpt lat="42.71172" lon="1.63341">
        <ele>1915.9</ele>
        <time>2020-02-08T14:54:07Z</time>
      </trkpt>
      <trkpt lat="42.71172" lon="1.63341">
        <ele>1915.9</ele>
        <time>2020-02-08T14:54:08Z</time>
      </trkpt>
      <trkpt lat="42.71172" lon="1.63341">
        <ele>1915.9</ele>
        <time>2020-02-08T14:54:09Z</time>
      </trkpt>
      <trkpt lat="42.71172" lon="1.63341">
        <ele>1915.9</ele>
        <time>2020-02-08T14:54:10Z</time>
      </trkpt>
      <trkpt lat="42.71172" lon="1.63341">
        <ele>1915.9</ele>
        <time>2020-02-08T14:54:11Z</time>
      </trkpt>
      <trkpt lat="42.71172" lon="1.63341">
        <ele>1915.9</ele>
        <time>2020-02-08T14:54:12Z</time>
      </trkpt>
      <trkpt lat="42.71172" lon="1.63341">
        <ele>1915.9</ele>
        <time>2020-02-08T14:54:13Z</time>
      </trkpt>
      <trkpt lat="42.71172" lon="1.63341">
        <ele>1915.9</ele>
        <time>2020-02-08T14:54:14Z</time>
      </trkpt>
      <trkpt lat="42.71174" lon="1.63342">
        <ele>1915.3</ele>
        <time>2020-02-08T14:54:15Z</time>
      </trkpt>
      <trkpt lat="42.71174" lon="1.63342">
        <ele>1915.3</ele>
        <time>2020-02-08T14:54:16Z</time>
      </trkpt>
      <trkpt lat="42.71174" lon="1.63342">
        <ele>1915.3</ele>
        <time>2020-02-08T14:54:17Z</time>
      </trkpt>
      <trkpt lat="42.71176" lon="1.63343">
        <ele>1915.3</ele>
        <time>2020-02-08T14:54:18Z</time>
      </trkpt>
      <trkpt lat="42.71176" lon="1.63343">
        <ele>1915.3</ele>
        <time>2020-02-08T14:54:19Z</time>
      </trkpt>
      <trkpt lat="42.71176" lon="1.63343">
        <ele>1915.3</ele>
        <time>2020-02-08T14:54:20Z</time>
      </trkpt>
      <trkpt lat="42.71176" lon="1.63343">
        <ele>1915.3</ele>
        <time>2020-02-08T14:54:21Z</time>
      </trkpt>
      <trkpt lat="42.71176" lon="1.63343">
        <ele>1915.3</ele>
        <time>2020-02-08T14:54:22Z</time>
      </trkpt>
      <trkpt lat="42.71176" lon="1.63343">
        <ele>1915.3</ele>
        <time>2020-02-08T14:54:23Z</time>
      </trkpt>
      <trkpt lat="42.71176" lon="1.63343">
        <ele>1915.3</ele>
        <time>2020-02-08T14:54:24Z</time>
      </trkpt>
      <trkpt lat="42.71176" lon="1.63343">
        <ele>1915.3</ele>
        <time>2020-02-08T14:54:25Z</time>
      </trkpt>
      <trkpt lat="42.71176" lon="1.63343">
        <ele>1915.3</ele>
        <time>2020-02-08T14:54:26Z</time>
      </trkpt>
      <trkpt lat="42.71176" lon="1.63343">
        <ele>1915.3</ele>
        <time>2020-02-08T14:54:27Z</time>
      </trkpt>
      <trkpt lat="42.71176" lon="1.63343">
        <ele>1915.3</ele>
        <time>2020-02-08T14:54:28Z</time>
      </trkpt>
      <trkpt lat="42.71176" lon="1.63343">
        <ele>1915.3</ele>
        <time>2020-02-08T14:54:29Z</time>
      </trkpt>
      <trkpt lat="42.71176" lon="1.63343">
        <ele>1915.3</ele>
        <time>2020-02-08T14:54:30Z</time>
      </trkpt>
      <trkpt lat="42.71176" lon="1.63343">
        <ele>1915.3</ele>
        <time>2020-02-08T14:54:31Z</time>
      </trkpt>
      <trkpt lat="42.71176" lon="1.63343">
        <ele>1915.3</ele>
        <time>2020-02-08T14:54:32Z</time>
      </trkpt>
      <trkpt lat="42.71176" lon="1.63343">
        <ele>1915.3</ele>
        <time>2020-02-08T14:54:33Z</time>
      </trkpt>
      <trkpt lat="42.71176" lon="1.63343">
        <ele>1915.3</ele>
        <time>2020-02-08T14:54:34Z</time>
      </trkpt>
      <trkpt lat="42.71176" lon="1.63343">
        <ele>1915.3</ele>
        <time>2020-02-08T14:54:35Z</time>
      </trkpt>
      <trkpt lat="42.71176" lon="1.63343">
        <ele>1915.3</ele>
        <time>2020-02-08T14:54:36Z</time>
      </trkpt>
      <trkpt lat="42.71176" lon="1.63343">
        <ele>1915.3</ele>
        <time>2020-02-08T14:54:37Z</time>
      </trkpt>
      <trkpt lat="42.71176" lon="1.63343">
        <ele>1915.3</ele>
        <time>2020-02-08T14:54:38Z</time>
      </trkpt>
      <trkpt lat="42.71176" lon="1.63343">
        <ele>1915.3</ele>
        <time>2020-02-08T14:54:39Z</time>
      </trkpt>
      <trkpt lat="42.71176" lon="1.63343">
        <ele>1915.3</ele>
        <time>2020-02-08T14:54:40Z</time>
      </trkpt>
      <trkpt lat="42.71176" lon="1.63343">
        <ele>1915.3</ele>
        <time>2020-02-08T14:54:41Z</time>
      </trkpt>
      <trkpt lat="42.71176" lon="1.63343">
        <ele>1915.3</ele>
        <time>2020-02-08T14:54:42Z</time>
      </trkpt>
      <trkpt lat="42.71176" lon="1.63343">
        <ele>1915.3</ele>
        <time>2020-02-08T14:54:43Z</time>
      </trkpt>
      <trkpt lat="42.71176" lon="1.63343">
        <ele>1915.3</ele>
        <time>2020-02-08T14:54:44Z</time>
      </trkpt>
      <trkpt lat="42.71176" lon="1.63343">
        <ele>1915.3</ele>
        <time>2020-02-08T14:54:45Z</time>
      </trkpt>
      <trkpt lat="42.71176" lon="1.63343">
        <ele>1915.3</ele>
        <time>2020-02-08T14:54:46Z</time>
      </trkpt>
      <trkpt lat="42.71176" lon="1.63343">
        <ele>1915.3</ele>
        <time>2020-02-08T14:54:47Z</time>
      </trkpt>
      <trkpt lat="42.71176" lon="1.63343">
        <ele>1915.3</ele>
        <time>2020-02-08T14:54:48Z</time>
      </trkpt>
      <trkpt lat="42.71176" lon="1.63343">
        <ele>1915.3</ele>
        <time>2020-02-08T14:54:49Z</time>
      </trkpt>
      <trkpt lat="42.71176" lon="1.63343">
        <ele>1915.3</ele>
        <time>2020-02-08T14:54:50Z</time>
      </trkpt>
      <trkpt lat="42.71176" lon="1.63343">
        <ele>1915.3</ele>
        <time>2020-02-08T14:54:51Z</time>
      </trkpt>
      <trkpt lat="42.71176" lon="1.63343">
        <ele>1915.3</ele>
        <time>2020-02-08T14:54:52Z</time>
      </trkpt>
      <trkpt lat="42.71176" lon="1.63343">
        <ele>1915.3</ele>
        <time>2020-02-08T14:54:53Z</time>
      </trkpt>
      <trkpt lat="42.71174" lon="1.63343">
        <ele>1915.3</ele>
        <time>2020-02-08T14:54:54Z</time>
      </trkpt>
      <trkpt lat="42.71174" lon="1.63343">
        <ele>1915.3</ele>
        <time>2020-02-08T14:54:55Z</time>
      </trkpt>
      <trkpt lat="42.71174" lon="1.63343">
        <ele>1915.3</ele>
        <time>2020-02-08T14:54:56Z</time>
      </trkpt>
      <trkpt lat="42.71174" lon="1.63343">
        <ele>1915.3</ele>
        <time>2020-02-08T14:54:57Z</time>
      </trkpt>
      <trkpt lat="42.71174" lon="1.63343">
        <ele>1915.3</ele>
        <time>2020-02-08T14:54:58Z</time>
      </trkpt>
      <trkpt lat="42.71174" lon="1.63343">
        <ele>1915.3</ele>
        <time>2020-02-08T14:54:59Z</time>
      </trkpt>
      <trkpt lat="42.71174" lon="1.63343">
        <ele>1915.3</ele>
        <time>2020-02-08T14:55:00Z</time>
      </trkpt>
      <trkpt lat="42.71174" lon="1.63343">
        <ele>1915.3</ele>
        <time>2020-02-08T14:55:01Z</time>
      </trkpt>
      <trkpt lat="42.71172" lon="1.63341">
        <ele>1915.9</ele>
        <time>2020-02-08T14:55:02Z</time>
      </trkpt>
      <trkpt lat="42.71172" lon="1.63341">
        <ele>1915.9</ele>
        <time>2020-02-08T14:55:03Z</time>
      </trkpt>
      <trkpt lat="42.71172" lon="1.63341">
        <ele>1915.9</ele>
        <time>2020-02-08T14:55:04Z</time>
      </trkpt>
      <trkpt lat="42.71172" lon="1.63341">
        <ele>1915.9</ele>
        <time>2020-02-08T14:55:05Z</time>
      </trkpt>
      <trkpt lat="42.71172" lon="1.63341">
        <ele>1915.9</ele>
        <time>2020-02-08T14:55:06Z</time>
      </trkpt>
      <trkpt lat="42.71172" lon="1.63341">
        <ele>1915.9</ele>
        <time>2020-02-08T14:55:07Z</time>
      </trkpt>
      <trkpt lat="42.71172" lon="1.63341">
        <ele>1915.9</ele>
        <time>2020-02-08T14:55:08Z</time>
      </trkpt>
      <trkpt lat="42.71172" lon="1.63341">
        <ele>1915.9</ele>
        <time>2020-02-08T14:55:09Z</time>
      </trkpt>
      <trkpt lat="42.71172" lon="1.63341">
        <ele>1915.9</ele>
        <time>2020-02-08T14:55:10Z</time>
      </trkpt>
      <trkpt lat="42.71172" lon="1.63341">
        <ele>1915.9</ele>
        <time>2020-02-08T14:55:11Z</time>
      </trkpt>
      <trkpt lat="42.71172" lon="1.63341">
        <ele>1915.9</ele>
        <time>2020-02-08T14:55:12Z</time>
      </trkpt>
      <trkpt lat="42.71172" lon="1.63341">
        <ele>1915.9</ele>
        <time>2020-02-08T14:55:13Z</time>
      </trkpt>
      <trkpt lat="42.71172" lon="1.63341">
        <ele>1915.9</ele>
        <time>2020-02-08T14:55:14Z</time>
      </trkpt>
      <trkpt lat="42.71172" lon="1.63341">
        <ele>1915.9</ele>
        <time>2020-02-08T14:55:15Z</time>
      </trkpt>
      <trkpt lat="42.71172" lon="1.63341">
        <ele>1915.9</ele>
        <time>2020-02-08T14:55:16Z</time>
      </trkpt>
      <trkpt lat="42.71172" lon="1.63341">
        <ele>1915.9</ele>
        <time>2020-02-08T14:55:17Z</time>
      </trkpt>
      <trkpt lat="42.71172" lon="1.63341">
        <ele>1915.9</ele>
        <time>2020-02-08T14:55:18Z</time>
      </trkpt>
      <trkpt lat="42.71172" lon="1.63341">
        <ele>1915.9</ele>
        <time>2020-02-08T14:55:19Z</time>
      </trkpt>
      <trkpt lat="42.71172" lon="1.63341">
        <ele>1915.9</ele>
        <time>2020-02-08T14:55:20Z</time>
      </trkpt>
      <trkpt lat="42.71172" lon="1.63341">
        <ele>1915.9</ele>
        <time>2020-02-08T14:55:21Z</time>
      </trkpt>
      <trkpt lat="42.71172" lon="1.63341">
        <ele>1915.9</ele>
        <time>2020-02-08T14:55:22Z</time>
      </trkpt>
      <trkpt lat="42.71172" lon="1.63341">
        <ele>1915.9</ele>
        <time>2020-02-08T14:55:23Z</time>
      </trkpt>
      <trkpt lat="42.71172" lon="1.63341">
        <ele>1915.9</ele>
        <time>2020-02-08T14:55:24Z</time>
      </trkpt>
      <trkpt lat="42.71172" lon="1.63341">
        <ele>1915.9</ele>
        <time>2020-02-08T14:55:25Z</time>
      </trkpt>
      <trkpt lat="42.71172" lon="1.63341">
        <ele>1915.9</ele>
        <time>2020-02-08T14:55:26Z</time>
      </trkpt>
      <trkpt lat="42.71172" lon="1.63341">
        <ele>1915.9</ele>
        <time>2020-02-08T14:55:27Z</time>
      </trkpt>
      <trkpt lat="42.71172" lon="1.63341">
        <ele>1915.9</ele>
        <time>2020-02-08T14:55:28Z</time>
      </trkpt>
      <trkpt lat="42.71172" lon="1.63341">
        <ele>1915.9</ele>
        <time>2020-02-08T14:55:29Z</time>
      </trkpt>
      <trkpt lat="42.71172" lon="1.63341">
        <ele>1915.9</ele>
        <time>2020-02-08T14:55:30Z</time>
      </trkpt>
      <trkpt lat="42.71172" lon="1.63341">
        <ele>1915.9</ele>
        <time>2020-02-08T14:55:31Z</time>
      </trkpt>
      <trkpt lat="42.71172" lon="1.63341">
        <ele>1915.9</ele>
        <time>2020-02-08T14:55:32Z</time>
      </trkpt>
      <trkpt lat="42.71172" lon="1.63341">
        <ele>1915.9</ele>
        <time>2020-02-08T14:55:33Z</time>
      </trkpt>
      <trkpt lat="42.71172" lon="1.63341">
        <ele>1915.9</ele>
        <time>2020-02-08T14:55:34Z</time>
      </trkpt>
      <trkpt lat="42.71172" lon="1.63341">
        <ele>1915.9</ele>
        <time>2020-02-08T14:55:35Z</time>
      </trkpt>
      <trkpt lat="42.71172" lon="1.63341">
        <ele>1915.9</ele>
        <time>2020-02-08T14:55:36Z</time>
      </trkpt>
      <trkpt lat="42.71172" lon="1.63341">
        <ele>1915.9</ele>
        <time>2020-02-08T14:55:37Z</time>
      </trkpt>
      <trkpt lat="42.71172" lon="1.63341">
        <ele>1915.9</ele>
        <time>2020-02-08T14:55:38Z</time>
      </trkpt>
      <trkpt lat="42.71172" lon="1.63341">
        <ele>1915.9</ele>
        <time>2020-02-08T14:55:39Z</time>
      </trkpt>
      <trkpt lat="42.71171" lon="1.63339">
        <ele>1915.9</ele>
        <time>2020-02-08T14:55:40Z</time>
      </trkpt>
      <trkpt lat="42.71171" lon="1.63339">
        <ele>1915.9</ele>
        <time>2020-02-08T14:55:41Z</time>
      </trkpt>
      <trkpt lat="42.71171" lon="1.63339">
        <ele>1915.9</ele>
        <time>2020-02-08T14:55:42Z</time>
      </trkpt>
      <trkpt lat="42.71171" lon="1.63339">
        <ele>1915.9</ele>
        <time>2020-02-08T14:55:43Z</time>
      </trkpt>
      <trkpt lat="42.71168" lon="1.63339">
        <ele>1916.5</ele>
        <time>2020-02-08T14:55:44Z</time>
      </trkpt>
      <trkpt lat="42.71167" lon="1.63339">
        <ele>1917.1</ele>
        <time>2020-02-08T14:55:45Z</time>
      </trkpt>
      <trkpt lat="42.71167" lon="1.63339">
        <ele>1917.1</ele>
        <time>2020-02-08T14:55:46Z</time>
      </trkpt>
      <trkpt lat="42.71166" lon="1.63339">
        <ele>1917.1</ele>
        <time>2020-02-08T14:55:47Z</time>
      </trkpt>
      <trkpt lat="42.71165" lon="1.63339">
        <ele>1917.1</ele>
        <time>2020-02-08T14:55:48Z</time>
      </trkpt>
      <trkpt lat="42.71165" lon="1.63339">
        <ele>1917.1</ele>
        <time>2020-02-08T14:55:49Z</time>
      </trkpt>
      <trkpt lat="42.71164" lon="1.63339">
        <ele>1917.6</ele>
        <time>2020-02-08T14:55:50Z</time>
      </trkpt>
      <trkpt lat="42.71163" lon="1.63339">
        <ele>1917.6</ele>
        <time>2020-02-08T14:55:51Z</time>
      </trkpt>
      <trkpt lat="42.71163" lon="1.63339">
        <ele>1917.6</ele>
        <time>2020-02-08T14:55:52Z</time>
      </trkpt>
      <trkpt lat="42.71162" lon="1.63339">
        <ele>1917.6</ele>
        <time>2020-02-08T14:55:53Z</time>
      </trkpt>
      <trkpt lat="42.71162" lon="1.63339">
        <ele>1917.6</ele>
        <time>2020-02-08T14:55:54Z</time>
      </trkpt>
      <trkpt lat="42.71162" lon="1.63339">
        <ele>1917.6</ele>
        <time>2020-02-08T14:55:55Z</time>
      </trkpt>
      <trkpt lat="42.71162" lon="1.63339">
        <ele>1917.6</ele>
        <time>2020-02-08T14:55:56Z</time>
      </trkpt>
      <trkpt lat="42.71162" lon="1.63339">
        <ele>1917.6</ele>
        <time>2020-02-08T14:55:57Z</time>
      </trkpt>
      <trkpt lat="42.71162" lon="1.63339">
        <ele>1917.6</ele>
        <time>2020-02-08T14:55:58Z</time>
      </trkpt>
      <trkpt lat="42.71162" lon="1.63339">
        <ele>1917.6</ele>
        <time>2020-02-08T14:55:59Z</time>
      </trkpt>
      <trkpt lat="42.71162" lon="1.63339">
        <ele>1917.6</ele>
        <time>2020-02-08T14:56:00Z</time>
      </trkpt>
      <trkpt lat="42.71162" lon="1.63339">
        <ele>1917.6</ele>
        <time>2020-02-08T14:56:01Z</time>
      </trkpt>
      <trkpt lat="42.71162" lon="1.63339">
        <ele>1917.6</ele>
        <time>2020-02-08T14:56:02Z</time>
      </trkpt>
      <trkpt lat="42.71162" lon="1.63339">
        <ele>1917.6</ele>
        <time>2020-02-08T14:56:03Z</time>
      </trkpt>
      <trkpt lat="42.71162" lon="1.63338">
        <ele>1917.6</ele>
        <time>2020-02-08T14:56:04Z</time>
      </trkpt>
      <trkpt lat="42.71162" lon="1.63338">
        <ele>1917.6</ele>
        <time>2020-02-08T14:56:05Z</time>
      </trkpt>
      <trkpt lat="42.71162" lon="1.63338">
        <ele>1917.6</ele>
        <time>2020-02-08T14:56:06Z</time>
      </trkpt>
      <trkpt lat="42.71162" lon="1.63338">
        <ele>1917.6</ele>
        <time>2020-02-08T14:56:07Z</time>
      </trkpt>
      <trkpt lat="42.71161" lon="1.63338">
        <ele>1917.6</ele>
        <time>2020-02-08T14:56:08Z</time>
      </trkpt>
      <trkpt lat="42.71161" lon="1.63338">
        <ele>1917.6</ele>
        <time>2020-02-08T14:56:09Z</time>
      </trkpt>
      <trkpt lat="42.71161" lon="1.63338">
        <ele>1917.6</ele>
        <time>2020-02-08T14:56:10Z</time>
      </trkpt>
      <trkpt lat="42.71161" lon="1.63338">
        <ele>1918</ele>
        <time>2020-02-08T14:56:11Z</time>
      </trkpt>
      <trkpt lat="42.71161" lon="1.63338">
        <ele>1918</ele>
        <time>2020-02-08T14:56:12Z</time>
      </trkpt>
      <trkpt lat="42.71161" lon="1.63338">
        <ele>1918</ele>
        <time>2020-02-08T14:56:13Z</time>
      </trkpt>
      <trkpt lat="42.71161" lon="1.63338">
        <ele>1918</ele>
        <time>2020-02-08T14:56:14Z</time>
      </trkpt>
      <trkpt lat="42.71161" lon="1.63338">
        <ele>1918</ele>
        <time>2020-02-08T14:56:15Z</time>
      </trkpt>
      <trkpt lat="42.71161" lon="1.63338">
        <ele>1918</ele>
        <time>2020-02-08T14:56:16Z</time>
      </trkpt>
      <trkpt lat="42.7116" lon="1.63338">
        <ele>1918</ele>
        <time>2020-02-08T14:56:17Z</time>
      </trkpt>
      <trkpt lat="42.7116" lon="1.63338">
        <ele>1918</ele>
        <time>2020-02-08T14:56:18Z</time>
      </trkpt>
      <trkpt lat="42.7116" lon="1.63338">
        <ele>1918</ele>
        <time>2020-02-08T14:56:19Z</time>
      </trkpt>
      <trkpt lat="42.7116" lon="1.63338">
        <ele>1918</ele>
        <time>2020-02-08T14:56:20Z</time>
      </trkpt>
      <trkpt lat="42.7116" lon="1.63338">
        <ele>1918</ele>
        <time>2020-02-08T14:56:21Z</time>
      </trkpt>
      <trkpt lat="42.7116" lon="1.63337">
        <ele>1918</ele>
        <time>2020-02-08T14:56:22Z</time>
      </trkpt>
      <trkpt lat="42.7116" lon="1.63337">
        <ele>1918</ele>
        <time>2020-02-08T14:56:23Z</time>
      </trkpt>
      <trkpt lat="42.7116" lon="1.63337">
        <ele>1918</ele>
        <time>2020-02-08T14:56:24Z</time>
      </trkpt>
      <trkpt lat="42.7116" lon="1.63337">
        <ele>1918</ele>
        <time>2020-02-08T14:56:25Z</time>
      </trkpt>
      <trkpt lat="42.71159" lon="1.63337">
        <ele>1918</ele>
        <time>2020-02-08T14:56:26Z</time>
      </trkpt>
      <trkpt lat="42.71159" lon="1.63337">
        <ele>1918</ele>
        <time>2020-02-08T14:56:27Z</time>
      </trkpt>
      <trkpt lat="42.71159" lon="1.63337">
        <ele>1918</ele>
        <time>2020-02-08T14:56:28Z</time>
      </trkpt>
      <trkpt lat="42.71159" lon="1.63337">
        <ele>1918</ele>
        <time>2020-02-08T14:56:29Z</time>
      </trkpt>
      <trkpt lat="42.71159" lon="1.63337">
        <ele>1918</ele>
        <time>2020-02-08T14:56:30Z</time>
      </trkpt>
      <trkpt lat="42.71159" lon="1.63337">
        <ele>1918</ele>
        <time>2020-02-08T14:56:31Z</time>
      </trkpt>
      <trkpt lat="42.71159" lon="1.63337">
        <ele>1918</ele>
        <time>2020-02-08T14:56:32Z</time>
      </trkpt>
      <trkpt lat="42.71159" lon="1.63337">
        <ele>1918</ele>
        <time>2020-02-08T14:56:33Z</time>
      </trkpt>
      <trkpt lat="42.71159" lon="1.63337">
        <ele>1918</ele>
        <time>2020-02-08T14:56:34Z</time>
      </trkpt>
      <trkpt lat="42.71158" lon="1.63337">
        <ele>1918</ele>
        <time>2020-02-08T14:56:35Z</time>
      </trkpt>
      <trkpt lat="42.71158" lon="1.63337">
        <ele>1918</ele>
        <time>2020-02-08T14:56:36Z</time>
      </trkpt>
      <trkpt lat="42.71158" lon="1.63337">
        <ele>1918</ele>
        <time>2020-02-08T14:56:37Z</time>
      </trkpt>
      <trkpt lat="42.71158" lon="1.63337">
        <ele>1918</ele>
        <time>2020-02-08T14:56:38Z</time>
      </trkpt>
      <trkpt lat="42.71158" lon="1.63336">
        <ele>1918</ele>
        <time>2020-02-08T14:56:39Z</time>
      </trkpt>
      <trkpt lat="42.71158" lon="1.63336">
        <ele>1918.3</ele>
        <time>2020-02-08T14:56:40Z</time>
      </trkpt>
      <trkpt lat="42.71158" lon="1.63336">
        <ele>1918.3</ele>
        <time>2020-02-08T14:56:41Z</time>
      </trkpt>
      <trkpt lat="42.71158" lon="1.63336">
        <ele>1918.3</ele>
        <time>2020-02-08T14:56:42Z</time>
      </trkpt>
      <trkpt lat="42.71158" lon="1.63336">
        <ele>1918.3</ele>
        <time>2020-02-08T14:56:43Z</time>
      </trkpt>
      <trkpt lat="42.71157" lon="1.63336">
        <ele>1918.3</ele>
        <time>2020-02-08T14:56:44Z</time>
      </trkpt>
      <trkpt lat="42.71157" lon="1.63336">
        <ele>1918.3</ele>
        <time>2020-02-08T14:56:45Z</time>
      </trkpt>
      <trkpt lat="42.71157" lon="1.63336">
        <ele>1918.3</ele>
        <time>2020-02-08T14:56:46Z</time>
      </trkpt>
      <trkpt lat="42.71157" lon="1.63336">
        <ele>1918.3</ele>
        <time>2020-02-08T14:56:47Z</time>
      </trkpt>
      <trkpt lat="42.71157" lon="1.63336">
        <ele>1918.3</ele>
        <time>2020-02-08T14:56:48Z</time>
      </trkpt>
      <trkpt lat="42.71157" lon="1.63336">
        <ele>1918.3</ele>
        <time>2020-02-08T14:56:49Z</time>
      </trkpt>
      <trkpt lat="42.71157" lon="1.63336">
        <ele>1918.5</ele>
        <time>2020-02-08T14:56:50Z</time>
      </trkpt>
      <trkpt lat="42.71157" lon="1.63336">
        <ele>1918.5</ele>
        <time>2020-02-08T14:56:51Z</time>
      </trkpt>
      <trkpt lat="42.71157" lon="1.63336">
        <ele>1918.5</ele>
        <time>2020-02-08T14:56:52Z</time>
      </trkpt>
      <trkpt lat="42.71156" lon="1.63336">
        <ele>1918.5</ele>
        <time>2020-02-08T14:56:53Z</time>
      </trkpt>
      <trkpt lat="42.71156" lon="1.63336">
        <ele>1918.5</ele>
        <time>2020-02-08T14:56:54Z</time>
      </trkpt>
      <trkpt lat="42.71156" lon="1.63336">
        <ele>1918.5</ele>
        <time>2020-02-08T14:56:55Z</time>
      </trkpt>
      <trkpt lat="42.71156" lon="1.63336">
        <ele>1918.5</ele>
        <time>2020-02-08T14:56:56Z</time>
      </trkpt>
      <trkpt lat="42.71156" lon="1.63335">
        <ele>1918.5</ele>
        <time>2020-02-08T14:56:57Z</time>
      </trkpt>
      <trkpt lat="42.71156" lon="1.63335">
        <ele>1918.5</ele>
        <time>2020-02-08T14:56:58Z</time>
      </trkpt>
      <trkpt lat="42.71156" lon="1.63335">
        <ele>1918.5</ele>
        <time>2020-02-08T14:56:59Z</time>
      </trkpt>
      <trkpt lat="42.71156" lon="1.63335">
        <ele>1918.5</ele>
        <time>2020-02-08T14:57:00Z</time>
      </trkpt>
      <trkpt lat="42.71156" lon="1.63335">
        <ele>1918.5</ele>
        <time>2020-02-08T14:57:01Z</time>
      </trkpt>
      <trkpt lat="42.71155" lon="1.63335">
        <ele>1918.5</ele>
        <time>2020-02-08T14:57:02Z</time>
      </trkpt>
      <trkpt lat="42.71155" lon="1.63335">
        <ele>1918.5</ele>
        <time>2020-02-08T14:57:03Z</time>
      </trkpt>
      <trkpt lat="42.71155" lon="1.63335">
        <ele>1918.5</ele>
        <time>2020-02-08T14:57:04Z</time>
      </trkpt>
      <trkpt lat="42.71155" lon="1.63335">
        <ele>1918.5</ele>
        <time>2020-02-08T14:57:05Z</time>
      </trkpt>
      <trkpt lat="42.71155" lon="1.63335">
        <ele>1918.5</ele>
        <time>2020-02-08T14:57:06Z</time>
      </trkpt>
      <trkpt lat="42.71155" lon="1.63335">
        <ele>1918.5</ele>
        <time>2020-02-08T14:57:07Z</time>
      </trkpt>
      <trkpt lat="42.71155" lon="1.63335">
        <ele>1918.5</ele>
        <time>2020-02-08T14:57:08Z</time>
      </trkpt>
      <trkpt lat="42.71155" lon="1.63335">
        <ele>1918.7</ele>
        <time>2020-02-08T14:57:09Z</time>
      </trkpt>
      <trkpt lat="42.71155" lon="1.63335">
        <ele>1918.7</ele>
        <time>2020-02-08T14:57:10Z</time>
      </trkpt>
      <trkpt lat="42.71154" lon="1.63335">
        <ele>1918.7</ele>
        <time>2020-02-08T14:57:11Z</time>
      </trkpt>
      <trkpt lat="42.71154" lon="1.63335">
        <ele>1918.7</ele>
        <time>2020-02-08T14:57:12Z</time>
      </trkpt>
      <trkpt lat="42.71154" lon="1.63335">
        <ele>1918.7</ele>
        <time>2020-02-08T14:57:13Z</time>
      </trkpt>
      <trkpt lat="42.71154" lon="1.63334">
        <ele>1918.7</ele>
        <time>2020-02-08T14:57:14Z</time>
      </trkpt>
      <trkpt lat="42.71154" lon="1.63334">
        <ele>1918.7</ele>
        <time>2020-02-08T14:57:15Z</time>
      </trkpt>
      <trkpt lat="42.71154" lon="1.63334">
        <ele>1918.7</ele>
        <time>2020-02-08T14:57:16Z</time>
      </trkpt>
      <trkpt lat="42.71154" lon="1.63334">
        <ele>1918.7</ele>
        <time>2020-02-08T14:57:17Z</time>
      </trkpt>
      <trkpt lat="42.71154" lon="1.63334">
        <ele>1918.7</ele>
        <time>2020-02-08T14:57:18Z</time>
      </trkpt>
      <trkpt lat="42.71154" lon="1.63334">
        <ele>1918.7</ele>
        <time>2020-02-08T14:57:19Z</time>
      </trkpt>
      <trkpt lat="42.71153" lon="1.63334">
        <ele>1918.7</ele>
        <time>2020-02-08T14:57:20Z</time>
      </trkpt>
      <trkpt lat="42.71153" lon="1.63334">
        <ele>1918.7</ele>
        <time>2020-02-08T14:57:21Z</time>
      </trkpt>
      <trkpt lat="42.71153" lon="1.63334">
        <ele>1918.7</ele>
        <time>2020-02-08T14:57:22Z</time>
      </trkpt>
      <trkpt lat="42.71153" lon="1.63334">
        <ele>1918.7</ele>
        <time>2020-02-08T14:57:23Z</time>
      </trkpt>
      <trkpt lat="42.71152" lon="1.63334">
        <ele>1918.7</ele>
        <time>2020-02-08T14:57:24Z</time>
      </trkpt>
      <trkpt lat="42.71152" lon="1.63333">
        <ele>1918.9</ele>
        <time>2020-02-08T14:57:25Z</time>
      </trkpt>
      <trkpt lat="42.71151" lon="1.63333">
        <ele>1918.9</ele>
        <time>2020-02-08T14:57:26Z</time>
      </trkpt>
      <trkpt lat="42.7115" lon="1.63332">
        <ele>1918.9</ele>
        <time>2020-02-08T14:57:27Z</time>
      </trkpt>
      <trkpt lat="42.71149" lon="1.63332">
        <ele>1918.9</ele>
        <time>2020-02-08T14:57:28Z</time>
      </trkpt>
      <trkpt lat="42.71148" lon="1.63331">
        <ele>1919.1</ele>
        <time>2020-02-08T14:57:29Z</time>
      </trkpt>
      <trkpt lat="42.71148" lon="1.63331">
        <ele>1919.1</ele>
        <time>2020-02-08T14:57:30Z</time>
      </trkpt>
      <trkpt lat="42.71147" lon="1.63331">
        <ele>1919.1</ele>
        <time>2020-02-08T14:57:31Z</time>
      </trkpt>
      <trkpt lat="42.71146" lon="1.6333">
        <ele>1919.1</ele>
        <time>2020-02-08T14:57:32Z</time>
      </trkpt>
      <trkpt lat="42.71145" lon="1.6333">
        <ele>1919.2</ele>
        <time>2020-02-08T14:57:33Z</time>
      </trkpt>
      <trkpt lat="42.71144" lon="1.63329">
        <ele>1919.2</ele>
        <time>2020-02-08T14:57:34Z</time>
      </trkpt>
      <trkpt lat="42.71144" lon="1.63329">
        <ele>1919.2</ele>
        <time>2020-02-08T14:57:35Z</time>
      </trkpt>
      <trkpt lat="42.71143" lon="1.63329">
        <ele>1919.2</ele>
        <time>2020-02-08T14:57:36Z</time>
      </trkpt>
      <trkpt lat="42.71142" lon="1.63328">
        <ele>1919.1</ele>
        <time>2020-02-08T14:57:37Z</time>
      </trkpt>
      <trkpt lat="42.71141" lon="1.63328">
        <ele>1919.1</ele>
        <time>2020-02-08T14:57:38Z</time>
      </trkpt>
      <trkpt lat="42.7114" lon="1.63328">
        <ele>1919.1</ele>
        <time>2020-02-08T14:57:39Z</time>
      </trkpt>
      <trkpt lat="42.71139" lon="1.63327">
        <ele>1919.2</ele>
        <time>2020-02-08T14:57:40Z</time>
      </trkpt>
      <trkpt lat="42.71138" lon="1.63327">
        <ele>1919.1</ele>
        <time>2020-02-08T14:57:41Z</time>
      </trkpt>
      <trkpt lat="42.71137" lon="1.63326">
        <ele>1919.1</ele>
        <time>2020-02-08T14:57:42Z</time>
      </trkpt>
      <trkpt lat="42.71137" lon="1.63326">
        <ele>1919.1</ele>
        <time>2020-02-08T14:57:43Z</time>
      </trkpt>
      <trkpt lat="42.71135" lon="1.63326">
        <ele>1918.9</ele>
        <time>2020-02-08T14:57:44Z</time>
      </trkpt>
      <trkpt lat="42.71134" lon="1.63326">
        <ele>1918.9</ele>
        <time>2020-02-08T14:57:45Z</time>
      </trkpt>
      <trkpt lat="42.71134" lon="1.63325">
        <ele>1918.9</ele>
        <time>2020-02-08T14:57:46Z</time>
      </trkpt>
      <trkpt lat="42.71133" lon="1.63325">
        <ele>1918.9</ele>
        <time>2020-02-08T14:57:47Z</time>
      </trkpt>
      <trkpt lat="42.71132" lon="1.63325">
        <ele>1918.7</ele>
        <time>2020-02-08T14:57:48Z</time>
      </trkpt>
      <trkpt lat="42.71131" lon="1.63325">
        <ele>1918.7</ele>
        <time>2020-02-08T14:57:49Z</time>
      </trkpt>
      <trkpt lat="42.71131" lon="1.63325">
        <ele>1918.7</ele>
        <time>2020-02-08T14:57:50Z</time>
      </trkpt>
      <trkpt lat="42.7113" lon="1.63324">
        <ele>1918.7</ele>
        <time>2020-02-08T14:57:51Z</time>
      </trkpt>
      <trkpt lat="42.71129" lon="1.63324">
        <ele>1918.6</ele>
        <time>2020-02-08T14:57:52Z</time>
      </trkpt>
      <trkpt lat="42.71129" lon="1.63324">
        <ele>1918.6</ele>
        <time>2020-02-08T14:57:53Z</time>
      </trkpt>
      <trkpt lat="42.71128" lon="1.63324">
        <ele>1918.6</ele>
        <time>2020-02-08T14:57:54Z</time>
      </trkpt>
      <trkpt lat="42.71127" lon="1.63324">
        <ele>1918.6</ele>
        <time>2020-02-08T14:57:55Z</time>
      </trkpt>
      <trkpt lat="42.71126" lon="1.63324">
        <ele>1918.4</ele>
        <time>2020-02-08T14:57:56Z</time>
      </trkpt>
      <trkpt lat="42.71125" lon="1.63324">
        <ele>1918.4</ele>
        <time>2020-02-08T14:57:57Z</time>
      </trkpt>
      <trkpt lat="42.71124" lon="1.63324">
        <ele>1918.4</ele>
        <time>2020-02-08T14:57:58Z</time>
      </trkpt>
      <trkpt lat="42.71123" lon="1.63324">
        <ele>1918.3</ele>
        <time>2020-02-08T14:57:59Z</time>
      </trkpt>
      <trkpt lat="42.71122" lon="1.63324">
        <ele>1918.3</ele>
        <time>2020-02-08T14:58:00Z</time>
      </trkpt>
      <trkpt lat="42.71121" lon="1.63324">
        <ele>1918.3</ele>
        <time>2020-02-08T14:58:01Z</time>
      </trkpt>
      <trkpt lat="42.7112" lon="1.63324">
        <ele>1918.3</ele>
        <time>2020-02-08T14:58:02Z</time>
      </trkpt>
      <trkpt lat="42.7112" lon="1.63324">
        <ele>1918.3</ele>
        <time>2020-02-08T14:58:03Z</time>
      </trkpt>
      <trkpt lat="42.71119" lon="1.63324">
        <ele>1918.3</ele>
        <time>2020-02-08T14:58:04Z</time>
      </trkpt>
      <trkpt lat="42.71118" lon="1.63324">
        <ele>1918.3</ele>
        <time>2020-02-08T14:58:05Z</time>
      </trkpt>
      <trkpt lat="42.71117" lon="1.63324">
        <ele>1918.3</ele>
        <time>2020-02-08T14:58:06Z</time>
      </trkpt>
      <trkpt lat="42.71116" lon="1.63323">
        <ele>1918.2</ele>
        <time>2020-02-08T14:58:07Z</time>
      </trkpt>
      <trkpt lat="42.71115" lon="1.63323">
        <ele>1918.2</ele>
        <time>2020-02-08T14:58:08Z</time>
      </trkpt>
      <trkpt lat="42.71115" lon="1.63323">
        <ele>1918.1</ele>
        <time>2020-02-08T14:58:09Z</time>
      </trkpt>
      <trkpt lat="42.71114" lon="1.63323">
        <ele>1918.1</ele>
        <time>2020-02-08T14:58:10Z</time>
      </trkpt>
      <trkpt lat="42.71113" lon="1.63322">
        <ele>1918</ele>
        <time>2020-02-08T14:58:11Z</time>
      </trkpt>
      <trkpt lat="42.71112" lon="1.63322">
        <ele>1918</ele>
        <time>2020-02-08T14:58:12Z</time>
      </trkpt>
      <trkpt lat="42.71111" lon="1.63322">
        <ele>1918</ele>
        <time>2020-02-08T14:58:13Z</time>
      </trkpt>
      <trkpt lat="42.71108" lon="1.63322">
        <ele>1918</ele>
        <time>2020-02-08T14:58:14Z</time>
      </trkpt>
      <trkpt lat="42.71107" lon="1.63322">
        <ele>1918</ele>
        <time>2020-02-08T14:58:15Z</time>
      </trkpt>
      <trkpt lat="42.71106" lon="1.63322">
        <ele>1918</ele>
        <time>2020-02-08T14:58:16Z</time>
      </trkpt>
      <trkpt lat="42.71105" lon="1.63322">
        <ele>1918</ele>
        <time>2020-02-08T14:58:17Z</time>
      </trkpt>
      <trkpt lat="42.71105" lon="1.63322">
        <ele>1918</ele>
        <time>2020-02-08T14:58:18Z</time>
      </trkpt>
      <trkpt lat="42.71104" lon="1.63322">
        <ele>1918</ele>
        <time>2020-02-08T14:58:19Z</time>
      </trkpt>
      <trkpt lat="42.71103" lon="1.63322">
        <ele>1918</ele>
        <time>2020-02-08T14:58:20Z</time>
      </trkpt>
      <trkpt lat="42.71102" lon="1.63322">
        <ele>1918</ele>
        <time>2020-02-08T14:58:21Z</time>
      </trkpt>
      <trkpt lat="42.71101" lon="1.63322">
        <ele>1918</ele>
        <time>2020-02-08T14:58:22Z</time>
      </trkpt>
      <trkpt lat="42.71101" lon="1.63322">
        <ele>1918</ele>
        <time>2020-02-08T14:58:23Z</time>
      </trkpt>
      <trkpt lat="42.711" lon="1.63322">
        <ele>1918</ele>
        <time>2020-02-08T14:58:24Z</time>
      </trkpt>
      <trkpt lat="42.71099" lon="1.63322">
        <ele>1918</ele>
        <time>2020-02-08T14:58:25Z</time>
      </trkpt>
      <trkpt lat="42.71099" lon="1.63323">
        <ele>1918</ele>
        <time>2020-02-08T14:58:26Z</time>
      </trkpt>
      <trkpt lat="42.71098" lon="1.63323">
        <ele>1918</ele>
        <time>2020-02-08T14:58:27Z</time>
      </trkpt>
      <trkpt lat="42.71097" lon="1.63323">
        <ele>1918</ele>
        <time>2020-02-08T14:58:28Z</time>
      </trkpt>
      <trkpt lat="42.71096" lon="1.63323">
        <ele>1918</ele>
        <time>2020-02-08T14:58:29Z</time>
      </trkpt>
      <trkpt lat="42.71096" lon="1.63324">
        <ele>1918</ele>
        <time>2020-02-08T14:58:30Z</time>
      </trkpt>
      <trkpt lat="42.71095" lon="1.63324">
        <ele>1918</ele>
        <time>2020-02-08T14:58:31Z</time>
      </trkpt>
      <trkpt lat="42.71094" lon="1.63324">
        <ele>1917.9</ele>
        <time>2020-02-08T14:58:32Z</time>
      </trkpt>
      <trkpt lat="42.71094" lon="1.63324">
        <ele>1917.9</ele>
        <time>2020-02-08T14:58:33Z</time>
      </trkpt>
      <trkpt lat="42.71093" lon="1.63325">
        <ele>1917.9</ele>
        <time>2020-02-08T14:58:34Z</time>
      </trkpt>
      <trkpt lat="42.71092" lon="1.63326">
        <ele>1917.9</ele>
        <time>2020-02-08T14:58:35Z</time>
      </trkpt>
      <trkpt lat="42.71092" lon="1.63326">
        <ele>1917.7</ele>
        <time>2020-02-08T14:58:36Z</time>
      </trkpt>
      <trkpt lat="42.71091" lon="1.63327">
        <ele>1917.7</ele>
        <time>2020-02-08T14:58:37Z</time>
      </trkpt>
      <trkpt lat="42.7109" lon="1.63328">
        <ele>1917.5</ele>
        <time>2020-02-08T14:58:38Z</time>
      </trkpt>
      <trkpt lat="42.71089" lon="1.63329">
        <ele>1917.5</ele>
        <time>2020-02-08T14:58:39Z</time>
      </trkpt>
      <trkpt lat="42.71089" lon="1.63329">
        <ele>1917.5</ele>
        <time>2020-02-08T14:58:40Z</time>
      </trkpt>
      <trkpt lat="42.71088" lon="1.6333">
        <ele>1917.3</ele>
        <time>2020-02-08T14:58:41Z</time>
      </trkpt>
      <trkpt lat="42.71087" lon="1.63331">
        <ele>1917.3</ele>
        <time>2020-02-08T14:58:42Z</time>
      </trkpt>
      <trkpt lat="42.71087" lon="1.63331">
        <ele>1917.3</ele>
        <time>2020-02-08T14:58:43Z</time>
      </trkpt>
      <trkpt lat="42.71086" lon="1.63332">
        <ele>1916.9</ele>
        <time>2020-02-08T14:58:44Z</time>
      </trkpt>
      <trkpt lat="42.71085" lon="1.63332">
        <ele>1916.5</ele>
        <time>2020-02-08T14:58:45Z</time>
      </trkpt>
      <trkpt lat="42.71084" lon="1.63333">
        <ele>1916.5</ele>
        <time>2020-02-08T14:58:46Z</time>
      </trkpt>
      <trkpt lat="42.71083" lon="1.63333">
        <ele>1916.5</ele>
        <time>2020-02-08T14:58:47Z</time>
      </trkpt>
      <trkpt lat="42.71082" lon="1.63333">
        <ele>1916.1</ele>
        <time>2020-02-08T14:58:48Z</time>
      </trkpt>
      <trkpt lat="42.71081" lon="1.63334">
        <ele>1916.1</ele>
        <time>2020-02-08T14:58:49Z</time>
      </trkpt>
      <trkpt lat="42.7108" lon="1.63334">
        <ele>1916.1</ele>
        <time>2020-02-08T14:58:50Z</time>
      </trkpt>
      <trkpt lat="42.71079" lon="1.63335">
        <ele>1916.1</ele>
        <time>2020-02-08T14:58:51Z</time>
      </trkpt>
      <trkpt lat="42.71078" lon="1.63335">
        <ele>1915.6</ele>
        <time>2020-02-08T14:58:52Z</time>
      </trkpt>
      <trkpt lat="42.71078" lon="1.63335">
        <ele>1915.6</ele>
        <time>2020-02-08T14:58:53Z</time>
      </trkpt>
      <trkpt lat="42.71077" lon="1.63336">
        <ele>1915.6</ele>
        <time>2020-02-08T14:58:54Z</time>
      </trkpt>
      <trkpt lat="42.71076" lon="1.63336">
        <ele>1915.1</ele>
        <time>2020-02-08T14:58:55Z</time>
      </trkpt>
      <trkpt lat="42.71076" lon="1.63337">
        <ele>1914.7</ele>
        <time>2020-02-08T14:58:56Z</time>
      </trkpt>
      <trkpt lat="42.71075" lon="1.63337">
        <ele>1914.7</ele>
        <time>2020-02-08T14:58:57Z</time>
      </trkpt>
      <trkpt lat="42.71074" lon="1.63337">
        <ele>1914.7</ele>
        <time>2020-02-08T14:58:58Z</time>
      </trkpt>
      <trkpt lat="42.71074" lon="1.63338">
        <ele>1914.7</ele>
        <time>2020-02-08T14:58:59Z</time>
      </trkpt>
      <trkpt lat="42.71073" lon="1.63338">
        <ele>1914.7</ele>
        <time>2020-02-08T14:59:00Z</time>
      </trkpt>
      <trkpt lat="42.71072" lon="1.63338">
        <ele>1914.2</ele>
        <time>2020-02-08T14:59:01Z</time>
      </trkpt>
      <trkpt lat="42.71072" lon="1.63339">
        <ele>1914.2</ele>
        <time>2020-02-08T14:59:02Z</time>
      </trkpt>
      <trkpt lat="42.71071" lon="1.63339">
        <ele>1914.2</ele>
        <time>2020-02-08T14:59:03Z</time>
      </trkpt>
      <trkpt lat="42.7107" lon="1.6334">
        <ele>1914.2</ele>
        <time>2020-02-08T14:59:04Z</time>
      </trkpt>
      <trkpt lat="42.71069" lon="1.6334">
        <ele>1913.1</ele>
        <time>2020-02-08T14:59:05Z</time>
      </trkpt>
      <trkpt lat="42.71069" lon="1.63341">
        <ele>1913.1</ele>
        <time>2020-02-08T14:59:06Z</time>
      </trkpt>
      <trkpt lat="42.71068" lon="1.63342">
        <ele>1913.1</ele>
        <time>2020-02-08T14:59:07Z</time>
      </trkpt>
      <trkpt lat="42.71067" lon="1.63342">
        <ele>1913.1</ele>
        <time>2020-02-08T14:59:08Z</time>
      </trkpt>
      <trkpt lat="42.71066" lon="1.63343">
        <ele>1912.6</ele>
        <time>2020-02-08T14:59:09Z</time>
      </trkpt>
      <trkpt lat="42.71066" lon="1.63343">
        <ele>1912.6</ele>
        <time>2020-02-08T14:59:10Z</time>
      </trkpt>
      <trkpt lat="42.71065" lon="1.63344">
        <ele>1912.6</ele>
        <time>2020-02-08T14:59:11Z</time>
      </trkpt>
      <trkpt lat="42.71064" lon="1.63345">
        <ele>1911.9</ele>
        <time>2020-02-08T14:59:12Z</time>
      </trkpt>
      <trkpt lat="42.71063" lon="1.63345">
        <ele>1911.2</ele>
        <time>2020-02-08T14:59:13Z</time>
      </trkpt>
      <trkpt lat="42.71063" lon="1.63346">
        <ele>1911.2</ele>
        <time>2020-02-08T14:59:14Z</time>
      </trkpt>
      <trkpt lat="42.71062" lon="1.63347">
        <ele>1911.2</ele>
        <time>2020-02-08T14:59:15Z</time>
      </trkpt>
      <trkpt lat="42.71062" lon="1.63347">
        <ele>1911.2</ele>
        <time>2020-02-08T14:59:16Z</time>
      </trkpt>
      <trkpt lat="42.71061" lon="1.63348">
        <ele>1911.2</ele>
        <time>2020-02-08T14:59:17Z</time>
      </trkpt>
      <trkpt lat="42.7106" lon="1.63348">
        <ele>1911.2</ele>
        <time>2020-02-08T14:59:18Z</time>
      </trkpt>
      <trkpt lat="42.7106" lon="1.63349">
        <ele>1909.8</ele>
        <time>2020-02-08T14:59:19Z</time>
      </trkpt>
      <trkpt lat="42.71059" lon="1.63349">
        <ele>1909.8</ele>
        <time>2020-02-08T14:59:20Z</time>
      </trkpt>
      <trkpt lat="42.71059" lon="1.6335">
        <ele>1909.8</ele>
        <time>2020-02-08T14:59:21Z</time>
      </trkpt>
      <trkpt lat="42.71058" lon="1.63351">
        <ele>1909.8</ele>
        <time>2020-02-08T14:59:22Z</time>
      </trkpt>
      <trkpt lat="42.71058" lon="1.63351">
        <ele>1909.8</ele>
        <time>2020-02-08T14:59:23Z</time>
      </trkpt>
      <trkpt lat="42.71057" lon="1.63352">
        <ele>1909.8</ele>
        <time>2020-02-08T14:59:24Z</time>
      </trkpt>
      <trkpt lat="42.71057" lon="1.63353">
        <ele>1908.9</ele>
        <time>2020-02-08T14:59:25Z</time>
      </trkpt>
      <trkpt lat="42.71056" lon="1.63353">
        <ele>1908.2</ele>
        <time>2020-02-08T14:59:26Z</time>
      </trkpt>
      <trkpt lat="42.71056" lon="1.63354">
        <ele>1908.2</ele>
        <time>2020-02-08T14:59:27Z</time>
      </trkpt>
      <trkpt lat="42.71056" lon="1.63355">
        <ele>1908.2</ele>
        <time>2020-02-08T14:59:28Z</time>
      </trkpt>
      <trkpt lat="42.71055" lon="1.63355">
        <ele>1908.2</ele>
        <time>2020-02-08T14:59:29Z</time>
      </trkpt>
      <trkpt lat="42.71055" lon="1.63356">
        <ele>1908.2</ele>
        <time>2020-02-08T14:59:30Z</time>
      </trkpt>
      <trkpt lat="42.71054" lon="1.63356">
        <ele>1908.2</ele>
        <time>2020-02-08T14:59:31Z</time>
      </trkpt>
      <trkpt lat="42.71054" lon="1.63357">
        <ele>1907.3</ele>
        <time>2020-02-08T14:59:32Z</time>
      </trkpt>
      <trkpt lat="42.71053" lon="1.63358">
        <ele>1906.5</ele>
        <time>2020-02-08T14:59:33Z</time>
      </trkpt>
      <trkpt lat="42.71052" lon="1.6336">
        <ele>1906.5</ele>
        <time>2020-02-08T14:59:34Z</time>
      </trkpt>
      <trkpt lat="42.71052" lon="1.6336">
        <ele>1906.5</ele>
        <time>2020-02-08T14:59:35Z</time>
      </trkpt>
      <trkpt lat="42.71052" lon="1.6336">
        <ele>1906.5</ele>
        <time>2020-02-08T14:59:36Z</time>
      </trkpt>
      <trkpt lat="42.71052" lon="1.6336">
        <ele>1906.5</ele>
        <time>2020-02-08T14:59:37Z</time>
      </trkpt>
      <trkpt lat="42.71051" lon="1.63361">
        <ele>1906.5</ele>
        <time>2020-02-08T14:59:38Z</time>
      </trkpt>
      <trkpt lat="42.71051" lon="1.63361">
        <ele>1906.5</ele>
        <time>2020-02-08T14:59:39Z</time>
      </trkpt>
      <trkpt lat="42.71051" lon="1.63361">
        <ele>1906.5</ele>
        <time>2020-02-08T14:59:40Z</time>
      </trkpt>
      <trkpt lat="42.71051" lon="1.63361">
        <ele>1906.5</ele>
        <time>2020-02-08T14:59:41Z</time>
      </trkpt>
      <trkpt lat="42.71051" lon="1.63362">
        <ele>1905.6</ele>
        <time>2020-02-08T14:59:42Z</time>
      </trkpt>
      <trkpt lat="42.7105" lon="1.63362">
        <ele>1904.8</ele>
        <time>2020-02-08T14:59:43Z</time>
      </trkpt>
      <trkpt lat="42.71051" lon="1.63362">
        <ele>1904.8</ele>
        <time>2020-02-08T14:59:44Z</time>
      </trkpt>
      <trkpt lat="42.71051" lon="1.63362">
        <ele>1904.8</ele>
        <time>2020-02-08T14:59:45Z</time>
      </trkpt>
      <trkpt lat="42.71051" lon="1.63362">
        <ele>1904.8</ele>
        <time>2020-02-08T14:59:46Z</time>
      </trkpt>
      <trkpt lat="42.71051" lon="1.63362">
        <ele>1904.8</ele>
        <time>2020-02-08T14:59:47Z</time>
      </trkpt>
      <trkpt lat="42.71051" lon="1.63362">
        <ele>1905.7</ele>
        <time>2020-02-08T14:59:48Z</time>
      </trkpt>
      <trkpt lat="42.71051" lon="1.63363">
        <ele>1905.7</ele>
        <time>2020-02-08T14:59:49Z</time>
      </trkpt>
      <trkpt lat="42.71051" lon="1.63363">
        <ele>1905.7</ele>
        <time>2020-02-08T14:59:50Z</time>
      </trkpt>
      <trkpt lat="42.71051" lon="1.63363">
        <ele>1905.7</ele>
        <time>2020-02-08T14:59:51Z</time>
      </trkpt>
      <trkpt lat="42.71051" lon="1.63363">
        <ele>1905.7</ele>
        <time>2020-02-08T14:59:52Z</time>
      </trkpt>
      <trkpt lat="42.71051" lon="1.63363">
        <ele>1905.7</ele>
        <time>2020-02-08T14:59:53Z</time>
      </trkpt>
      <trkpt lat="42.71051" lon="1.63363">
        <ele>1905.7</ele>
        <time>2020-02-08T14:59:54Z</time>
      </trkpt>
      <trkpt lat="42.71051" lon="1.63363">
        <ele>1905.7</ele>
        <time>2020-02-08T14:59:55Z</time>
      </trkpt>
      <trkpt lat="42.71051" lon="1.63364">
        <ele>1905.7</ele>
        <time>2020-02-08T14:59:56Z</time>
      </trkpt>
      <trkpt lat="42.71051" lon="1.63364">
        <ele>1905.7</ele>
        <time>2020-02-08T14:59:57Z</time>
      </trkpt>
      <trkpt lat="42.71051" lon="1.63364">
        <ele>1905.7</ele>
        <time>2020-02-08T14:59:58Z</time>
      </trkpt>
      <trkpt lat="42.71051" lon="1.63364">
        <ele>1905.7</ele>
        <time>2020-02-08T14:59:59Z</time>
      </trkpt>
      <trkpt lat="42.71051" lon="1.63364">
        <ele>1905.7</ele>
        <time>2020-02-08T15:00:00Z</time>
      </trkpt>
      <trkpt lat="42.71052" lon="1.63364">
        <ele>1905.7</ele>
        <time>2020-02-08T15:00:01Z</time>
      </trkpt>
      <trkpt lat="42.71052" lon="1.63364">
        <ele>1905.7</ele>
        <time>2020-02-08T15:00:02Z</time>
      </trkpt>
      <trkpt lat="42.71052" lon="1.63365">
        <ele>1905.7</ele>
        <time>2020-02-08T15:00:03Z</time>
      </trkpt>
      <trkpt lat="42.71052" lon="1.63365">
        <ele>1905.7</ele>
        <time>2020-02-08T15:00:04Z</time>
      </trkpt>
      <trkpt lat="42.71052" lon="1.63365">
        <ele>1905.7</ele>
        <time>2020-02-08T15:00:05Z</time>
      </trkpt>
      <trkpt lat="42.71052" lon="1.63365">
        <ele>1905.7</ele>
        <time>2020-02-08T15:00:06Z</time>
      </trkpt>
      <trkpt lat="42.71052" lon="1.63365">
        <ele>1905.7</ele>
        <time>2020-02-08T15:00:07Z</time>
      </trkpt>
      <trkpt lat="42.71052" lon="1.63365">
        <ele>1905.7</ele>
        <time>2020-02-08T15:00:08Z</time>
      </trkpt>
      <trkpt lat="42.71052" lon="1.63365">
        <ele>1905.7</ele>
        <time>2020-02-08T15:00:09Z</time>
      </trkpt>
      <trkpt lat="42.71052" lon="1.63366">
        <ele>1905.7</ele>
        <time>2020-02-08T15:00:10Z</time>
      </trkpt>
      <trkpt lat="42.71052" lon="1.63366">
        <ele>1905.7</ele>
        <time>2020-02-08T15:00:11Z</time>
      </trkpt>
      <trkpt lat="42.71052" lon="1.63366">
        <ele>1905.7</ele>
        <time>2020-02-08T15:00:12Z</time>
      </trkpt>
      <trkpt lat="42.71052" lon="1.63366">
        <ele>1904.8</ele>
        <time>2020-02-08T15:00:13Z</time>
      </trkpt>
      <trkpt lat="42.71052" lon="1.63366">
        <ele>1904.8</ele>
        <time>2020-02-08T15:00:14Z</time>
      </trkpt>
      <trkpt lat="42.71052" lon="1.63366">
        <ele>1904.8</ele>
        <time>2020-02-08T15:00:15Z</time>
      </trkpt>
      <trkpt lat="42.71052" lon="1.63366">
        <ele>1904.8</ele>
        <time>2020-02-08T15:00:16Z</time>
      </trkpt>
      <trkpt lat="42.71052" lon="1.63367">
        <ele>1904.8</ele>
        <time>2020-02-08T15:00:17Z</time>
      </trkpt>
      <trkpt lat="42.71053" lon="1.63367">
        <ele>1904.8</ele>
        <time>2020-02-08T15:00:18Z</time>
      </trkpt>
      <trkpt lat="42.71053" lon="1.63367">
        <ele>1904.8</ele>
        <time>2020-02-08T15:00:19Z</time>
      </trkpt>
      <trkpt lat="42.71053" lon="1.63367">
        <ele>1904.8</ele>
        <time>2020-02-08T15:00:20Z</time>
      </trkpt>
      <trkpt lat="42.71053" lon="1.63367">
        <ele>1904.8</ele>
        <time>2020-02-08T15:00:21Z</time>
      </trkpt>
      <trkpt lat="42.71053" lon="1.63367">
        <ele>1904.8</ele>
        <time>2020-02-08T15:00:22Z</time>
      </trkpt>
      <trkpt lat="42.71053" lon="1.63367">
        <ele>1904.8</ele>
        <time>2020-02-08T15:00:23Z</time>
      </trkpt>
      <trkpt lat="42.71053" lon="1.63368">
        <ele>1904.8</ele>
        <time>2020-02-08T15:00:24Z</time>
      </trkpt>
      <trkpt lat="42.71053" lon="1.63368">
        <ele>1904.8</ele>
        <time>2020-02-08T15:00:25Z</time>
      </trkpt>
      <trkpt lat="42.71053" lon="1.63368">
        <ele>1904.8</ele>
        <time>2020-02-08T15:00:26Z</time>
      </trkpt>
      <trkpt lat="42.71053" lon="1.63368">
        <ele>1904.8</ele>
        <time>2020-02-08T15:00:27Z</time>
      </trkpt>
      <trkpt lat="42.71053" lon="1.63368">
        <ele>1904.8</ele>
        <time>2020-02-08T15:00:28Z</time>
      </trkpt>
      <trkpt lat="42.71053" lon="1.63368">
        <ele>1904.8</ele>
        <time>2020-02-08T15:00:29Z</time>
      </trkpt>
      <trkpt lat="42.71053" lon="1.63368">
        <ele>1904.8</ele>
        <time>2020-02-08T15:00:30Z</time>
      </trkpt>
      <trkpt lat="42.71053" lon="1.63369">
        <ele>1904.8</ele>
        <time>2020-02-08T15:00:31Z</time>
      </trkpt>
      <trkpt lat="42.71053" lon="1.63369">
        <ele>1904.8</ele>
        <time>2020-02-08T15:00:32Z</time>
      </trkpt>
      <trkpt lat="42.71053" lon="1.63369">
        <ele>1904.8</ele>
        <time>2020-02-08T15:00:33Z</time>
      </trkpt>
      <trkpt lat="42.71053" lon="1.63369">
        <ele>1904.8</ele>
        <time>2020-02-08T15:00:34Z</time>
      </trkpt>
      <trkpt lat="42.71054" lon="1.63369">
        <ele>1904.8</ele>
        <time>2020-02-08T15:00:35Z</time>
      </trkpt>
      <trkpt lat="42.71054" lon="1.63369">
        <ele>1904.8</ele>
        <time>2020-02-08T15:00:36Z</time>
      </trkpt>
      <trkpt lat="42.71054" lon="1.63369">
        <ele>1904.8</ele>
        <time>2020-02-08T15:00:37Z</time>
      </trkpt>
      <trkpt lat="42.71054" lon="1.6337">
        <ele>1904.8</ele>
        <time>2020-02-08T15:00:38Z</time>
      </trkpt>
      <trkpt lat="42.71054" lon="1.6337">
        <ele>1904.8</ele>
        <time>2020-02-08T15:00:39Z</time>
      </trkpt>
      <trkpt lat="42.71054" lon="1.6337">
        <ele>1904.8</ele>
        <time>2020-02-08T15:00:40Z</time>
      </trkpt>
      <trkpt lat="42.71054" lon="1.6337">
        <ele>1904.8</ele>
        <time>2020-02-08T15:00:41Z</time>
      </trkpt>
      <trkpt lat="42.71054" lon="1.6337">
        <ele>1905.7</ele>
        <time>2020-02-08T15:00:42Z</time>
      </trkpt>
      <trkpt lat="42.71054" lon="1.6337">
        <ele>1904.8</ele>
        <time>2020-02-08T15:00:43Z</time>
      </trkpt>
      <trkpt lat="42.71054" lon="1.6337">
        <ele>1904.8</ele>
        <time>2020-02-08T15:00:44Z</time>
      </trkpt>
      <trkpt lat="42.71054" lon="1.6337">
        <ele>1904.8</ele>
        <time>2020-02-08T15:00:45Z</time>
      </trkpt>
      <trkpt lat="42.71054" lon="1.63371">
        <ele>1904.8</ele>
        <time>2020-02-08T15:00:46Z</time>
      </trkpt>
      <trkpt lat="42.71054" lon="1.63371">
        <ele>1904.8</ele>
        <time>2020-02-08T15:00:47Z</time>
      </trkpt>
      <trkpt lat="42.71054" lon="1.63371">
        <ele>1904.8</ele>
        <time>2020-02-08T15:00:48Z</time>
      </trkpt>
      <trkpt lat="42.71054" lon="1.63371">
        <ele>1904.8</ele>
        <time>2020-02-08T15:00:49Z</time>
      </trkpt>
      <trkpt lat="42.71054" lon="1.63371">
        <ele>1904.8</ele>
        <time>2020-02-08T15:00:50Z</time>
      </trkpt>
      <trkpt lat="42.71054" lon="1.63371">
        <ele>1904.8</ele>
        <time>2020-02-08T15:00:51Z</time>
      </trkpt>
      <trkpt lat="42.71055" lon="1.63371">
        <ele>1904.8</ele>
        <time>2020-02-08T15:00:52Z</time>
      </trkpt>
      <trkpt lat="42.71055" lon="1.63372">
        <ele>1904.8</ele>
        <time>2020-02-08T15:00:53Z</time>
      </trkpt>
      <trkpt lat="42.71055" lon="1.63372">
        <ele>1904.8</ele>
        <time>2020-02-08T15:00:54Z</time>
      </trkpt>
      <trkpt lat="42.71055" lon="1.63372">
        <ele>1904.8</ele>
        <time>2020-02-08T15:00:55Z</time>
      </trkpt>
      <trkpt lat="42.71055" lon="1.63372">
        <ele>1904.8</ele>
        <time>2020-02-08T15:00:56Z</time>
      </trkpt>
      <trkpt lat="42.71055" lon="1.63372">
        <ele>1904.8</ele>
        <time>2020-02-08T15:00:57Z</time>
      </trkpt>
      <trkpt lat="42.71055" lon="1.63372">
        <ele>1904.8</ele>
        <time>2020-02-08T15:00:58Z</time>
      </trkpt>
      <trkpt lat="42.71055" lon="1.63372">
        <ele>1904.8</ele>
        <time>2020-02-08T15:00:59Z</time>
      </trkpt>
      <trkpt lat="42.71055" lon="1.63373">
        <ele>1904.8</ele>
        <time>2020-02-08T15:01:00Z</time>
      </trkpt>
      <trkpt lat="42.71055" lon="1.63373">
        <ele>1904.8</ele>
        <time>2020-02-08T15:01:01Z</time>
      </trkpt>
      <trkpt lat="42.71055" lon="1.63373">
        <ele>1904.8</ele>
        <time>2020-02-08T15:01:02Z</time>
      </trkpt>
      <trkpt lat="42.71055" lon="1.63373">
        <ele>1904.8</ele>
        <time>2020-02-08T15:01:03Z</time>
      </trkpt>
      <trkpt lat="42.71055" lon="1.63373">
        <ele>1904.8</ele>
        <time>2020-02-08T15:01:04Z</time>
      </trkpt>
      <trkpt lat="42.71055" lon="1.63373">
        <ele>1904.8</ele>
        <time>2020-02-08T15:01:05Z</time>
      </trkpt>
      <trkpt lat="42.71055" lon="1.63373">
        <ele>1904.8</ele>
        <time>2020-02-08T15:01:06Z</time>
      </trkpt>
      <trkpt lat="42.71055" lon="1.63374">
        <ele>1904.8</ele>
        <time>2020-02-08T15:01:07Z</time>
      </trkpt>
      <trkpt lat="42.71055" lon="1.63374">
        <ele>1904.8</ele>
        <time>2020-02-08T15:01:08Z</time>
      </trkpt>
      <trkpt lat="42.71056" lon="1.63374">
        <ele>1904.8</ele>
        <time>2020-02-08T15:01:09Z</time>
      </trkpt>
      <trkpt lat="42.71056" lon="1.63374">
        <ele>1904.8</ele>
        <time>2020-02-08T15:01:10Z</time>
      </trkpt>
      <trkpt lat="42.71056" lon="1.63374">
        <ele>1904.8</ele>
        <time>2020-02-08T15:01:11Z</time>
      </trkpt>
      <trkpt lat="42.71056" lon="1.63374">
        <ele>1904.8</ele>
        <time>2020-02-08T15:01:12Z</time>
      </trkpt>
      <trkpt lat="42.71056" lon="1.63374">
        <ele>1904.8</ele>
        <time>2020-02-08T15:01:13Z</time>
      </trkpt>
      <trkpt lat="42.71056" lon="1.63375">
        <ele>1903.9</ele>
        <time>2020-02-08T15:01:14Z</time>
      </trkpt>
      <trkpt lat="42.71057" lon="1.63376">
        <ele>1903.9</ele>
        <time>2020-02-08T15:01:15Z</time>
      </trkpt>
      <trkpt lat="42.71057" lon="1.63377">
        <ele>1904.8</ele>
        <time>2020-02-08T15:01:16Z</time>
      </trkpt>
      <trkpt lat="42.71058" lon="1.63378">
        <ele>1904.8</ele>
        <time>2020-02-08T15:01:17Z</time>
      </trkpt>
      <trkpt lat="42.71058" lon="1.63379">
        <ele>1903.8</ele>
        <time>2020-02-08T15:01:18Z</time>
      </trkpt>
      <trkpt lat="42.71059" lon="1.6338">
        <ele>1903.8</ele>
        <time>2020-02-08T15:01:19Z</time>
      </trkpt>
      <trkpt lat="42.71059" lon="1.63381">
        <ele>1903.8</ele>
        <time>2020-02-08T15:01:20Z</time>
      </trkpt>
      <trkpt lat="42.7106" lon="1.63382">
        <ele>1903.8</ele>
        <time>2020-02-08T15:01:21Z</time>
      </trkpt>
      <trkpt lat="42.7106" lon="1.63383">
        <ele>1904.7</ele>
        <time>2020-02-08T15:01:22Z</time>
      </trkpt>
      <trkpt lat="42.71061" lon="1.63384">
        <ele>1903.6</ele>
        <time>2020-02-08T15:01:23Z</time>
      </trkpt>
      <trkpt lat="42.71062" lon="1.63387">
        <ele>1903.6</ele>
        <time>2020-02-08T15:01:24Z</time>
      </trkpt>
      <trkpt lat="42.71063" lon="1.63388">
        <ele>1902.5</ele>
        <time>2020-02-08T15:01:25Z</time>
      </trkpt>
      <trkpt lat="42.71063" lon="1.63389">
        <ele>1902.5</ele>
        <time>2020-02-08T15:01:26Z</time>
      </trkpt>
      <trkpt lat="42.71063" lon="1.63389">
        <ele>1903.4</ele>
        <time>2020-02-08T15:01:27Z</time>
      </trkpt>
      <trkpt lat="42.71064" lon="1.6339">
        <ele>1903.4</ele>
        <time>2020-02-08T15:01:28Z</time>
      </trkpt>
      <trkpt lat="42.71064" lon="1.63391">
        <ele>1903.4</ele>
        <time>2020-02-08T15:01:29Z</time>
      </trkpt>
      <trkpt lat="42.71065" lon="1.63391">
        <ele>1903.4</ele>
        <time>2020-02-08T15:01:30Z</time>
      </trkpt>
      <trkpt lat="42.71065" lon="1.63392">
        <ele>1902.3</ele>
        <time>2020-02-08T15:01:31Z</time>
      </trkpt>
      <trkpt lat="42.71065" lon="1.63393">
        <ele>1902.3</ele>
        <time>2020-02-08T15:01:32Z</time>
      </trkpt>
      <trkpt lat="42.71066" lon="1.63393">
        <ele>1902.3</ele>
        <time>2020-02-08T15:01:33Z</time>
      </trkpt>
      <trkpt lat="42.71068" lon="1.63397">
        <ele>1902</ele>
        <time>2020-02-08T15:01:34Z</time>
      </trkpt>
      <trkpt lat="42.71068" lon="1.63397">
        <ele>1902</ele>
        <time>2020-02-08T15:01:35Z</time>
      </trkpt>
      <trkpt lat="42.71069" lon="1.63398">
        <ele>1902</ele>
        <time>2020-02-08T15:01:36Z</time>
      </trkpt>
      <trkpt lat="42.71069" lon="1.63399">
        <ele>1902</ele>
        <time>2020-02-08T15:01:37Z</time>
      </trkpt>
      <trkpt lat="42.7107" lon="1.634">
        <ele>1902.7</ele>
        <time>2020-02-08T15:01:38Z</time>
      </trkpt>
      <trkpt lat="42.7107" lon="1.63401">
        <ele>1901.7</ele>
        <time>2020-02-08T15:01:39Z</time>
      </trkpt>
      <trkpt lat="42.71071" lon="1.63402">
        <ele>1901.7</ele>
        <time>2020-02-08T15:01:40Z</time>
      </trkpt>
      <trkpt lat="42.71071" lon="1.63403">
        <ele>1901.7</ele>
        <time>2020-02-08T15:01:41Z</time>
      </trkpt>
      <trkpt lat="42.71072" lon="1.63404">
        <ele>1901.7</ele>
        <time>2020-02-08T15:01:42Z</time>
      </trkpt>
      <trkpt lat="42.71072" lon="1.63405">
        <ele>1900.7</ele>
        <time>2020-02-08T15:01:43Z</time>
      </trkpt>
      <trkpt lat="42.71073" lon="1.63405">
        <ele>1901.5</ele>
        <time>2020-02-08T15:01:44Z</time>
      </trkpt>
      <trkpt lat="42.71074" lon="1.63406">
        <ele>1901.5</ele>
        <time>2020-02-08T15:01:45Z</time>
      </trkpt>
      <trkpt lat="42.71074" lon="1.63406">
        <ele>1901.5</ele>
        <time>2020-02-08T15:01:46Z</time>
      </trkpt>
      <trkpt lat="42.71075" lon="1.63407">
        <ele>1901.5</ele>
        <time>2020-02-08T15:01:47Z</time>
      </trkpt>
      <trkpt lat="42.71075" lon="1.63407">
        <ele>1901.5</ele>
        <time>2020-02-08T15:01:48Z</time>
      </trkpt>
      <trkpt lat="42.71076" lon="1.63407">
        <ele>1901.5</ele>
        <time>2020-02-08T15:01:49Z</time>
      </trkpt>
      <trkpt lat="42.71076" lon="1.63408">
        <ele>1902.4</ele>
        <time>2020-02-08T15:01:50Z</time>
      </trkpt>
      <trkpt lat="42.71077" lon="1.63408">
        <ele>1902.4</ele>
        <time>2020-02-08T15:01:51Z</time>
      </trkpt>
      <trkpt lat="42.71077" lon="1.63409">
        <ele>1901.4</ele>
        <time>2020-02-08T15:01:52Z</time>
      </trkpt>
      <trkpt lat="42.71078" lon="1.63409">
        <ele>1901.4</ele>
        <time>2020-02-08T15:01:53Z</time>
      </trkpt>
      <trkpt lat="42.71078" lon="1.6341">
        <ele>1901.4</ele>
        <time>2020-02-08T15:01:54Z</time>
      </trkpt>
      <trkpt lat="42.71079" lon="1.63411">
        <ele>1901.4</ele>
        <time>2020-02-08T15:01:55Z</time>
      </trkpt>
      <trkpt lat="42.71079" lon="1.63411">
        <ele>1902.3</ele>
        <time>2020-02-08T15:01:56Z</time>
      </trkpt>
      <trkpt lat="42.7108" lon="1.63412">
        <ele>1902.3</ele>
        <time>2020-02-08T15:01:57Z</time>
      </trkpt>
      <trkpt lat="42.7108" lon="1.63413">
        <ele>1902.3</ele>
        <time>2020-02-08T15:01:58Z</time>
      </trkpt>
      <trkpt lat="42.71081" lon="1.63413">
        <ele>1901.4</ele>
        <time>2020-02-08T15:01:59Z</time>
      </trkpt>
      <trkpt lat="42.71081" lon="1.63414">
        <ele>1901.4</ele>
        <time>2020-02-08T15:02:00Z</time>
      </trkpt>
      <trkpt lat="42.71082" lon="1.63414">
        <ele>1901.4</ele>
        <time>2020-02-08T15:02:01Z</time>
      </trkpt>
      <trkpt lat="42.71082" lon="1.63415">
        <ele>1901.4</ele>
        <time>2020-02-08T15:02:02Z</time>
      </trkpt>
      <trkpt lat="42.71082" lon="1.63416">
        <ele>1902.3</ele>
        <time>2020-02-08T15:02:03Z</time>
      </trkpt>
      <trkpt lat="42.71085" lon="1.63418">
        <ele>1901.3</ele>
        <time>2020-02-08T15:02:04Z</time>
      </trkpt>
      <trkpt lat="42.71085" lon="1.63418">
        <ele>1901.3</ele>
        <time>2020-02-08T15:02:05Z</time>
      </trkpt>
      <trkpt lat="42.71085" lon="1.63419">
        <ele>1902.2</ele>
        <time>2020-02-08T15:02:06Z</time>
      </trkpt>
      <trkpt lat="42.71086" lon="1.6342">
        <ele>1902.2</ele>
        <time>2020-02-08T15:02:07Z</time>
      </trkpt>
      <trkpt lat="42.71086" lon="1.6342">
        <ele>1902.2</ele>
        <time>2020-02-08T15:02:08Z</time>
      </trkpt>
      <trkpt lat="42.71087" lon="1.63421">
        <ele>1902.2</ele>
        <time>2020-02-08T15:02:09Z</time>
      </trkpt>
      <trkpt lat="42.71087" lon="1.63421">
        <ele>1902.2</ele>
        <time>2020-02-08T15:02:10Z</time>
      </trkpt>
      <trkpt lat="42.71088" lon="1.63422">
        <ele>1901.2</ele>
        <time>2020-02-08T15:02:11Z</time>
      </trkpt>
      <trkpt lat="42.71088" lon="1.63422">
        <ele>1901.2</ele>
        <time>2020-02-08T15:02:12Z</time>
      </trkpt>
      <trkpt lat="42.71089" lon="1.63423">
        <ele>1901.2</ele>
        <time>2020-02-08T15:02:13Z</time>
      </trkpt>
      <trkpt lat="42.71089" lon="1.63423">
        <ele>1902</ele>
        <time>2020-02-08T15:02:14Z</time>
      </trkpt>
      <trkpt lat="42.71089" lon="1.63424">
        <ele>1902</ele>
        <time>2020-02-08T15:02:15Z</time>
      </trkpt>
      <trkpt lat="42.71089" lon="1.63424">
        <ele>1902</ele>
        <time>2020-02-08T15:02:16Z</time>
      </trkpt>
      <trkpt lat="42.7109" lon="1.63424">
        <ele>1902</ele>
        <time>2020-02-08T15:02:17Z</time>
      </trkpt>
      <trkpt lat="42.7109" lon="1.63425">
        <ele>1902</ele>
        <time>2020-02-08T15:02:18Z</time>
      </trkpt>
      <trkpt lat="42.7109" lon="1.63425">
        <ele>1902</ele>
        <time>2020-02-08T15:02:19Z</time>
      </trkpt>
      <trkpt lat="42.71091" lon="1.63426">
        <ele>1902</ele>
        <time>2020-02-08T15:02:20Z</time>
      </trkpt>
      <trkpt lat="42.71091" lon="1.63426">
        <ele>1902</ele>
        <time>2020-02-08T15:02:21Z</time>
      </trkpt>
      <trkpt lat="42.71091" lon="1.63426">
        <ele>1900.9</ele>
        <time>2020-02-08T15:02:22Z</time>
      </trkpt>
      <trkpt lat="42.71092" lon="1.63427">
        <ele>1900.9</ele>
        <time>2020-02-08T15:02:23Z</time>
      </trkpt>
      <trkpt lat="42.71092" lon="1.63427">
        <ele>1900.9</ele>
        <time>2020-02-08T15:02:24Z</time>
      </trkpt>
      <trkpt lat="42.71093" lon="1.63429">
        <ele>1901.6</ele>
        <time>2020-02-08T15:02:25Z</time>
      </trkpt>
      <trkpt lat="42.71093" lon="1.63429">
        <ele>1901.6</ele>
        <time>2020-02-08T15:02:26Z</time>
      </trkpt>
      <trkpt lat="42.71093" lon="1.63429">
        <ele>1901.6</ele>
        <time>2020-02-08T15:02:27Z</time>
      </trkpt>
      <trkpt lat="42.71093" lon="1.63429">
        <ele>1901.6</ele>
        <time>2020-02-08T15:02:28Z</time>
      </trkpt>
      <trkpt lat="42.71093" lon="1.63429">
        <ele>1901.6</ele>
        <time>2020-02-08T15:02:29Z</time>
      </trkpt>
      <trkpt lat="42.71093" lon="1.63429">
        <ele>1901.6</ele>
        <time>2020-02-08T15:02:30Z</time>
      </trkpt>
      <trkpt lat="42.71093" lon="1.63429">
        <ele>1901.6</ele>
        <time>2020-02-08T15:02:31Z</time>
      </trkpt>
      <trkpt lat="42.71093" lon="1.63429">
        <ele>1901.6</ele>
        <time>2020-02-08T15:02:32Z</time>
      </trkpt>
      <trkpt lat="42.71093" lon="1.63429">
        <ele>1901.6</ele>
        <time>2020-02-08T15:02:33Z</time>
      </trkpt>
      <trkpt lat="42.71093" lon="1.63429">
        <ele>1901.6</ele>
        <time>2020-02-08T15:02:34Z</time>
      </trkpt>
      <trkpt lat="42.71093" lon="1.6343">
        <ele>1901.6</ele>
        <time>2020-02-08T15:02:35Z</time>
      </trkpt>
      <trkpt lat="42.71093" lon="1.6343">
        <ele>1900.5</ele>
        <time>2020-02-08T15:02:36Z</time>
      </trkpt>
      <trkpt lat="42.71094" lon="1.63431">
        <ele>1900.5</ele>
        <time>2020-02-08T15:02:37Z</time>
      </trkpt>
      <trkpt lat="42.71094" lon="1.63431">
        <ele>1900.5</ele>
        <time>2020-02-08T15:02:38Z</time>
      </trkpt>
      <trkpt lat="42.71094" lon="1.63432">
        <ele>1900.5</ele>
        <time>2020-02-08T15:02:39Z</time>
      </trkpt>
      <trkpt lat="42.71094" lon="1.63432">
        <ele>1900.5</ele>
        <time>2020-02-08T15:02:40Z</time>
      </trkpt>
      <trkpt lat="42.71094" lon="1.63433">
        <ele>1900.5</ele>
        <time>2020-02-08T15:02:41Z</time>
      </trkpt>
      <trkpt lat="42.71094" lon="1.63433">
        <ele>1900.5</ele>
        <time>2020-02-08T15:02:42Z</time>
      </trkpt>
      <trkpt lat="42.71094" lon="1.63434">
        <ele>1900.5</ele>
        <time>2020-02-08T15:02:43Z</time>
      </trkpt>
      <trkpt lat="42.71094" lon="1.63434">
        <ele>1900.5</ele>
        <time>2020-02-08T15:02:44Z</time>
      </trkpt>
      <trkpt lat="42.71094" lon="1.63434">
        <ele>1900.5</ele>
        <time>2020-02-08T15:02:45Z</time>
      </trkpt>
      <trkpt lat="42.71094" lon="1.63434">
        <ele>1900.5</ele>
        <time>2020-02-08T15:02:46Z</time>
      </trkpt>
      <trkpt lat="42.71094" lon="1.63434">
        <ele>1900.5</ele>
        <time>2020-02-08T15:02:47Z</time>
      </trkpt>
      <trkpt lat="42.71094" lon="1.63434">
        <ele>1900.5</ele>
        <time>2020-02-08T15:02:48Z</time>
      </trkpt>
      <trkpt lat="42.71094" lon="1.63434">
        <ele>1900.5</ele>
        <time>2020-02-08T15:02:49Z</time>
      </trkpt>
      <trkpt lat="42.71094" lon="1.63434">
        <ele>1900.5</ele>
        <time>2020-02-08T15:02:50Z</time>
      </trkpt>
      <trkpt lat="42.71094" lon="1.63434">
        <ele>1900.5</ele>
        <time>2020-02-08T15:02:51Z</time>
      </trkpt>
      <trkpt lat="42.71094" lon="1.63434">
        <ele>1900.5</ele>
        <time>2020-02-08T15:02:52Z</time>
      </trkpt>
      <trkpt lat="42.71094" lon="1.63434">
        <ele>1900.5</ele>
        <time>2020-02-08T15:02:53Z</time>
      </trkpt>
      <trkpt lat="42.71094" lon="1.63434">
        <ele>1900.5</ele>
        <time>2020-02-08T15:02:54Z</time>
      </trkpt>
      <trkpt lat="42.71094" lon="1.63434">
        <ele>1900.5</ele>
        <time>2020-02-08T15:02:55Z</time>
      </trkpt>
      <trkpt lat="42.71094" lon="1.63434">
        <ele>1900.5</ele>
        <time>2020-02-08T15:02:56Z</time>
      </trkpt>
      <trkpt lat="42.71094" lon="1.63434">
        <ele>1900.5</ele>
        <time>2020-02-08T15:02:57Z</time>
      </trkpt>
      <trkpt lat="42.71094" lon="1.63434">
        <ele>1900.5</ele>
        <time>2020-02-08T15:02:58Z</time>
      </trkpt>
      <trkpt lat="42.71095" lon="1.63437">
        <ele>1899.4</ele>
        <time>2020-02-08T15:02:59Z</time>
      </trkpt>
      <trkpt lat="42.71095" lon="1.63437">
        <ele>1899.4</ele>
        <time>2020-02-08T15:03:00Z</time>
      </trkpt>
      <trkpt lat="42.71095" lon="1.63437">
        <ele>1899.4</ele>
        <time>2020-02-08T15:03:01Z</time>
      </trkpt>
      <trkpt lat="42.71095" lon="1.63437">
        <ele>1899.4</ele>
        <time>2020-02-08T15:03:02Z</time>
      </trkpt>
      <trkpt lat="42.71095" lon="1.63437">
        <ele>1899.4</ele>
        <time>2020-02-08T15:03:03Z</time>
      </trkpt>
      <trkpt lat="42.71095" lon="1.63437">
        <ele>1900</ele>
        <time>2020-02-08T15:03:04Z</time>
      </trkpt>
      <trkpt lat="42.71095" lon="1.63438">
        <ele>1900</ele>
        <time>2020-02-08T15:03:05Z</time>
      </trkpt>
      <trkpt lat="42.71096" lon="1.63439">
        <ele>1898.9</ele>
        <time>2020-02-08T15:03:06Z</time>
      </trkpt>
      <trkpt lat="42.71096" lon="1.6344">
        <ele>1898.9</ele>
        <time>2020-02-08T15:03:07Z</time>
      </trkpt>
      <trkpt lat="42.71096" lon="1.63441">
        <ele>1898.9</ele>
        <time>2020-02-08T15:03:08Z</time>
      </trkpt>
      <trkpt lat="42.71097" lon="1.63441">
        <ele>1898.9</ele>
        <time>2020-02-08T15:03:09Z</time>
      </trkpt>
      <trkpt lat="42.71097" lon="1.63442">
        <ele>1898.9</ele>
        <time>2020-02-08T15:03:10Z</time>
      </trkpt>
      <trkpt lat="42.71097" lon="1.63443">
        <ele>1897.7</ele>
        <time>2020-02-08T15:03:11Z</time>
      </trkpt>
      <trkpt lat="42.71097" lon="1.63444">
        <ele>1897.7</ele>
        <time>2020-02-08T15:03:12Z</time>
      </trkpt>
      <trkpt lat="42.71098" lon="1.63445">
        <ele>1897.7</ele>
        <time>2020-02-08T15:03:13Z</time>
      </trkpt>
      <trkpt lat="42.71098" lon="1.63445">
        <ele>1897.7</ele>
        <time>2020-02-08T15:03:14Z</time>
      </trkpt>
      <trkpt lat="42.71098" lon="1.63446">
        <ele>1897.7</ele>
        <time>2020-02-08T15:03:15Z</time>
      </trkpt>
      <trkpt lat="42.71098" lon="1.63446">
        <ele>1897.7</ele>
        <time>2020-02-08T15:03:16Z</time>
      </trkpt>
      <trkpt lat="42.71098" lon="1.63447">
        <ele>1898.3</ele>
        <time>2020-02-08T15:03:17Z</time>
      </trkpt>
      <trkpt lat="42.71098" lon="1.63447">
        <ele>1898.3</ele>
        <time>2020-02-08T15:03:18Z</time>
      </trkpt>
      <trkpt lat="42.71098" lon="1.63448">
        <ele>1897.1</ele>
        <time>2020-02-08T15:03:19Z</time>
      </trkpt>
      <trkpt lat="42.71098" lon="1.63448">
        <ele>1897.1</ele>
        <time>2020-02-08T15:03:20Z</time>
      </trkpt>
      <trkpt lat="42.71098" lon="1.63449">
        <ele>1897.1</ele>
        <time>2020-02-08T15:03:21Z</time>
      </trkpt>
      <trkpt lat="42.71098" lon="1.6345">
        <ele>1897.1</ele>
        <time>2020-02-08T15:03:22Z</time>
      </trkpt>
      <trkpt lat="42.71099" lon="1.6345">
        <ele>1897.1</ele>
        <time>2020-02-08T15:03:23Z</time>
      </trkpt>
      <trkpt lat="42.71099" lon="1.63451">
        <ele>1897.1</ele>
        <time>2020-02-08T15:03:24Z</time>
      </trkpt>
      <trkpt lat="42.71099" lon="1.63453">
        <ele>1896</ele>
        <time>2020-02-08T15:03:25Z</time>
      </trkpt>
      <trkpt lat="42.71099" lon="1.63454">
        <ele>1896</ele>
        <time>2020-02-08T15:03:26Z</time>
      </trkpt>
      <trkpt lat="42.71099" lon="1.63455">
        <ele>1896</ele>
        <time>2020-02-08T15:03:27Z</time>
      </trkpt>
      <trkpt lat="42.71099" lon="1.63456">
        <ele>1894.8</ele>
        <time>2020-02-08T15:03:28Z</time>
      </trkpt>
      <trkpt lat="42.71099" lon="1.63458">
        <ele>1894.8</ele>
        <time>2020-02-08T15:03:29Z</time>
      </trkpt>
      <trkpt lat="42.71099" lon="1.63459">
        <ele>1894.8</ele>
        <time>2020-02-08T15:03:30Z</time>
      </trkpt>
      <trkpt lat="42.71099" lon="1.6346">
        <ele>1894.8</ele>
        <time>2020-02-08T15:03:31Z</time>
      </trkpt>
      <trkpt lat="42.71099" lon="1.63461">
        <ele>1893.6</ele>
        <time>2020-02-08T15:03:32Z</time>
      </trkpt>
      <trkpt lat="42.71099" lon="1.63463">
        <ele>1893.6</ele>
        <time>2020-02-08T15:03:33Z</time>
      </trkpt>
      <trkpt lat="42.71098" lon="1.63466">
        <ele>1892.3</ele>
        <time>2020-02-08T15:03:34Z</time>
      </trkpt>
      <trkpt lat="42.71098" lon="1.63467">
        <ele>1891.8</ele>
        <time>2020-02-08T15:03:35Z</time>
      </trkpt>
      <trkpt lat="42.71097" lon="1.63468">
        <ele>1891.8</ele>
        <time>2020-02-08T15:03:36Z</time>
      </trkpt>
      <trkpt lat="42.71097" lon="1.63469">
        <ele>1891.8</ele>
        <time>2020-02-08T15:03:37Z</time>
      </trkpt>
      <trkpt lat="42.71096" lon="1.63469">
        <ele>1890.4</ele>
        <time>2020-02-08T15:03:38Z</time>
      </trkpt>
      <trkpt lat="42.71096" lon="1.6347">
        <ele>1890.4</ele>
        <time>2020-02-08T15:03:39Z</time>
      </trkpt>
      <trkpt lat="42.71095" lon="1.63471">
        <ele>1890.4</ele>
        <time>2020-02-08T15:03:40Z</time>
      </trkpt>
      <trkpt lat="42.71095" lon="1.63472">
        <ele>1889.9</ele>
        <time>2020-02-08T15:03:41Z</time>
      </trkpt>
      <trkpt lat="42.71094" lon="1.63472">
        <ele>1889.9</ele>
        <time>2020-02-08T15:03:42Z</time>
      </trkpt>
      <trkpt lat="42.71094" lon="1.63473">
        <ele>1889.9</ele>
        <time>2020-02-08T15:03:43Z</time>
      </trkpt>
      <trkpt lat="42.71091" lon="1.63475">
        <ele>1888</ele>
        <time>2020-02-08T15:03:44Z</time>
      </trkpt>
      <trkpt lat="42.71091" lon="1.63475">
        <ele>1888</ele>
        <time>2020-02-08T15:03:45Z</time>
      </trkpt>
      <trkpt lat="42.7109" lon="1.63476">
        <ele>1888</ele>
        <time>2020-02-08T15:03:46Z</time>
      </trkpt>
      <trkpt lat="42.7109" lon="1.63477">
        <ele>1888</ele>
        <time>2020-02-08T15:03:47Z</time>
      </trkpt>
      <trkpt lat="42.71089" lon="1.63477">
        <ele>1888</ele>
        <time>2020-02-08T15:03:48Z</time>
      </trkpt>
      <trkpt lat="42.71089" lon="1.63478">
        <ele>1886.6</ele>
        <time>2020-02-08T15:03:49Z</time>
      </trkpt>
      <trkpt lat="42.71088" lon="1.63478">
        <ele>1886.1</ele>
        <time>2020-02-08T15:03:50Z</time>
      </trkpt>
      <trkpt lat="42.71088" lon="1.63479">
        <ele>1886.1</ele>
        <time>2020-02-08T15:03:51Z</time>
      </trkpt>
      <trkpt lat="42.71087" lon="1.63479">
        <ele>1886.1</ele>
        <time>2020-02-08T15:03:52Z</time>
      </trkpt>
      <trkpt lat="42.71087" lon="1.6348">
        <ele>1886.1</ele>
        <time>2020-02-08T15:03:53Z</time>
      </trkpt>
      <trkpt lat="42.71087" lon="1.6348">
        <ele>1886.1</ele>
        <time>2020-02-08T15:03:54Z</time>
      </trkpt>
      <trkpt lat="42.71086" lon="1.63481">
        <ele>1886.1</ele>
        <time>2020-02-08T15:03:55Z</time>
      </trkpt>
      <trkpt lat="42.71086" lon="1.63482">
        <ele>1884.8</ele>
        <time>2020-02-08T15:03:56Z</time>
      </trkpt>
      <trkpt lat="42.71086" lon="1.63483">
        <ele>1884.8</ele>
        <time>2020-02-08T15:03:57Z</time>
      </trkpt>
      <trkpt lat="42.71086" lon="1.63483">
        <ele>1884.8</ele>
        <time>2020-02-08T15:03:58Z</time>
      </trkpt>
      <trkpt lat="42.71085" lon="1.63484">
        <ele>1884.2</ele>
        <time>2020-02-08T15:03:59Z</time>
      </trkpt>
      <trkpt lat="42.71085" lon="1.63485">
        <ele>1884.2</ele>
        <time>2020-02-08T15:04:00Z</time>
      </trkpt>
      <trkpt lat="42.71085" lon="1.63486">
        <ele>1884.2</ele>
        <time>2020-02-08T15:04:01Z</time>
      </trkpt>
      <trkpt lat="42.71085" lon="1.63486">
        <ele>1883</ele>
        <time>2020-02-08T15:04:02Z</time>
      </trkpt>
      <trkpt lat="42.71084" lon="1.63487">
        <ele>1883</ele>
        <time>2020-02-08T15:04:03Z</time>
      </trkpt>
      <trkpt lat="42.71082" lon="1.6349">
        <ele>1882.4</ele>
        <time>2020-02-08T15:04:04Z</time>
      </trkpt>
      <trkpt lat="42.71082" lon="1.6349">
        <ele>1882.4</ele>
        <time>2020-02-08T15:04:05Z</time>
      </trkpt>
      <trkpt lat="42.71081" lon="1.6349">
        <ele>1881.2</ele>
        <time>2020-02-08T15:04:06Z</time>
      </trkpt>
      <trkpt lat="42.71081" lon="1.63491">
        <ele>1881.2</ele>
        <time>2020-02-08T15:04:07Z</time>
      </trkpt>
      <trkpt lat="42.71081" lon="1.63491">
        <ele>1881.2</ele>
        <time>2020-02-08T15:04:08Z</time>
      </trkpt>
      <trkpt lat="42.7108" lon="1.63492">
        <ele>1881.2</ele>
        <time>2020-02-08T15:04:09Z</time>
      </trkpt>
      <trkpt lat="42.7108" lon="1.63492">
        <ele>1881.2</ele>
        <time>2020-02-08T15:04:10Z</time>
      </trkpt>
      <trkpt lat="42.7108" lon="1.63492">
        <ele>1881.2</ele>
        <time>2020-02-08T15:04:11Z</time>
      </trkpt>
      <trkpt lat="42.71079" lon="1.63493">
        <ele>1881.2</ele>
        <time>2020-02-08T15:04:12Z</time>
      </trkpt>
      <trkpt lat="42.71079" lon="1.63493">
        <ele>1881.2</ele>
        <time>2020-02-08T15:04:13Z</time>
      </trkpt>
      <trkpt lat="42.71079" lon="1.63493">
        <ele>1881.2</ele>
        <time>2020-02-08T15:04:14Z</time>
      </trkpt>
      <trkpt lat="42.71079" lon="1.63493">
        <ele>1881.2</ele>
        <time>2020-02-08T15:04:15Z</time>
      </trkpt>
      <trkpt lat="42.71079" lon="1.63493">
        <ele>1881.2</ele>
        <time>2020-02-08T15:04:16Z</time>
      </trkpt>
      <trkpt lat="42.71079" lon="1.63493">
        <ele>1881.2</ele>
        <time>2020-02-08T15:04:17Z</time>
      </trkpt>
      <trkpt lat="42.71079" lon="1.63493">
        <ele>1881.2</ele>
        <time>2020-02-08T15:04:18Z</time>
      </trkpt>
      <trkpt lat="42.71079" lon="1.63496">
        <ele>1880</ele>
        <time>2020-02-08T15:04:19Z</time>
      </trkpt>
      <trkpt lat="42.71079" lon="1.63496">
        <ele>1880</ele>
        <time>2020-02-08T15:04:20Z</time>
      </trkpt>
      <trkpt lat="42.71079" lon="1.63496">
        <ele>1880</ele>
        <time>2020-02-08T15:04:21Z</time>
      </trkpt>
      <trkpt lat="42.71079" lon="1.63496">
        <ele>1880</ele>
        <time>2020-02-08T15:04:22Z</time>
      </trkpt>
      <trkpt lat="42.71079" lon="1.63496">
        <ele>1880</ele>
        <time>2020-02-08T15:04:23Z</time>
      </trkpt>
      <trkpt lat="42.71078" lon="1.63499">
        <ele>1878.3</ele>
        <time>2020-02-08T15:04:24Z</time>
      </trkpt>
      <trkpt lat="42.71078" lon="1.635">
        <ele>1878.3</ele>
        <time>2020-02-08T15:04:25Z</time>
      </trkpt>
      <trkpt lat="42.71077" lon="1.63501">
        <ele>1878.3</ele>
        <time>2020-02-08T15:04:26Z</time>
      </trkpt>
      <trkpt lat="42.71077" lon="1.63502">
        <ele>1878.3</ele>
        <time>2020-02-08T15:04:27Z</time>
      </trkpt>
      <trkpt lat="42.71077" lon="1.63502">
        <ele>1878.3</ele>
        <time>2020-02-08T15:04:28Z</time>
      </trkpt>
      <trkpt lat="42.71077" lon="1.63503">
        <ele>1878.3</ele>
        <time>2020-02-08T15:04:29Z</time>
      </trkpt>
      <trkpt lat="42.71076" lon="1.63504">
        <ele>1877.1</ele>
        <time>2020-02-08T15:04:30Z</time>
      </trkpt>
      <trkpt lat="42.71076" lon="1.63505">
        <ele>1876.7</ele>
        <time>2020-02-08T15:04:31Z</time>
      </trkpt>
      <trkpt lat="42.71076" lon="1.63505">
        <ele>1876.7</ele>
        <time>2020-02-08T15:04:32Z</time>
      </trkpt>
      <trkpt lat="42.71075" lon="1.63506">
        <ele>1876.7</ele>
        <time>2020-02-08T15:04:33Z</time>
      </trkpt>
      <trkpt lat="42.71075" lon="1.63507">
        <ele>1876.7</ele>
        <time>2020-02-08T15:04:34Z</time>
      </trkpt>
      <trkpt lat="42.71075" lon="1.63508">
        <ele>1875.5</ele>
        <time>2020-02-08T15:04:35Z</time>
      </trkpt>
      <trkpt lat="42.71074" lon="1.63508">
        <ele>1875.5</ele>
        <time>2020-02-08T15:04:36Z</time>
      </trkpt>
      <trkpt lat="42.71074" lon="1.63509">
        <ele>1875.5</ele>
        <time>2020-02-08T15:04:37Z</time>
      </trkpt>
      <trkpt lat="42.71074" lon="1.6351">
        <ele>1875.5</ele>
        <time>2020-02-08T15:04:38Z</time>
      </trkpt>
      <trkpt lat="42.71073" lon="1.63511">
        <ele>1875.5</ele>
        <time>2020-02-08T15:04:39Z</time>
      </trkpt>
      <trkpt lat="42.71073" lon="1.63511">
        <ele>1875.5</ele>
        <time>2020-02-08T15:04:40Z</time>
      </trkpt>
      <trkpt lat="42.71072" lon="1.63512">
        <ele>1874</ele>
        <time>2020-02-08T15:04:41Z</time>
      </trkpt>
      <trkpt lat="42.71072" lon="1.63513">
        <ele>1874</ele>
        <time>2020-02-08T15:04:42Z</time>
      </trkpt>
      <trkpt lat="42.71072" lon="1.63514">
        <ele>1874</ele>
        <time>2020-02-08T15:04:43Z</time>
      </trkpt>
      <trkpt lat="42.71071" lon="1.63517">
        <ele>1872.8</ele>
        <time>2020-02-08T15:04:44Z</time>
      </trkpt>
      <trkpt lat="42.7107" lon="1.63518">
        <ele>1872.8</ele>
        <time>2020-02-08T15:04:45Z</time>
      </trkpt>
      <trkpt lat="42.7107" lon="1.63518">
        <ele>1872.8</ele>
        <time>2020-02-08T15:04:46Z</time>
      </trkpt>
      <trkpt lat="42.71069" lon="1.63519">
        <ele>1872.4</ele>
        <time>2020-02-08T15:04:47Z</time>
      </trkpt>
      <trkpt lat="42.71069" lon="1.63519">
        <ele>1872.4</ele>
        <time>2020-02-08T15:04:48Z</time>
      </trkpt>
      <trkpt lat="42.71068" lon="1.6352">
        <ele>1872.4</ele>
        <time>2020-02-08T15:04:49Z</time>
      </trkpt>
      <trkpt lat="42.71068" lon="1.6352">
        <ele>1871.3</ele>
        <time>2020-02-08T15:04:50Z</time>
      </trkpt>
      <trkpt lat="42.71067" lon="1.63521">
        <ele>1871.3</ele>
        <time>2020-02-08T15:04:51Z</time>
      </trkpt>
      <trkpt lat="42.71067" lon="1.63522">
        <ele>1871.3</ele>
        <time>2020-02-08T15:04:52Z</time>
      </trkpt>
      <trkpt lat="42.71066" lon="1.63522">
        <ele>1871</ele>
        <time>2020-02-08T15:04:53Z</time>
      </trkpt>
      <trkpt lat="42.71066" lon="1.63523">
        <ele>1871</ele>
        <time>2020-02-08T15:04:54Z</time>
      </trkpt>
      <trkpt lat="42.71065" lon="1.63524">
        <ele>1871</ele>
        <time>2020-02-08T15:04:55Z</time>
      </trkpt>
      <trkpt lat="42.71065" lon="1.63524">
        <ele>1871</ele>
        <time>2020-02-08T15:04:56Z</time>
      </trkpt>
      <trkpt lat="42.71065" lon="1.63525">
        <ele>1869.9</ele>
        <time>2020-02-08T15:04:57Z</time>
      </trkpt>
      <trkpt lat="42.71064" lon="1.63526">
        <ele>1869.9</ele>
        <time>2020-02-08T15:04:58Z</time>
      </trkpt>
      <trkpt lat="42.71064" lon="1.63527">
        <ele>1869.9</ele>
        <time>2020-02-08T15:04:59Z</time>
      </trkpt>
      <trkpt lat="42.71064" lon="1.63528">
        <ele>1869.9</ele>
        <time>2020-02-08T15:05:00Z</time>
      </trkpt>
      <trkpt lat="42.71063" lon="1.63528">
        <ele>1869.5</ele>
        <time>2020-02-08T15:05:01Z</time>
      </trkpt>
      <trkpt lat="42.71063" lon="1.63529">
        <ele>1868.5</ele>
        <time>2020-02-08T15:05:02Z</time>
      </trkpt>
      <trkpt lat="42.71062" lon="1.6353">
        <ele>1868.5</ele>
        <time>2020-02-08T15:05:03Z</time>
      </trkpt>
      <trkpt lat="42.71062" lon="1.63531">
        <ele>1868.5</ele>
        <time>2020-02-08T15:05:04Z</time>
      </trkpt>
      <trkpt lat="42.71062" lon="1.63531">
        <ele>1868.5</ele>
        <time>2020-02-08T15:05:05Z</time>
      </trkpt>
      <trkpt lat="42.71062" lon="1.63532">
        <ele>1868.5</ele>
        <time>2020-02-08T15:05:06Z</time>
      </trkpt>
      <trkpt lat="42.71061" lon="1.63533">
        <ele>1868.5</ele>
        <time>2020-02-08T15:05:07Z</time>
      </trkpt>
      <trkpt lat="42.71061" lon="1.63534">
        <ele>1867.6</ele>
        <time>2020-02-08T15:05:08Z</time>
      </trkpt>
      <trkpt lat="42.71061" lon="1.63535">
        <ele>1867.6</ele>
        <time>2020-02-08T15:05:09Z</time>
      </trkpt>
      <trkpt lat="42.7106" lon="1.63536">
        <ele>1867.6</ele>
        <time>2020-02-08T15:05:10Z</time>
      </trkpt>
      <trkpt lat="42.7106" lon="1.63536">
        <ele>1867.2</ele>
        <time>2020-02-08T15:05:11Z</time>
      </trkpt>
      <trkpt lat="42.7106" lon="1.63537">
        <ele>1867.2</ele>
        <time>2020-02-08T15:05:12Z</time>
      </trkpt>
      <trkpt lat="42.71059" lon="1.63538">
        <ele>1866.3</ele>
        <time>2020-02-08T15:05:13Z</time>
      </trkpt>
      <trkpt lat="42.71057" lon="1.63541">
        <ele>1866.3</ele>
        <time>2020-02-08T15:05:14Z</time>
      </trkpt>
      <trkpt lat="42.71057" lon="1.63542">
        <ele>1865.9</ele>
        <time>2020-02-08T15:05:15Z</time>
      </trkpt>
      <trkpt lat="42.71057" lon="1.63542">
        <ele>1865.1</ele>
        <time>2020-02-08T15:05:16Z</time>
      </trkpt>
      <trkpt lat="42.71056" lon="1.63542">
        <ele>1865.1</ele>
        <time>2020-02-08T15:05:17Z</time>
      </trkpt>
      <trkpt lat="42.71056" lon="1.63543">
        <ele>1865.1</ele>
        <time>2020-02-08T15:05:18Z</time>
      </trkpt>
      <trkpt lat="42.71056" lon="1.63543">
        <ele>1865.1</ele>
        <time>2020-02-08T15:05:19Z</time>
      </trkpt>
      <trkpt lat="42.71055" lon="1.63544">
        <ele>1865.1</ele>
        <time>2020-02-08T15:05:20Z</time>
      </trkpt>
      <trkpt lat="42.71055" lon="1.63544">
        <ele>1865.1</ele>
        <time>2020-02-08T15:05:21Z</time>
      </trkpt>
      <trkpt lat="42.71055" lon="1.63545">
        <ele>1865.1</ele>
        <time>2020-02-08T15:05:22Z</time>
      </trkpt>
      <trkpt lat="42.71055" lon="1.63545">
        <ele>1865.1</ele>
        <time>2020-02-08T15:05:23Z</time>
      </trkpt>
      <trkpt lat="42.71054" lon="1.63546">
        <ele>1865.1</ele>
        <time>2020-02-08T15:05:24Z</time>
      </trkpt>
      <trkpt lat="42.71054" lon="1.63547">
        <ele>1863.9</ele>
        <time>2020-02-08T15:05:25Z</time>
      </trkpt>
      <trkpt lat="42.71053" lon="1.63547">
        <ele>1863.9</ele>
        <time>2020-02-08T15:05:26Z</time>
      </trkpt>
      <trkpt lat="42.71053" lon="1.63548">
        <ele>1863.9</ele>
        <time>2020-02-08T15:05:27Z</time>
      </trkpt>
      <trkpt lat="42.71052" lon="1.63549">
        <ele>1863.9</ele>
        <time>2020-02-08T15:05:28Z</time>
      </trkpt>
      <trkpt lat="42.71052" lon="1.6355">
        <ele>1863.9</ele>
        <time>2020-02-08T15:05:29Z</time>
      </trkpt>
      <trkpt lat="42.71051" lon="1.6355">
        <ele>1863.1</ele>
        <time>2020-02-08T15:05:30Z</time>
      </trkpt>
      <trkpt lat="42.71051" lon="1.63551">
        <ele>1863.1</ele>
        <time>2020-02-08T15:05:31Z</time>
      </trkpt>
      <trkpt lat="42.7105" lon="1.63552">
        <ele>1862.6</ele>
        <time>2020-02-08T15:05:32Z</time>
      </trkpt>
      <trkpt lat="42.7105" lon="1.63553">
        <ele>1862.6</ele>
        <time>2020-02-08T15:05:33Z</time>
      </trkpt>
      <trkpt lat="42.71049" lon="1.63553">
        <ele>1862.6</ele>
        <time>2020-02-08T15:05:34Z</time>
      </trkpt>
      <trkpt lat="42.71048" lon="1.63553">
        <ele>1862.6</ele>
        <time>2020-02-08T15:05:35Z</time>
      </trkpt>
      <trkpt lat="42.71047" lon="1.63553">
        <ele>1862.2</ele>
        <time>2020-02-08T15:05:36Z</time>
      </trkpt>
      <trkpt lat="42.71046" lon="1.63554">
        <ele>1862.2</ele>
        <time>2020-02-08T15:05:37Z</time>
      </trkpt>
      <trkpt lat="42.71045" lon="1.63554">
        <ele>1862.2</ele>
        <time>2020-02-08T15:05:38Z</time>
      </trkpt>
      <trkpt lat="42.71044" lon="1.63554">
        <ele>1861.8</ele>
        <time>2020-02-08T15:05:39Z</time>
      </trkpt>
      <trkpt lat="42.71043" lon="1.63554">
        <ele>1861.8</ele>
        <time>2020-02-08T15:05:40Z</time>
      </trkpt>
      <trkpt lat="42.71043" lon="1.63554">
        <ele>1861.8</ele>
        <time>2020-02-08T15:05:41Z</time>
      </trkpt>
      <trkpt lat="42.71042" lon="1.63555">
        <ele>1861.8</ele>
        <time>2020-02-08T15:05:42Z</time>
      </trkpt>
      <trkpt lat="42.71041" lon="1.63555">
        <ele>1860.5</ele>
        <time>2020-02-08T15:05:43Z</time>
      </trkpt>
      <trkpt lat="42.7104" lon="1.63556">
        <ele>1860.5</ele>
        <time>2020-02-08T15:05:44Z</time>
      </trkpt>
      <trkpt lat="42.7104" lon="1.63556">
        <ele>1860.5</ele>
        <time>2020-02-08T15:05:45Z</time>
      </trkpt>
      <trkpt lat="42.7104" lon="1.63557">
        <ele>1860.5</ele>
        <time>2020-02-08T15:05:46Z</time>
      </trkpt>
      <trkpt lat="42.7104" lon="1.63558">
        <ele>1860.5</ele>
        <time>2020-02-08T15:05:47Z</time>
      </trkpt>
      <trkpt lat="42.71039" lon="1.63559">
        <ele>1860.5</ele>
        <time>2020-02-08T15:05:48Z</time>
      </trkpt>
      <trkpt lat="42.71039" lon="1.6356">
        <ele>1859.8</ele>
        <time>2020-02-08T15:05:49Z</time>
      </trkpt>
      <trkpt lat="42.71039" lon="1.63561">
        <ele>1859.8</ele>
        <time>2020-02-08T15:05:50Z</time>
      </trkpt>
      <trkpt lat="42.71038" lon="1.63561">
        <ele>1859.8</ele>
        <time>2020-02-08T15:05:51Z</time>
      </trkpt>
      <trkpt lat="42.71038" lon="1.63562">
        <ele>1859.3</ele>
        <time>2020-02-08T15:05:52Z</time>
      </trkpt>
      <trkpt lat="42.71038" lon="1.63563">
        <ele>1859.3</ele>
        <time>2020-02-08T15:05:53Z</time>
      </trkpt>
      <trkpt lat="42.71038" lon="1.63564">
        <ele>1858.5</ele>
        <time>2020-02-08T15:05:54Z</time>
      </trkpt>
      <trkpt lat="42.71038" lon="1.63565">
        <ele>1858.5</ele>
        <time>2020-02-08T15:05:55Z</time>
      </trkpt>
      <trkpt lat="42.71038" lon="1.63565">
        <ele>1858.5</ele>
        <time>2020-02-08T15:05:56Z</time>
      </trkpt>
      <trkpt lat="42.71038" lon="1.63566">
        <ele>1858.5</ele>
        <time>2020-02-08T15:05:57Z</time>
      </trkpt>
      <trkpt lat="42.71038" lon="1.63567">
        <ele>1858.5</ele>
        <time>2020-02-08T15:05:58Z</time>
      </trkpt>
      <trkpt lat="42.71038" lon="1.63568">
        <ele>1857.8</ele>
        <time>2020-02-08T15:05:59Z</time>
      </trkpt>
      <trkpt lat="42.71038" lon="1.63569">
        <ele>1857.8</ele>
        <time>2020-02-08T15:06:00Z</time>
      </trkpt>
      <trkpt lat="42.71038" lon="1.63569">
        <ele>1857.8</ele>
        <time>2020-02-08T15:06:01Z</time>
      </trkpt>
      <trkpt lat="42.71038" lon="1.6357">
        <ele>1857.8</ele>
        <time>2020-02-08T15:06:02Z</time>
      </trkpt>
      <trkpt lat="42.71038" lon="1.63571">
        <ele>1857.8</ele>
        <time>2020-02-08T15:06:03Z</time>
      </trkpt>
      <trkpt lat="42.71038" lon="1.63575">
        <ele>1857.6</ele>
        <time>2020-02-08T15:06:04Z</time>
      </trkpt>
      <trkpt lat="42.71038" lon="1.63576">
        <ele>1857.6</ele>
        <time>2020-02-08T15:06:05Z</time>
      </trkpt>
      <trkpt lat="42.71039" lon="1.63576">
        <ele>1857</ele>
        <time>2020-02-08T15:06:06Z</time>
      </trkpt>
      <trkpt lat="42.71039" lon="1.63577">
        <ele>1857</ele>
        <time>2020-02-08T15:06:07Z</time>
      </trkpt>
      <trkpt lat="42.71039" lon="1.63578">
        <ele>1857</ele>
        <time>2020-02-08T15:06:08Z</time>
      </trkpt>
      <trkpt lat="42.71039" lon="1.63579">
        <ele>1857</ele>
        <time>2020-02-08T15:06:09Z</time>
      </trkpt>
      <trkpt lat="42.71039" lon="1.6358">
        <ele>1857</ele>
        <time>2020-02-08T15:06:10Z</time>
      </trkpt>
      <trkpt lat="42.71039" lon="1.63581">
        <ele>1856.4</ele>
        <time>2020-02-08T15:06:11Z</time>
      </trkpt>
      <trkpt lat="42.71039" lon="1.63582">
        <ele>1856.4</ele>
        <time>2020-02-08T15:06:12Z</time>
      </trkpt>
      <trkpt lat="42.71039" lon="1.63583">
        <ele>1856.4</ele>
        <time>2020-02-08T15:06:13Z</time>
      </trkpt>
      <trkpt lat="42.71039" lon="1.63585">
        <ele>1856.4</ele>
        <time>2020-02-08T15:06:14Z</time>
      </trkpt>
      <trkpt lat="42.71038" lon="1.63586">
        <ele>1855.8</ele>
        <time>2020-02-08T15:06:15Z</time>
      </trkpt>
      <trkpt lat="42.71038" lon="1.63587">
        <ele>1855.5</ele>
        <time>2020-02-08T15:06:16Z</time>
      </trkpt>
      <trkpt lat="42.71037" lon="1.63588">
        <ele>1855.5</ele>
        <time>2020-02-08T15:06:17Z</time>
      </trkpt>
      <trkpt lat="42.71037" lon="1.63589">
        <ele>1855</ele>
        <time>2020-02-08T15:06:18Z</time>
      </trkpt>
      <trkpt lat="42.71037" lon="1.6359">
        <ele>1855</ele>
        <time>2020-02-08T15:06:19Z</time>
      </trkpt>
      <trkpt lat="42.71036" lon="1.63592">
        <ele>1855</ele>
        <time>2020-02-08T15:06:20Z</time>
      </trkpt>
      <trkpt lat="42.71036" lon="1.63593">
        <ele>1855</ele>
        <time>2020-02-08T15:06:21Z</time>
      </trkpt>
      <trkpt lat="42.71035" lon="1.63594">
        <ele>1854.5</ele>
        <time>2020-02-08T15:06:22Z</time>
      </trkpt>
      <trkpt lat="42.71035" lon="1.63595">
        <ele>1854.5</ele>
        <time>2020-02-08T15:06:23Z</time>
      </trkpt>
      <trkpt lat="42.71035" lon="1.63596">
        <ele>1854.1</ele>
        <time>2020-02-08T15:06:24Z</time>
      </trkpt>
      <trkpt lat="42.71034" lon="1.63597">
        <ele>1854.1</ele>
        <time>2020-02-08T15:06:25Z</time>
      </trkpt>
      <trkpt lat="42.71034" lon="1.63598">
        <ele>1853.6</ele>
        <time>2020-02-08T15:06:26Z</time>
      </trkpt>
      <trkpt lat="42.71033" lon="1.63599">
        <ele>1853.6</ele>
        <time>2020-02-08T15:06:27Z</time>
      </trkpt>
      <trkpt lat="42.71033" lon="1.636">
        <ele>1853.6</ele>
        <time>2020-02-08T15:06:28Z</time>
      </trkpt>
      <trkpt lat="42.71033" lon="1.63601">
        <ele>1853.6</ele>
        <time>2020-02-08T15:06:29Z</time>
      </trkpt>
      <trkpt lat="42.71032" lon="1.63602">
        <ele>1853.1</ele>
        <time>2020-02-08T15:06:30Z</time>
      </trkpt>
      <trkpt lat="42.71032" lon="1.63603">
        <ele>1852.8</ele>
        <time>2020-02-08T15:06:31Z</time>
      </trkpt>
      <trkpt lat="42.71031" lon="1.63604">
        <ele>1852.8</ele>
        <time>2020-02-08T15:06:32Z</time>
      </trkpt>
      <trkpt lat="42.71031" lon="1.63605">
        <ele>1852.8</ele>
        <time>2020-02-08T15:06:33Z</time>
      </trkpt>
      <trkpt lat="42.7103" lon="1.63606">
        <ele>1852.8</ele>
        <time>2020-02-08T15:06:34Z</time>
      </trkpt>
      <trkpt lat="42.7103" lon="1.63607">
        <ele>1852.3</ele>
        <time>2020-02-08T15:06:35Z</time>
      </trkpt>
      <trkpt lat="42.7103" lon="1.63608">
        <ele>1852.3</ele>
        <time>2020-02-08T15:06:36Z</time>
      </trkpt>
      <trkpt lat="42.71029" lon="1.63609">
        <ele>1852.3</ele>
        <time>2020-02-08T15:06:37Z</time>
      </trkpt>
      <trkpt lat="42.71029" lon="1.6361">
        <ele>1852.3</ele>
        <time>2020-02-08T15:06:38Z</time>
      </trkpt>
      <trkpt lat="42.71029" lon="1.63611">
        <ele>1851.5</ele>
        <time>2020-02-08T15:06:39Z</time>
      </trkpt>
      <trkpt lat="42.71028" lon="1.63613">
        <ele>1851.5</ele>
        <time>2020-02-08T15:06:40Z</time>
      </trkpt>
      <trkpt lat="42.71028" lon="1.63614">
        <ele>1851.5</ele>
        <time>2020-02-08T15:06:41Z</time>
      </trkpt>
      <trkpt lat="42.71027" lon="1.63615">
        <ele>1851.5</ele>
        <time>2020-02-08T15:06:42Z</time>
      </trkpt>
      <trkpt lat="42.71027" lon="1.63616">
        <ele>1851</ele>
        <time>2020-02-08T15:06:43Z</time>
      </trkpt>
      <trkpt lat="42.71026" lon="1.63617">
        <ele>1851</ele>
        <time>2020-02-08T15:06:44Z</time>
      </trkpt>
      <trkpt lat="42.71026" lon="1.63617">
        <ele>1851</ele>
        <time>2020-02-08T15:06:45Z</time>
      </trkpt>
      <trkpt lat="42.71025" lon="1.63618">
        <ele>1850.7</ele>
        <time>2020-02-08T15:06:46Z</time>
      </trkpt>
      <trkpt lat="42.71024" lon="1.63619">
        <ele>1850.3</ele>
        <time>2020-02-08T15:06:47Z</time>
      </trkpt>
      <trkpt lat="42.71024" lon="1.6362">
        <ele>1850.3</ele>
        <time>2020-02-08T15:06:48Z</time>
      </trkpt>
      <trkpt lat="42.71023" lon="1.63621">
        <ele>1850.3</ele>
        <time>2020-02-08T15:06:49Z</time>
      </trkpt>
      <trkpt lat="42.71022" lon="1.63622">
        <ele>1850</ele>
        <time>2020-02-08T15:06:50Z</time>
      </trkpt>
      <trkpt lat="42.71021" lon="1.63623">
        <ele>1850</ele>
        <time>2020-02-08T15:06:51Z</time>
      </trkpt>
      <trkpt lat="42.71021" lon="1.63623">
        <ele>1849.6</ele>
        <time>2020-02-08T15:06:52Z</time>
      </trkpt>
      <trkpt lat="42.7102" lon="1.63624">
        <ele>1849.6</ele>
        <time>2020-02-08T15:06:53Z</time>
      </trkpt>
      <trkpt lat="42.7102" lon="1.63624">
        <ele>1849.6</ele>
        <time>2020-02-08T15:06:54Z</time>
      </trkpt>
      <trkpt lat="42.7102" lon="1.63624">
        <ele>1849.6</ele>
        <time>2020-02-08T15:06:55Z</time>
      </trkpt>
      <trkpt lat="42.7102" lon="1.63624">
        <ele>1849.6</ele>
        <time>2020-02-08T15:06:57Z</time>
      </trkpt>
      <trkpt lat="42.7102" lon="1.63624">
        <ele>1849.6</ele>
        <time>2020-02-08T15:06:58Z</time>
      </trkpt>
      <trkpt lat="42.7102" lon="1.63624">
        <ele>1849.6</ele>
        <time>2020-02-08T15:06:59Z</time>
      </trkpt>
      <trkpt lat="42.7102" lon="1.63624">
        <ele>1849.6</ele>
        <time>2020-02-08T15:07:00Z</time>
      </trkpt>
      <trkpt lat="42.7102" lon="1.63624">
        <ele>1849.6</ele>
        <time>2020-02-08T15:07:01Z</time>
      </trkpt>
      <trkpt lat="42.7102" lon="1.63624">
        <ele>1849.6</ele>
        <time>2020-02-08T15:07:02Z</time>
      </trkpt>
      <trkpt lat="42.7102" lon="1.63624">
        <ele>1849.6</ele>
        <time>2020-02-08T15:07:03Z</time>
      </trkpt>
      <trkpt lat="42.7102" lon="1.63624">
        <ele>1849.6</ele>
        <time>2020-02-08T15:07:04Z</time>
      </trkpt>
      <trkpt lat="42.7102" lon="1.63624">
        <ele>1849.6</ele>
        <time>2020-02-08T15:07:05Z</time>
      </trkpt>
      <trkpt lat="42.7102" lon="1.63624">
        <ele>1849.6</ele>
        <time>2020-02-08T15:07:06Z</time>
      </trkpt>
      <trkpt lat="42.71019" lon="1.63627">
        <ele>1849.6</ele>
        <time>2020-02-08T15:07:07Z</time>
      </trkpt>
      <trkpt lat="42.71019" lon="1.63628">
        <ele>1849</ele>
        <time>2020-02-08T15:07:08Z</time>
      </trkpt>
      <trkpt lat="42.71019" lon="1.6363">
        <ele>1849</ele>
        <time>2020-02-08T15:07:09Z</time>
      </trkpt>
      <trkpt lat="42.71018" lon="1.63631">
        <ele>1849</ele>
        <time>2020-02-08T15:07:10Z</time>
      </trkpt>
      <trkpt lat="42.71018" lon="1.63632">
        <ele>1848.7</ele>
        <time>2020-02-08T15:07:11Z</time>
      </trkpt>
      <trkpt lat="42.71017" lon="1.63634">
        <ele>1848.7</ele>
        <time>2020-02-08T15:07:12Z</time>
      </trkpt>
      <trkpt lat="42.71017" lon="1.63635">
        <ele>1848.7</ele>
        <time>2020-02-08T15:07:13Z</time>
      </trkpt>
      <trkpt lat="42.71016" lon="1.63636">
        <ele>1848.7</ele>
        <time>2020-02-08T15:07:14Z</time>
      </trkpt>
      <trkpt lat="42.71016" lon="1.63638">
        <ele>1848.4</ele>
        <time>2020-02-08T15:07:15Z</time>
      </trkpt>
      <trkpt lat="42.71016" lon="1.63639">
        <ele>1848.1</ele>
        <time>2020-02-08T15:07:16Z</time>
      </trkpt>
      <trkpt lat="42.71015" lon="1.6364">
        <ele>1848.1</ele>
        <time>2020-02-08T15:07:17Z</time>
      </trkpt>
      <trkpt lat="42.71013" lon="1.63642">
        <ele>1847.8</ele>
        <time>2020-02-08T15:07:18Z</time>
      </trkpt>
      <trkpt lat="42.71012" lon="1.63642">
        <ele>1847.6</ele>
        <time>2020-02-08T15:07:19Z</time>
      </trkpt>
      <trkpt lat="42.71011" lon="1.63643">
        <ele>1847.6</ele>
        <time>2020-02-08T15:07:20Z</time>
      </trkpt>
      <trkpt lat="42.71011" lon="1.63643">
        <ele>1847.6</ele>
        <time>2020-02-08T15:07:21Z</time>
      </trkpt>
      <trkpt lat="42.7101" lon="1.63644">
        <ele>1847.3</ele>
        <time>2020-02-08T15:07:22Z</time>
      </trkpt>
      <trkpt lat="42.71009" lon="1.63645">
        <ele>1847.3</ele>
        <time>2020-02-08T15:07:23Z</time>
      </trkpt>
      <trkpt lat="42.71008" lon="1.63645">
        <ele>1847.1</ele>
        <time>2020-02-08T15:07:24Z</time>
      </trkpt>
      <trkpt lat="42.71007" lon="1.63646">
        <ele>1847.1</ele>
        <time>2020-02-08T15:07:25Z</time>
      </trkpt>
      <trkpt lat="42.71006" lon="1.63646">
        <ele>1846.8</ele>
        <time>2020-02-08T15:07:26Z</time>
      </trkpt>
      <trkpt lat="42.71005" lon="1.63647">
        <ele>1846.8</ele>
        <time>2020-02-08T15:07:27Z</time>
      </trkpt>
      <trkpt lat="42.71003" lon="1.63648">
        <ele>1846.6</ele>
        <time>2020-02-08T15:07:28Z</time>
      </trkpt>
      <trkpt lat="42.71002" lon="1.63648">
        <ele>1846.6</ele>
        <time>2020-02-08T15:07:29Z</time>
      </trkpt>
      <trkpt lat="42.71001" lon="1.63648">
        <ele>1846.6</ele>
        <time>2020-02-08T15:07:30Z</time>
      </trkpt>
      <trkpt lat="42.71" lon="1.63649">
        <ele>1846.6</ele>
        <time>2020-02-08T15:07:31Z</time>
      </trkpt>
      <trkpt lat="42.71" lon="1.63649">
        <ele>1846.1</ele>
        <time>2020-02-08T15:07:32Z</time>
      </trkpt>
      <trkpt lat="42.70999" lon="1.6365">
        <ele>1846.1</ele>
        <time>2020-02-08T15:07:33Z</time>
      </trkpt>
      <trkpt lat="42.70998" lon="1.6365">
        <ele>1846.1</ele>
        <time>2020-02-08T15:07:34Z</time>
      </trkpt>
      <trkpt lat="42.70997" lon="1.6365">
        <ele>1845.8</ele>
        <time>2020-02-08T15:07:35Z</time>
      </trkpt>
      <trkpt lat="42.70996" lon="1.63651">
        <ele>1845.8</ele>
        <time>2020-02-08T15:07:36Z</time>
      </trkpt>
      <trkpt lat="42.70995" lon="1.63651">
        <ele>1845.8</ele>
        <time>2020-02-08T15:07:37Z</time>
      </trkpt>
      <trkpt lat="42.70993" lon="1.63652">
        <ele>1845.5</ele>
        <time>2020-02-08T15:07:38Z</time>
      </trkpt>
      <trkpt lat="42.70992" lon="1.63652">
        <ele>1845.5</ele>
        <time>2020-02-08T15:07:39Z</time>
      </trkpt>
      <trkpt lat="42.70991" lon="1.63653">
        <ele>1845.5</ele>
        <time>2020-02-08T15:07:40Z</time>
      </trkpt>
      <trkpt lat="42.7099" lon="1.63653">
        <ele>1845.2</ele>
        <time>2020-02-08T15:07:41Z</time>
      </trkpt>
      <trkpt lat="42.70989" lon="1.63653">
        <ele>1845.1</ele>
        <time>2020-02-08T15:07:42Z</time>
      </trkpt>
      <trkpt lat="42.70988" lon="1.63654">
        <ele>1845.1</ele>
        <time>2020-02-08T15:07:43Z</time>
      </trkpt>
      <trkpt lat="42.70987" lon="1.63654">
        <ele>1844.8</ele>
        <time>2020-02-08T15:07:44Z</time>
      </trkpt>
      <trkpt lat="42.70987" lon="1.63655">
        <ele>1844.8</ele>
        <time>2020-02-08T15:07:45Z</time>
      </trkpt>
      <trkpt lat="42.70986" lon="1.63655">
        <ele>1844.8</ele>
        <time>2020-02-08T15:07:46Z</time>
      </trkpt>
      <trkpt lat="42.70985" lon="1.63656">
        <ele>1844.8</ele>
        <time>2020-02-08T15:07:47Z</time>
      </trkpt>
      <trkpt lat="42.70983" lon="1.63656">
        <ele>1844.4</ele>
        <time>2020-02-08T15:07:48Z</time>
      </trkpt>
      <trkpt lat="42.70982" lon="1.63657">
        <ele>1844.4</ele>
        <time>2020-02-08T15:07:49Z</time>
      </trkpt>
      <trkpt lat="42.70981" lon="1.63657">
        <ele>1844.1</ele>
        <time>2020-02-08T15:07:50Z</time>
      </trkpt>
      <trkpt lat="42.7098" lon="1.63657">
        <ele>1844.1</ele>
        <time>2020-02-08T15:07:51Z</time>
      </trkpt>
      <trkpt lat="42.7098" lon="1.63658">
        <ele>1844.1</ele>
        <time>2020-02-08T15:07:52Z</time>
      </trkpt>
      <trkpt lat="42.70979" lon="1.63658">
        <ele>1843.9</ele>
        <time>2020-02-08T15:07:53Z</time>
      </trkpt>
      <trkpt lat="42.70978" lon="1.63658">
        <ele>1843.5</ele>
        <time>2020-02-08T15:07:54Z</time>
      </trkpt>
      <trkpt lat="42.70977" lon="1.63658">
        <ele>1843.5</ele>
        <time>2020-02-08T15:07:55Z</time>
      </trkpt>
      <trkpt lat="42.70977" lon="1.63659">
        <ele>1843.5</ele>
        <time>2020-02-08T15:07:56Z</time>
      </trkpt>
      <trkpt lat="42.70976" lon="1.63659">
        <ele>1843.5</ele>
        <time>2020-02-08T15:07:57Z</time>
      </trkpt>
      <trkpt lat="42.70976" lon="1.63659">
        <ele>1843.5</ele>
        <time>2020-02-08T15:07:58Z</time>
      </trkpt>
      <trkpt lat="42.70976" lon="1.63659">
        <ele>1843.5</ele>
        <time>2020-02-08T15:07:59Z</time>
      </trkpt>
      <trkpt lat="42.70976" lon="1.63659">
        <ele>1843.5</ele>
        <time>2020-02-08T15:08:00Z</time>
      </trkpt>
      <trkpt lat="42.70976" lon="1.63659">
        <ele>1843.5</ele>
        <time>2020-02-08T15:08:01Z</time>
      </trkpt>
      <trkpt lat="42.70974" lon="1.6366">
        <ele>1843</ele>
        <time>2020-02-08T15:08:02Z</time>
      </trkpt>
      <trkpt lat="42.70974" lon="1.6366">
        <ele>1843</ele>
        <time>2020-02-08T15:08:03Z</time>
      </trkpt>
      <trkpt lat="42.70974" lon="1.6366">
        <ele>1843</ele>
        <time>2020-02-08T15:08:04Z</time>
      </trkpt>
      <trkpt lat="42.70972" lon="1.6366">
        <ele>1843</ele>
        <time>2020-02-08T15:08:05Z</time>
      </trkpt>
      <trkpt lat="42.70972" lon="1.6366">
        <ele>1843</ele>
        <time>2020-02-08T15:08:06Z</time>
      </trkpt>
      <trkpt lat="42.70972" lon="1.6366">
        <ele>1843</ele>
        <time>2020-02-08T15:08:07Z</time>
      </trkpt>
      <trkpt lat="42.70969" lon="1.6366">
        <ele>1842.5</ele>
        <time>2020-02-08T15:08:08Z</time>
      </trkpt>
      <trkpt lat="42.70968" lon="1.6366">
        <ele>1841.9</ele>
        <time>2020-02-08T15:08:09Z</time>
      </trkpt>
      <trkpt lat="42.70967" lon="1.6366">
        <ele>1841.9</ele>
        <time>2020-02-08T15:08:10Z</time>
      </trkpt>
      <trkpt lat="42.70967" lon="1.6366">
        <ele>1841.9</ele>
        <time>2020-02-08T15:08:11Z</time>
      </trkpt>
      <trkpt lat="42.70966" lon="1.6366">
        <ele>1841.9</ele>
        <time>2020-02-08T15:08:12Z</time>
      </trkpt>
      <trkpt lat="42.70965" lon="1.6366">
        <ele>1841.3</ele>
        <time>2020-02-08T15:08:13Z</time>
      </trkpt>
      <trkpt lat="42.70964" lon="1.6366">
        <ele>1841.3</ele>
        <time>2020-02-08T15:08:14Z</time>
      </trkpt>
      <trkpt lat="42.70963" lon="1.6366">
        <ele>1841.3</ele>
        <time>2020-02-08T15:08:15Z</time>
      </trkpt>
      <trkpt lat="42.70962" lon="1.6366">
        <ele>1840.8</ele>
        <time>2020-02-08T15:08:16Z</time>
      </trkpt>
      <trkpt lat="42.70961" lon="1.6366">
        <ele>1840.8</ele>
        <time>2020-02-08T15:08:17Z</time>
      </trkpt>
      <trkpt lat="42.70959" lon="1.6366">
        <ele>1840.8</ele>
        <time>2020-02-08T15:08:18Z</time>
      </trkpt>
      <trkpt lat="42.70959" lon="1.6366">
        <ele>1840.2</ele>
        <time>2020-02-08T15:08:19Z</time>
      </trkpt>
      <trkpt lat="42.70958" lon="1.6366">
        <ele>1840.2</ele>
        <time>2020-02-08T15:08:20Z</time>
      </trkpt>
      <trkpt lat="42.70957" lon="1.63659">
        <ele>1840.2</ele>
        <time>2020-02-08T15:08:21Z</time>
      </trkpt>
      <trkpt lat="42.70957" lon="1.63659">
        <ele>1840.2</ele>
        <time>2020-02-08T15:08:22Z</time>
      </trkpt>
      <trkpt lat="42.70956" lon="1.63659">
        <ele>1839.7</ele>
        <time>2020-02-08T15:08:23Z</time>
      </trkpt>
      <trkpt lat="42.70955" lon="1.63658">
        <ele>1839.7</ele>
        <time>2020-02-08T15:08:24Z</time>
      </trkpt>
      <trkpt lat="42.70955" lon="1.63658">
        <ele>1839.7</ele>
        <time>2020-02-08T15:08:25Z</time>
      </trkpt>
      <trkpt lat="42.70954" lon="1.63658">
        <ele>1839.7</ele>
        <time>2020-02-08T15:08:26Z</time>
      </trkpt>
      <trkpt lat="42.70953" lon="1.63658">
        <ele>1839.9</ele>
        <time>2020-02-08T15:08:27Z</time>
      </trkpt>
      <trkpt lat="42.70951" lon="1.63655">
        <ele>1839.3</ele>
        <time>2020-02-08T15:08:28Z</time>
      </trkpt>
      <trkpt lat="42.7095" lon="1.63655">
        <ele>1839.3</ele>
        <time>2020-02-08T15:08:29Z</time>
      </trkpt>
      <trkpt lat="42.7095" lon="1.63654">
        <ele>1838.6</ele>
        <time>2020-02-08T15:08:30Z</time>
      </trkpt>
      <trkpt lat="42.70949" lon="1.63653">
        <ele>1838.8</ele>
        <time>2020-02-08T15:08:31Z</time>
      </trkpt>
      <trkpt lat="42.70948" lon="1.63653">
        <ele>1838.8</ele>
        <time>2020-02-08T15:08:32Z</time>
      </trkpt>
      <trkpt lat="42.70948" lon="1.63652">
        <ele>1838.8</ele>
        <time>2020-02-08T15:08:33Z</time>
      </trkpt>
      <trkpt lat="42.70947" lon="1.63651">
        <ele>1838.8</ele>
        <time>2020-02-08T15:08:34Z</time>
      </trkpt>
      <trkpt lat="42.70946" lon="1.63651">
        <ele>1838.1</ele>
        <time>2020-02-08T15:08:35Z</time>
      </trkpt>
      <trkpt lat="42.70946" lon="1.6365">
        <ele>1838.1</ele>
        <time>2020-02-08T15:08:36Z</time>
      </trkpt>
      <trkpt lat="42.70945" lon="1.63649">
        <ele>1838.1</ele>
        <time>2020-02-08T15:08:37Z</time>
      </trkpt>
      <trkpt lat="42.70944" lon="1.63649">
        <ele>1838.3</ele>
        <time>2020-02-08T15:08:38Z</time>
      </trkpt>
      <trkpt lat="42.70944" lon="1.63648">
        <ele>1838.3</ele>
        <time>2020-02-08T15:08:39Z</time>
      </trkpt>
      <trkpt lat="42.70943" lon="1.63647">
        <ele>1837.6</ele>
        <time>2020-02-08T15:08:40Z</time>
      </trkpt>
      <trkpt lat="42.70943" lon="1.63647">
        <ele>1837.6</ele>
        <time>2020-02-08T15:08:41Z</time>
      </trkpt>
      <trkpt lat="42.70942" lon="1.63646">
        <ele>1837.6</ele>
        <time>2020-02-08T15:08:42Z</time>
      </trkpt>
      <trkpt lat="42.70942" lon="1.63646">
        <ele>1837.6</ele>
        <time>2020-02-08T15:08:43Z</time>
      </trkpt>
      <trkpt lat="42.70941" lon="1.63645">
        <ele>1837.6</ele>
        <time>2020-02-08T15:08:44Z</time>
      </trkpt>
      <trkpt lat="42.70941" lon="1.63644">
        <ele>1837.8</ele>
        <time>2020-02-08T15:08:45Z</time>
      </trkpt>
      <trkpt lat="42.7094" lon="1.63644">
        <ele>1837</ele>
        <time>2020-02-08T15:08:46Z</time>
      </trkpt>
      <trkpt lat="42.7094" lon="1.63643">
        <ele>1837</ele>
        <time>2020-02-08T15:08:47Z</time>
      </trkpt>
      <trkpt lat="42.70939" lon="1.63643">
        <ele>1837</ele>
        <time>2020-02-08T15:08:48Z</time>
      </trkpt>
      <trkpt lat="42.70939" lon="1.63642">
        <ele>1837</ele>
        <time>2020-02-08T15:08:49Z</time>
      </trkpt>
      <trkpt lat="42.70938" lon="1.63642">
        <ele>1837</ele>
        <time>2020-02-08T15:08:50Z</time>
      </trkpt>
      <trkpt lat="42.70937" lon="1.63642">
        <ele>1837</ele>
        <time>2020-02-08T15:08:51Z</time>
      </trkpt>
      <trkpt lat="42.70937" lon="1.63641">
        <ele>1836.3</ele>
        <time>2020-02-08T15:08:52Z</time>
      </trkpt>
      <trkpt lat="42.70936" lon="1.63641">
        <ele>1836.3</ele>
        <time>2020-02-08T15:08:53Z</time>
      </trkpt>
      <trkpt lat="42.70936" lon="1.63641">
        <ele>1836.3</ele>
        <time>2020-02-08T15:08:54Z</time>
      </trkpt>
      <trkpt lat="42.70935" lon="1.6364">
        <ele>1836.5</ele>
        <time>2020-02-08T15:08:55Z</time>
      </trkpt>
      <trkpt lat="42.70935" lon="1.6364">
        <ele>1836.5</ele>
        <time>2020-02-08T15:08:56Z</time>
      </trkpt>
      <trkpt lat="42.70934" lon="1.6364">
        <ele>1835.8</ele>
        <time>2020-02-08T15:08:57Z</time>
      </trkpt>
      <trkpt lat="42.70933" lon="1.63639">
        <ele>1835.8</ele>
        <time>2020-02-08T15:08:58Z</time>
      </trkpt>
      <trkpt lat="42.70932" lon="1.63639">
        <ele>1835.8</ele>
        <time>2020-02-08T15:08:59Z</time>
      </trkpt>
      <trkpt lat="42.70932" lon="1.63638">
        <ele>1835.8</ele>
        <time>2020-02-08T15:09:00Z</time>
      </trkpt>
      <trkpt lat="42.70931" lon="1.63637">
        <ele>1835.2</ele>
        <time>2020-02-08T15:09:01Z</time>
      </trkpt>
      <trkpt lat="42.7093" lon="1.63637">
        <ele>1835.2</ele>
        <time>2020-02-08T15:09:02Z</time>
      </trkpt>
      <trkpt lat="42.70929" lon="1.63636">
        <ele>1835.3</ele>
        <time>2020-02-08T15:09:03Z</time>
      </trkpt>
      <trkpt lat="42.70928" lon="1.63635">
        <ele>1835.3</ele>
        <time>2020-02-08T15:09:04Z</time>
      </trkpt>
      <trkpt lat="42.70928" lon="1.63635">
        <ele>1834.6</ele>
        <time>2020-02-08T15:09:05Z</time>
      </trkpt>
      <trkpt lat="42.70927" lon="1.63634">
        <ele>1834.6</ele>
        <time>2020-02-08T15:09:06Z</time>
      </trkpt>
      <trkpt lat="42.70926" lon="1.63634">
        <ele>1834.6</ele>
        <time>2020-02-08T15:09:07Z</time>
      </trkpt>
      <trkpt lat="42.70925" lon="1.63633">
        <ele>1834.6</ele>
        <time>2020-02-08T15:09:08Z</time>
      </trkpt>
      <trkpt lat="42.70925" lon="1.63633">
        <ele>1834.6</ele>
        <time>2020-02-08T15:09:09Z</time>
      </trkpt>
      <trkpt lat="42.70924" lon="1.63633">
        <ele>1833.8</ele>
        <time>2020-02-08T15:09:10Z</time>
      </trkpt>
      <trkpt lat="42.70923" lon="1.63632">
        <ele>1833.8</ele>
        <time>2020-02-08T15:09:11Z</time>
      </trkpt>
      <trkpt lat="42.70923" lon="1.63632">
        <ele>1833.9</ele>
        <time>2020-02-08T15:09:12Z</time>
      </trkpt>
      <trkpt lat="42.70922" lon="1.63632">
        <ele>1833.9</ele>
        <time>2020-02-08T15:09:13Z</time>
      </trkpt>
      <trkpt lat="42.70921" lon="1.63631">
        <ele>1833.1</ele>
        <time>2020-02-08T15:09:14Z</time>
      </trkpt>
      <trkpt lat="42.70921" lon="1.63631">
        <ele>1833.1</ele>
        <time>2020-02-08T15:09:15Z</time>
      </trkpt>
      <trkpt lat="42.7092" lon="1.6363">
        <ele>1833.1</ele>
        <time>2020-02-08T15:09:16Z</time>
      </trkpt>
      <trkpt lat="42.70919" lon="1.6363">
        <ele>1833.1</ele>
        <time>2020-02-08T15:09:17Z</time>
      </trkpt>
      <trkpt lat="42.70919" lon="1.6363">
        <ele>1833.1</ele>
        <time>2020-02-08T15:09:18Z</time>
      </trkpt>
      <trkpt lat="42.70917" lon="1.6363">
        <ele>1832.1</ele>
        <time>2020-02-08T15:09:19Z</time>
      </trkpt>
      <trkpt lat="42.70917" lon="1.6363">
        <ele>1832.1</ele>
        <time>2020-02-08T15:09:20Z</time>
      </trkpt>
      <trkpt lat="42.70917" lon="1.6363">
        <ele>1832.1</ele>
        <time>2020-02-08T15:09:21Z</time>
      </trkpt>
      <trkpt lat="42.70917" lon="1.6363">
        <ele>1832.1</ele>
        <time>2020-02-08T15:09:22Z</time>
      </trkpt>
      <trkpt lat="42.70917" lon="1.6363">
        <ele>1832.1</ele>
        <time>2020-02-08T15:09:23Z</time>
      </trkpt>
      <trkpt lat="42.70917" lon="1.6363">
        <ele>1832.1</ele>
        <time>2020-02-08T15:09:24Z</time>
      </trkpt>
      <trkpt lat="42.70917" lon="1.6363">
        <ele>1832.1</ele>
        <time>2020-02-08T15:09:25Z</time>
      </trkpt>
      <trkpt lat="42.70917" lon="1.6363">
        <ele>1832.1</ele>
        <time>2020-02-08T15:09:26Z</time>
      </trkpt>
      <trkpt lat="42.70917" lon="1.6363">
        <ele>1832.1</ele>
        <time>2020-02-08T15:09:27Z</time>
      </trkpt>
      <trkpt lat="42.70917" lon="1.6363">
        <ele>1832.1</ele>
        <time>2020-02-08T15:09:28Z</time>
      </trkpt>
      <trkpt lat="42.70917" lon="1.6363">
        <ele>1832.1</ele>
        <time>2020-02-08T15:09:29Z</time>
      </trkpt>
      <trkpt lat="42.70917" lon="1.6363">
        <ele>1832.1</ele>
        <time>2020-02-08T15:09:30Z</time>
      </trkpt>
      <trkpt lat="42.70917" lon="1.6363">
        <ele>1832.1</ele>
        <time>2020-02-08T15:09:31Z</time>
      </trkpt>
      <trkpt lat="42.70917" lon="1.6363">
        <ele>1832.1</ele>
        <time>2020-02-08T15:09:32Z</time>
      </trkpt>
      <trkpt lat="42.70917" lon="1.6363">
        <ele>1832.1</ele>
        <time>2020-02-08T15:09:33Z</time>
      </trkpt>
      <trkpt lat="42.70917" lon="1.6363">
        <ele>1832.1</ele>
        <time>2020-02-08T15:09:34Z</time>
      </trkpt>
      <trkpt lat="42.70917" lon="1.6363">
        <ele>1832.1</ele>
        <time>2020-02-08T15:09:35Z</time>
      </trkpt>
      <trkpt lat="42.70917" lon="1.6363">
        <ele>1832.1</ele>
        <time>2020-02-08T15:09:36Z</time>
      </trkpt>
      <trkpt lat="42.70917" lon="1.6363">
        <ele>1832.1</ele>
        <time>2020-02-08T15:09:37Z</time>
      </trkpt>
      <trkpt lat="42.70917" lon="1.6363">
        <ele>1832.1</ele>
        <time>2020-02-08T15:09:38Z</time>
      </trkpt>
      <trkpt lat="42.70917" lon="1.6363">
        <ele>1832.1</ele>
        <time>2020-02-08T15:09:39Z</time>
      </trkpt>
      <trkpt lat="42.70917" lon="1.6363">
        <ele>1832.1</ele>
        <time>2020-02-08T15:09:40Z</time>
      </trkpt>
      <trkpt lat="42.70917" lon="1.6363">
        <ele>1832.1</ele>
        <time>2020-02-08T15:09:41Z</time>
      </trkpt>
      <trkpt lat="42.70917" lon="1.6363">
        <ele>1832.1</ele>
        <time>2020-02-08T15:09:42Z</time>
      </trkpt>
      <trkpt lat="42.70917" lon="1.6363">
        <ele>1832.1</ele>
        <time>2020-02-08T15:09:43Z</time>
      </trkpt>
      <trkpt lat="42.70917" lon="1.6363">
        <ele>1832.1</ele>
        <time>2020-02-08T15:09:44Z</time>
      </trkpt>
      <trkpt lat="42.70916" lon="1.63628">
        <ele>1832.1</ele>
        <time>2020-02-08T15:09:45Z</time>
      </trkpt>
      <trkpt lat="42.70916" lon="1.63628">
        <ele>1832.1</ele>
        <time>2020-02-08T15:09:46Z</time>
      </trkpt>
      <trkpt lat="42.70916" lon="1.63628">
        <ele>1832.1</ele>
        <time>2020-02-08T15:09:47Z</time>
      </trkpt>
      <trkpt lat="42.70916" lon="1.63628">
        <ele>1832.1</ele>
        <time>2020-02-08T15:09:48Z</time>
      </trkpt>
      <trkpt lat="42.70916" lon="1.63628">
        <ele>1832.1</ele>
        <time>2020-02-08T15:09:49Z</time>
      </trkpt>
      <trkpt lat="42.70914" lon="1.63627">
        <ele>1831.3</ele>
        <time>2020-02-08T15:09:50Z</time>
      </trkpt>
      <trkpt lat="42.70914" lon="1.63627">
        <ele>1831.3</ele>
        <time>2020-02-08T15:09:51Z</time>
      </trkpt>
      <trkpt lat="42.70914" lon="1.63627">
        <ele>1831.3</ele>
        <time>2020-02-08T15:09:52Z</time>
      </trkpt>
      <trkpt lat="42.70914" lon="1.63627">
        <ele>1831.3</ele>
        <time>2020-02-08T15:09:53Z</time>
      </trkpt>
      <trkpt lat="42.70914" lon="1.63627">
        <ele>1831.3</ele>
        <time>2020-02-08T15:09:54Z</time>
      </trkpt>
      <trkpt lat="42.70914" lon="1.63627">
        <ele>1831.3</ele>
        <time>2020-02-08T15:09:55Z</time>
      </trkpt>
      <trkpt lat="42.70914" lon="1.63627">
        <ele>1831.3</ele>
        <time>2020-02-08T15:09:56Z</time>
      </trkpt>
      <trkpt lat="42.70914" lon="1.63627">
        <ele>1831.3</ele>
        <time>2020-02-08T15:09:57Z</time>
      </trkpt>
      <trkpt lat="42.70913" lon="1.63627">
        <ele>1831.3</ele>
        <time>2020-02-08T15:09:58Z</time>
      </trkpt>
      <trkpt lat="42.70913" lon="1.63626">
        <ele>1831.3</ele>
        <time>2020-02-08T15:09:59Z</time>
      </trkpt>
      <trkpt lat="42.70913" lon="1.63626">
        <ele>1831.3</ele>
        <time>2020-02-08T15:10:00Z</time>
      </trkpt>
      <trkpt lat="42.70912" lon="1.63626">
        <ele>1831.3</ele>
        <time>2020-02-08T15:10:01Z</time>
      </trkpt>
      <trkpt lat="42.70912" lon="1.63625">
        <ele>1830.4</ele>
        <time>2020-02-08T15:10:02Z</time>
      </trkpt>
      <trkpt lat="42.70911" lon="1.63625">
        <ele>1830.4</ele>
        <time>2020-02-08T15:10:03Z</time>
      </trkpt>
      <trkpt lat="42.70911" lon="1.63625">
        <ele>1830.4</ele>
        <time>2020-02-08T15:10:04Z</time>
      </trkpt>
      <trkpt lat="42.70911" lon="1.63624">
        <ele>1830.4</ele>
        <time>2020-02-08T15:10:05Z</time>
      </trkpt>
      <trkpt lat="42.7091" lon="1.63624">
        <ele>1830.4</ele>
        <time>2020-02-08T15:10:06Z</time>
      </trkpt>
      <trkpt lat="42.7091" lon="1.63624">
        <ele>1830.4</ele>
        <time>2020-02-08T15:10:07Z</time>
      </trkpt>
      <trkpt lat="42.70908" lon="1.63622">
        <ele>1829.5</ele>
        <time>2020-02-08T15:10:08Z</time>
      </trkpt>
      <trkpt lat="42.70908" lon="1.63622">
        <ele>1829.5</ele>
        <time>2020-02-08T15:10:09Z</time>
      </trkpt>
      <trkpt lat="42.70907" lon="1.63622">
        <ele>1829.5</ele>
        <time>2020-02-08T15:10:10Z</time>
      </trkpt>
      <trkpt lat="42.70907" lon="1.63621">
        <ele>1829.5</ele>
        <time>2020-02-08T15:10:11Z</time>
      </trkpt>
      <trkpt lat="42.70906" lon="1.63621">
        <ele>1829.5</ele>
        <time>2020-02-08T15:10:12Z</time>
      </trkpt>
      <trkpt lat="42.70906" lon="1.63621">
        <ele>1829.5</ele>
        <time>2020-02-08T15:10:13Z</time>
      </trkpt>
      <trkpt lat="42.70906" lon="1.63621">
        <ele>1828.7</ele>
        <time>2020-02-08T15:10:14Z</time>
      </trkpt>
      <trkpt lat="42.70905" lon="1.6362">
        <ele>1828.7</ele>
        <time>2020-02-08T15:10:15Z</time>
      </trkpt>
      <trkpt lat="42.70905" lon="1.6362">
        <ele>1828.7</ele>
        <time>2020-02-08T15:10:16Z</time>
      </trkpt>
      <trkpt lat="42.70905" lon="1.6362">
        <ele>1828.7</ele>
        <time>2020-02-08T15:10:17Z</time>
      </trkpt>
      <trkpt lat="42.70905" lon="1.6362">
        <ele>1828.7</ele>
        <time>2020-02-08T15:10:18Z</time>
      </trkpt>
      <trkpt lat="42.70905" lon="1.6362">
        <ele>1828.7</ele>
        <time>2020-02-08T15:10:19Z</time>
      </trkpt>
      <trkpt lat="42.70905" lon="1.6362">
        <ele>1828.7</ele>
        <time>2020-02-08T15:10:20Z</time>
      </trkpt>
      <trkpt lat="42.70903" lon="1.63618">
        <ele>1828.7</ele>
        <time>2020-02-08T15:10:21Z</time>
      </trkpt>
      <trkpt lat="42.70903" lon="1.63618">
        <ele>1828.7</ele>
        <time>2020-02-08T15:10:22Z</time>
      </trkpt>
      <trkpt lat="42.70903" lon="1.63618">
        <ele>1828.7</ele>
        <time>2020-02-08T15:10:23Z</time>
      </trkpt>
      <trkpt lat="42.70903" lon="1.63618">
        <ele>1828.7</ele>
        <time>2020-02-08T15:10:24Z</time>
      </trkpt>
      <trkpt lat="42.70903" lon="1.63618">
        <ele>1828.7</ele>
        <time>2020-02-08T15:10:25Z</time>
      </trkpt>
      <trkpt lat="42.70903" lon="1.63618">
        <ele>1828.7</ele>
        <time>2020-02-08T15:10:26Z</time>
      </trkpt>
      <trkpt lat="42.70903" lon="1.63618">
        <ele>1828.7</ele>
        <time>2020-02-08T15:10:27Z</time>
      </trkpt>
      <trkpt lat="42.70903" lon="1.63618">
        <ele>1828.7</ele>
        <time>2020-02-08T15:10:28Z</time>
      </trkpt>
      <trkpt lat="42.70903" lon="1.63618">
        <ele>1828.7</ele>
        <time>2020-02-08T15:10:29Z</time>
      </trkpt>
      <trkpt lat="42.70902" lon="1.63618">
        <ele>1827.9</ele>
        <time>2020-02-08T15:10:30Z</time>
      </trkpt>
      <trkpt lat="42.70902" lon="1.63618">
        <ele>1827.9</ele>
        <time>2020-02-08T15:10:31Z</time>
      </trkpt>
      <trkpt lat="42.70902" lon="1.63618">
        <ele>1827.9</ele>
        <time>2020-02-08T15:10:32Z</time>
      </trkpt>
      <trkpt lat="42.70902" lon="1.63618">
        <ele>1827.9</ele>
        <time>2020-02-08T15:10:33Z</time>
      </trkpt>
      <trkpt lat="42.70902" lon="1.63618">
        <ele>1827.9</ele>
        <time>2020-02-08T15:10:34Z</time>
      </trkpt>
      <trkpt lat="42.70902" lon="1.63618">
        <ele>1827.9</ele>
        <time>2020-02-08T15:10:35Z</time>
      </trkpt>
      <trkpt lat="42.70902" lon="1.63618">
        <ele>1827.9</ele>
        <time>2020-02-08T15:10:36Z</time>
      </trkpt>
      <trkpt lat="42.70901" lon="1.63618">
        <ele>1827.9</ele>
        <time>2020-02-08T15:10:37Z</time>
      </trkpt>
      <trkpt lat="42.70901" lon="1.63618">
        <ele>1827.9</ele>
        <time>2020-02-08T15:10:38Z</time>
      </trkpt>
      <trkpt lat="42.70901" lon="1.63618">
        <ele>1827.9</ele>
        <time>2020-02-08T15:10:39Z</time>
      </trkpt>
      <trkpt lat="42.70901" lon="1.63618">
        <ele>1827.9</ele>
        <time>2020-02-08T15:10:40Z</time>
      </trkpt>
      <trkpt lat="42.70901" lon="1.63618">
        <ele>1827.9</ele>
        <time>2020-02-08T15:10:41Z</time>
      </trkpt>
      <trkpt lat="42.70901" lon="1.63618">
        <ele>1827.9</ele>
        <time>2020-02-08T15:10:42Z</time>
      </trkpt>
      <trkpt lat="42.70901" lon="1.63618">
        <ele>1827.9</ele>
        <time>2020-02-08T15:10:43Z</time>
      </trkpt>
      <trkpt lat="42.709" lon="1.63618">
        <ele>1827.9</ele>
        <time>2020-02-08T15:10:44Z</time>
      </trkpt>
      <trkpt lat="42.709" lon="1.63618">
        <ele>1827.9</ele>
        <time>2020-02-08T15:10:45Z</time>
      </trkpt>
      <trkpt lat="42.709" lon="1.63618">
        <ele>1827.9</ele>
        <time>2020-02-08T15:10:46Z</time>
      </trkpt>
      <trkpt lat="42.709" lon="1.63618">
        <ele>1827.9</ele>
        <time>2020-02-08T15:10:47Z</time>
      </trkpt>
      <trkpt lat="42.709" lon="1.63618">
        <ele>1827.9</ele>
        <time>2020-02-08T15:10:48Z</time>
      </trkpt>
      <trkpt lat="42.709" lon="1.63618">
        <ele>1827.9</ele>
        <time>2020-02-08T15:10:49Z</time>
      </trkpt>
      <trkpt lat="42.70899" lon="1.63618">
        <ele>1827.9</ele>
        <time>2020-02-08T15:10:50Z</time>
      </trkpt>
      <trkpt lat="42.70899" lon="1.63618">
        <ele>1827</ele>
        <time>2020-02-08T15:10:51Z</time>
      </trkpt>
      <trkpt lat="42.70899" lon="1.63618">
        <ele>1827</ele>
        <time>2020-02-08T15:10:52Z</time>
      </trkpt>
      <trkpt lat="42.70899" lon="1.63618">
        <ele>1827</ele>
        <time>2020-02-08T15:10:53Z</time>
      </trkpt>
      <trkpt lat="42.70899" lon="1.63618">
        <ele>1827</ele>
        <time>2020-02-08T15:10:54Z</time>
      </trkpt>
      <trkpt lat="42.70899" lon="1.63618">
        <ele>1827</ele>
        <time>2020-02-08T15:10:55Z</time>
      </trkpt>
      <trkpt lat="42.70899" lon="1.63618">
        <ele>1827</ele>
        <time>2020-02-08T15:10:56Z</time>
      </trkpt>
      <trkpt lat="42.70898" lon="1.63618">
        <ele>1827</ele>
        <time>2020-02-08T15:10:57Z</time>
      </trkpt>
      <trkpt lat="42.70898" lon="1.63618">
        <ele>1827</ele>
        <time>2020-02-08T15:10:58Z</time>
      </trkpt>
      <trkpt lat="42.70898" lon="1.63618">
        <ele>1827</ele>
        <time>2020-02-08T15:10:59Z</time>
      </trkpt>
      <trkpt lat="42.70898" lon="1.63618">
        <ele>1827</ele>
        <time>2020-02-08T15:11:00Z</time>
      </trkpt>
      <trkpt lat="42.70898" lon="1.63618">
        <ele>1827</ele>
        <time>2020-02-08T15:11:01Z</time>
      </trkpt>
      <trkpt lat="42.70898" lon="1.63618">
        <ele>1827</ele>
        <time>2020-02-08T15:11:02Z</time>
      </trkpt>
      <trkpt lat="42.70898" lon="1.63618">
        <ele>1827</ele>
        <time>2020-02-08T15:11:03Z</time>
      </trkpt>
      <trkpt lat="42.70897" lon="1.63619">
        <ele>1827</ele>
        <time>2020-02-08T15:11:04Z</time>
      </trkpt>
      <trkpt lat="42.70897" lon="1.63619">
        <ele>1827</ele>
        <time>2020-02-08T15:11:05Z</time>
      </trkpt>
      <trkpt lat="42.70897" lon="1.63619">
        <ele>1827</ele>
        <time>2020-02-08T15:11:06Z</time>
      </trkpt>
      <trkpt lat="42.70897" lon="1.63619">
        <ele>1827</ele>
        <time>2020-02-08T15:11:07Z</time>
      </trkpt>
      <trkpt lat="42.70897" lon="1.63619">
        <ele>1827</ele>
        <time>2020-02-08T15:11:08Z</time>
      </trkpt>
      <trkpt lat="42.70897" lon="1.63619">
        <ele>1827</ele>
        <time>2020-02-08T15:11:09Z</time>
      </trkpt>
      <trkpt lat="42.70897" lon="1.63619">
        <ele>1827</ele>
        <time>2020-02-08T15:11:10Z</time>
      </trkpt>
      <trkpt lat="42.70896" lon="1.63619">
        <ele>1827</ele>
        <time>2020-02-08T15:11:11Z</time>
      </trkpt>
      <trkpt lat="42.70896" lon="1.63619">
        <ele>1827</ele>
        <time>2020-02-08T15:11:12Z</time>
      </trkpt>
      <trkpt lat="42.70896" lon="1.63619">
        <ele>1826.1</ele>
        <time>2020-02-08T15:11:13Z</time>
      </trkpt>
      <trkpt lat="42.70896" lon="1.63619">
        <ele>1826.1</ele>
        <time>2020-02-08T15:11:14Z</time>
      </trkpt>
      <trkpt lat="42.70896" lon="1.63619">
        <ele>1826.1</ele>
        <time>2020-02-08T15:11:15Z</time>
      </trkpt>
      <trkpt lat="42.70896" lon="1.63619">
        <ele>1826.1</ele>
        <time>2020-02-08T15:11:16Z</time>
      </trkpt>
      <trkpt lat="42.70896" lon="1.63619">
        <ele>1826.1</ele>
        <time>2020-02-08T15:11:17Z</time>
      </trkpt>
      <trkpt lat="42.70895" lon="1.63619">
        <ele>1826.1</ele>
        <time>2020-02-08T15:11:18Z</time>
      </trkpt>
      <trkpt lat="42.70895" lon="1.63619">
        <ele>1826.1</ele>
        <time>2020-02-08T15:11:19Z</time>
      </trkpt>
      <trkpt lat="42.70895" lon="1.63619">
        <ele>1826.1</ele>
        <time>2020-02-08T15:11:20Z</time>
      </trkpt>
      <trkpt lat="42.70895" lon="1.63619">
        <ele>1826.1</ele>
        <time>2020-02-08T15:11:21Z</time>
      </trkpt>
      <trkpt lat="42.70895" lon="1.63619">
        <ele>1826.1</ele>
        <time>2020-02-08T15:11:22Z</time>
      </trkpt>
      <trkpt lat="42.70895" lon="1.63619">
        <ele>1826.1</ele>
        <time>2020-02-08T15:11:23Z</time>
      </trkpt>
      <trkpt lat="42.70894" lon="1.63619">
        <ele>1826.1</ele>
        <time>2020-02-08T15:11:24Z</time>
      </trkpt>
      <trkpt lat="42.70894" lon="1.63619">
        <ele>1826.1</ele>
        <time>2020-02-08T15:11:25Z</time>
      </trkpt>
      <trkpt lat="42.70894" lon="1.63619">
        <ele>1826.1</ele>
        <time>2020-02-08T15:11:26Z</time>
      </trkpt>
      <trkpt lat="42.70894" lon="1.63619">
        <ele>1826.1</ele>
        <time>2020-02-08T15:11:27Z</time>
      </trkpt>
      <trkpt lat="42.70893" lon="1.63619">
        <ele>1825.2</ele>
        <time>2020-02-08T15:11:28Z</time>
      </trkpt>
      <trkpt lat="42.70892" lon="1.63619">
        <ele>1825.2</ele>
        <time>2020-02-08T15:11:29Z</time>
      </trkpt>
      <trkpt lat="42.70891" lon="1.63619">
        <ele>1825.2</ele>
        <time>2020-02-08T15:11:30Z</time>
      </trkpt>
      <trkpt lat="42.7089" lon="1.6362">
        <ele>1825.2</ele>
        <time>2020-02-08T15:11:31Z</time>
      </trkpt>
      <trkpt lat="42.70889" lon="1.6362">
        <ele>1824.2</ele>
        <time>2020-02-08T15:11:32Z</time>
      </trkpt>
      <trkpt lat="42.70888" lon="1.6362">
        <ele>1824.2</ele>
        <time>2020-02-08T15:11:33Z</time>
      </trkpt>
      <trkpt lat="42.70887" lon="1.6362">
        <ele>1824.2</ele>
        <time>2020-02-08T15:11:34Z</time>
      </trkpt>
      <trkpt lat="42.70886" lon="1.6362">
        <ele>1823.3</ele>
        <time>2020-02-08T15:11:35Z</time>
      </trkpt>
      <trkpt lat="42.70885" lon="1.6362">
        <ele>1823.3</ele>
        <time>2020-02-08T15:11:36Z</time>
      </trkpt>
      <trkpt lat="42.70884" lon="1.6362">
        <ele>1823.3</ele>
        <time>2020-02-08T15:11:37Z</time>
      </trkpt>
      <trkpt lat="42.70884" lon="1.63621">
        <ele>1823.3</ele>
        <time>2020-02-08T15:11:38Z</time>
      </trkpt>
      <trkpt lat="42.70883" lon="1.63621">
        <ele>1822.4</ele>
        <time>2020-02-08T15:11:39Z</time>
      </trkpt>
      <trkpt lat="42.70883" lon="1.63621">
        <ele>1822.4</ele>
        <time>2020-02-08T15:11:40Z</time>
      </trkpt>
      <trkpt lat="42.70882" lon="1.63622">
        <ele>1822.4</ele>
        <time>2020-02-08T15:11:41Z</time>
      </trkpt>
      <trkpt lat="42.70882" lon="1.63622">
        <ele>1822.4</ele>
        <time>2020-02-08T15:11:42Z</time>
      </trkpt>
      <trkpt lat="42.70881" lon="1.63622">
        <ele>1822.4</ele>
        <time>2020-02-08T15:11:43Z</time>
      </trkpt>
      <trkpt lat="42.7088" lon="1.63622">
        <ele>1822.4</ele>
        <time>2020-02-08T15:11:44Z</time>
      </trkpt>
      <trkpt lat="42.7088" lon="1.63623">
        <ele>1821.5</ele>
        <time>2020-02-08T15:11:45Z</time>
      </trkpt>
      <trkpt lat="42.70879" lon="1.63623">
        <ele>1821.5</ele>
        <time>2020-02-08T15:11:46Z</time>
      </trkpt>
      <trkpt lat="42.70879" lon="1.63623">
        <ele>1821.5</ele>
        <time>2020-02-08T15:11:47Z</time>
      </trkpt>
      <trkpt lat="42.70879" lon="1.63623">
        <ele>1821.5</ele>
        <time>2020-02-08T15:11:48Z</time>
      </trkpt>
      <trkpt lat="42.70879" lon="1.63623">
        <ele>1821.5</ele>
        <time>2020-02-08T15:11:49Z</time>
      </trkpt>
      <trkpt lat="42.70879" lon="1.63623">
        <ele>1821.5</ele>
        <time>2020-02-08T15:11:50Z</time>
      </trkpt>
      <trkpt lat="42.70879" lon="1.63623">
        <ele>1821.5</ele>
        <time>2020-02-08T15:11:51Z</time>
      </trkpt>
      <trkpt lat="42.70879" lon="1.63623">
        <ele>1821.5</ele>
        <time>2020-02-08T15:11:52Z</time>
      </trkpt>
      <trkpt lat="42.70879" lon="1.63623">
        <ele>1821.5</ele>
        <time>2020-02-08T15:11:53Z</time>
      </trkpt>
      <trkpt lat="42.70879" lon="1.63623">
        <ele>1821.5</ele>
        <time>2020-02-08T15:11:54Z</time>
      </trkpt>
      <trkpt lat="42.70879" lon="1.63623">
        <ele>1821.5</ele>
        <time>2020-02-08T15:11:55Z</time>
      </trkpt>
      <trkpt lat="42.70879" lon="1.63623">
        <ele>1821.5</ele>
        <time>2020-02-08T15:11:56Z</time>
      </trkpt>
      <trkpt lat="42.70879" lon="1.63623">
        <ele>1821.5</ele>
        <time>2020-02-08T15:11:57Z</time>
      </trkpt>
      <trkpt lat="42.70879" lon="1.63623">
        <ele>1821.5</ele>
        <time>2020-02-08T15:11:58Z</time>
      </trkpt>
      <trkpt lat="42.70877" lon="1.63622">
        <ele>1820.6</ele>
        <time>2020-02-08T15:11:59Z</time>
      </trkpt>
      <trkpt lat="42.70877" lon="1.63622">
        <ele>1820.6</ele>
        <time>2020-02-08T15:12:00Z</time>
      </trkpt>
      <trkpt lat="42.70877" lon="1.63622">
        <ele>1820.6</ele>
        <time>2020-02-08T15:12:01Z</time>
      </trkpt>
      <trkpt lat="42.70877" lon="1.63622">
        <ele>1820.6</ele>
        <time>2020-02-08T15:12:02Z</time>
      </trkpt>
      <trkpt lat="42.70877" lon="1.63622">
        <ele>1820.6</ele>
        <time>2020-02-08T15:12:03Z</time>
      </trkpt>
      <trkpt lat="42.70877" lon="1.63622">
        <ele>1820.6</ele>
        <time>2020-02-08T15:12:04Z</time>
      </trkpt>
      <trkpt lat="42.70877" lon="1.63622">
        <ele>1820.6</ele>
        <time>2020-02-08T15:12:05Z</time>
      </trkpt>
      <trkpt lat="42.70877" lon="1.63622">
        <ele>1820.6</ele>
        <time>2020-02-08T15:12:06Z</time>
      </trkpt>
      <trkpt lat="42.70877" lon="1.63622">
        <ele>1820.6</ele>
        <time>2020-02-08T15:12:07Z</time>
      </trkpt>
      <trkpt lat="42.70875" lon="1.63622">
        <ele>1820.6</ele>
        <time>2020-02-08T15:12:08Z</time>
      </trkpt>
      <trkpt lat="42.70875" lon="1.63622">
        <ele>1820.6</ele>
        <time>2020-02-08T15:12:09Z</time>
      </trkpt>
      <trkpt lat="42.70875" lon="1.63622">
        <ele>1820.6</ele>
        <time>2020-02-08T15:12:10Z</time>
      </trkpt>
      <trkpt lat="42.70875" lon="1.63622">
        <ele>1820.6</ele>
        <time>2020-02-08T15:12:11Z</time>
      </trkpt>
      <trkpt lat="42.70875" lon="1.63622">
        <ele>1820.6</ele>
        <time>2020-02-08T15:12:12Z</time>
      </trkpt>
      <trkpt lat="42.70875" lon="1.63622">
        <ele>1820.6</ele>
        <time>2020-02-08T15:12:13Z</time>
      </trkpt>
      <trkpt lat="42.70875" lon="1.63622">
        <ele>1820.6</ele>
        <time>2020-02-08T15:12:14Z</time>
      </trkpt>
      <trkpt lat="42.70875" lon="1.63622">
        <ele>1820.6</ele>
        <time>2020-02-08T15:12:15Z</time>
      </trkpt>
      <trkpt lat="42.70875" lon="1.63622">
        <ele>1820.6</ele>
        <time>2020-02-08T15:12:16Z</time>
      </trkpt>
      <trkpt lat="42.70875" lon="1.63622">
        <ele>1820.6</ele>
        <time>2020-02-08T15:12:17Z</time>
      </trkpt>
      <trkpt lat="42.70873" lon="1.63621">
        <ele>1819.7</ele>
        <time>2020-02-08T15:12:18Z</time>
      </trkpt>
      <trkpt lat="42.70873" lon="1.63621">
        <ele>1819.7</ele>
        <time>2020-02-08T15:12:19Z</time>
      </trkpt>
      <trkpt lat="42.70873" lon="1.63621">
        <ele>1819.7</ele>
        <time>2020-02-08T15:12:20Z</time>
      </trkpt>
      <trkpt lat="42.70873" lon="1.63621">
        <ele>1819.7</ele>
        <time>2020-02-08T15:12:21Z</time>
      </trkpt>
      <trkpt lat="42.70873" lon="1.63621">
        <ele>1819.7</ele>
        <time>2020-02-08T15:12:22Z</time>
      </trkpt>
      <trkpt lat="42.70871" lon="1.63619">
        <ele>1819.7</ele>
        <time>2020-02-08T15:12:23Z</time>
      </trkpt>
      <trkpt lat="42.70871" lon="1.63619">
        <ele>1819.7</ele>
        <time>2020-02-08T15:12:24Z</time>
      </trkpt>
      <trkpt lat="42.70871" lon="1.63619">
        <ele>1819.7</ele>
        <time>2020-02-08T15:12:25Z</time>
      </trkpt>
      <trkpt lat="42.70871" lon="1.63619">
        <ele>1819.7</ele>
        <time>2020-02-08T15:12:26Z</time>
      </trkpt>
      <trkpt lat="42.70871" lon="1.63619">
        <ele>1819.7</ele>
        <time>2020-02-08T15:12:27Z</time>
      </trkpt>
      <trkpt lat="42.70869" lon="1.6362">
        <ele>1818.8</ele>
        <time>2020-02-08T15:12:28Z</time>
      </trkpt>
      <trkpt lat="42.70869" lon="1.6362">
        <ele>1818.8</ele>
        <time>2020-02-08T15:12:29Z</time>
      </trkpt>
      <trkpt lat="42.70868" lon="1.6362">
        <ele>1818.8</ele>
        <time>2020-02-08T15:12:30Z</time>
      </trkpt>
      <trkpt lat="42.70868" lon="1.6362">
        <ele>1818.8</ele>
        <time>2020-02-08T15:12:31Z</time>
      </trkpt>
      <trkpt lat="42.70867" lon="1.6362">
        <ele>1817.8</ele>
        <time>2020-02-08T15:12:32Z</time>
      </trkpt>
      <trkpt lat="42.70867" lon="1.6362">
        <ele>1817.8</ele>
        <time>2020-02-08T15:12:33Z</time>
      </trkpt>
      <trkpt lat="42.70867" lon="1.6362">
        <ele>1817.8</ele>
        <time>2020-02-08T15:12:34Z</time>
      </trkpt>
      <trkpt lat="42.70866" lon="1.6362">
        <ele>1817.8</ele>
        <time>2020-02-08T15:12:35Z</time>
      </trkpt>
      <trkpt lat="42.70866" lon="1.6362">
        <ele>1817.8</ele>
        <time>2020-02-08T15:12:36Z</time>
      </trkpt>
      <trkpt lat="42.70865" lon="1.63621">
        <ele>1817.8</ele>
        <time>2020-02-08T15:12:37Z</time>
      </trkpt>
      <trkpt lat="42.70865" lon="1.63621">
        <ele>1817.8</ele>
        <time>2020-02-08T15:12:38Z</time>
      </trkpt>
      <trkpt lat="42.70865" lon="1.63621">
        <ele>1817.8</ele>
        <time>2020-02-08T15:12:39Z</time>
      </trkpt>
      <trkpt lat="42.70864" lon="1.6362">
        <ele>1816.8</ele>
        <time>2020-02-08T15:12:40Z</time>
      </trkpt>
      <trkpt lat="42.70864" lon="1.6362">
        <ele>1816.8</ele>
        <time>2020-02-08T15:12:41Z</time>
      </trkpt>
      <trkpt lat="42.70864" lon="1.6362">
        <ele>1816.8</ele>
        <time>2020-02-08T15:12:42Z</time>
      </trkpt>
      <trkpt lat="42.70864" lon="1.6362">
        <ele>1816.8</ele>
        <time>2020-02-08T15:12:43Z</time>
      </trkpt>
      <trkpt lat="42.70864" lon="1.6362">
        <ele>1816.8</ele>
        <time>2020-02-08T15:12:44Z</time>
      </trkpt>
      <trkpt lat="42.70862" lon="1.63621">
        <ele>1816.8</ele>
        <time>2020-02-08T15:12:45Z</time>
      </trkpt>
      <trkpt lat="42.70862" lon="1.63621">
        <ele>1816.8</ele>
        <time>2020-02-08T15:12:46Z</time>
      </trkpt>
      <trkpt lat="42.70862" lon="1.63621">
        <ele>1816.8</ele>
        <time>2020-02-08T15:12:47Z</time>
      </trkpt>
      <trkpt lat="42.70862" lon="1.63622">
        <ele>1816.8</ele>
        <time>2020-02-08T15:12:48Z</time>
      </trkpt>
      <trkpt lat="42.70862" lon="1.63622">
        <ele>1816.8</ele>
        <time>2020-02-08T15:12:49Z</time>
      </trkpt>
      <trkpt lat="42.70861" lon="1.63622">
        <ele>1815.8</ele>
        <time>2020-02-08T15:12:50Z</time>
      </trkpt>
      <trkpt lat="42.70861" lon="1.63622">
        <ele>1815.8</ele>
        <time>2020-02-08T15:12:51Z</time>
      </trkpt>
      <trkpt lat="42.70861" lon="1.63622">
        <ele>1815.8</ele>
        <time>2020-02-08T15:12:52Z</time>
      </trkpt>
      <trkpt lat="42.70861" lon="1.63623">
        <ele>1815.8</ele>
        <time>2020-02-08T15:12:53Z</time>
      </trkpt>
      <trkpt lat="42.7086" lon="1.63623">
        <ele>1815.8</ele>
        <time>2020-02-08T15:12:54Z</time>
      </trkpt>
      <trkpt lat="42.7086" lon="1.63623">
        <ele>1815.8</ele>
        <time>2020-02-08T15:12:55Z</time>
      </trkpt>
      <trkpt lat="42.7086" lon="1.63623">
        <ele>1815.8</ele>
        <time>2020-02-08T15:12:56Z</time>
      </trkpt>
      <trkpt lat="42.7086" lon="1.63624">
        <ele>1815.9</ele>
        <time>2020-02-08T15:12:57Z</time>
      </trkpt>
      <trkpt lat="42.70859" lon="1.63624">
        <ele>1815.9</ele>
        <time>2020-02-08T15:12:58Z</time>
      </trkpt>
      <trkpt lat="42.70859" lon="1.63624">
        <ele>1815.9</ele>
        <time>2020-02-08T15:12:59Z</time>
      </trkpt>
      <trkpt lat="42.70859" lon="1.63624">
        <ele>1815.9</ele>
        <time>2020-02-08T15:13:00Z</time>
      </trkpt>
      <trkpt lat="42.70859" lon="1.63624">
        <ele>1815.9</ele>
        <time>2020-02-08T15:13:01Z</time>
      </trkpt>
      <trkpt lat="42.70858" lon="1.63625">
        <ele>1815.9</ele>
        <time>2020-02-08T15:13:02Z</time>
      </trkpt>
      <trkpt lat="42.70858" lon="1.63625">
        <ele>1814.9</ele>
        <time>2020-02-08T15:13:03Z</time>
      </trkpt>
      <trkpt lat="42.70858" lon="1.63625">
        <ele>1814.9</ele>
        <time>2020-02-08T15:13:04Z</time>
      </trkpt>
      <trkpt lat="42.70858" lon="1.63625">
        <ele>1814.9</ele>
        <time>2020-02-08T15:13:05Z</time>
      </trkpt>
      <trkpt lat="42.70857" lon="1.63625">
        <ele>1814.9</ele>
        <time>2020-02-08T15:13:06Z</time>
      </trkpt>
      <trkpt lat="42.70857" lon="1.63626">
        <ele>1814.9</ele>
        <time>2020-02-08T15:13:07Z</time>
      </trkpt>
      <trkpt lat="42.70857" lon="1.63626">
        <ele>1814.9</ele>
        <time>2020-02-08T15:13:08Z</time>
      </trkpt>
      <trkpt lat="42.70857" lon="1.63626">
        <ele>1814.9</ele>
        <time>2020-02-08T15:13:09Z</time>
      </trkpt>
      <trkpt lat="42.70855" lon="1.63625">
        <ele>1814.9</ele>
        <time>2020-02-08T15:13:10Z</time>
      </trkpt>
      <trkpt lat="42.70855" lon="1.63625">
        <ele>1814.9</ele>
        <time>2020-02-08T15:13:11Z</time>
      </trkpt>
      <trkpt lat="42.70855" lon="1.63625">
        <ele>1814.9</ele>
        <time>2020-02-08T15:13:12Z</time>
      </trkpt>
      <trkpt lat="42.70855" lon="1.63625">
        <ele>1814.9</ele>
        <time>2020-02-08T15:13:13Z</time>
      </trkpt>
      <trkpt lat="42.70855" lon="1.63625">
        <ele>1814.9</ele>
        <time>2020-02-08T15:13:14Z</time>
      </trkpt>
      <trkpt lat="42.70854" lon="1.63625">
        <ele>1813.9</ele>
        <time>2020-02-08T15:13:15Z</time>
      </trkpt>
      <trkpt lat="42.70854" lon="1.63625">
        <ele>1813.9</ele>
        <time>2020-02-08T15:13:16Z</time>
      </trkpt>
      <trkpt lat="42.70854" lon="1.63625">
        <ele>1813.9</ele>
        <time>2020-02-08T15:13:17Z</time>
      </trkpt>
      <trkpt lat="42.70852" lon="1.63625">
        <ele>1812.9</ele>
        <time>2020-02-08T15:13:18Z</time>
      </trkpt>
      <trkpt lat="42.70852" lon="1.63625">
        <ele>1812.9</ele>
        <time>2020-02-08T15:13:19Z</time>
      </trkpt>
      <trkpt lat="42.70852" lon="1.63625">
        <ele>1812.9</ele>
        <time>2020-02-08T15:13:20Z</time>
      </trkpt>
      <trkpt lat="42.70852" lon="1.63625">
        <ele>1812.9</ele>
        <time>2020-02-08T15:13:21Z</time>
      </trkpt>
      <trkpt lat="42.70852" lon="1.63625">
        <ele>1812.9</ele>
        <time>2020-02-08T15:13:22Z</time>
      </trkpt>
      <trkpt lat="42.7085" lon="1.63626">
        <ele>1812.9</ele>
        <time>2020-02-08T15:13:23Z</time>
      </trkpt>
      <trkpt lat="42.7085" lon="1.63626">
        <ele>1812.9</ele>
        <time>2020-02-08T15:13:24Z</time>
      </trkpt>
      <trkpt lat="42.7085" lon="1.63626">
        <ele>1812.9</ele>
        <time>2020-02-08T15:13:25Z</time>
      </trkpt>
      <trkpt lat="42.7085" lon="1.63626">
        <ele>1812.9</ele>
        <time>2020-02-08T15:13:26Z</time>
      </trkpt>
      <trkpt lat="42.7085" lon="1.63626">
        <ele>1812.9</ele>
        <time>2020-02-08T15:13:27Z</time>
      </trkpt>
      <trkpt lat="42.7085" lon="1.63626">
        <ele>1812.9</ele>
        <time>2020-02-08T15:13:28Z</time>
      </trkpt>
      <trkpt lat="42.7085" lon="1.63626">
        <ele>1812.9</ele>
        <time>2020-02-08T15:13:29Z</time>
      </trkpt>
      <trkpt lat="42.7085" lon="1.63626">
        <ele>1812.9</ele>
        <time>2020-02-08T15:13:30Z</time>
      </trkpt>
      <trkpt lat="42.7085" lon="1.63626">
        <ele>1812.9</ele>
        <time>2020-02-08T15:13:31Z</time>
      </trkpt>
      <trkpt lat="42.7085" lon="1.63626">
        <ele>1812.9</ele>
        <time>2020-02-08T15:13:32Z</time>
      </trkpt>
      <trkpt lat="42.7085" lon="1.63626">
        <ele>1812.9</ele>
        <time>2020-02-08T15:13:33Z</time>
      </trkpt>
      <trkpt lat="42.7085" lon="1.63626">
        <ele>1812.9</ele>
        <time>2020-02-08T15:13:34Z</time>
      </trkpt>
      <trkpt lat="42.7085" lon="1.63626">
        <ele>1812.9</ele>
        <time>2020-02-08T15:13:35Z</time>
      </trkpt>
      <trkpt lat="42.7085" lon="1.63626">
        <ele>1812.9</ele>
        <time>2020-02-08T15:13:36Z</time>
      </trkpt>
      <trkpt lat="42.7085" lon="1.63626">
        <ele>1812.9</ele>
        <time>2020-02-08T15:13:37Z</time>
      </trkpt>
      <trkpt lat="42.7085" lon="1.63626">
        <ele>1812.9</ele>
        <time>2020-02-08T15:13:38Z</time>
      </trkpt>
      <trkpt lat="42.70849" lon="1.63627">
        <ele>1811.9</ele>
        <time>2020-02-08T15:13:39Z</time>
      </trkpt>
      <trkpt lat="42.70849" lon="1.63627">
        <ele>1811.9</ele>
        <time>2020-02-08T15:13:40Z</time>
      </trkpt>
      <trkpt lat="42.70849" lon="1.63627">
        <ele>1811.9</ele>
        <time>2020-02-08T15:13:41Z</time>
      </trkpt>
      <trkpt lat="42.70849" lon="1.63627">
        <ele>1811.9</ele>
        <time>2020-02-08T15:13:42Z</time>
      </trkpt>
      <trkpt lat="42.70849" lon="1.63627">
        <ele>1811.9</ele>
        <time>2020-02-08T15:13:43Z</time>
      </trkpt>
      <trkpt lat="42.70849" lon="1.63627">
        <ele>1811.9</ele>
        <time>2020-02-08T15:13:44Z</time>
      </trkpt>
      <trkpt lat="42.70849" lon="1.63627">
        <ele>1811.9</ele>
        <time>2020-02-08T15:13:45Z</time>
      </trkpt>
      <trkpt lat="42.70849" lon="1.63627">
        <ele>1811.9</ele>
        <time>2020-02-08T15:13:46Z</time>
      </trkpt>
      <trkpt lat="42.70849" lon="1.63627">
        <ele>1811.9</ele>
        <time>2020-02-08T15:13:47Z</time>
      </trkpt>
      <trkpt lat="42.70848" lon="1.63628">
        <ele>1812.1</ele>
        <time>2020-02-08T15:13:48Z</time>
      </trkpt>
      <trkpt lat="42.70848" lon="1.63628">
        <ele>1812.1</ele>
        <time>2020-02-08T15:13:49Z</time>
      </trkpt>
      <trkpt lat="42.70848" lon="1.63629">
        <ele>1812.1</ele>
        <time>2020-02-08T15:13:50Z</time>
      </trkpt>
      <trkpt lat="42.70848" lon="1.63629">
        <ele>1812.1</ele>
        <time>2020-02-08T15:13:51Z</time>
      </trkpt>
      <trkpt lat="42.70848" lon="1.6363">
        <ele>1812.1</ele>
        <time>2020-02-08T15:13:52Z</time>
      </trkpt>
      <trkpt lat="42.70847" lon="1.6363">
        <ele>1812.1</ele>
        <time>2020-02-08T15:13:53Z</time>
      </trkpt>
      <trkpt lat="42.70847" lon="1.63631">
        <ele>1812.1</ele>
        <time>2020-02-08T15:13:54Z</time>
      </trkpt>
      <trkpt lat="42.70847" lon="1.63631">
        <ele>1812.1</ele>
        <time>2020-02-08T15:13:55Z</time>
      </trkpt>
      <trkpt lat="42.70847" lon="1.63632">
        <ele>1812.1</ele>
        <time>2020-02-08T15:13:56Z</time>
      </trkpt>
      <trkpt lat="42.70847" lon="1.63632">
        <ele>1812.3</ele>
        <time>2020-02-08T15:13:57Z</time>
      </trkpt>
      <trkpt lat="42.70846" lon="1.63632">
        <ele>1812.3</ele>
        <time>2020-02-08T15:13:58Z</time>
      </trkpt>
      <trkpt lat="42.70846" lon="1.63633">
        <ele>1812.3</ele>
        <time>2020-02-08T15:13:59Z</time>
      </trkpt>
      <trkpt lat="42.70846" lon="1.63633">
        <ele>1811.3</ele>
        <time>2020-02-08T15:14:00Z</time>
      </trkpt>
      <trkpt lat="42.70845" lon="1.63633">
        <ele>1811.3</ele>
        <time>2020-02-08T15:14:01Z</time>
      </trkpt>
      <trkpt lat="42.70845" lon="1.63634">
        <ele>1811.3</ele>
        <time>2020-02-08T15:14:02Z</time>
      </trkpt>
      <trkpt lat="42.70845" lon="1.63634">
        <ele>1811.3</ele>
        <time>2020-02-08T15:14:03Z</time>
      </trkpt>
      <trkpt lat="42.70844" lon="1.63634">
        <ele>1811.3</ele>
        <time>2020-02-08T15:14:04Z</time>
      </trkpt>
      <trkpt lat="42.70844" lon="1.63635">
        <ele>1811.3</ele>
        <time>2020-02-08T15:14:05Z</time>
      </trkpt>
      <trkpt lat="42.70844" lon="1.63635">
        <ele>1811.3</ele>
        <time>2020-02-08T15:14:06Z</time>
      </trkpt>
      <trkpt lat="42.70843" lon="1.63635">
        <ele>1811.3</ele>
        <time>2020-02-08T15:14:07Z</time>
      </trkpt>
      <trkpt lat="42.70843" lon="1.63635">
        <ele>1811.3</ele>
        <time>2020-02-08T15:14:08Z</time>
      </trkpt>
      <trkpt lat="42.70841" lon="1.63635">
        <ele>1810.4</ele>
        <time>2020-02-08T15:14:09Z</time>
      </trkpt>
      <trkpt lat="42.70841" lon="1.63635">
        <ele>1810.4</ele>
        <time>2020-02-08T15:14:10Z</time>
      </trkpt>
      <trkpt lat="42.70841" lon="1.63635">
        <ele>1810.4</ele>
        <time>2020-02-08T15:14:11Z</time>
      </trkpt>
      <trkpt lat="42.70841" lon="1.63635">
        <ele>1810.4</ele>
        <time>2020-02-08T15:14:12Z</time>
      </trkpt>
      <trkpt lat="42.7084" lon="1.63634">
        <ele>1810.4</ele>
        <time>2020-02-08T15:14:13Z</time>
      </trkpt>
      <trkpt lat="42.7084" lon="1.63634">
        <ele>1810.4</ele>
        <time>2020-02-08T15:14:14Z</time>
      </trkpt>
      <trkpt lat="42.7084" lon="1.63634">
        <ele>1810.4</ele>
        <time>2020-02-08T15:14:15Z</time>
      </trkpt>
      <trkpt lat="42.7084" lon="1.63634">
        <ele>1810.4</ele>
        <time>2020-02-08T15:14:16Z</time>
      </trkpt>
      <trkpt lat="42.70837" lon="1.63632">
        <ele>1809.4</ele>
        <time>2020-02-08T15:14:17Z</time>
      </trkpt>
      <trkpt lat="42.70837" lon="1.63632">
        <ele>1809.2</ele>
        <time>2020-02-08T15:14:18Z</time>
      </trkpt>
      <trkpt lat="42.70837" lon="1.63631">
        <ele>1809.2</ele>
        <time>2020-02-08T15:14:19Z</time>
      </trkpt>
      <trkpt lat="42.70836" lon="1.63631">
        <ele>1809.2</ele>
        <time>2020-02-08T15:14:20Z</time>
      </trkpt>
      <trkpt lat="42.70836" lon="1.63631">
        <ele>1808.2</ele>
        <time>2020-02-08T15:14:21Z</time>
      </trkpt>
      <trkpt lat="42.70836" lon="1.6363">
        <ele>1808.2</ele>
        <time>2020-02-08T15:14:22Z</time>
      </trkpt>
      <trkpt lat="42.70835" lon="1.6363">
        <ele>1808.2</ele>
        <time>2020-02-08T15:14:23Z</time>
      </trkpt>
      <trkpt lat="42.70835" lon="1.6363">
        <ele>1808.2</ele>
        <time>2020-02-08T15:14:24Z</time>
      </trkpt>
      <trkpt lat="42.70835" lon="1.63629">
        <ele>1808.2</ele>
        <time>2020-02-08T15:14:25Z</time>
      </trkpt>
      <trkpt lat="42.70834" lon="1.63629">
        <ele>1808.2</ele>
        <time>2020-02-08T15:14:26Z</time>
      </trkpt>
      <trkpt lat="42.70834" lon="1.63629">
        <ele>1808.2</ele>
        <time>2020-02-08T15:14:27Z</time>
      </trkpt>
      <trkpt lat="42.70832" lon="1.63627">
        <ele>1806.8</ele>
        <time>2020-02-08T15:14:28Z</time>
      </trkpt>
      <trkpt lat="42.70832" lon="1.63627">
        <ele>1806.8</ele>
        <time>2020-02-08T15:14:29Z</time>
      </trkpt>
      <trkpt lat="42.70831" lon="1.63627">
        <ele>1806.8</ele>
        <time>2020-02-08T15:14:30Z</time>
      </trkpt>
      <trkpt lat="42.70831" lon="1.63627">
        <ele>1806.8</ele>
        <time>2020-02-08T15:14:31Z</time>
      </trkpt>
      <trkpt lat="42.70831" lon="1.63627">
        <ele>1806.8</ele>
        <time>2020-02-08T15:14:32Z</time>
      </trkpt>
      <trkpt lat="42.7083" lon="1.63627">
        <ele>1806.8</ele>
        <time>2020-02-08T15:14:33Z</time>
      </trkpt>
      <trkpt lat="42.7083" lon="1.63628">
        <ele>1805.7</ele>
        <time>2020-02-08T15:14:34Z</time>
      </trkpt>
      <trkpt lat="42.70829" lon="1.63628">
        <ele>1806</ele>
        <time>2020-02-08T15:14:35Z</time>
      </trkpt>
      <trkpt lat="42.70829" lon="1.63628">
        <ele>1806</ele>
        <time>2020-02-08T15:14:36Z</time>
      </trkpt>
      <trkpt lat="42.70828" lon="1.63628">
        <ele>1806</ele>
        <time>2020-02-08T15:14:37Z</time>
      </trkpt>
      <trkpt lat="42.70828" lon="1.63628">
        <ele>1806</ele>
        <time>2020-02-08T15:14:38Z</time>
      </trkpt>
      <trkpt lat="42.70828" lon="1.63628">
        <ele>1806</ele>
        <time>2020-02-08T15:14:39Z</time>
      </trkpt>
      <trkpt lat="42.70828" lon="1.63628">
        <ele>1806</ele>
        <time>2020-02-08T15:14:40Z</time>
      </trkpt>
      <trkpt lat="42.70828" lon="1.63628">
        <ele>1806</ele>
        <time>2020-02-08T15:14:41Z</time>
      </trkpt>
      <trkpt lat="42.70828" lon="1.63628">
        <ele>1806</ele>
        <time>2020-02-08T15:14:42Z</time>
      </trkpt>
      <trkpt lat="42.70828" lon="1.63628">
        <ele>1806</ele>
        <time>2020-02-08T15:14:43Z</time>
      </trkpt>
      <trkpt lat="42.70828" lon="1.63628">
        <ele>1806</ele>
        <time>2020-02-08T15:14:44Z</time>
      </trkpt>
      <trkpt lat="42.70828" lon="1.63628">
        <ele>1806</ele>
        <time>2020-02-08T15:14:45Z</time>
      </trkpt>
      <trkpt lat="42.70827" lon="1.63626">
        <ele>1805.7</ele>
        <time>2020-02-08T15:14:46Z</time>
      </trkpt>
      <trkpt lat="42.70827" lon="1.63626">
        <ele>1805.7</ele>
        <time>2020-02-08T15:14:47Z</time>
      </trkpt>
      <trkpt lat="42.70827" lon="1.63625">
        <ele>1805.7</ele>
        <time>2020-02-08T15:14:48Z</time>
      </trkpt>
      <trkpt lat="42.70827" lon="1.63624">
        <ele>1805.7</ele>
        <time>2020-02-08T15:14:49Z</time>
      </trkpt>
      <trkpt lat="42.70828" lon="1.63623">
        <ele>1805.4</ele>
        <time>2020-02-08T15:14:50Z</time>
      </trkpt>
      <trkpt lat="42.70828" lon="1.63622">
        <ele>1805.4</ele>
        <time>2020-02-08T15:14:51Z</time>
      </trkpt>
      <trkpt lat="42.70828" lon="1.63621">
        <ele>1805.4</ele>
        <time>2020-02-08T15:14:52Z</time>
      </trkpt>
      <trkpt lat="42.70828" lon="1.6362">
        <ele>1805.4</ele>
        <time>2020-02-08T15:14:53Z</time>
      </trkpt>
      <trkpt lat="42.70828" lon="1.63619">
        <ele>1805.4</ele>
        <time>2020-02-08T15:14:54Z</time>
      </trkpt>
      <trkpt lat="42.70828" lon="1.63618">
        <ele>1805.2</ele>
        <time>2020-02-08T15:14:55Z</time>
      </trkpt>
      <trkpt lat="42.70828" lon="1.63618">
        <ele>1805.2</ele>
        <time>2020-02-08T15:14:56Z</time>
      </trkpt>
      <trkpt lat="42.70828" lon="1.63617">
        <ele>1805.2</ele>
        <time>2020-02-08T15:14:57Z</time>
      </trkpt>
      <trkpt lat="42.70828" lon="1.63616">
        <ele>1805.2</ele>
        <time>2020-02-08T15:14:58Z</time>
      </trkpt>
      <trkpt lat="42.70828" lon="1.63616">
        <ele>1805.2</ele>
        <time>2020-02-08T15:14:59Z</time>
      </trkpt>
      <trkpt lat="42.70827" lon="1.63615">
        <ele>1805.2</ele>
        <time>2020-02-08T15:15:00Z</time>
      </trkpt>
      <trkpt lat="42.70827" lon="1.63615">
        <ele>1805.2</ele>
        <time>2020-02-08T15:15:01Z</time>
      </trkpt>
      <trkpt lat="42.70827" lon="1.63615">
        <ele>1803.9</ele>
        <time>2020-02-08T15:15:02Z</time>
      </trkpt>
      <trkpt lat="42.70826" lon="1.63614">
        <ele>1803.9</ele>
        <time>2020-02-08T15:15:03Z</time>
      </trkpt>
      <trkpt lat="42.70826" lon="1.63614">
        <ele>1803.9</ele>
        <time>2020-02-08T15:15:04Z</time>
      </trkpt>
      <trkpt lat="42.70826" lon="1.63613">
        <ele>1803.9</ele>
        <time>2020-02-08T15:15:05Z</time>
      </trkpt>
      <trkpt lat="42.70825" lon="1.63613">
        <ele>1803.9</ele>
        <time>2020-02-08T15:15:06Z</time>
      </trkpt>
      <trkpt lat="42.70825" lon="1.63613">
        <ele>1803.9</ele>
        <time>2020-02-08T15:15:07Z</time>
      </trkpt>
      <trkpt lat="42.70824" lon="1.63612">
        <ele>1803.9</ele>
        <time>2020-02-08T15:15:08Z</time>
      </trkpt>
      <trkpt lat="42.70824" lon="1.63612">
        <ele>1803.9</ele>
        <time>2020-02-08T15:15:09Z</time>
      </trkpt>
      <trkpt lat="42.70824" lon="1.63612">
        <ele>1802.9</ele>
        <time>2020-02-08T15:15:10Z</time>
      </trkpt>
      <trkpt lat="42.70823" lon="1.63612">
        <ele>1802.9</ele>
        <time>2020-02-08T15:15:11Z</time>
      </trkpt>
      <trkpt lat="42.70823" lon="1.63612">
        <ele>1802.9</ele>
        <time>2020-02-08T15:15:12Z</time>
      </trkpt>
      <trkpt lat="42.70823" lon="1.63612">
        <ele>1802.9</ele>
        <time>2020-02-08T15:15:13Z</time>
      </trkpt>
      <trkpt lat="42.70822" lon="1.63611">
        <ele>1802.9</ele>
        <time>2020-02-08T15:15:14Z</time>
      </trkpt>
      <trkpt lat="42.70822" lon="1.63611">
        <ele>1802.9</ele>
        <time>2020-02-08T15:15:15Z</time>
      </trkpt>
      <trkpt lat="42.70821" lon="1.63611">
        <ele>1802.9</ele>
        <time>2020-02-08T15:15:16Z</time>
      </trkpt>
      <trkpt lat="42.70821" lon="1.63611">
        <ele>1802.9</ele>
        <time>2020-02-08T15:15:17Z</time>
      </trkpt>
      <trkpt lat="42.7082" lon="1.63611">
        <ele>1802</ele>
        <time>2020-02-08T15:15:18Z</time>
      </trkpt>
      <trkpt lat="42.7082" lon="1.63611">
        <ele>1802</ele>
        <time>2020-02-08T15:15:19Z</time>
      </trkpt>
      <trkpt lat="42.70819" lon="1.63611">
        <ele>1802</ele>
        <time>2020-02-08T15:15:20Z</time>
      </trkpt>
      <trkpt lat="42.70818" lon="1.63611">
        <ele>1802</ele>
        <time>2020-02-08T15:15:21Z</time>
      </trkpt>
      <trkpt lat="42.70817" lon="1.6361">
        <ele>1801.7</ele>
        <time>2020-02-08T15:15:22Z</time>
      </trkpt>
      <trkpt lat="42.70817" lon="1.6361">
        <ele>1800.9</ele>
        <time>2020-02-08T15:15:23Z</time>
      </trkpt>
      <trkpt lat="42.70816" lon="1.6361">
        <ele>1800.9</ele>
        <time>2020-02-08T15:15:24Z</time>
      </trkpt>
      <trkpt lat="42.70815" lon="1.6361">
        <ele>1800.9</ele>
        <time>2020-02-08T15:15:25Z</time>
      </trkpt>
      <trkpt lat="42.70815" lon="1.6361">
        <ele>1800.9</ele>
        <time>2020-02-08T15:15:26Z</time>
      </trkpt>
      <trkpt lat="42.70814" lon="1.6361">
        <ele>1800</ele>
        <time>2020-02-08T15:15:27Z</time>
      </trkpt>
      <trkpt lat="42.70813" lon="1.63609">
        <ele>1800</ele>
        <time>2020-02-08T15:15:28Z</time>
      </trkpt>
      <trkpt lat="42.70813" lon="1.63608">
        <ele>1800</ele>
        <time>2020-02-08T15:15:29Z</time>
      </trkpt>
      <trkpt lat="42.70812" lon="1.63607">
        <ele>1800</ele>
        <time>2020-02-08T15:15:30Z</time>
      </trkpt>
      <trkpt lat="42.70812" lon="1.63606">
        <ele>1799.8</ele>
        <time>2020-02-08T15:15:31Z</time>
      </trkpt>
      <trkpt lat="42.70812" lon="1.63605">
        <ele>1799.8</ele>
        <time>2020-02-08T15:15:32Z</time>
      </trkpt>
      <trkpt lat="42.70811" lon="1.63604">
        <ele>1798.9</ele>
        <time>2020-02-08T15:15:33Z</time>
      </trkpt>
      <trkpt lat="42.70811" lon="1.63604">
        <ele>1798.9</ele>
        <time>2020-02-08T15:15:34Z</time>
      </trkpt>
      <trkpt lat="42.7081" lon="1.63603">
        <ele>1798.9</ele>
        <time>2020-02-08T15:15:35Z</time>
      </trkpt>
      <trkpt lat="42.7081" lon="1.63602">
        <ele>1798.6</ele>
        <time>2020-02-08T15:15:36Z</time>
      </trkpt>
      <trkpt lat="42.70809" lon="1.63601">
        <ele>1798.6</ele>
        <time>2020-02-08T15:15:37Z</time>
      </trkpt>
      <trkpt lat="42.70807" lon="1.63598">
        <ele>1797.6</ele>
        <time>2020-02-08T15:15:38Z</time>
      </trkpt>
      <trkpt lat="42.70806" lon="1.63598">
        <ele>1797.6</ele>
        <time>2020-02-08T15:15:39Z</time>
      </trkpt>
      <trkpt lat="42.70805" lon="1.63598">
        <ele>1797.6</ele>
        <time>2020-02-08T15:15:40Z</time>
      </trkpt>
      <trkpt lat="42.70804" lon="1.63598">
        <ele>1796.5</ele>
        <time>2020-02-08T15:15:41Z</time>
      </trkpt>
      <trkpt lat="42.70804" lon="1.63598">
        <ele>1796.5</ele>
        <time>2020-02-08T15:15:42Z</time>
      </trkpt>
      <trkpt lat="42.70803" lon="1.63598">
        <ele>1796.5</ele>
        <time>2020-02-08T15:15:43Z</time>
      </trkpt>
      <trkpt lat="42.70802" lon="1.63598">
        <ele>1796.5</ele>
        <time>2020-02-08T15:15:44Z</time>
      </trkpt>
      <trkpt lat="42.70801" lon="1.63598">
        <ele>1795.5</ele>
        <time>2020-02-08T15:15:45Z</time>
      </trkpt>
      <trkpt lat="42.70801" lon="1.63598">
        <ele>1795.5</ele>
        <time>2020-02-08T15:15:46Z</time>
      </trkpt>
      <trkpt lat="42.708" lon="1.63598">
        <ele>1795.5</ele>
        <time>2020-02-08T15:15:47Z</time>
      </trkpt>
      <trkpt lat="42.70797" lon="1.63598">
        <ele>1794.5</ele>
        <time>2020-02-08T15:15:48Z</time>
      </trkpt>
      <trkpt lat="42.70796" lon="1.63598">
        <ele>1794.5</ele>
        <time>2020-02-08T15:15:49Z</time>
      </trkpt>
      <trkpt lat="42.70795" lon="1.63598">
        <ele>1794.5</ele>
        <time>2020-02-08T15:15:50Z</time>
      </trkpt>
      <trkpt lat="42.70795" lon="1.63598">
        <ele>1793.6</ele>
        <time>2020-02-08T15:15:51Z</time>
      </trkpt>
      <trkpt lat="42.70794" lon="1.63598">
        <ele>1793.6</ele>
        <time>2020-02-08T15:15:52Z</time>
      </trkpt>
      <trkpt lat="42.70793" lon="1.63598">
        <ele>1793.6</ele>
        <time>2020-02-08T15:15:53Z</time>
      </trkpt>
      <trkpt lat="42.70792" lon="1.63598">
        <ele>1793.6</ele>
        <time>2020-02-08T15:15:54Z</time>
      </trkpt>
      <trkpt lat="42.70792" lon="1.63598">
        <ele>1792.7</ele>
        <time>2020-02-08T15:15:55Z</time>
      </trkpt>
      <trkpt lat="42.70791" lon="1.63598">
        <ele>1792.7</ele>
        <time>2020-02-08T15:15:56Z</time>
      </trkpt>
      <trkpt lat="42.7079" lon="1.63598">
        <ele>1792.7</ele>
        <time>2020-02-08T15:15:57Z</time>
      </trkpt>
      <trkpt lat="42.70789" lon="1.63598">
        <ele>1792.7</ele>
        <time>2020-02-08T15:15:58Z</time>
      </trkpt>
      <trkpt lat="42.70788" lon="1.63599">
        <ele>1791.8</ele>
        <time>2020-02-08T15:15:59Z</time>
      </trkpt>
      <trkpt lat="42.70788" lon="1.636">
        <ele>1791.8</ele>
        <time>2020-02-08T15:16:00Z</time>
      </trkpt>
      <trkpt lat="42.70787" lon="1.636">
        <ele>1791.8</ele>
        <time>2020-02-08T15:16:01Z</time>
      </trkpt>
      <trkpt lat="42.70786" lon="1.63601">
        <ele>1791.8</ele>
        <time>2020-02-08T15:16:02Z</time>
      </trkpt>
      <trkpt lat="42.70785" lon="1.63601">
        <ele>1790.8</ele>
        <time>2020-02-08T15:16:03Z</time>
      </trkpt>
      <trkpt lat="42.70785" lon="1.63602">
        <ele>1790.8</ele>
        <time>2020-02-08T15:16:04Z</time>
      </trkpt>
      <trkpt lat="42.70784" lon="1.63602">
        <ele>1791.2</ele>
        <time>2020-02-08T15:16:05Z</time>
      </trkpt>
      <trkpt lat="42.70783" lon="1.63603">
        <ele>1791.2</ele>
        <time>2020-02-08T15:16:06Z</time>
      </trkpt>
      <trkpt lat="42.70782" lon="1.63603">
        <ele>1790</ele>
        <time>2020-02-08T15:16:07Z</time>
      </trkpt>
      <trkpt lat="42.70781" lon="1.63604">
        <ele>1790</ele>
        <time>2020-02-08T15:16:08Z</time>
      </trkpt>
      <trkpt lat="42.70781" lon="1.63605">
        <ele>1790</ele>
        <time>2020-02-08T15:16:09Z</time>
      </trkpt>
      <trkpt lat="42.7078" lon="1.63605">
        <ele>1790</ele>
        <time>2020-02-08T15:16:10Z</time>
      </trkpt>
      <trkpt lat="42.70779" lon="1.63606">
        <ele>1788.9</ele>
        <time>2020-02-08T15:16:11Z</time>
      </trkpt>
      <trkpt lat="42.70778" lon="1.63606">
        <ele>1789.3</ele>
        <time>2020-02-08T15:16:12Z</time>
      </trkpt>
      <trkpt lat="42.70777" lon="1.63607">
        <ele>1789.3</ele>
        <time>2020-02-08T15:16:13Z</time>
      </trkpt>
      <trkpt lat="42.70777" lon="1.63608">
        <ele>1789.3</ele>
        <time>2020-02-08T15:16:14Z</time>
      </trkpt>
      <trkpt lat="42.70776" lon="1.63608">
        <ele>1788.1</ele>
        <time>2020-02-08T15:16:15Z</time>
      </trkpt>
      <trkpt lat="42.70775" lon="1.63609">
        <ele>1788.1</ele>
        <time>2020-02-08T15:16:16Z</time>
      </trkpt>
      <trkpt lat="42.70774" lon="1.63609">
        <ele>1788.1</ele>
        <time>2020-02-08T15:16:17Z</time>
      </trkpt>
      <trkpt lat="42.70772" lon="1.63611">
        <ele>1787.5</ele>
        <time>2020-02-08T15:16:18Z</time>
      </trkpt>
      <trkpt lat="42.70771" lon="1.63611">
        <ele>1787.5</ele>
        <time>2020-02-08T15:16:19Z</time>
      </trkpt>
      <trkpt lat="42.70771" lon="1.63611">
        <ele>1787.5</ele>
        <time>2020-02-08T15:16:20Z</time>
      </trkpt>
      <trkpt lat="42.7077" lon="1.63612">
        <ele>1786.5</ele>
        <time>2020-02-08T15:16:21Z</time>
      </trkpt>
      <trkpt lat="42.70769" lon="1.63612">
        <ele>1786.5</ele>
        <time>2020-02-08T15:16:22Z</time>
      </trkpt>
      <trkpt lat="42.70768" lon="1.63612">
        <ele>1786.5</ele>
        <time>2020-02-08T15:16:23Z</time>
      </trkpt>
      <trkpt lat="42.70767" lon="1.63613">
        <ele>1786.5</ele>
        <time>2020-02-08T15:16:24Z</time>
      </trkpt>
      <trkpt lat="42.70766" lon="1.63613">
        <ele>1785.6</ele>
        <time>2020-02-08T15:16:25Z</time>
      </trkpt>
      <trkpt lat="42.70765" lon="1.63613">
        <ele>1785.6</ele>
        <time>2020-02-08T15:16:26Z</time>
      </trkpt>
      <trkpt lat="42.70764" lon="1.63614">
        <ele>1785.6</ele>
        <time>2020-02-08T15:16:27Z</time>
      </trkpt>
      <trkpt lat="42.70764" lon="1.63614">
        <ele>1785.6</ele>
        <time>2020-02-08T15:16:28Z</time>
      </trkpt>
      <trkpt lat="42.70763" lon="1.63614">
        <ele>1784.7</ele>
        <time>2020-02-08T15:16:29Z</time>
      </trkpt>
      <trkpt lat="42.70763" lon="1.63614">
        <ele>1784.7</ele>
        <time>2020-02-08T15:16:30Z</time>
      </trkpt>
      <trkpt lat="42.70762" lon="1.63615">
        <ele>1784.7</ele>
        <time>2020-02-08T15:16:31Z</time>
      </trkpt>
      <trkpt lat="42.70761" lon="1.63615">
        <ele>1784.7</ele>
        <time>2020-02-08T15:16:32Z</time>
      </trkpt>
      <trkpt lat="42.70761" lon="1.63615">
        <ele>1784.2</ele>
        <time>2020-02-08T15:16:33Z</time>
      </trkpt>
      <trkpt lat="42.7076" lon="1.63615">
        <ele>1784.2</ele>
        <time>2020-02-08T15:16:34Z</time>
      </trkpt>
      <trkpt lat="42.70759" lon="1.63615">
        <ele>1784.2</ele>
        <time>2020-02-08T15:16:35Z</time>
      </trkpt>
      <trkpt lat="42.70759" lon="1.63616">
        <ele>1784.2</ele>
        <time>2020-02-08T15:16:36Z</time>
      </trkpt>
      <trkpt lat="42.70758" lon="1.63616">
        <ele>1784.2</ele>
        <time>2020-02-08T15:16:37Z</time>
      </trkpt>
      <trkpt lat="42.70755" lon="1.63617">
        <ele>1783.2</ele>
        <time>2020-02-08T15:16:38Z</time>
      </trkpt>
      <trkpt lat="42.70755" lon="1.63617">
        <ele>1783.2</ele>
        <time>2020-02-08T15:16:39Z</time>
      </trkpt>
      <trkpt lat="42.70754" lon="1.63618">
        <ele>1783.2</ele>
        <time>2020-02-08T15:16:40Z</time>
      </trkpt>
      <trkpt lat="42.70754" lon="1.63618">
        <ele>1782.1</ele>
        <time>2020-02-08T15:16:41Z</time>
      </trkpt>
      <trkpt lat="42.70754" lon="1.63618">
        <ele>1782.1</ele>
        <time>2020-02-08T15:16:42Z</time>
      </trkpt>
      <trkpt lat="42.70753" lon="1.63618">
        <ele>1782.1</ele>
        <time>2020-02-08T15:16:43Z</time>
      </trkpt>
      <trkpt lat="42.70753" lon="1.63619">
        <ele>1782.1</ele>
        <time>2020-02-08T15:16:44Z</time>
      </trkpt>
      <trkpt lat="42.70753" lon="1.63619">
        <ele>1782.1</ele>
        <time>2020-02-08T15:16:45Z</time>
      </trkpt>
      <trkpt lat="42.70752" lon="1.63619">
        <ele>1782.5</ele>
        <time>2020-02-08T15:16:46Z</time>
      </trkpt>
      <trkpt lat="42.70752" lon="1.6362">
        <ele>1782.5</ele>
        <time>2020-02-08T15:16:47Z</time>
      </trkpt>
      <trkpt lat="42.7075" lon="1.63622">
        <ele>1781.5</ele>
        <time>2020-02-08T15:16:48Z</time>
      </trkpt>
      <trkpt lat="42.7075" lon="1.63622">
        <ele>1781.5</ele>
        <time>2020-02-08T15:16:49Z</time>
      </trkpt>
      <trkpt lat="42.7075" lon="1.63622">
        <ele>1781.5</ele>
        <time>2020-02-08T15:16:50Z</time>
      </trkpt>
      <trkpt lat="42.7075" lon="1.63622">
        <ele>1781.5</ele>
        <time>2020-02-08T15:16:51Z</time>
      </trkpt>
      <trkpt lat="42.7075" lon="1.63622">
        <ele>1781.5</ele>
        <time>2020-02-08T15:16:52Z</time>
      </trkpt>
      <trkpt lat="42.7075" lon="1.63622">
        <ele>1781.5</ele>
        <time>2020-02-08T15:16:53Z</time>
      </trkpt>
      <trkpt lat="42.7075" lon="1.63622">
        <ele>1781.5</ele>
        <time>2020-02-08T15:16:54Z</time>
      </trkpt>
      <trkpt lat="42.7075" lon="1.63622">
        <ele>1781.5</ele>
        <time>2020-02-08T15:16:55Z</time>
      </trkpt>
      <trkpt lat="42.7075" lon="1.63622">
        <ele>1781.5</ele>
        <time>2020-02-08T15:16:56Z</time>
      </trkpt>
      <trkpt lat="42.7075" lon="1.63622">
        <ele>1781.5</ele>
        <time>2020-02-08T15:16:57Z</time>
      </trkpt>
      <trkpt lat="42.7075" lon="1.63622">
        <ele>1781.5</ele>
        <time>2020-02-08T15:16:58Z</time>
      </trkpt>
      <trkpt lat="42.70749" lon="1.63622">
        <ele>1781.5</ele>
        <time>2020-02-08T15:16:59Z</time>
      </trkpt>
      <trkpt lat="42.70748" lon="1.63623">
        <ele>1781.5</ele>
        <time>2020-02-08T15:17:00Z</time>
      </trkpt>
      <trkpt lat="42.70748" lon="1.63623">
        <ele>1780.5</ele>
        <time>2020-02-08T15:17:01Z</time>
      </trkpt>
      <trkpt lat="42.70747" lon="1.63624">
        <ele>1780.8</ele>
        <time>2020-02-08T15:17:02Z</time>
      </trkpt>
      <trkpt lat="42.70747" lon="1.63624">
        <ele>1780.8</ele>
        <time>2020-02-08T15:17:03Z</time>
      </trkpt>
      <trkpt lat="42.70746" lon="1.63624">
        <ele>1780.8</ele>
        <time>2020-02-08T15:17:04Z</time>
      </trkpt>
      <trkpt lat="42.70745" lon="1.63625">
        <ele>1780.8</ele>
        <time>2020-02-08T15:17:05Z</time>
      </trkpt>
      <trkpt lat="42.70745" lon="1.63625">
        <ele>1779.9</ele>
        <time>2020-02-08T15:17:06Z</time>
      </trkpt>
      <trkpt lat="42.70744" lon="1.63625">
        <ele>1779.9</ele>
        <time>2020-02-08T15:17:07Z</time>
      </trkpt>
      <trkpt lat="42.70743" lon="1.63625">
        <ele>1779.9</ele>
        <time>2020-02-08T15:17:08Z</time>
      </trkpt>
      <trkpt lat="42.70743" lon="1.63624">
        <ele>1779.9</ele>
        <time>2020-02-08T15:17:09Z</time>
      </trkpt>
      <trkpt lat="42.70742" lon="1.63624">
        <ele>1779.9</ele>
        <time>2020-02-08T15:17:10Z</time>
      </trkpt>
      <trkpt lat="42.70742" lon="1.63624">
        <ele>1778.9</ele>
        <time>2020-02-08T15:17:11Z</time>
      </trkpt>
      <trkpt lat="42.70741" lon="1.63623">
        <ele>1778.6</ele>
        <time>2020-02-08T15:17:12Z</time>
      </trkpt>
      <trkpt lat="42.7074" lon="1.63623">
        <ele>1778.6</ele>
        <time>2020-02-08T15:17:13Z</time>
      </trkpt>
      <trkpt lat="42.7074" lon="1.63623">
        <ele>1778.6</ele>
        <time>2020-02-08T15:17:14Z</time>
      </trkpt>
      <trkpt lat="42.70739" lon="1.63622">
        <ele>1778.6</ele>
        <time>2020-02-08T15:17:15Z</time>
      </trkpt>
      <trkpt lat="42.70738" lon="1.63622">
        <ele>1777.7</ele>
        <time>2020-02-08T15:17:16Z</time>
      </trkpt>
      <trkpt lat="42.70738" lon="1.63621">
        <ele>1777.7</ele>
        <time>2020-02-08T15:17:17Z</time>
      </trkpt>
      <trkpt lat="42.70737" lon="1.63621">
        <ele>1777.7</ele>
        <time>2020-02-08T15:17:18Z</time>
      </trkpt>
      <trkpt lat="42.70737" lon="1.63622">
        <ele>1777.7</ele>
        <time>2020-02-08T15:17:19Z</time>
      </trkpt>
      <trkpt lat="42.70736" lon="1.63622">
        <ele>1777.7</ele>
        <time>2020-02-08T15:17:20Z</time>
      </trkpt>
      <trkpt lat="42.70735" lon="1.63622">
        <ele>1776.8</ele>
        <time>2020-02-08T15:17:21Z</time>
      </trkpt>
      <trkpt lat="42.70735" lon="1.63622">
        <ele>1776.8</ele>
        <time>2020-02-08T15:17:22Z</time>
      </trkpt>
      <trkpt lat="42.70734" lon="1.63622">
        <ele>1776.8</ele>
        <time>2020-02-08T15:17:23Z</time>
      </trkpt>
      <trkpt lat="42.70733" lon="1.63622">
        <ele>1776.8</ele>
        <time>2020-02-08T15:17:24Z</time>
      </trkpt>
      <trkpt lat="42.70732" lon="1.63622">
        <ele>1776.8</ele>
        <time>2020-02-08T15:17:25Z</time>
      </trkpt>
      <trkpt lat="42.70732" lon="1.63622">
        <ele>1775.8</ele>
        <time>2020-02-08T15:17:26Z</time>
      </trkpt>
      <trkpt lat="42.70731" lon="1.63622">
        <ele>1775.8</ele>
        <time>2020-02-08T15:17:27Z</time>
      </trkpt>
      <trkpt lat="42.70728" lon="1.63622">
        <ele>1774.9</ele>
        <time>2020-02-08T15:17:28Z</time>
      </trkpt>
      <trkpt lat="42.70728" lon="1.63622">
        <ele>1774.9</ele>
        <time>2020-02-08T15:17:29Z</time>
      </trkpt>
      <trkpt lat="42.70727" lon="1.63622">
        <ele>1774.9</ele>
        <time>2020-02-08T15:17:30Z</time>
      </trkpt>
      <trkpt lat="42.70727" lon="1.63622">
        <ele>1774.9</ele>
        <time>2020-02-08T15:17:31Z</time>
      </trkpt>
      <trkpt lat="42.70726" lon="1.63622">
        <ele>1774.9</ele>
        <time>2020-02-08T15:17:32Z</time>
      </trkpt>
      <trkpt lat="42.70725" lon="1.63623">
        <ele>1773.9</ele>
        <time>2020-02-08T15:17:33Z</time>
      </trkpt>
      <trkpt lat="42.70725" lon="1.63623">
        <ele>1773.9</ele>
        <time>2020-02-08T15:17:34Z</time>
      </trkpt>
      <trkpt lat="42.70724" lon="1.63623">
        <ele>1773.9</ele>
        <time>2020-02-08T15:17:35Z</time>
      </trkpt>
      <trkpt lat="42.70724" lon="1.63623">
        <ele>1773.9</ele>
        <time>2020-02-08T15:17:36Z</time>
      </trkpt>
      <trkpt lat="42.70723" lon="1.63623">
        <ele>1773.9</ele>
        <time>2020-02-08T15:17:37Z</time>
      </trkpt>
      <trkpt lat="42.70723" lon="1.63623">
        <ele>1772.9</ele>
        <time>2020-02-08T15:17:38Z</time>
      </trkpt>
      <trkpt lat="42.70722" lon="1.63624">
        <ele>1773.2</ele>
        <time>2020-02-08T15:17:39Z</time>
      </trkpt>
      <trkpt lat="42.70722" lon="1.63624">
        <ele>1773.2</ele>
        <time>2020-02-08T15:17:40Z</time>
      </trkpt>
      <trkpt lat="42.70721" lon="1.63624">
        <ele>1773.2</ele>
        <time>2020-02-08T15:17:41Z</time>
      </trkpt>
      <trkpt lat="42.7072" lon="1.63624">
        <ele>1773.2</ele>
        <time>2020-02-08T15:17:42Z</time>
      </trkpt>
      <trkpt lat="42.7072" lon="1.63624">
        <ele>1773.2</ele>
        <time>2020-02-08T15:17:43Z</time>
      </trkpt>
      <trkpt lat="42.70719" lon="1.63624">
        <ele>1772.1</ele>
        <time>2020-02-08T15:17:44Z</time>
      </trkpt>
      <trkpt lat="42.70719" lon="1.63625">
        <ele>1772.1</ele>
        <time>2020-02-08T15:17:45Z</time>
      </trkpt>
      <trkpt lat="42.70718" lon="1.63625">
        <ele>1772.1</ele>
        <time>2020-02-08T15:17:46Z</time>
      </trkpt>
      <trkpt lat="42.70718" lon="1.63625">
        <ele>1772.1</ele>
        <time>2020-02-08T15:17:47Z</time>
      </trkpt>
      <trkpt lat="42.70718" lon="1.63625">
        <ele>1772.1</ele>
        <time>2020-02-08T15:17:48Z</time>
      </trkpt>
      <trkpt lat="42.70715" lon="1.63625">
        <ele>1771.1</ele>
        <time>2020-02-08T15:17:49Z</time>
      </trkpt>
      <trkpt lat="42.70715" lon="1.63625">
        <ele>1771.1</ele>
        <time>2020-02-08T15:17:50Z</time>
      </trkpt>
      <trkpt lat="42.70715" lon="1.63625">
        <ele>1771.1</ele>
        <time>2020-02-08T15:17:51Z</time>
      </trkpt>
      <trkpt lat="42.70715" lon="1.63625">
        <ele>1771.1</ele>
        <time>2020-02-08T15:17:52Z</time>
      </trkpt>
      <trkpt lat="42.70715" lon="1.63625">
        <ele>1771.1</ele>
        <time>2020-02-08T15:17:53Z</time>
      </trkpt>
      <trkpt lat="42.70715" lon="1.63625">
        <ele>1771.1</ele>
        <time>2020-02-08T15:17:54Z</time>
      </trkpt>
      <trkpt lat="42.70715" lon="1.63625">
        <ele>1771.1</ele>
        <time>2020-02-08T15:17:55Z</time>
      </trkpt>
      <trkpt lat="42.70715" lon="1.63625">
        <ele>1771.1</ele>
        <time>2020-02-08T15:17:56Z</time>
      </trkpt>
      <trkpt lat="42.70713" lon="1.63625">
        <ele>1770.1</ele>
        <time>2020-02-08T15:17:57Z</time>
      </trkpt>
      <trkpt lat="42.70712" lon="1.63625">
        <ele>1770.1</ele>
        <time>2020-02-08T15:17:58Z</time>
      </trkpt>
      <trkpt lat="42.70711" lon="1.63625">
        <ele>1770.1</ele>
        <time>2020-02-08T15:17:59Z</time>
      </trkpt>
      <trkpt lat="42.7071" lon="1.63624">
        <ele>1770.1</ele>
        <time>2020-02-08T15:18:00Z</time>
      </trkpt>
      <trkpt lat="42.70709" lon="1.63624">
        <ele>1769</ele>
        <time>2020-02-08T15:18:01Z</time>
      </trkpt>
      <trkpt lat="42.70708" lon="1.63624">
        <ele>1769</ele>
        <time>2020-02-08T15:18:02Z</time>
      </trkpt>
      <trkpt lat="42.70708" lon="1.63623">
        <ele>1768.7</ele>
        <time>2020-02-08T15:18:03Z</time>
      </trkpt>
      <trkpt lat="42.70707" lon="1.63623">
        <ele>1767.7</ele>
        <time>2020-02-08T15:18:04Z</time>
      </trkpt>
      <trkpt lat="42.70706" lon="1.63623">
        <ele>1767.7</ele>
        <time>2020-02-08T15:18:05Z</time>
      </trkpt>
      <trkpt lat="42.70705" lon="1.63622">
        <ele>1767.7</ele>
        <time>2020-02-08T15:18:06Z</time>
      </trkpt>
      <trkpt lat="42.70704" lon="1.63622">
        <ele>1767.7</ele>
        <time>2020-02-08T15:18:07Z</time>
      </trkpt>
      <trkpt lat="42.70703" lon="1.63622">
        <ele>1766.8</ele>
        <time>2020-02-08T15:18:08Z</time>
      </trkpt>
      <trkpt lat="42.70703" lon="1.63621">
        <ele>1766.8</ele>
        <time>2020-02-08T15:18:09Z</time>
      </trkpt>
      <trkpt lat="42.70702" lon="1.63621">
        <ele>1766.8</ele>
        <time>2020-02-08T15:18:10Z</time>
      </trkpt>
      <trkpt lat="42.70701" lon="1.63621">
        <ele>1766.8</ele>
        <time>2020-02-08T15:18:11Z</time>
      </trkpt>
      <trkpt lat="42.70701" lon="1.6362">
        <ele>1766.8</ele>
        <time>2020-02-08T15:18:12Z</time>
      </trkpt>
      <trkpt lat="42.707" lon="1.6362">
        <ele>1765.7</ele>
        <time>2020-02-08T15:18:13Z</time>
      </trkpt>
      <trkpt lat="42.70699" lon="1.6362">
        <ele>1765.7</ele>
        <time>2020-02-08T15:18:14Z</time>
      </trkpt>
      <trkpt lat="42.70699" lon="1.63619">
        <ele>1765.7</ele>
        <time>2020-02-08T15:18:15Z</time>
      </trkpt>
      <trkpt lat="42.70698" lon="1.63619">
        <ele>1765.4</ele>
        <time>2020-02-08T15:18:16Z</time>
      </trkpt>
      <trkpt lat="42.70697" lon="1.63619">
        <ele>1764.3</ele>
        <time>2020-02-08T15:18:17Z</time>
      </trkpt>
      <trkpt lat="42.70697" lon="1.63618">
        <ele>1764.3</ele>
        <time>2020-02-08T15:18:18Z</time>
      </trkpt>
      <trkpt lat="42.70697" lon="1.63618">
        <ele>1764.3</ele>
        <time>2020-02-08T15:18:19Z</time>
      </trkpt>
      <trkpt lat="42.70697" lon="1.63618">
        <ele>1764.3</ele>
        <time>2020-02-08T15:18:20Z</time>
      </trkpt>
      <trkpt lat="42.70697" lon="1.63618">
        <ele>1764.3</ele>
        <time>2020-02-08T15:18:21Z</time>
      </trkpt>
      <trkpt lat="42.70696" lon="1.63618">
        <ele>1764.3</ele>
        <time>2020-02-08T15:18:22Z</time>
      </trkpt>
      <trkpt lat="42.70696" lon="1.63618">
        <ele>1764.3</ele>
        <time>2020-02-08T15:18:23Z</time>
      </trkpt>
      <trkpt lat="42.70696" lon="1.63618">
        <ele>1764.3</ele>
        <time>2020-02-08T15:18:24Z</time>
      </trkpt>
      <trkpt lat="42.70696" lon="1.63618">
        <ele>1764.3</ele>
        <time>2020-02-08T15:18:25Z</time>
      </trkpt>
      <trkpt lat="42.70696" lon="1.63618">
        <ele>1764.3</ele>
        <time>2020-02-08T15:18:26Z</time>
      </trkpt>
      <trkpt lat="42.70695" lon="1.63618">
        <ele>1764.3</ele>
        <time>2020-02-08T15:18:27Z</time>
      </trkpt>
      <trkpt lat="42.70694" lon="1.63618">
        <ele>1763.2</ele>
        <time>2020-02-08T15:18:28Z</time>
      </trkpt>
      <trkpt lat="42.70693" lon="1.63618">
        <ele>1763.2</ele>
        <time>2020-02-08T15:18:29Z</time>
      </trkpt>
      <trkpt lat="42.70692" lon="1.63618">
        <ele>1763.2</ele>
        <time>2020-02-08T15:18:30Z</time>
      </trkpt>
      <trkpt lat="42.70691" lon="1.63618">
        <ele>1762</ele>
        <time>2020-02-08T15:18:31Z</time>
      </trkpt>
      <trkpt lat="42.7069" lon="1.63619">
        <ele>1762</ele>
        <time>2020-02-08T15:18:32Z</time>
      </trkpt>
      <trkpt lat="42.70689" lon="1.63619">
        <ele>1762</ele>
        <time>2020-02-08T15:18:33Z</time>
      </trkpt>
      <trkpt lat="42.70688" lon="1.63619">
        <ele>1760.9</ele>
        <time>2020-02-08T15:18:34Z</time>
      </trkpt>
      <trkpt lat="42.70686" lon="1.63619">
        <ele>1760.9</ele>
        <time>2020-02-08T15:18:35Z</time>
      </trkpt>
      <trkpt lat="42.70685" lon="1.63619">
        <ele>1761.2</ele>
        <time>2020-02-08T15:18:36Z</time>
      </trkpt>
      <trkpt lat="42.70684" lon="1.63619">
        <ele>1760.1</ele>
        <time>2020-02-08T15:18:37Z</time>
      </trkpt>
      <trkpt lat="42.70684" lon="1.63619">
        <ele>1760.1</ele>
        <time>2020-02-08T15:18:38Z</time>
      </trkpt>
      <trkpt lat="42.70683" lon="1.63619">
        <ele>1759.8</ele>
        <time>2020-02-08T15:18:39Z</time>
      </trkpt>
      <trkpt lat="42.70682" lon="1.63619">
        <ele>1759.8</ele>
        <time>2020-02-08T15:18:40Z</time>
      </trkpt>
      <trkpt lat="42.70682" lon="1.63619">
        <ele>1758.8</ele>
        <time>2020-02-08T15:18:41Z</time>
      </trkpt>
      <trkpt lat="42.70681" lon="1.63618">
        <ele>1758.8</ele>
        <time>2020-02-08T15:18:42Z</time>
      </trkpt>
      <trkpt lat="42.7068" lon="1.63618">
        <ele>1758.8</ele>
        <time>2020-02-08T15:18:43Z</time>
      </trkpt>
      <trkpt lat="42.7068" lon="1.63618">
        <ele>1758.8</ele>
        <time>2020-02-08T15:18:44Z</time>
      </trkpt>
      <trkpt lat="42.70679" lon="1.63618">
        <ele>1758.8</ele>
        <time>2020-02-08T15:18:45Z</time>
      </trkpt>
      <trkpt lat="42.70678" lon="1.63618">
        <ele>1757.9</ele>
        <time>2020-02-08T15:18:46Z</time>
      </trkpt>
      <trkpt lat="42.70678" lon="1.63618">
        <ele>1757.9</ele>
        <time>2020-02-08T15:18:47Z</time>
      </trkpt>
      <trkpt lat="42.70675" lon="1.63618">
        <ele>1757</ele>
        <time>2020-02-08T15:18:48Z</time>
      </trkpt>
      <trkpt lat="42.70675" lon="1.63618">
        <ele>1757</ele>
        <time>2020-02-08T15:18:49Z</time>
      </trkpt>
      <trkpt lat="42.70674" lon="1.63618">
        <ele>1757</ele>
        <time>2020-02-08T15:18:50Z</time>
      </trkpt>
      <trkpt lat="42.70674" lon="1.63618">
        <ele>1757</ele>
        <time>2020-02-08T15:18:51Z</time>
      </trkpt>
      <trkpt lat="42.70674" lon="1.63618">
        <ele>1757</ele>
        <time>2020-02-08T15:18:52Z</time>
      </trkpt>
      <trkpt lat="42.70673" lon="1.63618">
        <ele>1757</ele>
        <time>2020-02-08T15:18:53Z</time>
      </trkpt>
      <trkpt lat="42.70673" lon="1.63618">
        <ele>1757</ele>
        <time>2020-02-08T15:18:54Z</time>
      </trkpt>
      <trkpt lat="42.70672" lon="1.63618">
        <ele>1757</ele>
        <time>2020-02-08T15:18:55Z</time>
      </trkpt>
      <trkpt lat="42.70672" lon="1.63618">
        <ele>1756</ele>
        <time>2020-02-08T15:18:56Z</time>
      </trkpt>
      <trkpt lat="42.70672" lon="1.63617">
        <ele>1756</ele>
        <time>2020-02-08T15:18:57Z</time>
      </trkpt>
      <trkpt lat="42.7067" lon="1.63618">
        <ele>1756</ele>
        <time>2020-02-08T15:18:58Z</time>
      </trkpt>
      <trkpt lat="42.7067" lon="1.63618">
        <ele>1756</ele>
        <time>2020-02-08T15:18:59Z</time>
      </trkpt>
      <trkpt lat="42.7067" lon="1.63618">
        <ele>1756</ele>
        <time>2020-02-08T15:19:00Z</time>
      </trkpt>
      <trkpt lat="42.7067" lon="1.63618">
        <ele>1756</ele>
        <time>2020-02-08T15:19:01Z</time>
      </trkpt>
      <trkpt lat="42.7067" lon="1.63618">
        <ele>1756</ele>
        <time>2020-02-08T15:19:02Z</time>
      </trkpt>
      <trkpt lat="42.7067" lon="1.63618">
        <ele>1756</ele>
        <time>2020-02-08T15:19:03Z</time>
      </trkpt>
      <trkpt lat="42.7067" lon="1.63618">
        <ele>1756</ele>
        <time>2020-02-08T15:19:04Z</time>
      </trkpt>
      <trkpt lat="42.7067" lon="1.63618">
        <ele>1756</ele>
        <time>2020-02-08T15:19:05Z</time>
      </trkpt>
      <trkpt lat="42.7067" lon="1.63618">
        <ele>1756</ele>
        <time>2020-02-08T15:19:06Z</time>
      </trkpt>
      <trkpt lat="42.7067" lon="1.63618">
        <ele>1756</ele>
        <time>2020-02-08T15:19:07Z</time>
      </trkpt>
      <trkpt lat="42.70669" lon="1.63619">
        <ele>1756</ele>
        <time>2020-02-08T15:19:08Z</time>
      </trkpt>
      <trkpt lat="42.70669" lon="1.63619">
        <ele>1755</ele>
        <time>2020-02-08T15:19:09Z</time>
      </trkpt>
      <trkpt lat="42.70668" lon="1.63619">
        <ele>1755</ele>
        <time>2020-02-08T15:19:10Z</time>
      </trkpt>
      <trkpt lat="42.70668" lon="1.63619">
        <ele>1755</ele>
        <time>2020-02-08T15:19:11Z</time>
      </trkpt>
      <trkpt lat="42.70668" lon="1.63619">
        <ele>1755</ele>
        <time>2020-02-08T15:19:12Z</time>
      </trkpt>
      <trkpt lat="42.70667" lon="1.63619">
        <ele>1755</ele>
        <time>2020-02-08T15:19:13Z</time>
      </trkpt>
      <trkpt lat="42.70667" lon="1.63619">
        <ele>1755</ele>
        <time>2020-02-08T15:19:14Z</time>
      </trkpt>
      <trkpt lat="42.70666" lon="1.63619">
        <ele>1755</ele>
        <time>2020-02-08T15:19:15Z</time>
      </trkpt>
      <trkpt lat="42.70666" lon="1.63619">
        <ele>1755.3</ele>
        <time>2020-02-08T15:19:16Z</time>
      </trkpt>
      <trkpt lat="42.70666" lon="1.63619">
        <ele>1753.6</ele>
        <time>2020-02-08T15:19:17Z</time>
      </trkpt>
      <trkpt lat="42.70663" lon="1.63619">
        <ele>1753.6</ele>
        <time>2020-02-08T15:19:18Z</time>
      </trkpt>
      <trkpt lat="42.70662" lon="1.63619">
        <ele>1752.7</ele>
        <time>2020-02-08T15:19:19Z</time>
      </trkpt>
      <trkpt lat="42.70662" lon="1.63619">
        <ele>1752.7</ele>
        <time>2020-02-08T15:19:20Z</time>
      </trkpt>
      <trkpt lat="42.70661" lon="1.63619">
        <ele>1752.7</ele>
        <time>2020-02-08T15:19:21Z</time>
      </trkpt>
      <trkpt lat="42.70661" lon="1.63619">
        <ele>1752.3</ele>
        <time>2020-02-08T15:19:22Z</time>
      </trkpt>
      <trkpt lat="42.7066" lon="1.63619">
        <ele>1752.3</ele>
        <time>2020-02-08T15:19:23Z</time>
      </trkpt>
      <trkpt lat="42.7066" lon="1.63619">
        <ele>1751.5</ele>
        <time>2020-02-08T15:19:24Z</time>
      </trkpt>
      <trkpt lat="42.70659" lon="1.63619">
        <ele>1751.5</ele>
        <time>2020-02-08T15:19:25Z</time>
      </trkpt>
      <trkpt lat="42.70659" lon="1.63619">
        <ele>1751.5</ele>
        <time>2020-02-08T15:19:26Z</time>
      </trkpt>
      <trkpt lat="42.70658" lon="1.63619">
        <ele>1751.5</ele>
        <time>2020-02-08T15:19:27Z</time>
      </trkpt>
      <trkpt lat="42.70657" lon="1.63618">
        <ele>1751.5</ele>
        <time>2020-02-08T15:19:28Z</time>
      </trkpt>
      <trkpt lat="42.70657" lon="1.63618">
        <ele>1751.5</ele>
        <time>2020-02-08T15:19:29Z</time>
      </trkpt>
      <trkpt lat="42.70656" lon="1.63617">
        <ele>1750.8</ele>
        <time>2020-02-08T15:19:30Z</time>
      </trkpt>
      <trkpt lat="42.70656" lon="1.63617">
        <ele>1750.8</ele>
        <time>2020-02-08T15:19:31Z</time>
      </trkpt>
      <trkpt lat="42.70655" lon="1.63617">
        <ele>1750.8</ele>
        <time>2020-02-08T15:19:32Z</time>
      </trkpt>
      <trkpt lat="42.70655" lon="1.63616">
        <ele>1750.8</ele>
        <time>2020-02-08T15:19:33Z</time>
      </trkpt>
      <trkpt lat="42.70654" lon="1.63616">
        <ele>1750.8</ele>
        <time>2020-02-08T15:19:34Z</time>
      </trkpt>
      <trkpt lat="42.70653" lon="1.63616">
        <ele>1750.1</ele>
        <time>2020-02-08T15:19:35Z</time>
      </trkpt>
      <trkpt lat="42.70653" lon="1.63615">
        <ele>1750.1</ele>
        <time>2020-02-08T15:19:36Z</time>
      </trkpt>
      <trkpt lat="42.70652" lon="1.63615">
        <ele>1750.1</ele>
        <time>2020-02-08T15:19:37Z</time>
      </trkpt>
      <trkpt lat="42.70652" lon="1.63615">
        <ele>1749.8</ele>
        <time>2020-02-08T15:19:38Z</time>
      </trkpt>
      <trkpt lat="42.70652" lon="1.63614">
        <ele>1749.8</ele>
        <time>2020-02-08T15:19:39Z</time>
      </trkpt>
      <trkpt lat="42.70651" lon="1.63614">
        <ele>1749.8</ele>
        <time>2020-02-08T15:19:40Z</time>
      </trkpt>
      <trkpt lat="42.70651" lon="1.63614">
        <ele>1749.8</ele>
        <time>2020-02-08T15:19:41Z</time>
      </trkpt>
      <trkpt lat="42.70651" lon="1.63614">
        <ele>1749.8</ele>
        <time>2020-02-08T15:19:42Z</time>
      </trkpt>
      <trkpt lat="42.7065" lon="1.63613">
        <ele>1749.8</ele>
        <time>2020-02-08T15:19:43Z</time>
      </trkpt>
      <trkpt lat="42.7065" lon="1.63613">
        <ele>1749</ele>
        <time>2020-02-08T15:19:44Z</time>
      </trkpt>
      <trkpt lat="42.7065" lon="1.63613">
        <ele>1749</ele>
        <time>2020-02-08T15:19:45Z</time>
      </trkpt>
      <trkpt lat="42.70649" lon="1.63612">
        <ele>1749</ele>
        <time>2020-02-08T15:19:46Z</time>
      </trkpt>
      <trkpt lat="42.70649" lon="1.63612">
        <ele>1749</ele>
        <time>2020-02-08T15:19:47Z</time>
      </trkpt>
      <trkpt lat="42.70649" lon="1.63612">
        <ele>1749</ele>
        <time>2020-02-08T15:19:48Z</time>
      </trkpt>
      <trkpt lat="42.70649" lon="1.63611">
        <ele>1749</ele>
        <time>2020-02-08T15:19:49Z</time>
      </trkpt>
      <trkpt lat="42.70649" lon="1.63611">
        <ele>1749</ele>
        <time>2020-02-08T15:19:50Z</time>
      </trkpt>
      <trkpt lat="42.70649" lon="1.6361">
        <ele>1748.7</ele>
        <time>2020-02-08T15:19:51Z</time>
      </trkpt>
      <trkpt lat="42.70649" lon="1.6361">
        <ele>1748.7</ele>
        <time>2020-02-08T15:19:52Z</time>
      </trkpt>
      <trkpt lat="42.70649" lon="1.63609">
        <ele>1748.7</ele>
        <time>2020-02-08T15:19:53Z</time>
      </trkpt>
      <trkpt lat="42.70649" lon="1.63609">
        <ele>1748.7</ele>
        <time>2020-02-08T15:19:54Z</time>
      </trkpt>
      <trkpt lat="42.70649" lon="1.63608">
        <ele>1748.7</ele>
        <time>2020-02-08T15:19:55Z</time>
      </trkpt>
      <trkpt lat="42.70648" lon="1.63608">
        <ele>1748.7</ele>
        <time>2020-02-08T15:19:56Z</time>
      </trkpt>
      <trkpt lat="42.70648" lon="1.63607">
        <ele>1748.7</ele>
        <time>2020-02-08T15:19:57Z</time>
      </trkpt>
      <trkpt lat="42.7065" lon="1.63604">
        <ele>1748.4</ele>
        <time>2020-02-08T15:19:58Z</time>
      </trkpt>
      <trkpt lat="42.7065" lon="1.63603">
        <ele>1748.4</ele>
        <time>2020-02-08T15:19:59Z</time>
      </trkpt>
      <trkpt lat="42.7065" lon="1.63603">
        <ele>1748.4</ele>
        <time>2020-02-08T15:20:00Z</time>
      </trkpt>
      <trkpt lat="42.7065" lon="1.63602">
        <ele>1748.4</ele>
        <time>2020-02-08T15:20:01Z</time>
      </trkpt>
      <trkpt lat="42.7065" lon="1.63602">
        <ele>1748.4</ele>
        <time>2020-02-08T15:20:02Z</time>
      </trkpt>
      <trkpt lat="42.7065" lon="1.63601">
        <ele>1748.1</ele>
        <time>2020-02-08T15:20:03Z</time>
      </trkpt>
      <trkpt lat="42.7065" lon="1.63601">
        <ele>1748.8</ele>
        <time>2020-02-08T15:20:04Z</time>
      </trkpt>
      <trkpt lat="42.7065" lon="1.636">
        <ele>1748.8</ele>
        <time>2020-02-08T15:20:05Z</time>
      </trkpt>
      <trkpt lat="42.7065" lon="1.636">
        <ele>1748.8</ele>
        <time>2020-02-08T15:20:06Z</time>
      </trkpt>
      <trkpt lat="42.7065" lon="1.63599">
        <ele>1748.8</ele>
        <time>2020-02-08T15:20:07Z</time>
      </trkpt>
      <trkpt lat="42.7065" lon="1.63599">
        <ele>1748.1</ele>
        <time>2020-02-08T15:20:08Z</time>
      </trkpt>
      <trkpt lat="42.70649" lon="1.63599">
        <ele>1748.1</ele>
        <time>2020-02-08T15:20:09Z</time>
      </trkpt>
      <trkpt lat="42.70649" lon="1.63599">
        <ele>1748.1</ele>
        <time>2020-02-08T15:20:10Z</time>
      </trkpt>
      <trkpt lat="42.70648" lon="1.63599">
        <ele>1748.1</ele>
        <time>2020-02-08T15:20:11Z</time>
      </trkpt>
      <trkpt lat="42.70647" lon="1.63599">
        <ele>1748.1</ele>
        <time>2020-02-08T15:20:12Z</time>
      </trkpt>
      <trkpt lat="42.70647" lon="1.63599">
        <ele>1747.2</ele>
        <time>2020-02-08T15:20:13Z</time>
      </trkpt>
      <trkpt lat="42.70646" lon="1.63598">
        <ele>1747.2</ele>
        <time>2020-02-08T15:20:14Z</time>
      </trkpt>
      <trkpt lat="42.70646" lon="1.63598">
        <ele>1747.2</ele>
        <time>2020-02-08T15:20:15Z</time>
      </trkpt>
      <trkpt lat="42.70645" lon="1.63598">
        <ele>1747.2</ele>
        <time>2020-02-08T15:20:16Z</time>
      </trkpt>
      <trkpt lat="42.70644" lon="1.63598">
        <ele>1747.2</ele>
        <time>2020-02-08T15:20:17Z</time>
      </trkpt>
      <trkpt lat="42.70641" lon="1.63598">
        <ele>1746.3</ele>
        <time>2020-02-08T15:20:18Z</time>
      </trkpt>
      <trkpt lat="42.70641" lon="1.63598">
        <ele>1745.3</ele>
        <time>2020-02-08T15:20:19Z</time>
      </trkpt>
      <trkpt lat="42.7064" lon="1.63597">
        <ele>1745</ele>
        <time>2020-02-08T15:20:20Z</time>
      </trkpt>
      <trkpt lat="42.70639" lon="1.63597">
        <ele>1745</ele>
        <time>2020-02-08T15:20:21Z</time>
      </trkpt>
      <trkpt lat="42.70638" lon="1.63597">
        <ele>1745</ele>
        <time>2020-02-08T15:20:22Z</time>
      </trkpt>
      <trkpt lat="42.70637" lon="1.63596">
        <ele>1744.1</ele>
        <time>2020-02-08T15:20:23Z</time>
      </trkpt>
      <trkpt lat="42.70636" lon="1.63596">
        <ele>1744.1</ele>
        <time>2020-02-08T15:20:24Z</time>
      </trkpt>
      <trkpt lat="42.70635" lon="1.63596">
        <ele>1744.1</ele>
        <time>2020-02-08T15:20:25Z</time>
      </trkpt>
      <trkpt lat="42.70634" lon="1.63595">
        <ele>1743.2</ele>
        <time>2020-02-08T15:20:26Z</time>
      </trkpt>
      <trkpt lat="42.70633" lon="1.63595">
        <ele>1743.2</ele>
        <time>2020-02-08T15:20:27Z</time>
      </trkpt>
      <trkpt lat="42.70632" lon="1.63594">
        <ele>1743.2</ele>
        <time>2020-02-08T15:20:28Z</time>
      </trkpt>
      <trkpt lat="42.70632" lon="1.63594">
        <ele>1743.2</ele>
        <time>2020-02-08T15:20:29Z</time>
      </trkpt>
      <trkpt lat="42.70632" lon="1.63594">
        <ele>1743.2</ele>
        <time>2020-02-08T15:20:30Z</time>
      </trkpt>
      <trkpt lat="42.70632" lon="1.63594">
        <ele>1743.2</ele>
        <time>2020-02-08T15:20:31Z</time>
      </trkpt>
      <trkpt lat="42.70632" lon="1.63594">
        <ele>1743.2</ele>
        <time>2020-02-08T15:20:32Z</time>
      </trkpt>
      <trkpt lat="42.70632" lon="1.63594">
        <ele>1743.2</ele>
        <time>2020-02-08T15:20:33Z</time>
      </trkpt>
      <trkpt lat="42.70632" lon="1.63594">
        <ele>1743.2</ele>
        <time>2020-02-08T15:20:34Z</time>
      </trkpt>
      <trkpt lat="42.70632" lon="1.63594">
        <ele>1743.2</ele>
        <time>2020-02-08T15:20:35Z</time>
      </trkpt>
      <trkpt lat="42.70632" lon="1.63594">
        <ele>1743.2</ele>
        <time>2020-02-08T15:20:36Z</time>
      </trkpt>
      <trkpt lat="42.70632" lon="1.63594">
        <ele>1743.2</ele>
        <time>2020-02-08T15:20:37Z</time>
      </trkpt>
      <trkpt lat="42.70632" lon="1.63594">
        <ele>1743.2</ele>
        <time>2020-02-08T15:20:38Z</time>
      </trkpt>
      <trkpt lat="42.70631" lon="1.63593">
        <ele>1742.4</ele>
        <time>2020-02-08T15:20:39Z</time>
      </trkpt>
      <trkpt lat="42.70631" lon="1.63593">
        <ele>1742.1</ele>
        <time>2020-02-08T15:20:40Z</time>
      </trkpt>
      <trkpt lat="42.7063" lon="1.63592">
        <ele>1742.1</ele>
        <time>2020-02-08T15:20:41Z</time>
      </trkpt>
      <trkpt lat="42.7063" lon="1.63592">
        <ele>1742.1</ele>
        <time>2020-02-08T15:20:42Z</time>
      </trkpt>
      <trkpt lat="42.70629" lon="1.63592">
        <ele>1742.1</ele>
        <time>2020-02-08T15:20:43Z</time>
      </trkpt>
      <trkpt lat="42.70629" lon="1.63591">
        <ele>1742.1</ele>
        <time>2020-02-08T15:20:44Z</time>
      </trkpt>
      <trkpt lat="42.70628" lon="1.63591">
        <ele>1742.1</ele>
        <time>2020-02-08T15:20:45Z</time>
      </trkpt>
      <trkpt lat="42.70628" lon="1.6359">
        <ele>1741.2</ele>
        <time>2020-02-08T15:20:46Z</time>
      </trkpt>
      <trkpt lat="42.70627" lon="1.6359">
        <ele>1741.2</ele>
        <time>2020-02-08T15:20:47Z</time>
      </trkpt>
      <trkpt lat="42.70627" lon="1.63589">
        <ele>1740.9</ele>
        <time>2020-02-08T15:20:48Z</time>
      </trkpt>
      <trkpt lat="42.70626" lon="1.63589">
        <ele>1740.9</ele>
        <time>2020-02-08T15:20:49Z</time>
      </trkpt>
      <trkpt lat="42.70626" lon="1.63588">
        <ele>1740.9</ele>
        <time>2020-02-08T15:20:50Z</time>
      </trkpt>
      <trkpt lat="42.70626" lon="1.63587">
        <ele>1740.9</ele>
        <time>2020-02-08T15:20:51Z</time>
      </trkpt>
      <trkpt lat="42.70625" lon="1.63587">
        <ele>1740.9</ele>
        <time>2020-02-08T15:20:52Z</time>
      </trkpt>
      <trkpt lat="42.70625" lon="1.63586">
        <ele>1740</ele>
        <time>2020-02-08T15:20:53Z</time>
      </trkpt>
      <trkpt lat="42.70624" lon="1.63586">
        <ele>1740</ele>
        <time>2020-02-08T15:20:54Z</time>
      </trkpt>
      <trkpt lat="42.70624" lon="1.63585">
        <ele>1740</ele>
        <time>2020-02-08T15:20:55Z</time>
      </trkpt>
      <trkpt lat="42.70623" lon="1.63585">
        <ele>1739.7</ele>
        <time>2020-02-08T15:20:56Z</time>
      </trkpt>
      <trkpt lat="42.70623" lon="1.63584">
        <ele>1739.7</ele>
        <time>2020-02-08T15:20:57Z</time>
      </trkpt>
      <trkpt lat="42.70623" lon="1.63583">
        <ele>1739.7</ele>
        <time>2020-02-08T15:20:58Z</time>
      </trkpt>
      <trkpt lat="42.70622" lon="1.63582">
        <ele>1739.7</ele>
        <time>2020-02-08T15:20:59Z</time>
      </trkpt>
      <trkpt lat="42.70622" lon="1.63582">
        <ele>1739.7</ele>
        <time>2020-02-08T15:21:00Z</time>
      </trkpt>
      <trkpt lat="42.70622" lon="1.63581">
        <ele>1738.7</ele>
        <time>2020-02-08T15:21:01Z</time>
      </trkpt>
      <trkpt lat="42.70622" lon="1.6358">
        <ele>1738.4</ele>
        <time>2020-02-08T15:21:02Z</time>
      </trkpt>
      <trkpt lat="42.70621" lon="1.63579">
        <ele>1738.4</ele>
        <time>2020-02-08T15:21:03Z</time>
      </trkpt>
      <trkpt lat="42.70621" lon="1.63578">
        <ele>1738.4</ele>
        <time>2020-02-08T15:21:04Z</time>
      </trkpt>
      <trkpt lat="42.70621" lon="1.63577">
        <ele>1738.4</ele>
        <time>2020-02-08T15:21:05Z</time>
      </trkpt>
      <trkpt lat="42.7062" lon="1.63576">
        <ele>1738.4</ele>
        <time>2020-02-08T15:21:06Z</time>
      </trkpt>
      <trkpt lat="42.7062" lon="1.63575">
        <ele>1738.1</ele>
        <time>2020-02-08T15:21:07Z</time>
      </trkpt>
      <trkpt lat="42.70619" lon="1.63572">
        <ele>1736.9</ele>
        <time>2020-02-08T15:21:08Z</time>
      </trkpt>
      <trkpt lat="42.70618" lon="1.63572">
        <ele>1736.6</ele>
        <time>2020-02-08T15:21:09Z</time>
      </trkpt>
      <trkpt lat="42.70618" lon="1.63571">
        <ele>1736.6</ele>
        <time>2020-02-08T15:21:10Z</time>
      </trkpt>
      <trkpt lat="42.70617" lon="1.6357">
        <ele>1736.6</ele>
        <time>2020-02-08T15:21:11Z</time>
      </trkpt>
      <trkpt lat="42.70617" lon="1.63569">
        <ele>1736.6</ele>
        <time>2020-02-08T15:21:12Z</time>
      </trkpt>
      <trkpt lat="42.70617" lon="1.63569">
        <ele>1736.6</ele>
        <time>2020-02-08T15:21:13Z</time>
      </trkpt>
      <trkpt lat="42.70616" lon="1.63568">
        <ele>1736.6</ele>
        <time>2020-02-08T15:21:14Z</time>
      </trkpt>
      <trkpt lat="42.70616" lon="1.63567">
        <ele>1736.3</ele>
        <time>2020-02-08T15:21:15Z</time>
      </trkpt>
      <trkpt lat="42.70615" lon="1.63567">
        <ele>1735</ele>
        <time>2020-02-08T15:21:16Z</time>
      </trkpt>
      <trkpt lat="42.70615" lon="1.63566">
        <ele>1735</ele>
        <time>2020-02-08T15:21:17Z</time>
      </trkpt>
      <trkpt lat="42.70615" lon="1.63565">
        <ele>1735</ele>
        <time>2020-02-08T15:21:18Z</time>
      </trkpt>
      <trkpt lat="42.70615" lon="1.63564">
        <ele>1735</ele>
        <time>2020-02-08T15:21:19Z</time>
      </trkpt>
      <trkpt lat="42.70615" lon="1.63563">
        <ele>1735</ele>
        <time>2020-02-08T15:21:20Z</time>
      </trkpt>
      <trkpt lat="42.70615" lon="1.63563">
        <ele>1734.7</ele>
        <time>2020-02-08T15:21:21Z</time>
      </trkpt>
      <trkpt lat="42.70615" lon="1.63562">
        <ele>1734.7</ele>
        <time>2020-02-08T15:21:22Z</time>
      </trkpt>
      <trkpt lat="42.70615" lon="1.63561">
        <ele>1734.7</ele>
        <time>2020-02-08T15:21:23Z</time>
      </trkpt>
      <trkpt lat="42.70615" lon="1.6356">
        <ele>1734.7</ele>
        <time>2020-02-08T15:21:24Z</time>
      </trkpt>
      <trkpt lat="42.70615" lon="1.63559">
        <ele>1734.7</ele>
        <time>2020-02-08T15:21:25Z</time>
      </trkpt>
      <trkpt lat="42.70615" lon="1.63558">
        <ele>1734.4</ele>
        <time>2020-02-08T15:21:26Z</time>
      </trkpt>
      <trkpt lat="42.70615" lon="1.63558">
        <ele>1734.4</ele>
        <time>2020-02-08T15:21:27Z</time>
      </trkpt>
      <trkpt lat="42.70614" lon="1.63557">
        <ele>1734.4</ele>
        <time>2020-02-08T15:21:28Z</time>
      </trkpt>
      <trkpt lat="42.70614" lon="1.63557">
        <ele>1734.4</ele>
        <time>2020-02-08T15:21:29Z</time>
      </trkpt>
      <trkpt lat="42.70614" lon="1.63556">
        <ele>1734.4</ele>
        <time>2020-02-08T15:21:30Z</time>
      </trkpt>
      <trkpt lat="42.70613" lon="1.63555">
        <ele>1734.4</ele>
        <time>2020-02-08T15:21:31Z</time>
      </trkpt>
      <trkpt lat="42.70613" lon="1.63555">
        <ele>1734.4</ele>
        <time>2020-02-08T15:21:32Z</time>
      </trkpt>
      <trkpt lat="42.70612" lon="1.63554">
        <ele>1732.8</ele>
        <time>2020-02-08T15:21:33Z</time>
      </trkpt>
      <trkpt lat="42.70612" lon="1.63554">
        <ele>1732.8</ele>
        <time>2020-02-08T15:21:34Z</time>
      </trkpt>
      <trkpt lat="42.70612" lon="1.63553">
        <ele>1732.8</ele>
        <time>2020-02-08T15:21:35Z</time>
      </trkpt>
      <trkpt lat="42.70611" lon="1.63553">
        <ele>1732.8</ele>
        <time>2020-02-08T15:21:36Z</time>
      </trkpt>
      <trkpt lat="42.70611" lon="1.63552">
        <ele>1732.8</ele>
        <time>2020-02-08T15:21:37Z</time>
      </trkpt>
      <trkpt lat="42.7061" lon="1.63551">
        <ele>1732.8</ele>
        <time>2020-02-08T15:21:38Z</time>
      </trkpt>
      <trkpt lat="42.7061" lon="1.63551">
        <ele>1732.8</ele>
        <time>2020-02-08T15:21:39Z</time>
      </trkpt>
      <trkpt lat="42.7061" lon="1.6355">
        <ele>1732.6</ele>
        <time>2020-02-08T15:21:40Z</time>
      </trkpt>
      <trkpt lat="42.70609" lon="1.63549">
        <ele>1732.6</ele>
        <time>2020-02-08T15:21:41Z</time>
      </trkpt>
      <trkpt lat="42.70609" lon="1.63549">
        <ele>1731.2</ele>
        <time>2020-02-08T15:21:42Z</time>
      </trkpt>
      <trkpt lat="42.70608" lon="1.63548">
        <ele>1731.2</ele>
        <time>2020-02-08T15:21:43Z</time>
      </trkpt>
      <trkpt lat="42.70608" lon="1.63547">
        <ele>1731.2</ele>
        <time>2020-02-08T15:21:44Z</time>
      </trkpt>
      <trkpt lat="42.70608" lon="1.63547">
        <ele>1731.2</ele>
        <time>2020-02-08T15:21:45Z</time>
      </trkpt>
      <trkpt lat="42.70607" lon="1.63546">
        <ele>1731.2</ele>
        <time>2020-02-08T15:21:46Z</time>
      </trkpt>
      <trkpt lat="42.70607" lon="1.63546">
        <ele>1731</ele>
        <time>2020-02-08T15:21:47Z</time>
      </trkpt>
      <trkpt lat="42.70605" lon="1.63544">
        <ele>1729.7</ele>
        <time>2020-02-08T15:21:48Z</time>
      </trkpt>
      <trkpt lat="42.70605" lon="1.63544">
        <ele>1729.7</ele>
        <time>2020-02-08T15:21:49Z</time>
      </trkpt>
      <trkpt lat="42.70605" lon="1.63544">
        <ele>1729.7</ele>
        <time>2020-02-08T15:21:50Z</time>
      </trkpt>
      <trkpt lat="42.70604" lon="1.63542">
        <ele>1729.7</ele>
        <time>2020-02-08T15:21:51Z</time>
      </trkpt>
      <trkpt lat="42.70604" lon="1.63542">
        <ele>1729.7</ele>
        <time>2020-02-08T15:21:52Z</time>
      </trkpt>
      <trkpt lat="42.70604" lon="1.63542">
        <ele>1729.7</ele>
        <time>2020-02-08T15:21:53Z</time>
      </trkpt>
      <trkpt lat="42.70604" lon="1.63542">
        <ele>1729.7</ele>
        <time>2020-02-08T15:21:54Z</time>
      </trkpt>
      <trkpt lat="42.70604" lon="1.63542">
        <ele>1729.7</ele>
        <time>2020-02-08T15:21:55Z</time>
      </trkpt>
      <trkpt lat="42.70604" lon="1.63542">
        <ele>1729.7</ele>
        <time>2020-02-08T15:21:56Z</time>
      </trkpt>
      <trkpt lat="42.70604" lon="1.63542">
        <ele>1729.7</ele>
        <time>2020-02-08T15:21:57Z</time>
      </trkpt>
      <trkpt lat="42.70604" lon="1.63542">
        <ele>1729.7</ele>
        <time>2020-02-08T15:21:58Z</time>
      </trkpt>
      <trkpt lat="42.70604" lon="1.63542">
        <ele>1729.7</ele>
        <time>2020-02-08T15:21:59Z</time>
      </trkpt>
      <trkpt lat="42.70604" lon="1.63542">
        <ele>1729.7</ele>
        <time>2020-02-08T15:22:00Z</time>
      </trkpt>
      <trkpt lat="42.70604" lon="1.63542">
        <ele>1729.7</ele>
        <time>2020-02-08T15:22:01Z</time>
      </trkpt>
      <trkpt lat="42.70604" lon="1.63542">
        <ele>1729.7</ele>
        <time>2020-02-08T15:22:02Z</time>
      </trkpt>
      <trkpt lat="42.70604" lon="1.63542">
        <ele>1729.7</ele>
        <time>2020-02-08T15:22:03Z</time>
      </trkpt>
      <trkpt lat="42.70602" lon="1.63541">
        <ele>1728.3</ele>
        <time>2020-02-08T15:22:04Z</time>
      </trkpt>
      <trkpt lat="42.70602" lon="1.63541">
        <ele>1728.3</ele>
        <time>2020-02-08T15:22:05Z</time>
      </trkpt>
      <trkpt lat="42.70602" lon="1.63541">
        <ele>1728.3</ele>
        <time>2020-02-08T15:22:06Z</time>
      </trkpt>
      <trkpt lat="42.706" lon="1.63542">
        <ele>1727.2</ele>
        <time>2020-02-08T15:22:07Z</time>
      </trkpt>
      <trkpt lat="42.70599" lon="1.63542">
        <ele>1727.2</ele>
        <time>2020-02-08T15:22:08Z</time>
      </trkpt>
      <trkpt lat="42.70599" lon="1.63542">
        <ele>1727.2</ele>
        <time>2020-02-08T15:22:09Z</time>
      </trkpt>
      <trkpt lat="42.70599" lon="1.63542">
        <ele>1727.2</ele>
        <time>2020-02-08T15:22:10Z</time>
      </trkpt>
      <trkpt lat="42.70598" lon="1.63542">
        <ele>1727.2</ele>
        <time>2020-02-08T15:22:11Z</time>
      </trkpt>
      <trkpt lat="42.70598" lon="1.63542">
        <ele>1727.2</ele>
        <time>2020-02-08T15:22:12Z</time>
      </trkpt>
      <trkpt lat="42.70597" lon="1.63542">
        <ele>1727.2</ele>
        <time>2020-02-08T15:22:13Z</time>
      </trkpt>
      <trkpt lat="42.70597" lon="1.63542">
        <ele>1727.2</ele>
        <time>2020-02-08T15:22:14Z</time>
      </trkpt>
      <trkpt lat="42.70597" lon="1.63542">
        <ele>1727.2</ele>
        <time>2020-02-08T15:22:15Z</time>
      </trkpt>
      <trkpt lat="42.70596" lon="1.63542">
        <ele>1725.9</ele>
        <time>2020-02-08T15:22:16Z</time>
      </trkpt>
      <trkpt lat="42.70596" lon="1.63542">
        <ele>1725.9</ele>
        <time>2020-02-08T15:22:17Z</time>
      </trkpt>
      <trkpt lat="42.70596" lon="1.63542">
        <ele>1725.7</ele>
        <time>2020-02-08T15:22:18Z</time>
      </trkpt>
      <trkpt lat="42.70595" lon="1.63541">
        <ele>1725.7</ele>
        <time>2020-02-08T15:22:19Z</time>
      </trkpt>
      <trkpt lat="42.70595" lon="1.63541">
        <ele>1725.7</ele>
        <time>2020-02-08T15:22:20Z</time>
      </trkpt>
      <trkpt lat="42.70595" lon="1.63541">
        <ele>1725.7</ele>
        <time>2020-02-08T15:22:21Z</time>
      </trkpt>
      <trkpt lat="42.70594" lon="1.6354">
        <ele>1725.7</ele>
        <time>2020-02-08T15:22:22Z</time>
      </trkpt>
      <trkpt lat="42.70594" lon="1.6354">
        <ele>1725.7</ele>
        <time>2020-02-08T15:22:23Z</time>
      </trkpt>
      <trkpt lat="42.70594" lon="1.6354">
        <ele>1725.7</ele>
        <time>2020-02-08T15:22:24Z</time>
      </trkpt>
      <trkpt lat="42.70593" lon="1.63539">
        <ele>1724.4</ele>
        <time>2020-02-08T15:22:25Z</time>
      </trkpt>
      <trkpt lat="42.70593" lon="1.63539">
        <ele>1724.4</ele>
        <time>2020-02-08T15:22:26Z</time>
      </trkpt>
      <trkpt lat="42.70593" lon="1.63539">
        <ele>1724.4</ele>
        <time>2020-02-08T15:22:27Z</time>
      </trkpt>
      <trkpt lat="42.70593" lon="1.63538">
        <ele>1724.4</ele>
        <time>2020-02-08T15:22:28Z</time>
      </trkpt>
      <trkpt lat="42.70592" lon="1.63538">
        <ele>1724.4</ele>
        <time>2020-02-08T15:22:29Z</time>
      </trkpt>
      <trkpt lat="42.70592" lon="1.63538">
        <ele>1724.4</ele>
        <time>2020-02-08T15:22:30Z</time>
      </trkpt>
      <trkpt lat="42.70592" lon="1.63538">
        <ele>1724.3</ele>
        <time>2020-02-08T15:22:31Z</time>
      </trkpt>
      <trkpt lat="42.70591" lon="1.63537">
        <ele>1724.3</ele>
        <time>2020-02-08T15:22:32Z</time>
      </trkpt>
      <trkpt lat="42.70591" lon="1.63537">
        <ele>1724.3</ele>
        <time>2020-02-08T15:22:33Z</time>
      </trkpt>
      <trkpt lat="42.70591" lon="1.63537">
        <ele>1724.3</ele>
        <time>2020-02-08T15:22:34Z</time>
      </trkpt>
      <trkpt lat="42.70591" lon="1.63536">
        <ele>1724.3</ele>
        <time>2020-02-08T15:22:35Z</time>
      </trkpt>
      <trkpt lat="42.7059" lon="1.63536">
        <ele>1723</ele>
        <time>2020-02-08T15:22:36Z</time>
      </trkpt>
      <trkpt lat="42.7059" lon="1.63536">
        <ele>1723</ele>
        <time>2020-02-08T15:22:37Z</time>
      </trkpt>
      <trkpt lat="42.70589" lon="1.63536">
        <ele>1723</ele>
        <time>2020-02-08T15:22:38Z</time>
      </trkpt>
      <trkpt lat="42.70589" lon="1.63536">
        <ele>1723</ele>
        <time>2020-02-08T15:22:39Z</time>
      </trkpt>
      <trkpt lat="42.70588" lon="1.63536">
        <ele>1723</ele>
        <time>2020-02-08T15:22:40Z</time>
      </trkpt>
      <trkpt lat="42.70588" lon="1.63537">
        <ele>1723</ele>
        <time>2020-02-08T15:22:41Z</time>
      </trkpt>
      <trkpt lat="42.70587" lon="1.63537">
        <ele>1721.6</ele>
        <time>2020-02-08T15:22:42Z</time>
      </trkpt>
      <trkpt lat="42.70587" lon="1.63537">
        <ele>1721.6</ele>
        <time>2020-02-08T15:22:43Z</time>
      </trkpt>
      <trkpt lat="42.70586" lon="1.63538">
        <ele>1721.6</ele>
        <time>2020-02-08T15:22:44Z</time>
      </trkpt>
      <trkpt lat="42.70585" lon="1.63538">
        <ele>1721.8</ele>
        <time>2020-02-08T15:22:45Z</time>
      </trkpt>
      <trkpt lat="42.70585" lon="1.63538">
        <ele>1721.8</ele>
        <time>2020-02-08T15:22:46Z</time>
      </trkpt>
      <trkpt lat="42.70584" lon="1.63538">
        <ele>1721.8</ele>
        <time>2020-02-08T15:22:47Z</time>
      </trkpt>
      <trkpt lat="42.70584" lon="1.63538">
        <ele>1721.8</ele>
        <time>2020-02-08T15:22:48Z</time>
      </trkpt>
      <trkpt lat="42.70584" lon="1.63538">
        <ele>1721.8</ele>
        <time>2020-02-08T15:22:49Z</time>
      </trkpt>
      <trkpt lat="42.70584" lon="1.63538">
        <ele>1721.8</ele>
        <time>2020-02-08T15:22:50Z</time>
      </trkpt>
      <trkpt lat="42.70584" lon="1.63538">
        <ele>1721.8</ele>
        <time>2020-02-08T15:22:51Z</time>
      </trkpt>
      <trkpt lat="42.70584" lon="1.63538">
        <ele>1721.8</ele>
        <time>2020-02-08T15:22:52Z</time>
      </trkpt>
      <trkpt lat="42.70583" lon="1.63538">
        <ele>1720.4</ele>
        <time>2020-02-08T15:22:53Z</time>
      </trkpt>
      <trkpt lat="42.70583" lon="1.63538">
        <ele>1720.4</ele>
        <time>2020-02-08T15:22:54Z</time>
      </trkpt>
      <trkpt lat="42.70583" lon="1.63538">
        <ele>1720.4</ele>
        <time>2020-02-08T15:22:55Z</time>
      </trkpt>
      <trkpt lat="42.70583" lon="1.63538">
        <ele>1720.4</ele>
        <time>2020-02-08T15:22:56Z</time>
      </trkpt>
      <trkpt lat="42.70583" lon="1.63538">
        <ele>1720.4</ele>
        <time>2020-02-08T15:22:57Z</time>
      </trkpt>
      <trkpt lat="42.7058" lon="1.63537">
        <ele>1718.8</ele>
        <time>2020-02-08T15:22:58Z</time>
      </trkpt>
      <trkpt lat="42.7058" lon="1.63537">
        <ele>1718.8</ele>
        <time>2020-02-08T15:22:59Z</time>
      </trkpt>
      <trkpt lat="42.7058" lon="1.63537">
        <ele>1718.8</ele>
        <time>2020-02-08T15:23:00Z</time>
      </trkpt>
      <trkpt lat="42.7058" lon="1.63537">
        <ele>1718.8</ele>
        <time>2020-02-08T15:23:01Z</time>
      </trkpt>
      <trkpt lat="42.7058" lon="1.63537">
        <ele>1718.8</ele>
        <time>2020-02-08T15:23:02Z</time>
      </trkpt>
      <trkpt lat="42.7058" lon="1.63537">
        <ele>1718.8</ele>
        <time>2020-02-08T15:23:03Z</time>
      </trkpt>
      <trkpt lat="42.70579" lon="1.63537">
        <ele>1718.8</ele>
        <time>2020-02-08T15:23:04Z</time>
      </trkpt>
      <trkpt lat="42.70579" lon="1.63537">
        <ele>1718.8</ele>
        <time>2020-02-08T15:23:05Z</time>
      </trkpt>
      <trkpt lat="42.70579" lon="1.63536">
        <ele>1718.8</ele>
        <time>2020-02-08T15:23:06Z</time>
      </trkpt>
      <trkpt lat="42.70579" lon="1.63536">
        <ele>1718.8</ele>
        <time>2020-02-08T15:23:07Z</time>
      </trkpt>
      <trkpt lat="42.70578" lon="1.63533">
        <ele>1717.3</ele>
        <time>2020-02-08T15:23:08Z</time>
      </trkpt>
      <trkpt lat="42.70577" lon="1.63533">
        <ele>1717.1</ele>
        <time>2020-02-08T15:23:09Z</time>
      </trkpt>
      <trkpt lat="42.70577" lon="1.63532">
        <ele>1717.1</ele>
        <time>2020-02-08T15:23:10Z</time>
      </trkpt>
      <trkpt lat="42.70577" lon="1.63532">
        <ele>1717.1</ele>
        <time>2020-02-08T15:23:11Z</time>
      </trkpt>
      <trkpt lat="42.70577" lon="1.63531">
        <ele>1717.1</ele>
        <time>2020-02-08T15:23:12Z</time>
      </trkpt>
      <trkpt lat="42.70576" lon="1.63531">
        <ele>1717.1</ele>
        <time>2020-02-08T15:23:13Z</time>
      </trkpt>
      <trkpt lat="42.70576" lon="1.6353">
        <ele>1717.1</ele>
        <time>2020-02-08T15:23:14Z</time>
      </trkpt>
      <trkpt lat="42.70576" lon="1.6353">
        <ele>1717.1</ele>
        <time>2020-02-08T15:23:15Z</time>
      </trkpt>
      <trkpt lat="42.70576" lon="1.6353">
        <ele>1717.1</ele>
        <time>2020-02-08T15:23:16Z</time>
      </trkpt>
      <trkpt lat="42.70576" lon="1.63529">
        <ele>1717.1</ele>
        <time>2020-02-08T15:23:17Z</time>
      </trkpt>
      <trkpt lat="42.70574" lon="1.63526">
        <ele>1715.5</ele>
        <time>2020-02-08T15:23:18Z</time>
      </trkpt>
      <trkpt lat="42.70574" lon="1.63526">
        <ele>1715.5</ele>
        <time>2020-02-08T15:23:19Z</time>
      </trkpt>
      <trkpt lat="42.70574" lon="1.63525">
        <ele>1715.5</ele>
        <time>2020-02-08T15:23:20Z</time>
      </trkpt>
      <trkpt lat="42.70574" lon="1.63524">
        <ele>1715.3</ele>
        <time>2020-02-08T15:23:21Z</time>
      </trkpt>
      <trkpt lat="42.70574" lon="1.63524">
        <ele>1715.3</ele>
        <time>2020-02-08T15:23:22Z</time>
      </trkpt>
      <trkpt lat="42.70573" lon="1.63523">
        <ele>1715.3</ele>
        <time>2020-02-08T15:23:23Z</time>
      </trkpt>
      <trkpt lat="42.70573" lon="1.63523">
        <ele>1715.3</ele>
        <time>2020-02-08T15:23:24Z</time>
      </trkpt>
      <trkpt lat="42.70573" lon="1.63522">
        <ele>1715.3</ele>
        <time>2020-02-08T15:23:25Z</time>
      </trkpt>
      <trkpt lat="42.70573" lon="1.63522">
        <ele>1715.3</ele>
        <time>2020-02-08T15:23:26Z</time>
      </trkpt>
      <trkpt lat="42.70573" lon="1.63521">
        <ele>1715.3</ele>
        <time>2020-02-08T15:23:27Z</time>
      </trkpt>
      <trkpt lat="42.70573" lon="1.63521">
        <ele>1715.3</ele>
        <time>2020-02-08T15:23:28Z</time>
      </trkpt>
      <trkpt lat="42.70573" lon="1.63521">
        <ele>1715.3</ele>
        <time>2020-02-08T15:23:29Z</time>
      </trkpt>
      <trkpt lat="42.70573" lon="1.63521">
        <ele>1715.3</ele>
        <time>2020-02-08T15:23:30Z</time>
      </trkpt>
      <trkpt lat="42.70573" lon="1.63521">
        <ele>1715.3</ele>
        <time>2020-02-08T15:23:31Z</time>
      </trkpt>
      <trkpt lat="42.70573" lon="1.63521">
        <ele>1715.3</ele>
        <time>2020-02-08T15:23:32Z</time>
      </trkpt>
      <trkpt lat="42.70573" lon="1.63521">
        <ele>1715.3</ele>
        <time>2020-02-08T15:23:33Z</time>
      </trkpt>
      <trkpt lat="42.70573" lon="1.63521">
        <ele>1715.3</ele>
        <time>2020-02-08T15:23:34Z</time>
      </trkpt>
      <trkpt lat="42.70573" lon="1.63521">
        <ele>1715.3</ele>
        <time>2020-02-08T15:23:35Z</time>
      </trkpt>
      <trkpt lat="42.70573" lon="1.63521">
        <ele>1715.3</ele>
        <time>2020-02-08T15:23:36Z</time>
      </trkpt>
      <trkpt lat="42.70573" lon="1.63521">
        <ele>1715.3</ele>
        <time>2020-02-08T15:23:37Z</time>
      </trkpt>
      <trkpt lat="42.70573" lon="1.63521">
        <ele>1715.3</ele>
        <time>2020-02-08T15:23:38Z</time>
      </trkpt>
      <trkpt lat="42.70573" lon="1.63521">
        <ele>1715.3</ele>
        <time>2020-02-08T15:23:39Z</time>
      </trkpt>
      <trkpt lat="42.70573" lon="1.63521">
        <ele>1715.3</ele>
        <time>2020-02-08T15:23:40Z</time>
      </trkpt>
      <trkpt lat="42.70573" lon="1.63521">
        <ele>1715.3</ele>
        <time>2020-02-08T15:23:41Z</time>
      </trkpt>
      <trkpt lat="42.70573" lon="1.63521">
        <ele>1715.3</ele>
        <time>2020-02-08T15:23:42Z</time>
      </trkpt>
      <trkpt lat="42.70573" lon="1.63521">
        <ele>1715.3</ele>
        <time>2020-02-08T15:23:43Z</time>
      </trkpt>
      <trkpt lat="42.70573" lon="1.63521">
        <ele>1715.3</ele>
        <time>2020-02-08T15:23:44Z</time>
      </trkpt>
      <trkpt lat="42.70573" lon="1.63521">
        <ele>1715.3</ele>
        <time>2020-02-08T15:23:45Z</time>
      </trkpt>
      <trkpt lat="42.70573" lon="1.63521">
        <ele>1715.3</ele>
        <time>2020-02-08T15:23:46Z</time>
      </trkpt>
      <trkpt lat="42.70573" lon="1.63521">
        <ele>1715.3</ele>
        <time>2020-02-08T15:23:47Z</time>
      </trkpt>
      <trkpt lat="42.70573" lon="1.63521">
        <ele>1715.3</ele>
        <time>2020-02-08T15:23:48Z</time>
      </trkpt>
      <trkpt lat="42.70573" lon="1.63521">
        <ele>1715.3</ele>
        <time>2020-02-08T15:23:49Z</time>
      </trkpt>
      <trkpt lat="42.70573" lon="1.63521">
        <ele>1715.3</ele>
        <time>2020-02-08T15:23:50Z</time>
      </trkpt>
      <trkpt lat="42.70573" lon="1.63521">
        <ele>1715.3</ele>
        <time>2020-02-08T15:23:51Z</time>
      </trkpt>
      <trkpt lat="42.70573" lon="1.63519">
        <ele>1715</ele>
        <time>2020-02-08T15:23:52Z</time>
      </trkpt>
      <trkpt lat="42.70573" lon="1.63519">
        <ele>1715</ele>
        <time>2020-02-08T15:23:53Z</time>
      </trkpt>
      <trkpt lat="42.70573" lon="1.63519">
        <ele>1715</ele>
        <time>2020-02-08T15:23:54Z</time>
      </trkpt>
      <trkpt lat="42.70573" lon="1.63519">
        <ele>1715</ele>
        <time>2020-02-08T15:23:55Z</time>
      </trkpt>
      <trkpt lat="42.70572" lon="1.6352">
        <ele>1715</ele>
        <time>2020-02-08T15:23:56Z</time>
      </trkpt>
      <trkpt lat="42.70572" lon="1.6352">
        <ele>1715</ele>
        <time>2020-02-08T15:23:57Z</time>
      </trkpt>
      <trkpt lat="42.70572" lon="1.6352">
        <ele>1715</ele>
        <time>2020-02-08T15:23:58Z</time>
      </trkpt>
      <trkpt lat="42.70571" lon="1.63521">
        <ele>1713.8</ele>
        <time>2020-02-08T15:23:59Z</time>
      </trkpt>
      <trkpt lat="42.70571" lon="1.63521">
        <ele>1713.8</ele>
        <time>2020-02-08T15:24:00Z</time>
      </trkpt>
      <trkpt lat="42.70571" lon="1.63521">
        <ele>1713.8</ele>
        <time>2020-02-08T15:24:01Z</time>
      </trkpt>
      <trkpt lat="42.70571" lon="1.63522">
        <ele>1713.8</ele>
        <time>2020-02-08T15:24:02Z</time>
      </trkpt>
      <trkpt lat="42.7057" lon="1.63522">
        <ele>1713.8</ele>
        <time>2020-02-08T15:24:03Z</time>
      </trkpt>
      <trkpt lat="42.7057" lon="1.63523">
        <ele>1713.8</ele>
        <time>2020-02-08T15:24:04Z</time>
      </trkpt>
      <trkpt lat="42.7057" lon="1.63523">
        <ele>1713.8</ele>
        <time>2020-02-08T15:24:05Z</time>
      </trkpt>
      <trkpt lat="42.7057" lon="1.63524">
        <ele>1713.8</ele>
        <time>2020-02-08T15:24:06Z</time>
      </trkpt>
      <trkpt lat="42.70569" lon="1.63524">
        <ele>1713.8</ele>
        <time>2020-02-08T15:24:07Z</time>
      </trkpt>
      <trkpt lat="42.70569" lon="1.63524">
        <ele>1713.8</ele>
        <time>2020-02-08T15:24:08Z</time>
      </trkpt>
      <trkpt lat="42.70568" lon="1.63525">
        <ele>1712.6</ele>
        <time>2020-02-08T15:24:09Z</time>
      </trkpt>
      <trkpt lat="42.70568" lon="1.63525">
        <ele>1712.6</ele>
        <time>2020-02-08T15:24:10Z</time>
      </trkpt>
      <trkpt lat="42.70568" lon="1.63525">
        <ele>1712.6</ele>
        <time>2020-02-08T15:24:11Z</time>
      </trkpt>
      <trkpt lat="42.70568" lon="1.63525">
        <ele>1712.6</ele>
        <time>2020-02-08T15:24:12Z</time>
      </trkpt>
      <trkpt lat="42.70566" lon="1.63524">
        <ele>1712.4</ele>
        <time>2020-02-08T15:24:13Z</time>
      </trkpt>
      <trkpt lat="42.70566" lon="1.63524">
        <ele>1712.4</ele>
        <time>2020-02-08T15:24:14Z</time>
      </trkpt>
      <trkpt lat="42.70566" lon="1.63524">
        <ele>1712.4</ele>
        <time>2020-02-08T15:24:15Z</time>
      </trkpt>
      <trkpt lat="42.70566" lon="1.63524">
        <ele>1712.4</ele>
        <time>2020-02-08T15:24:16Z</time>
      </trkpt>
      <trkpt lat="42.70566" lon="1.63524">
        <ele>1712.4</ele>
        <time>2020-02-08T15:24:17Z</time>
      </trkpt>
      <trkpt lat="42.70565" lon="1.63524">
        <ele>1712.4</ele>
        <time>2020-02-08T15:24:18Z</time>
      </trkpt>
      <trkpt lat="42.70565" lon="1.63524">
        <ele>1710.9</ele>
        <time>2020-02-08T15:24:19Z</time>
      </trkpt>
      <trkpt lat="42.70564" lon="1.63524">
        <ele>1710.9</ele>
        <time>2020-02-08T15:24:20Z</time>
      </trkpt>
      <trkpt lat="42.70563" lon="1.63524">
        <ele>1710.9</ele>
        <time>2020-02-08T15:24:21Z</time>
      </trkpt>
      <trkpt lat="42.70563" lon="1.63524">
        <ele>1710.9</ele>
        <time>2020-02-08T15:24:22Z</time>
      </trkpt>
      <trkpt lat="42.70562" lon="1.63524">
        <ele>1710.9</ele>
        <time>2020-02-08T15:24:23Z</time>
      </trkpt>
      <trkpt lat="42.70562" lon="1.63524">
        <ele>1709.4</ele>
        <time>2020-02-08T15:24:24Z</time>
      </trkpt>
      <trkpt lat="42.70561" lon="1.63524">
        <ele>1709.4</ele>
        <time>2020-02-08T15:24:25Z</time>
      </trkpt>
      <trkpt lat="42.70561" lon="1.63523">
        <ele>1709.4</ele>
        <time>2020-02-08T15:24:26Z</time>
      </trkpt>
      <trkpt lat="42.7056" lon="1.63523">
        <ele>1709.4</ele>
        <time>2020-02-08T15:24:27Z</time>
      </trkpt>
      <trkpt lat="42.7056" lon="1.63523">
        <ele>1709.4</ele>
        <time>2020-02-08T15:24:28Z</time>
      </trkpt>
      <trkpt lat="42.70559" lon="1.63522">
        <ele>1709.4</ele>
        <time>2020-02-08T15:24:29Z</time>
      </trkpt>
      <trkpt lat="42.70559" lon="1.63521">
        <ele>1709.4</ele>
        <time>2020-02-08T15:24:30Z</time>
      </trkpt>
      <trkpt lat="42.70559" lon="1.63521">
        <ele>1707.7</ele>
        <time>2020-02-08T15:24:31Z</time>
      </trkpt>
      <trkpt lat="42.70558" lon="1.6352">
        <ele>1707.5</ele>
        <time>2020-02-08T15:24:32Z</time>
      </trkpt>
      <trkpt lat="42.70558" lon="1.6352">
        <ele>1707.5</ele>
        <time>2020-02-08T15:24:33Z</time>
      </trkpt>
      <trkpt lat="42.70558" lon="1.63519">
        <ele>1707.5</ele>
        <time>2020-02-08T15:24:34Z</time>
      </trkpt>
      <trkpt lat="42.70557" lon="1.63518">
        <ele>1707.5</ele>
        <time>2020-02-08T15:24:35Z</time>
      </trkpt>
      <trkpt lat="42.70557" lon="1.63518">
        <ele>1707.5</ele>
        <time>2020-02-08T15:24:36Z</time>
      </trkpt>
      <trkpt lat="42.70557" lon="1.63517">
        <ele>1707.5</ele>
        <time>2020-02-08T15:24:37Z</time>
      </trkpt>
      <trkpt lat="42.70557" lon="1.63517">
        <ele>1707.5</ele>
        <time>2020-02-08T15:24:38Z</time>
      </trkpt>
      <trkpt lat="42.70557" lon="1.63517">
        <ele>1707.5</ele>
        <time>2020-02-08T15:24:39Z</time>
      </trkpt>
      <trkpt lat="42.70557" lon="1.63517">
        <ele>1707.5</ele>
        <time>2020-02-08T15:24:40Z</time>
      </trkpt>
      <trkpt lat="42.70557" lon="1.63517">
        <ele>1707.5</ele>
        <time>2020-02-08T15:24:41Z</time>
      </trkpt>
      <trkpt lat="42.70555" lon="1.63515">
        <ele>1705.6</ele>
        <time>2020-02-08T15:24:42Z</time>
      </trkpt>
      <trkpt lat="42.70555" lon="1.63515">
        <ele>1705.6</ele>
        <time>2020-02-08T15:24:43Z</time>
      </trkpt>
      <trkpt lat="42.70555" lon="1.63515">
        <ele>1705.6</ele>
        <time>2020-02-08T15:24:44Z</time>
      </trkpt>
      <trkpt lat="42.70555" lon="1.63515">
        <ele>1705.6</ele>
        <time>2020-02-08T15:24:45Z</time>
      </trkpt>
      <trkpt lat="42.70555" lon="1.63515">
        <ele>1705.6</ele>
        <time>2020-02-08T15:24:46Z</time>
      </trkpt>
      <trkpt lat="42.70555" lon="1.63515">
        <ele>1705.6</ele>
        <time>2020-02-08T15:24:47Z</time>
      </trkpt>
      <trkpt lat="42.70553" lon="1.63516">
        <ele>1705.8</ele>
        <time>2020-02-08T15:24:48Z</time>
      </trkpt>
      <trkpt lat="42.70553" lon="1.63516">
        <ele>1705.8</ele>
        <time>2020-02-08T15:24:49Z</time>
      </trkpt>
      <trkpt lat="42.70553" lon="1.63516">
        <ele>1705.6</ele>
        <time>2020-02-08T15:24:50Z</time>
      </trkpt>
      <trkpt lat="42.70552" lon="1.63516">
        <ele>1703.9</ele>
        <time>2020-02-08T15:24:51Z</time>
      </trkpt>
      <trkpt lat="42.70552" lon="1.63516">
        <ele>1703.9</ele>
        <time>2020-02-08T15:24:52Z</time>
      </trkpt>
      <trkpt lat="42.70552" lon="1.63515">
        <ele>1703.9</ele>
        <time>2020-02-08T15:24:53Z</time>
      </trkpt>
      <trkpt lat="42.70551" lon="1.63515">
        <ele>1703.9</ele>
        <time>2020-02-08T15:24:54Z</time>
      </trkpt>
      <trkpt lat="42.70551" lon="1.63515">
        <ele>1703.9</ele>
        <time>2020-02-08T15:24:55Z</time>
      </trkpt>
      <trkpt lat="42.70551" lon="1.63515">
        <ele>1703.9</ele>
        <time>2020-02-08T15:24:56Z</time>
      </trkpt>
      <trkpt lat="42.7055" lon="1.63515">
        <ele>1703.9</ele>
        <time>2020-02-08T15:24:57Z</time>
      </trkpt>
      <trkpt lat="42.70549" lon="1.63511">
        <ele>1703.7</ele>
        <time>2020-02-08T15:24:58Z</time>
      </trkpt>
      <trkpt lat="42.70549" lon="1.63511">
        <ele>1702</ele>
        <time>2020-02-08T15:24:59Z</time>
      </trkpt>
      <trkpt lat="42.70549" lon="1.63511">
        <ele>1702</ele>
        <time>2020-02-08T15:25:00Z</time>
      </trkpt>
      <trkpt lat="42.70549" lon="1.63511">
        <ele>1702</ele>
        <time>2020-02-08T15:25:01Z</time>
      </trkpt>
      <trkpt lat="42.70549" lon="1.63511">
        <ele>1702</ele>
        <time>2020-02-08T15:25:02Z</time>
      </trkpt>
      <trkpt lat="42.70549" lon="1.63511">
        <ele>1702</ele>
        <time>2020-02-08T15:25:03Z</time>
      </trkpt>
      <trkpt lat="42.70548" lon="1.6351">
        <ele>1702</ele>
        <time>2020-02-08T15:25:04Z</time>
      </trkpt>
      <trkpt lat="42.70548" lon="1.6351">
        <ele>1702</ele>
        <time>2020-02-08T15:25:05Z</time>
      </trkpt>
      <trkpt lat="42.70548" lon="1.6351">
        <ele>1702</ele>
        <time>2020-02-08T15:25:06Z</time>
      </trkpt>
      <trkpt lat="42.70548" lon="1.6351">
        <ele>1702</ele>
        <time>2020-02-08T15:25:07Z</time>
      </trkpt>
      <trkpt lat="42.70546" lon="1.6351">
        <ele>1700.5</ele>
        <time>2020-02-08T15:25:08Z</time>
      </trkpt>
      <trkpt lat="42.70546" lon="1.6351">
        <ele>1700.5</ele>
        <time>2020-02-08T15:25:09Z</time>
      </trkpt>
      <trkpt lat="42.70546" lon="1.6351">
        <ele>1700.5</ele>
        <time>2020-02-08T15:25:10Z</time>
      </trkpt>
      <trkpt lat="42.70546" lon="1.6351">
        <ele>1700.5</ele>
        <time>2020-02-08T15:25:11Z</time>
      </trkpt>
      <trkpt lat="42.70544" lon="1.63508">
        <ele>1700.5</ele>
        <time>2020-02-08T15:25:12Z</time>
      </trkpt>
      <trkpt lat="42.70544" lon="1.63508">
        <ele>1700.5</ele>
        <time>2020-02-08T15:25:13Z</time>
      </trkpt>
      <trkpt lat="42.70544" lon="1.63508">
        <ele>1700.5</ele>
        <time>2020-02-08T15:25:14Z</time>
      </trkpt>
      <trkpt lat="42.70544" lon="1.63508">
        <ele>1700.5</ele>
        <time>2020-02-08T15:25:15Z</time>
      </trkpt>
      <trkpt lat="42.70544" lon="1.63508">
        <ele>1700.5</ele>
        <time>2020-02-08T15:25:16Z</time>
      </trkpt>
      <trkpt lat="42.70543" lon="1.63507">
        <ele>1699</ele>
        <time>2020-02-08T15:25:17Z</time>
      </trkpt>
      <trkpt lat="42.70542" lon="1.63507">
        <ele>1699</ele>
        <time>2020-02-08T15:25:18Z</time>
      </trkpt>
      <trkpt lat="42.70542" lon="1.63507">
        <ele>1699</ele>
        <time>2020-02-08T15:25:19Z</time>
      </trkpt>
      <trkpt lat="42.70542" lon="1.63507">
        <ele>1699</ele>
        <time>2020-02-08T15:25:20Z</time>
      </trkpt>
      <trkpt lat="42.70542" lon="1.63507">
        <ele>1699</ele>
        <time>2020-02-08T15:25:21Z</time>
      </trkpt>
      <trkpt lat="42.70542" lon="1.63507">
        <ele>1699</ele>
        <time>2020-02-08T15:25:22Z</time>
      </trkpt>
      <trkpt lat="42.70541" lon="1.63507">
        <ele>1699</ele>
        <time>2020-02-08T15:25:23Z</time>
      </trkpt>
      <trkpt lat="42.70541" lon="1.63507">
        <ele>1699</ele>
        <time>2020-02-08T15:25:24Z</time>
      </trkpt>
      <trkpt lat="42.70541" lon="1.63507">
        <ele>1699</ele>
        <time>2020-02-08T15:25:25Z</time>
      </trkpt>
      <trkpt lat="42.70541" lon="1.63507">
        <ele>1699</ele>
        <time>2020-02-08T15:25:26Z</time>
      </trkpt>
      <trkpt lat="42.7054" lon="1.63507">
        <ele>1699</ele>
        <time>2020-02-08T15:25:27Z</time>
      </trkpt>
      <trkpt lat="42.70538" lon="1.63507">
        <ele>1697.6</ele>
        <time>2020-02-08T15:25:28Z</time>
      </trkpt>
      <trkpt lat="42.70538" lon="1.63507">
        <ele>1697.6</ele>
        <time>2020-02-08T15:25:29Z</time>
      </trkpt>
      <trkpt lat="42.70537" lon="1.63507">
        <ele>1697.6</ele>
        <time>2020-02-08T15:25:30Z</time>
      </trkpt>
      <trkpt lat="42.70537" lon="1.63507">
        <ele>1697.6</ele>
        <time>2020-02-08T15:25:31Z</time>
      </trkpt>
      <trkpt lat="42.70537" lon="1.63507">
        <ele>1696.1</ele>
        <time>2020-02-08T15:25:32Z</time>
      </trkpt>
      <trkpt lat="42.70536" lon="1.63507">
        <ele>1696.1</ele>
        <time>2020-02-08T15:25:33Z</time>
      </trkpt>
      <trkpt lat="42.70536" lon="1.63507">
        <ele>1696.1</ele>
        <time>2020-02-08T15:25:34Z</time>
      </trkpt>
      <trkpt lat="42.70535" lon="1.63507">
        <ele>1696.1</ele>
        <time>2020-02-08T15:25:35Z</time>
      </trkpt>
      <trkpt lat="42.70535" lon="1.63508">
        <ele>1696.2</ele>
        <time>2020-02-08T15:25:36Z</time>
      </trkpt>
      <trkpt lat="42.70535" lon="1.63508">
        <ele>1696.2</ele>
        <time>2020-02-08T15:25:37Z</time>
      </trkpt>
      <trkpt lat="42.70533" lon="1.63508">
        <ele>1694.6</ele>
        <time>2020-02-08T15:25:38Z</time>
      </trkpt>
      <trkpt lat="42.70533" lon="1.63508">
        <ele>1694.6</ele>
        <time>2020-02-08T15:25:39Z</time>
      </trkpt>
      <trkpt lat="42.70533" lon="1.63508">
        <ele>1694.6</ele>
        <time>2020-02-08T15:25:40Z</time>
      </trkpt>
      <trkpt lat="42.70533" lon="1.63508">
        <ele>1694.6</ele>
        <time>2020-02-08T15:25:41Z</time>
      </trkpt>
      <trkpt lat="42.70533" lon="1.63508">
        <ele>1694.6</ele>
        <time>2020-02-08T15:25:42Z</time>
      </trkpt>
      <trkpt lat="42.70531" lon="1.63508">
        <ele>1694.6</ele>
        <time>2020-02-08T15:25:43Z</time>
      </trkpt>
      <trkpt lat="42.70531" lon="1.63508">
        <ele>1694.6</ele>
        <time>2020-02-08T15:25:44Z</time>
      </trkpt>
      <trkpt lat="42.70531" lon="1.63508">
        <ele>1694.6</ele>
        <time>2020-02-08T15:25:45Z</time>
      </trkpt>
      <trkpt lat="42.70531" lon="1.63508">
        <ele>1694.6</ele>
        <time>2020-02-08T15:25:46Z</time>
      </trkpt>
      <trkpt lat="42.70531" lon="1.63508">
        <ele>1694.6</ele>
        <time>2020-02-08T15:25:47Z</time>
      </trkpt>
      <trkpt lat="42.7053" lon="1.63508">
        <ele>1692.9</ele>
        <time>2020-02-08T15:25:48Z</time>
      </trkpt>
      <trkpt lat="42.7053" lon="1.63509">
        <ele>1692.9</ele>
        <time>2020-02-08T15:25:49Z</time>
      </trkpt>
      <trkpt lat="42.70529" lon="1.63509">
        <ele>1692.9</ele>
        <time>2020-02-08T15:25:50Z</time>
      </trkpt>
      <trkpt lat="42.70529" lon="1.63509">
        <ele>1692.9</ele>
        <time>2020-02-08T15:25:51Z</time>
      </trkpt>
      <trkpt lat="42.70528" lon="1.63509">
        <ele>1692.9</ele>
        <time>2020-02-08T15:25:52Z</time>
      </trkpt>
      <trkpt lat="42.70528" lon="1.63509">
        <ele>1692.9</ele>
        <time>2020-02-08T15:25:53Z</time>
      </trkpt>
      <trkpt lat="42.70527" lon="1.63509">
        <ele>1692.9</ele>
        <time>2020-02-08T15:25:54Z</time>
      </trkpt>
      <trkpt lat="42.70527" lon="1.63509">
        <ele>1691.2</ele>
        <time>2020-02-08T15:25:55Z</time>
      </trkpt>
      <trkpt lat="42.70526" lon="1.63509">
        <ele>1691.2</ele>
        <time>2020-02-08T15:25:56Z</time>
      </trkpt>
      <trkpt lat="42.70526" lon="1.63509">
        <ele>1691.2</ele>
        <time>2020-02-08T15:25:57Z</time>
      </trkpt>
      <trkpt lat="42.70524" lon="1.63506">
        <ele>1689.5</ele>
        <time>2020-02-08T15:25:58Z</time>
      </trkpt>
      <trkpt lat="42.70524" lon="1.63505">
        <ele>1689.5</ele>
        <time>2020-02-08T15:25:59Z</time>
      </trkpt>
      <trkpt lat="42.70524" lon="1.63505">
        <ele>1689.5</ele>
        <time>2020-02-08T15:26:00Z</time>
      </trkpt>
      <trkpt lat="42.70523" lon="1.63504">
        <ele>1689.5</ele>
        <time>2020-02-08T15:26:01Z</time>
      </trkpt>
      <trkpt lat="42.70523" lon="1.63504">
        <ele>1689.5</ele>
        <time>2020-02-08T15:26:02Z</time>
      </trkpt>
      <trkpt lat="42.70523" lon="1.63504">
        <ele>1689.5</ele>
        <time>2020-02-08T15:26:03Z</time>
      </trkpt>
      <trkpt lat="42.70523" lon="1.63503">
        <ele>1689.5</ele>
        <time>2020-02-08T15:26:04Z</time>
      </trkpt>
      <trkpt lat="42.70522" lon="1.63503">
        <ele>1689.5</ele>
        <time>2020-02-08T15:26:05Z</time>
      </trkpt>
      <trkpt lat="42.70522" lon="1.63502">
        <ele>1689.5</ele>
        <time>2020-02-08T15:26:06Z</time>
      </trkpt>
      <trkpt lat="42.70522" lon="1.63502">
        <ele>1689.5</ele>
        <time>2020-02-08T15:26:07Z</time>
      </trkpt>
      <trkpt lat="42.7052" lon="1.63498">
        <ele>1688</ele>
        <time>2020-02-08T15:26:08Z</time>
      </trkpt>
      <trkpt lat="42.7052" lon="1.63498">
        <ele>1688</ele>
        <time>2020-02-08T15:26:09Z</time>
      </trkpt>
      <trkpt lat="42.7052" lon="1.63497">
        <ele>1688</ele>
        <time>2020-02-08T15:26:10Z</time>
      </trkpt>
      <trkpt lat="42.70519" lon="1.63496">
        <ele>1688</ele>
        <time>2020-02-08T15:26:11Z</time>
      </trkpt>
      <trkpt lat="42.70519" lon="1.63496">
        <ele>1688</ele>
        <time>2020-02-08T15:26:12Z</time>
      </trkpt>
      <trkpt lat="42.70519" lon="1.63495">
        <ele>1688</ele>
        <time>2020-02-08T15:26:13Z</time>
      </trkpt>
      <trkpt lat="42.70519" lon="1.63494">
        <ele>1688</ele>
        <time>2020-02-08T15:26:14Z</time>
      </trkpt>
      <trkpt lat="42.70518" lon="1.63494">
        <ele>1688</ele>
        <time>2020-02-08T15:26:15Z</time>
      </trkpt>
      <trkpt lat="42.70518" lon="1.63493">
        <ele>1688</ele>
        <time>2020-02-08T15:26:16Z</time>
      </trkpt>
      <trkpt lat="42.70518" lon="1.63492">
        <ele>1686.7</ele>
        <time>2020-02-08T15:26:17Z</time>
      </trkpt>
      <trkpt lat="42.70517" lon="1.63492">
        <ele>1686.7</ele>
        <time>2020-02-08T15:26:18Z</time>
      </trkpt>
      <trkpt lat="42.70517" lon="1.63492">
        <ele>1686.7</ele>
        <time>2020-02-08T15:26:19Z</time>
      </trkpt>
      <trkpt lat="42.70516" lon="1.63493">
        <ele>1686.7</ele>
        <time>2020-02-08T15:26:20Z</time>
      </trkpt>
      <trkpt lat="42.70516" lon="1.63493">
        <ele>1686.7</ele>
        <time>2020-02-08T15:26:21Z</time>
      </trkpt>
      <trkpt lat="42.70516" lon="1.63493">
        <ele>1686.7</ele>
        <time>2020-02-08T15:26:22Z</time>
      </trkpt>
      <trkpt lat="42.70515" lon="1.63493">
        <ele>1686.7</ele>
        <time>2020-02-08T15:26:23Z</time>
      </trkpt>
      <trkpt lat="42.70515" lon="1.63493">
        <ele>1686.7</ele>
        <time>2020-02-08T15:26:24Z</time>
      </trkpt>
      <trkpt lat="42.70514" lon="1.63493">
        <ele>1685.4</ele>
        <time>2020-02-08T15:26:25Z</time>
      </trkpt>
      <trkpt lat="42.70514" lon="1.63493">
        <ele>1685.4</ele>
        <time>2020-02-08T15:26:26Z</time>
      </trkpt>
      <trkpt lat="42.70513" lon="1.63493">
        <ele>1685.4</ele>
        <time>2020-02-08T15:26:27Z</time>
      </trkpt>
      <trkpt lat="42.70513" lon="1.63493">
        <ele>1685.4</ele>
        <time>2020-02-08T15:26:28Z</time>
      </trkpt>
      <trkpt lat="42.70512" lon="1.63493">
        <ele>1685.4</ele>
        <time>2020-02-08T15:26:29Z</time>
      </trkpt>
      <trkpt lat="42.70511" lon="1.63493">
        <ele>1684.1</ele>
        <time>2020-02-08T15:26:30Z</time>
      </trkpt>
      <trkpt lat="42.70511" lon="1.63493">
        <ele>1684.1</ele>
        <time>2020-02-08T15:26:31Z</time>
      </trkpt>
      <trkpt lat="42.7051" lon="1.63494">
        <ele>1684.1</ele>
        <time>2020-02-08T15:26:32Z</time>
      </trkpt>
      <trkpt lat="42.7051" lon="1.63494">
        <ele>1684.1</ele>
        <time>2020-02-08T15:26:33Z</time>
      </trkpt>
      <trkpt lat="42.70509" lon="1.63494">
        <ele>1684.1</ele>
        <time>2020-02-08T15:26:34Z</time>
      </trkpt>
      <trkpt lat="42.70508" lon="1.63494">
        <ele>1682.6</ele>
        <time>2020-02-08T15:26:35Z</time>
      </trkpt>
      <trkpt lat="42.70508" lon="1.63494">
        <ele>1682.6</ele>
        <time>2020-02-08T15:26:36Z</time>
      </trkpt>
      <trkpt lat="42.70507" lon="1.63494">
        <ele>1682.6</ele>
        <time>2020-02-08T15:26:37Z</time>
      </trkpt>
      <trkpt lat="42.70506" lon="1.63494">
        <ele>1682.6</ele>
        <time>2020-02-08T15:26:38Z</time>
      </trkpt>
      <trkpt lat="42.70506" lon="1.63494">
        <ele>1682.6</ele>
        <time>2020-02-08T15:26:39Z</time>
      </trkpt>
      <trkpt lat="42.70505" lon="1.63495">
        <ele>1681</ele>
        <time>2020-02-08T15:26:40Z</time>
      </trkpt>
      <trkpt lat="42.70504" lon="1.63495">
        <ele>1681.1</ele>
        <time>2020-02-08T15:26:41Z</time>
      </trkpt>
      <trkpt lat="42.70504" lon="1.63495">
        <ele>1681.1</ele>
        <time>2020-02-08T15:26:42Z</time>
      </trkpt>
      <trkpt lat="42.70503" lon="1.63496">
        <ele>1681.1</ele>
        <time>2020-02-08T15:26:43Z</time>
      </trkpt>
      <trkpt lat="42.70503" lon="1.63496">
        <ele>1681.1</ele>
        <time>2020-02-08T15:26:44Z</time>
      </trkpt>
      <trkpt lat="42.70502" lon="1.63496">
        <ele>1679.5</ele>
        <time>2020-02-08T15:26:45Z</time>
      </trkpt>
      <trkpt lat="42.70501" lon="1.63497">
        <ele>1679.5</ele>
        <time>2020-02-08T15:26:46Z</time>
      </trkpt>
      <trkpt lat="42.70501" lon="1.63497">
        <ele>1679.5</ele>
        <time>2020-02-08T15:26:47Z</time>
      </trkpt>
      <trkpt lat="42.705" lon="1.63497">
        <ele>1679.5</ele>
        <time>2020-02-08T15:26:48Z</time>
      </trkpt>
      <trkpt lat="42.70499" lon="1.63496">
        <ele>1679.5</ele>
        <time>2020-02-08T15:26:49Z</time>
      </trkpt>
      <trkpt lat="42.70499" lon="1.63496">
        <ele>1677.9</ele>
        <time>2020-02-08T15:26:50Z</time>
      </trkpt>
      <trkpt lat="42.70498" lon="1.63496">
        <ele>1677.9</ele>
        <time>2020-02-08T15:26:51Z</time>
      </trkpt>
      <trkpt lat="42.70498" lon="1.63496">
        <ele>1677.9</ele>
        <time>2020-02-08T15:26:52Z</time>
      </trkpt>
      <trkpt lat="42.70497" lon="1.63496">
        <ele>1677.9</ele>
        <time>2020-02-08T15:26:53Z</time>
      </trkpt>
      <trkpt lat="42.70496" lon="1.63495">
        <ele>1677.9</ele>
        <time>2020-02-08T15:26:54Z</time>
      </trkpt>
      <trkpt lat="42.70496" lon="1.63495">
        <ele>1677.9</ele>
        <time>2020-02-08T15:26:55Z</time>
      </trkpt>
      <trkpt lat="42.70495" lon="1.63495">
        <ele>1676.5</ele>
        <time>2020-02-08T15:26:56Z</time>
      </trkpt>
      <trkpt lat="42.70494" lon="1.63495">
        <ele>1676.5</ele>
        <time>2020-02-08T15:26:57Z</time>
      </trkpt>
      <trkpt lat="42.70494" lon="1.63495">
        <ele>1676.5</ele>
        <time>2020-02-08T15:26:58Z</time>
      </trkpt>
      <trkpt lat="42.70493" lon="1.63493">
        <ele>1676.4</ele>
        <time>2020-02-08T15:26:59Z</time>
      </trkpt>
      <trkpt lat="42.70493" lon="1.63493">
        <ele>1676.4</ele>
        <time>2020-02-08T15:27:00Z</time>
      </trkpt>
      <trkpt lat="42.70493" lon="1.63493">
        <ele>1676.4</ele>
        <time>2020-02-08T15:27:01Z</time>
      </trkpt>
      <trkpt lat="42.70493" lon="1.63493">
        <ele>1676.4</ele>
        <time>2020-02-08T15:27:02Z</time>
      </trkpt>
      <trkpt lat="42.70493" lon="1.63493">
        <ele>1676.4</ele>
        <time>2020-02-08T15:27:03Z</time>
      </trkpt>
      <trkpt lat="42.70491" lon="1.63495">
        <ele>1675</ele>
        <time>2020-02-08T15:27:04Z</time>
      </trkpt>
      <trkpt lat="42.70491" lon="1.63495">
        <ele>1675</ele>
        <time>2020-02-08T15:27:05Z</time>
      </trkpt>
      <trkpt lat="42.70491" lon="1.63495">
        <ele>1675</ele>
        <time>2020-02-08T15:27:06Z</time>
      </trkpt>
      <trkpt lat="42.70491" lon="1.63495">
        <ele>1675</ele>
        <time>2020-02-08T15:27:07Z</time>
      </trkpt>
      <trkpt lat="42.70491" lon="1.63494">
        <ele>1675</ele>
        <time>2020-02-08T15:27:08Z</time>
      </trkpt>
      <trkpt lat="42.70491" lon="1.63494">
        <ele>1675</ele>
        <time>2020-02-08T15:27:09Z</time>
      </trkpt>
      <trkpt lat="42.7049" lon="1.63494">
        <ele>1675</ele>
        <time>2020-02-08T15:27:10Z</time>
      </trkpt>
      <trkpt lat="42.7049" lon="1.63493">
        <ele>1675</ele>
        <time>2020-02-08T15:27:11Z</time>
      </trkpt>
      <trkpt lat="42.70489" lon="1.63493">
        <ele>1675</ele>
        <time>2020-02-08T15:27:12Z</time>
      </trkpt>
      <trkpt lat="42.70489" lon="1.63493">
        <ele>1673.7</ele>
        <time>2020-02-08T15:27:13Z</time>
      </trkpt>
      <trkpt lat="42.70489" lon="1.63492">
        <ele>1673.7</ele>
        <time>2020-02-08T15:27:14Z</time>
      </trkpt>
      <trkpt lat="42.70488" lon="1.63492">
        <ele>1673.7</ele>
        <time>2020-02-08T15:27:15Z</time>
      </trkpt>
      <trkpt lat="42.70488" lon="1.63492">
        <ele>1673.7</ele>
        <time>2020-02-08T15:27:16Z</time>
      </trkpt>
      <trkpt lat="42.70487" lon="1.63491">
        <ele>1673.7</ele>
        <time>2020-02-08T15:27:17Z</time>
      </trkpt>
      <trkpt lat="42.70485" lon="1.63493">
        <ele>1672.3</ele>
        <time>2020-02-08T15:27:18Z</time>
      </trkpt>
      <trkpt lat="42.70485" lon="1.63493">
        <ele>1672.3</ele>
        <time>2020-02-08T15:27:19Z</time>
      </trkpt>
      <trkpt lat="42.70484" lon="1.63493">
        <ele>1672.3</ele>
        <time>2020-02-08T15:27:20Z</time>
      </trkpt>
      <trkpt lat="42.70484" lon="1.63494">
        <ele>1672.3</ele>
        <time>2020-02-08T15:27:21Z</time>
      </trkpt>
      <trkpt lat="42.70484" lon="1.63494">
        <ele>1672.3</ele>
        <time>2020-02-08T15:27:22Z</time>
      </trkpt>
      <trkpt lat="42.70483" lon="1.63494">
        <ele>1672.3</ele>
        <time>2020-02-08T15:27:23Z</time>
      </trkpt>
      <trkpt lat="42.70483" lon="1.63494">
        <ele>1670.8</ele>
        <time>2020-02-08T15:27:24Z</time>
      </trkpt>
      <trkpt lat="42.70482" lon="1.63495">
        <ele>1670.8</ele>
        <time>2020-02-08T15:27:25Z</time>
      </trkpt>
      <trkpt lat="42.70482" lon="1.63495">
        <ele>1670.9</ele>
        <time>2020-02-08T15:27:26Z</time>
      </trkpt>
      <trkpt lat="42.70482" lon="1.63495">
        <ele>1670.9</ele>
        <time>2020-02-08T15:27:27Z</time>
      </trkpt>
      <trkpt lat="42.70481" lon="1.63495">
        <ele>1670.9</ele>
        <time>2020-02-08T15:27:28Z</time>
      </trkpt>
      <trkpt lat="42.7048" lon="1.63494">
        <ele>1670.8</ele>
        <time>2020-02-08T15:27:29Z</time>
      </trkpt>
      <trkpt lat="42.7048" lon="1.63494">
        <ele>1669.3</ele>
        <time>2020-02-08T15:27:30Z</time>
      </trkpt>
      <trkpt lat="42.70479" lon="1.63494">
        <ele>1669.3</ele>
        <time>2020-02-08T15:27:31Z</time>
      </trkpt>
      <trkpt lat="42.70479" lon="1.63494">
        <ele>1669.3</ele>
        <time>2020-02-08T15:27:32Z</time>
      </trkpt>
      <trkpt lat="42.70478" lon="1.63494">
        <ele>1669.3</ele>
        <time>2020-02-08T15:27:33Z</time>
      </trkpt>
      <trkpt lat="42.70478" lon="1.63493">
        <ele>1669.3</ele>
        <time>2020-02-08T15:27:34Z</time>
      </trkpt>
      <trkpt lat="42.70477" lon="1.63493">
        <ele>1669.3</ele>
        <time>2020-02-08T15:27:35Z</time>
      </trkpt>
      <trkpt lat="42.70477" lon="1.63493">
        <ele>1667.7</ele>
        <time>2020-02-08T15:27:36Z</time>
      </trkpt>
      <trkpt lat="42.70476" lon="1.63493">
        <ele>1667.7</ele>
        <time>2020-02-08T15:27:37Z</time>
      </trkpt>
      <trkpt lat="42.70475" lon="1.63492">
        <ele>1667.7</ele>
        <time>2020-02-08T15:27:38Z</time>
      </trkpt>
      <trkpt lat="42.70475" lon="1.63492">
        <ele>1667.7</ele>
        <time>2020-02-08T15:27:39Z</time>
      </trkpt>
      <trkpt lat="42.70474" lon="1.63491">
        <ele>1667.7</ele>
        <time>2020-02-08T15:27:40Z</time>
      </trkpt>
      <trkpt lat="42.70474" lon="1.63491">
        <ele>1667.7</ele>
        <time>2020-02-08T15:27:41Z</time>
      </trkpt>
      <trkpt lat="42.70473" lon="1.6349">
        <ele>1666</ele>
        <time>2020-02-08T15:27:42Z</time>
      </trkpt>
      <trkpt lat="42.70473" lon="1.6349">
        <ele>1666</ele>
        <time>2020-02-08T15:27:43Z</time>
      </trkpt>
      <trkpt lat="42.70472" lon="1.63489">
        <ele>1666</ele>
        <time>2020-02-08T15:27:44Z</time>
      </trkpt>
      <trkpt lat="42.70472" lon="1.63489">
        <ele>1666</ele>
        <time>2020-02-08T15:27:45Z</time>
      </trkpt>
      <trkpt lat="42.70471" lon="1.63488">
        <ele>1666</ele>
        <time>2020-02-08T15:27:46Z</time>
      </trkpt>
      <trkpt lat="42.70471" lon="1.63488">
        <ele>1666</ele>
        <time>2020-02-08T15:27:47Z</time>
      </trkpt>
      <trkpt lat="42.7047" lon="1.63485">
        <ele>1664.4</ele>
        <time>2020-02-08T15:27:48Z</time>
      </trkpt>
      <trkpt lat="42.7047" lon="1.63484">
        <ele>1664.4</ele>
        <time>2020-02-08T15:27:49Z</time>
      </trkpt>
      <trkpt lat="42.7047" lon="1.63484">
        <ele>1664.4</ele>
        <time>2020-02-08T15:27:50Z</time>
      </trkpt>
      <trkpt lat="42.7047" lon="1.63484">
        <ele>1664.4</ele>
        <time>2020-02-08T15:27:51Z</time>
      </trkpt>
      <trkpt lat="42.70469" lon="1.63484">
        <ele>1664.4</ele>
        <time>2020-02-08T15:27:52Z</time>
      </trkpt>
      <trkpt lat="42.70469" lon="1.63483">
        <ele>1664.4</ele>
        <time>2020-02-08T15:27:53Z</time>
      </trkpt>
      <trkpt lat="42.70469" lon="1.63483">
        <ele>1664.4</ele>
        <time>2020-02-08T15:27:54Z</time>
      </trkpt>
      <trkpt lat="42.70469" lon="1.63483">
        <ele>1664.4</ele>
        <time>2020-02-08T15:27:55Z</time>
      </trkpt>
      <trkpt lat="42.70469" lon="1.63483">
        <ele>1664.4</ele>
        <time>2020-02-08T15:27:56Z</time>
      </trkpt>
      <trkpt lat="42.70469" lon="1.63482">
        <ele>1664.4</ele>
        <time>2020-02-08T15:27:57Z</time>
      </trkpt>
      <trkpt lat="42.70468" lon="1.63483">
        <ele>1664.4</ele>
        <time>2020-02-08T15:27:58Z</time>
      </trkpt>
      <trkpt lat="42.70468" lon="1.63483">
        <ele>1664.4</ele>
        <time>2020-02-08T15:27:59Z</time>
      </trkpt>
      <trkpt lat="42.70467" lon="1.63483">
        <ele>1663</ele>
        <time>2020-02-08T15:28:00Z</time>
      </trkpt>
      <trkpt lat="42.70467" lon="1.63483">
        <ele>1663</ele>
        <time>2020-02-08T15:28:01Z</time>
      </trkpt>
      <trkpt lat="42.70466" lon="1.63483">
        <ele>1663</ele>
        <time>2020-02-08T15:28:02Z</time>
      </trkpt>
      <trkpt lat="42.70465" lon="1.63483">
        <ele>1663</ele>
        <time>2020-02-08T15:28:03Z</time>
      </trkpt>
      <trkpt lat="42.70465" lon="1.63483">
        <ele>1663</ele>
        <time>2020-02-08T15:28:04Z</time>
      </trkpt>
      <trkpt lat="42.70464" lon="1.63484">
        <ele>1663</ele>
        <time>2020-02-08T15:28:05Z</time>
      </trkpt>
      <trkpt lat="42.70464" lon="1.63484">
        <ele>1661.6</ele>
        <time>2020-02-08T15:28:06Z</time>
      </trkpt>
      <trkpt lat="42.70463" lon="1.63484">
        <ele>1661.6</ele>
        <time>2020-02-08T15:28:07Z</time>
      </trkpt>
      <trkpt lat="42.70463" lon="1.63485">
        <ele>1661.6</ele>
        <time>2020-02-08T15:28:08Z</time>
      </trkpt>
      <trkpt lat="42.70462" lon="1.63486">
        <ele>1661.6</ele>
        <time>2020-02-08T15:28:09Z</time>
      </trkpt>
      <trkpt lat="42.70462" lon="1.63487">
        <ele>1661.6</ele>
        <time>2020-02-08T15:28:10Z</time>
      </trkpt>
      <trkpt lat="42.70462" lon="1.63488">
        <ele>1661.6</ele>
        <time>2020-02-08T15:28:11Z</time>
      </trkpt>
      <trkpt lat="42.70461" lon="1.63489">
        <ele>1661.6</ele>
        <time>2020-02-08T15:28:12Z</time>
      </trkpt>
      <trkpt lat="42.70461" lon="1.6349">
        <ele>1660.3</ele>
        <time>2020-02-08T15:28:13Z</time>
      </trkpt>
      <trkpt lat="42.7046" lon="1.63491">
        <ele>1660.3</ele>
        <time>2020-02-08T15:28:14Z</time>
      </trkpt>
      <trkpt lat="42.7046" lon="1.63492">
        <ele>1660.3</ele>
        <time>2020-02-08T15:28:15Z</time>
      </trkpt>
      <trkpt lat="42.7046" lon="1.63493">
        <ele>1660.3</ele>
        <time>2020-02-08T15:28:16Z</time>
      </trkpt>
      <trkpt lat="42.70459" lon="1.63494">
        <ele>1660.3</ele>
        <time>2020-02-08T15:28:17Z</time>
      </trkpt>
      <trkpt lat="42.70459" lon="1.63493">
        <ele>1660.3</ele>
        <time>2020-02-08T15:28:18Z</time>
      </trkpt>
      <trkpt lat="42.70459" lon="1.63493">
        <ele>1660.3</ele>
        <time>2020-02-08T15:28:19Z</time>
      </trkpt>
      <trkpt lat="42.70458" lon="1.63493">
        <ele>1660.3</ele>
        <time>2020-02-08T15:28:20Z</time>
      </trkpt>
      <trkpt lat="42.70458" lon="1.63493">
        <ele>1658.9</ele>
        <time>2020-02-08T15:28:21Z</time>
      </trkpt>
      <trkpt lat="42.70458" lon="1.63493">
        <ele>1658.9</ele>
        <time>2020-02-08T15:28:22Z</time>
      </trkpt>
      <trkpt lat="42.70457" lon="1.63493">
        <ele>1658.9</ele>
        <time>2020-02-08T15:28:23Z</time>
      </trkpt>
      <trkpt lat="42.70457" lon="1.63493">
        <ele>1658.9</ele>
        <time>2020-02-08T15:28:24Z</time>
      </trkpt>
      <trkpt lat="42.70456" lon="1.63493">
        <ele>1658.9</ele>
        <time>2020-02-08T15:28:25Z</time>
      </trkpt>
      <trkpt lat="42.70456" lon="1.63493">
        <ele>1658.9</ele>
        <time>2020-02-08T15:28:26Z</time>
      </trkpt>
      <trkpt lat="42.70456" lon="1.63493">
        <ele>1658.9</ele>
        <time>2020-02-08T15:28:27Z</time>
      </trkpt>
      <trkpt lat="42.70456" lon="1.63493">
        <ele>1658.9</ele>
        <time>2020-02-08T15:28:28Z</time>
      </trkpt>
      <trkpt lat="42.70456" lon="1.63494">
        <ele>1658.9</ele>
        <time>2020-02-08T15:28:29Z</time>
      </trkpt>
      <trkpt lat="42.70456" lon="1.63494">
        <ele>1658.9</ele>
        <time>2020-02-08T15:28:30Z</time>
      </trkpt>
      <trkpt lat="42.70456" lon="1.63495">
        <ele>1659</ele>
        <time>2020-02-08T15:28:31Z</time>
      </trkpt>
      <trkpt lat="42.70457" lon="1.63495">
        <ele>1659</ele>
        <time>2020-02-08T15:28:32Z</time>
      </trkpt>
      <trkpt lat="42.70457" lon="1.63496">
        <ele>1659</ele>
        <time>2020-02-08T15:28:33Z</time>
      </trkpt>
      <trkpt lat="42.70457" lon="1.63496">
        <ele>1659</ele>
        <time>2020-02-08T15:28:34Z</time>
      </trkpt>
      <trkpt lat="42.70457" lon="1.63497">
        <ele>1659</ele>
        <time>2020-02-08T15:28:35Z</time>
      </trkpt>
      <trkpt lat="42.70457" lon="1.63497">
        <ele>1659</ele>
        <time>2020-02-08T15:28:36Z</time>
      </trkpt>
      <trkpt lat="42.70458" lon="1.63498">
        <ele>1659</ele>
        <time>2020-02-08T15:28:37Z</time>
      </trkpt>
      <trkpt lat="42.70457" lon="1.63498">
        <ele>1659</ele>
        <time>2020-02-08T15:28:38Z</time>
      </trkpt>
      <trkpt lat="42.70457" lon="1.63499">
        <ele>1659</ele>
        <time>2020-02-08T15:28:39Z</time>
      </trkpt>
      <trkpt lat="42.70456" lon="1.63499">
        <ele>1659.1</ele>
        <time>2020-02-08T15:28:40Z</time>
      </trkpt>
      <trkpt lat="42.70456" lon="1.635">
        <ele>1659.1</ele>
        <time>2020-02-08T15:28:41Z</time>
      </trkpt>
      <trkpt lat="42.70455" lon="1.635">
        <ele>1659.1</ele>
        <time>2020-02-08T15:28:42Z</time>
      </trkpt>
      <trkpt lat="42.70455" lon="1.635">
        <ele>1657.7</ele>
        <time>2020-02-08T15:28:43Z</time>
      </trkpt>
      <trkpt lat="42.70454" lon="1.63501">
        <ele>1657.7</ele>
        <time>2020-02-08T15:28:44Z</time>
      </trkpt>
      <trkpt lat="42.70453" lon="1.63501">
        <ele>1657.7</ele>
        <time>2020-02-08T15:28:45Z</time>
      </trkpt>
      <trkpt lat="42.70453" lon="1.63502">
        <ele>1657.7</ele>
        <time>2020-02-08T15:28:46Z</time>
      </trkpt>
      <trkpt lat="42.70452" lon="1.63502">
        <ele>1657.7</ele>
        <time>2020-02-08T15:28:47Z</time>
      </trkpt>
      <trkpt lat="42.70449" lon="1.63501">
        <ele>1656.3</ele>
        <time>2020-02-08T15:28:48Z</time>
      </trkpt>
      <trkpt lat="42.70449" lon="1.63501">
        <ele>1656.3</ele>
        <time>2020-02-08T15:28:49Z</time>
      </trkpt>
      <trkpt lat="42.70448" lon="1.63501">
        <ele>1654.9</ele>
        <time>2020-02-08T15:28:50Z</time>
      </trkpt>
      <trkpt lat="42.70447" lon="1.63501">
        <ele>1654.9</ele>
        <time>2020-02-08T15:28:51Z</time>
      </trkpt>
      <trkpt lat="42.70447" lon="1.63501">
        <ele>1654.9</ele>
        <time>2020-02-08T15:28:52Z</time>
      </trkpt>
      <trkpt lat="42.70446" lon="1.63501">
        <ele>1654.9</ele>
        <time>2020-02-08T15:28:53Z</time>
      </trkpt>
      <trkpt lat="42.70445" lon="1.63501">
        <ele>1653.5</ele>
        <time>2020-02-08T15:28:54Z</time>
      </trkpt>
      <trkpt lat="42.70445" lon="1.63501">
        <ele>1653.5</ele>
        <time>2020-02-08T15:28:55Z</time>
      </trkpt>
      <trkpt lat="42.70444" lon="1.635">
        <ele>1653.5</ele>
        <time>2020-02-08T15:28:56Z</time>
      </trkpt>
      <trkpt lat="42.70443" lon="1.635">
        <ele>1653.5</ele>
        <time>2020-02-08T15:28:57Z</time>
      </trkpt>
      <trkpt lat="42.70443" lon="1.635">
        <ele>1653.5</ele>
        <time>2020-02-08T15:28:58Z</time>
      </trkpt>
      <trkpt lat="42.70442" lon="1.635">
        <ele>1652.1</ele>
        <time>2020-02-08T15:28:59Z</time>
      </trkpt>
      <trkpt lat="42.70441" lon="1.635">
        <ele>1652.1</ele>
        <time>2020-02-08T15:29:00Z</time>
      </trkpt>
      <trkpt lat="42.70441" lon="1.635">
        <ele>1652.1</ele>
        <time>2020-02-08T15:29:01Z</time>
      </trkpt>
      <trkpt lat="42.7044" lon="1.635">
        <ele>1652.1</ele>
        <time>2020-02-08T15:29:02Z</time>
      </trkpt>
      <trkpt lat="42.7044" lon="1.635">
        <ele>1652.1</ele>
        <time>2020-02-08T15:29:03Z</time>
      </trkpt>
      <trkpt lat="42.70439" lon="1.635">
        <ele>1652.1</ele>
        <time>2020-02-08T15:29:04Z</time>
      </trkpt>
      <trkpt lat="42.70438" lon="1.635">
        <ele>1650.7</ele>
        <time>2020-02-08T15:29:05Z</time>
      </trkpt>
      <trkpt lat="42.70438" lon="1.635">
        <ele>1650.7</ele>
        <time>2020-02-08T15:29:06Z</time>
      </trkpt>
      <trkpt lat="42.70437" lon="1.635">
        <ele>1650.7</ele>
        <time>2020-02-08T15:29:07Z</time>
      </trkpt>
      <trkpt lat="42.70437" lon="1.63499">
        <ele>1650.7</ele>
        <time>2020-02-08T15:29:08Z</time>
      </trkpt>
      <trkpt lat="42.70437" lon="1.63498">
        <ele>1650.6</ele>
        <time>2020-02-08T15:29:09Z</time>
      </trkpt>
      <trkpt lat="42.70437" lon="1.63498">
        <ele>1650.6</ele>
        <time>2020-02-08T15:29:10Z</time>
      </trkpt>
      <trkpt lat="42.70436" lon="1.63497">
        <ele>1650.6</ele>
        <time>2020-02-08T15:29:11Z</time>
      </trkpt>
      <trkpt lat="42.70436" lon="1.63496">
        <ele>1650.6</ele>
        <time>2020-02-08T15:29:12Z</time>
      </trkpt>
      <trkpt lat="42.70436" lon="1.63496">
        <ele>1650.6</ele>
        <time>2020-02-08T15:29:13Z</time>
      </trkpt>
      <trkpt lat="42.70436" lon="1.63495">
        <ele>1649.3</ele>
        <time>2020-02-08T15:29:14Z</time>
      </trkpt>
      <trkpt lat="42.70435" lon="1.63494">
        <ele>1649.2</ele>
        <time>2020-02-08T15:29:15Z</time>
      </trkpt>
      <trkpt lat="42.70435" lon="1.63493">
        <ele>1649.2</ele>
        <time>2020-02-08T15:29:16Z</time>
      </trkpt>
      <trkpt lat="42.70435" lon="1.63493">
        <ele>1649.2</ele>
        <time>2020-02-08T15:29:17Z</time>
      </trkpt>
      <trkpt lat="42.70434" lon="1.63491">
        <ele>1649.2</ele>
        <time>2020-02-08T15:29:18Z</time>
      </trkpt>
      <trkpt lat="42.70433" lon="1.63491">
        <ele>1649.2</ele>
        <time>2020-02-08T15:29:19Z</time>
      </trkpt>
      <trkpt lat="42.70433" lon="1.63491">
        <ele>1649.2</ele>
        <time>2020-02-08T15:29:20Z</time>
      </trkpt>
      <trkpt lat="42.70432" lon="1.63491">
        <ele>1647.9</ele>
        <time>2020-02-08T15:29:21Z</time>
      </trkpt>
      <trkpt lat="42.70432" lon="1.63491">
        <ele>1647.9</ele>
        <time>2020-02-08T15:29:22Z</time>
      </trkpt>
      <trkpt lat="42.70432" lon="1.63491">
        <ele>1647.9</ele>
        <time>2020-02-08T15:29:23Z</time>
      </trkpt>
      <trkpt lat="42.70431" lon="1.63491">
        <ele>1647.9</ele>
        <time>2020-02-08T15:29:24Z</time>
      </trkpt>
      <trkpt lat="42.70431" lon="1.63491">
        <ele>1647.9</ele>
        <time>2020-02-08T15:29:25Z</time>
      </trkpt>
      <trkpt lat="42.70431" lon="1.63491">
        <ele>1647.9</ele>
        <time>2020-02-08T15:29:26Z</time>
      </trkpt>
      <trkpt lat="42.7043" lon="1.63491">
        <ele>1647.9</ele>
        <time>2020-02-08T15:29:27Z</time>
      </trkpt>
      <trkpt lat="42.7043" lon="1.63491">
        <ele>1647.9</ele>
        <time>2020-02-08T15:29:28Z</time>
      </trkpt>
      <trkpt lat="42.70429" lon="1.63491">
        <ele>1646.7</ele>
        <time>2020-02-08T15:29:29Z</time>
      </trkpt>
      <trkpt lat="42.70429" lon="1.63492">
        <ele>1646.7</ele>
        <time>2020-02-08T15:29:30Z</time>
      </trkpt>
      <trkpt lat="42.70429" lon="1.63492">
        <ele>1646.7</ele>
        <time>2020-02-08T15:29:31Z</time>
      </trkpt>
      <trkpt lat="42.70428" lon="1.63492">
        <ele>1646.7</ele>
        <time>2020-02-08T15:29:32Z</time>
      </trkpt>
      <trkpt lat="42.70428" lon="1.63492">
        <ele>1646.7</ele>
        <time>2020-02-08T15:29:33Z</time>
      </trkpt>
      <trkpt lat="42.70427" lon="1.63493">
        <ele>1646.7</ele>
        <time>2020-02-08T15:29:34Z</time>
      </trkpt>
      <trkpt lat="42.70427" lon="1.63493">
        <ele>1646.7</ele>
        <time>2020-02-08T15:29:35Z</time>
      </trkpt>
      <trkpt lat="42.70427" lon="1.63493">
        <ele>1646.7</ele>
        <time>2020-02-08T15:29:36Z</time>
      </trkpt>
      <trkpt lat="42.70426" lon="1.63493">
        <ele>1645.5</ele>
        <time>2020-02-08T15:29:37Z</time>
      </trkpt>
      <trkpt lat="42.70426" lon="1.63493">
        <ele>1645.5</ele>
        <time>2020-02-08T15:29:38Z</time>
      </trkpt>
      <trkpt lat="42.70426" lon="1.63493">
        <ele>1645.5</ele>
        <time>2020-02-08T15:29:39Z</time>
      </trkpt>
      <trkpt lat="42.70424" lon="1.63493">
        <ele>1645.5</ele>
        <time>2020-02-08T15:29:40Z</time>
      </trkpt>
      <trkpt lat="42.70424" lon="1.63493">
        <ele>1645.5</ele>
        <time>2020-02-08T15:29:41Z</time>
      </trkpt>
      <trkpt lat="42.70424" lon="1.63493">
        <ele>1645.5</ele>
        <time>2020-02-08T15:29:42Z</time>
      </trkpt>
      <trkpt lat="42.70424" lon="1.63493">
        <ele>1645.5</ele>
        <time>2020-02-08T15:29:43Z</time>
      </trkpt>
      <trkpt lat="42.70424" lon="1.63493">
        <ele>1645.5</ele>
        <time>2020-02-08T15:29:44Z</time>
      </trkpt>
      <trkpt lat="42.70424" lon="1.63493">
        <ele>1645.5</ele>
        <time>2020-02-08T15:29:45Z</time>
      </trkpt>
      <trkpt lat="42.70424" lon="1.63493">
        <ele>1645.5</ele>
        <time>2020-02-08T15:29:46Z</time>
      </trkpt>
      <trkpt lat="42.70423" lon="1.63491">
        <ele>1644.2</ele>
        <time>2020-02-08T15:29:47Z</time>
      </trkpt>
      <trkpt lat="42.70423" lon="1.63491">
        <ele>1644.2</ele>
        <time>2020-02-08T15:29:48Z</time>
      </trkpt>
      <trkpt lat="42.70423" lon="1.63491">
        <ele>1644.2</ele>
        <time>2020-02-08T15:29:49Z</time>
      </trkpt>
      <trkpt lat="42.70423" lon="1.63491">
        <ele>1644.2</ele>
        <time>2020-02-08T15:29:50Z</time>
      </trkpt>
      <trkpt lat="42.70422" lon="1.63489">
        <ele>1644.2</ele>
        <time>2020-02-08T15:29:51Z</time>
      </trkpt>
      <trkpt lat="42.70422" lon="1.63489">
        <ele>1644.2</ele>
        <time>2020-02-08T15:29:52Z</time>
      </trkpt>
      <trkpt lat="42.70422" lon="1.63489">
        <ele>1644.2</ele>
        <time>2020-02-08T15:29:53Z</time>
      </trkpt>
      <trkpt lat="42.70422" lon="1.63489">
        <ele>1644.2</ele>
        <time>2020-02-08T15:29:54Z</time>
      </trkpt>
      <trkpt lat="42.70422" lon="1.63489">
        <ele>1644.2</ele>
        <time>2020-02-08T15:29:55Z</time>
      </trkpt>
      <trkpt lat="42.70422" lon="1.63489">
        <ele>1644.2</ele>
        <time>2020-02-08T15:29:56Z</time>
      </trkpt>
      <trkpt lat="42.7042" lon="1.63488">
        <ele>1644.2</ele>
        <time>2020-02-08T15:29:57Z</time>
      </trkpt>
      <trkpt lat="42.7042" lon="1.63488">
        <ele>1642.8</ele>
        <time>2020-02-08T15:29:58Z</time>
      </trkpt>
      <trkpt lat="42.70419" lon="1.63487">
        <ele>1642.8</ele>
        <time>2020-02-08T15:29:59Z</time>
      </trkpt>
      <trkpt lat="42.70419" lon="1.63487">
        <ele>1642.8</ele>
        <time>2020-02-08T15:30:00Z</time>
      </trkpt>
      <trkpt lat="42.70419" lon="1.63487">
        <ele>1642.8</ele>
        <time>2020-02-08T15:30:01Z</time>
      </trkpt>
      <trkpt lat="42.70418" lon="1.63486">
        <ele>1642.8</ele>
        <time>2020-02-08T15:30:02Z</time>
      </trkpt>
      <trkpt lat="42.70418" lon="1.63486">
        <ele>1642.8</ele>
        <time>2020-02-08T15:30:03Z</time>
      </trkpt>
      <trkpt lat="42.70418" lon="1.63485">
        <ele>1642.8</ele>
        <time>2020-02-08T15:30:04Z</time>
      </trkpt>
      <trkpt lat="42.70417" lon="1.63485">
        <ele>1642.8</ele>
        <time>2020-02-08T15:30:05Z</time>
      </trkpt>
      <trkpt lat="42.70417" lon="1.63485">
        <ele>1642.8</ele>
        <time>2020-02-08T15:30:06Z</time>
      </trkpt>
      <trkpt lat="42.70417" lon="1.63484">
        <ele>1641.4</ele>
        <time>2020-02-08T15:30:07Z</time>
      </trkpt>
      <trkpt lat="42.70417" lon="1.63484">
        <ele>1641.4</ele>
        <time>2020-02-08T15:30:08Z</time>
      </trkpt>
      <trkpt lat="42.70417" lon="1.63484">
        <ele>1641.4</ele>
        <time>2020-02-08T15:30:09Z</time>
      </trkpt>
      <trkpt lat="42.70417" lon="1.63483">
        <ele>1641.4</ele>
        <time>2020-02-08T15:30:10Z</time>
      </trkpt>
      <trkpt lat="42.70417" lon="1.63483">
        <ele>1641.4</ele>
        <time>2020-02-08T15:30:11Z</time>
      </trkpt>
      <trkpt lat="42.70417" lon="1.63483">
        <ele>1641.4</ele>
        <time>2020-02-08T15:30:12Z</time>
      </trkpt>
      <trkpt lat="42.70417" lon="1.63482">
        <ele>1641.4</ele>
        <time>2020-02-08T15:30:13Z</time>
      </trkpt>
      <trkpt lat="42.70417" lon="1.63482">
        <ele>1641.4</ele>
        <time>2020-02-08T15:30:14Z</time>
      </trkpt>
      <trkpt lat="42.70417" lon="1.63482">
        <ele>1641.4</ele>
        <time>2020-02-08T15:30:15Z</time>
      </trkpt>
      <trkpt lat="42.70417" lon="1.63481">
        <ele>1641.4</ele>
        <time>2020-02-08T15:30:16Z</time>
      </trkpt>
      <trkpt lat="42.70417" lon="1.63481">
        <ele>1641.4</ele>
        <time>2020-02-08T15:30:17Z</time>
      </trkpt>
      <trkpt lat="42.70417" lon="1.63481">
        <ele>1641.4</ele>
        <time>2020-02-08T15:30:18Z</time>
      </trkpt>
      <trkpt lat="42.70417" lon="1.6348">
        <ele>1641.4</ele>
        <time>2020-02-08T15:30:19Z</time>
      </trkpt>
      <trkpt lat="42.70417" lon="1.6348">
        <ele>1641.4</ele>
        <time>2020-02-08T15:30:20Z</time>
      </trkpt>
      <trkpt lat="42.70417" lon="1.6348">
        <ele>1641.4</ele>
        <time>2020-02-08T15:30:21Z</time>
      </trkpt>
      <trkpt lat="42.70417" lon="1.63479">
        <ele>1641.4</ele>
        <time>2020-02-08T15:30:22Z</time>
      </trkpt>
      <trkpt lat="42.70417" lon="1.63479">
        <ele>1641.4</ele>
        <time>2020-02-08T15:30:23Z</time>
      </trkpt>
      <trkpt lat="42.70417" lon="1.63479">
        <ele>1641.4</ele>
        <time>2020-02-08T15:30:24Z</time>
      </trkpt>
      <trkpt lat="42.70417" lon="1.63478">
        <ele>1641.4</ele>
        <time>2020-02-08T15:30:25Z</time>
      </trkpt>
      <trkpt lat="42.70417" lon="1.63478">
        <ele>1641.4</ele>
        <time>2020-02-08T15:30:26Z</time>
      </trkpt>
      <trkpt lat="42.70417" lon="1.63478">
        <ele>1641.4</ele>
        <time>2020-02-08T15:30:27Z</time>
      </trkpt>
      <trkpt lat="42.70416" lon="1.63477">
        <ele>1641.4</ele>
        <time>2020-02-08T15:30:28Z</time>
      </trkpt>
      <trkpt lat="42.70416" lon="1.63477">
        <ele>1641.4</ele>
        <time>2020-02-08T15:30:29Z</time>
      </trkpt>
      <trkpt lat="42.70416" lon="1.63476">
        <ele>1641.4</ele>
        <time>2020-02-08T15:30:30Z</time>
      </trkpt>
      <trkpt lat="42.70416" lon="1.63475">
        <ele>1641.4</ele>
        <time>2020-02-08T15:30:31Z</time>
      </trkpt>
      <trkpt lat="42.70416" lon="1.63475">
        <ele>1641.4</ele>
        <time>2020-02-08T15:30:32Z</time>
      </trkpt>
      <trkpt lat="42.70416" lon="1.63474">
        <ele>1641.4</ele>
        <time>2020-02-08T15:30:33Z</time>
      </trkpt>
      <trkpt lat="42.70416" lon="1.63474">
        <ele>1641.4</ele>
        <time>2020-02-08T15:30:34Z</time>
      </trkpt>
      <trkpt lat="42.70416" lon="1.63473">
        <ele>1641.3</ele>
        <time>2020-02-08T15:30:35Z</time>
      </trkpt>
      <trkpt lat="42.70415" lon="1.63473">
        <ele>1641.3</ele>
        <time>2020-02-08T15:30:36Z</time>
      </trkpt>
      <trkpt lat="42.70415" lon="1.63472">
        <ele>1641.3</ele>
        <time>2020-02-08T15:30:37Z</time>
      </trkpt>
      <trkpt lat="42.70415" lon="1.63469">
        <ele>1641.3</ele>
        <time>2020-02-08T15:30:38Z</time>
      </trkpt>
      <trkpt lat="42.70415" lon="1.63469">
        <ele>1641.3</ele>
        <time>2020-02-08T15:30:39Z</time>
      </trkpt>
      <trkpt lat="42.70415" lon="1.63468">
        <ele>1641.3</ele>
        <time>2020-02-08T15:30:40Z</time>
      </trkpt>
      <trkpt lat="42.70414" lon="1.63468">
        <ele>1641.3</ele>
        <time>2020-02-08T15:30:41Z</time>
      </trkpt>
      <trkpt lat="42.70414" lon="1.63467">
        <ele>1641.3</ele>
        <time>2020-02-08T15:30:42Z</time>
      </trkpt>
      <trkpt lat="42.70414" lon="1.63467">
        <ele>1641.3</ele>
        <time>2020-02-08T15:30:43Z</time>
      </trkpt>
      <trkpt lat="42.70414" lon="1.63466">
        <ele>1641.3</ele>
        <time>2020-02-08T15:30:44Z</time>
      </trkpt>
      <trkpt lat="42.70414" lon="1.63466">
        <ele>1641.3</ele>
        <time>2020-02-08T15:30:45Z</time>
      </trkpt>
      <trkpt lat="42.70414" lon="1.63465">
        <ele>1641.3</ele>
        <time>2020-02-08T15:30:46Z</time>
      </trkpt>
      <trkpt lat="42.70414" lon="1.63465">
        <ele>1641.3</ele>
        <time>2020-02-08T15:30:47Z</time>
      </trkpt>
      <trkpt lat="42.70414" lon="1.63464">
        <ele>1641.3</ele>
        <time>2020-02-08T15:30:48Z</time>
      </trkpt>
      <trkpt lat="42.70414" lon="1.63463">
        <ele>1641.3</ele>
        <time>2020-02-08T15:30:49Z</time>
      </trkpt>
      <trkpt lat="42.70414" lon="1.63463">
        <ele>1641.3</ele>
        <time>2020-02-08T15:30:50Z</time>
      </trkpt>
      <trkpt lat="42.70414" lon="1.63462">
        <ele>1639.9</ele>
        <time>2020-02-08T15:30:51Z</time>
      </trkpt>
      <trkpt lat="42.70413" lon="1.63462">
        <ele>1639.9</ele>
        <time>2020-02-08T15:30:52Z</time>
      </trkpt>
      <trkpt lat="42.70413" lon="1.63461">
        <ele>1639.9</ele>
        <time>2020-02-08T15:30:53Z</time>
      </trkpt>
      <trkpt lat="42.70413" lon="1.63461">
        <ele>1639.9</ele>
        <time>2020-02-08T15:30:54Z</time>
      </trkpt>
      <trkpt lat="42.70413" lon="1.6346">
        <ele>1639.9</ele>
        <time>2020-02-08T15:30:55Z</time>
      </trkpt>
      <trkpt lat="42.70413" lon="1.63459">
        <ele>1639.9</ele>
        <time>2020-02-08T15:30:56Z</time>
      </trkpt>
      <trkpt lat="42.70413" lon="1.63459">
        <ele>1639.9</ele>
        <time>2020-02-08T15:30:57Z</time>
      </trkpt>
      <trkpt lat="42.70413" lon="1.63455">
        <ele>1639.9</ele>
        <time>2020-02-08T15:30:58Z</time>
      </trkpt>
      <trkpt lat="42.70413" lon="1.63455">
        <ele>1639.9</ele>
        <time>2020-02-08T15:30:59Z</time>
      </trkpt>
      <trkpt lat="42.70413" lon="1.63454">
        <ele>1639.9</ele>
        <time>2020-02-08T15:31:00Z</time>
      </trkpt>
      <trkpt lat="42.70413" lon="1.63454">
        <ele>1639.9</ele>
        <time>2020-02-08T15:31:01Z</time>
      </trkpt>
      <trkpt lat="42.70413" lon="1.63453">
        <ele>1639.9</ele>
        <time>2020-02-08T15:31:02Z</time>
      </trkpt>
      <trkpt lat="42.70413" lon="1.63453">
        <ele>1639.9</ele>
        <time>2020-02-08T15:31:03Z</time>
      </trkpt>
      <trkpt lat="42.70413" lon="1.63452">
        <ele>1639.9</ele>
        <time>2020-02-08T15:31:04Z</time>
      </trkpt>
      <trkpt lat="42.70413" lon="1.63452">
        <ele>1639.8</ele>
        <time>2020-02-08T15:31:05Z</time>
      </trkpt>
      <trkpt lat="42.70413" lon="1.63451">
        <ele>1639.8</ele>
        <time>2020-02-08T15:31:06Z</time>
      </trkpt>
      <trkpt lat="42.70413" lon="1.63451">
        <ele>1639.8</ele>
        <time>2020-02-08T15:31:07Z</time>
      </trkpt>
      <trkpt lat="42.70413" lon="1.6345">
        <ele>1639.8</ele>
        <time>2020-02-08T15:31:08Z</time>
      </trkpt>
      <trkpt lat="42.70413" lon="1.63449">
        <ele>1639.8</ele>
        <time>2020-02-08T15:31:09Z</time>
      </trkpt>
      <trkpt lat="42.70413" lon="1.63448">
        <ele>1639.8</ele>
        <time>2020-02-08T15:31:10Z</time>
      </trkpt>
      <trkpt lat="42.70413" lon="1.63447">
        <ele>1639.8</ele>
        <time>2020-02-08T15:31:11Z</time>
      </trkpt>
      <trkpt lat="42.70413" lon="1.63446">
        <ele>1639.8</ele>
        <time>2020-02-08T15:31:12Z</time>
      </trkpt>
      <trkpt lat="42.70414" lon="1.63445">
        <ele>1639.8</ele>
        <time>2020-02-08T15:31:13Z</time>
      </trkpt>
      <trkpt lat="42.70414" lon="1.63444">
        <ele>1639.8</ele>
        <time>2020-02-08T15:31:14Z</time>
      </trkpt>
      <trkpt lat="42.70414" lon="1.63443">
        <ele>1641.1</ele>
        <time>2020-02-08T15:31:15Z</time>
      </trkpt>
      <trkpt lat="42.70414" lon="1.63442">
        <ele>1641</ele>
        <time>2020-02-08T15:31:16Z</time>
      </trkpt>
      <trkpt lat="42.70414" lon="1.63441">
        <ele>1641</ele>
        <time>2020-02-08T15:31:17Z</time>
      </trkpt>
      <trkpt lat="42.70414" lon="1.63438">
        <ele>1641</ele>
        <time>2020-02-08T15:31:18Z</time>
      </trkpt>
      <trkpt lat="42.70414" lon="1.63437">
        <ele>1639.7</ele>
        <time>2020-02-08T15:31:19Z</time>
      </trkpt>
      <trkpt lat="42.70413" lon="1.63436">
        <ele>1639.7</ele>
        <time>2020-02-08T15:31:20Z</time>
      </trkpt>
      <trkpt lat="42.70413" lon="1.63435">
        <ele>1639.7</ele>
        <time>2020-02-08T15:31:21Z</time>
      </trkpt>
      <trkpt lat="42.70413" lon="1.63434">
        <ele>1639.6</ele>
        <time>2020-02-08T15:31:22Z</time>
      </trkpt>
      <trkpt lat="42.70413" lon="1.63433">
        <ele>1639.6</ele>
        <time>2020-02-08T15:31:23Z</time>
      </trkpt>
      <trkpt lat="42.70412" lon="1.63432">
        <ele>1639.6</ele>
        <time>2020-02-08T15:31:24Z</time>
      </trkpt>
      <trkpt lat="42.70412" lon="1.63431">
        <ele>1639.6</ele>
        <time>2020-02-08T15:31:25Z</time>
      </trkpt>
      <trkpt lat="42.70412" lon="1.6343">
        <ele>1639.6</ele>
        <time>2020-02-08T15:31:26Z</time>
      </trkpt>
      <trkpt lat="42.70411" lon="1.63429">
        <ele>1639.6</ele>
        <time>2020-02-08T15:31:27Z</time>
      </trkpt>
      <trkpt lat="42.70411" lon="1.63427">
        <ele>1638.4</ele>
        <time>2020-02-08T15:31:28Z</time>
      </trkpt>
      <trkpt lat="42.70411" lon="1.63427">
        <ele>1639.6</ele>
        <time>2020-02-08T15:31:29Z</time>
      </trkpt>
      <trkpt lat="42.70411" lon="1.63426">
        <ele>1639.6</ele>
        <time>2020-02-08T15:31:30Z</time>
      </trkpt>
      <trkpt lat="42.70411" lon="1.63426">
        <ele>1639.5</ele>
        <time>2020-02-08T15:31:31Z</time>
      </trkpt>
      <trkpt lat="42.70411" lon="1.63425">
        <ele>1639.5</ele>
        <time>2020-02-08T15:31:32Z</time>
      </trkpt>
      <trkpt lat="42.70411" lon="1.63425">
        <ele>1639.5</ele>
        <time>2020-02-08T15:31:33Z</time>
      </trkpt>
      <trkpt lat="42.70411" lon="1.63424">
        <ele>1639.5</ele>
        <time>2020-02-08T15:31:34Z</time>
      </trkpt>
      <trkpt lat="42.70411" lon="1.63423">
        <ele>1639.5</ele>
        <time>2020-02-08T15:31:35Z</time>
      </trkpt>
      <trkpt lat="42.70411" lon="1.63423">
        <ele>1639.5</ele>
        <time>2020-02-08T15:31:36Z</time>
      </trkpt>
      <trkpt lat="42.70411" lon="1.63422">
        <ele>1639.5</ele>
        <time>2020-02-08T15:31:37Z</time>
      </trkpt>
      <trkpt lat="42.70411" lon="1.63421">
        <ele>1639.5</ele>
        <time>2020-02-08T15:31:38Z</time>
      </trkpt>
      <trkpt lat="42.70411" lon="1.6342">
        <ele>1639.5</ele>
        <time>2020-02-08T15:31:39Z</time>
      </trkpt>
      <trkpt lat="42.70412" lon="1.6342">
        <ele>1639.5</ele>
        <time>2020-02-08T15:31:40Z</time>
      </trkpt>
      <trkpt lat="42.70412" lon="1.63419">
        <ele>1639.5</ele>
        <time>2020-02-08T15:31:41Z</time>
      </trkpt>
      <trkpt lat="42.70412" lon="1.63418">
        <ele>1639.5</ele>
        <time>2020-02-08T15:31:42Z</time>
      </trkpt>
      <trkpt lat="42.70412" lon="1.63417">
        <ele>1639.4</ele>
        <time>2020-02-08T15:31:43Z</time>
      </trkpt>
      <trkpt lat="42.70412" lon="1.63416">
        <ele>1639.4</ele>
        <time>2020-02-08T15:31:44Z</time>
      </trkpt>
      <trkpt lat="42.70413" lon="1.63415">
        <ele>1639.4</ele>
        <time>2020-02-08T15:31:45Z</time>
      </trkpt>
      <trkpt lat="42.70413" lon="1.63415">
        <ele>1639.4</ele>
        <time>2020-02-08T15:31:46Z</time>
      </trkpt>
      <trkpt lat="42.70413" lon="1.63414">
        <ele>1639.4</ele>
        <time>2020-02-08T15:31:47Z</time>
      </trkpt>
      <trkpt lat="42.70414" lon="1.6341">
        <ele>1639.4</ele>
        <time>2020-02-08T15:31:48Z</time>
      </trkpt>
      <trkpt lat="42.70414" lon="1.6341">
        <ele>1639.4</ele>
        <time>2020-02-08T15:31:49Z</time>
      </trkpt>
      <trkpt lat="42.70413" lon="1.63409">
        <ele>1639.4</ele>
        <time>2020-02-08T15:31:50Z</time>
      </trkpt>
      <trkpt lat="42.70413" lon="1.63409">
        <ele>1639.4</ele>
        <time>2020-02-08T15:31:51Z</time>
      </trkpt>
      <trkpt lat="42.70413" lon="1.63408">
        <ele>1639.4</ele>
        <time>2020-02-08T15:31:52Z</time>
      </trkpt>
      <trkpt lat="42.70413" lon="1.63407">
        <ele>1639.4</ele>
        <time>2020-02-08T15:31:53Z</time>
      </trkpt>
      <trkpt lat="42.70413" lon="1.63407">
        <ele>1639.4</ele>
        <time>2020-02-08T15:31:54Z</time>
      </trkpt>
      <trkpt lat="42.70413" lon="1.63406">
        <ele>1639.4</ele>
        <time>2020-02-08T15:31:55Z</time>
      </trkpt>
      <trkpt lat="42.70413" lon="1.63406">
        <ele>1639.4</ele>
        <time>2020-02-08T15:31:56Z</time>
      </trkpt>
      <trkpt lat="42.70413" lon="1.63405">
        <ele>1639.4</ele>
        <time>2020-02-08T15:31:57Z</time>
      </trkpt>
      <trkpt lat="42.70413" lon="1.63405">
        <ele>1639.4</ele>
        <time>2020-02-08T15:31:58Z</time>
      </trkpt>
      <trkpt lat="42.70413" lon="1.63405">
        <ele>1639.4</ele>
        <time>2020-02-08T15:31:59Z</time>
      </trkpt>
      <trkpt lat="42.70413" lon="1.63405">
        <ele>1639.4</ele>
        <time>2020-02-08T15:32:00Z</time>
      </trkpt>
      <trkpt lat="42.70412" lon="1.63403">
        <ele>1639.3</ele>
        <time>2020-02-08T15:32:01Z</time>
      </trkpt>
      <trkpt lat="42.70412" lon="1.63403">
        <ele>1639.3</ele>
        <time>2020-02-08T15:32:02Z</time>
      </trkpt>
      <trkpt lat="42.70412" lon="1.63403">
        <ele>1639.3</ele>
        <time>2020-02-08T15:32:03Z</time>
      </trkpt>
      <trkpt lat="42.70412" lon="1.63403">
        <ele>1639.3</ele>
        <time>2020-02-08T15:32:04Z</time>
      </trkpt>
      <trkpt lat="42.70412" lon="1.63403">
        <ele>1639.3</ele>
        <time>2020-02-08T15:32:05Z</time>
      </trkpt>
      <trkpt lat="42.70412" lon="1.63403">
        <ele>1639.3</ele>
        <time>2020-02-08T15:32:06Z</time>
      </trkpt>
      <trkpt lat="42.70412" lon="1.63403">
        <ele>1639.3</ele>
        <time>2020-02-08T15:32:07Z</time>
      </trkpt>
      <trkpt lat="42.70412" lon="1.63403">
        <ele>1639.3</ele>
        <time>2020-02-08T15:32:08Z</time>
      </trkpt>
      <trkpt lat="42.70412" lon="1.63403">
        <ele>1639.3</ele>
        <time>2020-02-08T15:32:09Z</time>
      </trkpt>
      <trkpt lat="42.70412" lon="1.63403">
        <ele>1639.3</ele>
        <time>2020-02-08T15:32:10Z</time>
      </trkpt>
      <trkpt lat="42.70412" lon="1.63403">
        <ele>1639.3</ele>
        <time>2020-02-08T15:32:11Z</time>
      </trkpt>
      <trkpt lat="42.70412" lon="1.63403">
        <ele>1639.3</ele>
        <time>2020-02-08T15:32:12Z</time>
      </trkpt>
      <trkpt lat="42.70412" lon="1.63403">
        <ele>1639.3</ele>
        <time>2020-02-08T15:32:13Z</time>
      </trkpt>
      <trkpt lat="42.70412" lon="1.63403">
        <ele>1639.3</ele>
        <time>2020-02-08T15:32:14Z</time>
      </trkpt>
      <trkpt lat="42.7041" lon="1.63401">
        <ele>1638.2</ele>
        <time>2020-02-08T15:32:15Z</time>
      </trkpt>
      <trkpt lat="42.7041" lon="1.63401">
        <ele>1638.2</ele>
        <time>2020-02-08T15:32:16Z</time>
      </trkpt>
      <trkpt lat="42.7041" lon="1.63401">
        <ele>1638.2</ele>
        <time>2020-02-08T15:32:17Z</time>
      </trkpt>
      <trkpt lat="42.7041" lon="1.63401">
        <ele>1638.2</ele>
        <time>2020-02-08T15:32:18Z</time>
      </trkpt>
      <trkpt lat="42.70409" lon="1.634">
        <ele>1638.2</ele>
        <time>2020-02-08T15:32:19Z</time>
      </trkpt>
      <trkpt lat="42.70409" lon="1.63399">
        <ele>1638.2</ele>
        <time>2020-02-08T15:32:20Z</time>
      </trkpt>
      <trkpt lat="42.70408" lon="1.63399">
        <ele>1638.2</ele>
        <time>2020-02-08T15:32:21Z</time>
      </trkpt>
      <trkpt lat="42.70408" lon="1.63398">
        <ele>1638.2</ele>
        <time>2020-02-08T15:32:22Z</time>
      </trkpt>
      <trkpt lat="42.70407" lon="1.63398">
        <ele>1637.1</ele>
        <time>2020-02-08T15:32:23Z</time>
      </trkpt>
      <trkpt lat="42.70407" lon="1.63397">
        <ele>1637.1</ele>
        <time>2020-02-08T15:32:24Z</time>
      </trkpt>
      <trkpt lat="42.70406" lon="1.63397">
        <ele>1637.1</ele>
        <time>2020-02-08T15:32:25Z</time>
      </trkpt>
      <trkpt lat="42.70406" lon="1.63396">
        <ele>1637.1</ele>
        <time>2020-02-08T15:32:26Z</time>
      </trkpt>
      <trkpt lat="42.70405" lon="1.63395">
        <ele>1637.1</ele>
        <time>2020-02-08T15:32:27Z</time>
      </trkpt>
      <trkpt lat="42.70405" lon="1.63395">
        <ele>1637.1</ele>
        <time>2020-02-08T15:32:28Z</time>
      </trkpt>
      <trkpt lat="42.70405" lon="1.63395">
        <ele>1637.1</ele>
        <time>2020-02-08T15:32:29Z</time>
      </trkpt>
      <trkpt lat="42.70405" lon="1.63394">
        <ele>1637.1</ele>
        <time>2020-02-08T15:32:30Z</time>
      </trkpt>
      <trkpt lat="42.70404" lon="1.63394">
        <ele>1636.1</ele>
        <time>2020-02-08T15:32:31Z</time>
      </trkpt>
      <trkpt lat="42.70404" lon="1.63394">
        <ele>1636.1</ele>
        <time>2020-02-08T15:32:32Z</time>
      </trkpt>
      <trkpt lat="42.70404" lon="1.63393">
        <ele>1636.1</ele>
        <time>2020-02-08T15:32:33Z</time>
      </trkpt>
      <trkpt lat="42.70403" lon="1.63393">
        <ele>1636.1</ele>
        <time>2020-02-08T15:32:34Z</time>
      </trkpt>
      <trkpt lat="42.70403" lon="1.63393">
        <ele>1636.1</ele>
        <time>2020-02-08T15:32:35Z</time>
      </trkpt>
      <trkpt lat="42.70403" lon="1.63392">
        <ele>1636.1</ele>
        <time>2020-02-08T15:32:36Z</time>
      </trkpt>
      <trkpt lat="42.70403" lon="1.63392">
        <ele>1636.1</ele>
        <time>2020-02-08T15:32:37Z</time>
      </trkpt>
      <trkpt lat="42.70403" lon="1.63392">
        <ele>1636.1</ele>
        <time>2020-02-08T15:32:38Z</time>
      </trkpt>
      <trkpt lat="42.70403" lon="1.63392">
        <ele>1636.1</ele>
        <time>2020-02-08T15:32:39Z</time>
      </trkpt>
      <trkpt lat="42.70403" lon="1.63392">
        <ele>1636.1</ele>
        <time>2020-02-08T15:32:40Z</time>
      </trkpt>
      <trkpt lat="42.70402" lon="1.6339">
        <ele>1636.1</ele>
        <time>2020-02-08T15:32:41Z</time>
      </trkpt>
      <trkpt lat="42.70402" lon="1.6339">
        <ele>1636.1</ele>
        <time>2020-02-08T15:32:42Z</time>
      </trkpt>
      <trkpt lat="42.70402" lon="1.6339">
        <ele>1636.1</ele>
        <time>2020-02-08T15:32:43Z</time>
      </trkpt>
      <trkpt lat="42.70402" lon="1.6339">
        <ele>1636.1</ele>
        <time>2020-02-08T15:32:44Z</time>
      </trkpt>
      <trkpt lat="42.70402" lon="1.6339">
        <ele>1636.1</ele>
        <time>2020-02-08T15:32:45Z</time>
      </trkpt>
      <trkpt lat="42.70402" lon="1.6339">
        <ele>1636.1</ele>
        <time>2020-02-08T15:32:46Z</time>
      </trkpt>
      <trkpt lat="42.704" lon="1.63389">
        <ele>1635.1</ele>
        <time>2020-02-08T15:32:47Z</time>
      </trkpt>
      <trkpt lat="42.70399" lon="1.63389">
        <ele>1635.1</ele>
        <time>2020-02-08T15:32:48Z</time>
      </trkpt>
      <trkpt lat="42.70399" lon="1.6339">
        <ele>1635.1</ele>
        <time>2020-02-08T15:32:49Z</time>
      </trkpt>
      <trkpt lat="42.70398" lon="1.6339">
        <ele>1635.1</ele>
        <time>2020-02-08T15:32:50Z</time>
      </trkpt>
      <trkpt lat="42.70398" lon="1.6339">
        <ele>1634.2</ele>
        <time>2020-02-08T15:32:51Z</time>
      </trkpt>
      <trkpt lat="42.70397" lon="1.63391">
        <ele>1634.2</ele>
        <time>2020-02-08T15:32:52Z</time>
      </trkpt>
      <trkpt lat="42.70397" lon="1.63391">
        <ele>1634.2</ele>
        <time>2020-02-08T15:32:53Z</time>
      </trkpt>
      <trkpt lat="42.70396" lon="1.63391">
        <ele>1634.2</ele>
        <time>2020-02-08T15:32:54Z</time>
      </trkpt>
      <trkpt lat="42.70396" lon="1.63391">
        <ele>1634.2</ele>
        <time>2020-02-08T15:32:55Z</time>
      </trkpt>
      <trkpt lat="42.70395" lon="1.63392">
        <ele>1634.2</ele>
        <time>2020-02-08T15:32:56Z</time>
      </trkpt>
      <trkpt lat="42.70395" lon="1.63392">
        <ele>1634.2</ele>
        <time>2020-02-08T15:32:57Z</time>
      </trkpt>
      <trkpt lat="42.70394" lon="1.63392">
        <ele>1633.1</ele>
        <time>2020-02-08T15:32:58Z</time>
      </trkpt>
      <trkpt lat="42.70394" lon="1.63393">
        <ele>1633.1</ele>
        <time>2020-02-08T15:32:59Z</time>
      </trkpt>
      <trkpt lat="42.70393" lon="1.63393">
        <ele>1633.1</ele>
        <time>2020-02-08T15:33:00Z</time>
      </trkpt>
      <trkpt lat="42.70392" lon="1.63393">
        <ele>1633.1</ele>
        <time>2020-02-08T15:33:01Z</time>
      </trkpt>
      <trkpt lat="42.70392" lon="1.63394">
        <ele>1633.1</ele>
        <time>2020-02-08T15:33:02Z</time>
      </trkpt>
      <trkpt lat="42.70391" lon="1.63394">
        <ele>1632</ele>
        <time>2020-02-08T15:33:03Z</time>
      </trkpt>
      <trkpt lat="42.7039" lon="1.63394">
        <ele>1632</ele>
        <time>2020-02-08T15:33:04Z</time>
      </trkpt>
      <trkpt lat="42.7039" lon="1.63395">
        <ele>1632</ele>
        <time>2020-02-08T15:33:05Z</time>
      </trkpt>
      <trkpt lat="42.70389" lon="1.63395">
        <ele>1632</ele>
        <time>2020-02-08T15:33:06Z</time>
      </trkpt>
      <trkpt lat="42.70389" lon="1.63395">
        <ele>1632</ele>
        <time>2020-02-08T15:33:07Z</time>
      </trkpt>
      <trkpt lat="42.70388" lon="1.63395">
        <ele>1630.9</ele>
        <time>2020-02-08T15:33:08Z</time>
      </trkpt>
      <trkpt lat="42.70387" lon="1.63394">
        <ele>1630.9</ele>
        <time>2020-02-08T15:33:09Z</time>
      </trkpt>
      <trkpt lat="42.70387" lon="1.63394">
        <ele>1630.9</ele>
        <time>2020-02-08T15:33:10Z</time>
      </trkpt>
      <trkpt lat="42.70386" lon="1.63393">
        <ele>1630.9</ele>
        <time>2020-02-08T15:33:11Z</time>
      </trkpt>
      <trkpt lat="42.70386" lon="1.63393">
        <ele>1630.9</ele>
        <time>2020-02-08T15:33:12Z</time>
      </trkpt>
      <trkpt lat="42.70385" lon="1.63392">
        <ele>1629.8</ele>
        <time>2020-02-08T15:33:13Z</time>
      </trkpt>
      <trkpt lat="42.70385" lon="1.63392">
        <ele>1629.8</ele>
        <time>2020-02-08T15:33:14Z</time>
      </trkpt>
      <trkpt lat="42.70384" lon="1.63391">
        <ele>1629.8</ele>
        <time>2020-02-08T15:33:15Z</time>
      </trkpt>
      <trkpt lat="42.70384" lon="1.63391">
        <ele>1629.8</ele>
        <time>2020-02-08T15:33:16Z</time>
      </trkpt>
      <trkpt lat="42.70383" lon="1.6339">
        <ele>1629.8</ele>
        <time>2020-02-08T15:33:17Z</time>
      </trkpt>
      <trkpt lat="42.70383" lon="1.6339">
        <ele>1629.8</ele>
        <time>2020-02-08T15:33:18Z</time>
      </trkpt>
      <trkpt lat="42.70383" lon="1.63389">
        <ele>1629.8</ele>
        <time>2020-02-08T15:33:19Z</time>
      </trkpt>
      <trkpt lat="42.70383" lon="1.63389">
        <ele>1629.8</ele>
        <time>2020-02-08T15:33:20Z</time>
      </trkpt>
      <trkpt lat="42.70382" lon="1.63388">
        <ele>1629.8</ele>
        <time>2020-02-08T15:33:21Z</time>
      </trkpt>
      <trkpt lat="42.70382" lon="1.63388">
        <ele>1628.8</ele>
        <time>2020-02-08T15:33:22Z</time>
      </trkpt>
      <trkpt lat="42.70382" lon="1.63387">
        <ele>1628.9</ele>
        <time>2020-02-08T15:33:23Z</time>
      </trkpt>
      <trkpt lat="42.70382" lon="1.63387">
        <ele>1628.9</ele>
        <time>2020-02-08T15:33:24Z</time>
      </trkpt>
      <trkpt lat="42.70382" lon="1.63386">
        <ele>1628.9</ele>
        <time>2020-02-08T15:33:25Z</time>
      </trkpt>
      <trkpt lat="42.70381" lon="1.63386">
        <ele>1628.9</ele>
        <time>2020-02-08T15:33:26Z</time>
      </trkpt>
      <trkpt lat="42.70381" lon="1.63385">
        <ele>1628.9</ele>
        <time>2020-02-08T15:33:27Z</time>
      </trkpt>
      <trkpt lat="42.70381" lon="1.63384">
        <ele>1628.9</ele>
        <time>2020-02-08T15:33:28Z</time>
      </trkpt>
      <trkpt lat="42.70381" lon="1.63383">
        <ele>1628.9</ele>
        <time>2020-02-08T15:33:29Z</time>
      </trkpt>
      <trkpt lat="42.70381" lon="1.63382">
        <ele>1629</ele>
        <time>2020-02-08T15:33:30Z</time>
      </trkpt>
      <trkpt lat="42.70381" lon="1.63382">
        <ele>1629</ele>
        <time>2020-02-08T15:33:31Z</time>
      </trkpt>
      <trkpt lat="42.70381" lon="1.63381">
        <ele>1629</ele>
        <time>2020-02-08T15:33:32Z</time>
      </trkpt>
      <trkpt lat="42.70381" lon="1.6338">
        <ele>1629</ele>
        <time>2020-02-08T15:33:33Z</time>
      </trkpt>
      <trkpt lat="42.70381" lon="1.63379">
        <ele>1629</ele>
        <time>2020-02-08T15:33:34Z</time>
      </trkpt>
      <trkpt lat="42.70381" lon="1.63378">
        <ele>1629.1</ele>
        <time>2020-02-08T15:33:35Z</time>
      </trkpt>
      <trkpt lat="42.7038" lon="1.63377">
        <ele>1629.1</ele>
        <time>2020-02-08T15:33:36Z</time>
      </trkpt>
      <trkpt lat="42.7038" lon="1.63376">
        <ele>1629.1</ele>
        <time>2020-02-08T15:33:37Z</time>
      </trkpt>
      <trkpt lat="42.7038" lon="1.63376">
        <ele>1629.1</ele>
        <time>2020-02-08T15:33:38Z</time>
      </trkpt>
      <trkpt lat="42.7038" lon="1.63375">
        <ele>1629.1</ele>
        <time>2020-02-08T15:33:39Z</time>
      </trkpt>
      <trkpt lat="42.70379" lon="1.63374">
        <ele>1629.2</ele>
        <time>2020-02-08T15:33:40Z</time>
      </trkpt>
      <trkpt lat="42.70379" lon="1.63374">
        <ele>1628.3</ele>
        <time>2020-02-08T15:33:41Z</time>
      </trkpt>
      <trkpt lat="42.70378" lon="1.63373">
        <ele>1628.3</ele>
        <time>2020-02-08T15:33:42Z</time>
      </trkpt>
      <trkpt lat="42.70378" lon="1.63372">
        <ele>1628.3</ele>
        <time>2020-02-08T15:33:43Z</time>
      </trkpt>
      <trkpt lat="42.70378" lon="1.63372">
        <ele>1628.3</ele>
        <time>2020-02-08T15:33:44Z</time>
      </trkpt>
      <trkpt lat="42.70377" lon="1.63371">
        <ele>1628.3</ele>
        <time>2020-02-08T15:33:45Z</time>
      </trkpt>
      <trkpt lat="42.70377" lon="1.6337">
        <ele>1628.3</ele>
        <time>2020-02-08T15:33:46Z</time>
      </trkpt>
      <trkpt lat="42.70376" lon="1.6337">
        <ele>1628.4</ele>
        <time>2020-02-08T15:33:47Z</time>
      </trkpt>
      <trkpt lat="42.70376" lon="1.63366">
        <ele>1628.4</ele>
        <time>2020-02-08T15:33:48Z</time>
      </trkpt>
      <trkpt lat="42.70376" lon="1.63366">
        <ele>1627.7</ele>
        <time>2020-02-08T15:33:49Z</time>
      </trkpt>
      <trkpt lat="42.70376" lon="1.63366">
        <ele>1627.7</ele>
        <time>2020-02-08T15:33:50Z</time>
      </trkpt>
      <trkpt lat="42.70375" lon="1.63366">
        <ele>1627.8</ele>
        <time>2020-02-08T15:33:51Z</time>
      </trkpt>
      <trkpt lat="42.70375" lon="1.63366">
        <ele>1627.8</ele>
        <time>2020-02-08T15:33:52Z</time>
      </trkpt>
      <trkpt lat="42.70375" lon="1.63365">
        <ele>1627.8</ele>
        <time>2020-02-08T15:33:53Z</time>
      </trkpt>
      <trkpt lat="42.70375" lon="1.63365">
        <ele>1627.8</ele>
        <time>2020-02-08T15:33:54Z</time>
      </trkpt>
      <trkpt lat="42.70375" lon="1.63365">
        <ele>1627.8</ele>
        <time>2020-02-08T15:33:55Z</time>
      </trkpt>
      <trkpt lat="42.70375" lon="1.63365">
        <ele>1627.8</ele>
        <time>2020-02-08T15:33:56Z</time>
      </trkpt>
      <trkpt lat="42.70375" lon="1.63364">
        <ele>1627.8</ele>
        <time>2020-02-08T15:33:57Z</time>
      </trkpt>
      <trkpt lat="42.70374" lon="1.63364">
        <ele>1627.8</ele>
        <time>2020-02-08T15:33:58Z</time>
      </trkpt>
      <trkpt lat="42.70374" lon="1.63364">
        <ele>1627.8</ele>
        <time>2020-02-08T15:33:59Z</time>
      </trkpt>
      <trkpt lat="42.70374" lon="1.63363">
        <ele>1627.8</ele>
        <time>2020-02-08T15:34:00Z</time>
      </trkpt>
      <trkpt lat="42.70373" lon="1.63363">
        <ele>1627.8</ele>
        <time>2020-02-08T15:34:01Z</time>
      </trkpt>
      <trkpt lat="42.70373" lon="1.63363">
        <ele>1627.8</ele>
        <time>2020-02-08T15:34:02Z</time>
      </trkpt>
      <trkpt lat="42.70373" lon="1.63362">
        <ele>1627.8</ele>
        <time>2020-02-08T15:34:03Z</time>
      </trkpt>
      <trkpt lat="42.70373" lon="1.63362">
        <ele>1627</ele>
        <time>2020-02-08T15:34:04Z</time>
      </trkpt>
      <trkpt lat="42.70372" lon="1.63362">
        <ele>1627</ele>
        <time>2020-02-08T15:34:05Z</time>
      </trkpt>
      <trkpt lat="42.70372" lon="1.63361">
        <ele>1627.2</ele>
        <time>2020-02-08T15:34:06Z</time>
      </trkpt>
      <trkpt lat="42.70372" lon="1.63361">
        <ele>1627.2</ele>
        <time>2020-02-08T15:34:07Z</time>
      </trkpt>
      <trkpt lat="42.70372" lon="1.63361">
        <ele>1627.2</ele>
        <time>2020-02-08T15:34:08Z</time>
      </trkpt>
      <trkpt lat="42.70372" lon="1.63361">
        <ele>1627.2</ele>
        <time>2020-02-08T15:34:09Z</time>
      </trkpt>
      <trkpt lat="42.70372" lon="1.63361">
        <ele>1627.2</ele>
        <time>2020-02-08T15:34:10Z</time>
      </trkpt>
      <trkpt lat="42.70372" lon="1.63361">
        <ele>1627.2</ele>
        <time>2020-02-08T15:34:11Z</time>
      </trkpt>
      <trkpt lat="42.70372" lon="1.63361">
        <ele>1627.2</ele>
        <time>2020-02-08T15:34:12Z</time>
      </trkpt>
      <trkpt lat="42.70372" lon="1.63361">
        <ele>1627.2</ele>
        <time>2020-02-08T15:34:13Z</time>
      </trkpt>
      <trkpt lat="42.70372" lon="1.63361">
        <ele>1627.2</ele>
        <time>2020-02-08T15:34:14Z</time>
      </trkpt>
      <trkpt lat="42.70372" lon="1.63361">
        <ele>1627.2</ele>
        <time>2020-02-08T15:34:15Z</time>
      </trkpt>
      <trkpt lat="42.7037" lon="1.63362">
        <ele>1626.2</ele>
        <time>2020-02-08T15:34:16Z</time>
      </trkpt>
      <trkpt lat="42.7037" lon="1.63362">
        <ele>1626.2</ele>
        <time>2020-02-08T15:34:17Z</time>
      </trkpt>
      <trkpt lat="42.70369" lon="1.63362">
        <ele>1626.2</ele>
        <time>2020-02-08T15:34:18Z</time>
      </trkpt>
      <trkpt lat="42.70369" lon="1.63362">
        <ele>1626.2</ele>
        <time>2020-02-08T15:34:19Z</time>
      </trkpt>
      <trkpt lat="42.70368" lon="1.63362">
        <ele>1626.2</ele>
        <time>2020-02-08T15:34:20Z</time>
      </trkpt>
      <trkpt lat="42.70368" lon="1.63362">
        <ele>1626.2</ele>
        <time>2020-02-08T15:34:21Z</time>
      </trkpt>
      <trkpt lat="42.70368" lon="1.63362">
        <ele>1626.2</ele>
        <time>2020-02-08T15:34:22Z</time>
      </trkpt>
      <trkpt lat="42.70367" lon="1.63362">
        <ele>1626.2</ele>
        <time>2020-02-08T15:34:23Z</time>
      </trkpt>
      <trkpt lat="42.70367" lon="1.63362">
        <ele>1626.2</ele>
        <time>2020-02-08T15:34:24Z</time>
      </trkpt>
      <trkpt lat="42.70366" lon="1.63362">
        <ele>1625.4</ele>
        <time>2020-02-08T15:34:25Z</time>
      </trkpt>
      <trkpt lat="42.70366" lon="1.63362">
        <ele>1625.4</ele>
        <time>2020-02-08T15:34:26Z</time>
      </trkpt>
      <trkpt lat="42.70365" lon="1.63362">
        <ele>1625.4</ele>
        <time>2020-02-08T15:34:27Z</time>
      </trkpt>
      <trkpt lat="42.70365" lon="1.63362">
        <ele>1625.4</ele>
        <time>2020-02-08T15:34:28Z</time>
      </trkpt>
      <trkpt lat="42.70365" lon="1.63362">
        <ele>1625.4</ele>
        <time>2020-02-08T15:34:29Z</time>
      </trkpt>
      <trkpt lat="42.70364" lon="1.63361">
        <ele>1625.6</ele>
        <time>2020-02-08T15:34:30Z</time>
      </trkpt>
      <trkpt lat="42.70364" lon="1.63361">
        <ele>1625.6</ele>
        <time>2020-02-08T15:34:31Z</time>
      </trkpt>
      <trkpt lat="42.70364" lon="1.63361">
        <ele>1625.6</ele>
        <time>2020-02-08T15:34:32Z</time>
      </trkpt>
      <trkpt lat="42.70364" lon="1.63361">
        <ele>1625.6</ele>
        <time>2020-02-08T15:34:33Z</time>
      </trkpt>
      <trkpt lat="42.70364" lon="1.63361">
        <ele>1625.6</ele>
        <time>2020-02-08T15:34:34Z</time>
      </trkpt>
      <trkpt lat="42.70364" lon="1.63361">
        <ele>1625.6</ele>
        <time>2020-02-08T15:34:35Z</time>
      </trkpt>
      <trkpt lat="42.70364" lon="1.63361">
        <ele>1625.6</ele>
        <time>2020-02-08T15:34:36Z</time>
      </trkpt>
      <trkpt lat="42.70364" lon="1.63361">
        <ele>1625.6</ele>
        <time>2020-02-08T15:34:37Z</time>
      </trkpt>
      <trkpt lat="42.70364" lon="1.63361">
        <ele>1625.6</ele>
        <time>2020-02-08T15:34:38Z</time>
      </trkpt>
      <trkpt lat="42.70364" lon="1.63361">
        <ele>1625.6</ele>
        <time>2020-02-08T15:34:39Z</time>
      </trkpt>
      <trkpt lat="42.70363" lon="1.63361">
        <ele>1625.6</ele>
        <time>2020-02-08T15:34:40Z</time>
      </trkpt>
      <trkpt lat="42.70363" lon="1.63361">
        <ele>1625.6</ele>
        <time>2020-02-08T15:34:41Z</time>
      </trkpt>
      <trkpt lat="42.70363" lon="1.63361">
        <ele>1625.6</ele>
        <time>2020-02-08T15:34:42Z</time>
      </trkpt>
      <trkpt lat="42.70363" lon="1.63361">
        <ele>1624.7</ele>
        <time>2020-02-08T15:34:43Z</time>
      </trkpt>
      <trkpt lat="42.70363" lon="1.63361">
        <ele>1624.7</ele>
        <time>2020-02-08T15:34:44Z</time>
      </trkpt>
      <trkpt lat="42.70363" lon="1.63361">
        <ele>1624.7</ele>
        <time>2020-02-08T15:34:45Z</time>
      </trkpt>
      <trkpt lat="42.70363" lon="1.63361">
        <ele>1624.7</ele>
        <time>2020-02-08T15:34:46Z</time>
      </trkpt>
      <trkpt lat="42.70363" lon="1.63361">
        <ele>1624.7</ele>
        <time>2020-02-08T15:34:47Z</time>
      </trkpt>
      <trkpt lat="42.70363" lon="1.63361">
        <ele>1624.7</ele>
        <time>2020-02-08T15:34:48Z</time>
      </trkpt>
      <trkpt lat="42.70363" lon="1.63361">
        <ele>1624.7</ele>
        <time>2020-02-08T15:34:49Z</time>
      </trkpt>
      <trkpt lat="42.70363" lon="1.63361">
        <ele>1624.7</ele>
        <time>2020-02-08T15:34:50Z</time>
      </trkpt>
      <trkpt lat="42.70363" lon="1.63361">
        <ele>1624.7</ele>
        <time>2020-02-08T15:34:51Z</time>
      </trkpt>
      <trkpt lat="42.70362" lon="1.63361">
        <ele>1624.7</ele>
        <time>2020-02-08T15:34:52Z</time>
      </trkpt>
      <trkpt lat="42.70362" lon="1.63361">
        <ele>1624.7</ele>
        <time>2020-02-08T15:34:53Z</time>
      </trkpt>
      <trkpt lat="42.70362" lon="1.63361">
        <ele>1624.7</ele>
        <time>2020-02-08T15:34:54Z</time>
      </trkpt>
      <trkpt lat="42.70362" lon="1.63361">
        <ele>1624.7</ele>
        <time>2020-02-08T15:34:55Z</time>
      </trkpt>
      <trkpt lat="42.70362" lon="1.63361">
        <ele>1624.7</ele>
        <time>2020-02-08T15:34:56Z</time>
      </trkpt>
      <trkpt lat="42.70362" lon="1.63361">
        <ele>1624.7</ele>
        <time>2020-02-08T15:34:57Z</time>
      </trkpt>
      <trkpt lat="42.70362" lon="1.63361">
        <ele>1624.7</ele>
        <time>2020-02-08T15:34:58Z</time>
      </trkpt>
      <trkpt lat="42.70362" lon="1.63361">
        <ele>1624.7</ele>
        <time>2020-02-08T15:34:59Z</time>
      </trkpt>
      <trkpt lat="42.70362" lon="1.6336">
        <ele>1624.7</ele>
        <time>2020-02-08T15:35:00Z</time>
      </trkpt>
      <trkpt lat="42.70362" lon="1.6336">
        <ele>1624.7</ele>
        <time>2020-02-08T15:35:01Z</time>
      </trkpt>
      <trkpt lat="42.70362" lon="1.6336">
        <ele>1624.7</ele>
        <time>2020-02-08T15:35:02Z</time>
      </trkpt>
      <trkpt lat="42.70362" lon="1.6336">
        <ele>1624.7</ele>
        <time>2020-02-08T15:35:03Z</time>
      </trkpt>
      <trkpt lat="42.70361" lon="1.6336">
        <ele>1624.7</ele>
        <time>2020-02-08T15:35:04Z</time>
      </trkpt>
      <trkpt lat="42.70361" lon="1.6336">
        <ele>1624.7</ele>
        <time>2020-02-08T15:35:05Z</time>
      </trkpt>
      <trkpt lat="42.70361" lon="1.6336">
        <ele>1624.7</ele>
        <time>2020-02-08T15:35:06Z</time>
      </trkpt>
      <trkpt lat="42.70361" lon="1.6336">
        <ele>1624.7</ele>
        <time>2020-02-08T15:35:07Z</time>
      </trkpt>
      <trkpt lat="42.70361" lon="1.6336">
        <ele>1624.7</ele>
        <time>2020-02-08T15:35:08Z</time>
      </trkpt>
      <trkpt lat="42.70361" lon="1.6336">
        <ele>1624.7</ele>
        <time>2020-02-08T15:35:09Z</time>
      </trkpt>
      <trkpt lat="42.70361" lon="1.6336">
        <ele>1624.7</ele>
        <time>2020-02-08T15:35:10Z</time>
      </trkpt>
      <trkpt lat="42.70361" lon="1.6336">
        <ele>1624.7</ele>
        <time>2020-02-08T15:35:11Z</time>
      </trkpt>
      <trkpt lat="42.70361" lon="1.6336">
        <ele>1624.7</ele>
        <time>2020-02-08T15:35:12Z</time>
      </trkpt>
      <trkpt lat="42.70361" lon="1.6336">
        <ele>1624.7</ele>
        <time>2020-02-08T15:35:13Z</time>
      </trkpt>
      <trkpt lat="42.70361" lon="1.6336">
        <ele>1624.7</ele>
        <time>2020-02-08T15:35:14Z</time>
      </trkpt>
      <trkpt lat="42.70361" lon="1.6336">
        <ele>1624.7</ele>
        <time>2020-02-08T15:35:15Z</time>
      </trkpt>
      <trkpt lat="42.7036" lon="1.6336">
        <ele>1624.7</ele>
        <time>2020-02-08T15:35:16Z</time>
      </trkpt>
      <trkpt lat="42.7036" lon="1.6336">
        <ele>1624.7</ele>
        <time>2020-02-08T15:35:17Z</time>
      </trkpt>
      <trkpt lat="42.7036" lon="1.6336">
        <ele>1624.7</ele>
        <time>2020-02-08T15:35:18Z</time>
      </trkpt>
      <trkpt lat="42.7036" lon="1.6336">
        <ele>1624.7</ele>
        <time>2020-02-08T15:35:19Z</time>
      </trkpt>
      <trkpt lat="42.7036" lon="1.6336">
        <ele>1624.7</ele>
        <time>2020-02-08T15:35:20Z</time>
      </trkpt>
      <trkpt lat="42.7036" lon="1.6336">
        <ele>1624</ele>
        <time>2020-02-08T15:35:21Z</time>
      </trkpt>
      <trkpt lat="42.7036" lon="1.6336">
        <ele>1624</ele>
        <time>2020-02-08T15:35:22Z</time>
      </trkpt>
      <trkpt lat="42.7036" lon="1.6336">
        <ele>1624</ele>
        <time>2020-02-08T15:35:23Z</time>
      </trkpt>
      <trkpt lat="42.7036" lon="1.6336">
        <ele>1624</ele>
        <time>2020-02-08T15:35:24Z</time>
      </trkpt>
      <trkpt lat="42.7036" lon="1.6336">
        <ele>1624</ele>
        <time>2020-02-08T15:35:25Z</time>
      </trkpt>
      <trkpt lat="42.7036" lon="1.6336">
        <ele>1624</ele>
        <time>2020-02-08T15:35:26Z</time>
      </trkpt>
      <trkpt lat="42.7036" lon="1.6336">
        <ele>1624</ele>
        <time>2020-02-08T15:35:27Z</time>
      </trkpt>
      <trkpt lat="42.7036" lon="1.6336">
        <ele>1624</ele>
        <time>2020-02-08T15:35:28Z</time>
      </trkpt>
      <trkpt lat="42.7036" lon="1.6336">
        <ele>1624</ele>
        <time>2020-02-08T15:35:29Z</time>
      </trkpt>
      <trkpt lat="42.7036" lon="1.6336">
        <ele>1624</ele>
        <time>2020-02-08T15:35:30Z</time>
      </trkpt>
      <trkpt lat="42.7036" lon="1.6336">
        <ele>1624</ele>
        <time>2020-02-08T15:35:31Z</time>
      </trkpt>
      <trkpt lat="42.7036" lon="1.6336">
        <ele>1624</ele>
        <time>2020-02-08T15:35:32Z</time>
      </trkpt>
      <trkpt lat="42.7036" lon="1.6336">
        <ele>1624</ele>
        <time>2020-02-08T15:35:33Z</time>
      </trkpt>
      <trkpt lat="42.7036" lon="1.6336">
        <ele>1624</ele>
        <time>2020-02-08T15:35:34Z</time>
      </trkpt>
      <trkpt lat="42.7036" lon="1.6336">
        <ele>1624</ele>
        <time>2020-02-08T15:35:35Z</time>
      </trkpt>
      <trkpt lat="42.7036" lon="1.6336">
        <ele>1624</ele>
        <time>2020-02-08T15:35:36Z</time>
      </trkpt>
      <trkpt lat="42.7036" lon="1.6336">
        <ele>1624</ele>
        <time>2020-02-08T15:35:37Z</time>
      </trkpt>
      <trkpt lat="42.7036" lon="1.6336">
        <ele>1624</ele>
        <time>2020-02-08T15:35:38Z</time>
      </trkpt>
      <trkpt lat="42.7036" lon="1.6336">
        <ele>1624</ele>
        <time>2020-02-08T15:35:39Z</time>
      </trkpt>
      <trkpt lat="42.7036" lon="1.6336">
        <ele>1624</ele>
        <time>2020-02-08T15:35:40Z</time>
      </trkpt>
      <trkpt lat="42.7036" lon="1.6336">
        <ele>1624</ele>
        <time>2020-02-08T15:35:41Z</time>
      </trkpt>
      <trkpt lat="42.7036" lon="1.6336">
        <ele>1624</ele>
        <time>2020-02-08T15:35:42Z</time>
      </trkpt>
      <trkpt lat="42.7036" lon="1.6336">
        <ele>1624</ele>
        <time>2020-02-08T15:35:43Z</time>
      </trkpt>
      <trkpt lat="42.7036" lon="1.6336">
        <ele>1624</ele>
        <time>2020-02-08T15:35:44Z</time>
      </trkpt>
      <trkpt lat="42.7036" lon="1.6336">
        <ele>1624</ele>
        <time>2020-02-08T15:35:45Z</time>
      </trkpt>
      <trkpt lat="42.7036" lon="1.6336">
        <ele>1624</ele>
        <time>2020-02-08T15:35:46Z</time>
      </trkpt>
      <trkpt lat="42.7036" lon="1.6336">
        <ele>1624</ele>
        <time>2020-02-08T15:35:47Z</time>
      </trkpt>
      <trkpt lat="42.7036" lon="1.6336">
        <ele>1624</ele>
        <time>2020-02-08T15:35:48Z</time>
      </trkpt>
      <trkpt lat="42.7036" lon="1.6336">
        <ele>1624</ele>
        <time>2020-02-08T15:35:49Z</time>
      </trkpt>
      <trkpt lat="42.7036" lon="1.6336">
        <ele>1624</ele>
        <time>2020-02-08T15:35:50Z</time>
      </trkpt>
      <trkpt lat="42.7036" lon="1.6336">
        <ele>1624</ele>
        <time>2020-02-08T15:35:51Z</time>
      </trkpt>
      <trkpt lat="42.70359" lon="1.63363">
        <ele>1623.8</ele>
        <time>2020-02-08T15:35:52Z</time>
      </trkpt>
      <trkpt lat="42.70359" lon="1.63363">
        <ele>1623.8</ele>
        <time>2020-02-08T15:35:53Z</time>
      </trkpt>
      <trkpt lat="42.70359" lon="1.63363">
        <ele>1623.8</ele>
        <time>2020-02-08T15:35:54Z</time>
      </trkpt>
      <trkpt lat="42.70359" lon="1.63363">
        <ele>1623.8</ele>
        <time>2020-02-08T15:35:55Z</time>
      </trkpt>
      <trkpt lat="42.70359" lon="1.63363">
        <ele>1623.8</ele>
        <time>2020-02-08T15:35:56Z</time>
      </trkpt>
      <trkpt lat="42.70359" lon="1.63363">
        <ele>1623.8</ele>
        <time>2020-02-08T15:35:57Z</time>
      </trkpt>
      <trkpt lat="42.70359" lon="1.63363">
        <ele>1623.8</ele>
        <time>2020-02-08T15:35:58Z</time>
      </trkpt>
      <trkpt lat="42.70359" lon="1.63363">
        <ele>1623.8</ele>
        <time>2020-02-08T15:35:59Z</time>
      </trkpt>
      <trkpt lat="42.70359" lon="1.63363">
        <ele>1623.8</ele>
        <time>2020-02-08T15:36:00Z</time>
      </trkpt>
      <trkpt lat="42.70359" lon="1.63363">
        <ele>1623.8</ele>
        <time>2020-02-08T15:36:01Z</time>
      </trkpt>
      <trkpt lat="42.70359" lon="1.63363">
        <ele>1623.8</ele>
        <time>2020-02-08T15:36:02Z</time>
      </trkpt>
      <trkpt lat="42.70359" lon="1.63363">
        <ele>1623.8</ele>
        <time>2020-02-08T15:36:03Z</time>
      </trkpt>
      <trkpt lat="42.70359" lon="1.63363">
        <ele>1623.8</ele>
        <time>2020-02-08T15:36:04Z</time>
      </trkpt>
      <trkpt lat="42.70359" lon="1.63363">
        <ele>1623.8</ele>
        <time>2020-02-08T15:36:05Z</time>
      </trkpt>
      <trkpt lat="42.70359" lon="1.63363">
        <ele>1623.8</ele>
        <time>2020-02-08T15:36:06Z</time>
      </trkpt>
      <trkpt lat="42.70359" lon="1.63363">
        <ele>1623.8</ele>
        <time>2020-02-08T15:36:07Z</time>
      </trkpt>
      <trkpt lat="42.70359" lon="1.63363">
        <ele>1623.8</ele>
        <time>2020-02-08T15:36:08Z</time>
      </trkpt>
      <trkpt lat="42.70358" lon="1.6336">
        <ele>1624</ele>
        <time>2020-02-08T15:36:09Z</time>
      </trkpt>
      <trkpt lat="42.70358" lon="1.6336">
        <ele>1624</ele>
        <time>2020-02-08T15:36:10Z</time>
      </trkpt>
      <trkpt lat="42.70358" lon="1.6336">
        <ele>1624</ele>
        <time>2020-02-08T15:36:11Z</time>
      </trkpt>
      <trkpt lat="42.70358" lon="1.6336">
        <ele>1624</ele>
        <time>2020-02-08T15:36:12Z</time>
      </trkpt>
      <trkpt lat="42.70358" lon="1.6336">
        <ele>1624</ele>
        <time>2020-02-08T15:36:13Z</time>
      </trkpt>
      <trkpt lat="42.70358" lon="1.6336">
        <ele>1624</ele>
        <time>2020-02-08T15:36:14Z</time>
      </trkpt>
      <trkpt lat="42.70358" lon="1.6336">
        <ele>1624</ele>
        <time>2020-02-08T15:36:15Z</time>
      </trkpt>
      <trkpt lat="42.70358" lon="1.6336">
        <ele>1624</ele>
        <time>2020-02-08T15:36:16Z</time>
      </trkpt>
      <trkpt lat="42.70358" lon="1.6336">
        <ele>1624</ele>
        <time>2020-02-08T15:36:17Z</time>
      </trkpt>
      <trkpt lat="42.70358" lon="1.6336">
        <ele>1624</ele>
        <time>2020-02-08T15:36:18Z</time>
      </trkpt>
      <trkpt lat="42.70358" lon="1.6336">
        <ele>1624</ele>
        <time>2020-02-08T15:36:19Z</time>
      </trkpt>
      <trkpt lat="42.70358" lon="1.6336">
        <ele>1624</ele>
        <time>2020-02-08T15:36:20Z</time>
      </trkpt>
      <trkpt lat="42.70358" lon="1.6336">
        <ele>1624</ele>
        <time>2020-02-08T15:36:21Z</time>
      </trkpt>
      <trkpt lat="42.70358" lon="1.6336">
        <ele>1624</ele>
        <time>2020-02-08T15:36:22Z</time>
      </trkpt>
      <trkpt lat="42.70358" lon="1.6336">
        <ele>1624</ele>
        <time>2020-02-08T15:36:23Z</time>
      </trkpt>
      <trkpt lat="42.70358" lon="1.6336">
        <ele>1624</ele>
        <time>2020-02-08T15:36:24Z</time>
      </trkpt>
      <trkpt lat="42.70358" lon="1.6336">
        <ele>1624</ele>
        <time>2020-02-08T15:36:25Z</time>
      </trkpt>
      <trkpt lat="42.70358" lon="1.6336">
        <ele>1624</ele>
        <time>2020-02-08T15:36:26Z</time>
      </trkpt>
      <trkpt lat="42.70358" lon="1.6336">
        <ele>1624</ele>
        <time>2020-02-08T15:36:27Z</time>
      </trkpt>
      <trkpt lat="42.70358" lon="1.6336">
        <ele>1624</ele>
        <time>2020-02-08T15:36:28Z</time>
      </trkpt>
      <trkpt lat="42.70358" lon="1.6336">
        <ele>1624</ele>
        <time>2020-02-08T15:36:29Z</time>
      </trkpt>
      <trkpt lat="42.70358" lon="1.6336">
        <ele>1624</ele>
        <time>2020-02-08T15:36:30Z</time>
      </trkpt>
      <trkpt lat="42.70358" lon="1.6336">
        <ele>1624</ele>
        <time>2020-02-08T15:36:31Z</time>
      </trkpt>
      <trkpt lat="42.70358" lon="1.6336">
        <ele>1624</ele>
        <time>2020-02-08T15:36:32Z</time>
      </trkpt>
      <trkpt lat="42.70358" lon="1.6336">
        <ele>1624</ele>
        <time>2020-02-08T15:36:33Z</time>
      </trkpt>
      <trkpt lat="42.70358" lon="1.6336">
        <ele>1624</ele>
        <time>2020-02-08T15:36:34Z</time>
      </trkpt>
      <trkpt lat="42.70358" lon="1.6336">
        <ele>1624</ele>
        <time>2020-02-08T15:36:35Z</time>
      </trkpt>
      <trkpt lat="42.70358" lon="1.6336">
        <ele>1624</ele>
        <time>2020-02-08T15:36:36Z</time>
      </trkpt>
      <trkpt lat="42.70358" lon="1.6336">
        <ele>1624</ele>
        <time>2020-02-08T15:36:37Z</time>
      </trkpt>
      <trkpt lat="42.70358" lon="1.6336">
        <ele>1624</ele>
        <time>2020-02-08T15:36:38Z</time>
      </trkpt>
      <trkpt lat="42.70358" lon="1.6336">
        <ele>1624</ele>
        <time>2020-02-08T15:36:39Z</time>
      </trkpt>
      <trkpt lat="42.70358" lon="1.6336">
        <ele>1624</ele>
        <time>2020-02-08T15:36:40Z</time>
      </trkpt>
      <trkpt lat="42.70358" lon="1.6336">
        <ele>1624</ele>
        <time>2020-02-08T15:36:41Z</time>
      </trkpt>
      <trkpt lat="42.70358" lon="1.6336">
        <ele>1624</ele>
        <time>2020-02-08T15:36:42Z</time>
      </trkpt>
      <trkpt lat="42.70358" lon="1.6336">
        <ele>1624</ele>
        <time>2020-02-08T15:36:43Z</time>
      </trkpt>
      <trkpt lat="42.70358" lon="1.6336">
        <ele>1624</ele>
        <time>2020-02-08T15:36:44Z</time>
      </trkpt>
      <trkpt lat="42.70358" lon="1.6336">
        <ele>1624</ele>
        <time>2020-02-08T15:36:45Z</time>
      </trkpt>
      <trkpt lat="42.70358" lon="1.6336">
        <ele>1624</ele>
        <time>2020-02-08T15:36:46Z</time>
      </trkpt>
      <trkpt lat="42.70358" lon="1.6336">
        <ele>1624</ele>
        <time>2020-02-08T15:36:47Z</time>
      </trkpt>
      <trkpt lat="42.70358" lon="1.6336">
        <ele>1624</ele>
        <time>2020-02-08T15:36:48Z</time>
      </trkpt>
      <trkpt lat="42.70358" lon="1.6336">
        <ele>1624</ele>
        <time>2020-02-08T15:36:49Z</time>
      </trkpt>
      <trkpt lat="42.70358" lon="1.6336">
        <ele>1624</ele>
        <time>2020-02-08T15:36:50Z</time>
      </trkpt>
      <trkpt lat="42.70358" lon="1.6336">
        <ele>1624</ele>
        <time>2020-02-08T15:36:51Z</time>
      </trkpt>
      <trkpt lat="42.70358" lon="1.6336">
        <ele>1624</ele>
        <time>2020-02-08T15:36:52Z</time>
      </trkpt>
      <trkpt lat="42.70358" lon="1.6336">
        <ele>1624</ele>
        <time>2020-02-08T15:36:53Z</time>
      </trkpt>
      <trkpt lat="42.70358" lon="1.63358">
        <ele>1624</ele>
        <time>2020-02-08T15:36:54Z</time>
      </trkpt>
      <trkpt lat="42.70358" lon="1.63358">
        <ele>1624</ele>
        <time>2020-02-08T15:36:55Z</time>
      </trkpt>
      <trkpt lat="42.70358" lon="1.63358">
        <ele>1624</ele>
        <time>2020-02-08T15:36:56Z</time>
      </trkpt>
      <trkpt lat="42.70358" lon="1.63358">
        <ele>1624</ele>
        <time>2020-02-08T15:36:57Z</time>
      </trkpt>
      <trkpt lat="42.70358" lon="1.63358">
        <ele>1624</ele>
        <time>2020-02-08T15:36:58Z</time>
      </trkpt>
      <trkpt lat="42.70358" lon="1.63358">
        <ele>1624</ele>
        <time>2020-02-08T15:36:59Z</time>
      </trkpt>
      <trkpt lat="42.70359" lon="1.6336">
        <ele>1624</ele>
        <time>2020-02-08T15:37:00Z</time>
      </trkpt>
      <trkpt lat="42.70359" lon="1.6336">
        <ele>1624</ele>
        <time>2020-02-08T15:37:01Z</time>
      </trkpt>
      <trkpt lat="42.70359" lon="1.6336">
        <ele>1624</ele>
        <time>2020-02-08T15:37:02Z</time>
      </trkpt>
      <trkpt lat="42.70359" lon="1.6336">
        <ele>1624</ele>
        <time>2020-02-08T15:37:03Z</time>
      </trkpt>
      <trkpt lat="42.70359" lon="1.6336">
        <ele>1624</ele>
        <time>2020-02-08T15:37:04Z</time>
      </trkpt>
      <trkpt lat="42.70359" lon="1.6336">
        <ele>1624</ele>
        <time>2020-02-08T15:37:05Z</time>
      </trkpt>
      <trkpt lat="42.70359" lon="1.6336">
        <ele>1624</ele>
        <time>2020-02-08T15:37:06Z</time>
      </trkpt>
      <trkpt lat="42.70359" lon="1.6336">
        <ele>1624</ele>
        <time>2020-02-08T15:37:07Z</time>
      </trkpt>
      <trkpt lat="42.70359" lon="1.6336">
        <ele>1624</ele>
        <time>2020-02-08T15:37:08Z</time>
      </trkpt>
      <trkpt lat="42.70359" lon="1.6336">
        <ele>1624</ele>
        <time>2020-02-08T15:37:09Z</time>
      </trkpt>
      <trkpt lat="42.70359" lon="1.6336">
        <ele>1624</ele>
        <time>2020-02-08T15:37:10Z</time>
      </trkpt>
      <trkpt lat="42.70359" lon="1.6336">
        <ele>1624</ele>
        <time>2020-02-08T15:37:11Z</time>
      </trkpt>
      <trkpt lat="42.70359" lon="1.6336">
        <ele>1624</ele>
        <time>2020-02-08T15:37:12Z</time>
      </trkpt>
      <trkpt lat="42.70359" lon="1.6336">
        <ele>1624</ele>
        <time>2020-02-08T15:37:13Z</time>
      </trkpt>
      <trkpt lat="42.70357" lon="1.63361">
        <ele>1624</ele>
        <time>2020-02-08T15:37:14Z</time>
      </trkpt>
      <trkpt lat="42.70357" lon="1.63361">
        <ele>1624</ele>
        <time>2020-02-08T15:37:15Z</time>
      </trkpt>
      <trkpt lat="42.70357" lon="1.63361">
        <ele>1624</ele>
        <time>2020-02-08T15:37:16Z</time>
      </trkpt>
      <trkpt lat="42.70355" lon="1.63359">
        <ele>1623.2</ele>
        <time>2020-02-08T15:37:17Z</time>
      </trkpt>
      <trkpt lat="42.70354" lon="1.63359">
        <ele>1623.2</ele>
        <time>2020-02-08T15:37:18Z</time>
      </trkpt>
      <trkpt lat="42.70354" lon="1.63358">
        <ele>1622.6</ele>
        <time>2020-02-08T15:37:19Z</time>
      </trkpt>
      <trkpt lat="42.70353" lon="1.63357">
        <ele>1622.8</ele>
        <time>2020-02-08T15:37:20Z</time>
      </trkpt>
      <trkpt lat="42.70352" lon="1.63357">
        <ele>1622.8</ele>
        <time>2020-02-08T15:37:21Z</time>
      </trkpt>
      <trkpt lat="42.70352" lon="1.63356">
        <ele>1622.8</ele>
        <time>2020-02-08T15:37:22Z</time>
      </trkpt>
      <trkpt lat="42.70351" lon="1.63355">
        <ele>1622.8</ele>
        <time>2020-02-08T15:37:23Z</time>
      </trkpt>
      <trkpt lat="42.7035" lon="1.63355">
        <ele>1622.2</ele>
        <time>2020-02-08T15:37:24Z</time>
      </trkpt>
      <trkpt lat="42.70349" lon="1.63354">
        <ele>1622.2</ele>
        <time>2020-02-08T15:37:25Z</time>
      </trkpt>
      <trkpt lat="42.70349" lon="1.63353">
        <ele>1622.2</ele>
        <time>2020-02-08T15:37:26Z</time>
      </trkpt>
      <trkpt lat="42.70348" lon="1.63353">
        <ele>1622.5</ele>
        <time>2020-02-08T15:37:27Z</time>
      </trkpt>
      <trkpt lat="42.70347" lon="1.63352">
        <ele>1622</ele>
        <time>2020-02-08T15:37:28Z</time>
      </trkpt>
      <trkpt lat="42.70346" lon="1.63351">
        <ele>1622</ele>
        <time>2020-02-08T15:37:29Z</time>
      </trkpt>
      <trkpt lat="42.70346" lon="1.63351">
        <ele>1622</ele>
        <time>2020-02-08T15:37:30Z</time>
      </trkpt>
      <trkpt lat="42.70345" lon="1.6335">
        <ele>1622</ele>
        <time>2020-02-08T15:37:31Z</time>
      </trkpt>
      <trkpt lat="42.70344" lon="1.63349">
        <ele>1621.5</ele>
        <time>2020-02-08T15:37:32Z</time>
      </trkpt>
      <trkpt lat="42.70343" lon="1.63348">
        <ele>1621.8</ele>
        <time>2020-02-08T15:37:33Z</time>
      </trkpt>
      <trkpt lat="42.70343" lon="1.63348">
        <ele>1621.8</ele>
        <time>2020-02-08T15:37:34Z</time>
      </trkpt>
      <trkpt lat="42.70342" lon="1.63347">
        <ele>1621.8</ele>
        <time>2020-02-08T15:37:35Z</time>
      </trkpt>
      <trkpt lat="42.70341" lon="1.63346">
        <ele>1621.4</ele>
        <time>2020-02-08T15:37:36Z</time>
      </trkpt>
      <trkpt lat="42.7034" lon="1.63345">
        <ele>1621.4</ele>
        <time>2020-02-08T15:37:37Z</time>
      </trkpt>
      <trkpt lat="42.7034" lon="1.63345">
        <ele>1621.4</ele>
        <time>2020-02-08T15:37:38Z</time>
      </trkpt>
      <trkpt lat="42.7034" lon="1.63344">
        <ele>1621.7</ele>
        <time>2020-02-08T15:37:39Z</time>
      </trkpt>
      <trkpt lat="42.7034" lon="1.63343">
        <ele>1621.7</ele>
        <time>2020-02-08T15:37:40Z</time>
      </trkpt>
      <trkpt lat="42.70339" lon="1.63342">
        <ele>1621.7</ele>
        <time>2020-02-08T15:37:41Z</time>
      </trkpt>
      <trkpt lat="42.70339" lon="1.63341">
        <ele>1621.7</ele>
        <time>2020-02-08T15:37:42Z</time>
      </trkpt>
      <trkpt lat="42.70339" lon="1.6334">
        <ele>1621.7</ele>
        <time>2020-02-08T15:37:43Z</time>
      </trkpt>
      <trkpt lat="42.70338" lon="1.6334">
        <ele>1622.1</ele>
        <time>2020-02-08T15:37:44Z</time>
      </trkpt>
      <trkpt lat="42.70338" lon="1.63339">
        <ele>1622.1</ele>
        <time>2020-02-08T15:37:45Z</time>
      </trkpt>
      <trkpt lat="42.70338" lon="1.63338">
        <ele>1621.8</ele>
        <time>2020-02-08T15:37:46Z</time>
      </trkpt>
      <trkpt lat="42.70338" lon="1.63337">
        <ele>1621.8</ele>
        <time>2020-02-08T15:37:47Z</time>
      </trkpt>
      <trkpt lat="42.70336" lon="1.63335">
        <ele>1622.2</ele>
        <time>2020-02-08T15:37:48Z</time>
      </trkpt>
      <trkpt lat="42.70336" lon="1.63334">
        <ele>1622.2</ele>
        <time>2020-02-08T15:37:49Z</time>
      </trkpt>
      <trkpt lat="42.70335" lon="1.63333">
        <ele>1622.2</ele>
        <time>2020-02-08T15:37:50Z</time>
      </trkpt>
      <trkpt lat="42.70335" lon="1.63332">
        <ele>1621.9</ele>
        <time>2020-02-08T15:37:51Z</time>
      </trkpt>
      <trkpt lat="42.70334" lon="1.63331">
        <ele>1622.3</ele>
        <time>2020-02-08T15:37:52Z</time>
      </trkpt>
      <trkpt lat="42.70334" lon="1.63331">
        <ele>1622.3</ele>
        <time>2020-02-08T15:37:53Z</time>
      </trkpt>
      <trkpt lat="42.70334" lon="1.6333">
        <ele>1622.3</ele>
        <time>2020-02-08T15:37:54Z</time>
      </trkpt>
      <trkpt lat="42.70333" lon="1.63329">
        <ele>1622.3</ele>
        <time>2020-02-08T15:37:55Z</time>
      </trkpt>
      <trkpt lat="42.70333" lon="1.63328">
        <ele>1622.3</ele>
        <time>2020-02-08T15:37:56Z</time>
      </trkpt>
      <trkpt lat="42.70333" lon="1.63327">
        <ele>1622.3</ele>
        <time>2020-02-08T15:37:57Z</time>
      </trkpt>
      <trkpt lat="42.70333" lon="1.63326">
        <ele>1622.8</ele>
        <time>2020-02-08T15:37:58Z</time>
      </trkpt>
      <trkpt lat="42.70332" lon="1.63325">
        <ele>1622.8</ele>
        <time>2020-02-08T15:37:59Z</time>
      </trkpt>
      <trkpt lat="42.70332" lon="1.63325">
        <ele>1622.8</ele>
        <time>2020-02-08T15:38:00Z</time>
      </trkpt>
      <trkpt lat="42.70332" lon="1.63324">
        <ele>1622.8</ele>
        <time>2020-02-08T15:38:01Z</time>
      </trkpt>
      <trkpt lat="42.70332" lon="1.63323">
        <ele>1623.2</ele>
        <time>2020-02-08T15:38:02Z</time>
      </trkpt>
      <trkpt lat="42.70332" lon="1.63322">
        <ele>1623.2</ele>
        <time>2020-02-08T15:38:03Z</time>
      </trkpt>
      <trkpt lat="42.70332" lon="1.63321">
        <ele>1623.2</ele>
        <time>2020-02-08T15:38:04Z</time>
      </trkpt>
      <trkpt lat="42.70332" lon="1.6332">
        <ele>1623.2</ele>
        <time>2020-02-08T15:38:05Z</time>
      </trkpt>
      <trkpt lat="42.70332" lon="1.63319">
        <ele>1623.2</ele>
        <time>2020-02-08T15:38:06Z</time>
      </trkpt>
      <trkpt lat="42.70332" lon="1.63318">
        <ele>1623.7</ele>
        <time>2020-02-08T15:38:07Z</time>
      </trkpt>
      <trkpt lat="42.70332" lon="1.63317">
        <ele>1623.7</ele>
        <time>2020-02-08T15:38:08Z</time>
      </trkpt>
      <trkpt lat="42.70332" lon="1.63316">
        <ele>1623.7</ele>
        <time>2020-02-08T15:38:09Z</time>
      </trkpt>
      <trkpt lat="42.70332" lon="1.63315">
        <ele>1623.7</ele>
        <time>2020-02-08T15:38:10Z</time>
      </trkpt>
      <trkpt lat="42.70332" lon="1.63314">
        <ele>1623.7</ele>
        <time>2020-02-08T15:38:11Z</time>
      </trkpt>
      <trkpt lat="42.70332" lon="1.63313">
        <ele>1624.2</ele>
        <time>2020-02-08T15:38:12Z</time>
      </trkpt>
      <trkpt lat="42.70332" lon="1.63313">
        <ele>1624.2</ele>
        <time>2020-02-08T15:38:13Z</time>
      </trkpt>
      <trkpt lat="42.70332" lon="1.63312">
        <ele>1624.2</ele>
        <time>2020-02-08T15:38:14Z</time>
      </trkpt>
      <trkpt lat="42.70332" lon="1.63311">
        <ele>1624.2</ele>
        <time>2020-02-08T15:38:15Z</time>
      </trkpt>
      <trkpt lat="42.70332" lon="1.6331">
        <ele>1624.5</ele>
        <time>2020-02-08T15:38:16Z</time>
      </trkpt>
      <trkpt lat="42.70332" lon="1.63309">
        <ele>1624.5</ele>
        <time>2020-02-08T15:38:17Z</time>
      </trkpt>
      <trkpt lat="42.70332" lon="1.63306">
        <ele>1625.1</ele>
        <time>2020-02-08T15:38:18Z</time>
      </trkpt>
      <trkpt lat="42.70331" lon="1.63305">
        <ele>1625.1</ele>
        <time>2020-02-08T15:38:19Z</time>
      </trkpt>
      <trkpt lat="42.70331" lon="1.63304">
        <ele>1625.1</ele>
        <time>2020-02-08T15:38:20Z</time>
      </trkpt>
      <trkpt lat="42.70331" lon="1.63303">
        <ele>1625.1</ele>
        <time>2020-02-08T15:38:21Z</time>
      </trkpt>
      <trkpt lat="42.70331" lon="1.63302">
        <ele>1625.1</ele>
        <time>2020-02-08T15:38:22Z</time>
      </trkpt>
      <trkpt lat="42.70331" lon="1.63301">
        <ele>1625.6</ele>
        <time>2020-02-08T15:38:23Z</time>
      </trkpt>
      <trkpt lat="42.70331" lon="1.633">
        <ele>1625.6</ele>
        <time>2020-02-08T15:38:24Z</time>
      </trkpt>
      <trkpt lat="42.70331" lon="1.63299">
        <ele>1625.6</ele>
        <time>2020-02-08T15:38:25Z</time>
      </trkpt>
      <trkpt lat="42.70331" lon="1.63298">
        <ele>1625.6</ele>
        <time>2020-02-08T15:38:26Z</time>
      </trkpt>
      <trkpt lat="42.7033" lon="1.63297">
        <ele>1626.2</ele>
        <time>2020-02-08T15:38:27Z</time>
      </trkpt>
      <trkpt lat="42.7033" lon="1.63293">
        <ele>1626.7</ele>
        <time>2020-02-08T15:38:28Z</time>
      </trkpt>
      <trkpt lat="42.7033" lon="1.63292">
        <ele>1626.7</ele>
        <time>2020-02-08T15:38:29Z</time>
      </trkpt>
      <trkpt lat="42.7033" lon="1.63291">
        <ele>1626.7</ele>
        <time>2020-02-08T15:38:30Z</time>
      </trkpt>
      <trkpt lat="42.7033" lon="1.6329">
        <ele>1626.7</ele>
        <time>2020-02-08T15:38:31Z</time>
      </trkpt>
      <trkpt lat="42.7033" lon="1.63289">
        <ele>1626.7</ele>
        <time>2020-02-08T15:38:32Z</time>
      </trkpt>
      <trkpt lat="42.7033" lon="1.63289">
        <ele>1627.2</ele>
        <time>2020-02-08T15:38:33Z</time>
      </trkpt>
      <trkpt lat="42.7033" lon="1.63288">
        <ele>1627.2</ele>
        <time>2020-02-08T15:38:34Z</time>
      </trkpt>
      <trkpt lat="42.7033" lon="1.63287">
        <ele>1627.2</ele>
        <time>2020-02-08T15:38:35Z</time>
      </trkpt>
      <trkpt lat="42.7033" lon="1.63286">
        <ele>1627.2</ele>
        <time>2020-02-08T15:38:36Z</time>
      </trkpt>
      <trkpt lat="42.7033" lon="1.63285">
        <ele>1627.2</ele>
        <time>2020-02-08T15:38:37Z</time>
      </trkpt>
      <trkpt lat="42.7033" lon="1.63284">
        <ele>1627.2</ele>
        <time>2020-02-08T15:38:38Z</time>
      </trkpt>
      <trkpt lat="42.70329" lon="1.63284">
        <ele>1627.7</ele>
        <time>2020-02-08T15:38:39Z</time>
      </trkpt>
      <trkpt lat="42.70329" lon="1.63283">
        <ele>1627.7</ele>
        <time>2020-02-08T15:38:40Z</time>
      </trkpt>
      <trkpt lat="42.70328" lon="1.63282">
        <ele>1627.7</ele>
        <time>2020-02-08T15:38:41Z</time>
      </trkpt>
      <trkpt lat="42.70328" lon="1.63282">
        <ele>1627.7</ele>
        <time>2020-02-08T15:38:42Z</time>
      </trkpt>
      <trkpt lat="42.70328" lon="1.63281">
        <ele>1627.7</ele>
        <time>2020-02-08T15:38:43Z</time>
      </trkpt>
      <trkpt lat="42.70327" lon="1.6328">
        <ele>1627.7</ele>
        <time>2020-02-08T15:38:44Z</time>
      </trkpt>
      <trkpt lat="42.70327" lon="1.63279">
        <ele>1628.2</ele>
        <time>2020-02-08T15:38:45Z</time>
      </trkpt>
      <trkpt lat="42.70326" lon="1.63279">
        <ele>1628.2</ele>
        <time>2020-02-08T15:38:46Z</time>
      </trkpt>
      <trkpt lat="42.70326" lon="1.63278">
        <ele>1628.2</ele>
        <time>2020-02-08T15:38:47Z</time>
      </trkpt>
      <trkpt lat="42.70326" lon="1.63276">
        <ele>1628.7</ele>
        <time>2020-02-08T15:38:48Z</time>
      </trkpt>
      <trkpt lat="42.70326" lon="1.63276">
        <ele>1628.7</ele>
        <time>2020-02-08T15:38:49Z</time>
      </trkpt>
      <trkpt lat="42.70326" lon="1.63276">
        <ele>1628.7</ele>
        <time>2020-02-08T15:38:50Z</time>
      </trkpt>
      <trkpt lat="42.70326" lon="1.63276">
        <ele>1628.7</ele>
        <time>2020-02-08T15:38:51Z</time>
      </trkpt>
      <trkpt lat="42.70326" lon="1.63276">
        <ele>1628.7</ele>
        <time>2020-02-08T15:38:52Z</time>
      </trkpt>
      <trkpt lat="42.70326" lon="1.63276">
        <ele>1628.7</ele>
        <time>2020-02-08T15:38:53Z</time>
      </trkpt>
      <trkpt lat="42.70326" lon="1.63276">
        <ele>1628.7</ele>
        <time>2020-02-08T15:38:54Z</time>
      </trkpt>
      <trkpt lat="42.70326" lon="1.63276">
        <ele>1628.7</ele>
        <time>2020-02-08T15:38:55Z</time>
      </trkpt>
      <trkpt lat="42.70326" lon="1.63276">
        <ele>1628.7</ele>
        <time>2020-02-08T15:38:56Z</time>
      </trkpt>
      <trkpt lat="42.70326" lon="1.63276">
        <ele>1628.7</ele>
        <time>2020-02-08T15:38:57Z</time>
      </trkpt>
      <trkpt lat="42.70326" lon="1.63275">
        <ele>1628.7</ele>
        <time>2020-02-08T15:38:58Z</time>
      </trkpt>
      <trkpt lat="42.70326" lon="1.63275">
        <ele>1628.7</ele>
        <time>2020-02-08T15:38:59Z</time>
      </trkpt>
      <trkpt lat="42.70326" lon="1.63275">
        <ele>1628.7</ele>
        <time>2020-02-08T15:39:00Z</time>
      </trkpt>
      <trkpt lat="42.70326" lon="1.63274">
        <ele>1628.7</ele>
        <time>2020-02-08T15:39:01Z</time>
      </trkpt>
      <trkpt lat="42.70326" lon="1.63274">
        <ele>1628.7</ele>
        <time>2020-02-08T15:39:02Z</time>
      </trkpt>
      <trkpt lat="42.70325" lon="1.63274">
        <ele>1628.7</ele>
        <time>2020-02-08T15:39:03Z</time>
      </trkpt>
      <trkpt lat="42.70325" lon="1.63274">
        <ele>1628.7</ele>
        <time>2020-02-08T15:39:04Z</time>
      </trkpt>
      <trkpt lat="42.70325" lon="1.63273">
        <ele>1628.7</ele>
        <time>2020-02-08T15:39:05Z</time>
      </trkpt>
      <trkpt lat="42.70325" lon="1.63273">
        <ele>1628.7</ele>
        <time>2020-02-08T15:39:06Z</time>
      </trkpt>
      <trkpt lat="42.70325" lon="1.63273">
        <ele>1628.7</ele>
        <time>2020-02-08T15:39:07Z</time>
      </trkpt>
      <trkpt lat="42.70325" lon="1.63273">
        <ele>1628.7</ele>
        <time>2020-02-08T15:39:08Z</time>
      </trkpt>
      <trkpt lat="42.70325" lon="1.63272">
        <ele>1628.7</ele>
        <time>2020-02-08T15:39:09Z</time>
      </trkpt>
      <trkpt lat="42.70324" lon="1.63272">
        <ele>1628.7</ele>
        <time>2020-02-08T15:39:10Z</time>
      </trkpt>
      <trkpt lat="42.70324" lon="1.63272">
        <ele>1628.7</ele>
        <time>2020-02-08T15:39:11Z</time>
      </trkpt>
      <trkpt lat="42.70324" lon="1.63272">
        <ele>1628.7</ele>
        <time>2020-02-08T15:39:12Z</time>
      </trkpt>
      <trkpt lat="42.70324" lon="1.63271">
        <ele>1629.2</ele>
        <time>2020-02-08T15:39:13Z</time>
      </trkpt>
      <trkpt lat="42.70324" lon="1.63271">
        <ele>1629.2</ele>
        <time>2020-02-08T15:39:14Z</time>
      </trkpt>
      <trkpt lat="42.70324" lon="1.63271">
        <ele>1629.2</ele>
        <time>2020-02-08T15:39:15Z</time>
      </trkpt>
      <trkpt lat="42.70324" lon="1.63271">
        <ele>1629.2</ele>
        <time>2020-02-08T15:39:16Z</time>
      </trkpt>
      <trkpt lat="42.70323" lon="1.6327">
        <ele>1629.2</ele>
        <time>2020-02-08T15:39:17Z</time>
      </trkpt>
      <trkpt lat="42.70323" lon="1.6327">
        <ele>1629.2</ele>
        <time>2020-02-08T15:39:18Z</time>
      </trkpt>
      <trkpt lat="42.70323" lon="1.6327">
        <ele>1629.2</ele>
        <time>2020-02-08T15:39:19Z</time>
      </trkpt>
      <trkpt lat="42.70323" lon="1.6327">
        <ele>1629.2</ele>
        <time>2020-02-08T15:39:20Z</time>
      </trkpt>
      <trkpt lat="42.70323" lon="1.6327">
        <ele>1629.2</ele>
        <time>2020-02-08T15:39:21Z</time>
      </trkpt>
      <trkpt lat="42.70326" lon="1.6327">
        <ele>1629.1</ele>
        <time>2020-02-08T15:39:22Z</time>
      </trkpt>
      <trkpt lat="42.70326" lon="1.6327">
        <ele>1629.1</ele>
        <time>2020-02-08T15:39:23Z</time>
      </trkpt>
      <trkpt lat="42.70326" lon="1.6327">
        <ele>1629.1</ele>
        <time>2020-02-08T15:39:24Z</time>
      </trkpt>
      <trkpt lat="42.70326" lon="1.6327">
        <ele>1629.1</ele>
        <time>2020-02-08T15:39:25Z</time>
      </trkpt>
      <trkpt lat="42.70326" lon="1.6327">
        <ele>1629.1</ele>
        <time>2020-02-08T15:39:26Z</time>
      </trkpt>
      <trkpt lat="42.70326" lon="1.6327">
        <ele>1629.1</ele>
        <time>2020-02-08T15:39:27Z</time>
      </trkpt>
      <trkpt lat="42.70326" lon="1.6327">
        <ele>1629.1</ele>
        <time>2020-02-08T15:39:28Z</time>
      </trkpt>
      <trkpt lat="42.70326" lon="1.6327">
        <ele>1629.1</ele>
        <time>2020-02-08T15:39:29Z</time>
      </trkpt>
      <trkpt lat="42.70326" lon="1.6327">
        <ele>1629.1</ele>
        <time>2020-02-08T15:39:30Z</time>
      </trkpt>
      <trkpt lat="42.70326" lon="1.6327">
        <ele>1629.1</ele>
        <time>2020-02-08T15:39:31Z</time>
      </trkpt>
      <trkpt lat="42.70326" lon="1.6327">
        <ele>1629.1</ele>
        <time>2020-02-08T15:39:32Z</time>
      </trkpt>
      <trkpt lat="42.70326" lon="1.6327">
        <ele>1629.1</ele>
        <time>2020-02-08T15:39:33Z</time>
      </trkpt>
      <trkpt lat="42.70326" lon="1.6327">
        <ele>1629.1</ele>
        <time>2020-02-08T15:39:34Z</time>
      </trkpt>
      <trkpt lat="42.70326" lon="1.6327">
        <ele>1629.1</ele>
        <time>2020-02-08T15:39:35Z</time>
      </trkpt>
      <trkpt lat="42.70326" lon="1.6327">
        <ele>1629.1</ele>
        <time>2020-02-08T15:39:36Z</time>
      </trkpt>
      <trkpt lat="42.70326" lon="1.6327">
        <ele>1629.1</ele>
        <time>2020-02-08T15:39:37Z</time>
      </trkpt>
      <trkpt lat="42.70326" lon="1.6327">
        <ele>1629.1</ele>
        <time>2020-02-08T15:39:38Z</time>
      </trkpt>
      <trkpt lat="42.70326" lon="1.6327">
        <ele>1629.1</ele>
        <time>2020-02-08T15:39:39Z</time>
      </trkpt>
      <trkpt lat="42.70326" lon="1.6327">
        <ele>1629.1</ele>
        <time>2020-02-08T15:39:40Z</time>
      </trkpt>
      <trkpt lat="42.70326" lon="1.6327">
        <ele>1629.1</ele>
        <time>2020-02-08T15:39:41Z</time>
      </trkpt>
      <trkpt lat="42.70326" lon="1.6327">
        <ele>1629.1</ele>
        <time>2020-02-08T15:39:42Z</time>
      </trkpt>
      <trkpt lat="42.70326" lon="1.6327">
        <ele>1629.1</ele>
        <time>2020-02-08T15:39:43Z</time>
      </trkpt>
      <trkpt lat="42.70326" lon="1.6327">
        <ele>1629.1</ele>
        <time>2020-02-08T15:39:44Z</time>
      </trkpt>
      <trkpt lat="42.70326" lon="1.6327">
        <ele>1629.1</ele>
        <time>2020-02-08T15:39:45Z</time>
      </trkpt>
      <trkpt lat="42.70326" lon="1.6327">
        <ele>1629.1</ele>
        <time>2020-02-08T15:39:46Z</time>
      </trkpt>
      <trkpt lat="42.70326" lon="1.6327">
        <ele>1629.1</ele>
        <time>2020-02-08T15:39:47Z</time>
      </trkpt>
      <trkpt lat="42.70327" lon="1.63269">
        <ele>1629.1</ele>
        <time>2020-02-08T15:39:48Z</time>
      </trkpt>
      <trkpt lat="42.70327" lon="1.63269">
        <ele>1629.1</ele>
        <time>2020-02-08T15:39:49Z</time>
      </trkpt>
      <trkpt lat="42.70328" lon="1.63268">
        <ele>1629.1</ele>
        <time>2020-02-08T15:39:50Z</time>
      </trkpt>
      <trkpt lat="42.70329" lon="1.63268">
        <ele>1629.1</ele>
        <time>2020-02-08T15:39:51Z</time>
      </trkpt>
      <trkpt lat="42.7033" lon="1.63268">
        <ele>1629.1</ele>
        <time>2020-02-08T15:39:52Z</time>
      </trkpt>
      <trkpt lat="42.70331" lon="1.63267">
        <ele>1629.1</ele>
        <time>2020-02-08T15:39:53Z</time>
      </trkpt>
      <trkpt lat="42.70332" lon="1.63267">
        <ele>1629.5</ele>
        <time>2020-02-08T15:39:54Z</time>
      </trkpt>
      <trkpt lat="42.70333" lon="1.63267">
        <ele>1629.5</ele>
        <time>2020-02-08T15:39:55Z</time>
      </trkpt>
      <trkpt lat="42.70333" lon="1.63266">
        <ele>1629.5</ele>
        <time>2020-02-08T15:39:56Z</time>
      </trkpt>
      <trkpt lat="42.70334" lon="1.63266">
        <ele>1629.5</ele>
        <time>2020-02-08T15:39:57Z</time>
      </trkpt>
      <trkpt lat="42.70336" lon="1.63266">
        <ele>1629.6</ele>
        <time>2020-02-08T15:39:58Z</time>
      </trkpt>
      <trkpt lat="42.70338" lon="1.63265">
        <ele>1629.6</ele>
        <time>2020-02-08T15:39:59Z</time>
      </trkpt>
      <trkpt lat="42.70341" lon="1.63265">
        <ele>1629.6</ele>
        <time>2020-02-08T15:40:00Z</time>
      </trkpt>
      <trkpt lat="42.70343" lon="1.63265">
        <ele>1629.8</ele>
        <time>2020-02-08T15:40:01Z</time>
      </trkpt>
      <trkpt lat="42.70345" lon="1.63265">
        <ele>1629.9</ele>
        <time>2020-02-08T15:40:02Z</time>
      </trkpt>
      <trkpt lat="42.70347" lon="1.63264">
        <ele>1629.9</ele>
        <time>2020-02-08T15:40:03Z</time>
      </trkpt>
      <trkpt lat="42.70349" lon="1.63264">
        <ele>1630</ele>
        <time>2020-02-08T15:40:04Z</time>
      </trkpt>
      <trkpt lat="42.70351" lon="1.63264">
        <ele>1630.2</ele>
        <time>2020-02-08T15:40:05Z</time>
      </trkpt>
      <trkpt lat="42.70353" lon="1.63264">
        <ele>1630.2</ele>
        <time>2020-02-08T15:40:06Z</time>
      </trkpt>
      <trkpt lat="42.70355" lon="1.63263">
        <ele>1630.5</ele>
        <time>2020-02-08T15:40:07Z</time>
      </trkpt>
      <trkpt lat="42.70354" lon="1.63263">
        <ele>1630.9</ele>
        <time>2020-02-08T15:40:08Z</time>
      </trkpt>
      <trkpt lat="42.70353" lon="1.63262">
        <ele>1630.7</ele>
        <time>2020-02-08T15:40:09Z</time>
      </trkpt>
      <trkpt lat="42.70352" lon="1.63262">
        <ele>1630.7</ele>
        <time>2020-02-08T15:40:10Z</time>
      </trkpt>
      <trkpt lat="42.70351" lon="1.63261">
        <ele>1630.7</ele>
        <time>2020-02-08T15:40:11Z</time>
      </trkpt>
      <trkpt lat="42.7035" lon="1.63261">
        <ele>1630.5</ele>
        <time>2020-02-08T15:40:12Z</time>
      </trkpt>
      <trkpt lat="42.70349" lon="1.6326">
        <ele>1630.5</ele>
        <time>2020-02-08T15:40:13Z</time>
      </trkpt>
      <trkpt lat="42.70348" lon="1.63259">
        <ele>1630.5</ele>
        <time>2020-02-08T15:40:14Z</time>
      </trkpt>
      <trkpt lat="42.70347" lon="1.63259">
        <ele>1630.3</ele>
        <time>2020-02-08T15:40:15Z</time>
      </trkpt>
      <trkpt lat="42.70346" lon="1.63258">
        <ele>1630.8</ele>
        <time>2020-02-08T15:40:16Z</time>
      </trkpt>
      <trkpt lat="42.70345" lon="1.63258">
        <ele>1630.8</ele>
        <time>2020-02-08T15:40:17Z</time>
      </trkpt>
      <trkpt lat="42.70344" lon="1.63258">
        <ele>1630.7</ele>
        <time>2020-02-08T15:40:18Z</time>
      </trkpt>
      <trkpt lat="42.70344" lon="1.63257">
        <ele>1630.7</ele>
        <time>2020-02-08T15:40:19Z</time>
      </trkpt>
      <trkpt lat="42.70343" lon="1.63257">
        <ele>1630.7</ele>
        <time>2020-02-08T15:40:20Z</time>
      </trkpt>
      <trkpt lat="42.70343" lon="1.63257">
        <ele>1630.7</ele>
        <time>2020-02-08T15:40:21Z</time>
      </trkpt>
      <trkpt lat="42.70342" lon="1.63257">
        <ele>1630.7</ele>
        <time>2020-02-08T15:40:22Z</time>
      </trkpt>
      <trkpt lat="42.70342" lon="1.63256">
        <ele>1630.7</ele>
        <time>2020-02-08T15:40:23Z</time>
      </trkpt>
      <trkpt lat="42.70341" lon="1.63256">
        <ele>1630.7</ele>
        <time>2020-02-08T15:40:24Z</time>
      </trkpt>
      <trkpt lat="42.70341" lon="1.63256">
        <ele>1630.6</ele>
        <time>2020-02-08T15:40:25Z</time>
      </trkpt>
      <trkpt lat="42.70341" lon="1.63256">
        <ele>1630.6</ele>
        <time>2020-02-08T15:40:26Z</time>
      </trkpt>
      <trkpt lat="42.7034" lon="1.63256">
        <ele>1630.6</ele>
        <time>2020-02-08T15:40:27Z</time>
      </trkpt>
      <trkpt lat="42.7034" lon="1.63255">
        <ele>1630.6</ele>
        <time>2020-02-08T15:40:28Z</time>
      </trkpt>
      <trkpt lat="42.70339" lon="1.63255">
        <ele>1630.6</ele>
        <time>2020-02-08T15:40:29Z</time>
      </trkpt>
      <trkpt lat="42.70339" lon="1.63255">
        <ele>1630.6</ele>
        <time>2020-02-08T15:40:30Z</time>
      </trkpt>
      <trkpt lat="42.70338" lon="1.63255">
        <ele>1630.6</ele>
        <time>2020-02-08T15:40:31Z</time>
      </trkpt>
      <trkpt lat="42.70338" lon="1.63254">
        <ele>1630.5</ele>
        <time>2020-02-08T15:40:32Z</time>
      </trkpt>
      <trkpt lat="42.70337" lon="1.63254">
        <ele>1631</ele>
        <time>2020-02-08T15:40:33Z</time>
      </trkpt>
      <trkpt lat="42.70337" lon="1.63254">
        <ele>1631</ele>
        <time>2020-02-08T15:40:34Z</time>
      </trkpt>
      <trkpt lat="42.70336" lon="1.63254">
        <ele>1631</ele>
        <time>2020-02-08T15:40:35Z</time>
      </trkpt>
      <trkpt lat="42.70336" lon="1.63254">
        <ele>1631</ele>
        <time>2020-02-08T15:40:36Z</time>
      </trkpt>
      <trkpt lat="42.70335" lon="1.63253">
        <ele>1631</ele>
        <time>2020-02-08T15:40:37Z</time>
      </trkpt>
      <trkpt lat="42.70336" lon="1.63254">
        <ele>1631</ele>
        <time>2020-02-08T15:40:38Z</time>
      </trkpt>
      <trkpt lat="42.70336" lon="1.63255">
        <ele>1630.5</ele>
        <time>2020-02-08T15:40:39Z</time>
      </trkpt>
      <trkpt lat="42.70336" lon="1.63255">
        <ele>1630.5</ele>
        <time>2020-02-08T15:40:40Z</time>
      </trkpt>
      <trkpt lat="42.70336" lon="1.63256">
        <ele>1630.5</ele>
        <time>2020-02-08T15:40:41Z</time>
      </trkpt>
      <trkpt lat="42.70336" lon="1.63256">
        <ele>1630.5</ele>
        <time>2020-02-08T15:40:42Z</time>
      </trkpt>
      <trkpt lat="42.70336" lon="1.63257">
        <ele>1630.5</ele>
        <time>2020-02-08T15:40:43Z</time>
      </trkpt>
      <trkpt lat="42.70336" lon="1.63258">
        <ele>1630.5</ele>
        <time>2020-02-08T15:40:44Z</time>
      </trkpt>
      <trkpt lat="42.70336" lon="1.63258">
        <ele>1630.5</ele>
        <time>2020-02-08T15:40:45Z</time>
      </trkpt>
      <trkpt lat="42.70336" lon="1.63259">
        <ele>1630</ele>
        <time>2020-02-08T15:40:46Z</time>
      </trkpt>
      <trkpt lat="42.70337" lon="1.63259">
        <ele>1630</ele>
        <time>2020-02-08T15:40:47Z</time>
      </trkpt>
      <trkpt lat="42.70337" lon="1.6326">
        <ele>1630</ele>
        <time>2020-02-08T15:40:48Z</time>
      </trkpt>
      <trkpt lat="42.70337" lon="1.63261">
        <ele>1630</ele>
        <time>2020-02-08T15:40:49Z</time>
      </trkpt>
      <trkpt lat="42.70337" lon="1.63261">
        <ele>1630</ele>
        <time>2020-02-08T15:40:50Z</time>
      </trkpt>
      <trkpt lat="42.70337" lon="1.63262">
        <ele>1630</ele>
        <time>2020-02-08T15:40:51Z</time>
      </trkpt>
      <trkpt lat="42.70337" lon="1.63262">
        <ele>1630</ele>
        <time>2020-02-08T15:40:52Z</time>
      </trkpt>
      <trkpt lat="42.70337" lon="1.63263">
        <ele>1629.6</ele>
        <time>2020-02-08T15:40:53Z</time>
      </trkpt>
      <trkpt lat="42.70337" lon="1.63264">
        <ele>1629.6</ele>
        <time>2020-02-08T15:40:54Z</time>
      </trkpt>
      <trkpt lat="42.70337" lon="1.63264">
        <ele>1629.6</ele>
        <time>2020-02-08T15:40:55Z</time>
      </trkpt>
      <trkpt lat="42.70337" lon="1.63265">
        <ele>1629.6</ele>
        <time>2020-02-08T15:40:56Z</time>
      </trkpt>
      <trkpt lat="42.70338" lon="1.63265">
        <ele>1629.6</ele>
        <time>2020-02-08T15:40:57Z</time>
      </trkpt>
      <trkpt lat="42.70337" lon="1.63265">
        <ele>1629.6</ele>
        <time>2020-02-08T15:40:58Z</time>
      </trkpt>
      <trkpt lat="42.70337" lon="1.63265">
        <ele>1629.6</ele>
        <time>2020-02-08T15:40:59Z</time>
      </trkpt>
      <trkpt lat="42.70336" lon="1.63265">
        <ele>1629.6</ele>
        <time>2020-02-08T15:41:00Z</time>
      </trkpt>
      <trkpt lat="42.70336" lon="1.63265">
        <ele>1629.6</ele>
        <time>2020-02-08T15:41:01Z</time>
      </trkpt>
      <trkpt lat="42.70335" lon="1.63265">
        <ele>1629.6</ele>
        <time>2020-02-08T15:41:02Z</time>
      </trkpt>
      <trkpt lat="42.70335" lon="1.63265">
        <ele>1629.6</ele>
        <time>2020-02-08T15:41:03Z</time>
      </trkpt>
      <trkpt lat="42.70335" lon="1.63265">
        <ele>1629.5</ele>
        <time>2020-02-08T15:41:04Z</time>
      </trkpt>
      <trkpt lat="42.70334" lon="1.63265">
        <ele>1629.5</ele>
        <time>2020-02-08T15:41:05Z</time>
      </trkpt>
      <trkpt lat="42.70334" lon="1.63265">
        <ele>1629.5</ele>
        <time>2020-02-08T15:41:06Z</time>
      </trkpt>
      <trkpt lat="42.70333" lon="1.63265">
        <ele>1629.5</ele>
        <time>2020-02-08T15:41:07Z</time>
      </trkpt>
      <trkpt lat="42.70333" lon="1.63265">
        <ele>1629.5</ele>
        <time>2020-02-08T15:41:08Z</time>
      </trkpt>
      <trkpt lat="42.70333" lon="1.63265">
        <ele>1629.5</ele>
        <time>2020-02-08T15:41:09Z</time>
      </trkpt>
      <trkpt lat="42.70332" lon="1.63265">
        <ele>1629.5</ele>
        <time>2020-02-08T15:41:10Z</time>
      </trkpt>
      <trkpt lat="42.70332" lon="1.63265">
        <ele>1629.5</ele>
        <time>2020-02-08T15:41:11Z</time>
      </trkpt>
      <trkpt lat="42.70331" lon="1.63265">
        <ele>1629.5</ele>
        <time>2020-02-08T15:41:12Z</time>
      </trkpt>
      <trkpt lat="42.70331" lon="1.63265">
        <ele>1629.5</ele>
        <time>2020-02-08T15:41:13Z</time>
      </trkpt>
      <trkpt lat="42.7033" lon="1.63265">
        <ele>1629.5</ele>
        <time>2020-02-08T15:41:14Z</time>
      </trkpt>
      <trkpt lat="42.7033" lon="1.63265">
        <ele>1629.5</ele>
        <time>2020-02-08T15:41:15Z</time>
      </trkpt>
      <trkpt lat="42.7033" lon="1.63265">
        <ele>1629.5</ele>
        <time>2020-02-08T15:41:16Z</time>
      </trkpt>
      <trkpt lat="42.70329" lon="1.63265">
        <ele>1629.5</ele>
        <time>2020-02-08T15:41:17Z</time>
      </trkpt>
      <trkpt lat="42.7033" lon="1.63266">
        <ele>1629.5</ele>
        <time>2020-02-08T15:41:18Z</time>
      </trkpt>
      <trkpt lat="42.7033" lon="1.63266">
        <ele>1629.5</ele>
        <time>2020-02-08T15:41:19Z</time>
      </trkpt>
      <trkpt lat="42.70331" lon="1.63267">
        <ele>1629.5</ele>
        <time>2020-02-08T15:41:20Z</time>
      </trkpt>
      <trkpt lat="42.70331" lon="1.63267">
        <ele>1629.1</ele>
        <time>2020-02-08T15:41:21Z</time>
      </trkpt>
      <trkpt lat="42.70331" lon="1.63268">
        <ele>1629.1</ele>
        <time>2020-02-08T15:41:22Z</time>
      </trkpt>
      <trkpt lat="42.70332" lon="1.63269">
        <ele>1629.1</ele>
        <time>2020-02-08T15:41:23Z</time>
      </trkpt>
      <trkpt lat="42.70332" lon="1.63269">
        <ele>1629.1</ele>
        <time>2020-02-08T15:41:24Z</time>
      </trkpt>
      <trkpt lat="42.70333" lon="1.6327">
        <ele>1629.1</ele>
        <time>2020-02-08T15:41:25Z</time>
      </trkpt>
      <trkpt lat="42.70333" lon="1.6327">
        <ele>1629.1</ele>
        <time>2020-02-08T15:41:26Z</time>
      </trkpt>
      <trkpt lat="42.70334" lon="1.63271">
        <ele>1629.1</ele>
        <time>2020-02-08T15:41:27Z</time>
      </trkpt>
      <trkpt lat="42.70334" lon="1.63271">
        <ele>1629.1</ele>
        <time>2020-02-08T15:41:28Z</time>
      </trkpt>
      <trkpt lat="42.70335" lon="1.63272">
        <ele>1628.6</ele>
        <time>2020-02-08T15:41:29Z</time>
      </trkpt>
      <trkpt lat="42.70335" lon="1.63272">
        <ele>1628.7</ele>
        <time>2020-02-08T15:41:30Z</time>
      </trkpt>
      <trkpt lat="42.70335" lon="1.63273">
        <ele>1628.7</ele>
        <time>2020-02-08T15:41:31Z</time>
      </trkpt>
      <trkpt lat="42.70336" lon="1.63274">
        <ele>1628.7</ele>
        <time>2020-02-08T15:41:32Z</time>
      </trkpt>
      <trkpt lat="42.70336" lon="1.63274">
        <ele>1628.7</ele>
        <time>2020-02-08T15:41:33Z</time>
      </trkpt>
      <trkpt lat="42.70337" lon="1.63275">
        <ele>1628.7</ele>
        <time>2020-02-08T15:41:34Z</time>
      </trkpt>
      <trkpt lat="42.70337" lon="1.63275">
        <ele>1628.7</ele>
        <time>2020-02-08T15:41:35Z</time>
      </trkpt>
      <trkpt lat="42.70338" lon="1.63276">
        <ele>1628.7</ele>
        <time>2020-02-08T15:41:36Z</time>
      </trkpt>
      <trkpt lat="42.70338" lon="1.63276">
        <ele>1628.3</ele>
        <time>2020-02-08T15:41:37Z</time>
      </trkpt>
      <trkpt lat="42.70339" lon="1.63278">
        <ele>1628.3</ele>
        <time>2020-02-08T15:41:38Z</time>
      </trkpt>
      <trkpt lat="42.70339" lon="1.63278">
        <ele>1628.3</ele>
        <time>2020-02-08T15:41:39Z</time>
      </trkpt>
      <trkpt lat="42.70339" lon="1.63279">
        <ele>1628.3</ele>
        <time>2020-02-08T15:41:40Z</time>
      </trkpt>
      <trkpt lat="42.7034" lon="1.63279">
        <ele>1628.3</ele>
        <time>2020-02-08T15:41:41Z</time>
      </trkpt>
      <trkpt lat="42.7034" lon="1.6328">
        <ele>1628.3</ele>
        <time>2020-02-08T15:41:42Z</time>
      </trkpt>
      <trkpt lat="42.7034" lon="1.6328">
        <ele>1627.9</ele>
        <time>2020-02-08T15:41:43Z</time>
      </trkpt>
      <trkpt lat="42.7034" lon="1.63281">
        <ele>1627.9</ele>
        <time>2020-02-08T15:41:44Z</time>
      </trkpt>
      <trkpt lat="42.7034" lon="1.63281">
        <ele>1627.9</ele>
        <time>2020-02-08T15:41:45Z</time>
      </trkpt>
      <trkpt lat="42.70341" lon="1.63282">
        <ele>1627.9</ele>
        <time>2020-02-08T15:41:46Z</time>
      </trkpt>
      <trkpt lat="42.70341" lon="1.63282">
        <ele>1627.9</ele>
        <time>2020-02-08T15:41:47Z</time>
      </trkpt>
      <trkpt lat="42.70341" lon="1.63285">
        <ele>1627.4</ele>
        <time>2020-02-08T15:41:48Z</time>
      </trkpt>
      <trkpt lat="42.70341" lon="1.63285">
        <ele>1627.4</ele>
        <time>2020-02-08T15:41:49Z</time>
      </trkpt>
      <trkpt lat="42.70341" lon="1.63285">
        <ele>1627.4</ele>
        <time>2020-02-08T15:41:50Z</time>
      </trkpt>
      <trkpt lat="42.70341" lon="1.63285">
        <ele>1627.4</ele>
        <time>2020-02-08T15:41:51Z</time>
      </trkpt>
      <trkpt lat="42.70341" lon="1.63285">
        <ele>1627.4</ele>
        <time>2020-02-08T15:41:52Z</time>
      </trkpt>
      <trkpt lat="42.70341" lon="1.63285">
        <ele>1627.4</ele>
        <time>2020-02-08T15:41:53Z</time>
      </trkpt>
      <trkpt lat="42.70341" lon="1.63285">
        <ele>1627.4</ele>
        <time>2020-02-08T15:41:54Z</time>
      </trkpt>
      <trkpt lat="42.70341" lon="1.63285">
        <ele>1627.4</ele>
        <time>2020-02-08T15:41:55Z</time>
      </trkpt>
      <trkpt lat="42.70341" lon="1.63285">
        <ele>1627.4</ele>
        <time>2020-02-08T15:41:56Z</time>
      </trkpt>
      <trkpt lat="42.70341" lon="1.63285">
        <ele>1627.4</ele>
        <time>2020-02-08T15:41:57Z</time>
      </trkpt>
      <trkpt lat="42.70341" lon="1.63285">
        <ele>1627.4</ele>
        <time>2020-02-08T15:41:58Z</time>
      </trkpt>
      <trkpt lat="42.70341" lon="1.63285">
        <ele>1627.4</ele>
        <time>2020-02-08T15:41:59Z</time>
      </trkpt>
      <trkpt lat="42.70341" lon="1.63285">
        <ele>1627.4</ele>
        <time>2020-02-08T15:42:00Z</time>
      </trkpt>
      <trkpt lat="42.70341" lon="1.63285">
        <ele>1627.4</ele>
        <time>2020-02-08T15:42:01Z</time>
      </trkpt>
      <trkpt lat="42.70341" lon="1.63285">
        <ele>1627.4</ele>
        <time>2020-02-08T15:42:02Z</time>
      </trkpt>
      <trkpt lat="42.70341" lon="1.63285">
        <ele>1627.4</ele>
        <time>2020-02-08T15:42:03Z</time>
      </trkpt>
      <trkpt lat="42.70341" lon="1.63285">
        <ele>1627.4</ele>
        <time>2020-02-08T15:42:04Z</time>
      </trkpt>
      <trkpt lat="42.70341" lon="1.63285">
        <ele>1627.4</ele>
        <time>2020-02-08T15:42:05Z</time>
      </trkpt>
      <trkpt lat="42.70341" lon="1.63287">
        <ele>1627.4</ele>
        <time>2020-02-08T15:42:06Z</time>
      </trkpt>
      <trkpt lat="42.70341" lon="1.63287">
        <ele>1627.4</ele>
        <time>2020-02-08T15:42:07Z</time>
      </trkpt>
      <trkpt lat="42.70341" lon="1.63287">
        <ele>1627.4</ele>
        <time>2020-02-08T15:42:08Z</time>
      </trkpt>
      <trkpt lat="42.70341" lon="1.63287">
        <ele>1627.4</ele>
        <time>2020-02-08T15:42:09Z</time>
      </trkpt>
      <trkpt lat="42.70341" lon="1.63287">
        <ele>1627.4</ele>
        <time>2020-02-08T15:42:10Z</time>
      </trkpt>
      <trkpt lat="42.70341" lon="1.63287">
        <ele>1627.4</ele>
        <time>2020-02-08T15:42:11Z</time>
      </trkpt>
      <trkpt lat="42.70343" lon="1.63287">
        <ele>1627.5</ele>
        <time>2020-02-08T15:42:12Z</time>
      </trkpt>
      <trkpt lat="42.70343" lon="1.63287">
        <ele>1627.5</ele>
        <time>2020-02-08T15:42:13Z</time>
      </trkpt>
      <trkpt lat="42.70343" lon="1.63287">
        <ele>1627.5</ele>
        <time>2020-02-08T15:42:14Z</time>
      </trkpt>
      <trkpt lat="42.70343" lon="1.63287">
        <ele>1627.5</ele>
        <time>2020-02-08T15:42:15Z</time>
      </trkpt>
      <trkpt lat="42.70343" lon="1.63287">
        <ele>1627.5</ele>
        <time>2020-02-08T15:42:16Z</time>
      </trkpt>
      <trkpt lat="42.70343" lon="1.63287">
        <ele>1627.5</ele>
        <time>2020-02-08T15:42:17Z</time>
      </trkpt>
      <trkpt lat="42.70343" lon="1.63288">
        <ele>1627.5</ele>
        <time>2020-02-08T15:42:18Z</time>
      </trkpt>
      <trkpt lat="42.70343" lon="1.63289">
        <ele>1627.1</ele>
        <time>2020-02-08T15:42:19Z</time>
      </trkpt>
      <trkpt lat="42.70343" lon="1.63289">
        <ele>1627.1</ele>
        <time>2020-02-08T15:42:20Z</time>
      </trkpt>
      <trkpt lat="42.70343" lon="1.6329">
        <ele>1627.1</ele>
        <time>2020-02-08T15:42:21Z</time>
      </trkpt>
      <trkpt lat="42.70343" lon="1.63291">
        <ele>1627.1</ele>
        <time>2020-02-08T15:42:22Z</time>
      </trkpt>
      <trkpt lat="42.70344" lon="1.63292">
        <ele>1627.1</ele>
        <time>2020-02-08T15:42:23Z</time>
      </trkpt>
      <trkpt lat="42.70344" lon="1.63292">
        <ele>1627.1</ele>
        <time>2020-02-08T15:42:24Z</time>
      </trkpt>
      <trkpt lat="42.70344" lon="1.63293">
        <ele>1626.6</ele>
        <time>2020-02-08T15:42:25Z</time>
      </trkpt>
      <trkpt lat="42.70344" lon="1.63294">
        <ele>1626.6</ele>
        <time>2020-02-08T15:42:26Z</time>
      </trkpt>
      <trkpt lat="42.70344" lon="1.63294">
        <ele>1626.6</ele>
        <time>2020-02-08T15:42:27Z</time>
      </trkpt>
      <trkpt lat="42.70345" lon="1.63295">
        <ele>1626.8</ele>
        <time>2020-02-08T15:42:28Z</time>
      </trkpt>
      <trkpt lat="42.70345" lon="1.63296">
        <ele>1626.8</ele>
        <time>2020-02-08T15:42:29Z</time>
      </trkpt>
      <trkpt lat="42.70346" lon="1.63297">
        <ele>1626.8</ele>
        <time>2020-02-08T15:42:30Z</time>
      </trkpt>
      <trkpt lat="42.70346" lon="1.63297">
        <ele>1626.4</ele>
        <time>2020-02-08T15:42:31Z</time>
      </trkpt>
      <trkpt lat="42.70347" lon="1.63298">
        <ele>1626.4</ele>
        <time>2020-02-08T15:42:32Z</time>
      </trkpt>
      <trkpt lat="42.70347" lon="1.63299">
        <ele>1626.4</ele>
        <time>2020-02-08T15:42:33Z</time>
      </trkpt>
      <trkpt lat="42.70348" lon="1.63299">
        <ele>1626.7</ele>
        <time>2020-02-08T15:42:34Z</time>
      </trkpt>
      <trkpt lat="42.70349" lon="1.633">
        <ele>1626.7</ele>
        <time>2020-02-08T15:42:35Z</time>
      </trkpt>
      <trkpt lat="42.70349" lon="1.63301">
        <ele>1626.7</ele>
        <time>2020-02-08T15:42:36Z</time>
      </trkpt>
      <trkpt lat="42.7035" lon="1.63301">
        <ele>1626.7</ele>
        <time>2020-02-08T15:42:37Z</time>
      </trkpt>
      <trkpt lat="42.7035" lon="1.63302">
        <ele>1626.3</ele>
        <time>2020-02-08T15:42:38Z</time>
      </trkpt>
      <trkpt lat="42.7035" lon="1.63302">
        <ele>1626.3</ele>
        <time>2020-02-08T15:42:39Z</time>
      </trkpt>
      <trkpt lat="42.7035" lon="1.63302">
        <ele>1626.3</ele>
        <time>2020-02-08T15:42:40Z</time>
      </trkpt>
      <trkpt lat="42.7035" lon="1.63303">
        <ele>1626.3</ele>
        <time>2020-02-08T15:42:41Z</time>
      </trkpt>
      <trkpt lat="42.7035" lon="1.63303">
        <ele>1626.3</ele>
        <time>2020-02-08T15:42:42Z</time>
      </trkpt>
      <trkpt lat="42.7035" lon="1.63303">
        <ele>1626.3</ele>
        <time>2020-02-08T15:42:43Z</time>
      </trkpt>
      <trkpt lat="42.7035" lon="1.63304">
        <ele>1626.3</ele>
        <time>2020-02-08T15:42:44Z</time>
      </trkpt>
      <trkpt lat="42.7035" lon="1.63304">
        <ele>1626.3</ele>
        <time>2020-02-08T15:42:45Z</time>
      </trkpt>
      <trkpt lat="42.7035" lon="1.63304">
        <ele>1626.3</ele>
        <time>2020-02-08T15:42:46Z</time>
      </trkpt>
      <trkpt lat="42.70351" lon="1.63305">
        <ele>1626.3</ele>
        <time>2020-02-08T15:42:47Z</time>
      </trkpt>
      <trkpt lat="42.70351" lon="1.63305">
        <ele>1626.3</ele>
        <time>2020-02-08T15:42:48Z</time>
      </trkpt>
      <trkpt lat="42.70351" lon="1.63305">
        <ele>1626.3</ele>
        <time>2020-02-08T15:42:49Z</time>
      </trkpt>
      <trkpt lat="42.70349" lon="1.63305">
        <ele>1626.3</ele>
        <time>2020-02-08T15:42:50Z</time>
      </trkpt>
      <trkpt lat="42.70349" lon="1.63305">
        <ele>1626.3</ele>
        <time>2020-02-08T15:42:51Z</time>
      </trkpt>
      <trkpt lat="42.70349" lon="1.63305">
        <ele>1626.3</ele>
        <time>2020-02-08T15:42:52Z</time>
      </trkpt>
      <trkpt lat="42.70349" lon="1.63305">
        <ele>1626.3</ele>
        <time>2020-02-08T15:42:53Z</time>
      </trkpt>
      <trkpt lat="42.70349" lon="1.63305">
        <ele>1626.3</ele>
        <time>2020-02-08T15:42:54Z</time>
      </trkpt>
      <trkpt lat="42.70349" lon="1.63305">
        <ele>1626.3</ele>
        <time>2020-02-08T15:42:55Z</time>
      </trkpt>
      <trkpt lat="42.70349" lon="1.63305">
        <ele>1626.3</ele>
        <time>2020-02-08T15:42:56Z</time>
      </trkpt>
      <trkpt lat="42.70349" lon="1.63305">
        <ele>1626.3</ele>
        <time>2020-02-08T15:42:57Z</time>
      </trkpt>
      <trkpt lat="42.70349" lon="1.63305">
        <ele>1626.3</ele>
        <time>2020-02-08T15:42:58Z</time>
      </trkpt>
      <trkpt lat="42.70347" lon="1.63307">
        <ele>1625.6</ele>
        <time>2020-02-08T15:42:59Z</time>
      </trkpt>
      <trkpt lat="42.70347" lon="1.63307">
        <ele>1625.6</ele>
        <time>2020-02-08T15:43:00Z</time>
      </trkpt>
      <trkpt lat="42.70347" lon="1.63307">
        <ele>1625.6</ele>
        <time>2020-02-08T15:43:01Z</time>
      </trkpt>
      <trkpt lat="42.70347" lon="1.63307">
        <ele>1625.6</ele>
        <time>2020-02-08T15:43:02Z</time>
      </trkpt>
      <trkpt lat="42.70347" lon="1.63307">
        <ele>1625.6</ele>
        <time>2020-02-08T15:43:03Z</time>
      </trkpt>
      <trkpt lat="42.70347" lon="1.63307">
        <ele>1625.6</ele>
        <time>2020-02-08T15:43:04Z</time>
      </trkpt>
      <trkpt lat="42.70347" lon="1.63307">
        <ele>1625.6</ele>
        <time>2020-02-08T15:43:05Z</time>
      </trkpt>
      <trkpt lat="42.70347" lon="1.63307">
        <ele>1625.6</ele>
        <time>2020-02-08T15:43:06Z</time>
      </trkpt>
      <trkpt lat="42.70347" lon="1.63307">
        <ele>1625.6</ele>
        <time>2020-02-08T15:43:07Z</time>
      </trkpt>
      <trkpt lat="42.70347" lon="1.63307">
        <ele>1625.6</ele>
        <time>2020-02-08T15:43:08Z</time>
      </trkpt>
      <trkpt lat="42.70347" lon="1.63306">
        <ele>1625.6</ele>
        <time>2020-02-08T15:43:09Z</time>
      </trkpt>
      <trkpt lat="42.70346" lon="1.63306">
        <ele>1626</ele>
        <time>2020-02-08T15:43:10Z</time>
      </trkpt>
      <trkpt lat="42.70346" lon="1.63305">
        <ele>1626</ele>
        <time>2020-02-08T15:43:11Z</time>
      </trkpt>
      <trkpt lat="42.70345" lon="1.63304">
        <ele>1626</ele>
        <time>2020-02-08T15:43:12Z</time>
      </trkpt>
      <trkpt lat="42.70345" lon="1.63304">
        <ele>1626</ele>
        <time>2020-02-08T15:43:13Z</time>
      </trkpt>
      <trkpt lat="42.70345" lon="1.63303">
        <ele>1626</ele>
        <time>2020-02-08T15:43:14Z</time>
      </trkpt>
      <trkpt lat="42.70344" lon="1.63303">
        <ele>1625.8</ele>
        <time>2020-02-08T15:43:15Z</time>
      </trkpt>
      <trkpt lat="42.70344" lon="1.63302">
        <ele>1625.8</ele>
        <time>2020-02-08T15:43:16Z</time>
      </trkpt>
      <trkpt lat="42.70344" lon="1.63302">
        <ele>1625.8</ele>
        <time>2020-02-08T15:43:17Z</time>
      </trkpt>
      <trkpt lat="42.70343" lon="1.63301">
        <ele>1626.2</ele>
        <time>2020-02-08T15:43:18Z</time>
      </trkpt>
      <trkpt lat="42.70343" lon="1.63301">
        <ele>1626.2</ele>
        <time>2020-02-08T15:43:19Z</time>
      </trkpt>
      <trkpt lat="42.70342" lon="1.633">
        <ele>1626.2</ele>
        <time>2020-02-08T15:43:20Z</time>
      </trkpt>
      <trkpt lat="42.70342" lon="1.63299">
        <ele>1626.2</ele>
        <time>2020-02-08T15:43:21Z</time>
      </trkpt>
      <trkpt lat="42.70342" lon="1.63299">
        <ele>1626.2</ele>
        <time>2020-02-08T15:43:22Z</time>
      </trkpt>
      <trkpt lat="42.70341" lon="1.63298">
        <ele>1626</ele>
        <time>2020-02-08T15:43:23Z</time>
      </trkpt>
      <trkpt lat="42.70341" lon="1.63298">
        <ele>1626</ele>
        <time>2020-02-08T15:43:24Z</time>
      </trkpt>
      <trkpt lat="42.7034" lon="1.63297">
        <ele>1626</ele>
        <time>2020-02-08T15:43:25Z</time>
      </trkpt>
      <trkpt lat="42.7034" lon="1.63297">
        <ele>1626.5</ele>
        <time>2020-02-08T15:43:26Z</time>
      </trkpt>
      <trkpt lat="42.7034" lon="1.63296">
        <ele>1626.5</ele>
        <time>2020-02-08T15:43:27Z</time>
      </trkpt>
      <trkpt lat="42.70339" lon="1.63294">
        <ele>1626.5</ele>
        <time>2020-02-08T15:43:28Z</time>
      </trkpt>
      <trkpt lat="42.70339" lon="1.63294">
        <ele>1626.5</ele>
        <time>2020-02-08T15:43:29Z</time>
      </trkpt>
      <trkpt lat="42.70339" lon="1.63293">
        <ele>1626.5</ele>
        <time>2020-02-08T15:43:30Z</time>
      </trkpt>
      <trkpt lat="42.70339" lon="1.63292">
        <ele>1626.9</ele>
        <time>2020-02-08T15:43:31Z</time>
      </trkpt>
      <trkpt lat="42.70339" lon="1.63292">
        <ele>1626.9</ele>
        <time>2020-02-08T15:43:32Z</time>
      </trkpt>
      <trkpt lat="42.70338" lon="1.63291">
        <ele>1626.9</ele>
        <time>2020-02-08T15:43:33Z</time>
      </trkpt>
      <trkpt lat="42.70338" lon="1.63291">
        <ele>1626.9</ele>
        <time>2020-02-08T15:43:34Z</time>
      </trkpt>
      <trkpt lat="42.70338" lon="1.6329">
        <ele>1626.9</ele>
        <time>2020-02-08T15:43:35Z</time>
      </trkpt>
      <trkpt lat="42.70338" lon="1.6329">
        <ele>1626.9</ele>
        <time>2020-02-08T15:43:36Z</time>
      </trkpt>
      <trkpt lat="42.70338" lon="1.63289">
        <ele>1626.8</ele>
        <time>2020-02-08T15:43:37Z</time>
      </trkpt>
      <trkpt lat="42.70337" lon="1.63287">
        <ele>1627.3</ele>
        <time>2020-02-08T15:43:38Z</time>
      </trkpt>
      <trkpt lat="42.70337" lon="1.63287">
        <ele>1627.3</ele>
        <time>2020-02-08T15:43:39Z</time>
      </trkpt>
      <trkpt lat="42.70337" lon="1.63287">
        <ele>1627.3</ele>
        <time>2020-02-08T15:43:40Z</time>
      </trkpt>
      <trkpt lat="42.70337" lon="1.63287">
        <ele>1627.3</ele>
        <time>2020-02-08T15:43:41Z</time>
      </trkpt>
      <trkpt lat="42.70337" lon="1.63287">
        <ele>1627.3</ele>
        <time>2020-02-08T15:43:42Z</time>
      </trkpt>
      <trkpt lat="42.70337" lon="1.63287">
        <ele>1627.3</ele>
        <time>2020-02-08T15:43:43Z</time>
      </trkpt>
      <trkpt lat="42.70337" lon="1.63287">
        <ele>1627.3</ele>
        <time>2020-02-08T15:43:44Z</time>
      </trkpt>
      <trkpt lat="42.70337" lon="1.63287">
        <ele>1627.3</ele>
        <time>2020-02-08T15:43:45Z</time>
      </trkpt>
      <trkpt lat="42.70337" lon="1.63287">
        <ele>1627.3</ele>
        <time>2020-02-08T15:43:46Z</time>
      </trkpt>
      <trkpt lat="42.70337" lon="1.63287">
        <ele>1627.3</ele>
        <time>2020-02-08T15:43:47Z</time>
      </trkpt>
      <trkpt lat="42.70337" lon="1.63287">
        <ele>1627.3</ele>
        <time>2020-02-08T15:43:48Z</time>
      </trkpt>
      <trkpt lat="42.70337" lon="1.63287">
        <ele>1627.3</ele>
        <time>2020-02-08T15:43:49Z</time>
      </trkpt>
      <trkpt lat="42.70337" lon="1.63287">
        <ele>1627.3</ele>
        <time>2020-02-08T15:43:50Z</time>
      </trkpt>
      <trkpt lat="42.70337" lon="1.63287">
        <ele>1627.3</ele>
        <time>2020-02-08T15:43:51Z</time>
      </trkpt>
      <trkpt lat="42.70337" lon="1.63287">
        <ele>1627.3</ele>
        <time>2020-02-08T15:43:52Z</time>
      </trkpt>
      <trkpt lat="42.70337" lon="1.63289">
        <ele>1626.8</ele>
        <time>2020-02-08T15:43:53Z</time>
      </trkpt>
      <trkpt lat="42.70337" lon="1.63289">
        <ele>1626.8</ele>
        <time>2020-02-08T15:43:54Z</time>
      </trkpt>
      <trkpt lat="42.70337" lon="1.63289">
        <ele>1626.8</ele>
        <time>2020-02-08T15:43:55Z</time>
      </trkpt>
      <trkpt lat="42.70337" lon="1.63289">
        <ele>1626.8</ele>
        <time>2020-02-08T15:43:56Z</time>
      </trkpt>
      <trkpt lat="42.70337" lon="1.63289">
        <ele>1626.8</ele>
        <time>2020-02-08T15:43:57Z</time>
      </trkpt>
      <trkpt lat="42.70337" lon="1.63289">
        <ele>1626.8</ele>
        <time>2020-02-08T15:43:58Z</time>
      </trkpt>
      <trkpt lat="42.70337" lon="1.63289">
        <ele>1626.8</ele>
        <time>2020-02-08T15:43:59Z</time>
      </trkpt>
      <trkpt lat="42.70337" lon="1.63289">
        <ele>1626.8</ele>
        <time>2020-02-08T15:44:00Z</time>
      </trkpt>
      <trkpt lat="42.70337" lon="1.63292">
        <ele>1626.8</ele>
        <time>2020-02-08T15:44:01Z</time>
      </trkpt>
      <trkpt lat="42.70337" lon="1.63292">
        <ele>1626.8</ele>
        <time>2020-02-08T15:44:02Z</time>
      </trkpt>
      <trkpt lat="42.70337" lon="1.63292">
        <ele>1626.8</ele>
        <time>2020-02-08T15:44:03Z</time>
      </trkpt>
      <trkpt lat="42.70337" lon="1.63292">
        <ele>1626.8</ele>
        <time>2020-02-08T15:44:04Z</time>
      </trkpt>
      <trkpt lat="42.70337" lon="1.63292">
        <ele>1626.8</ele>
        <time>2020-02-08T15:44:05Z</time>
      </trkpt>
      <trkpt lat="42.70337" lon="1.63292">
        <ele>1626.8</ele>
        <time>2020-02-08T15:44:06Z</time>
      </trkpt>
      <trkpt lat="42.70337" lon="1.63292">
        <ele>1626.8</ele>
        <time>2020-02-08T15:44:07Z</time>
      </trkpt>
      <trkpt lat="42.70337" lon="1.63293">
        <ele>1626.8</ele>
        <time>2020-02-08T15:44:08Z</time>
      </trkpt>
      <trkpt lat="42.70336" lon="1.63293">
        <ele>1626.3</ele>
        <time>2020-02-08T15:44:09Z</time>
      </trkpt>
      <trkpt lat="42.70336" lon="1.63294">
        <ele>1626.3</ele>
        <time>2020-02-08T15:44:10Z</time>
      </trkpt>
      <trkpt lat="42.70335" lon="1.63294">
        <ele>1626.3</ele>
        <time>2020-02-08T15:44:11Z</time>
      </trkpt>
      <trkpt lat="42.70335" lon="1.63295">
        <ele>1626.3</ele>
        <time>2020-02-08T15:44:12Z</time>
      </trkpt>
      <trkpt lat="42.70335" lon="1.63295">
        <ele>1626.2</ele>
        <time>2020-02-08T15:44:13Z</time>
      </trkpt>
      <trkpt lat="42.70334" lon="1.63295">
        <ele>1626.2</ele>
        <time>2020-02-08T15:44:14Z</time>
      </trkpt>
      <trkpt lat="42.70334" lon="1.63296">
        <ele>1626.2</ele>
        <time>2020-02-08T15:44:15Z</time>
      </trkpt>
      <trkpt lat="42.70333" lon="1.63296">
        <ele>1626.2</ele>
        <time>2020-02-08T15:44:16Z</time>
      </trkpt>
      <trkpt lat="42.70333" lon="1.63297">
        <ele>1626.2</ele>
        <time>2020-02-08T15:44:17Z</time>
      </trkpt>
      <trkpt lat="42.70333" lon="1.63298">
        <ele>1625.7</ele>
        <time>2020-02-08T15:44:18Z</time>
      </trkpt>
      <trkpt lat="42.70332" lon="1.63298">
        <ele>1625.7</ele>
        <time>2020-02-08T15:44:19Z</time>
      </trkpt>
      <trkpt lat="42.70331" lon="1.63299">
        <ele>1625.6</ele>
        <time>2020-02-08T15:44:20Z</time>
      </trkpt>
      <trkpt lat="42.70331" lon="1.633">
        <ele>1625.6</ele>
        <time>2020-02-08T15:44:21Z</time>
      </trkpt>
      <trkpt lat="42.7033" lon="1.63301">
        <ele>1625.6</ele>
        <time>2020-02-08T15:44:22Z</time>
      </trkpt>
      <trkpt lat="42.7033" lon="1.63302">
        <ele>1625.1</ele>
        <time>2020-02-08T15:44:23Z</time>
      </trkpt>
      <trkpt lat="42.70329" lon="1.63303">
        <ele>1625.1</ele>
        <time>2020-02-08T15:44:24Z</time>
      </trkpt>
      <trkpt lat="42.70329" lon="1.63304">
        <ele>1625.1</ele>
        <time>2020-02-08T15:44:25Z</time>
      </trkpt>
      <trkpt lat="42.70328" lon="1.63305">
        <ele>1625</ele>
        <time>2020-02-08T15:44:26Z</time>
      </trkpt>
      <trkpt lat="42.70328" lon="1.63306">
        <ele>1625</ele>
        <time>2020-02-08T15:44:27Z</time>
      </trkpt>
      <trkpt lat="42.70325" lon="1.63308">
        <ele>1624.4</ele>
        <time>2020-02-08T15:44:28Z</time>
      </trkpt>
      <trkpt lat="42.70325" lon="1.63308">
        <ele>1624.4</ele>
        <time>2020-02-08T15:44:29Z</time>
      </trkpt>
      <trkpt lat="42.70324" lon="1.63309">
        <ele>1624.4</ele>
        <time>2020-02-08T15:44:30Z</time>
      </trkpt>
      <trkpt lat="42.70323" lon="1.6331">
        <ele>1624.4</ele>
        <time>2020-02-08T15:44:31Z</time>
      </trkpt>
      <trkpt lat="42.70322" lon="1.6331">
        <ele>1623.8</ele>
        <time>2020-02-08T15:44:32Z</time>
      </trkpt>
      <trkpt lat="42.70322" lon="1.63311">
        <ele>1623.7</ele>
        <time>2020-02-08T15:44:33Z</time>
      </trkpt>
      <trkpt lat="42.70321" lon="1.63312">
        <ele>1623.7</ele>
        <time>2020-02-08T15:44:34Z</time>
      </trkpt>
      <trkpt lat="42.7032" lon="1.63312">
        <ele>1623.7</ele>
        <time>2020-02-08T15:44:35Z</time>
      </trkpt>
      <trkpt lat="42.7032" lon="1.63313">
        <ele>1623.7</ele>
        <time>2020-02-08T15:44:36Z</time>
      </trkpt>
      <trkpt lat="42.70319" lon="1.63314">
        <ele>1623.7</ele>
        <time>2020-02-08T15:44:37Z</time>
      </trkpt>
      <trkpt lat="42.70319" lon="1.63314">
        <ele>1623.7</ele>
        <time>2020-02-08T15:44:38Z</time>
      </trkpt>
      <trkpt lat="42.70318" lon="1.63315">
        <ele>1623.2</ele>
        <time>2020-02-08T15:44:39Z</time>
      </trkpt>
      <trkpt lat="42.70318" lon="1.63315">
        <ele>1623.2</ele>
        <time>2020-02-08T15:44:40Z</time>
      </trkpt>
      <trkpt lat="42.70317" lon="1.63316">
        <ele>1623.2</ele>
        <time>2020-02-08T15:44:41Z</time>
      </trkpt>
      <trkpt lat="42.70317" lon="1.63317">
        <ele>1623.2</ele>
        <time>2020-02-08T15:44:42Z</time>
      </trkpt>
      <trkpt lat="42.70317" lon="1.63317">
        <ele>1623.2</ele>
        <time>2020-02-08T15:44:43Z</time>
      </trkpt>
      <trkpt lat="42.70316" lon="1.63318">
        <ele>1623.2</ele>
        <time>2020-02-08T15:44:44Z</time>
      </trkpt>
      <trkpt lat="42.70316" lon="1.63318">
        <ele>1623.2</ele>
        <time>2020-02-08T15:44:45Z</time>
      </trkpt>
      <trkpt lat="42.70315" lon="1.63319">
        <ele>1622.7</ele>
        <time>2020-02-08T15:44:46Z</time>
      </trkpt>
      <trkpt lat="42.70315" lon="1.63319">
        <ele>1622.7</ele>
        <time>2020-02-08T15:44:47Z</time>
      </trkpt>
      <trkpt lat="42.70315" lon="1.63319">
        <ele>1622.7</ele>
        <time>2020-02-08T15:44:48Z</time>
      </trkpt>
      <trkpt lat="42.70315" lon="1.63319">
        <ele>1622.7</ele>
        <time>2020-02-08T15:44:49Z</time>
      </trkpt>
      <trkpt lat="42.70315" lon="1.63319">
        <ele>1622.7</ele>
        <time>2020-02-08T15:44:50Z</time>
      </trkpt>
      <trkpt lat="42.70314" lon="1.63321">
        <ele>1622.7</ele>
        <time>2020-02-08T15:44:51Z</time>
      </trkpt>
      <trkpt lat="42.70314" lon="1.63321">
        <ele>1622.7</ele>
        <time>2020-02-08T15:44:52Z</time>
      </trkpt>
      <trkpt lat="42.70314" lon="1.63321">
        <ele>1622.7</ele>
        <time>2020-02-08T15:44:53Z</time>
      </trkpt>
      <trkpt lat="42.70314" lon="1.63321">
        <ele>1622.7</ele>
        <time>2020-02-08T15:44:54Z</time>
      </trkpt>
      <trkpt lat="42.70314" lon="1.63321">
        <ele>1622.7</ele>
        <time>2020-02-08T15:44:55Z</time>
      </trkpt>
      <trkpt lat="42.70314" lon="1.63321">
        <ele>1622.7</ele>
        <time>2020-02-08T15:44:56Z</time>
      </trkpt>
      <trkpt lat="42.70314" lon="1.63321">
        <ele>1622.7</ele>
        <time>2020-02-08T15:44:57Z</time>
      </trkpt>
      <trkpt lat="42.70314" lon="1.63321">
        <ele>1622.7</ele>
        <time>2020-02-08T15:44:58Z</time>
      </trkpt>
      <trkpt lat="42.70314" lon="1.63321">
        <ele>1622.7</ele>
        <time>2020-02-08T15:44:59Z</time>
      </trkpt>
      <trkpt lat="42.70314" lon="1.63321">
        <ele>1622.7</ele>
        <time>2020-02-08T15:45:00Z</time>
      </trkpt>
      <trkpt lat="42.70314" lon="1.63321">
        <ele>1622.7</ele>
        <time>2020-02-08T15:45:01Z</time>
      </trkpt>
      <trkpt lat="42.70314" lon="1.63321">
        <ele>1622.7</ele>
        <time>2020-02-08T15:45:02Z</time>
      </trkpt>
      <trkpt lat="42.70314" lon="1.63321">
        <ele>1622.7</ele>
        <time>2020-02-08T15:45:03Z</time>
      </trkpt>
      <trkpt lat="42.70314" lon="1.63321">
        <ele>1622.7</ele>
        <time>2020-02-08T15:45:04Z</time>
      </trkpt>
      <trkpt lat="42.70314" lon="1.63321">
        <ele>1622.7</ele>
        <time>2020-02-08T15:45:05Z</time>
      </trkpt>
      <trkpt lat="42.70314" lon="1.63321">
        <ele>1622.7</ele>
        <time>2020-02-08T15:45:06Z</time>
      </trkpt>
      <trkpt lat="42.70314" lon="1.63321">
        <ele>1622.7</ele>
        <time>2020-02-08T15:45:07Z</time>
      </trkpt>
      <trkpt lat="42.70314" lon="1.63321">
        <ele>1622.7</ele>
        <time>2020-02-08T15:45:08Z</time>
      </trkpt>
      <trkpt lat="42.70314" lon="1.63321">
        <ele>1622.7</ele>
        <time>2020-02-08T15:45:09Z</time>
      </trkpt>
      <trkpt lat="42.70314" lon="1.63321">
        <ele>1622.7</ele>
        <time>2020-02-08T15:45:10Z</time>
      </trkpt>
      <trkpt lat="42.70314" lon="1.63321">
        <ele>1622.7</ele>
        <time>2020-02-08T15:45:11Z</time>
      </trkpt>
      <trkpt lat="42.70314" lon="1.63321">
        <ele>1622.7</ele>
        <time>2020-02-08T15:45:12Z</time>
      </trkpt>
      <trkpt lat="42.70314" lon="1.63321">
        <ele>1622.7</ele>
        <time>2020-02-08T15:45:13Z</time>
      </trkpt>
      <trkpt lat="42.70314" lon="1.63321">
        <ele>1622.7</ele>
        <time>2020-02-08T15:45:14Z</time>
      </trkpt>
      <trkpt lat="42.70314" lon="1.63321">
        <ele>1622.7</ele>
        <time>2020-02-08T15:45:15Z</time>
      </trkpt>
      <trkpt lat="42.70314" lon="1.63321">
        <ele>1622.7</ele>
        <time>2020-02-08T15:45:16Z</time>
      </trkpt>
      <trkpt lat="42.70314" lon="1.63321">
        <ele>1622.7</ele>
        <time>2020-02-08T15:45:17Z</time>
      </trkpt>
      <trkpt lat="42.70314" lon="1.63321">
        <ele>1622.7</ele>
        <time>2020-02-08T15:45:18Z</time>
      </trkpt>
      <trkpt lat="42.70314" lon="1.63321">
        <ele>1622.7</ele>
        <time>2020-02-08T15:45:19Z</time>
      </trkpt>
      <trkpt lat="42.70314" lon="1.63321">
        <ele>1622.7</ele>
        <time>2020-02-08T15:45:20Z</time>
      </trkpt>
      <trkpt lat="42.70314" lon="1.63321">
        <ele>1622.7</ele>
        <time>2020-02-08T15:45:21Z</time>
      </trkpt>
      <trkpt lat="42.70314" lon="1.63321">
        <ele>1622.7</ele>
        <time>2020-02-08T15:45:22Z</time>
      </trkpt>
      <trkpt lat="42.70314" lon="1.63321">
        <ele>1622.7</ele>
        <time>2020-02-08T15:45:23Z</time>
      </trkpt>
      <trkpt lat="42.70314" lon="1.63321">
        <ele>1622.7</ele>
        <time>2020-02-08T15:45:24Z</time>
      </trkpt>
      <trkpt lat="42.70314" lon="1.63321">
        <ele>1622.7</ele>
        <time>2020-02-08T15:45:25Z</time>
      </trkpt>
      <trkpt lat="42.70314" lon="1.63321">
        <ele>1622.7</ele>
        <time>2020-02-08T15:45:26Z</time>
      </trkpt>
      <trkpt lat="42.70314" lon="1.63321">
        <ele>1622.7</ele>
        <time>2020-02-08T15:45:27Z</time>
      </trkpt>
      <trkpt lat="42.70314" lon="1.63321">
        <ele>1622.7</ele>
        <time>2020-02-08T15:45:28Z</time>
      </trkpt>
      <trkpt lat="42.70314" lon="1.63321">
        <ele>1622.7</ele>
        <time>2020-02-08T15:45:29Z</time>
      </trkpt>
      <trkpt lat="42.70314" lon="1.63321">
        <ele>1622.7</ele>
        <time>2020-02-08T15:45:30Z</time>
      </trkpt>
      <trkpt lat="42.70314" lon="1.63321">
        <ele>1622.7</ele>
        <time>2020-02-08T15:45:31Z</time>
      </trkpt>
      <trkpt lat="42.70314" lon="1.63321">
        <ele>1622.7</ele>
        <time>2020-02-08T15:45:32Z</time>
      </trkpt>
      <trkpt lat="42.70314" lon="1.63321">
        <ele>1622.7</ele>
        <time>2020-02-08T15:45:33Z</time>
      </trkpt>
      <trkpt lat="42.70314" lon="1.63321">
        <ele>1622.7</ele>
        <time>2020-02-08T15:45:34Z</time>
      </trkpt>
      <trkpt lat="42.70314" lon="1.63321">
        <ele>1622.7</ele>
        <time>2020-02-08T15:45:35Z</time>
      </trkpt>
      <trkpt lat="42.70314" lon="1.63321">
        <ele>1622.7</ele>
        <time>2020-02-08T15:45:36Z</time>
      </trkpt>
      <trkpt lat="42.70314" lon="1.63321">
        <ele>1622.7</ele>
        <time>2020-02-08T15:45:37Z</time>
      </trkpt>
      <trkpt lat="42.70314" lon="1.63321">
        <ele>1622.7</ele>
        <time>2020-02-08T15:45:38Z</time>
      </trkpt>
      <trkpt lat="42.70314" lon="1.63321">
        <ele>1622.7</ele>
        <time>2020-02-08T15:45:39Z</time>
      </trkpt>
      <trkpt lat="42.70314" lon="1.63321">
        <ele>1622.7</ele>
        <time>2020-02-08T15:45:40Z</time>
      </trkpt>
      <trkpt lat="42.70314" lon="1.63321">
        <ele>1622.7</ele>
        <time>2020-02-08T15:45:41Z</time>
      </trkpt>
      <trkpt lat="42.70314" lon="1.63321">
        <ele>1622.7</ele>
        <time>2020-02-08T15:45:42Z</time>
      </trkpt>
      <trkpt lat="42.70312" lon="1.63322">
        <ele>1622.8</ele>
        <time>2020-02-08T15:45:43Z</time>
      </trkpt>
      <trkpt lat="42.70312" lon="1.63322">
        <ele>1622.8</ele>
        <time>2020-02-08T15:45:44Z</time>
      </trkpt>
      <trkpt lat="42.70312" lon="1.63322">
        <ele>1622.8</ele>
        <time>2020-02-08T15:45:45Z</time>
      </trkpt>
      <trkpt lat="42.70312" lon="1.63322">
        <ele>1622.8</ele>
        <time>2020-02-08T15:45:46Z</time>
      </trkpt>
      <trkpt lat="42.70312" lon="1.63322">
        <ele>1622.8</ele>
        <time>2020-02-08T15:45:47Z</time>
      </trkpt>
      <trkpt lat="42.70312" lon="1.63321">
        <ele>1622.8</ele>
        <time>2020-02-08T15:45:48Z</time>
      </trkpt>
      <trkpt lat="42.70313" lon="1.6332">
        <ele>1622.8</ele>
        <time>2020-02-08T15:45:49Z</time>
      </trkpt>
      <trkpt lat="42.70313" lon="1.63319">
        <ele>1622.7</ele>
        <time>2020-02-08T15:45:50Z</time>
      </trkpt>
      <trkpt lat="42.70314" lon="1.63318">
        <ele>1623.2</ele>
        <time>2020-02-08T15:45:51Z</time>
      </trkpt>
      <trkpt lat="42.70314" lon="1.63317">
        <ele>1623.2</ele>
        <time>2020-02-08T15:45:52Z</time>
      </trkpt>
      <trkpt lat="42.70314" lon="1.63315">
        <ele>1623.2</ele>
        <time>2020-02-08T15:45:53Z</time>
      </trkpt>
      <trkpt lat="42.70315" lon="1.63314">
        <ele>1623.8</ele>
        <time>2020-02-08T15:45:54Z</time>
      </trkpt>
      <trkpt lat="42.70315" lon="1.63313">
        <ele>1623.8</ele>
        <time>2020-02-08T15:45:55Z</time>
      </trkpt>
      <trkpt lat="42.70316" lon="1.63312">
        <ele>1623.8</ele>
        <time>2020-02-08T15:45:56Z</time>
      </trkpt>
      <trkpt lat="42.70316" lon="1.63311">
        <ele>1623.7</ele>
        <time>2020-02-08T15:45:57Z</time>
      </trkpt>
      <trkpt lat="42.70317" lon="1.6331">
        <ele>1624.3</ele>
        <time>2020-02-08T15:45:58Z</time>
      </trkpt>
      <trkpt lat="42.70317" lon="1.63309">
        <ele>1624.3</ele>
        <time>2020-02-08T15:45:59Z</time>
      </trkpt>
      <trkpt lat="42.70318" lon="1.63308">
        <ele>1624.3</ele>
        <time>2020-02-08T15:46:00Z</time>
      </trkpt>
      <trkpt lat="42.70319" lon="1.63306">
        <ele>1624.3</ele>
        <time>2020-02-08T15:46:01Z</time>
      </trkpt>
      <trkpt lat="42.70319" lon="1.63305">
        <ele>1624.9</ele>
        <time>2020-02-08T15:46:02Z</time>
      </trkpt>
      <trkpt lat="42.7032" lon="1.63304">
        <ele>1624.9</ele>
        <time>2020-02-08T15:46:03Z</time>
      </trkpt>
      <trkpt lat="42.70321" lon="1.63303">
        <ele>1624.9</ele>
        <time>2020-02-08T15:46:04Z</time>
      </trkpt>
      <trkpt lat="42.70321" lon="1.63302">
        <ele>1624.9</ele>
        <time>2020-02-08T15:46:05Z</time>
      </trkpt>
      <trkpt lat="42.70322" lon="1.63301">
        <ele>1625.6</ele>
        <time>2020-02-08T15:46:06Z</time>
      </trkpt>
      <trkpt lat="42.70322" lon="1.63299">
        <ele>1625.6</ele>
        <time>2020-02-08T15:46:07Z</time>
      </trkpt>
      <trkpt lat="42.70324" lon="1.63297">
        <ele>1626.1</ele>
        <time>2020-02-08T15:46:08Z</time>
      </trkpt>
      <trkpt lat="42.70325" lon="1.63295">
        <ele>1626.1</ele>
        <time>2020-02-08T15:46:09Z</time>
      </trkpt>
      <trkpt lat="42.70325" lon="1.63294">
        <ele>1626.1</ele>
        <time>2020-02-08T15:46:10Z</time>
      </trkpt>
      <trkpt lat="42.70326" lon="1.63293">
        <ele>1626.1</ele>
        <time>2020-02-08T15:46:11Z</time>
      </trkpt>
      <trkpt lat="42.70326" lon="1.63292">
        <ele>1626.7</ele>
        <time>2020-02-08T15:46:12Z</time>
      </trkpt>
      <trkpt lat="42.70327" lon="1.63291">
        <ele>1626.7</ele>
        <time>2020-02-08T15:46:13Z</time>
      </trkpt>
      <trkpt lat="42.70328" lon="1.6329">
        <ele>1626.7</ele>
        <time>2020-02-08T15:46:14Z</time>
      </trkpt>
      <trkpt lat="42.70328" lon="1.63289">
        <ele>1626.7</ele>
        <time>2020-02-08T15:46:15Z</time>
      </trkpt>
      <trkpt lat="42.70329" lon="1.63287">
        <ele>1627.2</ele>
        <time>2020-02-08T15:46:16Z</time>
      </trkpt>
      <trkpt lat="42.7033" lon="1.63286">
        <ele>1627.2</ele>
        <time>2020-02-08T15:46:17Z</time>
      </trkpt>
      <trkpt lat="42.7033" lon="1.63285">
        <ele>1627.2</ele>
        <time>2020-02-08T15:46:18Z</time>
      </trkpt>
      <trkpt lat="42.7033" lon="1.63284">
        <ele>1627.7</ele>
        <time>2020-02-08T15:46:19Z</time>
      </trkpt>
      <trkpt lat="42.70331" lon="1.63283">
        <ele>1627.7</ele>
        <time>2020-02-08T15:46:20Z</time>
      </trkpt>
      <trkpt lat="42.70331" lon="1.63282">
        <ele>1627.7</ele>
        <time>2020-02-08T15:46:21Z</time>
      </trkpt>
      <trkpt lat="42.70331" lon="1.63281">
        <ele>1627.7</ele>
        <time>2020-02-08T15:46:22Z</time>
      </trkpt>
      <trkpt lat="42.70332" lon="1.6328">
        <ele>1628.2</ele>
        <time>2020-02-08T15:46:23Z</time>
      </trkpt>
      <trkpt lat="42.70332" lon="1.63279">
        <ele>1628.2</ele>
        <time>2020-02-08T15:46:24Z</time>
      </trkpt>
      <trkpt lat="42.70332" lon="1.63278">
        <ele>1628.2</ele>
        <time>2020-02-08T15:46:25Z</time>
      </trkpt>
      <trkpt lat="42.70333" lon="1.63277">
        <ele>1628.2</ele>
        <time>2020-02-08T15:46:26Z</time>
      </trkpt>
      <trkpt lat="42.70333" lon="1.63276">
        <ele>1628.6</ele>
        <time>2020-02-08T15:46:27Z</time>
      </trkpt>
      <trkpt lat="42.70334" lon="1.63272">
        <ele>1628.6</ele>
        <time>2020-02-08T15:46:28Z</time>
      </trkpt>
      <trkpt lat="42.70334" lon="1.63271">
        <ele>1629.1</ele>
        <time>2020-02-08T15:46:29Z</time>
      </trkpt>
      <trkpt lat="42.70334" lon="1.63269">
        <ele>1629.1</ele>
        <time>2020-02-08T15:46:30Z</time>
      </trkpt>
      <trkpt lat="42.70334" lon="1.63268">
        <ele>1629.1</ele>
        <time>2020-02-08T15:46:31Z</time>
      </trkpt>
      <trkpt lat="42.70334" lon="1.63267">
        <ele>1629.5</ele>
        <time>2020-02-08T15:46:32Z</time>
      </trkpt>
      <trkpt lat="42.70334" lon="1.63266">
        <ele>1629.5</ele>
        <time>2020-02-08T15:46:33Z</time>
      </trkpt>
      <trkpt lat="42.70334" lon="1.63264">
        <ele>1629.5</ele>
        <time>2020-02-08T15:46:34Z</time>
      </trkpt>
      <trkpt lat="42.70334" lon="1.63263">
        <ele>1629.5</ele>
        <time>2020-02-08T15:46:35Z</time>
      </trkpt>
      <trkpt lat="42.70334" lon="1.63262">
        <ele>1630</ele>
        <time>2020-02-08T15:46:36Z</time>
      </trkpt>
      <trkpt lat="42.70334" lon="1.63261">
        <ele>1630</ele>
        <time>2020-02-08T15:46:37Z</time>
      </trkpt>
      <trkpt lat="42.70334" lon="1.6326">
        <ele>1630</ele>
        <time>2020-02-08T15:46:38Z</time>
      </trkpt>
      <trkpt lat="42.70334" lon="1.6326">
        <ele>1630</ele>
        <time>2020-02-08T15:46:39Z</time>
      </trkpt>
      <trkpt lat="42.70334" lon="1.6326">
        <ele>1630</ele>
        <time>2020-02-08T15:46:40Z</time>
      </trkpt>
      <trkpt lat="42.70334" lon="1.6326">
        <ele>1630</ele>
        <time>2020-02-08T15:46:41Z</time>
      </trkpt>
      <trkpt lat="42.70334" lon="1.63259">
        <ele>1630</ele>
        <time>2020-02-08T15:46:42Z</time>
      </trkpt>
      <trkpt lat="42.70334" lon="1.63259">
        <ele>1630</ele>
        <time>2020-02-08T15:46:43Z</time>
      </trkpt>
      <trkpt lat="42.70334" lon="1.63259">
        <ele>1630</ele>
        <time>2020-02-08T15:46:44Z</time>
      </trkpt>
      <trkpt lat="42.70334" lon="1.63259">
        <ele>1630.5</ele>
        <time>2020-02-08T15:46:45Z</time>
      </trkpt>
      <trkpt lat="42.70334" lon="1.63258">
        <ele>1630.5</ele>
        <time>2020-02-08T15:46:46Z</time>
      </trkpt>
      <trkpt lat="42.70334" lon="1.63258">
        <ele>1630.5</ele>
        <time>2020-02-08T15:46:47Z</time>
      </trkpt>
      <trkpt lat="42.70334" lon="1.63258">
        <ele>1630.5</ele>
        <time>2020-02-08T15:46:48Z</time>
      </trkpt>
      <trkpt lat="42.70335" lon="1.63256">
        <ele>1630.5</ele>
        <time>2020-02-08T15:46:49Z</time>
      </trkpt>
      <trkpt lat="42.70335" lon="1.63256">
        <ele>1630.5</ele>
        <time>2020-02-08T15:46:50Z</time>
      </trkpt>
      <trkpt lat="42.70335" lon="1.63256">
        <ele>1630.5</ele>
        <time>2020-02-08T15:46:51Z</time>
      </trkpt>
      <trkpt lat="42.70335" lon="1.63256">
        <ele>1630.5</ele>
        <time>2020-02-08T15:46:52Z</time>
      </trkpt>
      <trkpt lat="42.70335" lon="1.63256">
        <ele>1630.5</ele>
        <time>2020-02-08T15:46:53Z</time>
      </trkpt>
      <trkpt lat="42.70335" lon="1.63256">
        <ele>1630.5</ele>
        <time>2020-02-08T15:46:54Z</time>
      </trkpt>
      <trkpt lat="42.70335" lon="1.63256">
        <ele>1630.5</ele>
        <time>2020-02-08T15:46:55Z</time>
      </trkpt>
      <trkpt lat="42.70335" lon="1.63256">
        <ele>1630.5</ele>
        <time>2020-02-08T15:46:56Z</time>
      </trkpt>
      <trkpt lat="42.70335" lon="1.63256">
        <ele>1630.5</ele>
        <time>2020-02-08T15:46:57Z</time>
      </trkpt>
      <trkpt lat="42.70337" lon="1.63258">
        <ele>1630.5</ele>
        <time>2020-02-08T15:46:58Z</time>
      </trkpt>
      <trkpt lat="42.70337" lon="1.63259">
        <ele>1630</ele>
        <time>2020-02-08T15:46:59Z</time>
      </trkpt>
      <trkpt lat="42.70337" lon="1.63259">
        <ele>1630</ele>
        <time>2020-02-08T15:47:00Z</time>
      </trkpt>
      <trkpt lat="42.70338" lon="1.63259">
        <ele>1630</ele>
        <time>2020-02-08T15:47:01Z</time>
      </trkpt>
      <trkpt lat="42.70338" lon="1.63259">
        <ele>1630</ele>
        <time>2020-02-08T15:47:02Z</time>
      </trkpt>
      <trkpt lat="42.70338" lon="1.6326">
        <ele>1630</ele>
        <time>2020-02-08T15:47:03Z</time>
      </trkpt>
      <trkpt lat="42.70338" lon="1.6326">
        <ele>1630</ele>
        <time>2020-02-08T15:47:04Z</time>
      </trkpt>
      <trkpt lat="42.70338" lon="1.6326">
        <ele>1630.1</ele>
        <time>2020-02-08T15:47:05Z</time>
      </trkpt>
      <trkpt lat="42.70338" lon="1.6326">
        <ele>1630.1</ele>
        <time>2020-02-08T15:47:06Z</time>
      </trkpt>
      <trkpt lat="42.70338" lon="1.6326">
        <ele>1630.1</ele>
        <time>2020-02-08T15:47:07Z</time>
      </trkpt>
      <trkpt lat="42.70338" lon="1.6326">
        <ele>1630.1</ele>
        <time>2020-02-08T15:47:08Z</time>
      </trkpt>
      <trkpt lat="42.70338" lon="1.6326">
        <ele>1630.1</ele>
        <time>2020-02-08T15:47:09Z</time>
      </trkpt>
      <trkpt lat="42.70338" lon="1.6326">
        <ele>1630.1</ele>
        <time>2020-02-08T15:47:10Z</time>
      </trkpt>
      <trkpt lat="42.70338" lon="1.6326">
        <ele>1630.1</ele>
        <time>2020-02-08T15:47:11Z</time>
      </trkpt>
      <trkpt lat="42.70338" lon="1.6326">
        <ele>1630.1</ele>
        <time>2020-02-08T15:47:12Z</time>
      </trkpt>
      <trkpt lat="42.70338" lon="1.6326">
        <ele>1630.1</ele>
        <time>2020-02-08T15:47:13Z</time>
      </trkpt>
      <trkpt lat="42.70338" lon="1.6326">
        <ele>1630.1</ele>
        <time>2020-02-08T15:47:14Z</time>
      </trkpt>
      <trkpt lat="42.70338" lon="1.6326">
        <ele>1630.1</ele>
        <time>2020-02-08T15:47:15Z</time>
      </trkpt>
      <trkpt lat="42.70338" lon="1.6326">
        <ele>1630.1</ele>
        <time>2020-02-08T15:47:16Z</time>
      </trkpt>
      <trkpt lat="42.70338" lon="1.6326">
        <ele>1630.1</ele>
        <time>2020-02-08T15:47:17Z</time>
      </trkpt>
      <trkpt lat="42.70338" lon="1.6326">
        <ele>1630.1</ele>
        <time>2020-02-08T15:47:18Z</time>
      </trkpt>
      <trkpt lat="42.70338" lon="1.6326">
        <ele>1630.1</ele>
        <time>2020-02-08T15:47:19Z</time>
      </trkpt>
      <trkpt lat="42.70338" lon="1.6326">
        <ele>1630.1</ele>
        <time>2020-02-08T15:47:20Z</time>
      </trkpt>
      <trkpt lat="42.70338" lon="1.6326">
        <ele>1630.1</ele>
        <time>2020-02-08T15:47:21Z</time>
      </trkpt>
      <trkpt lat="42.70338" lon="1.6326">
        <ele>1630.1</ele>
        <time>2020-02-08T15:47:22Z</time>
      </trkpt>
      <trkpt lat="42.70338" lon="1.6326">
        <ele>1630.1</ele>
        <time>2020-02-08T15:47:23Z</time>
      </trkpt>
      <trkpt lat="42.70338" lon="1.6326">
        <ele>1630.1</ele>
        <time>2020-02-08T15:47:24Z</time>
      </trkpt>
      <trkpt lat="42.70338" lon="1.6326">
        <ele>1630.1</ele>
        <time>2020-02-08T15:47:25Z</time>
      </trkpt>
      <trkpt lat="42.70338" lon="1.6326">
        <ele>1630.1</ele>
        <time>2020-02-08T15:47:26Z</time>
      </trkpt>
      <trkpt lat="42.70338" lon="1.6326">
        <ele>1630.1</ele>
        <time>2020-02-08T15:47:27Z</time>
      </trkpt>
      <trkpt lat="42.70338" lon="1.6326">
        <ele>1630.1</ele>
        <time>2020-02-08T15:47:28Z</time>
      </trkpt>
      <trkpt lat="42.70338" lon="1.6326">
        <ele>1630.1</ele>
        <time>2020-02-08T15:47:29Z</time>
      </trkpt>
      <trkpt lat="42.70338" lon="1.6326">
        <ele>1630.1</ele>
        <time>2020-02-08T15:47:30Z</time>
      </trkpt>
      <trkpt lat="42.70338" lon="1.6326">
        <ele>1630.1</ele>
        <time>2020-02-08T15:47:31Z</time>
      </trkpt>
      <trkpt lat="42.70338" lon="1.6326">
        <ele>1630.1</ele>
        <time>2020-02-08T15:47:32Z</time>
      </trkpt>
      <trkpt lat="42.70338" lon="1.6326">
        <ele>1630.1</ele>
        <time>2020-02-08T15:47:33Z</time>
      </trkpt>
      <trkpt lat="42.70338" lon="1.6326">
        <ele>1630.1</ele>
        <time>2020-02-08T15:47:34Z</time>
      </trkpt>
      <trkpt lat="42.70338" lon="1.6326">
        <ele>1630.1</ele>
        <time>2020-02-08T15:47:35Z</time>
      </trkpt>
      <trkpt lat="42.70338" lon="1.6326">
        <ele>1630.1</ele>
        <time>2020-02-08T15:47:36Z</time>
      </trkpt>
      <trkpt lat="42.70338" lon="1.6326">
        <ele>1630.1</ele>
        <time>2020-02-08T15:47:37Z</time>
      </trkpt>
      <trkpt lat="42.70338" lon="1.6326">
        <ele>1630.1</ele>
        <time>2020-02-08T15:47:38Z</time>
      </trkpt>
      <trkpt lat="42.70338" lon="1.6326">
        <ele>1630.1</ele>
        <time>2020-02-08T15:47:39Z</time>
      </trkpt>
      <trkpt lat="42.70338" lon="1.6326">
        <ele>1630.1</ele>
        <time>2020-02-08T15:47:40Z</time>
      </trkpt>
      <trkpt lat="42.70338" lon="1.6326">
        <ele>1630.1</ele>
        <time>2020-02-08T15:47:41Z</time>
      </trkpt>
      <trkpt lat="42.70338" lon="1.6326">
        <ele>1630.1</ele>
        <time>2020-02-08T15:47:42Z</time>
      </trkpt>
      <trkpt lat="42.70338" lon="1.6326">
        <ele>1630.1</ele>
        <time>2020-02-08T15:47:43Z</time>
      </trkpt>
      <trkpt lat="42.70338" lon="1.6326">
        <ele>1630.1</ele>
        <time>2020-02-08T15:47:44Z</time>
      </trkpt>
      <trkpt lat="42.70338" lon="1.6326">
        <ele>1630.1</ele>
        <time>2020-02-08T15:47:45Z</time>
      </trkpt>
      <trkpt lat="42.70338" lon="1.6326">
        <ele>1630.1</ele>
        <time>2020-02-08T15:47:46Z</time>
      </trkpt>
      <trkpt lat="42.70338" lon="1.6326">
        <ele>1630.1</ele>
        <time>2020-02-08T15:47:47Z</time>
      </trkpt>
      <trkpt lat="42.70338" lon="1.6326">
        <ele>1630.1</ele>
        <time>2020-02-08T15:47:48Z</time>
      </trkpt>
      <trkpt lat="42.70338" lon="1.6326">
        <ele>1630.1</ele>
        <time>2020-02-08T15:47:49Z</time>
      </trkpt>
      <trkpt lat="42.70338" lon="1.6326">
        <ele>1630.1</ele>
        <time>2020-02-08T15:47:50Z</time>
      </trkpt>
      <trkpt lat="42.70338" lon="1.6326">
        <ele>1630.1</ele>
        <time>2020-02-08T15:47:51Z</time>
      </trkpt>
      <trkpt lat="42.70338" lon="1.6326">
        <ele>1630.1</ele>
        <time>2020-02-08T15:47:52Z</time>
      </trkpt>
      <trkpt lat="42.70338" lon="1.6326">
        <ele>1630.1</ele>
        <time>2020-02-08T15:47:53Z</time>
      </trkpt>
      <trkpt lat="42.70338" lon="1.6326">
        <ele>1630.1</ele>
        <time>2020-02-08T15:47:54Z</time>
      </trkpt>
      <trkpt lat="42.70338" lon="1.6326">
        <ele>1630.1</ele>
        <time>2020-02-08T15:47:55Z</time>
      </trkpt>
      <trkpt lat="42.70338" lon="1.6326">
        <ele>1630.1</ele>
        <time>2020-02-08T15:47:56Z</time>
      </trkpt>
      <trkpt lat="42.70338" lon="1.6326">
        <ele>1630.1</ele>
        <time>2020-02-08T15:47:57Z</time>
      </trkpt>
      <trkpt lat="42.70338" lon="1.6326">
        <ele>1630.1</ele>
        <time>2020-02-08T15:47:58Z</time>
      </trkpt>
      <trkpt lat="42.70338" lon="1.6326">
        <ele>1630.1</ele>
        <time>2020-02-08T15:47:59Z</time>
      </trkpt>
      <trkpt lat="42.70338" lon="1.6326">
        <ele>1630.1</ele>
        <time>2020-02-08T15:48:00Z</time>
      </trkpt>
      <trkpt lat="42.70338" lon="1.6326">
        <ele>1630.1</ele>
        <time>2020-02-08T15:48:01Z</time>
      </trkpt>
      <trkpt lat="42.70338" lon="1.6326">
        <ele>1630.1</ele>
        <time>2020-02-08T15:48:02Z</time>
      </trkpt>
      <trkpt lat="42.70338" lon="1.6326">
        <ele>1630.1</ele>
        <time>2020-02-08T15:48:03Z</time>
      </trkpt>
      <trkpt lat="42.70338" lon="1.6326">
        <ele>1630.1</ele>
        <time>2020-02-08T15:48:04Z</time>
      </trkpt>
      <trkpt lat="42.70338" lon="1.6326">
        <ele>1630.1</ele>
        <time>2020-02-08T15:48:05Z</time>
      </trkpt>
      <trkpt lat="42.7034" lon="1.63261">
        <ele>1630.1</ele>
        <time>2020-02-08T15:48:06Z</time>
      </trkpt>
      <trkpt lat="42.7034" lon="1.63261">
        <ele>1630.1</ele>
        <time>2020-02-08T15:48:07Z</time>
      </trkpt>
      <trkpt lat="42.7034" lon="1.63261">
        <ele>1630.1</ele>
        <time>2020-02-08T15:48:08Z</time>
      </trkpt>
      <trkpt lat="42.7034" lon="1.63261">
        <ele>1630.1</ele>
        <time>2020-02-08T15:48:09Z</time>
      </trkpt>
      <trkpt lat="42.7034" lon="1.63261">
        <ele>1630.1</ele>
        <time>2020-02-08T15:49:04Z</time>
      </trkpt>
      <trkpt lat="42.7034" lon="1.63261">
        <ele>1630.1</ele>
        <time>2020-02-08T15:49:05Z</time>
      </trkpt>
      <trkpt lat="42.7034" lon="1.63261">
        <ele>1630.1</ele>
        <time>2020-02-08T15:49:06Z</time>
      </trkpt>
      <trkpt lat="42.7034" lon="1.63261">
        <ele>1630.1</ele>
        <time>2020-02-08T15:49:07Z</time>
      </trkpt>
      <trkpt lat="42.7034" lon="1.63261">
        <ele>1630.1</ele>
        <time>2020-02-08T15:49:08Z</time>
      </trkpt>
      <trkpt lat="42.7034" lon="1.63261">
        <ele>1630.1</ele>
        <time>2020-02-08T15:49:09Z</time>
      </trkpt>
      <trkpt lat="42.7034" lon="1.63261">
        <ele>1630.1</ele>
        <time>2020-02-08T15:49:10Z</time>
      </trkpt>
    </trkseg>
  </trk>
  <trk>
    <name><![CDATA[Morning Activity]]></name>
    <trkseg>
      <trkpt lat="42.7033" lon="1.63264">
        <ele>1629.5</ele>
        <time>2020-02-09T09:23:53Z</time>
      </trkpt>
      <trkpt lat="42.7033" lon="1.63264">
        <ele>1629.5</ele>
        <time>2020-02-09T09:23:54Z</time>
      </trkpt>
      <trkpt lat="42.70336" lon="1.63273">
        <ele>1628.7</ele>
        <time>2020-02-09T09:24:04Z</time>
      </trkpt>
      <trkpt lat="42.70336" lon="1.63273">
        <ele>1628.7</ele>
        <time>2020-02-09T09:24:11Z</time>
      </trkpt>
      <trkpt lat="42.70343" lon="1.63282">
        <ele>1628</ele>
        <time>2020-02-09T09:24:14Z</time>
      </trkpt>
      <trkpt lat="42.70343" lon="1.63282">
        <ele>1628</ele>
        <time>2020-02-09T09:24:21Z</time>
      </trkpt>
      <trkpt lat="42.70336" lon="1.63284">
        <ele>1627.8</ele>
        <time>2020-02-09T09:24:30Z</time>
      </trkpt>
      <trkpt lat="42.70336" lon="1.63284">
        <ele>1627.8</ele>
        <time>2020-02-09T09:24:31Z</time>
      </trkpt>
      <trkpt lat="42.70337" lon="1.63287">
        <ele>1627.3</ele>
        <time>2020-02-09T09:24:36Z</time>
      </trkpt>
      <trkpt lat="42.70338" lon="1.63289">
        <ele>1626.9</ele>
        <time>2020-02-09T09:24:39Z</time>
      </trkpt>
      <trkpt lat="42.70339" lon="1.63292">
        <ele>1626.9</ele>
        <time>2020-02-09T09:24:41Z</time>
      </trkpt>
      <trkpt lat="42.70339" lon="1.63296">
        <ele>1626.5</ele>
        <time>2020-02-09T09:24:45Z</time>
      </trkpt>
      <trkpt lat="42.70339" lon="1.63296">
        <ele>1626.5</ele>
        <time>2020-02-09T09:24:51Z</time>
      </trkpt>
      <trkpt lat="42.7034" lon="1.63306">
        <ele>1625.1</ele>
        <time>2020-02-09T09:24:54Z</time>
      </trkpt>
      <trkpt lat="42.70338" lon="1.63312">
        <ele>1624.4</ele>
        <time>2020-02-09T09:25:01Z</time>
      </trkpt>
      <trkpt lat="42.70335" lon="1.63315">
        <ele>1624</ele>
        <time>2020-02-09T09:25:05Z</time>
      </trkpt>
      <trkpt lat="42.70335" lon="1.63318">
        <ele>1623.7</ele>
        <time>2020-02-09T09:25:07Z</time>
      </trkpt>
      <trkpt lat="42.70335" lon="1.63322">
        <ele>1623.5</ele>
        <time>2020-02-09T09:25:11Z</time>
      </trkpt>
      <trkpt lat="42.70335" lon="1.63324">
        <ele>1623.1</ele>
        <time>2020-02-09T09:25:14Z</time>
      </trkpt>
      <trkpt lat="42.70336" lon="1.63326">
        <ele>1623.1</ele>
        <time>2020-02-09T09:25:15Z</time>
      </trkpt>
      <trkpt lat="42.70336" lon="1.63326">
        <ele>1623.1</ele>
        <time>2020-02-09T09:25:21Z</time>
      </trkpt>
      <trkpt lat="42.70342" lon="1.63337">
        <ele>1622.6</ele>
        <time>2020-02-09T09:25:27Z</time>
      </trkpt>
      <trkpt lat="42.70342" lon="1.63337">
        <ele>1622.6</ele>
        <time>2020-02-09T09:25:31Z</time>
      </trkpt>
      <trkpt lat="42.70345" lon="1.63347">
        <ele>1622.3</ele>
        <time>2020-02-09T09:25:35Z</time>
      </trkpt>
      <trkpt lat="42.70346" lon="1.63352">
        <ele>1622</ele>
        <time>2020-02-09T09:25:39Z</time>
      </trkpt>
      <trkpt lat="42.70346" lon="1.63352">
        <ele>1622</ele>
        <time>2020-02-09T09:25:41Z</time>
      </trkpt>
      <trkpt lat="42.70346" lon="1.63356">
        <ele>1621.7</ele>
        <time>2020-02-09T09:25:42Z</time>
      </trkpt>
      <trkpt lat="42.70346" lon="1.6336">
        <ele>1621.5</ele>
        <time>2020-02-09T09:25:45Z</time>
      </trkpt>
      <trkpt lat="42.70346" lon="1.6336">
        <ele>1621.5</ele>
        <time>2020-02-09T09:25:51Z</time>
      </trkpt>
      <trkpt lat="42.70344" lon="1.63369">
        <ele>1620.6</ele>
        <time>2020-02-09T09:25:53Z</time>
      </trkpt>
      <trkpt lat="42.70344" lon="1.63369">
        <ele>1620.6</ele>
        <time>2020-02-09T09:26:01Z</time>
      </trkpt>
      <trkpt lat="42.70338" lon="1.63379">
        <ele>1619.3</ele>
        <time>2020-02-09T09:26:04Z</time>
      </trkpt>
      <trkpt lat="42.70338" lon="1.63382">
        <ele>1619.3</ele>
        <time>2020-02-09T09:26:06Z</time>
      </trkpt>
      <trkpt lat="42.70338" lon="1.63382">
        <ele>1619.3</ele>
        <time>2020-02-09T09:26:11Z</time>
      </trkpt>
      <trkpt lat="42.70338" lon="1.63391">
        <ele>1619</ele>
        <time>2020-02-09T09:26:12Z</time>
      </trkpt>
      <trkpt lat="42.70336" lon="1.63394">
        <ele>1618.9</ele>
        <time>2020-02-09T09:26:16Z</time>
      </trkpt>
      <trkpt lat="42.70336" lon="1.63394">
        <ele>1618.9</ele>
        <time>2020-02-09T09:26:21Z</time>
      </trkpt>
      <trkpt lat="42.70326" lon="1.63403">
        <ele>1617.4</ele>
        <time>2020-02-09T09:26:23Z</time>
      </trkpt>
      <trkpt lat="42.70319" lon="1.63413">
        <ele>1616.7</ele>
        <time>2020-02-09T09:26:27Z</time>
      </trkpt>
      <trkpt lat="42.70319" lon="1.63413">
        <ele>1616.7</ele>
        <time>2020-02-09T09:26:31Z</time>
      </trkpt>
      <trkpt lat="42.70317" lon="1.63423">
        <ele>1616.4</ele>
        <time>2020-02-09T09:26:35Z</time>
      </trkpt>
      <trkpt lat="42.70315" lon="1.63426">
        <ele>1616.2</ele>
        <time>2020-02-09T09:26:38Z</time>
      </trkpt>
      <trkpt lat="42.70315" lon="1.63426">
        <ele>1616.2</ele>
        <time>2020-02-09T09:26:41Z</time>
      </trkpt>
      <trkpt lat="42.70311" lon="1.63431">
        <ele>1616</ele>
        <time>2020-02-09T09:26:43Z</time>
      </trkpt>
      <trkpt lat="42.7031" lon="1.63432">
        <ele>1616</ele>
        <time>2020-02-09T09:26:46Z</time>
      </trkpt>
      <trkpt lat="42.70309" lon="1.63433">
        <ele>1615.9</ele>
        <time>2020-02-09T09:26:50Z</time>
      </trkpt>
      <trkpt lat="42.70309" lon="1.63435">
        <ele>1615.9</ele>
        <time>2020-02-09T09:26:51Z</time>
      </trkpt>
      <trkpt lat="42.70307" lon="1.63437">
        <ele>1615.9</ele>
        <time>2020-02-09T09:26:52Z</time>
      </trkpt>
      <trkpt lat="42.70304" lon="1.6344">
        <ele>1615.7</ele>
        <time>2020-02-09T09:26:59Z</time>
      </trkpt>
      <trkpt lat="42.70304" lon="1.6344">
        <ele>1615.7</ele>
        <time>2020-02-09T09:27:01Z</time>
      </trkpt>
      <trkpt lat="42.70304" lon="1.63442">
        <ele>1615.7</ele>
        <time>2020-02-09T09:27:03Z</time>
      </trkpt>
      <trkpt lat="42.70304" lon="1.63442">
        <ele>1615.7</ele>
        <time>2020-02-09T09:27:11Z</time>
      </trkpt>
      <trkpt lat="42.70303" lon="1.63456">
        <ele>1615.4</ele>
        <time>2020-02-09T09:27:15Z</time>
      </trkpt>
      <trkpt lat="42.70303" lon="1.6346">
        <ele>1615.3</ele>
        <time>2020-02-09T09:27:19Z</time>
      </trkpt>
      <trkpt lat="42.70303" lon="1.6346">
        <ele>1615.3</ele>
        <time>2020-02-09T09:27:21Z</time>
      </trkpt>
      <trkpt lat="42.70304" lon="1.63466">
        <ele>1615.1</ele>
        <time>2020-02-09T09:27:24Z</time>
      </trkpt>
      <trkpt lat="42.70304" lon="1.63469">
        <ele>1615</ele>
        <time>2020-02-09T09:27:26Z</time>
      </trkpt>
      <trkpt lat="42.70305" lon="1.63471">
        <ele>1615</ele>
        <time>2020-02-09T09:27:28Z</time>
      </trkpt>
      <trkpt lat="42.70305" lon="1.63471">
        <ele>1615</ele>
        <time>2020-02-09T09:27:31Z</time>
      </trkpt>
      <trkpt lat="42.70307" lon="1.63477">
        <ele>1615</ele>
        <time>2020-02-09T09:27:32Z</time>
      </trkpt>
      <trkpt lat="42.70308" lon="1.63482">
        <ele>1614.7</ele>
        <time>2020-02-09T09:27:36Z</time>
      </trkpt>
      <trkpt lat="42.70308" lon="1.63482">
        <ele>1614.7</ele>
        <time>2020-02-09T09:27:41Z</time>
      </trkpt>
      <trkpt lat="42.70309" lon="1.63489">
        <ele>1614.5</ele>
        <time>2020-02-09T09:27:42Z</time>
      </trkpt>
      <trkpt lat="42.7031" lon="1.63492">
        <ele>1614.6</ele>
        <time>2020-02-09T09:27:44Z</time>
      </trkpt>
      <trkpt lat="42.7031" lon="1.63498">
        <ele>1614.4</ele>
        <time>2020-02-09T09:27:49Z</time>
      </trkpt>
      <trkpt lat="42.7031" lon="1.63498">
        <ele>1614.4</ele>
        <time>2020-02-09T09:27:51Z</time>
      </trkpt>
      <trkpt lat="42.7031" lon="1.63506">
        <ele>1614.1</ele>
        <time>2020-02-09T09:27:55Z</time>
      </trkpt>
      <trkpt lat="42.7031" lon="1.63511">
        <ele>1614</ele>
        <time>2020-02-09T09:27:59Z</time>
      </trkpt>
      <trkpt lat="42.7031" lon="1.63511">
        <ele>1614</ele>
        <time>2020-02-09T09:28:01Z</time>
      </trkpt>
      <trkpt lat="42.70309" lon="1.63517">
        <ele>1613.4</ele>
        <time>2020-02-09T09:28:04Z</time>
      </trkpt>
      <trkpt lat="42.70309" lon="1.63517">
        <ele>1613.4</ele>
        <time>2020-02-09T09:28:11Z</time>
      </trkpt>
      <trkpt lat="42.70309" lon="1.63528">
        <ele>1613</ele>
        <time>2020-02-09T09:28:12Z</time>
      </trkpt>
      <trkpt lat="42.70302" lon="1.63539">
        <ele>1611.9</ele>
        <time>2020-02-09T09:28:16Z</time>
      </trkpt>
      <trkpt lat="42.70302" lon="1.63539">
        <ele>1611.9</ele>
        <time>2020-02-09T09:28:21Z</time>
      </trkpt>
      <trkpt lat="42.70299" lon="1.63548">
        <ele>1611.2</ele>
        <time>2020-02-09T09:28:22Z</time>
      </trkpt>
      <trkpt lat="42.70298" lon="1.63551">
        <ele>1611</ele>
        <time>2020-02-09T09:28:24Z</time>
      </trkpt>
      <trkpt lat="42.70296" lon="1.63554">
        <ele>1610.9</ele>
        <time>2020-02-09T09:28:30Z</time>
      </trkpt>
      <trkpt lat="42.70294" lon="1.63557">
        <ele>1610.6</ele>
        <time>2020-02-09T09:28:31Z</time>
      </trkpt>
      <trkpt lat="42.70293" lon="1.63563">
        <ele>1610.3</ele>
        <time>2020-02-09T09:28:34Z</time>
      </trkpt>
      <trkpt lat="42.70293" lon="1.63565">
        <ele>1610.1</ele>
        <time>2020-02-09T09:28:37Z</time>
      </trkpt>
      <trkpt lat="42.70292" lon="1.63567">
        <ele>1610.1</ele>
        <time>2020-02-09T09:28:40Z</time>
      </trkpt>
      <trkpt lat="42.70292" lon="1.63569">
        <ele>1609.9</ele>
        <time>2020-02-09T09:28:41Z</time>
      </trkpt>
      <trkpt lat="42.70291" lon="1.63573">
        <ele>1609.8</ele>
        <time>2020-02-09T09:28:44Z</time>
      </trkpt>
      <trkpt lat="42.70291" lon="1.63575">
        <ele>1609.8</ele>
        <time>2020-02-09T09:28:46Z</time>
      </trkpt>
      <trkpt lat="42.70291" lon="1.63576">
        <ele>1609.6</ele>
        <time>2020-02-09T09:28:49Z</time>
      </trkpt>
      <trkpt lat="42.70291" lon="1.63578">
        <ele>1609.6</ele>
        <time>2020-02-09T09:28:50Z</time>
      </trkpt>
      <trkpt lat="42.70291" lon="1.63579">
        <ele>1609.6</ele>
        <time>2020-02-09T09:28:51Z</time>
      </trkpt>
      <trkpt lat="42.7029" lon="1.63587">
        <ele>1609.3</ele>
        <time>2020-02-09T09:28:55Z</time>
      </trkpt>
      <trkpt lat="42.70289" lon="1.63589">
        <ele>1609.3</ele>
        <time>2020-02-09T09:28:58Z</time>
      </trkpt>
      <trkpt lat="42.70289" lon="1.6359">
        <ele>1609.2</ele>
        <time>2020-02-09T09:29:00Z</time>
      </trkpt>
      <trkpt lat="42.70288" lon="1.63591">
        <ele>1609.2</ele>
        <time>2020-02-09T09:29:01Z</time>
      </trkpt>
      <trkpt lat="42.70287" lon="1.63596">
        <ele>1609</ele>
        <time>2020-02-09T09:29:03Z</time>
      </trkpt>
      <trkpt lat="42.70287" lon="1.63598">
        <ele>1608.8</ele>
        <time>2020-02-09T09:29:06Z</time>
      </trkpt>
      <trkpt lat="42.70286" lon="1.636">
        <ele>1608.8</ele>
        <time>2020-02-09T09:29:10Z</time>
      </trkpt>
      <trkpt lat="42.70286" lon="1.63603">
        <ele>1608.6</ele>
        <time>2020-02-09T09:29:11Z</time>
      </trkpt>
      <trkpt lat="42.70286" lon="1.63605">
        <ele>1608.6</ele>
        <time>2020-02-09T09:29:13Z</time>
      </trkpt>
      <trkpt lat="42.70285" lon="1.63609">
        <ele>1608.4</ele>
        <time>2020-02-09T09:29:16Z</time>
      </trkpt>
      <trkpt lat="42.70284" lon="1.63612">
        <ele>1608.2</ele>
        <time>2020-02-09T09:29:17Z</time>
      </trkpt>
      <trkpt lat="42.70283" lon="1.63615">
        <ele>1608</ele>
        <time>2020-02-09T09:29:21Z</time>
      </trkpt>
      <trkpt lat="42.70283" lon="1.63625">
        <ele>1607.6</ele>
        <time>2020-02-09T09:29:27Z</time>
      </trkpt>
      <trkpt lat="42.70283" lon="1.63625">
        <ele>1607.6</ele>
        <time>2020-02-09T09:29:31Z</time>
      </trkpt>
      <trkpt lat="42.70282" lon="1.63631">
        <ele>1607.3</ele>
        <time>2020-02-09T09:29:32Z</time>
      </trkpt>
      <trkpt lat="42.70283" lon="1.63634">
        <ele>1607.1</ele>
        <time>2020-02-09T09:29:37Z</time>
      </trkpt>
      <trkpt lat="42.70283" lon="1.6364">
        <ele>1606.9</ele>
        <time>2020-02-09T09:29:41Z</time>
      </trkpt>
      <trkpt lat="42.70283" lon="1.63644">
        <ele>1606.7</ele>
        <time>2020-02-09T09:29:45Z</time>
      </trkpt>
      <trkpt lat="42.70282" lon="1.6365">
        <ele>1606.3</ele>
        <time>2020-02-09T09:29:49Z</time>
      </trkpt>
      <trkpt lat="42.70282" lon="1.6365">
        <ele>1606.3</ele>
        <time>2020-02-09T09:29:51Z</time>
      </trkpt>
      <trkpt lat="42.7028" lon="1.63655">
        <ele>1606.2</ele>
        <time>2020-02-09T09:29:52Z</time>
      </trkpt>
      <trkpt lat="42.70281" lon="1.63661">
        <ele>1606</ele>
        <time>2020-02-09T09:29:57Z</time>
      </trkpt>
      <trkpt lat="42.70282" lon="1.63667">
        <ele>1605.7</ele>
        <time>2020-02-09T09:30:01Z</time>
      </trkpt>
      <trkpt lat="42.70281" lon="1.63672">
        <ele>1605.5</ele>
        <time>2020-02-09T09:30:05Z</time>
      </trkpt>
      <trkpt lat="42.7028" lon="1.63675">
        <ele>1605.4</ele>
        <time>2020-02-09T09:30:08Z</time>
      </trkpt>
      <trkpt lat="42.70279" lon="1.6368">
        <ele>1605.4</ele>
        <time>2020-02-09T09:30:11Z</time>
      </trkpt>
      <trkpt lat="42.70277" lon="1.63696">
        <ele>1605.3</ele>
        <time>2020-02-09T09:30:21Z</time>
      </trkpt>
      <trkpt lat="42.70278" lon="1.63699">
        <ele>1605.3</ele>
        <time>2020-02-09T09:30:23Z</time>
      </trkpt>
      <trkpt lat="42.70278" lon="1.63702">
        <ele>1605.3</ele>
        <time>2020-02-09T09:30:29Z</time>
      </trkpt>
      <trkpt lat="42.70278" lon="1.63705">
        <ele>1605.3</ele>
        <time>2020-02-09T09:30:31Z</time>
      </trkpt>
      <trkpt lat="42.70279" lon="1.63713">
        <ele>1605.1</ele>
        <time>2020-02-09T09:30:38Z</time>
      </trkpt>
      <trkpt lat="42.70279" lon="1.63713">
        <ele>1605.1</ele>
        <time>2020-02-09T09:30:41Z</time>
      </trkpt>
      <trkpt lat="42.70281" lon="1.63717">
        <ele>1605.1</ele>
        <time>2020-02-09T09:30:42Z</time>
      </trkpt>
      <trkpt lat="42.70281" lon="1.63722">
        <ele>1605</ele>
        <time>2020-02-09T09:30:46Z</time>
      </trkpt>
      <trkpt lat="42.70279" lon="1.63724">
        <ele>1604.9</ele>
        <time>2020-02-09T09:30:48Z</time>
      </trkpt>
      <trkpt lat="42.70278" lon="1.63725">
        <ele>1605.1</ele>
        <time>2020-02-09T09:30:51Z</time>
      </trkpt>
      <trkpt lat="42.70276" lon="1.63728">
        <ele>1605</ele>
        <time>2020-02-09T09:31:01Z</time>
      </trkpt>
      <trkpt lat="42.70275" lon="1.6373">
        <ele>1605.2</ele>
        <time>2020-02-09T09:31:03Z</time>
      </trkpt>
      <trkpt lat="42.70273" lon="1.63733">
        <ele>1605.1</ele>
        <time>2020-02-09T09:31:06Z</time>
      </trkpt>
      <trkpt lat="42.70272" lon="1.63736">
        <ele>1605</ele>
        <time>2020-02-09T09:31:10Z</time>
      </trkpt>
      <trkpt lat="42.70271" lon="1.63739">
        <ele>1605.2</ele>
        <time>2020-02-09T09:31:11Z</time>
      </trkpt>
      <trkpt lat="42.70269" lon="1.63744">
        <ele>1605</ele>
        <time>2020-02-09T09:31:15Z</time>
      </trkpt>
      <trkpt lat="42.70269" lon="1.63745">
        <ele>1605</ele>
        <time>2020-02-09T09:31:17Z</time>
      </trkpt>
      <trkpt lat="42.70269" lon="1.63747">
        <ele>1605.2</ele>
        <time>2020-02-09T09:31:20Z</time>
      </trkpt>
      <trkpt lat="42.70268" lon="1.63748">
        <ele>1605.1</ele>
        <time>2020-02-09T09:31:21Z</time>
      </trkpt>
      <trkpt lat="42.70269" lon="1.63752">
        <ele>1604.8</ele>
        <time>2020-02-09T09:31:24Z</time>
      </trkpt>
      <trkpt lat="42.7027" lon="1.63757">
        <ele>1604.7</ele>
        <time>2020-02-09T09:31:29Z</time>
      </trkpt>
      <trkpt lat="42.7027" lon="1.63757">
        <ele>1604.7</ele>
        <time>2020-02-09T09:31:31Z</time>
      </trkpt>
      <trkpt lat="42.70271" lon="1.63759">
        <ele>1604.7</ele>
        <time>2020-02-09T09:31:32Z</time>
      </trkpt>
      <trkpt lat="42.70272" lon="1.63762">
        <ele>1604.7</ele>
        <time>2020-02-09T09:31:36Z</time>
      </trkpt>
      <trkpt lat="42.70273" lon="1.63765">
        <ele>1604.4</ele>
        <time>2020-02-09T09:31:39Z</time>
      </trkpt>
      <trkpt lat="42.70273" lon="1.63765">
        <ele>1604.4</ele>
        <time>2020-02-09T09:31:41Z</time>
      </trkpt>
      <trkpt lat="42.70276" lon="1.63768">
        <ele>1604.3</ele>
        <time>2020-02-09T09:31:43Z</time>
      </trkpt>
      <trkpt lat="42.70276" lon="1.6377">
        <ele>1604.3</ele>
        <time>2020-02-09T09:31:46Z</time>
      </trkpt>
      <trkpt lat="42.70277" lon="1.63771">
        <ele>1604.3</ele>
        <time>2020-02-09T09:31:50Z</time>
      </trkpt>
      <trkpt lat="42.70278" lon="1.63772">
        <ele>1604.3</ele>
        <time>2020-02-09T09:31:51Z</time>
      </trkpt>
      <trkpt lat="42.70279" lon="1.63777">
        <ele>1604.3</ele>
        <time>2020-02-09T09:31:54Z</time>
      </trkpt>
      <trkpt lat="42.70279" lon="1.63778">
        <ele>1604.3</ele>
        <time>2020-02-09T09:32:00Z</time>
      </trkpt>
      <trkpt lat="42.70279" lon="1.6378">
        <ele>1604.3</ele>
        <time>2020-02-09T09:32:01Z</time>
      </trkpt>
      <trkpt lat="42.7028" lon="1.63782">
        <ele>1604.3</ele>
        <time>2020-02-09T09:32:03Z</time>
      </trkpt>
      <trkpt lat="42.70283" lon="1.63786">
        <ele>1604.3</ele>
        <time>2020-02-09T09:32:08Z</time>
      </trkpt>
      <trkpt lat="42.70283" lon="1.63786">
        <ele>1604.3</ele>
        <time>2020-02-09T09:32:11Z</time>
      </trkpt>
      <trkpt lat="42.70283" lon="1.63788">
        <ele>1604.4</ele>
        <time>2020-02-09T09:32:21Z</time>
      </trkpt>
      <trkpt lat="42.70282" lon="1.6379">
        <ele>1604.4</ele>
        <time>2020-02-09T09:32:25Z</time>
      </trkpt>
      <trkpt lat="42.70282" lon="1.63793">
        <ele>1604.4</ele>
        <time>2020-02-09T09:32:31Z</time>
      </trkpt>
      <trkpt lat="42.70282" lon="1.63795">
        <ele>1604.4</ele>
        <time>2020-02-09T09:32:41Z</time>
      </trkpt>
      <trkpt lat="42.70282" lon="1.63798">
        <ele>1604.4</ele>
        <time>2020-02-09T09:32:44Z</time>
      </trkpt>
      <trkpt lat="42.70282" lon="1.638">
        <ele>1604.4</ele>
        <time>2020-02-09T09:32:51Z</time>
      </trkpt>
      <trkpt lat="42.70282" lon="1.63803">
        <ele>1604.4</ele>
        <time>2020-02-09T09:32:53Z</time>
      </trkpt>
      <trkpt lat="42.70282" lon="1.63805">
        <ele>1604.5</ele>
        <time>2020-02-09T09:32:57Z</time>
      </trkpt>
      <trkpt lat="42.70282" lon="1.63808">
        <ele>1604.5</ele>
        <time>2020-02-09T09:33:01Z</time>
      </trkpt>
      <trkpt lat="42.70282" lon="1.6381">
        <ele>1604.5</ele>
        <time>2020-02-09T09:33:06Z</time>
      </trkpt>
      <trkpt lat="42.70282" lon="1.63813">
        <ele>1604.5</ele>
        <time>2020-02-09T09:33:10Z</time>
      </trkpt>
      <trkpt lat="42.70282" lon="1.63815">
        <ele>1604.5</ele>
        <time>2020-02-09T09:33:11Z</time>
      </trkpt>
      <trkpt lat="42.70281" lon="1.63819">
        <ele>1604.5</ele>
        <time>2020-02-09T09:33:14Z</time>
      </trkpt>
      <trkpt lat="42.7028" lon="1.63827">
        <ele>1604.4</ele>
        <time>2020-02-09T09:33:21Z</time>
      </trkpt>
      <trkpt lat="42.7028" lon="1.6383">
        <ele>1604.4</ele>
        <time>2020-02-09T09:33:26Z</time>
      </trkpt>
      <trkpt lat="42.70279" lon="1.63833">
        <ele>1604.4</ele>
        <time>2020-02-09T09:33:29Z</time>
      </trkpt>
      <trkpt lat="42.70279" lon="1.63833">
        <ele>1604.4</ele>
        <time>2020-02-09T09:33:31Z</time>
      </trkpt>
      <trkpt lat="42.70278" lon="1.63838">
        <ele>1604.3</ele>
        <time>2020-02-09T09:33:34Z</time>
      </trkpt>
      <trkpt lat="42.70278" lon="1.6384">
        <ele>1604.2</ele>
        <time>2020-02-09T09:33:38Z</time>
      </trkpt>
      <trkpt lat="42.70277" lon="1.63842">
        <ele>1604.2</ele>
        <time>2020-02-09T09:33:41Z</time>
      </trkpt>
      <trkpt lat="42.70277" lon="1.63844">
        <ele>1604.1</ele>
        <time>2020-02-09T09:33:44Z</time>
      </trkpt>
      <trkpt lat="42.70277" lon="1.63846">
        <ele>1604.1</ele>
        <time>2020-02-09T09:33:46Z</time>
      </trkpt>
      <trkpt lat="42.70276" lon="1.63848">
        <ele>1604</ele>
        <time>2020-02-09T09:33:50Z</time>
      </trkpt>
      <trkpt lat="42.70276" lon="1.6385">
        <ele>1604</ele>
        <time>2020-02-09T09:33:51Z</time>
      </trkpt>
      <trkpt lat="42.70273" lon="1.63856">
        <ele>1603.8</ele>
        <time>2020-02-09T09:33:59Z</time>
      </trkpt>
      <trkpt lat="42.70273" lon="1.63856">
        <ele>1603.8</ele>
        <time>2020-02-09T09:34:01Z</time>
      </trkpt>
      <trkpt lat="42.70272" lon="1.6386">
        <ele>1603.7</ele>
        <time>2020-02-09T09:34:03Z</time>
      </trkpt>
      <trkpt lat="42.70271" lon="1.63866">
        <ele>1603.7</ele>
        <time>2020-02-09T09:34:08Z</time>
      </trkpt>
      <trkpt lat="42.7027" lon="1.6387">
        <ele>1603.6</ele>
        <time>2020-02-09T09:34:11Z</time>
      </trkpt>
      <trkpt lat="42.70269" lon="1.63873">
        <ele>1603.7</ele>
        <time>2020-02-09T09:34:15Z</time>
      </trkpt>
      <trkpt lat="42.70267" lon="1.63874">
        <ele>1603.7</ele>
        <time>2020-02-09T09:34:18Z</time>
      </trkpt>
      <trkpt lat="42.70267" lon="1.63877">
        <ele>1603.6</ele>
        <time>2020-02-09T09:34:21Z</time>
      </trkpt>
      <trkpt lat="42.70268" lon="1.63882">
        <ele>1603.6</ele>
        <time>2020-02-09T09:34:24Z</time>
      </trkpt>
      <trkpt lat="42.70269" lon="1.63884">
        <ele>1603.4</ele>
        <time>2020-02-09T09:34:26Z</time>
      </trkpt>
      <trkpt lat="42.70269" lon="1.63886">
        <ele>1603.3</ele>
        <time>2020-02-09T09:34:30Z</time>
      </trkpt>
      <trkpt lat="42.70269" lon="1.63887">
        <ele>1603.3</ele>
        <time>2020-02-09T09:34:31Z</time>
      </trkpt>
      <trkpt lat="42.70271" lon="1.63892">
        <ele>1603.3</ele>
        <time>2020-02-09T09:34:33Z</time>
      </trkpt>
      <trkpt lat="42.70271" lon="1.63894">
        <ele>1603.3</ele>
        <time>2020-02-09T09:34:36Z</time>
      </trkpt>
      <trkpt lat="42.70272" lon="1.63896">
        <ele>1603.1</ele>
        <time>2020-02-09T09:34:40Z</time>
      </trkpt>
      <trkpt lat="42.70272" lon="1.63898">
        <ele>1603.1</ele>
        <time>2020-02-09T09:34:41Z</time>
      </trkpt>
      <trkpt lat="42.70274" lon="1.63901">
        <ele>1603.1</ele>
        <time>2020-02-09T09:34:43Z</time>
      </trkpt>
      <trkpt lat="42.70274" lon="1.63903">
        <ele>1603.1</ele>
        <time>2020-02-09T09:34:45Z</time>
      </trkpt>
      <trkpt lat="42.70277" lon="1.6391">
        <ele>1602.9</ele>
        <time>2020-02-09T09:34:51Z</time>
      </trkpt>
      <trkpt lat="42.70278" lon="1.63913">
        <ele>1602.8</ele>
        <time>2020-02-09T09:34:56Z</time>
      </trkpt>
      <trkpt lat="42.7028" lon="1.63914">
        <ele>1602.7</ele>
        <time>2020-02-09T09:34:58Z</time>
      </trkpt>
      <trkpt lat="42.7028" lon="1.63914">
        <ele>1602.7</ele>
        <time>2020-02-09T09:35:01Z</time>
      </trkpt>
      <trkpt lat="42.70282" lon="1.63916">
        <ele>1602.6</ele>
        <time>2020-02-09T09:35:02Z</time>
      </trkpt>
      <trkpt lat="42.70283" lon="1.63919">
        <ele>1602.6</ele>
        <time>2020-02-09T09:35:04Z</time>
      </trkpt>
      <trkpt lat="42.70285" lon="1.63924">
        <ele>1602.4</ele>
        <time>2020-02-09T09:35:09Z</time>
      </trkpt>
      <trkpt lat="42.70285" lon="1.63924">
        <ele>1602.4</ele>
        <time>2020-02-09T09:35:11Z</time>
      </trkpt>
      <trkpt lat="42.70287" lon="1.63927">
        <ele>1602.4</ele>
        <time>2020-02-09T09:35:12Z</time>
      </trkpt>
      <trkpt lat="42.70289" lon="1.63931">
        <ele>1602.4</ele>
        <time>2020-02-09T09:35:16Z</time>
      </trkpt>
      <trkpt lat="42.7029" lon="1.63935">
        <ele>1602.2</ele>
        <time>2020-02-09T09:35:19Z</time>
      </trkpt>
      <trkpt lat="42.70291" lon="1.63937">
        <ele>1602.2</ele>
        <time>2020-02-09T09:35:21Z</time>
      </trkpt>
      <trkpt lat="42.70292" lon="1.63949">
        <ele>1601.8</ele>
        <time>2020-02-09T09:35:30Z</time>
      </trkpt>
      <trkpt lat="42.70292" lon="1.63949">
        <ele>1601.8</ele>
        <time>2020-02-09T09:35:31Z</time>
      </trkpt>
      <trkpt lat="42.70293" lon="1.63963">
        <ele>1601</ele>
        <time>2020-02-09T09:35:38Z</time>
      </trkpt>
      <trkpt lat="42.70293" lon="1.63964">
        <ele>1601</ele>
        <time>2020-02-09T09:35:40Z</time>
      </trkpt>
      <trkpt lat="42.70293" lon="1.63966">
        <ele>1601</ele>
        <time>2020-02-09T09:35:41Z</time>
      </trkpt>
      <trkpt lat="42.70294" lon="1.63968">
        <ele>1600.8</ele>
        <time>2020-02-09T09:35:42Z</time>
      </trkpt>
      <trkpt lat="42.70296" lon="1.6397">
        <ele>1600.9</ele>
        <time>2020-02-09T09:35:45Z</time>
      </trkpt>
      <trkpt lat="42.70297" lon="1.63973">
        <ele>1600.8</ele>
        <time>2020-02-09T09:35:47Z</time>
      </trkpt>
      <trkpt lat="42.70297" lon="1.63977">
        <ele>1600.5</ele>
        <time>2020-02-09T09:35:51Z</time>
      </trkpt>
      <trkpt lat="42.70297" lon="1.63983">
        <ele>1600.3</ele>
        <time>2020-02-09T09:35:53Z</time>
      </trkpt>
      <trkpt lat="42.70297" lon="1.63986">
        <ele>1600</ele>
        <time>2020-02-09T09:35:55Z</time>
      </trkpt>
      <trkpt lat="42.70297" lon="1.63989">
        <ele>1599.8</ele>
        <time>2020-02-09T09:36:01Z</time>
      </trkpt>
      <trkpt lat="42.70297" lon="1.63992">
        <ele>1599.8</ele>
        <time>2020-02-09T09:36:02Z</time>
      </trkpt>
      <trkpt lat="42.70298" lon="1.63994">
        <ele>1599.5</ele>
        <time>2020-02-09T09:36:05Z</time>
      </trkpt>
      <trkpt lat="42.70298" lon="1.63997">
        <ele>1599.3</ele>
        <time>2020-02-09T09:36:07Z</time>
      </trkpt>
      <trkpt lat="42.70298" lon="1.64">
        <ele>1599.3</ele>
        <time>2020-02-09T09:36:09Z</time>
      </trkpt>
      <trkpt lat="42.70298" lon="1.64003">
        <ele>1599</ele>
        <time>2020-02-09T09:36:10Z</time>
      </trkpt>
      <trkpt lat="42.70298" lon="1.64006">
        <ele>1598.8</ele>
        <time>2020-02-09T09:36:11Z</time>
      </trkpt>
      <trkpt lat="42.70298" lon="1.64011">
        <ele>1598.6</ele>
        <time>2020-02-09T09:36:13Z</time>
      </trkpt>
      <trkpt lat="42.70298" lon="1.64013">
        <ele>1598.6</ele>
        <time>2020-02-09T09:36:20Z</time>
      </trkpt>
      <trkpt lat="42.70298" lon="1.64016">
        <ele>1598.3</ele>
        <time>2020-02-09T09:36:21Z</time>
      </trkpt>
      <trkpt lat="42.70297" lon="1.64021">
        <ele>1598.1</ele>
        <time>2020-02-09T09:36:24Z</time>
      </trkpt>
      <trkpt lat="42.70297" lon="1.64023">
        <ele>1597.9</ele>
        <time>2020-02-09T09:36:28Z</time>
      </trkpt>
      <trkpt lat="42.70297" lon="1.64025">
        <ele>1597.9</ele>
        <time>2020-02-09T09:36:30Z</time>
      </trkpt>
      <trkpt lat="42.70296" lon="1.64027">
        <ele>1597.7</ele>
        <time>2020-02-09T09:36:31Z</time>
      </trkpt>
      <trkpt lat="42.70297" lon="1.64032">
        <ele>1597.5</ele>
        <time>2020-02-09T09:36:33Z</time>
      </trkpt>
      <trkpt lat="42.70297" lon="1.64035">
        <ele>1597.5</ele>
        <time>2020-02-09T09:36:36Z</time>
      </trkpt>
      <trkpt lat="42.70297" lon="1.64037">
        <ele>1597.4</ele>
        <time>2020-02-09T09:36:38Z</time>
      </trkpt>
      <trkpt lat="42.70297" lon="1.6404">
        <ele>1597.3</ele>
        <time>2020-02-09T09:36:40Z</time>
      </trkpt>
      <trkpt lat="42.70297" lon="1.64042">
        <ele>1597.3</ele>
        <time>2020-02-09T09:36:41Z</time>
      </trkpt>
      <trkpt lat="42.70297" lon="1.64048">
        <ele>1597.1</ele>
        <time>2020-02-09T09:36:44Z</time>
      </trkpt>
      <trkpt lat="42.70298" lon="1.6405">
        <ele>1597</ele>
        <time>2020-02-09T09:36:50Z</time>
      </trkpt>
      <trkpt lat="42.70298" lon="1.64052">
        <ele>1597</ele>
        <time>2020-02-09T09:36:51Z</time>
      </trkpt>
      <trkpt lat="42.70298" lon="1.64059">
        <ele>1596.7</ele>
        <time>2020-02-09T09:36:55Z</time>
      </trkpt>
      <trkpt lat="42.70298" lon="1.64062">
        <ele>1596.6</ele>
        <time>2020-02-09T09:36:57Z</time>
      </trkpt>
      <trkpt lat="42.70298" lon="1.64062">
        <ele>1596.6</ele>
        <time>2020-02-09T09:37:01Z</time>
      </trkpt>
      <trkpt lat="42.70301" lon="1.64073">
        <ele>1596.3</ele>
        <time>2020-02-09T09:37:05Z</time>
      </trkpt>
      <trkpt lat="42.70303" lon="1.64077">
        <ele>1596.1</ele>
        <time>2020-02-09T09:37:09Z</time>
      </trkpt>
      <trkpt lat="42.70303" lon="1.64077">
        <ele>1596.1</ele>
        <time>2020-02-09T09:37:11Z</time>
      </trkpt>
      <trkpt lat="42.70307" lon="1.64082">
        <ele>1595.9</ele>
        <time>2020-02-09T09:37:14Z</time>
      </trkpt>
      <trkpt lat="42.70308" lon="1.64087">
        <ele>1595.7</ele>
        <time>2020-02-09T09:37:18Z</time>
      </trkpt>
      <trkpt lat="42.70308" lon="1.64087">
        <ele>1595.7</ele>
        <time>2020-02-09T09:37:21Z</time>
      </trkpt>
      <trkpt lat="42.70309" lon="1.64097">
        <ele>1595</ele>
        <time>2020-02-09T09:37:22Z</time>
      </trkpt>
      <trkpt lat="42.7031" lon="1.641">
        <ele>1594.6</ele>
        <time>2020-02-09T09:37:24Z</time>
      </trkpt>
      <trkpt lat="42.70311" lon="1.64103">
        <ele>1594.6</ele>
        <time>2020-02-09T09:37:25Z</time>
      </trkpt>
      <trkpt lat="42.70311" lon="1.64106">
        <ele>1594.4</ele>
        <time>2020-02-09T09:37:31Z</time>
      </trkpt>
      <trkpt lat="42.70312" lon="1.64109">
        <ele>1594.2</ele>
        <time>2020-02-09T09:37:34Z</time>
      </trkpt>
      <trkpt lat="42.70313" lon="1.64113">
        <ele>1593.9</ele>
        <time>2020-02-09T09:37:41Z</time>
      </trkpt>
      <trkpt lat="42.70314" lon="1.64116">
        <ele>1593.6</ele>
        <time>2020-02-09T09:37:43Z</time>
      </trkpt>
      <trkpt lat="42.70315" lon="1.64119">
        <ele>1593.4</ele>
        <time>2020-02-09T09:37:46Z</time>
      </trkpt>
      <trkpt lat="42.70315" lon="1.64122">
        <ele>1593.3</ele>
        <time>2020-02-09T09:37:50Z</time>
      </trkpt>
      <trkpt lat="42.70316" lon="1.64125">
        <ele>1593</ele>
        <time>2020-02-09T09:37:51Z</time>
      </trkpt>
      <trkpt lat="42.7032" lon="1.64129">
        <ele>1592.5</ele>
        <time>2020-02-09T09:37:54Z</time>
      </trkpt>
      <trkpt lat="42.70321" lon="1.64131">
        <ele>1592.4</ele>
        <time>2020-02-09T09:38:00Z</time>
      </trkpt>
      <trkpt lat="42.70321" lon="1.64133">
        <ele>1592.4</ele>
        <time>2020-02-09T09:38:01Z</time>
      </trkpt>
      <trkpt lat="42.70312" lon="1.64137">
        <ele>1593.4</ele>
        <time>2020-02-09T09:38:04Z</time>
      </trkpt>
      <trkpt lat="42.70308" lon="1.6414">
        <ele>1593.9</ele>
        <time>2020-02-09T09:38:11Z</time>
      </trkpt>
      <trkpt lat="42.70308" lon="1.6414">
        <ele>1593.9</ele>
        <time>2020-02-09T09:38:21Z</time>
      </trkpt>
      <trkpt lat="42.70307" lon="1.64153">
        <ele>1593.9</ele>
        <time>2020-02-09T09:38:22Z</time>
      </trkpt>
      <trkpt lat="42.70309" lon="1.64159">
        <ele>1594</ele>
        <time>2020-02-09T09:38:29Z</time>
      </trkpt>
      <trkpt lat="42.70309" lon="1.64159">
        <ele>1594</ele>
        <time>2020-02-09T09:38:31Z</time>
      </trkpt>
      <trkpt lat="42.70309" lon="1.64159">
        <ele>1594</ele>
        <time>2020-02-09T09:38:41Z</time>
      </trkpt>
      <trkpt lat="42.70309" lon="1.64159">
        <ele>1594</ele>
        <time>2020-02-09T09:38:51Z</time>
      </trkpt>
      <trkpt lat="42.7031" lon="1.64162">
        <ele>1593.5</ele>
        <time>2020-02-09T09:38:58Z</time>
      </trkpt>
      <trkpt lat="42.70311" lon="1.64165">
        <ele>1593.5</ele>
        <time>2020-02-09T09:39:01Z</time>
      </trkpt>
      <trkpt lat="42.70312" lon="1.64169">
        <ele>1593.6</ele>
        <time>2020-02-09T09:39:04Z</time>
      </trkpt>
      <trkpt lat="42.70313" lon="1.64171">
        <ele>1593.1</ele>
        <time>2020-02-09T09:39:06Z</time>
      </trkpt>
      <trkpt lat="42.70313" lon="1.64171">
        <ele>1593.1</ele>
        <time>2020-02-09T09:39:11Z</time>
      </trkpt>
      <trkpt lat="42.70313" lon="1.64178">
        <ele>1593.2</ele>
        <time>2020-02-09T09:39:12Z</time>
      </trkpt>
      <trkpt lat="42.70313" lon="1.64181">
        <ele>1593.2</ele>
        <time>2020-02-09T09:39:15Z</time>
      </trkpt>
      <trkpt lat="42.70314" lon="1.64184">
        <ele>1593.3</ele>
        <time>2020-02-09T09:39:19Z</time>
      </trkpt>
      <trkpt lat="42.70315" lon="1.64186">
        <ele>1593.3</ele>
        <time>2020-02-09T09:39:21Z</time>
      </trkpt>
      <trkpt lat="42.70317" lon="1.64188">
        <ele>1592.9</ele>
        <time>2020-02-09T09:39:25Z</time>
      </trkpt>
      <trkpt lat="42.70321" lon="1.64191">
        <ele>1592.6</ele>
        <time>2020-02-09T09:39:31Z</time>
      </trkpt>
      <trkpt lat="42.70322" lon="1.64194">
        <ele>1592.6</ele>
        <time>2020-02-09T09:39:33Z</time>
      </trkpt>
      <trkpt lat="42.70322" lon="1.64197">
        <ele>1592.7</ele>
        <time>2020-02-09T09:39:36Z</time>
      </trkpt>
      <trkpt lat="42.70322" lon="1.64197">
        <ele>1592.7</ele>
        <time>2020-02-09T09:39:41Z</time>
      </trkpt>
      <trkpt lat="42.70319" lon="1.64203">
        <ele>1593.4</ele>
        <time>2020-02-09T09:39:42Z</time>
      </trkpt>
      <trkpt lat="42.70319" lon="1.64206">
        <ele>1593.4</ele>
        <time>2020-02-09T09:39:46Z</time>
      </trkpt>
      <trkpt lat="42.7032" lon="1.64211">
        <ele>1593.1</ele>
        <time>2020-02-09T09:39:49Z</time>
      </trkpt>
      <trkpt lat="42.7032" lon="1.64211">
        <ele>1593.1</ele>
        <time>2020-02-09T09:39:51Z</time>
      </trkpt>
      <trkpt lat="42.70322" lon="1.64218">
        <ele>1593.5</ele>
        <time>2020-02-09T09:39:55Z</time>
      </trkpt>
      <trkpt lat="42.70323" lon="1.64221">
        <ele>1593.3</ele>
        <time>2020-02-09T09:39:58Z</time>
      </trkpt>
      <trkpt lat="42.70323" lon="1.64221">
        <ele>1593.3</ele>
        <time>2020-02-09T09:40:01Z</time>
      </trkpt>
      <trkpt lat="42.70324" lon="1.64228">
        <ele>1593.5</ele>
        <time>2020-02-09T09:40:05Z</time>
      </trkpt>
      <trkpt lat="42.70325" lon="1.64231">
        <ele>1593.8</ele>
        <time>2020-02-09T09:40:08Z</time>
      </trkpt>
      <trkpt lat="42.70325" lon="1.64231">
        <ele>1593.8</ele>
        <time>2020-02-09T09:40:11Z</time>
      </trkpt>
      <trkpt lat="42.70325" lon="1.64242">
        <ele>1594.8</ele>
        <time>2020-02-09T09:40:17Z</time>
      </trkpt>
      <trkpt lat="42.70325" lon="1.64245">
        <ele>1594.8</ele>
        <time>2020-02-09T09:40:21Z</time>
      </trkpt>
      <trkpt lat="42.70325" lon="1.64247">
        <ele>1594.5</ele>
        <time>2020-02-09T09:40:24Z</time>
      </trkpt>
      <trkpt lat="42.70326" lon="1.6425">
        <ele>1594.5</ele>
        <time>2020-02-09T09:40:26Z</time>
      </trkpt>
      <trkpt lat="42.70326" lon="1.64252">
        <ele>1594.9</ele>
        <time>2020-02-09T09:40:30Z</time>
      </trkpt>
      <trkpt lat="42.70326" lon="1.64255">
        <ele>1595.2</ele>
        <time>2020-02-09T09:40:31Z</time>
      </trkpt>
      <trkpt lat="42.70327" lon="1.64258">
        <ele>1595.2</ele>
        <time>2020-02-09T09:40:35Z</time>
      </trkpt>
      <trkpt lat="42.70327" lon="1.64258">
        <ele>1595.2</ele>
        <time>2020-02-09T09:40:41Z</time>
      </trkpt>
      <trkpt lat="42.70331" lon="1.64267">
        <ele>1595.3</ele>
        <time>2020-02-09T09:40:42Z</time>
      </trkpt>
      <trkpt lat="42.70334" lon="1.64268">
        <ele>1595.1</ele>
        <time>2020-02-09T09:40:43Z</time>
      </trkpt>
      <trkpt lat="42.70337" lon="1.64271">
        <ele>1594.5</ele>
        <time>2020-02-09T09:40:48Z</time>
      </trkpt>
      <trkpt lat="42.70337" lon="1.64271">
        <ele>1594.5</ele>
        <time>2020-02-09T09:40:51Z</time>
      </trkpt>
      <trkpt lat="42.7034" lon="1.64275">
        <ele>1594.3</ele>
        <time>2020-02-09T09:40:52Z</time>
      </trkpt>
      <trkpt lat="42.70344" lon="1.64277">
        <ele>1594.2</ele>
        <time>2020-02-09T09:40:56Z</time>
      </trkpt>
      <trkpt lat="42.70347" lon="1.6428">
        <ele>1594.2</ele>
        <time>2020-02-09T09:41:01Z</time>
      </trkpt>
      <trkpt lat="42.7035" lon="1.64284">
        <ele>1593.8</ele>
        <time>2020-02-09T09:41:05Z</time>
      </trkpt>
      <trkpt lat="42.70351" lon="1.64285">
        <ele>1593.9</ele>
        <time>2020-02-09T09:41:07Z</time>
      </trkpt>
      <trkpt lat="42.70352" lon="1.64286">
        <ele>1593.9</ele>
        <time>2020-02-09T09:41:10Z</time>
      </trkpt>
      <trkpt lat="42.70353" lon="1.64287">
        <ele>1593.9</ele>
        <time>2020-02-09T09:41:11Z</time>
      </trkpt>
      <trkpt lat="42.70355" lon="1.6429">
        <ele>1594</ele>
        <time>2020-02-09T09:41:13Z</time>
      </trkpt>
      <trkpt lat="42.70356" lon="1.64292">
        <ele>1594</ele>
        <time>2020-02-09T09:41:16Z</time>
      </trkpt>
      <trkpt lat="42.70357" lon="1.64294">
        <ele>1594.5</ele>
        <time>2020-02-09T09:41:20Z</time>
      </trkpt>
      <trkpt lat="42.70358" lon="1.64295">
        <ele>1594.1</ele>
        <time>2020-02-09T09:41:21Z</time>
      </trkpt>
      <trkpt lat="42.70361" lon="1.64302">
        <ele>1594.6</ele>
        <time>2020-02-09T09:41:28Z</time>
      </trkpt>
      <trkpt lat="42.70362" lon="1.64305">
        <ele>1594.6</ele>
        <time>2020-02-09T09:41:29Z</time>
      </trkpt>
      <trkpt lat="42.70362" lon="1.64305">
        <ele>1594.6</ele>
        <time>2020-02-09T09:41:31Z</time>
      </trkpt>
      <trkpt lat="42.70362" lon="1.64308">
        <ele>1595</ele>
        <time>2020-02-09T09:41:32Z</time>
      </trkpt>
      <trkpt lat="42.70362" lon="1.64311">
        <ele>1595.5</ele>
        <time>2020-02-09T09:41:34Z</time>
      </trkpt>
      <trkpt lat="42.70363" lon="1.64314">
        <ele>1595.5</ele>
        <time>2020-02-09T09:41:37Z</time>
      </trkpt>
      <trkpt lat="42.70363" lon="1.64314">
        <ele>1595.5</ele>
        <time>2020-02-09T09:41:41Z</time>
      </trkpt>
      <trkpt lat="42.70362" lon="1.64318">
        <ele>1595.9</ele>
        <time>2020-02-09T09:41:44Z</time>
      </trkpt>
      <trkpt lat="42.70362" lon="1.64318">
        <ele>1595.9</ele>
        <time>2020-02-09T09:41:51Z</time>
      </trkpt>
      <trkpt lat="42.70359" lon="1.64324">
        <ele>1597.5</ele>
        <time>2020-02-09T09:41:57Z</time>
      </trkpt>
      <trkpt lat="42.70359" lon="1.64324">
        <ele>1597.5</ele>
        <time>2020-02-09T09:42:01Z</time>
      </trkpt>
      <trkpt lat="42.70358" lon="1.64326">
        <ele>1597.5</ele>
        <time>2020-02-09T09:42:06Z</time>
      </trkpt>
      <trkpt lat="42.70357" lon="1.64328">
        <ele>1598.5</ele>
        <time>2020-02-09T09:42:11Z</time>
      </trkpt>
      <trkpt lat="42.70355" lon="1.6433">
        <ele>1598.5</ele>
        <time>2020-02-09T09:42:21Z</time>
      </trkpt>
      <trkpt lat="42.70355" lon="1.64333">
        <ele>1599.2</ele>
        <time>2020-02-09T09:42:25Z</time>
      </trkpt>
      <trkpt lat="42.70354" lon="1.64338">
        <ele>1599.8</ele>
        <time>2020-02-09T09:42:30Z</time>
      </trkpt>
      <trkpt lat="42.70354" lon="1.64338">
        <ele>1599.8</ele>
        <time>2020-02-09T09:42:31Z</time>
      </trkpt>
      <trkpt lat="42.70353" lon="1.6434">
        <ele>1600.2</ele>
        <time>2020-02-09T09:42:32Z</time>
      </trkpt>
      <trkpt lat="42.70351" lon="1.64341">
        <ele>1601.3</ele>
        <time>2020-02-09T09:42:36Z</time>
      </trkpt>
      <trkpt lat="42.70351" lon="1.64341">
        <ele>1601.3</ele>
        <time>2020-02-09T09:42:41Z</time>
      </trkpt>
      <trkpt lat="42.70349" lon="1.64343">
        <ele>1601.3</ele>
        <time>2020-02-09T09:42:44Z</time>
      </trkpt>
      <trkpt lat="42.70348" lon="1.64346">
        <ele>1601.9</ele>
        <time>2020-02-09T09:42:47Z</time>
      </trkpt>
      <trkpt lat="42.70348" lon="1.64346">
        <ele>1601.9</ele>
        <time>2020-02-09T09:42:51Z</time>
      </trkpt>
      <trkpt lat="42.70347" lon="1.64348">
        <ele>1602.4</ele>
        <time>2020-02-09T09:42:53Z</time>
      </trkpt>
      <trkpt lat="42.70346" lon="1.6435">
        <ele>1603.1</ele>
        <time>2020-02-09T09:43:00Z</time>
      </trkpt>
      <trkpt lat="42.70346" lon="1.6435">
        <ele>1603.1</ele>
        <time>2020-02-09T09:43:01Z</time>
      </trkpt>
      <trkpt lat="42.70345" lon="1.64355">
        <ele>1603.8</ele>
        <time>2020-02-09T09:43:02Z</time>
      </trkpt>
      <trkpt lat="42.70344" lon="1.64357">
        <ele>1603.8</ele>
        <time>2020-02-09T09:43:06Z</time>
      </trkpt>
      <trkpt lat="42.70344" lon="1.64358">
        <ele>1605.1</ele>
        <time>2020-02-09T09:43:10Z</time>
      </trkpt>
      <trkpt lat="42.70343" lon="1.6436">
        <ele>1605.1</ele>
        <time>2020-02-09T09:43:11Z</time>
      </trkpt>
      <trkpt lat="42.70339" lon="1.64363">
        <ele>1606.6</ele>
        <time>2020-02-09T09:43:19Z</time>
      </trkpt>
      <trkpt lat="42.70339" lon="1.64363">
        <ele>1606.6</ele>
        <time>2020-02-09T09:43:21Z</time>
      </trkpt>
      <trkpt lat="42.70337" lon="1.64366">
        <ele>1607.3</ele>
        <time>2020-02-09T09:43:22Z</time>
      </trkpt>
      <trkpt lat="42.70337" lon="1.64366">
        <ele>1607.3</ele>
        <time>2020-02-09T09:43:31Z</time>
      </trkpt>
      <trkpt lat="42.70326" lon="1.6437">
        <ele>1610.3</ele>
        <time>2020-02-09T09:43:35Z</time>
      </trkpt>
      <trkpt lat="42.70326" lon="1.6437">
        <ele>1610.3</ele>
        <time>2020-02-09T09:43:41Z</time>
      </trkpt>
      <trkpt lat="42.70327" lon="1.64368">
        <ele>1610.3</ele>
        <time>2020-02-09T09:43:42Z</time>
      </trkpt>
      <trkpt lat="42.70326" lon="1.64371">
        <ele>1611.2</ele>
        <time>2020-02-09T09:43:45Z</time>
      </trkpt>
      <trkpt lat="42.70324" lon="1.64373">
        <ele>1611.9</ele>
        <time>2020-02-09T09:43:49Z</time>
      </trkpt>
      <trkpt lat="42.70324" lon="1.64373">
        <ele>1611.9</ele>
        <time>2020-02-09T09:43:51Z</time>
      </trkpt>
      <trkpt lat="42.70323" lon="1.64375">
        <ele>1612.8</ele>
        <time>2020-02-09T09:43:53Z</time>
      </trkpt>
      <trkpt lat="42.70321" lon="1.64378">
        <ele>1613.5</ele>
        <time>2020-02-09T09:43:57Z</time>
      </trkpt>
      <trkpt lat="42.70321" lon="1.64378">
        <ele>1613.5</ele>
        <time>2020-02-09T09:44:01Z</time>
      </trkpt>
      <trkpt lat="42.70319" lon="1.64379">
        <ele>1614.5</ele>
        <time>2020-02-09T09:44:06Z</time>
      </trkpt>
      <trkpt lat="42.70319" lon="1.64379">
        <ele>1614.5</ele>
        <time>2020-02-09T09:44:11Z</time>
      </trkpt>
      <trkpt lat="42.70317" lon="1.64383">
        <ele>1616.2</ele>
        <time>2020-02-09T09:44:13Z</time>
      </trkpt>
      <trkpt lat="42.70317" lon="1.64383">
        <ele>1616.2</ele>
        <time>2020-02-09T09:44:21Z</time>
      </trkpt>
      <trkpt lat="42.70316" lon="1.64388">
        <ele>1618</ele>
        <time>2020-02-09T09:44:23Z</time>
      </trkpt>
      <trkpt lat="42.70314" lon="1.6439">
        <ele>1618</ele>
        <time>2020-02-09T09:44:25Z</time>
      </trkpt>
      <trkpt lat="42.70312" lon="1.64391">
        <ele>1618.8</ele>
        <time>2020-02-09T09:44:31Z</time>
      </trkpt>
      <trkpt lat="42.70312" lon="1.64391">
        <ele>1618.8</ele>
        <time>2020-02-09T09:44:41Z</time>
      </trkpt>
      <trkpt lat="42.7031" lon="1.64395">
        <ele>1619.7</ele>
        <time>2020-02-09T09:44:42Z</time>
      </trkpt>
      <trkpt lat="42.7031" lon="1.64395">
        <ele>1619.7</ele>
        <time>2020-02-09T09:44:51Z</time>
      </trkpt>
      <trkpt lat="42.7031" lon="1.64395">
        <ele>1619.7</ele>
        <time>2020-02-09T09:45:01Z</time>
      </trkpt>
      <trkpt lat="42.70308" lon="1.64396">
        <ele>1621.5</ele>
        <time>2020-02-09T09:45:06Z</time>
      </trkpt>
      <trkpt lat="42.70308" lon="1.64396">
        <ele>1621.5</ele>
        <time>2020-02-09T09:45:11Z</time>
      </trkpt>
      <trkpt lat="42.7031" lon="1.64398">
        <ele>1620.6</ele>
        <time>2020-02-09T09:45:12Z</time>
      </trkpt>
      <trkpt lat="42.7031" lon="1.64398">
        <ele>1620.6</ele>
        <time>2020-02-09T09:45:21Z</time>
      </trkpt>
      <trkpt lat="42.7031" lon="1.64398">
        <ele>1620.6</ele>
        <time>2020-02-09T09:45:31Z</time>
      </trkpt>
      <trkpt lat="42.70308" lon="1.64398">
        <ele>1621.5</ele>
        <time>2020-02-09T09:45:32Z</time>
      </trkpt>
      <trkpt lat="42.70308" lon="1.64398">
        <ele>1621.5</ele>
        <time>2020-02-09T09:45:41Z</time>
      </trkpt>
      <trkpt lat="42.70304" lon="1.64398">
        <ele>1622.4</ele>
        <time>2020-02-09T09:45:42Z</time>
      </trkpt>
      <trkpt lat="42.70304" lon="1.64398">
        <ele>1622.4</ele>
        <time>2020-02-09T09:45:51Z</time>
      </trkpt>
      <trkpt lat="42.70304" lon="1.64398">
        <ele>1622.4</ele>
        <time>2020-02-09T09:46:01Z</time>
      </trkpt>
      <trkpt lat="42.70304" lon="1.64398">
        <ele>1622.4</ele>
        <time>2020-02-09T09:46:11Z</time>
      </trkpt>
      <trkpt lat="42.70304" lon="1.64398">
        <ele>1622.4</ele>
        <time>2020-02-09T09:46:21Z</time>
      </trkpt>
      <trkpt lat="42.7031" lon="1.64393">
        <ele>1619.7</ele>
        <time>2020-02-09T09:46:27Z</time>
      </trkpt>
      <trkpt lat="42.7031" lon="1.64393">
        <ele>1619.7</ele>
        <time>2020-02-09T09:46:31Z</time>
      </trkpt>
      <trkpt lat="42.7031" lon="1.64393">
        <ele>1619.7</ele>
        <time>2020-02-09T09:46:41Z</time>
      </trkpt>
      <trkpt lat="42.7031" lon="1.64393">
        <ele>1619.7</ele>
        <time>2020-02-09T09:46:51Z</time>
      </trkpt>
      <trkpt lat="42.7031" lon="1.64393">
        <ele>1619.7</ele>
        <time>2020-02-09T09:47:01Z</time>
      </trkpt>
      <trkpt lat="42.70313" lon="1.64392">
        <ele>1618.9</ele>
        <time>2020-02-09T09:47:02Z</time>
      </trkpt>
      <trkpt lat="42.70313" lon="1.64392">
        <ele>1618.9</ele>
        <time>2020-02-09T09:47:11Z</time>
      </trkpt>
      <trkpt lat="42.70313" lon="1.64392">
        <ele>1618.9</ele>
        <time>2020-02-09T09:47:21Z</time>
      </trkpt>
      <trkpt lat="42.70312" lon="1.64395">
        <ele>1619.7</ele>
        <time>2020-02-09T09:47:30Z</time>
      </trkpt>
      <trkpt lat="42.70312" lon="1.64395">
        <ele>1619.7</ele>
        <time>2020-02-09T09:47:31Z</time>
      </trkpt>
      <trkpt lat="42.70312" lon="1.64395">
        <ele>1619.7</ele>
        <time>2020-02-09T09:47:41Z</time>
      </trkpt>
      <trkpt lat="42.70312" lon="1.64395">
        <ele>1619.7</ele>
        <time>2020-02-09T09:47:51Z</time>
      </trkpt>
      <trkpt lat="42.70312" lon="1.64395">
        <ele>1619.7</ele>
        <time>2020-02-09T09:48:01Z</time>
      </trkpt>
      <trkpt lat="42.70312" lon="1.64395">
        <ele>1619.7</ele>
        <time>2020-02-09T09:48:11Z</time>
      </trkpt>
      <trkpt lat="42.70312" lon="1.64395">
        <ele>1619.7</ele>
        <time>2020-02-09T09:48:21Z</time>
      </trkpt>
      <trkpt lat="42.70312" lon="1.64395">
        <ele>1619.7</ele>
        <time>2020-02-09T09:48:31Z</time>
      </trkpt>
      <trkpt lat="42.70315" lon="1.64396">
        <ele>1619.8</ele>
        <time>2020-02-09T09:48:36Z</time>
      </trkpt>
      <trkpt lat="42.70315" lon="1.64396">
        <ele>1619.8</ele>
        <time>2020-02-09T09:48:41Z</time>
      </trkpt>
      <trkpt lat="42.70308" lon="1.64394">
        <ele>1620.6</ele>
        <time>2020-02-09T09:48:51Z</time>
      </trkpt>
      <trkpt lat="42.70306" lon="1.64394">
        <ele>1621.5</ele>
        <time>2020-02-09T09:48:54Z</time>
      </trkpt>
      <trkpt lat="42.70304" lon="1.64396">
        <ele>1621.5</ele>
        <time>2020-02-09T09:48:59Z</time>
      </trkpt>
      <trkpt lat="42.70304" lon="1.64396">
        <ele>1621.5</ele>
        <time>2020-02-09T09:49:01Z</time>
      </trkpt>
      <trkpt lat="42.70302" lon="1.64396">
        <ele>1623.4</ele>
        <time>2020-02-09T09:49:05Z</time>
      </trkpt>
      <trkpt lat="42.70302" lon="1.64396">
        <ele>1623.4</ele>
        <time>2020-02-09T09:49:11Z</time>
      </trkpt>
      <trkpt lat="42.70297" lon="1.64402">
        <ele>1625.3</ele>
        <time>2020-02-09T09:49:16Z</time>
      </trkpt>
      <trkpt lat="42.70297" lon="1.64402">
        <ele>1625.3</ele>
        <time>2020-02-09T09:49:21Z</time>
      </trkpt>
      <trkpt lat="42.70296" lon="1.64407">
        <ele>1627.2</ele>
        <time>2020-02-09T09:49:24Z</time>
      </trkpt>
      <trkpt lat="42.70296" lon="1.6441">
        <ele>1628.1</ele>
        <time>2020-02-09T09:49:31Z</time>
      </trkpt>
      <trkpt lat="42.70293" lon="1.64411">
        <ele>1629</ele>
        <time>2020-02-09T09:49:38Z</time>
      </trkpt>
      <trkpt lat="42.70293" lon="1.64411">
        <ele>1629</ele>
        <time>2020-02-09T09:49:41Z</time>
      </trkpt>
      <trkpt lat="42.70293" lon="1.64414">
        <ele>1630</ele>
        <time>2020-02-09T09:49:43Z</time>
      </trkpt>
      <trkpt lat="42.70292" lon="1.64416">
        <ele>1630</ele>
        <time>2020-02-09T09:49:47Z</time>
      </trkpt>
      <trkpt lat="42.70292" lon="1.64416">
        <ele>1630</ele>
        <time>2020-02-09T09:49:51Z</time>
      </trkpt>
      <trkpt lat="42.7029" lon="1.64418">
        <ele>1631.9</ele>
        <time>2020-02-09T09:49:55Z</time>
      </trkpt>
      <trkpt lat="42.7029" lon="1.64418">
        <ele>1631.9</ele>
        <time>2020-02-09T09:50:01Z</time>
      </trkpt>
      <trkpt lat="42.70286" lon="1.64424">
        <ele>1633.7</ele>
        <time>2020-02-09T09:50:08Z</time>
      </trkpt>
      <trkpt lat="42.70286" lon="1.64424">
        <ele>1633.7</ele>
        <time>2020-02-09T09:50:11Z</time>
      </trkpt>
      <trkpt lat="42.70286" lon="1.64424">
        <ele>1633.7</ele>
        <time>2020-02-09T09:50:21Z</time>
      </trkpt>
      <trkpt lat="42.70281" lon="1.64433">
        <ele>1637.4</ele>
        <time>2020-02-09T09:50:30Z</time>
      </trkpt>
      <trkpt lat="42.70281" lon="1.64433">
        <ele>1637.4</ele>
        <time>2020-02-09T09:50:31Z</time>
      </trkpt>
      <trkpt lat="42.70281" lon="1.64433">
        <ele>1637.4</ele>
        <time>2020-02-09T09:50:41Z</time>
      </trkpt>
      <trkpt lat="42.70284" lon="1.64446">
        <ele>1638.8</ele>
        <time>2020-02-09T09:50:48Z</time>
      </trkpt>
      <trkpt lat="42.70284" lon="1.64446">
        <ele>1638.8</ele>
        <time>2020-02-09T09:50:51Z</time>
      </trkpt>
      <trkpt lat="42.70284" lon="1.64446">
        <ele>1638.8</ele>
        <time>2020-02-09T09:51:01Z</time>
      </trkpt>
      <trkpt lat="42.70282" lon="1.64458">
        <ele>1641.2</ele>
        <time>2020-02-09T09:51:08Z</time>
      </trkpt>
      <trkpt lat="42.70282" lon="1.64458">
        <ele>1641.2</ele>
        <time>2020-02-09T09:51:11Z</time>
      </trkpt>
      <trkpt lat="42.70282" lon="1.64458">
        <ele>1641.2</ele>
        <time>2020-02-09T09:51:21Z</time>
      </trkpt>
      <trkpt lat="42.70282" lon="1.64458">
        <ele>1641.2</ele>
        <time>2020-02-09T09:51:31Z</time>
      </trkpt>
      <trkpt lat="42.70274" lon="1.64479">
        <ele>1648.4</ele>
        <time>2020-02-09T09:51:36Z</time>
      </trkpt>
      <trkpt lat="42.70274" lon="1.64479">
        <ele>1648.4</ele>
        <time>2020-02-09T09:51:41Z</time>
      </trkpt>
      <trkpt lat="42.70283" lon="1.64481">
        <ele>1645.5</ele>
        <time>2020-02-09T09:51:50Z</time>
      </trkpt>
      <trkpt lat="42.70283" lon="1.64481">
        <ele>1645.5</ele>
        <time>2020-02-09T09:51:51Z</time>
      </trkpt>
      <trkpt lat="42.70274" lon="1.64485">
        <ele>1649.1</ele>
        <time>2020-02-09T09:51:55Z</time>
      </trkpt>
      <trkpt lat="42.70274" lon="1.64485">
        <ele>1649.1</ele>
        <time>2020-02-09T09:52:01Z</time>
      </trkpt>
      <trkpt lat="42.70274" lon="1.64485">
        <ele>1649.1</ele>
        <time>2020-02-09T09:52:11Z</time>
      </trkpt>
      <trkpt lat="42.7026" lon="1.64487">
        <ele>1653.4</ele>
        <time>2020-02-09T09:52:18Z</time>
      </trkpt>
      <trkpt lat="42.7026" lon="1.64487">
        <ele>1653.4</ele>
        <time>2020-02-09T09:52:21Z</time>
      </trkpt>
      <trkpt lat="42.7026" lon="1.64487">
        <ele>1653.4</ele>
        <time>2020-02-09T09:52:31Z</time>
      </trkpt>
      <trkpt lat="42.70259" lon="1.645">
        <ele>1655.4</ele>
        <time>2020-02-09T09:52:35Z</time>
      </trkpt>
      <trkpt lat="42.70259" lon="1.645">
        <ele>1655.4</ele>
        <time>2020-02-09T09:52:41Z</time>
      </trkpt>
      <trkpt lat="42.70259" lon="1.645">
        <ele>1655.4</ele>
        <time>2020-02-09T09:52:51Z</time>
      </trkpt>
      <trkpt lat="42.70257" lon="1.64512">
        <ele>1658.4</ele>
        <time>2020-02-09T09:52:56Z</time>
      </trkpt>
      <trkpt lat="42.70257" lon="1.64512">
        <ele>1658.4</ele>
        <time>2020-02-09T09:53:01Z</time>
      </trkpt>
      <trkpt lat="42.70257" lon="1.64512">
        <ele>1658.4</ele>
        <time>2020-02-09T09:53:11Z</time>
      </trkpt>
      <trkpt lat="42.70259" lon="1.64514">
        <ele>1658.4</ele>
        <time>2020-02-09T09:53:12Z</time>
      </trkpt>
      <trkpt lat="42.70259" lon="1.64514">
        <ele>1658.4</ele>
        <time>2020-02-09T09:53:21Z</time>
      </trkpt>
      <trkpt lat="42.70259" lon="1.64514">
        <ele>1658.4</ele>
        <time>2020-02-09T09:53:31Z</time>
      </trkpt>
      <trkpt lat="42.70259" lon="1.64514">
        <ele>1658.4</ele>
        <time>2020-02-09T09:53:41Z</time>
      </trkpt>
      <trkpt lat="42.70263" lon="1.64526">
        <ele>1659.3</ele>
        <time>2020-02-09T09:53:46Z</time>
      </trkpt>
      <trkpt lat="42.70263" lon="1.64526">
        <ele>1659.3</ele>
        <time>2020-02-09T09:53:51Z</time>
      </trkpt>
      <trkpt lat="42.70263" lon="1.64529">
        <ele>1659.3</ele>
        <time>2020-02-09T09:53:55Z</time>
      </trkpt>
      <trkpt lat="42.70263" lon="1.64529">
        <ele>1659.3</ele>
        <time>2020-02-09T09:54:01Z</time>
      </trkpt>
      <trkpt lat="42.70263" lon="1.64529">
        <ele>1659.3</ele>
        <time>2020-02-09T09:54:11Z</time>
      </trkpt>
      <trkpt lat="42.70254" lon="1.64532">
        <ele>1661.8</ele>
        <time>2020-02-09T09:54:13Z</time>
      </trkpt>
      <trkpt lat="42.70253" lon="1.64534">
        <ele>1663.2</ele>
        <time>2020-02-09T09:54:19Z</time>
      </trkpt>
      <trkpt lat="42.70253" lon="1.64534">
        <ele>1663.2</ele>
        <time>2020-02-09T09:54:21Z</time>
      </trkpt>
      <trkpt lat="42.70253" lon="1.64534">
        <ele>1663.2</ele>
        <time>2020-02-09T09:54:31Z</time>
      </trkpt>
      <trkpt lat="42.70256" lon="1.64537">
        <ele>1661.8</ele>
        <time>2020-02-09T09:54:39Z</time>
      </trkpt>
      <trkpt lat="42.70256" lon="1.64537">
        <ele>1661.8</ele>
        <time>2020-02-09T09:54:41Z</time>
      </trkpt>
      <trkpt lat="42.70254" lon="1.64542">
        <ele>1663.8</ele>
        <time>2020-02-09T09:54:50Z</time>
      </trkpt>
      <trkpt lat="42.70254" lon="1.64542">
        <ele>1663.8</ele>
        <time>2020-02-09T09:54:51Z</time>
      </trkpt>
      <trkpt lat="42.70251" lon="1.64544">
        <ele>1664.4</ele>
        <time>2020-02-09T09:54:58Z</time>
      </trkpt>
      <trkpt lat="42.70251" lon="1.64544">
        <ele>1664.4</ele>
        <time>2020-02-09T09:55:01Z</time>
      </trkpt>
      <trkpt lat="42.70249" lon="1.64547">
        <ele>1665.7</ele>
        <time>2020-02-09T09:55:06Z</time>
      </trkpt>
      <trkpt lat="42.70249" lon="1.64547">
        <ele>1665.7</ele>
        <time>2020-02-09T09:55:11Z</time>
      </trkpt>
      <trkpt lat="42.70249" lon="1.64547">
        <ele>1665.7</ele>
        <time>2020-02-09T09:55:21Z</time>
      </trkpt>
      <trkpt lat="42.7024" lon="1.6455">
        <ele>1667.4</ele>
        <time>2020-02-09T09:55:29Z</time>
      </trkpt>
      <trkpt lat="42.7024" lon="1.6455">
        <ele>1667.4</ele>
        <time>2020-02-09T09:55:31Z</time>
      </trkpt>
      <trkpt lat="42.7024" lon="1.6455">
        <ele>1667.4</ele>
        <time>2020-02-09T09:55:41Z</time>
      </trkpt>
      <trkpt lat="42.7024" lon="1.6455">
        <ele>1667.4</ele>
        <time>2020-02-09T09:55:51Z</time>
      </trkpt>
      <trkpt lat="42.7024" lon="1.6455">
        <ele>1667.4</ele>
        <time>2020-02-09T09:56:01Z</time>
      </trkpt>
      <trkpt lat="42.7024" lon="1.6455">
        <ele>1667.4</ele>
        <time>2020-02-09T09:56:11Z</time>
      </trkpt>
      <trkpt lat="42.70234" lon="1.64556">
        <ele>1669.6</ele>
        <time>2020-02-09T09:56:16Z</time>
      </trkpt>
      <trkpt lat="42.70234" lon="1.64556">
        <ele>1669.6</ele>
        <time>2020-02-09T09:56:21Z</time>
      </trkpt>
      <trkpt lat="42.70233" lon="1.64558">
        <ele>1669.6</ele>
        <time>2020-02-09T09:56:25Z</time>
      </trkpt>
      <trkpt lat="42.70231" lon="1.64559">
        <ele>1670.2</ele>
        <time>2020-02-09T09:56:31Z</time>
      </trkpt>
      <trkpt lat="42.70228" lon="1.6456">
        <ele>1670.8</ele>
        <time>2020-02-09T09:56:41Z</time>
      </trkpt>
      <trkpt lat="42.70226" lon="1.6456">
        <ele>1671.4</ele>
        <time>2020-02-09T09:56:49Z</time>
      </trkpt>
      <trkpt lat="42.70226" lon="1.6456">
        <ele>1671.4</ele>
        <time>2020-02-09T09:56:51Z</time>
      </trkpt>
      <trkpt lat="42.70221" lon="1.64558">
        <ele>1671.6</ele>
        <time>2020-02-09T09:56:58Z</time>
      </trkpt>
      <trkpt lat="42.70221" lon="1.64558">
        <ele>1671.6</ele>
        <time>2020-02-09T09:57:01Z</time>
      </trkpt>
      <trkpt lat="42.7022" lon="1.6456">
        <ele>1672.8</ele>
        <time>2020-02-09T09:57:03Z</time>
      </trkpt>
      <trkpt lat="42.7022" lon="1.6456">
        <ele>1672.8</ele>
        <time>2020-02-09T09:57:11Z</time>
      </trkpt>
      <trkpt lat="42.70216" lon="1.64563">
        <ele>1673.4</ele>
        <time>2020-02-09T09:57:14Z</time>
      </trkpt>
      <trkpt lat="42.70216" lon="1.64563">
        <ele>1673.4</ele>
        <time>2020-02-09T09:57:21Z</time>
      </trkpt>
      <trkpt lat="42.70216" lon="1.64563">
        <ele>1673.4</ele>
        <time>2020-02-09T09:57:31Z</time>
      </trkpt>
      <trkpt lat="42.70212" lon="1.64566">
        <ele>1674.9</ele>
        <time>2020-02-09T09:57:36Z</time>
      </trkpt>
      <trkpt lat="42.70212" lon="1.64566">
        <ele>1674.9</ele>
        <time>2020-02-09T09:57:41Z</time>
      </trkpt>
      <trkpt lat="42.7021" lon="1.64567">
        <ele>1674.9</ele>
        <time>2020-02-09T09:57:45Z</time>
      </trkpt>
      <trkpt lat="42.70207" lon="1.64569">
        <ele>1675.7</ele>
        <time>2020-02-09T09:57:51Z</time>
      </trkpt>
      <trkpt lat="42.70209" lon="1.64572">
        <ele>1675.7</ele>
        <time>2020-02-09T09:58:01Z</time>
      </trkpt>
      <trkpt lat="42.70208" lon="1.64574">
        <ele>1675.9</ele>
        <time>2020-02-09T09:58:07Z</time>
      </trkpt>
      <trkpt lat="42.70208" lon="1.64574">
        <ele>1675.9</ele>
        <time>2020-02-09T09:58:11Z</time>
      </trkpt>
      <trkpt lat="42.70207" lon="1.64577">
        <ele>1676.1</ele>
        <time>2020-02-09T09:58:12Z</time>
      </trkpt>
      <trkpt lat="42.70207" lon="1.6458">
        <ele>1676.1</ele>
        <time>2020-02-09T09:58:15Z</time>
      </trkpt>
      <trkpt lat="42.70205" lon="1.64584">
        <ele>1676.7</ele>
        <time>2020-02-09T09:58:20Z</time>
      </trkpt>
      <trkpt lat="42.70205" lon="1.64584">
        <ele>1676.7</ele>
        <time>2020-02-09T09:58:21Z</time>
      </trkpt>
      <trkpt lat="42.70204" lon="1.64587">
        <ele>1676.9</ele>
        <time>2020-02-09T09:58:23Z</time>
      </trkpt>
      <trkpt lat="42.70204" lon="1.64589">
        <ele>1677.1</ele>
        <time>2020-02-09T09:58:27Z</time>
      </trkpt>
      <trkpt lat="42.70204" lon="1.64593">
        <ele>1677.1</ele>
        <time>2020-02-09T09:58:31Z</time>
      </trkpt>
      <trkpt lat="42.70204" lon="1.64593">
        <ele>1677.1</ele>
        <time>2020-02-09T09:58:41Z</time>
      </trkpt>
      <trkpt lat="42.70194" lon="1.64596">
        <ele>1678.3</ele>
        <time>2020-02-09T09:58:46Z</time>
      </trkpt>
      <trkpt lat="42.70194" lon="1.64596">
        <ele>1678.3</ele>
        <time>2020-02-09T09:58:51Z</time>
      </trkpt>
      <trkpt lat="42.70197" lon="1.64599">
        <ele>1678</ele>
        <time>2020-02-09T09:58:55Z</time>
      </trkpt>
      <trkpt lat="42.70197" lon="1.646">
        <ele>1678</ele>
        <time>2020-02-09T09:59:01Z</time>
      </trkpt>
      <trkpt lat="42.70198" lon="1.64602">
        <ele>1678.2</ele>
        <time>2020-02-09T09:59:05Z</time>
      </trkpt>
      <trkpt lat="42.70199" lon="1.64604">
        <ele>1678.2</ele>
        <time>2020-02-09T09:59:06Z</time>
      </trkpt>
      <trkpt lat="42.702" lon="1.64606">
        <ele>1677.9</ele>
        <time>2020-02-09T09:59:10Z</time>
      </trkpt>
      <trkpt lat="42.702" lon="1.64607">
        <ele>1678.1</ele>
        <time>2020-02-09T09:59:11Z</time>
      </trkpt>
      <trkpt lat="42.70202" lon="1.64612">
        <ele>1678.1</ele>
        <time>2020-02-09T09:59:13Z</time>
      </trkpt>
      <trkpt lat="42.70203" lon="1.64614">
        <ele>1678.1</ele>
        <time>2020-02-09T09:59:16Z</time>
      </trkpt>
      <trkpt lat="42.70204" lon="1.64616">
        <ele>1678.3</ele>
        <time>2020-02-09T09:59:20Z</time>
      </trkpt>
      <trkpt lat="42.70205" lon="1.64617">
        <ele>1678.3</ele>
        <time>2020-02-09T09:59:21Z</time>
      </trkpt>
      <trkpt lat="42.70208" lon="1.64621">
        <ele>1678.4</ele>
        <time>2020-02-09T09:59:24Z</time>
      </trkpt>
      <trkpt lat="42.70209" lon="1.64623">
        <ele>1678.3</ele>
        <time>2020-02-09T09:59:27Z</time>
      </trkpt>
      <trkpt lat="42.7021" lon="1.64624">
        <ele>1678.6</ele>
        <time>2020-02-09T09:59:30Z</time>
      </trkpt>
      <trkpt lat="42.70211" lon="1.64625">
        <ele>1678.6</ele>
        <time>2020-02-09T09:59:31Z</time>
      </trkpt>
      <trkpt lat="42.70213" lon="1.64628">
        <ele>1678.8</ele>
        <time>2020-02-09T09:59:34Z</time>
      </trkpt>
      <trkpt lat="42.70214" lon="1.64632">
        <ele>1679</ele>
        <time>2020-02-09T09:59:38Z</time>
      </trkpt>
      <trkpt lat="42.70214" lon="1.64632">
        <ele>1679</ele>
        <time>2020-02-09T09:59:41Z</time>
      </trkpt>
      <trkpt lat="42.70222" lon="1.64641">
        <ele>1679.9</ele>
        <time>2020-02-09T09:59:50Z</time>
      </trkpt>
      <trkpt lat="42.70222" lon="1.64641">
        <ele>1679.9</ele>
        <time>2020-02-09T09:59:51Z</time>
      </trkpt>
      <trkpt lat="42.70222" lon="1.64641">
        <ele>1679.9</ele>
        <time>2020-02-09T10:00:01Z</time>
      </trkpt>
      <trkpt lat="42.70227" lon="1.64651">
        <ele>1680.5</ele>
        <time>2020-02-09T10:00:03Z</time>
      </trkpt>
      <trkpt lat="42.70227" lon="1.64651">
        <ele>1680.5</ele>
        <time>2020-02-09T10:00:11Z</time>
      </trkpt>
      <trkpt lat="42.70234" lon="1.64658">
        <ele>1681.2</ele>
        <time>2020-02-09T10:00:12Z</time>
      </trkpt>
      <trkpt lat="42.70241" lon="1.64668">
        <ele>1681.5</ele>
        <time>2020-02-09T10:00:21Z</time>
      </trkpt>
      <trkpt lat="42.70241" lon="1.64668">
        <ele>1681.5</ele>
        <time>2020-02-09T10:00:31Z</time>
      </trkpt>
      <trkpt lat="42.70248" lon="1.64677">
        <ele>1682.2</ele>
        <time>2020-02-09T10:00:34Z</time>
      </trkpt>
      <trkpt lat="42.70248" lon="1.64677">
        <ele>1682.2</ele>
        <time>2020-02-09T10:00:41Z</time>
      </trkpt>
      <trkpt lat="42.70252" lon="1.64688">
        <ele>1683.5</ele>
        <time>2020-02-09T10:00:46Z</time>
      </trkpt>
      <trkpt lat="42.70252" lon="1.64688">
        <ele>1683.5</ele>
        <time>2020-02-09T10:00:51Z</time>
      </trkpt>
      <trkpt lat="42.70252" lon="1.64688">
        <ele>1683.5</ele>
        <time>2020-02-09T10:01:01Z</time>
      </trkpt>
      <trkpt lat="42.70259" lon="1.64686">
        <ele>1683.7</ele>
        <time>2020-02-09T10:01:07Z</time>
      </trkpt>
      <trkpt lat="42.70259" lon="1.64686">
        <ele>1683.7</ele>
        <time>2020-02-09T10:01:11Z</time>
      </trkpt>
      <trkpt lat="42.7026" lon="1.64689">
        <ele>1684.3</ele>
        <time>2020-02-09T10:01:17Z</time>
      </trkpt>
      <trkpt lat="42.7026" lon="1.64689">
        <ele>1684.3</ele>
        <time>2020-02-09T10:01:21Z</time>
      </trkpt>
      <trkpt lat="42.7026" lon="1.64691">
        <ele>1684.3</ele>
        <time>2020-02-09T10:01:22Z</time>
      </trkpt>
      <trkpt lat="42.7026" lon="1.64695">
        <ele>1684.8</ele>
        <time>2020-02-09T10:01:28Z</time>
      </trkpt>
      <trkpt lat="42.70261" lon="1.64697">
        <ele>1685.2</ele>
        <time>2020-02-09T10:01:31Z</time>
      </trkpt>
      <trkpt lat="42.70262" lon="1.647">
        <ele>1685.2</ele>
        <time>2020-02-09T10:01:34Z</time>
      </trkpt>
      <trkpt lat="42.70262" lon="1.647">
        <ele>1685.2</ele>
        <time>2020-02-09T10:01:41Z</time>
      </trkpt>
      <trkpt lat="42.70266" lon="1.6471">
        <ele>1686.6</ele>
        <time>2020-02-09T10:01:45Z</time>
      </trkpt>
      <trkpt lat="42.70266" lon="1.6471">
        <ele>1686.6</ele>
        <time>2020-02-09T10:01:51Z</time>
      </trkpt>
      <trkpt lat="42.70272" lon="1.6472">
        <ele>1687.4</ele>
        <time>2020-02-09T10:01:54Z</time>
      </trkpt>
      <trkpt lat="42.70272" lon="1.6472">
        <ele>1687.4</ele>
        <time>2020-02-09T10:02:01Z</time>
      </trkpt>
      <trkpt lat="42.70278" lon="1.6473">
        <ele>1688.1</ele>
        <time>2020-02-09T10:02:03Z</time>
      </trkpt>
      <trkpt lat="42.70278" lon="1.6473">
        <ele>1688.1</ele>
        <time>2020-02-09T10:02:11Z</time>
      </trkpt>
      <trkpt lat="42.70283" lon="1.6474">
        <ele>1689.2</ele>
        <time>2020-02-09T10:02:14Z</time>
      </trkpt>
      <trkpt lat="42.70283" lon="1.6474">
        <ele>1689.2</ele>
        <time>2020-02-09T10:02:21Z</time>
      </trkpt>
      <trkpt lat="42.70288" lon="1.64751">
        <ele>1690</ele>
        <time>2020-02-09T10:02:22Z</time>
      </trkpt>
      <trkpt lat="42.70288" lon="1.64751">
        <ele>1690</ele>
        <time>2020-02-09T10:02:31Z</time>
      </trkpt>
      <trkpt lat="42.70293" lon="1.64761">
        <ele>1690.7</ele>
        <time>2020-02-09T10:02:33Z</time>
      </trkpt>
      <trkpt lat="42.70293" lon="1.64761">
        <ele>1690.7</ele>
        <time>2020-02-09T10:02:41Z</time>
      </trkpt>
      <trkpt lat="42.70299" lon="1.64771">
        <ele>1691.5</ele>
        <time>2020-02-09T10:02:44Z</time>
      </trkpt>
      <trkpt lat="42.703" lon="1.64772">
        <ele>1691.8</ele>
        <time>2020-02-09T10:02:46Z</time>
      </trkpt>
      <trkpt lat="42.703" lon="1.64772">
        <ele>1691.8</ele>
        <time>2020-02-09T10:02:51Z</time>
      </trkpt>
      <trkpt lat="42.70307" lon="1.64782">
        <ele>1692.8</ele>
        <time>2020-02-09T10:02:57Z</time>
      </trkpt>
      <trkpt lat="42.70307" lon="1.64782">
        <ele>1692.8</ele>
        <time>2020-02-09T10:03:01Z</time>
      </trkpt>
      <trkpt lat="42.70315" lon="1.64798">
        <ele>1694.4</ele>
        <time>2020-02-09T10:03:10Z</time>
      </trkpt>
      <trkpt lat="42.70318" lon="1.64803">
        <ele>1694.9</ele>
        <time>2020-02-09T10:03:11Z</time>
      </trkpt>
      <trkpt lat="42.70321" lon="1.64808">
        <ele>1695.5</ele>
        <time>2020-02-09T10:03:21Z</time>
      </trkpt>
      <trkpt lat="42.70323" lon="1.64813">
        <ele>1695.8</ele>
        <time>2020-02-09T10:03:31Z</time>
      </trkpt>
      <trkpt lat="42.70326" lon="1.64818">
        <ele>1696.1</ele>
        <time>2020-02-09T10:03:40Z</time>
      </trkpt>
      <trkpt lat="42.70329" lon="1.64823">
        <ele>1696.4</ele>
        <time>2020-02-09T10:03:41Z</time>
      </trkpt>
      <trkpt lat="42.70333" lon="1.64835">
        <ele>1696.5</ele>
        <time>2020-02-09T10:03:50Z</time>
      </trkpt>
      <trkpt lat="42.70333" lon="1.64835">
        <ele>1696.5</ele>
        <time>2020-02-09T10:03:51Z</time>
      </trkpt>
      <trkpt lat="42.70333" lon="1.64835">
        <ele>1696.5</ele>
        <time>2020-02-09T10:04:01Z</time>
      </trkpt>
      <trkpt lat="42.70336" lon="1.64846">
        <ele>1696.5</ele>
        <time>2020-02-09T10:04:02Z</time>
      </trkpt>
      <trkpt lat="42.70336" lon="1.64846">
        <ele>1696.5</ele>
        <time>2020-02-09T10:04:11Z</time>
      </trkpt>
      <trkpt lat="42.70339" lon="1.64859">
        <ele>1696</ele>
        <time>2020-02-09T10:04:12Z</time>
      </trkpt>
      <trkpt lat="42.70339" lon="1.64859">
        <ele>1696</ele>
        <time>2020-02-09T10:04:21Z</time>
      </trkpt>
      <trkpt lat="42.70346" lon="1.64868">
        <ele>1695.4</ele>
        <time>2020-02-09T10:04:29Z</time>
      </trkpt>
      <trkpt lat="42.70349" lon="1.64868">
        <ele>1695.8</ele>
        <time>2020-02-09T10:04:31Z</time>
      </trkpt>
      <trkpt lat="42.70349" lon="1.64868">
        <ele>1695.8</ele>
        <time>2020-02-09T10:04:41Z</time>
      </trkpt>
      <trkpt lat="42.70354" lon="1.64871">
        <ele>1696.3</ele>
        <time>2020-02-09T10:04:43Z</time>
      </trkpt>
      <trkpt lat="42.70354" lon="1.64871">
        <ele>1696.3</ele>
        <time>2020-02-09T10:04:51Z</time>
      </trkpt>
      <trkpt lat="42.70363" lon="1.64869">
        <ele>1696.8</ele>
        <time>2020-02-09T10:05:01Z</time>
      </trkpt>
      <trkpt lat="42.70363" lon="1.64869">
        <ele>1696.8</ele>
        <time>2020-02-09T10:05:11Z</time>
      </trkpt>
      <trkpt lat="42.70373" lon="1.64872">
        <ele>1697.1</ele>
        <time>2020-02-09T10:05:14Z</time>
      </trkpt>
      <trkpt lat="42.70373" lon="1.64872">
        <ele>1697.1</ele>
        <time>2020-02-09T10:05:21Z</time>
      </trkpt>
      <trkpt lat="42.70382" lon="1.64872">
        <ele>1697.7</ele>
        <time>2020-02-09T10:05:25Z</time>
      </trkpt>
      <trkpt lat="42.70382" lon="1.64872">
        <ele>1697.7</ele>
        <time>2020-02-09T10:05:31Z</time>
      </trkpt>
      <trkpt lat="42.70391" lon="1.64876">
        <ele>1697.6</ele>
        <time>2020-02-09T10:05:39Z</time>
      </trkpt>
      <trkpt lat="42.70391" lon="1.64876">
        <ele>1697.6</ele>
        <time>2020-02-09T10:05:41Z</time>
      </trkpt>
      <trkpt lat="42.70391" lon="1.64876">
        <ele>1697.6</ele>
        <time>2020-02-09T10:05:51Z</time>
      </trkpt>
      <trkpt lat="42.704" lon="1.64879">
        <ele>1697.2</ele>
        <time>2020-02-09T10:05:52Z</time>
      </trkpt>
      <trkpt lat="42.704" lon="1.64879">
        <ele>1697.2</ele>
        <time>2020-02-09T10:06:01Z</time>
      </trkpt>
      <trkpt lat="42.70409" lon="1.6488">
        <ele>1696.2</ele>
        <time>2020-02-09T10:06:03Z</time>
      </trkpt>
      <trkpt lat="42.70409" lon="1.6488">
        <ele>1696.2</ele>
        <time>2020-02-09T10:06:11Z</time>
      </trkpt>
      <trkpt lat="42.70409" lon="1.6488">
        <ele>1696.2</ele>
        <time>2020-02-09T10:06:21Z</time>
      </trkpt>
      <trkpt lat="42.70417" lon="1.64889">
        <ele>1695</ele>
        <time>2020-02-09T10:06:24Z</time>
      </trkpt>
      <trkpt lat="42.7041" lon="1.64881">
        <ele>1696.2</ele>
        <time>2020-02-09T10:06:27Z</time>
      </trkpt>
      <trkpt lat="42.7041" lon="1.64881">
        <ele>1696.2</ele>
        <time>2020-02-09T10:06:31Z</time>
      </trkpt>
      <trkpt lat="42.70411" lon="1.64879">
        <ele>1695.7</ele>
        <time>2020-02-09T10:06:36Z</time>
      </trkpt>
      <trkpt lat="42.70411" lon="1.64879">
        <ele>1695.7</ele>
        <time>2020-02-09T10:06:41Z</time>
      </trkpt>
      <trkpt lat="42.70411" lon="1.64879">
        <ele>1695.7</ele>
        <time>2020-02-09T10:06:51Z</time>
      </trkpt>
      <trkpt lat="42.70411" lon="1.64879">
        <ele>1695.7</ele>
        <time>2020-02-09T10:07:01Z</time>
      </trkpt>
      <trkpt lat="42.70411" lon="1.64882">
        <ele>1695.7</ele>
        <time>2020-02-09T10:07:03Z</time>
      </trkpt>
      <trkpt lat="42.70411" lon="1.64882">
        <ele>1695.7</ele>
        <time>2020-02-09T10:07:11Z</time>
      </trkpt>
      <trkpt lat="42.70411" lon="1.64882">
        <ele>1695.7</ele>
        <time>2020-02-09T10:07:21Z</time>
      </trkpt>
      <trkpt lat="42.70412" lon="1.6488">
        <ele>1695.7</ele>
        <time>2020-02-09T10:07:31Z</time>
      </trkpt>
      <trkpt lat="42.70414" lon="1.64881">
        <ele>1695.2</ele>
        <time>2020-02-09T10:07:39Z</time>
      </trkpt>
      <trkpt lat="42.70414" lon="1.64881">
        <ele>1695.2</ele>
        <time>2020-02-09T10:07:41Z</time>
      </trkpt>
      <trkpt lat="42.70414" lon="1.64881">
        <ele>1695.2</ele>
        <time>2020-02-09T10:07:51Z</time>
      </trkpt>
      <trkpt lat="42.70414" lon="1.64881">
        <ele>1695.2</ele>
        <time>2020-02-09T10:08:01Z</time>
      </trkpt>
      <trkpt lat="42.70413" lon="1.64878">
        <ele>1695.7</ele>
        <time>2020-02-09T10:08:02Z</time>
      </trkpt>
      <trkpt lat="42.7041" lon="1.64878">
        <ele>1696.2</ele>
        <time>2020-02-09T10:08:07Z</time>
      </trkpt>
      <trkpt lat="42.7041" lon="1.64878">
        <ele>1696.2</ele>
        <time>2020-02-09T10:08:11Z</time>
      </trkpt>
      <trkpt lat="42.70408" lon="1.64877">
        <ele>1696.2</ele>
        <time>2020-02-09T10:08:15Z</time>
      </trkpt>
      <trkpt lat="42.70406" lon="1.64877">
        <ele>1696.7</ele>
        <time>2020-02-09T10:08:18Z</time>
      </trkpt>
      <trkpt lat="42.70406" lon="1.64877">
        <ele>1696.7</ele>
        <time>2020-02-09T10:08:21Z</time>
      </trkpt>
      <trkpt lat="42.70404" lon="1.64877">
        <ele>1696.7</ele>
        <time>2020-02-09T10:08:22Z</time>
      </trkpt>
      <trkpt lat="42.70403" lon="1.64877">
        <ele>1697</ele>
        <time>2020-02-09T10:08:24Z</time>
      </trkpt>
      <trkpt lat="42.70395" lon="1.64875">
        <ele>1697.4</ele>
        <time>2020-02-09T10:08:29Z</time>
      </trkpt>
      <trkpt lat="42.70393" lon="1.64874">
        <ele>1697.5</ele>
        <time>2020-02-09T10:08:31Z</time>
      </trkpt>
      <trkpt lat="42.7039" lon="1.64874">
        <ele>1697.6</ele>
        <time>2020-02-09T10:08:33Z</time>
      </trkpt>
      <trkpt lat="42.70388" lon="1.64873">
        <ele>1697.6</ele>
        <time>2020-02-09T10:08:35Z</time>
      </trkpt>
      <trkpt lat="42.70386" lon="1.64872">
        <ele>1697.7</ele>
        <time>2020-02-09T10:08:37Z</time>
      </trkpt>
      <trkpt lat="42.70384" lon="1.64872">
        <ele>1697.8</ele>
        <time>2020-02-09T10:08:38Z</time>
      </trkpt>
      <trkpt lat="42.70382" lon="1.64872">
        <ele>1697.7</ele>
        <time>2020-02-09T10:08:41Z</time>
      </trkpt>
      <trkpt lat="42.70379" lon="1.64871">
        <ele>1697.7</ele>
        <time>2020-02-09T10:08:45Z</time>
      </trkpt>
      <trkpt lat="42.70379" lon="1.64871">
        <ele>1697.7</ele>
        <time>2020-02-09T10:08:51Z</time>
      </trkpt>
      <trkpt lat="42.70378" lon="1.64872">
        <ele>1697.7</ele>
        <time>2020-02-09T10:09:01Z</time>
      </trkpt>
      <trkpt lat="42.70375" lon="1.64871">
        <ele>1697.6</ele>
        <time>2020-02-09T10:09:03Z</time>
      </trkpt>
      <trkpt lat="42.70373" lon="1.64871">
        <ele>1697.6</ele>
        <time>2020-02-09T10:09:05Z</time>
      </trkpt>
      <trkpt lat="42.7037" lon="1.6487">
        <ele>1697.4</ele>
        <time>2020-02-09T10:09:08Z</time>
      </trkpt>
      <trkpt lat="42.70367" lon="1.6487">
        <ele>1697.3</ele>
        <time>2020-02-09T10:09:11Z</time>
      </trkpt>
      <trkpt lat="42.70362" lon="1.6487">
        <ele>1696.8</ele>
        <time>2020-02-09T10:09:16Z</time>
      </trkpt>
      <trkpt lat="42.70361" lon="1.6487">
        <ele>1696.8</ele>
        <time>2020-02-09T10:09:17Z</time>
      </trkpt>
      <trkpt lat="42.7036" lon="1.6487">
        <ele>1696.8</ele>
        <time>2020-02-09T10:09:20Z</time>
      </trkpt>
      <trkpt lat="42.70359" lon="1.6487">
        <ele>1696.6</ele>
        <time>2020-02-09T10:09:21Z</time>
      </trkpt>
      <trkpt lat="42.70358" lon="1.64872">
        <ele>1696.2</ele>
        <time>2020-02-09T10:09:24Z</time>
      </trkpt>
      <trkpt lat="42.70358" lon="1.64872">
        <ele>1696.2</ele>
        <time>2020-02-09T10:09:31Z</time>
      </trkpt>
      <trkpt lat="42.70356" lon="1.64879">
        <ele>1695.4</ele>
        <time>2020-02-09T10:09:33Z</time>
      </trkpt>
      <trkpt lat="42.70353" lon="1.64882">
        <ele>1694.6</ele>
        <time>2020-02-09T10:09:37Z</time>
      </trkpt>
      <trkpt lat="42.70352" lon="1.64884">
        <ele>1694.6</ele>
        <time>2020-02-09T10:09:41Z</time>
      </trkpt>
      <trkpt lat="42.70349" lon="1.64883">
        <ele>1694.4</ele>
        <time>2020-02-09T10:09:44Z</time>
      </trkpt>
      <trkpt lat="42.70347" lon="1.64882">
        <ele>1694</ele>
        <time>2020-02-09T10:09:50Z</time>
      </trkpt>
      <trkpt lat="42.70346" lon="1.6488">
        <ele>1694.5</ele>
        <time>2020-02-09T10:09:51Z</time>
      </trkpt>
      <trkpt lat="42.70344" lon="1.64879">
        <ele>1694.1</ele>
        <time>2020-02-09T10:09:52Z</time>
      </trkpt>
      <trkpt lat="42.70341" lon="1.64877">
        <ele>1694.1</ele>
        <time>2020-02-09T10:09:56Z</time>
      </trkpt>
      <trkpt lat="42.70341" lon="1.64877">
        <ele>1694.1</ele>
        <time>2020-02-09T10:10:01Z</time>
      </trkpt>
      <trkpt lat="42.70334" lon="1.64867">
        <ele>1694.3</ele>
        <time>2020-02-09T10:10:02Z</time>
      </trkpt>
      <trkpt lat="42.70332" lon="1.64865">
        <ele>1693.9</ele>
        <time>2020-02-09T10:10:04Z</time>
      </trkpt>
      <trkpt lat="42.70329" lon="1.64862">
        <ele>1694.3</ele>
        <time>2020-02-09T10:10:11Z</time>
      </trkpt>
      <trkpt lat="42.70327" lon="1.6486">
        <ele>1693.9</ele>
        <time>2020-02-09T10:10:12Z</time>
      </trkpt>
      <trkpt lat="42.70325" lon="1.64858">
        <ele>1693.9</ele>
        <time>2020-02-09T10:10:18Z</time>
      </trkpt>
      <trkpt lat="42.70323" lon="1.64855">
        <ele>1693.9</ele>
        <time>2020-02-09T10:10:20Z</time>
      </trkpt>
      <trkpt lat="42.70321" lon="1.64853">
        <ele>1693.9</ele>
        <time>2020-02-09T10:10:21Z</time>
      </trkpt>
      <trkpt lat="42.70311" lon="1.64843">
        <ele>1693.1</ele>
        <time>2020-02-09T10:10:31Z</time>
      </trkpt>
      <trkpt lat="42.70308" lon="1.64839">
        <ele>1692.9</ele>
        <time>2020-02-09T10:10:41Z</time>
      </trkpt>
      <trkpt lat="42.70305" lon="1.64835">
        <ele>1692.6</ele>
        <time>2020-02-09T10:10:43Z</time>
      </trkpt>
      <trkpt lat="42.70302" lon="1.64831">
        <ele>1692.3</ele>
        <time>2020-02-09T10:10:51Z</time>
      </trkpt>
      <trkpt lat="42.703" lon="1.64827">
        <ele>1691.8</ele>
        <time>2020-02-09T10:10:54Z</time>
      </trkpt>
      <trkpt lat="42.70297" lon="1.64823">
        <ele>1691.4</ele>
        <time>2020-02-09T10:11:01Z</time>
      </trkpt>
      <trkpt lat="42.70294" lon="1.64819">
        <ele>1691.5</ele>
        <time>2020-02-09T10:11:04Z</time>
      </trkpt>
      <trkpt lat="42.70291" lon="1.64815">
        <ele>1690.9</ele>
        <time>2020-02-09T10:11:11Z</time>
      </trkpt>
      <trkpt lat="42.70288" lon="1.64811">
        <ele>1690.5</ele>
        <time>2020-02-09T10:11:12Z</time>
      </trkpt>
      <trkpt lat="42.70286" lon="1.64807">
        <ele>1690</ele>
        <time>2020-02-09T10:11:14Z</time>
      </trkpt>
      <trkpt lat="42.70283" lon="1.64803">
        <ele>1689.5</ele>
        <time>2020-02-09T10:11:21Z</time>
      </trkpt>
      <trkpt lat="42.7028" lon="1.64798">
        <ele>1689</ele>
        <time>2020-02-09T10:11:22Z</time>
      </trkpt>
      <trkpt lat="42.70277" lon="1.64794">
        <ele>1688.5</ele>
        <time>2020-02-09T10:11:30Z</time>
      </trkpt>
      <trkpt lat="42.70274" lon="1.6479">
        <ele>1687.9</ele>
        <time>2020-02-09T10:11:31Z</time>
      </trkpt>
      <trkpt lat="42.70265" lon="1.64791">
        <ele>1686</ele>
        <time>2020-02-09T10:11:39Z</time>
      </trkpt>
      <trkpt lat="42.70265" lon="1.64791">
        <ele>1686</ele>
        <time>2020-02-09T10:11:41Z</time>
      </trkpt>
      <trkpt lat="42.70257" lon="1.64773">
        <ele>1685.5</ele>
        <time>2020-02-09T10:11:51Z</time>
      </trkpt>
      <trkpt lat="42.70256" lon="1.64763">
        <ele>1685.8</ele>
        <time>2020-02-09T10:11:59Z</time>
      </trkpt>
      <trkpt lat="42.70256" lon="1.64753">
        <ele>1686</ele>
        <time>2020-02-09T10:12:01Z</time>
      </trkpt>
      <trkpt lat="42.70249" lon="1.64743">
        <ele>1684.7</ele>
        <time>2020-02-09T10:12:07Z</time>
      </trkpt>
      <trkpt lat="42.70249" lon="1.64743">
        <ele>1684.7</ele>
        <time>2020-02-09T10:12:11Z</time>
      </trkpt>
      <trkpt lat="42.70246" lon="1.64734">
        <ele>1684.4</ele>
        <time>2020-02-09T10:12:13Z</time>
      </trkpt>
      <trkpt lat="42.70243" lon="1.64732">
        <ele>1683.9</ele>
        <time>2020-02-09T10:12:17Z</time>
      </trkpt>
      <trkpt lat="42.70241" lon="1.64731">
        <ele>1683.9</ele>
        <time>2020-02-09T10:12:21Z</time>
      </trkpt>
      <trkpt lat="42.70235" lon="1.64728">
        <ele>1683.1</ele>
        <time>2020-02-09T10:12:27Z</time>
      </trkpt>
      <trkpt lat="42.70235" lon="1.64727">
        <ele>1683.1</ele>
        <time>2020-02-09T10:12:30Z</time>
      </trkpt>
      <trkpt lat="42.70234" lon="1.64727">
        <ele>1682.6</ele>
        <time>2020-02-09T10:12:31Z</time>
      </trkpt>
      <trkpt lat="42.70226" lon="1.6472">
        <ele>1681.9</ele>
        <time>2020-02-09T10:12:40Z</time>
      </trkpt>
      <trkpt lat="42.70226" lon="1.6472">
        <ele>1681.9</ele>
        <time>2020-02-09T10:12:41Z</time>
      </trkpt>
      <trkpt lat="42.70219" lon="1.64714">
        <ele>1681.1</ele>
        <time>2020-02-09T10:12:48Z</time>
      </trkpt>
      <trkpt lat="42.70215" lon="1.64712">
        <ele>1680.8</ele>
        <time>2020-02-09T10:12:51Z</time>
      </trkpt>
      <trkpt lat="42.70206" lon="1.64707">
        <ele>1679.5</ele>
        <time>2020-02-09T10:12:59Z</time>
      </trkpt>
      <trkpt lat="42.70206" lon="1.64707">
        <ele>1679.5</ele>
        <time>2020-02-09T10:13:01Z</time>
      </trkpt>
      <trkpt lat="42.70197" lon="1.64699">
        <ele>1678.2</ele>
        <time>2020-02-09T10:13:10Z</time>
      </trkpt>
      <trkpt lat="42.70197" lon="1.64699">
        <ele>1678.2</ele>
        <time>2020-02-09T10:13:11Z</time>
      </trkpt>
      <trkpt lat="42.70197" lon="1.64699">
        <ele>1678.2</ele>
        <time>2020-02-09T10:13:21Z</time>
      </trkpt>
      <trkpt lat="42.7019" lon="1.64699">
        <ele>1677.1</ele>
        <time>2020-02-09T10:13:31Z</time>
      </trkpt>
      <trkpt lat="42.70187" lon="1.64701">
        <ele>1676.2</ele>
        <time>2020-02-09T10:13:34Z</time>
      </trkpt>
      <trkpt lat="42.70183" lon="1.64704">
        <ele>1675.1</ele>
        <time>2020-02-09T10:13:39Z</time>
      </trkpt>
      <trkpt lat="42.70183" lon="1.64704">
        <ele>1675.1</ele>
        <time>2020-02-09T10:13:41Z</time>
      </trkpt>
      <trkpt lat="42.7018" lon="1.64704">
        <ele>1674.6</ele>
        <time>2020-02-09T10:13:46Z</time>
      </trkpt>
      <trkpt lat="42.70181" lon="1.64691">
        <ele>1676.2</ele>
        <time>2020-02-09T10:13:50Z</time>
      </trkpt>
      <trkpt lat="42.70181" lon="1.64691">
        <ele>1676.2</ele>
        <time>2020-02-09T10:13:51Z</time>
      </trkpt>
      <trkpt lat="42.7018" lon="1.64696">
        <ele>1675.4</ele>
        <time>2020-02-09T10:13:58Z</time>
      </trkpt>
      <trkpt lat="42.7018" lon="1.64696">
        <ele>1675.4</ele>
        <time>2020-02-09T10:14:01Z</time>
      </trkpt>
      <trkpt lat="42.70175" lon="1.64698">
        <ele>1674.6</ele>
        <time>2020-02-09T10:14:10Z</time>
      </trkpt>
      <trkpt lat="42.70175" lon="1.64698">
        <ele>1674.6</ele>
        <time>2020-02-09T10:14:11Z</time>
      </trkpt>
      <trkpt lat="42.70173" lon="1.64702">
        <ele>1673.7</ele>
        <time>2020-02-09T10:14:12Z</time>
      </trkpt>
      <trkpt lat="42.70169" lon="1.64706">
        <ele>1672.8</ele>
        <time>2020-02-09T10:14:16Z</time>
      </trkpt>
      <trkpt lat="42.70167" lon="1.64707">
        <ele>1672.4</ele>
        <time>2020-02-09T10:14:18Z</time>
      </trkpt>
      <trkpt lat="42.70167" lon="1.64707">
        <ele>1672.4</ele>
        <time>2020-02-09T10:14:21Z</time>
      </trkpt>
      <trkpt lat="42.70159" lon="1.64708">
        <ele>1671.8</ele>
        <time>2020-02-09T10:14:23Z</time>
      </trkpt>
      <trkpt lat="42.70157" lon="1.64708">
        <ele>1671.5</ele>
        <time>2020-02-09T10:14:30Z</time>
      </trkpt>
      <trkpt lat="42.70156" lon="1.64708">
        <ele>1671.5</ele>
        <time>2020-02-09T10:14:31Z</time>
      </trkpt>
      <trkpt lat="42.70154" lon="1.64708">
        <ele>1671.3</ele>
        <time>2020-02-09T10:14:32Z</time>
      </trkpt>
      <trkpt lat="42.70154" lon="1.64708">
        <ele>1671.3</ele>
        <time>2020-02-09T10:14:41Z</time>
      </trkpt>
      <trkpt lat="42.70148" lon="1.64707">
        <ele>1671</ele>
        <time>2020-02-09T10:14:43Z</time>
      </trkpt>
      <trkpt lat="42.70151" lon="1.64693">
        <ele>1673.3</ele>
        <time>2020-02-09T10:14:51Z</time>
      </trkpt>
      <trkpt lat="42.70152" lon="1.64691">
        <ele>1674.1</ele>
        <time>2020-02-09T10:14:56Z</time>
      </trkpt>
      <trkpt lat="42.70152" lon="1.64691">
        <ele>1674.1</ele>
        <time>2020-02-09T10:15:01Z</time>
      </trkpt>
      <trkpt lat="42.70148" lon="1.64698">
        <ele>1672.4</ele>
        <time>2020-02-09T10:15:09Z</time>
      </trkpt>
      <trkpt lat="42.70148" lon="1.64698">
        <ele>1672.4</ele>
        <time>2020-02-09T10:15:11Z</time>
      </trkpt>
      <trkpt lat="42.70146" lon="1.64699">
        <ele>1672.4</ele>
        <time>2020-02-09T10:15:16Z</time>
      </trkpt>
      <trkpt lat="42.70146" lon="1.64699">
        <ele>1672.4</ele>
        <time>2020-02-09T10:15:21Z</time>
      </trkpt>
      <trkpt lat="42.70146" lon="1.64699">
        <ele>1672.4</ele>
        <time>2020-02-09T10:15:31Z</time>
      </trkpt>
      <trkpt lat="42.7015" lon="1.64697">
        <ele>1672.5</ele>
        <time>2020-02-09T10:15:41Z</time>
      </trkpt>
      <trkpt lat="42.7015" lon="1.64697">
        <ele>1672.5</ele>
        <time>2020-02-09T10:15:51Z</time>
      </trkpt>
      <trkpt lat="42.7015" lon="1.64697">
        <ele>1672.5</ele>
        <time>2020-02-09T10:16:01Z</time>
      </trkpt>
      <trkpt lat="42.70149" lon="1.64701">
        <ele>1671.7</ele>
        <time>2020-02-09T10:16:10Z</time>
      </trkpt>
      <trkpt lat="42.70149" lon="1.64701">
        <ele>1671.7</ele>
        <time>2020-02-09T10:16:11Z</time>
      </trkpt>
      <trkpt lat="42.70149" lon="1.64701">
        <ele>1671.7</ele>
        <time>2020-02-09T10:16:21Z</time>
      </trkpt>
      <trkpt lat="42.70144" lon="1.64706">
        <ele>1670.9</ele>
        <time>2020-02-09T10:16:30Z</time>
      </trkpt>
      <trkpt lat="42.70144" lon="1.64706">
        <ele>1670.9</ele>
        <time>2020-02-09T10:16:31Z</time>
      </trkpt>
      <trkpt lat="42.70144" lon="1.64706">
        <ele>1670.9</ele>
        <time>2020-02-09T10:16:41Z</time>
      </trkpt>
      <trkpt lat="42.70142" lon="1.64704">
        <ele>1671.6</ele>
        <time>2020-02-09T10:16:45Z</time>
      </trkpt>
      <trkpt lat="42.70142" lon="1.64704">
        <ele>1671.6</ele>
        <time>2020-02-09T10:16:51Z</time>
      </trkpt>
      <trkpt lat="42.70142" lon="1.64704">
        <ele>1671.6</ele>
        <time>2020-02-09T10:17:01Z</time>
      </trkpt>
      <trkpt lat="42.70144" lon="1.647">
        <ele>1672.4</ele>
        <time>2020-02-09T10:17:04Z</time>
      </trkpt>
      <trkpt lat="42.70142" lon="1.64698">
        <ele>1672.4</ele>
        <time>2020-02-09T10:17:09Z</time>
      </trkpt>
      <trkpt lat="42.70142" lon="1.64698">
        <ele>1672.4</ele>
        <time>2020-02-09T10:17:11Z</time>
      </trkpt>
      <trkpt lat="42.70138" lon="1.64695">
        <ele>1673.4</ele>
        <time>2020-02-09T10:17:13Z</time>
      </trkpt>
      <trkpt lat="42.70135" lon="1.64693">
        <ele>1673.5</ele>
        <time>2020-02-09T10:17:17Z</time>
      </trkpt>
      <trkpt lat="42.70135" lon="1.64693">
        <ele>1673.5</ele>
        <time>2020-02-09T10:17:21Z</time>
      </trkpt>
      <trkpt lat="42.70139" lon="1.64676">
        <ele>1676.8</ele>
        <time>2020-02-09T10:17:25Z</time>
      </trkpt>
      <trkpt lat="42.70139" lon="1.64676">
        <ele>1676.8</ele>
        <time>2020-02-09T10:17:31Z</time>
      </trkpt>
      <trkpt lat="42.70131" lon="1.64681">
        <ele>1676.6</ele>
        <time>2020-02-09T10:17:37Z</time>
      </trkpt>
      <trkpt lat="42.70131" lon="1.64681">
        <ele>1676.6</ele>
        <time>2020-02-09T10:17:41Z</time>
      </trkpt>
      <trkpt lat="42.70128" lon="1.64683">
        <ele>1676.9</ele>
        <time>2020-02-09T10:17:48Z</time>
      </trkpt>
      <trkpt lat="42.70128" lon="1.64683">
        <ele>1676.9</ele>
        <time>2020-02-09T10:17:51Z</time>
      </trkpt>
      <trkpt lat="42.70126" lon="1.64681">
        <ele>1677.2</ele>
        <time>2020-02-09T10:17:53Z</time>
      </trkpt>
      <trkpt lat="42.70122" lon="1.6468">
        <ele>1677.6</ele>
        <time>2020-02-09T10:17:59Z</time>
      </trkpt>
      <trkpt lat="42.70122" lon="1.6468">
        <ele>1677.6</ele>
        <time>2020-02-09T10:18:01Z</time>
      </trkpt>
      <trkpt lat="42.70119" lon="1.64679">
        <ele>1679</ele>
        <time>2020-02-09T10:18:06Z</time>
      </trkpt>
      <trkpt lat="42.70119" lon="1.64679">
        <ele>1679</ele>
        <time>2020-02-09T10:18:11Z</time>
      </trkpt>
      <trkpt lat="42.70117" lon="1.64679">
        <ele>1679.5</ele>
        <time>2020-02-09T10:18:12Z</time>
      </trkpt>
      <trkpt lat="42.70117" lon="1.64679">
        <ele>1679.5</ele>
        <time>2020-02-09T10:18:21Z</time>
      </trkpt>
      <trkpt lat="42.70112" lon="1.64682">
        <ele>1679</ele>
        <time>2020-02-09T10:18:27Z</time>
      </trkpt>
      <trkpt lat="42.70109" lon="1.64683">
        <ele>1679.6</ele>
        <time>2020-02-09T10:18:31Z</time>
      </trkpt>
      <trkpt lat="42.70107" lon="1.64683">
        <ele>1680.1</ele>
        <time>2020-02-09T10:18:32Z</time>
      </trkpt>
      <trkpt lat="42.70106" lon="1.64684">
        <ele>1679.1</ele>
        <time>2020-02-09T10:18:38Z</time>
      </trkpt>
      <trkpt lat="42.70105" lon="1.64687">
        <ele>1679.1</ele>
        <time>2020-02-09T10:18:41Z</time>
      </trkpt>
      <trkpt lat="42.70104" lon="1.64689">
        <ele>1678.5</ele>
        <time>2020-02-09T10:18:46Z</time>
      </trkpt>
      <trkpt lat="42.70104" lon="1.64689">
        <ele>1678.5</ele>
        <time>2020-02-09T10:18:51Z</time>
      </trkpt>
      <trkpt lat="42.70102" lon="1.64691">
        <ele>1678.5</ele>
        <time>2020-02-09T10:18:52Z</time>
      </trkpt>
      <trkpt lat="42.701" lon="1.64693">
        <ele>1677.9</ele>
        <time>2020-02-09T10:18:58Z</time>
      </trkpt>
      <trkpt lat="42.701" lon="1.64693">
        <ele>1677.9</ele>
        <time>2020-02-09T10:19:01Z</time>
      </trkpt>
      <trkpt lat="42.701" lon="1.64693">
        <ele>1677.9</ele>
        <time>2020-02-09T10:19:11Z</time>
      </trkpt>
      <trkpt lat="42.701" lon="1.64696">
        <ele>1677.9</ele>
        <time>2020-02-09T10:19:16Z</time>
      </trkpt>
      <trkpt lat="42.701" lon="1.64696">
        <ele>1677.9</ele>
        <time>2020-02-09T10:19:21Z</time>
      </trkpt>
      <trkpt lat="42.70096" lon="1.64707">
        <ele>1675.2</ele>
        <time>2020-02-09T10:19:24Z</time>
      </trkpt>
      <trkpt lat="42.70098" lon="1.64704">
        <ele>1676.3</ele>
        <time>2020-02-09T10:19:31Z</time>
      </trkpt>
      <trkpt lat="42.70096" lon="1.64707">
        <ele>1675.2</ele>
        <time>2020-02-09T10:19:39Z</time>
      </trkpt>
      <trkpt lat="42.70096" lon="1.64707">
        <ele>1675.2</ele>
        <time>2020-02-09T10:19:41Z</time>
      </trkpt>
      <trkpt lat="42.70094" lon="1.64709">
        <ele>1675.8</ele>
        <time>2020-02-09T10:19:44Z</time>
      </trkpt>
      <trkpt lat="42.70092" lon="1.64711">
        <ele>1674.8</ele>
        <time>2020-02-09T10:19:49Z</time>
      </trkpt>
      <trkpt lat="42.70092" lon="1.64711">
        <ele>1674.8</ele>
        <time>2020-02-09T10:19:51Z</time>
      </trkpt>
      <trkpt lat="42.70091" lon="1.64712">
        <ele>1675.4</ele>
        <time>2020-02-09T10:19:53Z</time>
      </trkpt>
      <trkpt lat="42.70089" lon="1.64714">
        <ele>1675</ele>
        <time>2020-02-09T10:19:58Z</time>
      </trkpt>
      <trkpt lat="42.70089" lon="1.64714">
        <ele>1675</ele>
        <time>2020-02-09T10:20:01Z</time>
      </trkpt>
      <trkpt lat="42.70086" lon="1.64716">
        <ele>1675</ele>
        <time>2020-02-09T10:20:05Z</time>
      </trkpt>
      <trkpt lat="42.70086" lon="1.64716">
        <ele>1675</ele>
        <time>2020-02-09T10:20:11Z</time>
      </trkpt>
      <trkpt lat="42.70084" lon="1.64719">
        <ele>1674.6</ele>
        <time>2020-02-09T10:20:12Z</time>
      </trkpt>
      <trkpt lat="42.70084" lon="1.64722">
        <ele>1674.6</ele>
        <time>2020-02-09T10:20:17Z</time>
      </trkpt>
      <trkpt lat="42.70081" lon="1.64725">
        <ele>1674.1</ele>
        <time>2020-02-09T10:20:21Z</time>
      </trkpt>
      <trkpt lat="42.70079" lon="1.64726">
        <ele>1674.7</ele>
        <time>2020-02-09T10:20:22Z</time>
      </trkpt>
      <trkpt lat="42.70077" lon="1.64729">
        <ele>1673.5</ele>
        <time>2020-02-09T10:20:27Z</time>
      </trkpt>
      <trkpt lat="42.70077" lon="1.64729">
        <ele>1673.5</ele>
        <time>2020-02-09T10:20:31Z</time>
      </trkpt>
      <trkpt lat="42.70077" lon="1.64729">
        <ele>1673.5</ele>
        <time>2020-02-09T10:20:41Z</time>
      </trkpt>
      <trkpt lat="42.70071" lon="1.64739">
        <ele>1670.9</ele>
        <time>2020-02-09T10:20:42Z</time>
      </trkpt>
      <trkpt lat="42.70068" lon="1.64739">
        <ele>1672.7</ele>
        <time>2020-02-09T10:20:46Z</time>
      </trkpt>
      <trkpt lat="42.70067" lon="1.6474">
        <ele>1672</ele>
        <time>2020-02-09T10:20:51Z</time>
      </trkpt>
      <trkpt lat="42.70063" lon="1.64742">
        <ele>1672.5</ele>
        <time>2020-02-09T10:21:01Z</time>
      </trkpt>
      <trkpt lat="42.70059" lon="1.64744">
        <ele>1671.7</ele>
        <time>2020-02-09T10:21:04Z</time>
      </trkpt>
      <trkpt lat="42.70056" lon="1.64746">
        <ele>1672.2</ele>
        <time>2020-02-09T10:21:10Z</time>
      </trkpt>
      <trkpt lat="42.70052" lon="1.64748">
        <ele>1671.3</ele>
        <time>2020-02-09T10:21:11Z</time>
      </trkpt>
      <trkpt lat="42.7005" lon="1.6475">
        <ele>1671.7</ele>
        <time>2020-02-09T10:21:15Z</time>
      </trkpt>
      <trkpt lat="42.70047" lon="1.64753">
        <ele>1670.9</ele>
        <time>2020-02-09T10:21:19Z</time>
      </trkpt>
      <trkpt lat="42.70047" lon="1.64753">
        <ele>1670.9</ele>
        <time>2020-02-09T10:21:21Z</time>
      </trkpt>
      <trkpt lat="42.70045" lon="1.64754">
        <ele>1670.9</ele>
        <time>2020-02-09T10:21:22Z</time>
      </trkpt>
      <trkpt lat="42.70044" lon="1.64755">
        <ele>1671.3</ele>
        <time>2020-02-09T10:21:25Z</time>
      </trkpt>
      <trkpt lat="42.70041" lon="1.64755">
        <ele>1671.7</ele>
        <time>2020-02-09T10:21:28Z</time>
      </trkpt>
      <trkpt lat="42.70039" lon="1.64754">
        <ele>1671.7</ele>
        <time>2020-02-09T10:21:31Z</time>
      </trkpt>
      <trkpt lat="42.70034" lon="1.6475">
        <ele>1673.7</ele>
        <time>2020-02-09T10:21:38Z</time>
      </trkpt>
      <trkpt lat="42.70034" lon="1.6475">
        <ele>1673.7</ele>
        <time>2020-02-09T10:21:41Z</time>
      </trkpt>
      <trkpt lat="42.70033" lon="1.64748">
        <ele>1674.9</ele>
        <time>2020-02-09T10:21:44Z</time>
      </trkpt>
      <trkpt lat="42.70029" lon="1.64746">
        <ele>1675.3</ele>
        <time>2020-02-09T10:21:48Z</time>
      </trkpt>
      <trkpt lat="42.70029" lon="1.64746">
        <ele>1675.3</ele>
        <time>2020-02-09T10:21:51Z</time>
      </trkpt>
      <trkpt lat="42.70027" lon="1.64747">
        <ele>1675.7</ele>
        <time>2020-02-09T10:21:52Z</time>
      </trkpt>
      <trkpt lat="42.70024" lon="1.64747">
        <ele>1676</ele>
        <time>2020-02-09T10:21:58Z</time>
      </trkpt>
      <trkpt lat="42.70024" lon="1.64747">
        <ele>1676</ele>
        <time>2020-02-09T10:22:01Z</time>
      </trkpt>
      <trkpt lat="42.70027" lon="1.64735">
        <ele>1678.3</ele>
        <time>2020-02-09T10:22:02Z</time>
      </trkpt>
      <trkpt lat="42.70024" lon="1.6473">
        <ele>1681.3</ele>
        <time>2020-02-09T10:22:11Z</time>
      </trkpt>
      <trkpt lat="42.70023" lon="1.64727">
        <ele>1681.3</ele>
        <time>2020-02-09T10:22:21Z</time>
      </trkpt>
      <trkpt lat="42.70022" lon="1.64726">
        <ele>1682.9</ele>
        <time>2020-02-09T10:22:31Z</time>
      </trkpt>
      <trkpt lat="42.7002" lon="1.64725">
        <ele>1682.9</ele>
        <time>2020-02-09T10:22:36Z</time>
      </trkpt>
      <trkpt lat="42.70018" lon="1.64725">
        <ele>1683.2</ele>
        <time>2020-02-09T10:22:38Z</time>
      </trkpt>
      <trkpt lat="42.70018" lon="1.64725">
        <ele>1683.2</ele>
        <time>2020-02-09T10:22:41Z</time>
      </trkpt>
      <trkpt lat="42.70016" lon="1.64727">
        <ele>1681.8</ele>
        <time>2020-02-09T10:22:42Z</time>
      </trkpt>
      <trkpt lat="42.70014" lon="1.6473">
        <ele>1682.1</ele>
        <time>2020-02-09T10:22:45Z</time>
      </trkpt>
      <trkpt lat="42.70012" lon="1.64731">
        <ele>1680.9</ele>
        <time>2020-02-09T10:22:47Z</time>
      </trkpt>
      <trkpt lat="42.70012" lon="1.64731">
        <ele>1680.9</ele>
        <time>2020-02-09T10:22:51Z</time>
      </trkpt>
      <trkpt lat="42.70008" lon="1.64731">
        <ele>1681.1</ele>
        <time>2020-02-09T10:22:54Z</time>
      </trkpt>
      <trkpt lat="42.70005" lon="1.64731">
        <ele>1681.2</ele>
        <time>2020-02-09T10:22:58Z</time>
      </trkpt>
      <trkpt lat="42.70005" lon="1.64731">
        <ele>1681.2</ele>
        <time>2020-02-09T10:23:01Z</time>
      </trkpt>
      <trkpt lat="42.70002" lon="1.6473">
        <ele>1682.6</ele>
        <time>2020-02-09T10:23:04Z</time>
      </trkpt>
      <trkpt lat="42.7" lon="1.6473">
        <ele>1682.7</ele>
        <time>2020-02-09T10:23:08Z</time>
      </trkpt>
      <trkpt lat="42.7" lon="1.6473">
        <ele>1682.7</ele>
        <time>2020-02-09T10:23:11Z</time>
      </trkpt>
      <trkpt lat="42.7" lon="1.6473">
        <ele>1682.7</ele>
        <time>2020-02-09T10:23:21Z</time>
      </trkpt>
      <trkpt lat="42.7" lon="1.64725">
        <ele>1684</ele>
        <time>2020-02-09T10:23:24Z</time>
      </trkpt>
      <trkpt lat="42.7" lon="1.64725">
        <ele>1684</ele>
        <time>2020-02-09T10:23:31Z</time>
      </trkpt>
      <trkpt lat="42.7" lon="1.64725">
        <ele>1684</ele>
        <time>2020-02-09T10:23:41Z</time>
      </trkpt>
      <trkpt lat="42.7" lon="1.64728">
        <ele>1682.7</ele>
        <time>2020-02-09T10:23:47Z</time>
      </trkpt>
      <trkpt lat="42.7" lon="1.64728">
        <ele>1682.7</ele>
        <time>2020-02-09T10:23:51Z</time>
      </trkpt>
      <trkpt lat="42.69998" lon="1.6473">
        <ele>1682.7</ele>
        <time>2020-02-09T10:23:54Z</time>
      </trkpt>
      <trkpt lat="42.69998" lon="1.6473">
        <ele>1682.7</ele>
        <time>2020-02-09T10:24:01Z</time>
      </trkpt>
      <trkpt lat="42.69993" lon="1.64723">
        <ele>1684.1</ele>
        <time>2020-02-09T10:24:03Z</time>
      </trkpt>
      <trkpt lat="42.69993" lon="1.64723">
        <ele>1684.1</ele>
        <time>2020-02-09T10:24:11Z</time>
      </trkpt>
      <trkpt lat="42.69993" lon="1.64723">
        <ele>1684.1</ele>
        <time>2020-02-09T10:24:21Z</time>
      </trkpt>
      <trkpt lat="42.69993" lon="1.64723">
        <ele>1684.1</ele>
        <time>2020-02-09T10:24:31Z</time>
      </trkpt>
      <trkpt lat="42.69994" lon="1.64737">
        <ele>1680.3</ele>
        <time>2020-02-09T10:24:35Z</time>
      </trkpt>
      <trkpt lat="42.69994" lon="1.64737">
        <ele>1680.3</ele>
        <time>2020-02-09T10:24:41Z</time>
      </trkpt>
      <trkpt lat="42.69995" lon="1.64741">
        <ele>1679</ele>
        <time>2020-02-09T10:24:46Z</time>
      </trkpt>
      <trkpt lat="42.69995" lon="1.64741">
        <ele>1679</ele>
        <time>2020-02-09T10:24:51Z</time>
      </trkpt>
      <trkpt lat="42.69995" lon="1.64741">
        <ele>1679</ele>
        <time>2020-02-09T10:25:01Z</time>
      </trkpt>
      <trkpt lat="42.6999" lon="1.64741">
        <ele>1679.1</ele>
        <time>2020-02-09T10:25:06Z</time>
      </trkpt>
      <trkpt lat="42.6999" lon="1.64741">
        <ele>1679.1</ele>
        <time>2020-02-09T10:25:11Z</time>
      </trkpt>
      <trkpt lat="42.6999" lon="1.64741">
        <ele>1679.1</ele>
        <time>2020-02-09T10:25:21Z</time>
      </trkpt>
      <trkpt lat="42.6999" lon="1.64741">
        <ele>1679.1</ele>
        <time>2020-02-09T10:25:31Z</time>
      </trkpt>
      <trkpt lat="42.6999" lon="1.64741">
        <ele>1679.1</ele>
        <time>2020-02-09T10:25:41Z</time>
      </trkpt>
      <trkpt lat="42.6999" lon="1.64741">
        <ele>1679.1</ele>
        <time>2020-02-09T10:25:51Z</time>
      </trkpt>
      <trkpt lat="42.69981" lon="1.64736">
        <ele>1680.3</ele>
        <time>2020-02-09T10:25:59Z</time>
      </trkpt>
      <trkpt lat="42.69981" lon="1.64736">
        <ele>1680.3</ele>
        <time>2020-02-09T10:26:01Z</time>
      </trkpt>
      <trkpt lat="42.69979" lon="1.64737">
        <ele>1680.3</ele>
        <time>2020-02-09T10:26:03Z</time>
      </trkpt>
      <trkpt lat="42.69975" lon="1.64736">
        <ele>1680.2</ele>
        <time>2020-02-09T10:26:09Z</time>
      </trkpt>
      <trkpt lat="42.69975" lon="1.64736">
        <ele>1680.2</ele>
        <time>2020-02-09T10:26:11Z</time>
      </trkpt>
      <trkpt lat="42.69972" lon="1.64735">
        <ele>1681.3</ele>
        <time>2020-02-09T10:26:14Z</time>
      </trkpt>
      <trkpt lat="42.6997" lon="1.64735">
        <ele>1680.1</ele>
        <time>2020-02-09T10:26:16Z</time>
      </trkpt>
      <trkpt lat="42.6997" lon="1.64735">
        <ele>1680.1</ele>
        <time>2020-02-09T10:26:21Z</time>
      </trkpt>
      <trkpt lat="42.69968" lon="1.64736">
        <ele>1680</ele>
        <time>2020-02-09T10:26:28Z</time>
      </trkpt>
      <trkpt lat="42.69968" lon="1.64736">
        <ele>1680</ele>
        <time>2020-02-09T10:26:31Z</time>
      </trkpt>
      <trkpt lat="42.69965" lon="1.64733">
        <ele>1681.1</ele>
        <time>2020-02-09T10:26:35Z</time>
      </trkpt>
      <trkpt lat="42.69963" lon="1.64733">
        <ele>1681.1</ele>
        <time>2020-02-09T10:26:41Z</time>
      </trkpt>
      <trkpt lat="42.69961" lon="1.64735">
        <ele>1680.9</ele>
        <time>2020-02-09T10:26:46Z</time>
      </trkpt>
      <trkpt lat="42.6996" lon="1.64736">
        <ele>1679.6</ele>
        <time>2020-02-09T10:26:49Z</time>
      </trkpt>
      <trkpt lat="42.6996" lon="1.64736">
        <ele>1679.6</ele>
        <time>2020-02-09T10:26:51Z</time>
      </trkpt>
      <trkpt lat="42.69954" lon="1.64737">
        <ele>1679.4</ele>
        <time>2020-02-09T10:26:56Z</time>
      </trkpt>
      <trkpt lat="42.69952" lon="1.64736">
        <ele>1679.2</ele>
        <time>2020-02-09T10:26:57Z</time>
      </trkpt>
      <trkpt lat="42.69952" lon="1.64736">
        <ele>1679.2</ele>
        <time>2020-02-09T10:27:01Z</time>
      </trkpt>
      <trkpt lat="42.69943" lon="1.64733">
        <ele>1679.5</ele>
        <time>2020-02-09T10:27:02Z</time>
      </trkpt>
      <trkpt lat="42.69936" lon="1.64732">
        <ele>1678.8</ele>
        <time>2020-02-09T10:27:11Z</time>
      </trkpt>
      <trkpt lat="42.69934" lon="1.64734">
        <ele>1678.5</ele>
        <time>2020-02-09T10:27:13Z</time>
      </trkpt>
      <trkpt lat="42.69932" lon="1.64736">
        <ele>1677.5</ele>
        <time>2020-02-09T10:27:15Z</time>
      </trkpt>
      <trkpt lat="42.69931" lon="1.64738">
        <ele>1677.5</ele>
        <time>2020-02-09T10:27:17Z</time>
      </trkpt>
      <trkpt lat="42.69931" lon="1.64738">
        <ele>1677.5</ele>
        <time>2020-02-09T10:27:21Z</time>
      </trkpt>
      <trkpt lat="42.6993" lon="1.6474">
        <ele>1676.2</ele>
        <time>2020-02-09T10:27:23Z</time>
      </trkpt>
      <trkpt lat="42.6993" lon="1.6474">
        <ele>1676.2</ele>
        <time>2020-02-09T10:27:31Z</time>
      </trkpt>
      <trkpt lat="42.6993" lon="1.6474">
        <ele>1676.2</ele>
        <time>2020-02-09T10:27:41Z</time>
      </trkpt>
      <trkpt lat="42.6993" lon="1.6474">
        <ele>1676.2</ele>
        <time>2020-02-09T10:27:51Z</time>
      </trkpt>
      <trkpt lat="42.69938" lon="1.64734">
        <ele>1679.1</ele>
        <time>2020-02-09T10:27:54Z</time>
      </trkpt>
      <trkpt lat="42.69938" lon="1.64734">
        <ele>1679.1</ele>
        <time>2020-02-09T10:28:01Z</time>
      </trkpt>
      <trkpt lat="42.69938" lon="1.64734">
        <ele>1679.1</ele>
        <time>2020-02-09T10:28:11Z</time>
      </trkpt>
      <trkpt lat="42.69938" lon="1.64734">
        <ele>1679.1</ele>
        <time>2020-02-09T10:28:21Z</time>
      </trkpt>
      <trkpt lat="42.69938" lon="1.64734">
        <ele>1679.1</ele>
        <time>2020-02-09T10:28:31Z</time>
      </trkpt>
      <trkpt lat="42.69935" lon="1.6474">
        <ele>1676.7</ele>
        <time>2020-02-09T10:28:40Z</time>
      </trkpt>
      <trkpt lat="42.69935" lon="1.6474">
        <ele>1676.7</ele>
        <time>2020-02-09T10:28:41Z</time>
      </trkpt>
      <trkpt lat="42.69935" lon="1.6474">
        <ele>1676.7</ele>
        <time>2020-02-09T10:28:51Z</time>
      </trkpt>
      <trkpt lat="42.69935" lon="1.6474">
        <ele>1676.7</ele>
        <time>2020-02-09T10:29:01Z</time>
      </trkpt>
      <trkpt lat="42.69935" lon="1.6474">
        <ele>1676.7</ele>
        <time>2020-02-09T10:29:11Z</time>
      </trkpt>
      <trkpt lat="42.69935" lon="1.6474">
        <ele>1676.7</ele>
        <time>2020-02-09T10:29:21Z</time>
      </trkpt>
      <trkpt lat="42.69935" lon="1.6474">
        <ele>1676.7</ele>
        <time>2020-02-09T10:29:31Z</time>
      </trkpt>
      <trkpt lat="42.69925" lon="1.64738">
        <ele>1676.8</ele>
        <time>2020-02-09T10:29:41Z</time>
      </trkpt>
      <trkpt lat="42.69923" lon="1.64735">
        <ele>1676.4</ele>
        <time>2020-02-09T10:29:49Z</time>
      </trkpt>
      <trkpt lat="42.69923" lon="1.64735">
        <ele>1676.4</ele>
        <time>2020-02-09T10:29:51Z</time>
      </trkpt>
      <trkpt lat="42.69923" lon="1.64735">
        <ele>1676.4</ele>
        <time>2020-02-09T10:30:01Z</time>
      </trkpt>
      <trkpt lat="42.69915" lon="1.64734">
        <ele>1676.2</ele>
        <time>2020-02-09T10:30:11Z</time>
      </trkpt>
      <trkpt lat="42.69915" lon="1.64734">
        <ele>1676.2</ele>
        <time>2020-02-09T10:30:21Z</time>
      </trkpt>
      <trkpt lat="42.69907" lon="1.64739">
        <ele>1674.4</ele>
        <time>2020-02-09T10:30:27Z</time>
      </trkpt>
      <trkpt lat="42.69907" lon="1.64739">
        <ele>1674.4</ele>
        <time>2020-02-09T10:30:31Z</time>
      </trkpt>
      <trkpt lat="42.69902" lon="1.64745">
        <ele>1671.9</ele>
        <time>2020-02-09T10:30:35Z</time>
      </trkpt>
      <trkpt lat="42.69902" lon="1.64745">
        <ele>1671.9</ele>
        <time>2020-02-09T10:30:41Z</time>
      </trkpt>
      <trkpt lat="42.69893" lon="1.64748">
        <ele>1670.5</ele>
        <time>2020-02-09T10:30:45Z</time>
      </trkpt>
      <trkpt lat="42.69889" lon="1.6475">
        <ele>1669.2</ele>
        <time>2020-02-09T10:30:49Z</time>
      </trkpt>
      <trkpt lat="42.69889" lon="1.6475">
        <ele>1669.2</ele>
        <time>2020-02-09T10:30:51Z</time>
      </trkpt>
      <trkpt lat="42.69884" lon="1.64754">
        <ele>1667.9</ele>
        <time>2020-02-09T10:30:53Z</time>
      </trkpt>
      <trkpt lat="42.69882" lon="1.64754">
        <ele>1667.3</ele>
        <time>2020-02-09T10:30:56Z</time>
      </trkpt>
      <trkpt lat="42.6988" lon="1.64755">
        <ele>1666.7</ele>
        <time>2020-02-09T10:31:00Z</time>
      </trkpt>
      <trkpt lat="42.69878" lon="1.64756">
        <ele>1666.2</ele>
        <time>2020-02-09T10:31:01Z</time>
      </trkpt>
      <trkpt lat="42.69878" lon="1.64756">
        <ele>1666.2</ele>
        <time>2020-02-09T10:31:11Z</time>
      </trkpt>
      <trkpt lat="42.6987" lon="1.6476">
        <ele>1664.5</ele>
        <time>2020-02-09T10:31:13Z</time>
      </trkpt>
      <trkpt lat="42.6987" lon="1.6476">
        <ele>1664.5</ele>
        <time>2020-02-09T10:31:21Z</time>
      </trkpt>
      <trkpt lat="42.69865" lon="1.64759">
        <ele>1664</ele>
        <time>2020-02-09T10:31:23Z</time>
      </trkpt>
      <trkpt lat="42.69865" lon="1.64759">
        <ele>1664</ele>
        <time>2020-02-09T10:31:31Z</time>
      </trkpt>
      <trkpt lat="42.69863" lon="1.64759">
        <ele>1663.4</ele>
        <time>2020-02-09T10:31:36Z</time>
      </trkpt>
      <trkpt lat="42.69863" lon="1.64759">
        <ele>1663.4</ele>
        <time>2020-02-09T10:31:41Z</time>
      </trkpt>
      <trkpt lat="42.69857" lon="1.64763">
        <ele>1661.1</ele>
        <time>2020-02-09T10:31:48Z</time>
      </trkpt>
      <trkpt lat="42.69857" lon="1.64763">
        <ele>1661.1</ele>
        <time>2020-02-09T10:31:51Z</time>
      </trkpt>
      <trkpt lat="42.69855" lon="1.64767">
        <ele>1659.8</ele>
        <time>2020-02-09T10:31:52Z</time>
      </trkpt>
      <trkpt lat="42.69854" lon="1.64769">
        <ele>1659.8</ele>
        <time>2020-02-09T10:32:01Z</time>
      </trkpt>
      <trkpt lat="42.69854" lon="1.6477">
        <ele>1659.2</ele>
        <time>2020-02-09T10:32:08Z</time>
      </trkpt>
      <trkpt lat="42.69854" lon="1.64772">
        <ele>1659.2</ele>
        <time>2020-02-09T10:32:11Z</time>
      </trkpt>
      <trkpt lat="42.69854" lon="1.64774">
        <ele>1658.5</ele>
        <time>2020-02-09T10:32:15Z</time>
      </trkpt>
      <trkpt lat="42.69854" lon="1.64776">
        <ele>1658.5</ele>
        <time>2020-02-09T10:32:18Z</time>
      </trkpt>
      <trkpt lat="42.69854" lon="1.64778">
        <ele>1657.8</ele>
        <time>2020-02-09T10:32:20Z</time>
      </trkpt>
      <trkpt lat="42.69854" lon="1.6478">
        <ele>1657.8</ele>
        <time>2020-02-09T10:32:21Z</time>
      </trkpt>
      <trkpt lat="42.69851" lon="1.64785">
        <ele>1656.6</ele>
        <time>2020-02-09T10:32:27Z</time>
      </trkpt>
      <trkpt lat="42.6985" lon="1.64786">
        <ele>1656.6</ele>
        <time>2020-02-09T10:32:29Z</time>
      </trkpt>
      <trkpt lat="42.69849" lon="1.64787">
        <ele>1655.9</ele>
        <time>2020-02-09T10:32:30Z</time>
      </trkpt>
      <trkpt lat="42.69849" lon="1.64789">
        <ele>1655.4</ele>
        <time>2020-02-09T10:32:31Z</time>
      </trkpt>
      <trkpt lat="42.69848" lon="1.64794">
        <ele>1654.8</ele>
        <time>2020-02-09T10:32:35Z</time>
      </trkpt>
      <trkpt lat="42.69848" lon="1.64798">
        <ele>1653.9</ele>
        <time>2020-02-09T10:32:39Z</time>
      </trkpt>
      <trkpt lat="42.69848" lon="1.64798">
        <ele>1653.9</ele>
        <time>2020-02-09T10:32:41Z</time>
      </trkpt>
      <trkpt lat="42.69845" lon="1.64796">
        <ele>1653.4</ele>
        <time>2020-02-09T10:32:42Z</time>
      </trkpt>
      <trkpt lat="42.69843" lon="1.64792">
        <ele>1654.3</ele>
        <time>2020-02-09T10:32:45Z</time>
      </trkpt>
      <trkpt lat="42.69842" lon="1.64788">
        <ele>1654.3</ele>
        <time>2020-02-09T10:32:49Z</time>
      </trkpt>
      <trkpt lat="42.6984" lon="1.64784">
        <ele>1654.9</ele>
        <time>2020-02-09T10:32:51Z</time>
      </trkpt>
      <trkpt lat="42.69841" lon="1.64788">
        <ele>1654.3</ele>
        <time>2020-02-09T10:32:55Z</time>
      </trkpt>
      <trkpt lat="42.6984" lon="1.64792">
        <ele>1653.7</ele>
        <time>2020-02-09T10:32:57Z</time>
      </trkpt>
      <trkpt lat="42.69839" lon="1.64794">
        <ele>1653.1</ele>
        <time>2020-02-09T10:32:59Z</time>
      </trkpt>
      <trkpt lat="42.69839" lon="1.64794">
        <ele>1653.1</ele>
        <time>2020-02-09T10:33:01Z</time>
      </trkpt>
      <trkpt lat="42.69838" lon="1.64796">
        <ele>1652.3</ele>
        <time>2020-02-09T10:33:02Z</time>
      </trkpt>
      <trkpt lat="42.69836" lon="1.64797">
        <ele>1651.6</ele>
        <time>2020-02-09T10:33:05Z</time>
      </trkpt>
      <trkpt lat="42.69835" lon="1.64799">
        <ele>1651.6</ele>
        <time>2020-02-09T10:33:09Z</time>
      </trkpt>
      <trkpt lat="42.69835" lon="1.64799">
        <ele>1651.6</ele>
        <time>2020-02-09T10:33:11Z</time>
      </trkpt>
      <trkpt lat="42.69832" lon="1.64799">
        <ele>1650.9</ele>
        <time>2020-02-09T10:33:12Z</time>
      </trkpt>
      <trkpt lat="42.69829" lon="1.64797">
        <ele>1650.2</ele>
        <time>2020-02-09T10:33:17Z</time>
      </trkpt>
      <trkpt lat="42.69829" lon="1.64797">
        <ele>1650.2</ele>
        <time>2020-02-09T10:33:21Z</time>
      </trkpt>
      <trkpt lat="42.69829" lon="1.64797">
        <ele>1650.2</ele>
        <time>2020-02-09T10:33:31Z</time>
      </trkpt>
      <trkpt lat="42.69822" lon="1.64805">
        <ele>1648.2</ele>
        <time>2020-02-09T10:33:35Z</time>
      </trkpt>
      <trkpt lat="42.69822" lon="1.64805">
        <ele>1648.2</ele>
        <time>2020-02-09T10:33:41Z</time>
      </trkpt>
      <trkpt lat="42.69814" lon="1.64806">
        <ele>1646.3</ele>
        <time>2020-02-09T10:33:51Z</time>
      </trkpt>
      <trkpt lat="42.69814" lon="1.64806">
        <ele>1646.3</ele>
        <time>2020-02-09T10:34:01Z</time>
      </trkpt>
      <trkpt lat="42.69804" lon="1.6481">
        <ele>1643.6</ele>
        <time>2020-02-09T10:34:03Z</time>
      </trkpt>
      <trkpt lat="42.69804" lon="1.6481">
        <ele>1643.6</ele>
        <time>2020-02-09T10:34:11Z</time>
      </trkpt>
      <trkpt lat="42.69794" lon="1.6481">
        <ele>1641.5</ele>
        <time>2020-02-09T10:34:15Z</time>
      </trkpt>
      <trkpt lat="42.69794" lon="1.6481">
        <ele>1641.5</ele>
        <time>2020-02-09T10:34:21Z</time>
      </trkpt>
      <trkpt lat="42.69794" lon="1.6481">
        <ele>1641.5</ele>
        <time>2020-02-09T10:34:31Z</time>
      </trkpt>
      <trkpt lat="42.69784" lon="1.64813">
        <ele>1638.9</ele>
        <time>2020-02-09T10:34:38Z</time>
      </trkpt>
      <trkpt lat="42.69784" lon="1.64813">
        <ele>1638.9</ele>
        <time>2020-02-09T10:34:41Z</time>
      </trkpt>
      <trkpt lat="42.69777" lon="1.64821">
        <ele>1636.9</ele>
        <time>2020-02-09T10:34:50Z</time>
      </trkpt>
      <trkpt lat="42.69777" lon="1.64821">
        <ele>1636.9</ele>
        <time>2020-02-09T10:34:51Z</time>
      </trkpt>
      <trkpt lat="42.69777" lon="1.64821">
        <ele>1636.9</ele>
        <time>2020-02-09T10:35:01Z</time>
      </trkpt>
      <trkpt lat="42.69772" lon="1.64826">
        <ele>1634.7</ele>
        <time>2020-02-09T10:35:03Z</time>
      </trkpt>
      <trkpt lat="42.69772" lon="1.64826">
        <ele>1634.7</ele>
        <time>2020-02-09T10:35:11Z</time>
      </trkpt>
      <trkpt lat="42.69772" lon="1.64818">
        <ele>1635.6</ele>
        <time>2020-02-09T10:35:19Z</time>
      </trkpt>
      <trkpt lat="42.69772" lon="1.64818">
        <ele>1635.6</ele>
        <time>2020-02-09T10:35:21Z</time>
      </trkpt>
      <trkpt lat="42.69768" lon="1.64815">
        <ele>1635.4</ele>
        <time>2020-02-09T10:35:27Z</time>
      </trkpt>
      <trkpt lat="42.69768" lon="1.64815">
        <ele>1635.4</ele>
        <time>2020-02-09T10:35:31Z</time>
      </trkpt>
      <trkpt lat="42.69768" lon="1.64815">
        <ele>1635.4</ele>
        <time>2020-02-09T10:35:41Z</time>
      </trkpt>
      <trkpt lat="42.69758" lon="1.64813">
        <ele>1633.7</ele>
        <time>2020-02-09T10:35:49Z</time>
      </trkpt>
      <trkpt lat="42.69758" lon="1.64813">
        <ele>1633.7</ele>
        <time>2020-02-09T10:35:51Z</time>
      </trkpt>
      <trkpt lat="42.69748" lon="1.64807">
        <ele>1632.8</ele>
        <time>2020-02-09T10:35:55Z</time>
      </trkpt>
      <trkpt lat="42.69748" lon="1.64807">
        <ele>1632.8</ele>
        <time>2020-02-09T10:36:01Z</time>
      </trkpt>
      <trkpt lat="42.69743" lon="1.64807">
        <ele>1631.6</ele>
        <time>2020-02-09T10:36:02Z</time>
      </trkpt>
      <trkpt lat="42.69741" lon="1.64807">
        <ele>1631.1</ele>
        <time>2020-02-09T10:36:08Z</time>
      </trkpt>
      <trkpt lat="42.69741" lon="1.64807">
        <ele>1631.1</ele>
        <time>2020-02-09T10:36:11Z</time>
      </trkpt>
      <trkpt lat="42.69741" lon="1.64807">
        <ele>1631.1</ele>
        <time>2020-02-09T10:36:21Z</time>
      </trkpt>
      <trkpt lat="42.69741" lon="1.64807">
        <ele>1631.1</ele>
        <time>2020-02-09T10:36:31Z</time>
      </trkpt>
      <trkpt lat="42.69737" lon="1.64818">
        <ele>1629.7</ele>
        <time>2020-02-09T10:36:38Z</time>
      </trkpt>
      <trkpt lat="42.69737" lon="1.64818">
        <ele>1629.7</ele>
        <time>2020-02-09T10:36:41Z</time>
      </trkpt>
      <trkpt lat="42.69734" lon="1.6482">
        <ele>1629.3</ele>
        <time>2020-02-09T10:36:49Z</time>
      </trkpt>
      <trkpt lat="42.69734" lon="1.6482">
        <ele>1629.3</ele>
        <time>2020-02-09T10:36:51Z</time>
      </trkpt>
      <trkpt lat="42.69731" lon="1.6482">
        <ele>1628.8</ele>
        <time>2020-02-09T10:36:53Z</time>
      </trkpt>
      <trkpt lat="42.69729" lon="1.6482">
        <ele>1628.3</ele>
        <time>2020-02-09T10:36:55Z</time>
      </trkpt>
      <trkpt lat="42.69725" lon="1.64821">
        <ele>1627.8</ele>
        <time>2020-02-09T10:36:59Z</time>
      </trkpt>
      <trkpt lat="42.69723" lon="1.64821">
        <ele>1627.6</ele>
        <time>2020-02-09T10:37:01Z</time>
      </trkpt>
      <trkpt lat="42.69719" lon="1.64821">
        <ele>1626.5</ele>
        <time>2020-02-09T10:37:04Z</time>
      </trkpt>
      <trkpt lat="42.69717" lon="1.64821">
        <ele>1626.5</ele>
        <time>2020-02-09T10:37:07Z</time>
      </trkpt>
      <trkpt lat="42.69715" lon="1.64821">
        <ele>1625.9</ele>
        <time>2020-02-09T10:37:10Z</time>
      </trkpt>
      <trkpt lat="42.69713" lon="1.64821">
        <ele>1625.5</ele>
        <time>2020-02-09T10:37:11Z</time>
      </trkpt>
      <trkpt lat="42.69707" lon="1.6482">
        <ele>1624.8</ele>
        <time>2020-02-09T10:37:14Z</time>
      </trkpt>
      <trkpt lat="42.69705" lon="1.6482">
        <ele>1624.8</ele>
        <time>2020-02-09T10:37:16Z</time>
      </trkpt>
      <trkpt lat="42.69704" lon="1.64819">
        <ele>1624.4</ele>
        <time>2020-02-09T10:37:20Z</time>
      </trkpt>
      <trkpt lat="42.69702" lon="1.64819">
        <ele>1624.4</ele>
        <time>2020-02-09T10:37:21Z</time>
      </trkpt>
      <trkpt lat="42.69701" lon="1.64819">
        <ele>1623.9</ele>
        <time>2020-02-09T10:37:22Z</time>
      </trkpt>
      <trkpt lat="42.69699" lon="1.64818">
        <ele>1623.9</ele>
        <time>2020-02-09T10:37:24Z</time>
      </trkpt>
      <trkpt lat="42.69696" lon="1.64821">
        <ele>1623.2</ele>
        <time>2020-02-09T10:37:28Z</time>
      </trkpt>
      <trkpt lat="42.69694" lon="1.64821">
        <ele>1622.7</ele>
        <time>2020-02-09T10:37:31Z</time>
      </trkpt>
      <trkpt lat="42.69687" lon="1.64821">
        <ele>1621.7</ele>
        <time>2020-02-09T10:37:32Z</time>
      </trkpt>
      <trkpt lat="42.69683" lon="1.6482">
        <ele>1621.2</ele>
        <time>2020-02-09T10:37:41Z</time>
      </trkpt>
      <trkpt lat="42.69679" lon="1.6482">
        <ele>1620.3</ele>
        <time>2020-02-09T10:37:48Z</time>
      </trkpt>
      <trkpt lat="42.69675" lon="1.6482">
        <ele>1619.7</ele>
        <time>2020-02-09T10:37:50Z</time>
      </trkpt>
      <trkpt lat="42.69671" lon="1.64819">
        <ele>1619.1</ele>
        <time>2020-02-09T10:37:51Z</time>
      </trkpt>
      <trkpt lat="42.69664" lon="1.64819">
        <ele>1617.8</ele>
        <time>2020-02-09T10:37:54Z</time>
      </trkpt>
      <trkpt lat="42.69661" lon="1.64819">
        <ele>1617.2</ele>
        <time>2020-02-09T10:38:00Z</time>
      </trkpt>
      <trkpt lat="42.69658" lon="1.64818">
        <ele>1616.6</ele>
        <time>2020-02-09T10:38:01Z</time>
      </trkpt>
      <trkpt lat="42.69649" lon="1.64821">
        <ele>1614.8</ele>
        <time>2020-02-09T10:38:05Z</time>
      </trkpt>
      <trkpt lat="42.69646" lon="1.64822">
        <ele>1614.1</ele>
        <time>2020-02-09T10:38:10Z</time>
      </trkpt>
      <trkpt lat="42.69642" lon="1.64823">
        <ele>1613.4</ele>
        <time>2020-02-09T10:38:11Z</time>
      </trkpt>
      <trkpt lat="42.69641" lon="1.64823">
        <ele>1612.6</ele>
        <time>2020-02-09T10:38:12Z</time>
      </trkpt>
      <trkpt lat="42.69641" lon="1.64823">
        <ele>1612.6</ele>
        <time>2020-02-09T10:38:21Z</time>
      </trkpt>
      <trkpt lat="42.69631" lon="1.64823">
        <ele>1610.4</ele>
        <time>2020-02-09T10:38:23Z</time>
      </trkpt>
      <trkpt lat="42.69625" lon="1.64822">
        <ele>1609.6</ele>
        <time>2020-02-09T10:38:27Z</time>
      </trkpt>
      <trkpt lat="42.69622" lon="1.64822">
        <ele>1608.9</ele>
        <time>2020-02-09T10:38:31Z</time>
      </trkpt>
      <trkpt lat="42.69621" lon="1.64819">
        <ele>1608.2</ele>
        <time>2020-02-09T10:38:33Z</time>
      </trkpt>
      <trkpt lat="42.69619" lon="1.64816">
        <ele>1608.2</ele>
        <time>2020-02-09T10:38:36Z</time>
      </trkpt>
      <trkpt lat="42.69617" lon="1.64815">
        <ele>1607.4</ele>
        <time>2020-02-09T10:38:39Z</time>
      </trkpt>
      <trkpt lat="42.69617" lon="1.64815">
        <ele>1607.4</ele>
        <time>2020-02-09T10:38:41Z</time>
      </trkpt>
      <trkpt lat="42.69616" lon="1.64813">
        <ele>1606.7</ele>
        <time>2020-02-09T10:38:42Z</time>
      </trkpt>
      <trkpt lat="42.69613" lon="1.64812">
        <ele>1606.6</ele>
        <time>2020-02-09T10:38:44Z</time>
      </trkpt>
      <trkpt lat="42.69613" lon="1.64809">
        <ele>1606.6</ele>
        <time>2020-02-09T10:38:46Z</time>
      </trkpt>
      <trkpt lat="42.69613" lon="1.64809">
        <ele>1606.6</ele>
        <time>2020-02-09T10:38:51Z</time>
      </trkpt>
      <trkpt lat="42.6961" lon="1.64802">
        <ele>1605.8</ele>
        <time>2020-02-09T10:38:54Z</time>
      </trkpt>
      <trkpt lat="42.69608" lon="1.648">
        <ele>1604.9</ele>
        <time>2020-02-09T10:38:57Z</time>
      </trkpt>
      <trkpt lat="42.69608" lon="1.648">
        <ele>1604.9</ele>
        <time>2020-02-09T10:39:01Z</time>
      </trkpt>
      <trkpt lat="42.69602" lon="1.64792">
        <ele>1603.1</ele>
        <time>2020-02-09T10:39:07Z</time>
      </trkpt>
      <trkpt lat="42.696" lon="1.64792">
        <ele>1603.1</ele>
        <time>2020-02-09T10:39:09Z</time>
      </trkpt>
      <trkpt lat="42.696" lon="1.64792">
        <ele>1603.1</ele>
        <time>2020-02-09T10:39:11Z</time>
      </trkpt>
      <trkpt lat="42.69593" lon="1.64782">
        <ele>1600.7</ele>
        <time>2020-02-09T10:39:21Z</time>
      </trkpt>
      <trkpt lat="42.69592" lon="1.64779">
        <ele>1600.7</ele>
        <time>2020-02-09T10:39:27Z</time>
      </trkpt>
      <trkpt lat="42.69591" lon="1.64776">
        <ele>1600.6</ele>
        <time>2020-02-09T10:39:30Z</time>
      </trkpt>
      <trkpt lat="42.69589" lon="1.64774">
        <ele>1599.9</ele>
        <time>2020-02-09T10:39:31Z</time>
      </trkpt>
      <trkpt lat="42.69587" lon="1.6477">
        <ele>1599.1</ele>
        <time>2020-02-09T10:39:35Z</time>
      </trkpt>
      <trkpt lat="42.69584" lon="1.64763">
        <ele>1598.3</ele>
        <time>2020-02-09T10:39:41Z</time>
      </trkpt>
      <trkpt lat="42.69582" lon="1.64758">
        <ele>1598.3</ele>
        <time>2020-02-09T10:39:47Z</time>
      </trkpt>
      <trkpt lat="42.69582" lon="1.64758">
        <ele>1598.3</ele>
        <time>2020-02-09T10:39:51Z</time>
      </trkpt>
      <trkpt lat="42.6958" lon="1.64756">
        <ele>1597.6</ele>
        <time>2020-02-09T10:39:53Z</time>
      </trkpt>
      <trkpt lat="42.69576" lon="1.64753">
        <ele>1597</ele>
        <time>2020-02-09T10:39:58Z</time>
      </trkpt>
      <trkpt lat="42.69574" lon="1.6475">
        <ele>1596.5</ele>
        <time>2020-02-09T10:40:01Z</time>
      </trkpt>
      <trkpt lat="42.69573" lon="1.64747">
        <ele>1596.6</ele>
        <time>2020-02-09T10:40:02Z</time>
      </trkpt>
      <trkpt lat="42.6957" lon="1.64744">
        <ele>1596.1</ele>
        <time>2020-02-09T10:40:06Z</time>
      </trkpt>
      <trkpt lat="42.69569" lon="1.64742">
        <ele>1596.2</ele>
        <time>2020-02-09T10:40:09Z</time>
      </trkpt>
      <trkpt lat="42.69569" lon="1.64742">
        <ele>1596.2</ele>
        <time>2020-02-09T10:40:11Z</time>
      </trkpt>
      <trkpt lat="42.69563" lon="1.64733">
        <ele>1595.5</ele>
        <time>2020-02-09T10:40:13Z</time>
      </trkpt>
      <trkpt lat="42.69563" lon="1.64733">
        <ele>1595.5</ele>
        <time>2020-02-09T10:40:21Z</time>
      </trkpt>
      <trkpt lat="42.69561" lon="1.64735">
        <ele>1595</ele>
        <time>2020-02-09T10:40:28Z</time>
      </trkpt>
      <trkpt lat="42.69559" lon="1.64734">
        <ele>1595</ele>
        <time>2020-02-09T10:40:31Z</time>
      </trkpt>
      <trkpt lat="42.69558" lon="1.64733">
        <ele>1594.5</ele>
        <time>2020-02-09T10:40:34Z</time>
      </trkpt>
      <trkpt lat="42.69558" lon="1.64733">
        <ele>1594.5</ele>
        <time>2020-02-09T10:40:41Z</time>
      </trkpt>
      <trkpt lat="42.69558" lon="1.64733">
        <ele>1594.5</ele>
        <time>2020-02-09T10:40:51Z</time>
      </trkpt>
      <trkpt lat="42.69558" lon="1.64733">
        <ele>1594.5</ele>
        <time>2020-02-09T10:41:01Z</time>
      </trkpt>
      <trkpt lat="42.69549" lon="1.64741">
        <ele>1592.7</ele>
        <time>2020-02-09T10:41:04Z</time>
      </trkpt>
      <trkpt lat="42.69549" lon="1.64741">
        <ele>1592.7</ele>
        <time>2020-02-09T10:41:11Z</time>
      </trkpt>
      <trkpt lat="42.69549" lon="1.64741">
        <ele>1592.7</ele>
        <time>2020-02-09T10:41:21Z</time>
      </trkpt>
      <trkpt lat="42.69542" lon="1.64734">
        <ele>1592.1</ele>
        <time>2020-02-09T10:41:26Z</time>
      </trkpt>
      <trkpt lat="42.6954" lon="1.64732">
        <ele>1592.1</ele>
        <time>2020-02-09T10:41:28Z</time>
      </trkpt>
      <trkpt lat="42.6954" lon="1.64732">
        <ele>1592.1</ele>
        <time>2020-02-09T10:41:31Z</time>
      </trkpt>
      <trkpt lat="42.69535" lon="1.64731">
        <ele>1591.4</ele>
        <time>2020-02-09T10:41:34Z</time>
      </trkpt>
      <trkpt lat="42.69532" lon="1.64729">
        <ele>1590.9</ele>
        <time>2020-02-09T10:41:39Z</time>
      </trkpt>
      <trkpt lat="42.69532" lon="1.64729">
        <ele>1590.9</ele>
        <time>2020-02-09T10:41:41Z</time>
      </trkpt>
      <trkpt lat="42.69531" lon="1.64724">
        <ele>1590.6</ele>
        <time>2020-02-09T10:41:44Z</time>
      </trkpt>
      <trkpt lat="42.69531" lon="1.64724">
        <ele>1590.6</ele>
        <time>2020-02-09T10:41:51Z</time>
      </trkpt>
      <trkpt lat="42.69524" lon="1.6472">
        <ele>1589.9</ele>
        <time>2020-02-09T10:41:58Z</time>
      </trkpt>
      <trkpt lat="42.69524" lon="1.6472">
        <ele>1589.9</ele>
        <time>2020-02-09T10:42:01Z</time>
      </trkpt>
      <trkpt lat="42.69518" lon="1.64721">
        <ele>1589.5</ele>
        <time>2020-02-09T10:42:08Z</time>
      </trkpt>
      <trkpt lat="42.69518" lon="1.64721">
        <ele>1589.5</ele>
        <time>2020-02-09T10:42:11Z</time>
      </trkpt>
      <trkpt lat="42.69514" lon="1.64715">
        <ele>1589.1</ele>
        <time>2020-02-09T10:42:13Z</time>
      </trkpt>
      <trkpt lat="42.69512" lon="1.64712">
        <ele>1589.4</ele>
        <time>2020-02-09T10:42:16Z</time>
      </trkpt>
      <trkpt lat="42.69509" lon="1.64709">
        <ele>1589.4</ele>
        <time>2020-02-09T10:42:21Z</time>
      </trkpt>
      <trkpt lat="42.69507" lon="1.64705">
        <ele>1589</ele>
        <time>2020-02-09T10:42:24Z</time>
      </trkpt>
      <trkpt lat="42.69504" lon="1.64702">
        <ele>1589</ele>
        <time>2020-02-09T10:42:25Z</time>
      </trkpt>
      <trkpt lat="42.69502" lon="1.64699">
        <ele>1589.1</ele>
        <time>2020-02-09T10:42:31Z</time>
      </trkpt>
      <trkpt lat="42.69499" lon="1.64696">
        <ele>1589.1</ele>
        <time>2020-02-09T10:42:41Z</time>
      </trkpt>
      <trkpt lat="42.69496" lon="1.64693">
        <ele>1589.1</ele>
        <time>2020-02-09T10:42:43Z</time>
      </trkpt>
      <trkpt lat="42.69494" lon="1.6469">
        <ele>1589.3</ele>
        <time>2020-02-09T10:42:51Z</time>
      </trkpt>
      <trkpt lat="42.69491" lon="1.64686">
        <ele>1589.5</ele>
        <time>2020-02-09T10:42:52Z</time>
      </trkpt>
      <trkpt lat="42.69489" lon="1.64683">
        <ele>1589.6</ele>
        <time>2020-02-09T10:42:56Z</time>
      </trkpt>
      <trkpt lat="42.69486" lon="1.6468">
        <ele>1589.4</ele>
        <time>2020-02-09T10:43:00Z</time>
      </trkpt>
      <trkpt lat="42.69484" lon="1.64677">
        <ele>1589.8</ele>
        <time>2020-02-09T10:43:01Z</time>
      </trkpt>
      <trkpt lat="42.69477" lon="1.64671">
        <ele>1589.3</ele>
        <time>2020-02-09T10:43:08Z</time>
      </trkpt>
      <trkpt lat="42.69477" lon="1.64671">
        <ele>1589.3</ele>
        <time>2020-02-09T10:43:11Z</time>
      </trkpt>
      <trkpt lat="42.69468" lon="1.64666">
        <ele>1589.5</ele>
        <time>2020-02-09T10:43:15Z</time>
      </trkpt>
      <trkpt lat="42.69467" lon="1.64664">
        <ele>1589.2</ele>
        <time>2020-02-09T10:43:17Z</time>
      </trkpt>
      <trkpt lat="42.69466" lon="1.64661">
        <ele>1589.6</ele>
        <time>2020-02-09T10:43:21Z</time>
      </trkpt>
      <trkpt lat="42.69464" lon="1.64658">
        <ele>1589.3</ele>
        <time>2020-02-09T10:43:24Z</time>
      </trkpt>
      <trkpt lat="42.69463" lon="1.64656">
        <ele>1589.8</ele>
        <time>2020-02-09T10:43:27Z</time>
      </trkpt>
      <trkpt lat="42.69463" lon="1.64655">
        <ele>1589.8</ele>
        <time>2020-02-09T10:43:30Z</time>
      </trkpt>
      <trkpt lat="42.69462" lon="1.64654">
        <ele>1589.8</ele>
        <time>2020-02-09T10:43:31Z</time>
      </trkpt>
      <trkpt lat="42.69454" lon="1.64648">
        <ele>1590.1</ele>
        <time>2020-02-09T10:43:40Z</time>
      </trkpt>
      <trkpt lat="42.69454" lon="1.64648">
        <ele>1590.1</ele>
        <time>2020-02-09T10:43:41Z</time>
      </trkpt>
      <trkpt lat="42.69446" lon="1.64653">
        <ele>1588.9</ele>
        <time>2020-02-09T10:43:47Z</time>
      </trkpt>
      <trkpt lat="42.69446" lon="1.64653">
        <ele>1588.9</ele>
        <time>2020-02-09T10:43:51Z</time>
      </trkpt>
      <trkpt lat="42.69437" lon="1.64655">
        <ele>1587.5</ele>
        <time>2020-02-09T10:43:58Z</time>
      </trkpt>
      <trkpt lat="42.69437" lon="1.64655">
        <ele>1587.5</ele>
        <time>2020-02-09T10:44:01Z</time>
      </trkpt>
      <trkpt lat="42.69435" lon="1.64655">
        <ele>1587.3</ele>
        <time>2020-02-09T10:44:11Z</time>
      </trkpt>
      <trkpt lat="42.69434" lon="1.64654">
        <ele>1587.3</ele>
        <time>2020-02-09T10:44:21Z</time>
      </trkpt>
      <trkpt lat="42.69433" lon="1.64654">
        <ele>1587.3</ele>
        <time>2020-02-09T10:44:30Z</time>
      </trkpt>
      <trkpt lat="42.69432" lon="1.64653">
        <ele>1587.6</ele>
        <time>2020-02-09T10:44:31Z</time>
      </trkpt>
      <trkpt lat="42.69431" lon="1.64653">
        <ele>1587.6</ele>
        <time>2020-02-09T10:44:41Z</time>
      </trkpt>
      <trkpt lat="42.6943" lon="1.64652">
        <ele>1587.6</ele>
        <time>2020-02-09T10:44:44Z</time>
      </trkpt>
      <trkpt lat="42.69429" lon="1.64652">
        <ele>1587.4</ele>
        <time>2020-02-09T10:44:45Z</time>
      </trkpt>
      <trkpt lat="42.69428" lon="1.64652">
        <ele>1587.4</ele>
        <time>2020-02-09T10:44:48Z</time>
      </trkpt>
      <trkpt lat="42.69426" lon="1.64651">
        <ele>1587.1</ele>
        <time>2020-02-09T10:44:50Z</time>
      </trkpt>
      <trkpt lat="42.69425" lon="1.64651">
        <ele>1587.1</ele>
        <time>2020-02-09T10:44:51Z</time>
      </trkpt>
      <trkpt lat="42.69422" lon="1.64652">
        <ele>1586.9</ele>
        <time>2020-02-09T10:44:53Z</time>
      </trkpt>
      <trkpt lat="42.69421" lon="1.64653">
        <ele>1586.9</ele>
        <time>2020-02-09T10:44:55Z</time>
      </trkpt>
      <trkpt lat="42.6942" lon="1.64653">
        <ele>1586.6</ele>
        <time>2020-02-09T10:45:00Z</time>
      </trkpt>
      <trkpt lat="42.69418" lon="1.64654">
        <ele>1586</ele>
        <time>2020-02-09T10:45:01Z</time>
      </trkpt>
      <trkpt lat="42.69416" lon="1.64656">
        <ele>1585.7</ele>
        <time>2020-02-09T10:45:03Z</time>
      </trkpt>
      <trkpt lat="42.69415" lon="1.64657">
        <ele>1585.7</ele>
        <time>2020-02-09T10:45:04Z</time>
      </trkpt>
      <trkpt lat="42.69413" lon="1.64659">
        <ele>1584.9</ele>
        <time>2020-02-09T10:45:08Z</time>
      </trkpt>
      <trkpt lat="42.69413" lon="1.64659">
        <ele>1584.9</ele>
        <time>2020-02-09T10:45:11Z</time>
      </trkpt>
      <trkpt lat="42.69411" lon="1.6466">
        <ele>1584.9</ele>
        <time>2020-02-09T10:45:13Z</time>
      </trkpt>
      <trkpt lat="42.69413" lon="1.64662">
        <ele>1584.3</ele>
        <time>2020-02-09T10:45:20Z</time>
      </trkpt>
      <trkpt lat="42.69413" lon="1.64662">
        <ele>1584.3</ele>
        <time>2020-02-09T10:45:21Z</time>
      </trkpt>
      <trkpt lat="42.69411" lon="1.64665">
        <ele>1584.3</ele>
        <time>2020-02-09T10:45:27Z</time>
      </trkpt>
      <trkpt lat="42.69411" lon="1.64666">
        <ele>1584.1</ele>
        <time>2020-02-09T10:45:30Z</time>
      </trkpt>
      <trkpt lat="42.6941" lon="1.64667">
        <ele>1583.5</ele>
        <time>2020-02-09T10:45:31Z</time>
      </trkpt>
      <trkpt lat="42.69407" lon="1.6467">
        <ele>1583.4</ele>
        <time>2020-02-09T10:45:32Z</time>
      </trkpt>
      <trkpt lat="42.69406" lon="1.64671">
        <ele>1582.8</ele>
        <time>2020-02-09T10:45:36Z</time>
      </trkpt>
      <trkpt lat="42.69405" lon="1.64672">
        <ele>1582.8</ele>
        <time>2020-02-09T10:45:40Z</time>
      </trkpt>
      <trkpt lat="42.69404" lon="1.64672">
        <ele>1582.8</ele>
        <time>2020-02-09T10:45:41Z</time>
      </trkpt>
      <trkpt lat="42.69402" lon="1.64674">
        <ele>1582.6</ele>
        <time>2020-02-09T10:45:45Z</time>
      </trkpt>
      <trkpt lat="42.694" lon="1.64674">
        <ele>1582.5</ele>
        <time>2020-02-09T10:45:48Z</time>
      </trkpt>
      <trkpt lat="42.694" lon="1.64674">
        <ele>1582.5</ele>
        <time>2020-02-09T10:45:51Z</time>
      </trkpt>
      <trkpt lat="42.6939" lon="1.64672">
        <ele>1581.9</ele>
        <time>2020-02-09T10:45:58Z</time>
      </trkpt>
      <trkpt lat="42.6939" lon="1.64672">
        <ele>1581.9</ele>
        <time>2020-02-09T10:46:01Z</time>
      </trkpt>
      <trkpt lat="42.69382" lon="1.64677">
        <ele>1580.4</ele>
        <time>2020-02-09T10:46:02Z</time>
      </trkpt>
      <trkpt lat="42.69378" lon="1.64675">
        <ele>1581.1</ele>
        <time>2020-02-09T10:46:08Z</time>
      </trkpt>
      <trkpt lat="42.69376" lon="1.64676">
        <ele>1580</ele>
        <time>2020-02-09T10:46:09Z</time>
      </trkpt>
      <trkpt lat="42.69376" lon="1.64676">
        <ele>1580</ele>
        <time>2020-02-09T10:46:11Z</time>
      </trkpt>
      <trkpt lat="42.69374" lon="1.64678">
        <ele>1580</ele>
        <time>2020-02-09T10:46:14Z</time>
      </trkpt>
      <trkpt lat="42.69372" lon="1.64679">
        <ele>1578.8</ele>
        <time>2020-02-09T10:46:19Z</time>
      </trkpt>
      <trkpt lat="42.69372" lon="1.64679">
        <ele>1578.8</ele>
        <time>2020-02-09T10:46:21Z</time>
      </trkpt>
      <trkpt lat="42.69369" lon="1.64683">
        <ele>1578.5</ele>
        <time>2020-02-09T10:46:23Z</time>
      </trkpt>
      <trkpt lat="42.69367" lon="1.64682">
        <ele>1578.7</ele>
        <time>2020-02-09T10:46:28Z</time>
      </trkpt>
      <trkpt lat="42.69366" lon="1.64681">
        <ele>1578.5</ele>
        <time>2020-02-09T10:46:31Z</time>
      </trkpt>
      <trkpt lat="42.69363" lon="1.6468">
        <ele>1578.4</ele>
        <time>2020-02-09T10:46:36Z</time>
      </trkpt>
      <trkpt lat="42.69363" lon="1.6468">
        <ele>1578.5</ele>
        <time>2020-02-09T10:46:41Z</time>
      </trkpt>
      <trkpt lat="42.6936" lon="1.64679">
        <ele>1579.8</ele>
        <time>2020-02-09T10:46:42Z</time>
      </trkpt>
      <trkpt lat="42.69358" lon="1.6468">
        <ele>1578.6</ele>
        <time>2020-02-09T10:46:51Z</time>
      </trkpt>
      <trkpt lat="42.69361" lon="1.6468">
        <ele>1579</ele>
        <time>2020-02-09T10:46:55Z</time>
      </trkpt>
      <trkpt lat="42.69361" lon="1.6468">
        <ele>1579.2</ele>
        <time>2020-02-09T10:47:01Z</time>
      </trkpt>
      <trkpt lat="42.69357" lon="1.64681">
        <ele>1578.8</ele>
        <time>2020-02-09T10:47:09Z</time>
      </trkpt>
      <trkpt lat="42.69357" lon="1.64681">
        <ele>1578.9</ele>
        <time>2020-02-09T10:47:11Z</time>
      </trkpt>
      <trkpt lat="42.69356" lon="1.64683">
        <ele>1579.1</ele>
        <time>2020-02-09T10:47:18Z</time>
      </trkpt>
      <trkpt lat="42.69356" lon="1.64683">
        <ele>1579.2</ele>
        <time>2020-02-09T10:47:21Z</time>
      </trkpt>
      <trkpt lat="42.69357" lon="1.64688">
        <ele>1576.9</ele>
        <time>2020-02-09T10:47:25Z</time>
      </trkpt>
      <trkpt lat="42.69357" lon="1.64688">
        <ele>1577.1</ele>
        <time>2020-02-09T10:47:31Z</time>
      </trkpt>
      <trkpt lat="42.69357" lon="1.64692">
        <ele>1577.2</ele>
        <time>2020-02-09T10:47:32Z</time>
      </trkpt>
      <trkpt lat="42.69357" lon="1.64694">
        <ele>1576.5</ele>
        <time>2020-02-09T10:47:34Z</time>
      </trkpt>
      <trkpt lat="42.69358" lon="1.64697">
        <ele>1575.5</ele>
        <time>2020-02-09T10:47:38Z</time>
      </trkpt>
      <trkpt lat="42.69358" lon="1.64697">
        <ele>1575.6</ele>
        <time>2020-02-09T10:47:41Z</time>
      </trkpt>
      <trkpt lat="42.6936" lon="1.64698">
        <ele>1576.2</ele>
        <time>2020-02-09T10:47:49Z</time>
      </trkpt>
      <trkpt lat="42.6936" lon="1.64698">
        <ele>1576.3</ele>
        <time>2020-02-09T10:47:51Z</time>
      </trkpt>
      <trkpt lat="42.6936" lon="1.64698">
        <ele>1576.5</ele>
        <time>2020-02-09T10:48:01Z</time>
      </trkpt>
      <trkpt lat="42.6936" lon="1.64698">
        <ele>1576.7</ele>
        <time>2020-02-09T10:48:11Z</time>
      </trkpt>
      <trkpt lat="42.69365" lon="1.64693">
        <ele>1578.4</ele>
        <time>2020-02-09T10:48:21Z</time>
      </trkpt>
      <trkpt lat="42.69365" lon="1.64693">
        <ele>1578.6</ele>
        <time>2020-02-09T10:48:31Z</time>
      </trkpt>
      <trkpt lat="42.6936" lon="1.64681">
        <ele>1581.6</ele>
        <time>2020-02-09T10:48:41Z</time>
      </trkpt>
      <trkpt lat="42.6936" lon="1.64681">
        <ele>1581.8</ele>
        <time>2020-02-09T10:48:51Z</time>
      </trkpt>
      <trkpt lat="42.69361" lon="1.64695">
        <ele>1578.7</ele>
        <time>2020-02-09T10:48:54Z</time>
      </trkpt>
      <trkpt lat="42.69354" lon="1.64703">
        <ele>1575.2</ele>
        <time>2020-02-09T10:49:01Z</time>
      </trkpt>
      <trkpt lat="42.69354" lon="1.64703">
        <ele>1575.4</ele>
        <time>2020-02-09T10:49:11Z</time>
      </trkpt>
      <trkpt lat="42.69354" lon="1.64703">
        <ele>1575.6</ele>
        <time>2020-02-09T10:49:21Z</time>
      </trkpt>
      <trkpt lat="42.69354" lon="1.64703">
        <ele>1575.7</ele>
        <time>2020-02-09T10:49:31Z</time>
      </trkpt>
      <trkpt lat="42.69354" lon="1.64703">
        <ele>1575.9</ele>
        <time>2020-02-09T10:49:41Z</time>
      </trkpt>
      <trkpt lat="42.6936" lon="1.64692">
        <ele>1580.8</ele>
        <time>2020-02-09T10:49:47Z</time>
      </trkpt>
      <trkpt lat="42.6936" lon="1.64692">
        <ele>1581</ele>
        <time>2020-02-09T10:49:51Z</time>
      </trkpt>
      <trkpt lat="42.6936" lon="1.64692">
        <ele>1581.2</ele>
        <time>2020-02-09T10:50:01Z</time>
      </trkpt>
      <trkpt lat="42.6936" lon="1.64692">
        <ele>1581.3</ele>
        <time>2020-02-09T10:50:11Z</time>
      </trkpt>
      <trkpt lat="42.6936" lon="1.64692">
        <ele>1581.5</ele>
        <time>2020-02-09T10:50:21Z</time>
      </trkpt>
      <trkpt lat="42.6936" lon="1.64692">
        <ele>1581.7</ele>
        <time>2020-02-09T10:50:31Z</time>
      </trkpt>
      <trkpt lat="42.6936" lon="1.64692">
        <ele>1581.8</ele>
        <time>2020-02-09T10:50:41Z</time>
      </trkpt>
      <trkpt lat="42.6936" lon="1.64692">
        <ele>1582</ele>
        <time>2020-02-09T10:50:51Z</time>
      </trkpt>
      <trkpt lat="42.6936" lon="1.64692">
        <ele>1582.1</ele>
        <time>2020-02-09T10:51:01Z</time>
      </trkpt>
      <trkpt lat="42.69367" lon="1.64682">
        <ele>1585.3</ele>
        <time>2020-02-09T10:51:07Z</time>
      </trkpt>
      <trkpt lat="42.69367" lon="1.64682">
        <ele>1585.5</ele>
        <time>2020-02-09T10:51:11Z</time>
      </trkpt>
      <trkpt lat="42.69367" lon="1.64682">
        <ele>1585.6</ele>
        <time>2020-02-09T10:51:21Z</time>
      </trkpt>
      <trkpt lat="42.69363" lon="1.64671">
        <ele>1587.3</ele>
        <time>2020-02-09T10:51:25Z</time>
      </trkpt>
      <trkpt lat="42.69363" lon="1.64671">
        <ele>1587.5</ele>
        <time>2020-02-09T10:51:31Z</time>
      </trkpt>
      <trkpt lat="42.69363" lon="1.64671">
        <ele>1587.6</ele>
        <time>2020-02-09T10:51:41Z</time>
      </trkpt>
      <trkpt lat="42.69358" lon="1.64682">
        <ele>1585.4</ele>
        <time>2020-02-09T10:51:47Z</time>
      </trkpt>
      <trkpt lat="42.69358" lon="1.64682">
        <ele>1585.5</ele>
        <time>2020-02-09T10:51:51Z</time>
      </trkpt>
      <trkpt lat="42.69358" lon="1.64682">
        <ele>1585.7</ele>
        <time>2020-02-09T10:52:01Z</time>
      </trkpt>
      <trkpt lat="42.69358" lon="1.64682">
        <ele>1585.9</ele>
        <time>2020-02-09T10:52:11Z</time>
      </trkpt>
      <trkpt lat="42.69358" lon="1.64682">
        <ele>1586</ele>
        <time>2020-02-09T10:52:21Z</time>
      </trkpt>
      <trkpt lat="42.69361" lon="1.64684">
        <ele>1585.3</ele>
        <time>2020-02-09T10:52:30Z</time>
      </trkpt>
      <trkpt lat="42.69361" lon="1.64684">
        <ele>1585.4</ele>
        <time>2020-02-09T10:52:31Z</time>
      </trkpt>
      <trkpt lat="42.69361" lon="1.64684">
        <ele>1585.6</ele>
        <time>2020-02-09T10:52:41Z</time>
      </trkpt>
      <trkpt lat="42.69361" lon="1.64686">
        <ele>1585.8</ele>
        <time>2020-02-09T10:52:44Z</time>
      </trkpt>
      <trkpt lat="42.69361" lon="1.64686">
        <ele>1585.9</ele>
        <time>2020-02-09T10:52:51Z</time>
      </trkpt>
      <trkpt lat="42.69361" lon="1.64686">
        <ele>1586.1</ele>
        <time>2020-02-09T10:53:01Z</time>
      </trkpt>
      <trkpt lat="42.69361" lon="1.64686">
        <ele>1586.3</ele>
        <time>2020-02-09T10:53:11Z</time>
      </trkpt>
      <trkpt lat="42.69363" lon="1.64686">
        <ele>1586.4</ele>
        <time>2020-02-09T10:53:17Z</time>
      </trkpt>
      <trkpt lat="42.69363" lon="1.64686">
        <ele>1586.6</ele>
        <time>2020-02-09T10:53:21Z</time>
      </trkpt>
      <trkpt lat="42.69363" lon="1.64686">
        <ele>1586.7</ele>
        <time>2020-02-09T10:53:31Z</time>
      </trkpt>
      <trkpt lat="42.69365" lon="1.64684">
        <ele>1587.3</ele>
        <time>2020-02-09T10:53:37Z</time>
      </trkpt>
      <trkpt lat="42.69365" lon="1.64684">
        <ele>1587.4</ele>
        <time>2020-02-09T10:53:41Z</time>
      </trkpt>
      <trkpt lat="42.69364" lon="1.64686">
        <ele>1587.6</ele>
        <time>2020-02-09T10:53:43Z</time>
      </trkpt>
      <trkpt lat="42.69364" lon="1.64686">
        <ele>1587.8</ele>
        <time>2020-02-09T10:53:51Z</time>
      </trkpt>
      <trkpt lat="42.69366" lon="1.64689">
        <ele>1586.8</ele>
        <time>2020-02-09T10:54:00Z</time>
      </trkpt>
      <trkpt lat="42.69366" lon="1.64689">
        <ele>1586.9</ele>
        <time>2020-02-09T10:54:01Z</time>
      </trkpt>
      <trkpt lat="42.69366" lon="1.64689">
        <ele>1587.1</ele>
        <time>2020-02-09T10:54:11Z</time>
      </trkpt>
      <trkpt lat="42.69366" lon="1.64689">
        <ele>1587.2</ele>
        <time>2020-02-09T10:54:21Z</time>
      </trkpt>
      <trkpt lat="42.69366" lon="1.64692">
        <ele>1587.4</ele>
        <time>2020-02-09T10:54:29Z</time>
      </trkpt>
      <trkpt lat="42.69366" lon="1.64692">
        <ele>1587.6</ele>
        <time>2020-02-09T10:54:31Z</time>
      </trkpt>
      <trkpt lat="42.69365" lon="1.64694">
        <ele>1586.5</ele>
        <time>2020-02-09T10:54:35Z</time>
      </trkpt>
      <trkpt lat="42.69365" lon="1.64694">
        <ele>1586.7</ele>
        <time>2020-02-09T10:54:41Z</time>
      </trkpt>
      <trkpt lat="42.69366" lon="1.64692">
        <ele>1588</ele>
        <time>2020-02-09T10:54:47Z</time>
      </trkpt>
      <trkpt lat="42.69366" lon="1.64692">
        <ele>1588.2</ele>
        <time>2020-02-09T10:54:51Z</time>
      </trkpt>
      <trkpt lat="42.69367" lon="1.64689">
        <ele>1588.7</ele>
        <time>2020-02-09T10:54:53Z</time>
      </trkpt>
      <trkpt lat="42.69367" lon="1.64689">
        <ele>1588.8</ele>
        <time>2020-02-09T10:55:01Z</time>
      </trkpt>
      <trkpt lat="42.69365" lon="1.64691">
        <ele>1588.7</ele>
        <time>2020-02-09T10:55:09Z</time>
      </trkpt>
      <trkpt lat="42.69365" lon="1.64691">
        <ele>1588.9</ele>
        <time>2020-02-09T10:55:11Z</time>
      </trkpt>
      <trkpt lat="42.69364" lon="1.64693">
        <ele>1587.8</ele>
        <time>2020-02-09T10:55:20Z</time>
      </trkpt>
      <trkpt lat="42.69364" lon="1.64693">
        <ele>1588</ele>
        <time>2020-02-09T10:55:21Z</time>
      </trkpt>
      <trkpt lat="42.69364" lon="1.64693">
        <ele>1588.1</ele>
        <time>2020-02-09T10:55:31Z</time>
      </trkpt>
      <trkpt lat="42.69364" lon="1.64693">
        <ele>1588.3</ele>
        <time>2020-02-09T10:55:41Z</time>
      </trkpt>
      <trkpt lat="42.69364" lon="1.64693">
        <ele>1588.5</ele>
        <time>2020-02-09T10:55:51Z</time>
      </trkpt>
      <trkpt lat="42.69363" lon="1.64695">
        <ele>1588.2</ele>
        <time>2020-02-09T10:55:57Z</time>
      </trkpt>
      <trkpt lat="42.69363" lon="1.64695">
        <ele>1588.4</ele>
        <time>2020-02-09T10:56:01Z</time>
      </trkpt>
      <trkpt lat="42.69363" lon="1.64698">
        <ele>1587.4</ele>
        <time>2020-02-09T10:56:06Z</time>
      </trkpt>
      <trkpt lat="42.69363" lon="1.64698">
        <ele>1587.5</ele>
        <time>2020-02-09T10:56:11Z</time>
      </trkpt>
      <trkpt lat="42.69363" lon="1.64698">
        <ele>1587.7</ele>
        <time>2020-02-09T10:56:21Z</time>
      </trkpt>
      <trkpt lat="42.69363" lon="1.647">
        <ele>1587.8</ele>
        <time>2020-02-09T10:56:24Z</time>
      </trkpt>
      <trkpt lat="42.69363" lon="1.647">
        <ele>1588</ele>
        <time>2020-02-09T10:56:31Z</time>
      </trkpt>
      <trkpt lat="42.6936" lon="1.64701">
        <ele>1587</ele>
        <time>2020-02-09T10:56:36Z</time>
      </trkpt>
      <trkpt lat="42.6936" lon="1.64701">
        <ele>1587.1</ele>
        <time>2020-02-09T10:56:41Z</time>
      </trkpt>
      <trkpt lat="42.6936" lon="1.64701">
        <ele>1587.3</ele>
        <time>2020-02-09T10:56:51Z</time>
      </trkpt>
      <trkpt lat="42.69361" lon="1.64698">
        <ele>1588.7</ele>
        <time>2020-02-09T10:57:01Z</time>
      </trkpt>
      <trkpt lat="42.69361" lon="1.64698">
        <ele>1588.8</ele>
        <time>2020-02-09T10:57:11Z</time>
      </trkpt>
      <trkpt lat="42.69361" lon="1.64698">
        <ele>1589</ele>
        <time>2020-02-09T10:57:21Z</time>
      </trkpt>
      <trkpt lat="42.69361" lon="1.64696">
        <ele>1590.3</ele>
        <time>2020-02-09T10:57:27Z</time>
      </trkpt>
      <trkpt lat="42.69361" lon="1.64696">
        <ele>1590.5</ele>
        <time>2020-02-09T10:57:31Z</time>
      </trkpt>
      <trkpt lat="42.69361" lon="1.64696">
        <ele>1590.5</ele>
        <time>2020-02-09T10:57:41Z</time>
      </trkpt>
      <trkpt lat="42.69361" lon="1.64696">
        <ele>1590.5</ele>
        <time>2020-02-09T10:57:51Z</time>
      </trkpt>
      <trkpt lat="42.69365" lon="1.64687">
        <ele>1593.3</ele>
        <time>2020-02-09T10:57:54Z</time>
      </trkpt>
      <trkpt lat="42.69365" lon="1.64687">
        <ele>1593.3</ele>
        <time>2020-02-09T10:58:01Z</time>
      </trkpt>
      <trkpt lat="42.69365" lon="1.64687">
        <ele>1593.3</ele>
        <time>2020-02-09T10:58:11Z</time>
      </trkpt>
      <trkpt lat="42.69365" lon="1.64687">
        <ele>1593.3</ele>
        <time>2020-02-09T10:58:21Z</time>
      </trkpt>
      <trkpt lat="42.69365" lon="1.64687">
        <ele>1593.3</ele>
        <time>2020-02-09T10:58:31Z</time>
      </trkpt>
      <trkpt lat="42.69365" lon="1.64687">
        <ele>1593.3</ele>
        <time>2020-02-09T10:58:41Z</time>
      </trkpt>
      <trkpt lat="42.69365" lon="1.64687">
        <ele>1593.3</ele>
        <time>2020-02-09T10:58:51Z</time>
      </trkpt>
      <trkpt lat="42.69365" lon="1.64687">
        <ele>1593.3</ele>
        <time>2020-02-09T10:59:01Z</time>
      </trkpt>
      <trkpt lat="42.69361" lon="1.64695">
        <ele>1590.5</ele>
        <time>2020-02-09T10:59:10Z</time>
      </trkpt>
      <trkpt lat="42.69361" lon="1.64695">
        <ele>1590.5</ele>
        <time>2020-02-09T10:59:11Z</time>
      </trkpt>
      <trkpt lat="42.69361" lon="1.64695">
        <ele>1590.5</ele>
        <time>2020-02-09T10:59:21Z</time>
      </trkpt>
      <trkpt lat="42.69361" lon="1.64695">
        <ele>1590.5</ele>
        <time>2020-02-09T10:59:31Z</time>
      </trkpt>
      <trkpt lat="42.69361" lon="1.64695">
        <ele>1590.5</ele>
        <time>2020-02-09T10:59:41Z</time>
      </trkpt>
      <trkpt lat="42.69361" lon="1.64695">
        <ele>1590.5</ele>
        <time>2020-02-09T10:59:51Z</time>
      </trkpt>
      <trkpt lat="42.69361" lon="1.64695">
        <ele>1590.5</ele>
        <time>2020-02-09T11:00:01Z</time>
      </trkpt>
      <trkpt lat="42.69361" lon="1.64695">
        <ele>1590.5</ele>
        <time>2020-02-09T11:00:11Z</time>
      </trkpt>
      <trkpt lat="42.69361" lon="1.64695">
        <ele>1590.5</ele>
        <time>2020-02-09T11:00:21Z</time>
      </trkpt>
      <trkpt lat="42.69361" lon="1.64695">
        <ele>1590.5</ele>
        <time>2020-02-09T11:00:31Z</time>
      </trkpt>
      <trkpt lat="42.69361" lon="1.64695">
        <ele>1590.5</ele>
        <time>2020-02-09T11:00:41Z</time>
      </trkpt>
      <trkpt lat="42.69361" lon="1.64695">
        <ele>1590.5</ele>
        <time>2020-02-09T11:00:51Z</time>
      </trkpt>
      <trkpt lat="42.69361" lon="1.64695">
        <ele>1590.5</ele>
        <time>2020-02-09T11:01:01Z</time>
      </trkpt>
      <trkpt lat="42.69361" lon="1.64695">
        <ele>1590.5</ele>
        <time>2020-02-09T11:01:11Z</time>
      </trkpt>
      <trkpt lat="42.69361" lon="1.64695">
        <ele>1590.5</ele>
        <time>2020-02-09T11:01:21Z</time>
      </trkpt>
      <trkpt lat="42.69361" lon="1.64695">
        <ele>1590.5</ele>
        <time>2020-02-09T11:01:31Z</time>
      </trkpt>
      <trkpt lat="42.69361" lon="1.64695">
        <ele>1590.5</ele>
        <time>2020-02-09T11:01:41Z</time>
      </trkpt>
      <trkpt lat="42.69364" lon="1.6469">
        <ele>1592.1</ele>
        <time>2020-02-09T11:03:26Z</time>
      </trkpt>
      <trkpt lat="42.69364" lon="1.6469">
        <ele>1592.1</ele>
        <time>2020-02-09T11:03:33Z</time>
      </trkpt>
      <trkpt lat="42.69364" lon="1.6469">
        <ele>1592.1</ele>
        <time>2020-02-09T11:03:43Z</time>
      </trkpt>
      <trkpt lat="42.69362" lon="1.64691">
        <ele>1591.7</ele>
        <time>2020-02-09T11:03:48Z</time>
      </trkpt>
      <trkpt lat="42.69362" lon="1.64691">
        <ele>1591.7</ele>
        <time>2020-02-09T11:03:53Z</time>
      </trkpt>
      <trkpt lat="42.69362" lon="1.64691">
        <ele>1591.7</ele>
        <time>2020-02-09T11:04:03Z</time>
      </trkpt>
      <trkpt lat="42.69362" lon="1.64691">
        <ele>1591.7</ele>
        <time>2020-02-09T11:04:13Z</time>
      </trkpt>
      <trkpt lat="42.69362" lon="1.64691">
        <ele>1591.7</ele>
        <time>2020-02-09T11:04:23Z</time>
      </trkpt>
      <trkpt lat="42.69362" lon="1.64691">
        <ele>1591.7</ele>
        <time>2020-02-09T11:04:33Z</time>
      </trkpt>
      <trkpt lat="42.69362" lon="1.64691">
        <ele>1591.7</ele>
        <time>2020-02-09T11:04:43Z</time>
      </trkpt>
      <trkpt lat="42.69362" lon="1.64691">
        <ele>1591.7</ele>
        <time>2020-02-09T11:04:53Z</time>
      </trkpt>
      <trkpt lat="42.69362" lon="1.64691">
        <ele>1591.7</ele>
        <time>2020-02-09T11:05:03Z</time>
      </trkpt>
      <trkpt lat="42.69365" lon="1.64686">
        <ele>1593.3</ele>
        <time>2020-02-09T11:05:10Z</time>
      </trkpt>
      <trkpt lat="42.69365" lon="1.64686">
        <ele>1593.3</ele>
        <time>2020-02-09T11:05:13Z</time>
      </trkpt>
      <trkpt lat="42.69365" lon="1.64686">
        <ele>1593.3</ele>
        <time>2020-02-09T11:05:23Z</time>
      </trkpt>
      <trkpt lat="42.69365" lon="1.64686">
        <ele>1593.3</ele>
        <time>2020-02-09T11:05:33Z</time>
      </trkpt>
      <trkpt lat="42.69365" lon="1.64686">
        <ele>1593.3</ele>
        <time>2020-02-09T11:05:43Z</time>
      </trkpt>
      <trkpt lat="42.69365" lon="1.64686">
        <ele>1593.3</ele>
        <time>2020-02-09T11:05:53Z</time>
      </trkpt>
      <trkpt lat="42.69365" lon="1.64686">
        <ele>1593.3</ele>
        <time>2020-02-09T11:06:03Z</time>
      </trkpt>
      <trkpt lat="42.69365" lon="1.64686">
        <ele>1593.3</ele>
        <time>2020-02-09T11:06:13Z</time>
      </trkpt>
      <trkpt lat="42.69365" lon="1.64686">
        <ele>1593.3</ele>
        <time>2020-02-09T11:06:23Z</time>
      </trkpt>
      <trkpt lat="42.69365" lon="1.64686">
        <ele>1593.3</ele>
        <time>2020-02-09T11:06:33Z</time>
      </trkpt>
      <trkpt lat="42.69365" lon="1.64686">
        <ele>1593.3</ele>
        <time>2020-02-09T11:06:43Z</time>
      </trkpt>
      <trkpt lat="42.69366" lon="1.64673">
        <ele>1596.5</ele>
        <time>2020-02-09T11:06:45Z</time>
      </trkpt>
      <trkpt lat="42.69366" lon="1.64673">
        <ele>1596.5</ele>
        <time>2020-02-09T11:06:53Z</time>
      </trkpt>
      <trkpt lat="42.69366" lon="1.64673">
        <ele>1596.5</ele>
        <time>2020-02-09T11:07:03Z</time>
      </trkpt>
      <trkpt lat="42.69364" lon="1.64681">
        <ele>1594.4</ele>
        <time>2020-02-09T11:07:08Z</time>
      </trkpt>
      <trkpt lat="42.69364" lon="1.64681">
        <ele>1594.4</ele>
        <time>2020-02-09T11:07:13Z</time>
      </trkpt>
      <trkpt lat="42.69364" lon="1.64681">
        <ele>1594.4</ele>
        <time>2020-02-09T11:07:23Z</time>
      </trkpt>
      <trkpt lat="42.69364" lon="1.64681">
        <ele>1594.4</ele>
        <time>2020-02-09T11:07:33Z</time>
      </trkpt>
      <trkpt lat="42.69364" lon="1.64681">
        <ele>1594.4</ele>
        <time>2020-02-09T11:07:43Z</time>
      </trkpt>
      <trkpt lat="42.69356" lon="1.64673">
        <ele>1595.7</ele>
        <time>2020-02-09T11:07:47Z</time>
      </trkpt>
      <trkpt lat="42.69356" lon="1.64673">
        <ele>1595.7</ele>
        <time>2020-02-09T11:07:53Z</time>
      </trkpt>
      <trkpt lat="42.69356" lon="1.64673">
        <ele>1595.7</ele>
        <time>2020-02-09T11:08:03Z</time>
      </trkpt>
      <trkpt lat="42.69356" lon="1.64673">
        <ele>1595.7</ele>
        <time>2020-02-09T11:08:13Z</time>
      </trkpt>
      <trkpt lat="42.69348" lon="1.6468">
        <ele>1592.9</ele>
        <time>2020-02-09T11:08:15Z</time>
      </trkpt>
      <trkpt lat="42.69348" lon="1.6468">
        <ele>1592.9</ele>
        <time>2020-02-09T11:08:23Z</time>
      </trkpt>
      <trkpt lat="42.69348" lon="1.6468">
        <ele>1592.9</ele>
        <time>2020-02-09T11:08:33Z</time>
      </trkpt>
      <trkpt lat="42.69348" lon="1.6468">
        <ele>1592.9</ele>
        <time>2020-02-09T11:08:43Z</time>
      </trkpt>
      <trkpt lat="42.69339" lon="1.64676">
        <ele>1593.3</ele>
        <time>2020-02-09T11:08:44Z</time>
      </trkpt>
      <trkpt lat="42.69339" lon="1.64676">
        <ele>1593.3</ele>
        <time>2020-02-09T11:08:53Z</time>
      </trkpt>
      <trkpt lat="42.69328" lon="1.64674">
        <ele>1593.2</ele>
        <time>2020-02-09T11:08:59Z</time>
      </trkpt>
      <trkpt lat="42.69328" lon="1.64674">
        <ele>1593.2</ele>
        <time>2020-02-09T11:09:03Z</time>
      </trkpt>
      <trkpt lat="42.69319" lon="1.64677">
        <ele>1590.8</ele>
        <time>2020-02-09T11:09:06Z</time>
      </trkpt>
      <trkpt lat="42.69319" lon="1.64677">
        <ele>1590.8</ele>
        <time>2020-02-09T11:09:13Z</time>
      </trkpt>
      <trkpt lat="42.69319" lon="1.64677">
        <ele>1590.8</ele>
        <time>2020-02-09T11:09:23Z</time>
      </trkpt>
      <trkpt lat="42.69309" lon="1.64679">
        <ele>1587.9</ele>
        <time>2020-02-09T11:09:30Z</time>
      </trkpt>
      <trkpt lat="42.69309" lon="1.64679">
        <ele>1587.9</ele>
        <time>2020-02-09T11:09:33Z</time>
      </trkpt>
      <trkpt lat="42.69302" lon="1.6467">
        <ele>1590.5</ele>
        <time>2020-02-09T11:09:41Z</time>
      </trkpt>
      <trkpt lat="42.69302" lon="1.6467">
        <ele>1590.5</ele>
        <time>2020-02-09T11:09:43Z</time>
      </trkpt>
      <trkpt lat="42.69302" lon="1.6467">
        <ele>1590.5</ele>
        <time>2020-02-09T11:09:53Z</time>
      </trkpt>
      <trkpt lat="42.69294" lon="1.64664">
        <ele>1590.5</ele>
        <time>2020-02-09T11:09:54Z</time>
      </trkpt>
      <trkpt lat="42.69294" lon="1.64664">
        <ele>1590.5</ele>
        <time>2020-02-09T11:10:03Z</time>
      </trkpt>
      <trkpt lat="42.69294" lon="1.64664">
        <ele>1590.5</ele>
        <time>2020-02-09T11:10:13Z</time>
      </trkpt>
      <trkpt lat="42.69284" lon="1.64658">
        <ele>1590.5</ele>
        <time>2020-02-09T11:10:17Z</time>
      </trkpt>
      <trkpt lat="42.69274" lon="1.64658">
        <ele>1586.7</ele>
        <time>2020-02-09T11:10:23Z</time>
      </trkpt>
      <trkpt lat="42.69265" lon="1.64656">
        <ele>1586</ele>
        <time>2020-02-09T11:10:30Z</time>
      </trkpt>
      <trkpt lat="42.69265" lon="1.64656">
        <ele>1586</ele>
        <time>2020-02-09T11:10:33Z</time>
      </trkpt>
      <trkpt lat="42.69257" lon="1.6465">
        <ele>1586.1</ele>
        <time>2020-02-09T11:10:43Z</time>
      </trkpt>
      <trkpt lat="42.69257" lon="1.6465">
        <ele>1586.1</ele>
        <time>2020-02-09T11:10:53Z</time>
      </trkpt>
      <trkpt lat="42.69256" lon="1.64638">
        <ele>1590.2</ele>
        <time>2020-02-09T11:10:56Z</time>
      </trkpt>
      <trkpt lat="42.69256" lon="1.64638">
        <ele>1590.2</ele>
        <time>2020-02-09T11:11:03Z</time>
      </trkpt>
      <trkpt lat="42.69256" lon="1.64638">
        <ele>1590.2</ele>
        <time>2020-02-09T11:11:13Z</time>
      </trkpt>
      <trkpt lat="42.69247" lon="1.64633">
        <ele>1589.7</ele>
        <time>2020-02-09T11:11:20Z</time>
      </trkpt>
      <trkpt lat="42.69247" lon="1.64633">
        <ele>1589.7</ele>
        <time>2020-02-09T11:11:23Z</time>
      </trkpt>
      <trkpt lat="42.69247" lon="1.64633">
        <ele>1589.7</ele>
        <time>2020-02-09T11:11:33Z</time>
      </trkpt>
      <trkpt lat="42.69247" lon="1.64633">
        <ele>1589.7</ele>
        <time>2020-02-09T11:11:43Z</time>
      </trkpt>
      <trkpt lat="42.69237" lon="1.64636">
        <ele>1588.5</ele>
        <time>2020-02-09T11:11:48Z</time>
      </trkpt>
      <trkpt lat="42.69237" lon="1.64636">
        <ele>1588.5</ele>
        <time>2020-02-09T11:11:53Z</time>
      </trkpt>
      <trkpt lat="42.69237" lon="1.64636">
        <ele>1588.5</ele>
        <time>2020-02-09T11:12:03Z</time>
      </trkpt>
      <trkpt lat="42.69237" lon="1.64636">
        <ele>1588.5</ele>
        <time>2020-02-09T11:12:13Z</time>
      </trkpt>
      <trkpt lat="42.69237" lon="1.64636">
        <ele>1588.5</ele>
        <time>2020-02-09T11:12:23Z</time>
      </trkpt>
      <trkpt lat="42.6923" lon="1.64628">
        <ele>1588.2</ele>
        <time>2020-02-09T11:12:24Z</time>
      </trkpt>
      <trkpt lat="42.6923" lon="1.64628">
        <ele>1588.2</ele>
        <time>2020-02-09T11:12:33Z</time>
      </trkpt>
      <trkpt lat="42.6923" lon="1.64628">
        <ele>1588.2</ele>
        <time>2020-02-09T11:12:43Z</time>
      </trkpt>
      <trkpt lat="42.69222" lon="1.64634">
        <ele>1585.5</ele>
        <time>2020-02-09T11:12:45Z</time>
      </trkpt>
      <trkpt lat="42.69222" lon="1.64634">
        <ele>1585.5</ele>
        <time>2020-02-09T11:12:53Z</time>
      </trkpt>
      <trkpt lat="42.69213" lon="1.64637">
        <ele>1582.3</ele>
        <time>2020-02-09T11:12:58Z</time>
      </trkpt>
      <trkpt lat="42.69213" lon="1.64637">
        <ele>1582.3</ele>
        <time>2020-02-09T11:13:03Z</time>
      </trkpt>
      <trkpt lat="42.69213" lon="1.64637">
        <ele>1582.3</ele>
        <time>2020-02-09T11:13:13Z</time>
      </trkpt>
      <trkpt lat="42.69213" lon="1.64637">
        <ele>1582.3</ele>
        <time>2020-02-09T11:13:23Z</time>
      </trkpt>
      <trkpt lat="42.69204" lon="1.64638">
        <ele>1580.8</ele>
        <time>2020-02-09T11:13:28Z</time>
      </trkpt>
      <trkpt lat="42.69204" lon="1.64638">
        <ele>1580.8</ele>
        <time>2020-02-09T11:13:33Z</time>
      </trkpt>
      <trkpt lat="42.69204" lon="1.64638">
        <ele>1580.8</ele>
        <time>2020-02-09T11:13:43Z</time>
      </trkpt>
      <trkpt lat="42.69198" lon="1.64628">
        <ele>1583.1</ele>
        <time>2020-02-09T11:13:46Z</time>
      </trkpt>
      <trkpt lat="42.69198" lon="1.64628">
        <ele>1583.1</ele>
        <time>2020-02-09T11:13:53Z</time>
      </trkpt>
      <trkpt lat="42.69198" lon="1.64628">
        <ele>1583.1</ele>
        <time>2020-02-09T11:14:03Z</time>
      </trkpt>
      <trkpt lat="42.69188" lon="1.64627">
        <ele>1583</ele>
        <time>2020-02-09T11:14:08Z</time>
      </trkpt>
      <trkpt lat="42.69188" lon="1.64627">
        <ele>1583</ele>
        <time>2020-02-09T11:14:13Z</time>
      </trkpt>
      <trkpt lat="42.69188" lon="1.64627">
        <ele>1583</ele>
        <time>2020-02-09T11:14:23Z</time>
      </trkpt>
      <trkpt lat="42.69178" lon="1.64629">
        <ele>1579.9</ele>
        <time>2020-02-09T11:14:27Z</time>
      </trkpt>
      <trkpt lat="42.69178" lon="1.64629">
        <ele>1579.9</ele>
        <time>2020-02-09T11:14:33Z</time>
      </trkpt>
      <trkpt lat="42.69171" lon="1.64636">
        <ele>1574.3</ele>
        <time>2020-02-09T11:14:35Z</time>
      </trkpt>
      <trkpt lat="42.69171" lon="1.64636">
        <ele>1574.3</ele>
        <time>2020-02-09T11:14:43Z</time>
      </trkpt>
      <trkpt lat="42.69161" lon="1.64637">
        <ele>1571.7</ele>
        <time>2020-02-09T11:14:49Z</time>
      </trkpt>
      <trkpt lat="42.69161" lon="1.64637">
        <ele>1571.7</ele>
        <time>2020-02-09T11:14:53Z</time>
      </trkpt>
      <trkpt lat="42.69161" lon="1.64637">
        <ele>1571.7</ele>
        <time>2020-02-09T11:15:03Z</time>
      </trkpt>
      <trkpt lat="42.69152" lon="1.64635">
        <ele>1572.1</ele>
        <time>2020-02-09T11:15:13Z</time>
      </trkpt>
      <trkpt lat="42.69152" lon="1.64635">
        <ele>1572.1</ele>
        <time>2020-02-09T11:15:23Z</time>
      </trkpt>
      <trkpt lat="42.69144" lon="1.64632">
        <ele>1571.8</ele>
        <time>2020-02-09T11:15:30Z</time>
      </trkpt>
      <trkpt lat="42.69144" lon="1.64632">
        <ele>1571.8</ele>
        <time>2020-02-09T11:15:33Z</time>
      </trkpt>
      <trkpt lat="42.69137" lon="1.64622">
        <ele>1573.6</ele>
        <time>2020-02-09T11:15:40Z</time>
      </trkpt>
      <trkpt lat="42.69137" lon="1.64622">
        <ele>1573.6</ele>
        <time>2020-02-09T11:15:43Z</time>
      </trkpt>
      <trkpt lat="42.69137" lon="1.64622">
        <ele>1573.6</ele>
        <time>2020-02-09T11:15:53Z</time>
      </trkpt>
      <trkpt lat="42.6913" lon="1.64613">
        <ele>1575.6</ele>
        <time>2020-02-09T11:16:01Z</time>
      </trkpt>
      <trkpt lat="42.6913" lon="1.64613">
        <ele>1575.6</ele>
        <time>2020-02-09T11:16:03Z</time>
      </trkpt>
      <trkpt lat="42.6913" lon="1.64613">
        <ele>1575.6</ele>
        <time>2020-02-09T11:16:13Z</time>
      </trkpt>
      <trkpt lat="42.6913" lon="1.64613">
        <ele>1575.6</ele>
        <time>2020-02-09T11:16:23Z</time>
      </trkpt>
      <trkpt lat="42.69121" lon="1.64615">
        <ele>1572</ele>
        <time>2020-02-09T11:16:25Z</time>
      </trkpt>
      <trkpt lat="42.69121" lon="1.64615">
        <ele>1572</ele>
        <time>2020-02-09T11:16:33Z</time>
      </trkpt>
      <trkpt lat="42.69121" lon="1.64615">
        <ele>1572</ele>
        <time>2020-02-09T11:16:43Z</time>
      </trkpt>
      <trkpt lat="42.69112" lon="1.6462">
        <ele>1568.1</ele>
        <time>2020-02-09T11:16:53Z</time>
      </trkpt>
      <trkpt lat="42.69112" lon="1.6462">
        <ele>1568.1</ele>
        <time>2020-02-09T11:17:03Z</time>
      </trkpt>
      <trkpt lat="42.69103" lon="1.64619">
        <ele>1565.8</ele>
        <time>2020-02-09T11:17:13Z</time>
      </trkpt>
      <trkpt lat="42.69103" lon="1.64619">
        <ele>1565.8</ele>
        <time>2020-02-09T11:17:23Z</time>
      </trkpt>
      <trkpt lat="42.69103" lon="1.64619">
        <ele>1565.8</ele>
        <time>2020-02-09T11:17:33Z</time>
      </trkpt>
      <trkpt lat="42.69094" lon="1.64626">
        <ele>1561.8</ele>
        <time>2020-02-09T11:17:39Z</time>
      </trkpt>
      <trkpt lat="42.69094" lon="1.64626">
        <ele>1561.8</ele>
        <time>2020-02-09T11:17:43Z</time>
      </trkpt>
      <trkpt lat="42.69088" lon="1.64637">
        <ele>1554</ele>
        <time>2020-02-09T11:17:48Z</time>
      </trkpt>
      <trkpt lat="42.69088" lon="1.64637">
        <ele>1554</ele>
        <time>2020-02-09T11:17:53Z</time>
      </trkpt>
      <trkpt lat="42.69079" lon="1.64632">
        <ele>1553.7</ele>
        <time>2020-02-09T11:18:01Z</time>
      </trkpt>
      <trkpt lat="42.69079" lon="1.64632">
        <ele>1553.7</ele>
        <time>2020-02-09T11:18:03Z</time>
      </trkpt>
      <trkpt lat="42.69079" lon="1.64632">
        <ele>1553.7</ele>
        <time>2020-02-09T11:18:13Z</time>
      </trkpt>
      <trkpt lat="42.69074" lon="1.6462">
        <ele>1558.8</ele>
        <time>2020-02-09T11:18:19Z</time>
      </trkpt>
      <trkpt lat="42.69074" lon="1.6462">
        <ele>1558.8</ele>
        <time>2020-02-09T11:18:23Z</time>
      </trkpt>
      <trkpt lat="42.69074" lon="1.6462">
        <ele>1558.8</ele>
        <time>2020-02-09T11:18:33Z</time>
      </trkpt>
      <trkpt lat="42.69074" lon="1.6462">
        <ele>1558.8</ele>
        <time>2020-02-09T11:18:43Z</time>
      </trkpt>
      <trkpt lat="42.69074" lon="1.6462">
        <ele>1558.8</ele>
        <time>2020-02-09T11:18:53Z</time>
      </trkpt>
      <trkpt lat="42.69074" lon="1.6462">
        <ele>1558.8</ele>
        <time>2020-02-09T11:19:03Z</time>
      </trkpt>
      <trkpt lat="42.69083" lon="1.64617">
        <ele>1563.2</ele>
        <time>2020-02-09T11:19:07Z</time>
      </trkpt>
      <trkpt lat="42.69083" lon="1.64617">
        <ele>1563.2</ele>
        <time>2020-02-09T11:19:13Z</time>
      </trkpt>
      <trkpt lat="42.69083" lon="1.64617">
        <ele>1563.2</ele>
        <time>2020-02-09T11:19:23Z</time>
      </trkpt>
      <trkpt lat="42.69083" lon="1.64617">
        <ele>1563.2</ele>
        <time>2020-02-09T11:19:33Z</time>
      </trkpt>
      <trkpt lat="42.69078" lon="1.64627">
        <ele>1557.7</ele>
        <time>2020-02-09T11:19:42Z</time>
      </trkpt>
      <trkpt lat="42.69078" lon="1.64627">
        <ele>1557.7</ele>
        <time>2020-02-09T11:19:43Z</time>
      </trkpt>
      <trkpt lat="42.69078" lon="1.64627">
        <ele>1557.7</ele>
        <time>2020-02-09T11:19:53Z</time>
      </trkpt>
      <trkpt lat="42.69078" lon="1.64627">
        <ele>1557.7</ele>
        <time>2020-02-09T11:20:03Z</time>
      </trkpt>
      <trkpt lat="42.69078" lon="1.64627">
        <ele>1557.7</ele>
        <time>2020-02-09T11:20:13Z</time>
      </trkpt>
      <trkpt lat="42.69078" lon="1.64627">
        <ele>1557.7</ele>
        <time>2020-02-09T11:20:23Z</time>
      </trkpt>
      <trkpt lat="42.69075" lon="1.64616">
        <ele>1560.8</ele>
        <time>2020-02-09T11:20:25Z</time>
      </trkpt>
      <trkpt lat="42.69075" lon="1.64616">
        <ele>1560.8</ele>
        <time>2020-02-09T11:20:33Z</time>
      </trkpt>
      <trkpt lat="42.69075" lon="1.64616">
        <ele>1560.8</ele>
        <time>2020-02-09T11:20:43Z</time>
      </trkpt>
      <trkpt lat="42.69075" lon="1.64616">
        <ele>1560.8</ele>
        <time>2020-02-09T11:20:53Z</time>
      </trkpt>
      <trkpt lat="42.69075" lon="1.64616">
        <ele>1560.8</ele>
        <time>2020-02-09T11:21:03Z</time>
      </trkpt>
      <trkpt lat="42.69075" lon="1.64616">
        <ele>1560.8</ele>
        <time>2020-02-09T11:21:13Z</time>
      </trkpt>
      <trkpt lat="42.69075" lon="1.64616">
        <ele>1560.8</ele>
        <time>2020-02-09T11:21:23Z</time>
      </trkpt>
      <trkpt lat="42.69065" lon="1.64616">
        <ele>1558.4</ele>
        <time>2020-02-09T11:21:27Z</time>
      </trkpt>
      <trkpt lat="42.69065" lon="1.64616">
        <ele>1558.4</ele>
        <time>2020-02-09T11:21:33Z</time>
      </trkpt>
      <trkpt lat="42.69056" lon="1.64617">
        <ele>1556.1</ele>
        <time>2020-02-09T11:21:39Z</time>
      </trkpt>
      <trkpt lat="42.69056" lon="1.64617">
        <ele>1556.1</ele>
        <time>2020-02-09T11:21:43Z</time>
      </trkpt>
      <trkpt lat="42.69047" lon="1.6462">
        <ele>1551.4</ele>
        <time>2020-02-09T11:21:50Z</time>
      </trkpt>
      <trkpt lat="42.69047" lon="1.6462">
        <ele>1551.4</ele>
        <time>2020-02-09T11:21:53Z</time>
      </trkpt>
      <trkpt lat="42.69047" lon="1.6462">
        <ele>1551.4</ele>
        <time>2020-02-09T11:22:03Z</time>
      </trkpt>
      <trkpt lat="42.69041" lon="1.6463">
        <ele>1546.4</ele>
        <time>2020-02-09T11:22:04Z</time>
      </trkpt>
      <trkpt lat="42.69041" lon="1.6463">
        <ele>1546.4</ele>
        <time>2020-02-09T11:22:13Z</time>
      </trkpt>
      <trkpt lat="42.69041" lon="1.6463">
        <ele>1546.4</ele>
        <time>2020-02-09T11:22:23Z</time>
      </trkpt>
      <trkpt lat="42.69041" lon="1.64617">
        <ele>1551.9</ele>
        <time>2020-02-09T11:22:27Z</time>
      </trkpt>
      <trkpt lat="42.69041" lon="1.64617">
        <ele>1551.9</ele>
        <time>2020-02-09T11:22:33Z</time>
      </trkpt>
      <trkpt lat="42.69041" lon="1.64617">
        <ele>1551.9</ele>
        <time>2020-02-09T11:22:43Z</time>
      </trkpt>
      <trkpt lat="42.69041" lon="1.64617">
        <ele>1551.9</ele>
        <time>2020-02-09T11:22:53Z</time>
      </trkpt>
      <trkpt lat="42.6903" lon="1.64622">
        <ele>1548.1</ele>
        <time>2020-02-09T11:23:01Z</time>
      </trkpt>
      <trkpt lat="42.6903" lon="1.64622">
        <ele>1548.1</ele>
        <time>2020-02-09T11:23:03Z</time>
      </trkpt>
      <trkpt lat="42.6902" lon="1.64627">
        <ele>1543.8</ele>
        <time>2020-02-09T11:23:09Z</time>
      </trkpt>
      <trkpt lat="42.6902" lon="1.64627">
        <ele>1543.8</ele>
        <time>2020-02-09T11:23:13Z</time>
      </trkpt>
      <trkpt lat="42.6902" lon="1.64627">
        <ele>1543.8</ele>
        <time>2020-02-09T11:23:23Z</time>
      </trkpt>
      <trkpt lat="42.6902" lon="1.64627">
        <ele>1543.8</ele>
        <time>2020-02-09T11:23:33Z</time>
      </trkpt>
      <trkpt lat="42.69013" lon="1.64619">
        <ele>1543.6</ele>
        <time>2020-02-09T11:23:39Z</time>
      </trkpt>
      <trkpt lat="42.69013" lon="1.64619">
        <ele>1543.6</ele>
        <time>2020-02-09T11:23:43Z</time>
      </trkpt>
      <trkpt lat="42.69008" lon="1.64617">
        <ele>1544.9</ele>
        <time>2020-02-09T11:23:53Z</time>
      </trkpt>
      <trkpt lat="42.69002" lon="1.64615">
        <ele>1543.1</ele>
        <time>2020-02-09T11:23:56Z</time>
      </trkpt>
      <trkpt lat="42.68997" lon="1.64613">
        <ele>1543.5</ele>
        <time>2020-02-09T11:24:03Z</time>
      </trkpt>
      <trkpt lat="42.68992" lon="1.6461">
        <ele>1542.6</ele>
        <time>2020-02-09T11:24:11Z</time>
      </trkpt>
      <trkpt lat="42.68986" lon="1.64608">
        <ele>1543.5</ele>
        <time>2020-02-09T11:24:13Z</time>
      </trkpt>
      <trkpt lat="42.68979" lon="1.64616">
        <ele>1537</ele>
        <time>2020-02-09T11:24:18Z</time>
      </trkpt>
      <trkpt lat="42.68979" lon="1.64616">
        <ele>1537</ele>
        <time>2020-02-09T11:24:23Z</time>
      </trkpt>
      <trkpt lat="42.68979" lon="1.64616">
        <ele>1537</ele>
        <time>2020-02-09T11:24:33Z</time>
      </trkpt>
      <trkpt lat="42.68979" lon="1.64616">
        <ele>1537</ele>
        <time>2020-02-09T11:24:43Z</time>
      </trkpt>
      <trkpt lat="42.68975" lon="1.64604">
        <ele>1542.9</ele>
        <time>2020-02-09T11:24:53Z</time>
      </trkpt>
      <trkpt lat="42.68975" lon="1.64604">
        <ele>1542.9</ele>
        <time>2020-02-09T11:25:03Z</time>
      </trkpt>
      <trkpt lat="42.68975" lon="1.64604">
        <ele>1542.9</ele>
        <time>2020-02-09T11:25:13Z</time>
      </trkpt>
      <trkpt lat="42.68967" lon="1.64613">
        <ele>1536.1</ele>
        <time>2020-02-09T11:25:18Z</time>
      </trkpt>
      <trkpt lat="42.68967" lon="1.64613">
        <ele>1536.1</ele>
        <time>2020-02-09T11:25:23Z</time>
      </trkpt>
      <trkpt lat="42.68961" lon="1.64621">
        <ele>1530</ele>
        <time>2020-02-09T11:25:24Z</time>
      </trkpt>
      <trkpt lat="42.68961" lon="1.64621">
        <ele>1530</ele>
        <time>2020-02-09T11:25:33Z</time>
      </trkpt>
      <trkpt lat="42.68961" lon="1.64621">
        <ele>1530</ele>
        <time>2020-02-09T11:25:43Z</time>
      </trkpt>
      <trkpt lat="42.68963" lon="1.64609">
        <ele>1537.1</ele>
        <time>2020-02-09T11:25:47Z</time>
      </trkpt>
      <trkpt lat="42.68963" lon="1.64609">
        <ele>1537.1</ele>
        <time>2020-02-09T11:25:53Z</time>
      </trkpt>
      <trkpt lat="42.68963" lon="1.64609">
        <ele>1537.1</ele>
        <time>2020-02-09T11:26:03Z</time>
      </trkpt>
      <trkpt lat="42.68963" lon="1.64609">
        <ele>1537.1</ele>
        <time>2020-02-09T11:26:13Z</time>
      </trkpt>
      <trkpt lat="42.68963" lon="1.64609">
        <ele>1537.1</ele>
        <time>2020-02-09T11:26:23Z</time>
      </trkpt>
      <trkpt lat="42.68963" lon="1.64609">
        <ele>1537.1</ele>
        <time>2020-02-09T11:26:33Z</time>
      </trkpt>
      <trkpt lat="42.68963" lon="1.64609">
        <ele>1537.1</ele>
        <time>2020-02-09T11:26:43Z</time>
      </trkpt>
      <trkpt lat="42.68963" lon="1.64609">
        <ele>1537.1</ele>
        <time>2020-02-09T11:26:53Z</time>
      </trkpt>
      <trkpt lat="42.68963" lon="1.64624">
        <ele>1528.5</ele>
        <time>2020-02-09T11:27:03Z</time>
      </trkpt>
      <trkpt lat="42.68963" lon="1.64624">
        <ele>1528.5</ele>
        <time>2020-02-09T11:27:13Z</time>
      </trkpt>
      <trkpt lat="42.68963" lon="1.64624">
        <ele>1528.5</ele>
        <time>2020-02-09T11:27:23Z</time>
      </trkpt>
      <trkpt lat="42.68962" lon="1.64637">
        <ele>1520.8</ele>
        <time>2020-02-09T11:27:33Z</time>
      </trkpt>
      <trkpt lat="42.68956" lon="1.64647">
        <ele>1514.7</ele>
        <time>2020-02-09T11:27:40Z</time>
      </trkpt>
      <trkpt lat="42.68956" lon="1.64647">
        <ele>1514.7</ele>
        <time>2020-02-09T11:27:43Z</time>
      </trkpt>
      <trkpt lat="42.68948" lon="1.64654">
        <ele>1509.4</ele>
        <time>2020-02-09T11:27:49Z</time>
      </trkpt>
      <trkpt lat="42.68948" lon="1.64654">
        <ele>1509.4</ele>
        <time>2020-02-09T11:27:53Z</time>
      </trkpt>
      <trkpt lat="42.68948" lon="1.64654">
        <ele>1509.4</ele>
        <time>2020-02-09T11:28:03Z</time>
      </trkpt>
      <trkpt lat="42.68948" lon="1.64654">
        <ele>1509.4</ele>
        <time>2020-02-09T11:28:13Z</time>
      </trkpt>
      <trkpt lat="42.68948" lon="1.64654">
        <ele>1509.4</ele>
        <time>2020-02-09T11:28:23Z</time>
      </trkpt>
      <trkpt lat="42.68948" lon="1.64654">
        <ele>1509.4</ele>
        <time>2020-02-09T11:28:33Z</time>
      </trkpt>
      <trkpt lat="42.68948" lon="1.64654">
        <ele>1509.4</ele>
        <time>2020-02-09T11:28:43Z</time>
      </trkpt>
      <trkpt lat="42.6894" lon="1.64661">
        <ele>1506.4</ele>
        <time>2020-02-09T11:28:44Z</time>
      </trkpt>
      <trkpt lat="42.6894" lon="1.64661">
        <ele>1506.4</ele>
        <time>2020-02-09T11:28:53Z</time>
      </trkpt>
      <trkpt lat="42.68938" lon="1.64674">
        <ele>1501.4</ele>
        <time>2020-02-09T11:28:54Z</time>
      </trkpt>
      <trkpt lat="42.68938" lon="1.64674">
        <ele>1501.4</ele>
        <time>2020-02-09T11:29:03Z</time>
      </trkpt>
      <trkpt lat="42.68942" lon="1.64663">
        <ele>1505</ele>
        <time>2020-02-09T11:29:06Z</time>
      </trkpt>
      <trkpt lat="42.68942" lon="1.64663">
        <ele>1505</ele>
        <time>2020-02-09T11:29:13Z</time>
      </trkpt>
      <trkpt lat="42.68942" lon="1.64663">
        <ele>1505</ele>
        <time>2020-02-09T11:29:23Z</time>
      </trkpt>
      <trkpt lat="42.68942" lon="1.64663">
        <ele>1505</ele>
        <time>2020-02-09T11:29:33Z</time>
      </trkpt>
      <trkpt lat="42.68947" lon="1.64676">
        <ele>1500.7</ele>
        <time>2020-02-09T11:29:43Z</time>
      </trkpt>
      <trkpt lat="42.68947" lon="1.64676">
        <ele>1500.7</ele>
        <time>2020-02-09T11:29:53Z</time>
      </trkpt>
      <trkpt lat="42.68947" lon="1.64676">
        <ele>1500.7</ele>
        <time>2020-02-09T11:30:03Z</time>
      </trkpt>
      <trkpt lat="42.68943" lon="1.64689">
        <ele>1495.2</ele>
        <time>2020-02-09T11:30:05Z</time>
      </trkpt>
      <trkpt lat="42.68937" lon="1.64698">
        <ele>1491.9</ele>
        <time>2020-02-09T11:30:13Z</time>
      </trkpt>
      <trkpt lat="42.68935" lon="1.64684">
        <ele>1496.5</ele>
        <time>2020-02-09T11:30:23Z</time>
      </trkpt>
      <trkpt lat="42.68934" lon="1.64672">
        <ele>1501.1</ele>
        <time>2020-02-09T11:30:26Z</time>
      </trkpt>
      <trkpt lat="42.68934" lon="1.64672">
        <ele>1501.1</ele>
        <time>2020-02-09T11:30:33Z</time>
      </trkpt>
      <trkpt lat="42.68932" lon="1.64658">
        <ele>1506.1</ele>
        <time>2020-02-09T11:30:34Z</time>
      </trkpt>
      <trkpt lat="42.68937" lon="1.6467">
        <ele>1502.8</ele>
        <time>2020-02-09T11:30:39Z</time>
      </trkpt>
      <trkpt lat="42.68937" lon="1.6467">
        <ele>1502.8</ele>
        <time>2020-02-09T11:30:43Z</time>
      </trkpt>
      <trkpt lat="42.68933" lon="1.64682">
        <ele>1498</ele>
        <time>2020-02-09T11:30:48Z</time>
      </trkpt>
      <trkpt lat="42.68933" lon="1.64682">
        <ele>1498</ele>
        <time>2020-02-09T11:30:53Z</time>
      </trkpt>
      <trkpt lat="42.68925" lon="1.64687">
        <ele>1496.6</ele>
        <time>2020-02-09T11:31:03Z</time>
      </trkpt>
      <trkpt lat="42.68925" lon="1.64687">
        <ele>1496.6</ele>
        <time>2020-02-09T11:31:13Z</time>
      </trkpt>
      <trkpt lat="42.68925" lon="1.64687">
        <ele>1496.6</ele>
        <time>2020-02-09T11:31:23Z</time>
      </trkpt>
      <trkpt lat="42.68925" lon="1.64687">
        <ele>1496.6</ele>
        <time>2020-02-09T11:31:33Z</time>
      </trkpt>
      <trkpt lat="42.68925" lon="1.64687">
        <ele>1496.6</ele>
        <time>2020-02-09T11:31:43Z</time>
      </trkpt>
      <trkpt lat="42.68919" lon="1.64697">
        <ele>1492.7</ele>
        <time>2020-02-09T11:31:49Z</time>
      </trkpt>
      <trkpt lat="42.68919" lon="1.64697">
        <ele>1492.7</ele>
        <time>2020-02-09T11:31:53Z</time>
      </trkpt>
      <trkpt lat="42.68921" lon="1.64697">
        <ele>1492.4</ele>
        <time>2020-02-09T11:32:03Z</time>
      </trkpt>
      <trkpt lat="42.68923" lon="1.64697">
        <ele>1492.2</ele>
        <time>2020-02-09T11:32:13Z</time>
      </trkpt>
      <trkpt lat="42.68925" lon="1.64696">
        <ele>1493.6</ele>
        <time>2020-02-09T11:32:21Z</time>
      </trkpt>
      <trkpt lat="42.68927" lon="1.64696">
        <ele>1493.5</ele>
        <time>2020-02-09T11:32:23Z</time>
      </trkpt>
      <trkpt lat="42.68927" lon="1.64696">
        <ele>1493.5</ele>
        <time>2020-02-09T11:32:33Z</time>
      </trkpt>
      <trkpt lat="42.68926" lon="1.64683">
        <ele>1498</ele>
        <time>2020-02-09T11:32:38Z</time>
      </trkpt>
      <trkpt lat="42.68926" lon="1.64683">
        <ele>1498</ele>
        <time>2020-02-09T11:32:43Z</time>
      </trkpt>
      <trkpt lat="42.68926" lon="1.64683">
        <ele>1498</ele>
        <time>2020-02-09T11:32:53Z</time>
      </trkpt>
      <trkpt lat="42.68918" lon="1.64692">
        <ele>1495.6</ele>
        <time>2020-02-09T11:33:00Z</time>
      </trkpt>
      <trkpt lat="42.68918" lon="1.64692">
        <ele>1495.6</ele>
        <time>2020-02-09T11:33:03Z</time>
      </trkpt>
      <trkpt lat="42.68911" lon="1.64711">
        <ele>1489.6</ele>
        <time>2020-02-09T11:33:08Z</time>
      </trkpt>
      <trkpt lat="42.68911" lon="1.64711">
        <ele>1489.6</ele>
        <time>2020-02-09T11:33:13Z</time>
      </trkpt>
      <trkpt lat="42.68911" lon="1.64711">
        <ele>1489.6</ele>
        <time>2020-02-09T11:33:23Z</time>
      </trkpt>
      <trkpt lat="42.68911" lon="1.64711">
        <ele>1489.6</ele>
        <time>2020-02-09T11:33:33Z</time>
      </trkpt>
      <trkpt lat="42.68918" lon="1.64719">
        <ele>1486.3</ele>
        <time>2020-02-09T11:33:43Z</time>
      </trkpt>
      <trkpt lat="42.68918" lon="1.64719">
        <ele>1486.3</ele>
        <time>2020-02-09T11:33:53Z</time>
      </trkpt>
      <trkpt lat="42.68918" lon="1.64719">
        <ele>1486.3</ele>
        <time>2020-02-09T11:34:03Z</time>
      </trkpt>
      <trkpt lat="42.68918" lon="1.64719">
        <ele>1486.3</ele>
        <time>2020-02-09T11:34:13Z</time>
      </trkpt>
      <trkpt lat="42.68926" lon="1.6471">
        <ele>1488.1</ele>
        <time>2020-02-09T11:34:16Z</time>
      </trkpt>
      <trkpt lat="42.68926" lon="1.6471">
        <ele>1488.1</ele>
        <time>2020-02-09T11:34:23Z</time>
      </trkpt>
      <trkpt lat="42.68933" lon="1.64701">
        <ele>1490.5</ele>
        <time>2020-02-09T11:34:25Z</time>
      </trkpt>
      <trkpt lat="42.68933" lon="1.64701">
        <ele>1490.5</ele>
        <time>2020-02-09T11:34:33Z</time>
      </trkpt>
      <trkpt lat="42.68933" lon="1.64701">
        <ele>1490.5</ele>
        <time>2020-02-09T11:34:43Z</time>
      </trkpt>
      <trkpt lat="42.68933" lon="1.64701">
        <ele>1490.5</ele>
        <time>2020-02-09T11:34:53Z</time>
      </trkpt>
      <trkpt lat="42.68937" lon="1.64712">
        <ele>1488</ele>
        <time>2020-02-09T11:35:02Z</time>
      </trkpt>
      <trkpt lat="42.68937" lon="1.64712">
        <ele>1488</ele>
        <time>2020-02-09T11:35:03Z</time>
      </trkpt>
      <trkpt lat="42.68929" lon="1.64722">
        <ele>1484</ele>
        <time>2020-02-09T11:35:13Z</time>
      </trkpt>
      <trkpt lat="42.68929" lon="1.64722">
        <ele>1484</ele>
        <time>2020-02-09T11:35:23Z</time>
      </trkpt>
      <trkpt lat="42.68926" lon="1.6471">
        <ele>1488.1</ele>
        <time>2020-02-09T11:35:28Z</time>
      </trkpt>
      <trkpt lat="42.68926" lon="1.6471">
        <ele>1488.1</ele>
        <time>2020-02-09T11:35:33Z</time>
      </trkpt>
      <trkpt lat="42.68933" lon="1.64719">
        <ele>1485.4</ele>
        <time>2020-02-09T11:35:42Z</time>
      </trkpt>
      <trkpt lat="42.68933" lon="1.64719">
        <ele>1485.4</ele>
        <time>2020-02-09T11:35:43Z</time>
      </trkpt>
      <trkpt lat="42.68929" lon="1.64733">
        <ele>1481</ele>
        <time>2020-02-09T11:35:50Z</time>
      </trkpt>
      <trkpt lat="42.68929" lon="1.64733">
        <ele>1481</ele>
        <time>2020-02-09T11:35:53Z</time>
      </trkpt>
      <trkpt lat="42.68919" lon="1.64733">
        <ele>1481.6</ele>
        <time>2020-02-09T11:35:59Z</time>
      </trkpt>
      <trkpt lat="42.68919" lon="1.64733">
        <ele>1481.6</ele>
        <time>2020-02-09T11:36:03Z</time>
      </trkpt>
      <trkpt lat="42.6891" lon="1.64738">
        <ele>1481.1</ele>
        <time>2020-02-09T11:36:06Z</time>
      </trkpt>
      <trkpt lat="42.6891" lon="1.64738">
        <ele>1481.1</ele>
        <time>2020-02-09T11:36:13Z</time>
      </trkpt>
      <trkpt lat="42.6891" lon="1.64738">
        <ele>1481.1</ele>
        <time>2020-02-09T11:36:23Z</time>
      </trkpt>
      <trkpt lat="42.68916" lon="1.64727">
        <ele>1483.4</ele>
        <time>2020-02-09T11:36:26Z</time>
      </trkpt>
      <trkpt lat="42.68925" lon="1.6472">
        <ele>1485.7</ele>
        <time>2020-02-09T11:36:29Z</time>
      </trkpt>
      <trkpt lat="42.68925" lon="1.6472">
        <ele>1485.7</ele>
        <time>2020-02-09T11:36:33Z</time>
      </trkpt>
      <trkpt lat="42.68925" lon="1.6472">
        <ele>1485.7</ele>
        <time>2020-02-09T11:36:43Z</time>
      </trkpt>
      <trkpt lat="42.68931" lon="1.64709">
        <ele>1489.3</ele>
        <time>2020-02-09T11:36:46Z</time>
      </trkpt>
      <trkpt lat="42.68931" lon="1.64709">
        <ele>1489.3</ele>
        <time>2020-02-09T11:36:53Z</time>
      </trkpt>
      <trkpt lat="42.68931" lon="1.64709">
        <ele>1489.3</ele>
        <time>2020-02-09T11:37:03Z</time>
      </trkpt>
      <trkpt lat="42.68931" lon="1.64709">
        <ele>1489.3</ele>
        <time>2020-02-09T11:37:13Z</time>
      </trkpt>
      <trkpt lat="42.68922" lon="1.64711">
        <ele>1488.3</ele>
        <time>2020-02-09T11:37:17Z</time>
      </trkpt>
      <trkpt lat="42.68922" lon="1.64711">
        <ele>1488.3</ele>
        <time>2020-02-09T11:37:23Z</time>
      </trkpt>
      <trkpt lat="42.68919" lon="1.64724">
        <ele>1484.8</ele>
        <time>2020-02-09T11:37:30Z</time>
      </trkpt>
      <trkpt lat="42.68919" lon="1.64724">
        <ele>1484.8</ele>
        <time>2020-02-09T11:37:33Z</time>
      </trkpt>
      <trkpt lat="42.68914" lon="1.64735">
        <ele>1480.7</ele>
        <time>2020-02-09T11:37:38Z</time>
      </trkpt>
      <trkpt lat="42.68914" lon="1.64735">
        <ele>1480.7</ele>
        <time>2020-02-09T11:37:43Z</time>
      </trkpt>
      <trkpt lat="42.68914" lon="1.64735">
        <ele>1480.7</ele>
        <time>2020-02-09T11:37:53Z</time>
      </trkpt>
      <trkpt lat="42.68909" lon="1.64746">
        <ele>1478.6</ele>
        <time>2020-02-09T11:37:56Z</time>
      </trkpt>
      <trkpt lat="42.68909" lon="1.64746">
        <ele>1478.6</ele>
        <time>2020-02-09T11:38:03Z</time>
      </trkpt>
      <trkpt lat="42.68909" lon="1.64746">
        <ele>1478.6</ele>
        <time>2020-02-09T11:38:13Z</time>
      </trkpt>
      <trkpt lat="42.68909" lon="1.64746">
        <ele>1478.6</ele>
        <time>2020-02-09T11:38:23Z</time>
      </trkpt>
      <trkpt lat="42.68916" lon="1.64736">
        <ele>1480.4</ele>
        <time>2020-02-09T11:38:25Z</time>
      </trkpt>
      <trkpt lat="42.68916" lon="1.64736">
        <ele>1480.4</ele>
        <time>2020-02-09T11:38:33Z</time>
      </trkpt>
      <trkpt lat="42.68916" lon="1.64736">
        <ele>1480.4</ele>
        <time>2020-02-09T11:38:43Z</time>
      </trkpt>
      <trkpt lat="42.68916" lon="1.64736">
        <ele>1480.4</ele>
        <time>2020-02-09T11:38:53Z</time>
      </trkpt>
      <trkpt lat="42.68916" lon="1.64736">
        <ele>1480.4</ele>
        <time>2020-02-09T11:39:03Z</time>
      </trkpt>
      <trkpt lat="42.68916" lon="1.64736">
        <ele>1480.4</ele>
        <time>2020-02-09T11:39:13Z</time>
      </trkpt>
      <trkpt lat="42.68916" lon="1.64736">
        <ele>1480.4</ele>
        <time>2020-02-09T11:39:23Z</time>
      </trkpt>
      <trkpt lat="42.68916" lon="1.64736">
        <ele>1480.4</ele>
        <time>2020-02-09T11:39:33Z</time>
      </trkpt>
      <trkpt lat="42.68916" lon="1.64736">
        <ele>1480.4</ele>
        <time>2020-02-09T11:39:43Z</time>
      </trkpt>
      <trkpt lat="42.68916" lon="1.64736">
        <ele>1480.4</ele>
        <time>2020-02-09T11:39:53Z</time>
      </trkpt>
      <trkpt lat="42.68916" lon="1.64736">
        <ele>1480.4</ele>
        <time>2020-02-09T11:40:03Z</time>
      </trkpt>
      <trkpt lat="42.68916" lon="1.64736">
        <ele>1480.4</ele>
        <time>2020-02-09T11:40:13Z</time>
      </trkpt>
      <trkpt lat="42.68916" lon="1.64736">
        <ele>1480.4</ele>
        <time>2020-02-09T11:40:23Z</time>
      </trkpt>
      <trkpt lat="42.68916" lon="1.64736">
        <ele>1480.4</ele>
        <time>2020-02-09T11:40:33Z</time>
      </trkpt>
      <trkpt lat="42.68916" lon="1.64736">
        <ele>1480.4</ele>
        <time>2020-02-09T11:40:43Z</time>
      </trkpt>
      <trkpt lat="42.68916" lon="1.64736">
        <ele>1480.4</ele>
        <time>2020-02-09T11:40:53Z</time>
      </trkpt>
      <trkpt lat="42.68953" lon="1.64785">
        <ele>1463.8</ele>
        <time>2020-02-09T11:40:58Z</time>
      </trkpt>
      <trkpt lat="42.68953" lon="1.64785">
        <ele>1463.8</ele>
        <time>2020-02-09T11:41:03Z</time>
      </trkpt>
      <trkpt lat="42.68947" lon="1.64796">
        <ele>1460.5</ele>
        <time>2020-02-09T11:41:06Z</time>
      </trkpt>
      <trkpt lat="42.68947" lon="1.64796">
        <ele>1460.5</ele>
        <time>2020-02-09T11:41:13Z</time>
      </trkpt>
      <trkpt lat="42.68943" lon="1.64807">
        <ele>1459.2</ele>
        <time>2020-02-09T11:41:14Z</time>
      </trkpt>
      <trkpt lat="42.68943" lon="1.64807">
        <ele>1459.2</ele>
        <time>2020-02-09T11:41:23Z</time>
      </trkpt>
      <trkpt lat="42.68943" lon="1.64807">
        <ele>1459.2</ele>
        <time>2020-02-09T11:41:33Z</time>
      </trkpt>
      <trkpt lat="42.68938" lon="1.64819">
        <ele>1457.3</ele>
        <time>2020-02-09T11:41:34Z</time>
      </trkpt>
      <trkpt lat="42.68938" lon="1.64819">
        <ele>1457.3</ele>
        <time>2020-02-09T11:41:43Z</time>
      </trkpt>
      <trkpt lat="42.68938" lon="1.64831">
        <ele>1455.4</ele>
        <time>2020-02-09T11:41:44Z</time>
      </trkpt>
      <trkpt lat="42.68931" lon="1.64841">
        <ele>1455.3</ele>
        <time>2020-02-09T11:41:50Z</time>
      </trkpt>
      <trkpt lat="42.68931" lon="1.64841">
        <ele>1455.3</ele>
        <time>2020-02-09T11:41:53Z</time>
      </trkpt>
      <trkpt lat="42.68923" lon="1.64847">
        <ele>1455.1</ele>
        <time>2020-02-09T11:41:55Z</time>
      </trkpt>
      <trkpt lat="42.68923" lon="1.64847">
        <ele>1455.1</ele>
        <time>2020-02-09T11:42:03Z</time>
      </trkpt>
      <trkpt lat="42.68928" lon="1.64859">
        <ele>1454.1</ele>
        <time>2020-02-09T11:42:11Z</time>
      </trkpt>
      <trkpt lat="42.68928" lon="1.64859">
        <ele>1454.1</ele>
        <time>2020-02-09T11:42:13Z</time>
      </trkpt>
      <trkpt lat="42.68938" lon="1.64857">
        <ele>1453</ele>
        <time>2020-02-09T11:42:15Z</time>
      </trkpt>
      <trkpt lat="42.68938" lon="1.64857">
        <ele>1453</ele>
        <time>2020-02-09T11:42:23Z</time>
      </trkpt>
      <trkpt lat="42.68932" lon="1.64867">
        <ele>1453.1</ele>
        <time>2020-02-09T11:42:25Z</time>
      </trkpt>
      <trkpt lat="42.68932" lon="1.64867">
        <ele>1453.1</ele>
        <time>2020-02-09T11:42:33Z</time>
      </trkpt>
      <trkpt lat="42.68927" lon="1.64878">
        <ele>1453.4</ele>
        <time>2020-02-09T11:42:38Z</time>
      </trkpt>
      <trkpt lat="42.68927" lon="1.64878">
        <ele>1453.4</ele>
        <time>2020-02-09T11:42:43Z</time>
      </trkpt>
      <trkpt lat="42.68927" lon="1.64878">
        <ele>1453.4</ele>
        <time>2020-02-09T11:42:53Z</time>
      </trkpt>
      <trkpt lat="42.68927" lon="1.64878">
        <ele>1453.4</ele>
        <time>2020-02-09T11:43:03Z</time>
      </trkpt>
      <trkpt lat="42.68918" lon="1.64884">
        <ele>1454.3</ele>
        <time>2020-02-09T11:43:07Z</time>
      </trkpt>
      <trkpt lat="42.68918" lon="1.64884">
        <ele>1454.3</ele>
        <time>2020-02-09T11:43:13Z</time>
      </trkpt>
      <trkpt lat="42.68922" lon="1.64903">
        <ele>1454.8</ele>
        <time>2020-02-09T11:43:16Z</time>
      </trkpt>
      <trkpt lat="42.68922" lon="1.64903">
        <ele>1454.8</ele>
        <time>2020-02-09T11:43:23Z</time>
      </trkpt>
      <trkpt lat="42.68922" lon="1.64888">
        <ele>1453.9</ele>
        <time>2020-02-09T11:43:24Z</time>
      </trkpt>
      <trkpt lat="42.68922" lon="1.64885">
        <ele>1454.1</ele>
        <time>2020-02-09T11:43:33Z</time>
      </trkpt>
      <trkpt lat="42.68921" lon="1.64883">
        <ele>1454</ele>
        <time>2020-02-09T11:43:43Z</time>
      </trkpt>
      <trkpt lat="42.6892" lon="1.64881">
        <ele>1454</ele>
        <time>2020-02-09T11:43:53Z</time>
      </trkpt>
      <trkpt lat="42.68919" lon="1.64878">
        <ele>1454</ele>
        <time>2020-02-09T11:44:03Z</time>
      </trkpt>
      <trkpt lat="42.68919" lon="1.64876">
        <ele>1454</ele>
        <time>2020-02-09T11:44:13Z</time>
      </trkpt>
      <trkpt lat="42.68918" lon="1.64874">
        <ele>1454.4</ele>
        <time>2020-02-09T11:44:23Z</time>
      </trkpt>
      <trkpt lat="42.68917" lon="1.64872">
        <ele>1454.5</ele>
        <time>2020-02-09T11:44:33Z</time>
      </trkpt>
      <trkpt lat="42.68917" lon="1.64869">
        <ele>1454.5</ele>
        <time>2020-02-09T11:44:34Z</time>
      </trkpt>
      <trkpt lat="42.68916" lon="1.64867">
        <ele>1454.7</ele>
        <time>2020-02-09T11:44:42Z</time>
      </trkpt>
      <trkpt lat="42.68915" lon="1.64865">
        <ele>1455</ele>
        <time>2020-02-09T11:44:43Z</time>
      </trkpt>
      <trkpt lat="42.68915" lon="1.64865">
        <ele>1455</ele>
        <time>2020-02-09T11:44:53Z</time>
      </trkpt>
      <trkpt lat="42.68915" lon="1.64865">
        <ele>1455</ele>
        <time>2020-02-09T11:45:03Z</time>
      </trkpt>
      <trkpt lat="42.68925" lon="1.64859">
        <ele>1454.1</ele>
        <time>2020-02-09T11:45:09Z</time>
      </trkpt>
      <trkpt lat="42.68925" lon="1.64859">
        <ele>1454.1</ele>
        <time>2020-02-09T11:45:13Z</time>
      </trkpt>
      <trkpt lat="42.68934" lon="1.64852">
        <ele>1453.8</ele>
        <time>2020-02-09T11:45:23Z</time>
      </trkpt>
      <trkpt lat="42.68934" lon="1.64852">
        <ele>1453.8</ele>
        <time>2020-02-09T11:45:33Z</time>
      </trkpt>
      <trkpt lat="42.68945" lon="1.64854">
        <ele>1452.9</ele>
        <time>2020-02-09T11:45:35Z</time>
      </trkpt>
      <trkpt lat="42.68945" lon="1.64854">
        <ele>1452.9</ele>
        <time>2020-02-09T11:45:43Z</time>
      </trkpt>
      <trkpt lat="42.68941" lon="1.64866">
        <ele>1452.3</ele>
        <time>2020-02-09T11:45:47Z</time>
      </trkpt>
      <trkpt lat="42.68941" lon="1.64866">
        <ele>1452.3</ele>
        <time>2020-02-09T11:45:53Z</time>
      </trkpt>
      <trkpt lat="42.68951" lon="1.64865">
        <ele>1451.5</ele>
        <time>2020-02-09T11:45:59Z</time>
      </trkpt>
      <trkpt lat="42.68951" lon="1.64865">
        <ele>1451.5</ele>
        <time>2020-02-09T11:46:03Z</time>
      </trkpt>
      <trkpt lat="42.68956" lon="1.64864">
        <ele>1451.3</ele>
        <time>2020-02-09T11:46:05Z</time>
      </trkpt>
      <trkpt lat="42.68953" lon="1.64861">
        <ele>1451.8</ele>
        <time>2020-02-09T11:46:13Z</time>
      </trkpt>
      <trkpt lat="42.68949" lon="1.64859">
        <ele>1452.3</ele>
        <time>2020-02-09T11:46:23Z</time>
      </trkpt>
      <trkpt lat="42.68946" lon="1.64856">
        <ele>1452.5</ele>
        <time>2020-02-09T11:46:31Z</time>
      </trkpt>
      <trkpt lat="42.68942" lon="1.64853">
        <ele>1453.1</ele>
        <time>2020-02-09T11:46:33Z</time>
      </trkpt>
      <trkpt lat="42.68942" lon="1.64853">
        <ele>1453.1</ele>
        <time>2020-02-09T11:46:43Z</time>
      </trkpt>
      <trkpt lat="42.68939" lon="1.64841">
        <ele>1454.4</ele>
        <time>2020-02-09T11:46:44Z</time>
      </trkpt>
      <trkpt lat="42.68939" lon="1.64841">
        <ele>1454.4</ele>
        <time>2020-02-09T11:46:53Z</time>
      </trkpt>
      <trkpt lat="42.6895" lon="1.64842">
        <ele>1453.8</ele>
        <time>2020-02-09T11:46:59Z</time>
      </trkpt>
      <trkpt lat="42.68959" lon="1.64844">
        <ele>1452.9</ele>
        <time>2020-02-09T11:47:01Z</time>
      </trkpt>
      <trkpt lat="42.68959" lon="1.64844">
        <ele>1452.9</ele>
        <time>2020-02-09T11:47:03Z</time>
      </trkpt>
      <trkpt lat="42.68971" lon="1.64849">
        <ele>1452</ele>
        <time>2020-02-09T11:47:09Z</time>
      </trkpt>
      <trkpt lat="42.68971" lon="1.64849">
        <ele>1452</ele>
        <time>2020-02-09T11:47:13Z</time>
      </trkpt>
      <trkpt lat="42.68981" lon="1.64849">
        <ele>1451.8</ele>
        <time>2020-02-09T11:47:21Z</time>
      </trkpt>
      <trkpt lat="42.68981" lon="1.64849">
        <ele>1451.8</ele>
        <time>2020-02-09T11:47:23Z</time>
      </trkpt>
      <trkpt lat="42.68994" lon="1.6485">
        <ele>1451.9</ele>
        <time>2020-02-09T11:47:24Z</time>
      </trkpt>
      <trkpt lat="42.68998" lon="1.64853">
        <ele>1451.6</ele>
        <time>2020-02-09T11:47:33Z</time>
      </trkpt>
      <trkpt lat="42.69002" lon="1.64856">
        <ele>1451.4</ele>
        <time>2020-02-09T11:47:42Z</time>
      </trkpt>
      <trkpt lat="42.69006" lon="1.64859">
        <ele>1451.6</ele>
        <time>2020-02-09T11:47:43Z</time>
      </trkpt>
      <trkpt lat="42.69006" lon="1.64859">
        <ele>1451.6</ele>
        <time>2020-02-09T11:47:53Z</time>
      </trkpt>
      <trkpt lat="42.69008" lon="1.64871">
        <ele>1450.7</ele>
        <time>2020-02-09T11:47:56Z</time>
      </trkpt>
      <trkpt lat="42.69008" lon="1.64871">
        <ele>1450.7</ele>
        <time>2020-02-09T11:48:03Z</time>
      </trkpt>
      <trkpt lat="42.69013" lon="1.64883">
        <ele>1449.8</ele>
        <time>2020-02-09T11:48:07Z</time>
      </trkpt>
      <trkpt lat="42.69013" lon="1.64883">
        <ele>1449.8</ele>
        <time>2020-02-09T11:48:13Z</time>
      </trkpt>
      <trkpt lat="42.69022" lon="1.64884">
        <ele>1450.7</ele>
        <time>2020-02-09T11:48:20Z</time>
      </trkpt>
      <trkpt lat="42.69022" lon="1.64884">
        <ele>1450.7</ele>
        <time>2020-02-09T11:48:23Z</time>
      </trkpt>
      <trkpt lat="42.69028" lon="1.64893">
        <ele>1450.6</ele>
        <time>2020-02-09T11:48:30Z</time>
      </trkpt>
      <trkpt lat="42.69028" lon="1.64893">
        <ele>1450.6</ele>
        <time>2020-02-09T11:48:33Z</time>
      </trkpt>
      <trkpt lat="42.69028" lon="1.64893">
        <ele>1450.6</ele>
        <time>2020-02-09T11:48:43Z</time>
      </trkpt>
      <trkpt lat="42.69033" lon="1.64904">
        <ele>1450.6</ele>
        <time>2020-02-09T11:48:53Z</time>
      </trkpt>
      <trkpt lat="42.69033" lon="1.64904">
        <ele>1450.6</ele>
        <time>2020-02-09T11:49:03Z</time>
      </trkpt>
      <trkpt lat="42.69033" lon="1.64904">
        <ele>1450.6</ele>
        <time>2020-02-09T11:49:13Z</time>
      </trkpt>
      <trkpt lat="42.69043" lon="1.64902">
        <ele>1451.4</ele>
        <time>2020-02-09T11:49:18Z</time>
      </trkpt>
      <trkpt lat="42.69043" lon="1.64902">
        <ele>1451.4</ele>
        <time>2020-02-09T11:49:23Z</time>
      </trkpt>
      <trkpt lat="42.69043" lon="1.64902">
        <ele>1451.4</ele>
        <time>2020-02-09T11:49:33Z</time>
      </trkpt>
      <trkpt lat="42.69043" lon="1.64902">
        <ele>1451.4</ele>
        <time>2020-02-09T11:49:43Z</time>
      </trkpt>
      <trkpt lat="42.69043" lon="1.64902">
        <ele>1451.4</ele>
        <time>2020-02-09T11:49:53Z</time>
      </trkpt>
      <trkpt lat="42.69043" lon="1.64902">
        <ele>1451.4</ele>
        <time>2020-02-09T11:50:03Z</time>
      </trkpt>
      <trkpt lat="42.69052" lon="1.64904">
        <ele>1452.3</ele>
        <time>2020-02-09T11:50:12Z</time>
      </trkpt>
      <trkpt lat="42.69052" lon="1.64904">
        <ele>1452.3</ele>
        <time>2020-02-09T11:50:13Z</time>
      </trkpt>
      <trkpt lat="42.69052" lon="1.64904">
        <ele>1452.3</ele>
        <time>2020-02-09T11:50:23Z</time>
      </trkpt>
      <trkpt lat="42.6906" lon="1.64911">
        <ele>1451.9</ele>
        <time>2020-02-09T11:50:25Z</time>
      </trkpt>
      <trkpt lat="42.6906" lon="1.64911">
        <ele>1451.9</ele>
        <time>2020-02-09T11:50:33Z</time>
      </trkpt>
      <trkpt lat="42.6906" lon="1.64911">
        <ele>1451.9</ele>
        <time>2020-02-09T11:50:43Z</time>
      </trkpt>
      <trkpt lat="42.69057" lon="1.64899">
        <ele>1453</ele>
        <time>2020-02-09T11:50:48Z</time>
      </trkpt>
      <trkpt lat="42.69057" lon="1.64899">
        <ele>1453</ele>
        <time>2020-02-09T11:50:53Z</time>
      </trkpt>
      <trkpt lat="42.69057" lon="1.64899">
        <ele>1453</ele>
        <time>2020-02-09T11:51:03Z</time>
      </trkpt>
      <trkpt lat="42.69057" lon="1.64899">
        <ele>1453</ele>
        <time>2020-02-09T11:51:13Z</time>
      </trkpt>
      <trkpt lat="42.69057" lon="1.64899">
        <ele>1453</ele>
        <time>2020-02-09T11:51:23Z</time>
      </trkpt>
      <trkpt lat="42.69048" lon="1.6489">
        <ele>1452.7</ele>
        <time>2020-02-09T11:51:25Z</time>
      </trkpt>
      <trkpt lat="42.69048" lon="1.6489">
        <ele>1452.7</ele>
        <time>2020-02-09T11:51:33Z</time>
      </trkpt>
      <trkpt lat="42.69048" lon="1.6489">
        <ele>1452.7</ele>
        <time>2020-02-09T11:51:43Z</time>
      </trkpt>
      <trkpt lat="42.69048" lon="1.6489">
        <ele>1452.7</ele>
        <time>2020-02-09T11:51:53Z</time>
      </trkpt>
      <trkpt lat="42.69056" lon="1.64882">
        <ele>1454.2</ele>
        <time>2020-02-09T11:52:01Z</time>
      </trkpt>
      <trkpt lat="42.69056" lon="1.64882">
        <ele>1454.2</ele>
        <time>2020-02-09T11:52:03Z</time>
      </trkpt>
      <trkpt lat="42.69058" lon="1.64885">
        <ele>1454.3</ele>
        <time>2020-02-09T11:52:13Z</time>
      </trkpt>
      <trkpt lat="42.69061" lon="1.64888">
        <ele>1454.3</ele>
        <time>2020-02-09T11:52:16Z</time>
      </trkpt>
      <trkpt lat="42.69063" lon="1.64891">
        <ele>1454.3</ele>
        <time>2020-02-09T11:52:23Z</time>
      </trkpt>
      <trkpt lat="42.69066" lon="1.64894">
        <ele>1454.3</ele>
        <time>2020-02-09T11:52:33Z</time>
      </trkpt>
      <trkpt lat="42.69068" lon="1.64897">
        <ele>1454.6</ele>
        <time>2020-02-09T11:52:34Z</time>
      </trkpt>
      <trkpt lat="42.6907" lon="1.649">
        <ele>1454.4</ele>
        <time>2020-02-09T11:52:41Z</time>
      </trkpt>
      <trkpt lat="42.69073" lon="1.64903">
        <ele>1453.9</ele>
        <time>2020-02-09T11:52:43Z</time>
      </trkpt>
      <trkpt lat="42.69073" lon="1.64903">
        <ele>1453.9</ele>
        <time>2020-02-09T11:52:53Z</time>
      </trkpt>
      <trkpt lat="42.69064" lon="1.64903">
        <ele>1453.2</ele>
        <time>2020-02-09T11:53:00Z</time>
      </trkpt>
      <trkpt lat="42.69064" lon="1.64903">
        <ele>1453.2</ele>
        <time>2020-02-09T11:53:03Z</time>
      </trkpt>
      <trkpt lat="42.69064" lon="1.64903">
        <ele>1453.2</ele>
        <time>2020-02-09T11:53:13Z</time>
      </trkpt>
      <trkpt lat="42.69064" lon="1.64903">
        <ele>1453.2</ele>
        <time>2020-02-09T11:53:23Z</time>
      </trkpt>
      <trkpt lat="42.69073" lon="1.64904">
        <ele>1453.9</ele>
        <time>2020-02-09T11:53:30Z</time>
      </trkpt>
      <trkpt lat="42.69073" lon="1.64904">
        <ele>1453.9</ele>
        <time>2020-02-09T11:53:33Z</time>
      </trkpt>
      <trkpt lat="42.69084" lon="1.649">
        <ele>1455.2</ele>
        <time>2020-02-09T11:53:34Z</time>
      </trkpt>
      <trkpt lat="42.69093" lon="1.64896">
        <ele>1456.2</ele>
        <time>2020-02-09T11:53:36Z</time>
      </trkpt>
      <trkpt lat="42.69093" lon="1.64896">
        <ele>1456.2</ele>
        <time>2020-02-09T11:53:43Z</time>
      </trkpt>
      <trkpt lat="42.69084" lon="1.64892">
        <ele>1456</ele>
        <time>2020-02-09T11:53:50Z</time>
      </trkpt>
      <trkpt lat="42.69084" lon="1.64892">
        <ele>1456</ele>
        <time>2020-02-09T11:53:53Z</time>
      </trkpt>
      <trkpt lat="42.69079" lon="1.64906">
        <ele>1454.3</ele>
        <time>2020-02-09T11:54:02Z</time>
      </trkpt>
      <trkpt lat="42.6908" lon="1.64905">
        <ele>1454.3</ele>
        <time>2020-02-09T11:54:03Z</time>
      </trkpt>
      <trkpt lat="42.6908" lon="1.64903">
        <ele>1454.5</ele>
        <time>2020-02-09T11:54:13Z</time>
      </trkpt>
      <trkpt lat="42.69081" lon="1.64901">
        <ele>1455</ele>
        <time>2020-02-09T11:54:23Z</time>
      </trkpt>
      <trkpt lat="42.69081" lon="1.64899">
        <ele>1455</ele>
        <time>2020-02-09T11:54:33Z</time>
      </trkpt>
      <trkpt lat="42.69082" lon="1.64897">
        <ele>1455.4</ele>
        <time>2020-02-09T11:54:43Z</time>
      </trkpt>
      <trkpt lat="42.69083" lon="1.64895">
        <ele>1455.4</ele>
        <time>2020-02-09T11:54:52Z</time>
      </trkpt>
      <trkpt lat="42.69083" lon="1.64893">
        <ele>1456</ele>
        <time>2020-02-09T11:54:53Z</time>
      </trkpt>
      <trkpt lat="42.69084" lon="1.64891">
        <ele>1456</ele>
        <time>2020-02-09T11:55:01Z</time>
      </trkpt>
      <trkpt lat="42.69085" lon="1.6489">
        <ele>1456</ele>
        <time>2020-02-09T11:55:03Z</time>
      </trkpt>
      <trkpt lat="42.69085" lon="1.6489">
        <ele>1456</ele>
        <time>2020-02-09T11:55:13Z</time>
      </trkpt>
      <trkpt lat="42.69096" lon="1.64887">
        <ele>1457.3</ele>
        <time>2020-02-09T11:55:15Z</time>
      </trkpt>
      <trkpt lat="42.69096" lon="1.64887">
        <ele>1457.3</ele>
        <time>2020-02-09T11:55:23Z</time>
      </trkpt>
      <trkpt lat="42.69096" lon="1.64887">
        <ele>1457.3</ele>
        <time>2020-02-09T11:55:33Z</time>
      </trkpt>
      <trkpt lat="42.69102" lon="1.64898">
        <ele>1456.5</ele>
        <time>2020-02-09T11:55:42Z</time>
      </trkpt>
      <trkpt lat="42.69102" lon="1.64898">
        <ele>1456.5</ele>
        <time>2020-02-09T11:55:43Z</time>
      </trkpt>
      <trkpt lat="42.69102" lon="1.64898">
        <ele>1456.5</ele>
        <time>2020-02-09T11:55:53Z</time>
      </trkpt>
      <trkpt lat="42.69102" lon="1.64898">
        <ele>1456.5</ele>
        <time>2020-02-09T11:56:03Z</time>
      </trkpt>
      <trkpt lat="42.69102" lon="1.64898">
        <ele>1456.5</ele>
        <time>2020-02-09T11:56:13Z</time>
      </trkpt>
      <trkpt lat="42.69107" lon="1.64909">
        <ele>1456</ele>
        <time>2020-02-09T11:56:17Z</time>
      </trkpt>
      <trkpt lat="42.69107" lon="1.64909">
        <ele>1456</ele>
        <time>2020-02-09T11:56:23Z</time>
      </trkpt>
      <trkpt lat="42.69097" lon="1.6491">
        <ele>1454.9</ele>
        <time>2020-02-09T11:56:28Z</time>
      </trkpt>
      <trkpt lat="42.69097" lon="1.6491">
        <ele>1454.9</ele>
        <time>2020-02-09T11:56:33Z</time>
      </trkpt>
      <trkpt lat="42.69087" lon="1.64911">
        <ele>1453.5</ele>
        <time>2020-02-09T11:56:36Z</time>
      </trkpt>
      <trkpt lat="42.69087" lon="1.64911">
        <ele>1453.5</ele>
        <time>2020-02-09T11:56:43Z</time>
      </trkpt>
      <trkpt lat="42.69092" lon="1.64921">
        <ele>1452.6</ele>
        <time>2020-02-09T11:56:49Z</time>
      </trkpt>
      <trkpt lat="42.69092" lon="1.64921">
        <ele>1452.6</ele>
        <time>2020-02-09T11:56:53Z</time>
      </trkpt>
      <trkpt lat="42.69084" lon="1.64939">
        <ele>1451.9</ele>
        <time>2020-02-09T11:57:02Z</time>
      </trkpt>
      <trkpt lat="42.69082" lon="1.64942">
        <ele>1452.3</ele>
        <time>2020-02-09T11:57:03Z</time>
      </trkpt>
      <trkpt lat="42.6908" lon="1.64946">
        <ele>1452.9</ele>
        <time>2020-02-09T11:57:13Z</time>
      </trkpt>
      <trkpt lat="42.69078" lon="1.64949">
        <ele>1452.9</ele>
        <time>2020-02-09T11:57:15Z</time>
      </trkpt>
      <trkpt lat="42.69076" lon="1.64952">
        <ele>1453.7</ele>
        <time>2020-02-09T11:57:23Z</time>
      </trkpt>
      <trkpt lat="42.69074" lon="1.64955">
        <ele>1454.5</ele>
        <time>2020-02-09T11:57:33Z</time>
      </trkpt>
      <trkpt lat="42.69072" lon="1.64959">
        <ele>1455.2</ele>
        <time>2020-02-09T11:57:42Z</time>
      </trkpt>
      <trkpt lat="42.6907" lon="1.64962">
        <ele>1455.3</ele>
        <time>2020-02-09T11:57:43Z</time>
      </trkpt>
      <trkpt lat="42.69068" lon="1.64965">
        <ele>1455.8</ele>
        <time>2020-02-09T11:57:53Z</time>
      </trkpt>
      <trkpt lat="42.69065" lon="1.64969">
        <ele>1456.4</ele>
        <time>2020-02-09T11:57:57Z</time>
      </trkpt>
      <trkpt lat="42.69063" lon="1.64972">
        <ele>1456.9</ele>
        <time>2020-02-09T11:58:03Z</time>
      </trkpt>
      <trkpt lat="42.69061" lon="1.64975">
        <ele>1456.9</ele>
        <time>2020-02-09T11:58:05Z</time>
      </trkpt>
      <trkpt lat="42.69059" lon="1.64978">
        <ele>1457.5</ele>
        <time>2020-02-09T11:58:13Z</time>
      </trkpt>
      <trkpt lat="42.69057" lon="1.64982">
        <ele>1458.2</ele>
        <time>2020-02-09T11:58:23Z</time>
      </trkpt>
      <trkpt lat="42.69055" lon="1.64985">
        <ele>1458.8</ele>
        <time>2020-02-09T11:58:27Z</time>
      </trkpt>
      <trkpt lat="42.69053" lon="1.64988">
        <ele>1459.8</ele>
        <time>2020-02-09T11:58:31Z</time>
      </trkpt>
      <trkpt lat="42.69051" lon="1.64992">
        <ele>1460.2</ele>
        <time>2020-02-09T11:58:33Z</time>
      </trkpt>
      <trkpt lat="42.6906" lon="1.64979">
        <ele>1457.5</ele>
        <time>2020-02-09T11:58:43Z</time>
      </trkpt>
      <trkpt lat="42.69061" lon="1.64975">
        <ele>1456.9</ele>
        <time>2020-02-09T11:58:51Z</time>
      </trkpt>
      <trkpt lat="42.69062" lon="1.64971">
        <ele>1456.9</ele>
        <time>2020-02-09T11:58:53Z</time>
      </trkpt>
      <trkpt lat="42.69062" lon="1.64971">
        <ele>1456.9</ele>
        <time>2020-02-09T11:59:03Z</time>
      </trkpt>
      <trkpt lat="42.69052" lon="1.64977">
        <ele>1457.8</ele>
        <time>2020-02-09T11:59:10Z</time>
      </trkpt>
      <trkpt lat="42.69052" lon="1.64977">
        <ele>1457.8</ele>
        <time>2020-02-09T11:59:13Z</time>
      </trkpt>
      <trkpt lat="42.69061" lon="1.64978">
        <ele>1457.4</ele>
        <time>2020-02-09T11:59:22Z</time>
      </trkpt>
      <trkpt lat="42.69061" lon="1.64978">
        <ele>1457.4</ele>
        <time>2020-02-09T11:59:23Z</time>
      </trkpt>
      <trkpt lat="42.69061" lon="1.64978">
        <ele>1457.4</ele>
        <time>2020-02-09T11:59:33Z</time>
      </trkpt>
      <trkpt lat="42.69061" lon="1.64978">
        <ele>1457.4</ele>
        <time>2020-02-09T11:59:43Z</time>
      </trkpt>
      <trkpt lat="42.69061" lon="1.64978">
        <ele>1457.4</ele>
        <time>2020-02-09T11:59:53Z</time>
      </trkpt>
      <trkpt lat="42.69058" lon="1.64966">
        <ele>1456</ele>
        <time>2020-02-09T11:59:58Z</time>
      </trkpt>
      <trkpt lat="42.69058" lon="1.64966">
        <ele>1456</ele>
        <time>2020-02-09T12:00:03Z</time>
      </trkpt>
      <trkpt lat="42.69058" lon="1.64966">
        <ele>1456</ele>
        <time>2020-02-09T12:00:13Z</time>
      </trkpt>
      <trkpt lat="42.69065" lon="1.64962">
        <ele>1455.3</ele>
        <time>2020-02-09T13:20:33Z</time>
      </trkpt>
      <trkpt lat="42.69074" lon="1.64954">
        <ele>1454.5</ele>
        <time>2020-02-09T13:20:36Z</time>
      </trkpt>
      <trkpt lat="42.69074" lon="1.64954">
        <ele>1454.5</ele>
        <time>2020-02-09T13:20:40Z</time>
      </trkpt>
      <trkpt lat="42.6908" lon="1.64965">
        <ele>1455.4</ele>
        <time>2020-02-09T13:20:42Z</time>
      </trkpt>
      <trkpt lat="42.6908" lon="1.64965">
        <ele>1455.4</ele>
        <time>2020-02-09T13:20:50Z</time>
      </trkpt>
      <trkpt lat="42.69085" lon="1.64976">
        <ele>1456.7</ele>
        <time>2020-02-09T13:20:55Z</time>
      </trkpt>
      <trkpt lat="42.69085" lon="1.64976">
        <ele>1456.7</ele>
        <time>2020-02-09T13:21:00Z</time>
      </trkpt>
      <trkpt lat="42.69097" lon="1.6498">
        <ele>1456.8</ele>
        <time>2020-02-09T13:21:10Z</time>
      </trkpt>
      <trkpt lat="42.691" lon="1.64982">
        <ele>1456.8</ele>
        <time>2020-02-09T13:21:19Z</time>
      </trkpt>
      <trkpt lat="42.69102" lon="1.64985">
        <ele>1457.4</ele>
        <time>2020-02-09T13:21:20Z</time>
      </trkpt>
      <trkpt lat="42.69104" lon="1.64989">
        <ele>1457.9</ele>
        <time>2020-02-09T13:21:30Z</time>
      </trkpt>
      <trkpt lat="42.69106" lon="1.64993">
        <ele>1458.4</ele>
        <time>2020-02-09T13:21:31Z</time>
      </trkpt>
      <trkpt lat="42.69108" lon="1.64997">
        <ele>1458.4</ele>
        <time>2020-02-09T13:21:40Z</time>
      </trkpt>
      <trkpt lat="42.6911" lon="1.65001">
        <ele>1458.8</ele>
        <time>2020-02-09T13:21:49Z</time>
      </trkpt>
      <trkpt lat="42.69112" lon="1.65005">
        <ele>1459.1</ele>
        <time>2020-02-09T13:21:50Z</time>
      </trkpt>
      <trkpt lat="42.69114" lon="1.65009">
        <ele>1459.4</ele>
        <time>2020-02-09T13:21:59Z</time>
      </trkpt>
      <trkpt lat="42.69116" lon="1.65013">
        <ele>1459.6</ele>
        <time>2020-02-09T13:22:00Z</time>
      </trkpt>
      <trkpt lat="42.69116" lon="1.65013">
        <ele>1459.6</ele>
        <time>2020-02-09T13:22:10Z</time>
      </trkpt>
      <trkpt lat="42.69123" lon="1.65021">
        <ele>1458.8</ele>
        <time>2020-02-09T13:22:15Z</time>
      </trkpt>
      <trkpt lat="42.69123" lon="1.65021">
        <ele>1458.8</ele>
        <time>2020-02-09T13:22:20Z</time>
      </trkpt>
      <trkpt lat="42.69132" lon="1.65024">
        <ele>1457.7</ele>
        <time>2020-02-09T13:22:28Z</time>
      </trkpt>
      <trkpt lat="42.69132" lon="1.65024">
        <ele>1457.7</ele>
        <time>2020-02-09T13:22:30Z</time>
      </trkpt>
      <trkpt lat="42.69141" lon="1.6503">
        <ele>1456.2</ele>
        <time>2020-02-09T13:22:36Z</time>
      </trkpt>
      <trkpt lat="42.69141" lon="1.6503">
        <ele>1456.2</ele>
        <time>2020-02-09T13:22:40Z</time>
      </trkpt>
      <trkpt lat="42.6915" lon="1.65035">
        <ele>1454.5</ele>
        <time>2020-02-09T13:22:44Z</time>
      </trkpt>
      <trkpt lat="42.6915" lon="1.65035">
        <ele>1454.5</ele>
        <time>2020-02-09T13:22:50Z</time>
      </trkpt>
      <trkpt lat="42.69158" lon="1.6504">
        <ele>1452.8</ele>
        <time>2020-02-09T13:22:52Z</time>
      </trkpt>
      <trkpt lat="42.69158" lon="1.6504">
        <ele>1452.8</ele>
        <time>2020-02-09T13:23:00Z</time>
      </trkpt>
      <trkpt lat="42.69165" lon="1.65049">
        <ele>1451</ele>
        <time>2020-02-09T13:23:01Z</time>
      </trkpt>
      <trkpt lat="42.69165" lon="1.65049">
        <ele>1451</ele>
        <time>2020-02-09T13:23:10Z</time>
      </trkpt>
      <trkpt lat="42.69171" lon="1.6506">
        <ele>1449.4</ele>
        <time>2020-02-09T13:23:16Z</time>
      </trkpt>
      <trkpt lat="42.69171" lon="1.6506">
        <ele>1449.4</ele>
        <time>2020-02-09T13:23:20Z</time>
      </trkpt>
      <trkpt lat="42.69182" lon="1.6507">
        <ele>1447.6</ele>
        <time>2020-02-09T13:23:30Z</time>
      </trkpt>
      <trkpt lat="42.69186" lon="1.65072">
        <ele>1447.2</ele>
        <time>2020-02-09T13:23:40Z</time>
      </trkpt>
      <trkpt lat="42.6919" lon="1.65074">
        <ele>1446.8</ele>
        <time>2020-02-09T13:23:42Z</time>
      </trkpt>
      <trkpt lat="42.69193" lon="1.65076">
        <ele>1446.4</ele>
        <time>2020-02-09T13:23:49Z</time>
      </trkpt>
      <trkpt lat="42.69197" lon="1.65078">
        <ele>1446</ele>
        <time>2020-02-09T13:23:50Z</time>
      </trkpt>
      <trkpt lat="42.69197" lon="1.65078">
        <ele>1446</ele>
        <time>2020-02-09T13:24:00Z</time>
      </trkpt>
      <trkpt lat="42.69203" lon="1.65088">
        <ele>1444.9</ele>
        <time>2020-02-09T13:24:03Z</time>
      </trkpt>
      <trkpt lat="42.69203" lon="1.65088">
        <ele>1444.9</ele>
        <time>2020-02-09T13:24:10Z</time>
      </trkpt>
      <trkpt lat="42.69212" lon="1.65092">
        <ele>1443.8</ele>
        <time>2020-02-09T13:24:16Z</time>
      </trkpt>
      <trkpt lat="42.69212" lon="1.65092">
        <ele>1443.8</ele>
        <time>2020-02-09T13:24:20Z</time>
      </trkpt>
      <trkpt lat="42.69221" lon="1.65092">
        <ele>1442.6</ele>
        <time>2020-02-09T13:24:29Z</time>
      </trkpt>
      <trkpt lat="42.69221" lon="1.65092">
        <ele>1442.6</ele>
        <time>2020-02-09T13:24:30Z</time>
      </trkpt>
      <trkpt lat="42.69221" lon="1.65092">
        <ele>1442.6</ele>
        <time>2020-02-09T13:24:40Z</time>
      </trkpt>
      <trkpt lat="42.69228" lon="1.65101">
        <ele>1441.6</ele>
        <time>2020-02-09T13:24:43Z</time>
      </trkpt>
      <trkpt lat="42.69228" lon="1.65101">
        <ele>1441.6</ele>
        <time>2020-02-09T13:24:50Z</time>
      </trkpt>
      <trkpt lat="42.69232" lon="1.65112">
        <ele>1440.5</ele>
        <time>2020-02-09T13:24:56Z</time>
      </trkpt>
      <trkpt lat="42.69232" lon="1.65112">
        <ele>1440.5</ele>
        <time>2020-02-09T13:25:00Z</time>
      </trkpt>
      <trkpt lat="42.69242" lon="1.65118">
        <ele>1439.1</ele>
        <time>2020-02-09T13:25:05Z</time>
      </trkpt>
      <trkpt lat="42.69242" lon="1.65118">
        <ele>1439.1</ele>
        <time>2020-02-09T13:25:10Z</time>
      </trkpt>
      <trkpt lat="42.69249" lon="1.65127">
        <ele>1438</ele>
        <time>2020-02-09T13:25:14Z</time>
      </trkpt>
      <trkpt lat="42.69249" lon="1.65127">
        <ele>1438</ele>
        <time>2020-02-09T13:25:20Z</time>
      </trkpt>
      <trkpt lat="42.69256" lon="1.65133">
        <ele>1437</ele>
        <time>2020-02-09T13:25:25Z</time>
      </trkpt>
      <trkpt lat="42.69256" lon="1.65133">
        <ele>1437</ele>
        <time>2020-02-09T13:25:30Z</time>
      </trkpt>
      <trkpt lat="42.69266" lon="1.65136">
        <ele>1435.8</ele>
        <time>2020-02-09T13:25:40Z</time>
      </trkpt>
      <trkpt lat="42.69266" lon="1.65136">
        <ele>1435.8</ele>
        <time>2020-02-09T13:25:50Z</time>
      </trkpt>
      <trkpt lat="42.69274" lon="1.65143">
        <ele>1434.3</ele>
        <time>2020-02-09T13:25:55Z</time>
      </trkpt>
      <trkpt lat="42.69274" lon="1.65143">
        <ele>1434.3</ele>
        <time>2020-02-09T13:26:00Z</time>
      </trkpt>
      <trkpt lat="42.69283" lon="1.65148">
        <ele>1432.7</ele>
        <time>2020-02-09T13:26:09Z</time>
      </trkpt>
      <trkpt lat="42.69283" lon="1.65148">
        <ele>1432.7</ele>
        <time>2020-02-09T13:26:10Z</time>
      </trkpt>
      <trkpt lat="42.69283" lon="1.65148">
        <ele>1432.7</ele>
        <time>2020-02-09T13:26:20Z</time>
      </trkpt>
      <trkpt lat="42.69283" lon="1.65148">
        <ele>1432.7</ele>
        <time>2020-02-09T13:26:30Z</time>
      </trkpt>
      <trkpt lat="42.69283" lon="1.65148">
        <ele>1432.7</ele>
        <time>2020-02-09T13:26:40Z</time>
      </trkpt>
      <trkpt lat="42.6929" lon="1.65158">
        <ele>1430.8</ele>
        <time>2020-02-09T13:26:43Z</time>
      </trkpt>
      <trkpt lat="42.6929" lon="1.65158">
        <ele>1430.8</ele>
        <time>2020-02-09T13:26:50Z</time>
      </trkpt>
      <trkpt lat="42.69298" lon="1.65164">
        <ele>1429.4</ele>
        <time>2020-02-09T13:26:56Z</time>
      </trkpt>
      <trkpt lat="42.69298" lon="1.65164">
        <ele>1429.4</ele>
        <time>2020-02-09T13:27:00Z</time>
      </trkpt>
      <trkpt lat="42.69298" lon="1.65164">
        <ele>1429.4</ele>
        <time>2020-02-09T13:27:10Z</time>
      </trkpt>
      <trkpt lat="42.69298" lon="1.65164">
        <ele>1429.4</ele>
        <time>2020-02-09T13:27:20Z</time>
      </trkpt>
      <trkpt lat="42.69306" lon="1.65172">
        <ele>1428.1</ele>
        <time>2020-02-09T13:27:28Z</time>
      </trkpt>
      <trkpt lat="42.69306" lon="1.65172">
        <ele>1428.1</ele>
        <time>2020-02-09T13:27:30Z</time>
      </trkpt>
      <trkpt lat="42.69306" lon="1.65172">
        <ele>1428.1</ele>
        <time>2020-02-09T13:27:40Z</time>
      </trkpt>
      <trkpt lat="42.69306" lon="1.65172">
        <ele>1428.1</ele>
        <time>2020-02-09T13:27:50Z</time>
      </trkpt>
      <trkpt lat="42.69314" lon="1.65178">
        <ele>1426.6</ele>
        <time>2020-02-09T13:27:54Z</time>
      </trkpt>
      <trkpt lat="42.69314" lon="1.65178">
        <ele>1426.6</ele>
        <time>2020-02-09T13:28:00Z</time>
      </trkpt>
      <trkpt lat="42.69323" lon="1.65184">
        <ele>1425.2</ele>
        <time>2020-02-09T13:28:08Z</time>
      </trkpt>
      <trkpt lat="42.69323" lon="1.65184">
        <ele>1425.2</ele>
        <time>2020-02-09T13:28:10Z</time>
      </trkpt>
      <trkpt lat="42.69323" lon="1.65184">
        <ele>1425.2</ele>
        <time>2020-02-09T13:28:20Z</time>
      </trkpt>
      <trkpt lat="42.69323" lon="1.65184">
        <ele>1425.2</ele>
        <time>2020-02-09T13:28:30Z</time>
      </trkpt>
      <trkpt lat="42.69332" lon="1.65188">
        <ele>1423.3</ele>
        <time>2020-02-09T13:28:31Z</time>
      </trkpt>
      <trkpt lat="42.69332" lon="1.65188">
        <ele>1423.3</ele>
        <time>2020-02-09T13:28:40Z</time>
      </trkpt>
      <trkpt lat="42.69342" lon="1.65189">
        <ele>1421.1</ele>
        <time>2020-02-09T13:28:47Z</time>
      </trkpt>
      <trkpt lat="42.69342" lon="1.65189">
        <ele>1421.1</ele>
        <time>2020-02-09T13:28:50Z</time>
      </trkpt>
      <trkpt lat="42.69342" lon="1.65189">
        <ele>1421.1</ele>
        <time>2020-02-09T13:29:00Z</time>
      </trkpt>
      <trkpt lat="42.69351" lon="1.65191">
        <ele>1418.7</ele>
        <time>2020-02-09T13:29:02Z</time>
      </trkpt>
      <trkpt lat="42.69351" lon="1.65191">
        <ele>1418.7</ele>
        <time>2020-02-09T13:29:10Z</time>
      </trkpt>
      <trkpt lat="42.69351" lon="1.65191">
        <ele>1418.7</ele>
        <time>2020-02-09T13:29:20Z</time>
      </trkpt>
      <trkpt lat="42.69351" lon="1.65191">
        <ele>1418.7</ele>
        <time>2020-02-09T13:29:30Z</time>
      </trkpt>
      <trkpt lat="42.6936" lon="1.65187">
        <ele>1416.1</ele>
        <time>2020-02-09T13:29:32Z</time>
      </trkpt>
      <trkpt lat="42.6936" lon="1.65187">
        <ele>1416.1</ele>
        <time>2020-02-09T13:29:40Z</time>
      </trkpt>
      <trkpt lat="42.6936" lon="1.65187">
        <ele>1416.1</ele>
        <time>2020-02-09T13:29:50Z</time>
      </trkpt>
      <trkpt lat="42.69365" lon="1.65198">
        <ele>1413.5</ele>
        <time>2020-02-09T13:29:59Z</time>
      </trkpt>
      <trkpt lat="42.69365" lon="1.65198">
        <ele>1413.5</ele>
        <time>2020-02-09T13:30:00Z</time>
      </trkpt>
      <trkpt lat="42.69365" lon="1.65198">
        <ele>1413.5</ele>
        <time>2020-02-09T13:30:10Z</time>
      </trkpt>
      <trkpt lat="42.69373" lon="1.65204">
        <ele>1411</ele>
        <time>2020-02-09T13:30:16Z</time>
      </trkpt>
      <trkpt lat="42.69373" lon="1.65204">
        <ele>1411</ele>
        <time>2020-02-09T13:30:20Z</time>
      </trkpt>
      <trkpt lat="42.69373" lon="1.65204">
        <ele>1411</ele>
        <time>2020-02-09T13:30:30Z</time>
      </trkpt>
      <trkpt lat="42.69382" lon="1.65203">
        <ele>1408.7</ele>
        <time>2020-02-09T13:30:34Z</time>
      </trkpt>
      <trkpt lat="42.69382" lon="1.65203">
        <ele>1408.7</ele>
        <time>2020-02-09T13:30:40Z</time>
      </trkpt>
      <trkpt lat="42.69382" lon="1.65203">
        <ele>1408.7</ele>
        <time>2020-02-09T13:30:50Z</time>
      </trkpt>
      <trkpt lat="42.69382" lon="1.65203">
        <ele>1408.7</ele>
        <time>2020-02-09T13:31:00Z</time>
      </trkpt>
      <trkpt lat="42.69389" lon="1.6521">
        <ele>1406.7</ele>
        <time>2020-02-09T13:31:04Z</time>
      </trkpt>
      <trkpt lat="42.69389" lon="1.6521">
        <ele>1406.7</ele>
        <time>2020-02-09T13:31:10Z</time>
      </trkpt>
      <trkpt lat="42.69399" lon="1.65215">
        <ele>1404.7</ele>
        <time>2020-02-09T13:31:18Z</time>
      </trkpt>
      <trkpt lat="42.69399" lon="1.65215">
        <ele>1404.7</ele>
        <time>2020-02-09T13:31:20Z</time>
      </trkpt>
      <trkpt lat="42.69399" lon="1.65215">
        <ele>1404.7</ele>
        <time>2020-02-09T13:31:30Z</time>
      </trkpt>
      <trkpt lat="42.69406" lon="1.65224">
        <ele>1403.3</ele>
        <time>2020-02-09T13:31:32Z</time>
      </trkpt>
      <trkpt lat="42.69406" lon="1.65224">
        <ele>1403.3</ele>
        <time>2020-02-09T13:31:40Z</time>
      </trkpt>
      <trkpt lat="42.69406" lon="1.65224">
        <ele>1403.3</ele>
        <time>2020-02-09T13:31:50Z</time>
      </trkpt>
      <trkpt lat="42.69414" lon="1.6523">
        <ele>1402.7</ele>
        <time>2020-02-09T13:32:00Z</time>
      </trkpt>
      <trkpt lat="42.69415" lon="1.65243">
        <ele>1402.5</ele>
        <time>2020-02-09T13:32:04Z</time>
      </trkpt>
      <trkpt lat="42.69415" lon="1.65243">
        <ele>1402.5</ele>
        <time>2020-02-09T13:32:10Z</time>
      </trkpt>
      <trkpt lat="42.69415" lon="1.65243">
        <ele>1402.5</ele>
        <time>2020-02-09T13:32:20Z</time>
      </trkpt>
      <trkpt lat="42.69424" lon="1.65247">
        <ele>1402.4</ele>
        <time>2020-02-09T13:32:24Z</time>
      </trkpt>
      <trkpt lat="42.69424" lon="1.65247">
        <ele>1402.4</ele>
        <time>2020-02-09T13:32:30Z</time>
      </trkpt>
      <trkpt lat="42.69432" lon="1.65237">
        <ele>1402.1</ele>
        <time>2020-02-09T13:32:32Z</time>
      </trkpt>
      <trkpt lat="42.69432" lon="1.65237">
        <ele>1402.1</ele>
        <time>2020-02-09T13:32:40Z</time>
      </trkpt>
      <trkpt lat="42.69441" lon="1.65233">
        <ele>1401.7</ele>
        <time>2020-02-09T13:32:49Z</time>
      </trkpt>
      <trkpt lat="42.69441" lon="1.65233">
        <ele>1401.7</ele>
        <time>2020-02-09T13:32:50Z</time>
      </trkpt>
      <trkpt lat="42.69443" lon="1.65246">
        <ele>1401.1</ele>
        <time>2020-02-09T13:32:55Z</time>
      </trkpt>
      <trkpt lat="42.69443" lon="1.65246">
        <ele>1401.1</ele>
        <time>2020-02-09T13:33:00Z</time>
      </trkpt>
      <trkpt lat="42.6945" lon="1.65253">
        <ele>1400.2</ele>
        <time>2020-02-09T13:33:04Z</time>
      </trkpt>
      <trkpt lat="42.69458" lon="1.65261">
        <ele>1399.1</ele>
        <time>2020-02-09T13:33:07Z</time>
      </trkpt>
      <trkpt lat="42.69458" lon="1.65261">
        <ele>1399.1</ele>
        <time>2020-02-09T13:33:10Z</time>
      </trkpt>
      <trkpt lat="42.69458" lon="1.65261">
        <ele>1399.1</ele>
        <time>2020-02-09T13:33:20Z</time>
      </trkpt>
      <trkpt lat="42.69458" lon="1.65261">
        <ele>1399.1</ele>
        <time>2020-02-09T13:33:30Z</time>
      </trkpt>
      <trkpt lat="42.69466" lon="1.65265">
        <ele>1397.9</ele>
        <time>2020-02-09T13:33:36Z</time>
      </trkpt>
      <trkpt lat="42.69466" lon="1.65265">
        <ele>1397.9</ele>
        <time>2020-02-09T13:33:40Z</time>
      </trkpt>
      <trkpt lat="42.69466" lon="1.65265">
        <ele>1397.9</ele>
        <time>2020-02-09T13:33:50Z</time>
      </trkpt>
      <trkpt lat="42.69475" lon="1.65271">
        <ele>1396.5</ele>
        <time>2020-02-09T13:34:00Z</time>
      </trkpt>
      <trkpt lat="42.69475" lon="1.65271">
        <ele>1396.5</ele>
        <time>2020-02-09T13:34:10Z</time>
      </trkpt>
      <trkpt lat="42.69475" lon="1.65271">
        <ele>1396.5</ele>
        <time>2020-02-09T13:34:20Z</time>
      </trkpt>
      <trkpt lat="42.69482" lon="1.65279">
        <ele>1395.3</ele>
        <time>2020-02-09T13:34:25Z</time>
      </trkpt>
      <trkpt lat="42.69482" lon="1.65279">
        <ele>1395.3</ele>
        <time>2020-02-09T13:34:30Z</time>
      </trkpt>
      <trkpt lat="42.69488" lon="1.65291">
        <ele>1393.9</ele>
        <time>2020-02-09T13:34:36Z</time>
      </trkpt>
      <trkpt lat="42.69488" lon="1.65291">
        <ele>1393.9</ele>
        <time>2020-02-09T13:34:40Z</time>
      </trkpt>
      <trkpt lat="42.69497" lon="1.65304">
        <ele>1392.6</ele>
        <time>2020-02-09T13:34:50Z</time>
      </trkpt>
      <trkpt lat="42.69502" lon="1.65307">
        <ele>1392.2</ele>
        <time>2020-02-09T13:35:00Z</time>
      </trkpt>
      <trkpt lat="42.69506" lon="1.6531">
        <ele>1391.8</ele>
        <time>2020-02-09T13:35:10Z</time>
      </trkpt>
      <trkpt lat="42.6951" lon="1.65312">
        <ele>1391.4</ele>
        <time>2020-02-09T13:35:12Z</time>
      </trkpt>
      <trkpt lat="42.69515" lon="1.65315">
        <ele>1391</ele>
        <time>2020-02-09T13:35:20Z</time>
      </trkpt>
      <trkpt lat="42.69519" lon="1.65318">
        <ele>1390.7</ele>
        <time>2020-02-09T13:35:22Z</time>
      </trkpt>
      <trkpt lat="42.69523" lon="1.65321">
        <ele>1390.3</ele>
        <time>2020-02-09T13:35:29Z</time>
      </trkpt>
      <trkpt lat="42.69528" lon="1.65324">
        <ele>1390</ele>
        <time>2020-02-09T13:35:30Z</time>
      </trkpt>
      <trkpt lat="42.69532" lon="1.65334">
        <ele>1389.1</ele>
        <time>2020-02-09T13:35:33Z</time>
      </trkpt>
      <trkpt lat="42.69532" lon="1.65334">
        <ele>1389.1</ele>
        <time>2020-02-09T13:35:40Z</time>
      </trkpt>
      <trkpt lat="42.69537" lon="1.65346">
        <ele>1388</ele>
        <time>2020-02-09T13:35:41Z</time>
      </trkpt>
      <trkpt lat="42.69537" lon="1.65346">
        <ele>1388</ele>
        <time>2020-02-09T13:35:50Z</time>
      </trkpt>
      <trkpt lat="42.69545" lon="1.6535">
        <ele>1387.1</ele>
        <time>2020-02-09T13:35:59Z</time>
      </trkpt>
      <trkpt lat="42.69545" lon="1.6535">
        <ele>1387.1</ele>
        <time>2020-02-09T13:36:00Z</time>
      </trkpt>
      <trkpt lat="42.69545" lon="1.6535">
        <ele>1387.1</ele>
        <time>2020-02-09T13:36:10Z</time>
      </trkpt>
      <trkpt lat="42.69545" lon="1.6535">
        <ele>1387.1</ele>
        <time>2020-02-09T13:36:20Z</time>
      </trkpt>
      <trkpt lat="42.69554" lon="1.65355">
        <ele>1386.2</ele>
        <time>2020-02-09T13:36:25Z</time>
      </trkpt>
      <trkpt lat="42.69554" lon="1.65355">
        <ele>1386.2</ele>
        <time>2020-02-09T13:36:30Z</time>
      </trkpt>
      <trkpt lat="42.69561" lon="1.65362">
        <ele>1385</ele>
        <time>2020-02-09T13:36:33Z</time>
      </trkpt>
      <trkpt lat="42.69563" lon="1.65376">
        <ele>1383.7</ele>
        <time>2020-02-09T13:36:37Z</time>
      </trkpt>
      <trkpt lat="42.69563" lon="1.65376">
        <ele>1383.7</ele>
        <time>2020-02-09T13:36:40Z</time>
      </trkpt>
      <trkpt lat="42.69567" lon="1.65389">
        <ele>1382.2</ele>
        <time>2020-02-09T13:36:47Z</time>
      </trkpt>
      <trkpt lat="42.69567" lon="1.65389">
        <ele>1382.2</ele>
        <time>2020-02-09T13:36:50Z</time>
      </trkpt>
      <trkpt lat="42.69577" lon="1.65386">
        <ele>1380.7</ele>
        <time>2020-02-09T13:36:57Z</time>
      </trkpt>
      <trkpt lat="42.69577" lon="1.65386">
        <ele>1380.7</ele>
        <time>2020-02-09T13:37:00Z</time>
      </trkpt>
      <trkpt lat="42.69585" lon="1.6538">
        <ele>1379.3</ele>
        <time>2020-02-09T13:37:06Z</time>
      </trkpt>
      <trkpt lat="42.69585" lon="1.6538">
        <ele>1379.3</ele>
        <time>2020-02-09T13:37:10Z</time>
      </trkpt>
      <trkpt lat="42.69589" lon="1.65382">
        <ele>1378.7</ele>
        <time>2020-02-09T13:37:20Z</time>
      </trkpt>
      <trkpt lat="42.69593" lon="1.65383">
        <ele>1378.3</ele>
        <time>2020-02-09T13:37:30Z</time>
      </trkpt>
      <trkpt lat="42.69596" lon="1.65385">
        <ele>1377.8</ele>
        <time>2020-02-09T13:37:40Z</time>
      </trkpt>
      <trkpt lat="42.696" lon="1.65387">
        <ele>1377.3</ele>
        <time>2020-02-09T13:37:50Z</time>
      </trkpt>
      <trkpt lat="42.69604" lon="1.65388">
        <ele>1376.8</ele>
        <time>2020-02-09T13:38:00Z</time>
      </trkpt>
      <trkpt lat="42.69607" lon="1.6539">
        <ele>1376.4</ele>
        <time>2020-02-09T13:38:10Z</time>
      </trkpt>
      <trkpt lat="42.69611" lon="1.65392">
        <ele>1376</ele>
        <time>2020-02-09T13:38:13Z</time>
      </trkpt>
      <trkpt lat="42.69615" lon="1.65394">
        <ele>1375.7</ele>
        <time>2020-02-09T13:38:19Z</time>
      </trkpt>
      <trkpt lat="42.69618" lon="1.65395">
        <ele>1375.4</ele>
        <time>2020-02-09T13:38:20Z</time>
      </trkpt>
      <trkpt lat="42.69627" lon="1.65397">
        <ele>1374.9</ele>
        <time>2020-02-09T13:38:26Z</time>
      </trkpt>
      <trkpt lat="42.69627" lon="1.65397">
        <ele>1374.9</ele>
        <time>2020-02-09T13:38:30Z</time>
      </trkpt>
      <trkpt lat="42.6964" lon="1.65403">
        <ele>1374.3</ele>
        <time>2020-02-09T13:38:40Z</time>
      </trkpt>
      <trkpt lat="42.69643" lon="1.65403">
        <ele>1374.1</ele>
        <time>2020-02-09T13:38:49Z</time>
      </trkpt>
      <trkpt lat="42.69646" lon="1.65403">
        <ele>1374</ele>
        <time>2020-02-09T13:38:50Z</time>
      </trkpt>
      <trkpt lat="42.69656" lon="1.65403">
        <ele>1373.8</ele>
        <time>2020-02-09T13:38:58Z</time>
      </trkpt>
      <trkpt lat="42.69656" lon="1.65403">
        <ele>1373.8</ele>
        <time>2020-02-09T13:39:00Z</time>
      </trkpt>
      <trkpt lat="42.69666" lon="1.65402">
        <ele>1373.6</ele>
        <time>2020-02-09T13:39:04Z</time>
      </trkpt>
      <trkpt lat="42.69676" lon="1.65396">
        <ele>1373.4</ele>
        <time>2020-02-09T13:39:10Z</time>
      </trkpt>
      <trkpt lat="42.69685" lon="1.6539">
        <ele>1373.2</ele>
        <time>2020-02-09T13:39:17Z</time>
      </trkpt>
      <trkpt lat="42.69685" lon="1.6539">
        <ele>1373.2</ele>
        <time>2020-02-09T13:39:20Z</time>
      </trkpt>
      <trkpt lat="42.69685" lon="1.6539">
        <ele>1373.2</ele>
        <time>2020-02-09T13:39:30Z</time>
      </trkpt>
      <trkpt lat="42.69685" lon="1.65402">
        <ele>1372.9</ele>
        <time>2020-02-09T13:39:31Z</time>
      </trkpt>
      <trkpt lat="42.69688" lon="1.65415">
        <ele>1372.3</ele>
        <time>2020-02-09T13:39:37Z</time>
      </trkpt>
      <trkpt lat="42.69688" lon="1.65415">
        <ele>1372.3</ele>
        <time>2020-02-09T13:39:40Z</time>
      </trkpt>
      <trkpt lat="42.69694" lon="1.65431">
        <ele>1371.5</ele>
        <time>2020-02-09T13:39:43Z</time>
      </trkpt>
      <trkpt lat="42.69697" lon="1.65434">
        <ele>1371.1</ele>
        <time>2020-02-09T13:39:50Z</time>
      </trkpt>
      <trkpt lat="42.697" lon="1.65438">
        <ele>1370.6</ele>
        <time>2020-02-09T13:39:52Z</time>
      </trkpt>
      <trkpt lat="42.69703" lon="1.65441">
        <ele>1370.3</ele>
        <time>2020-02-09T13:39:59Z</time>
      </trkpt>
      <trkpt lat="42.69706" lon="1.65445">
        <ele>1369.9</ele>
        <time>2020-02-09T13:40:00Z</time>
      </trkpt>
      <trkpt lat="42.6971" lon="1.65447">
        <ele>1369.4</ele>
        <time>2020-02-09T13:40:10Z</time>
      </trkpt>
      <trkpt lat="42.69715" lon="1.65448">
        <ele>1368.9</ele>
        <time>2020-02-09T13:40:12Z</time>
      </trkpt>
      <trkpt lat="42.6972" lon="1.6545">
        <ele>1368.4</ele>
        <time>2020-02-09T13:40:19Z</time>
      </trkpt>
      <trkpt lat="42.69724" lon="1.65452">
        <ele>1368</ele>
        <time>2020-02-09T13:40:20Z</time>
      </trkpt>
      <trkpt lat="42.69724" lon="1.65452">
        <ele>1368</ele>
        <time>2020-02-09T13:40:30Z</time>
      </trkpt>
      <trkpt lat="42.69733" lon="1.65455">
        <ele>1367.2</ele>
        <time>2020-02-09T13:40:33Z</time>
      </trkpt>
      <trkpt lat="42.69733" lon="1.65455">
        <ele>1368.2</ele>
        <time>2020-02-09T13:40:40Z</time>
      </trkpt>
      <trkpt lat="42.69742" lon="1.65457">
        <ele>1367.7</ele>
        <time>2020-02-09T13:40:41Z</time>
      </trkpt>
      <trkpt lat="42.69742" lon="1.65457">
        <ele>1367.7</ele>
        <time>2020-02-09T13:40:50Z</time>
      </trkpt>
      <trkpt lat="42.6975" lon="1.65465">
        <ele>1367.3</ele>
        <time>2020-02-09T13:40:51Z</time>
      </trkpt>
      <trkpt lat="42.6976" lon="1.65471">
        <ele>1367.1</ele>
        <time>2020-02-09T13:40:57Z</time>
      </trkpt>
      <trkpt lat="42.6976" lon="1.65471">
        <ele>1367.1</ele>
        <time>2020-02-09T13:41:00Z</time>
      </trkpt>
      <trkpt lat="42.69767" lon="1.65487">
        <ele>1367.4</ele>
        <time>2020-02-09T13:41:06Z</time>
      </trkpt>
      <trkpt lat="42.69767" lon="1.65493">
        <ele>1367.4</ele>
        <time>2020-02-09T13:41:09Z</time>
      </trkpt>
      <trkpt lat="42.69768" lon="1.65499">
        <ele>1367.5</ele>
        <time>2020-02-09T13:41:10Z</time>
      </trkpt>
      <trkpt lat="42.69768" lon="1.65499">
        <ele>1367.5</ele>
        <time>2020-02-09T13:41:20Z</time>
      </trkpt>
      <trkpt lat="42.69772" lon="1.65488">
        <ele>1368.2</ele>
        <time>2020-02-09T13:41:25Z</time>
      </trkpt>
      <trkpt lat="42.69761" lon="1.65492">
        <ele>1369.2</ele>
        <time>2020-02-09T13:41:30Z</time>
      </trkpt>
      <trkpt lat="42.69752" lon="1.65497">
        <ele>1371.8</ele>
        <time>2020-02-09T13:41:35Z</time>
      </trkpt>
      <trkpt lat="42.69752" lon="1.65497">
        <ele>1371.8</ele>
        <time>2020-02-09T13:41:40Z</time>
      </trkpt>
      <trkpt lat="42.69752" lon="1.65497">
        <ele>1371.8</ele>
        <time>2020-02-09T13:41:50Z</time>
      </trkpt>
      <trkpt lat="42.69743" lon="1.65493">
        <ele>1373.9</ele>
        <time>2020-02-09T13:41:53Z</time>
      </trkpt>
      <trkpt lat="42.69743" lon="1.65493">
        <ele>1373.9</ele>
        <time>2020-02-09T13:42:00Z</time>
      </trkpt>
      <trkpt lat="42.69743" lon="1.65493">
        <ele>1373.9</ele>
        <time>2020-02-09T13:42:10Z</time>
      </trkpt>
      <trkpt lat="42.69746" lon="1.6548">
        <ele>1377.2</ele>
        <time>2020-02-09T13:42:12Z</time>
      </trkpt>
      <trkpt lat="42.69746" lon="1.6548">
        <ele>1377.2</ele>
        <time>2020-02-09T13:42:20Z</time>
      </trkpt>
      <trkpt lat="42.69756" lon="1.65478">
        <ele>1380.2</ele>
        <time>2020-02-09T13:42:24Z</time>
      </trkpt>
      <trkpt lat="42.69756" lon="1.65478">
        <ele>1380.2</ele>
        <time>2020-02-09T13:42:30Z</time>
      </trkpt>
      <trkpt lat="42.69764" lon="1.65471">
        <ele>1383.6</ele>
        <time>2020-02-09T13:42:35Z</time>
      </trkpt>
      <trkpt lat="42.69764" lon="1.65471">
        <ele>1383.6</ele>
        <time>2020-02-09T13:42:40Z</time>
      </trkpt>
      <trkpt lat="42.69769" lon="1.65484">
        <ele>1386.3</ele>
        <time>2020-02-09T13:42:46Z</time>
      </trkpt>
      <trkpt lat="42.69769" lon="1.65484">
        <ele>1386.3</ele>
        <time>2020-02-09T13:42:50Z</time>
      </trkpt>
      <trkpt lat="42.69769" lon="1.65484">
        <ele>1386.3</ele>
        <time>2020-02-09T13:43:00Z</time>
      </trkpt>
      <trkpt lat="42.69779" lon="1.6548">
        <ele>1387.8</ele>
        <time>2020-02-09T13:43:01Z</time>
      </trkpt>
      <trkpt lat="42.69787" lon="1.65474">
        <ele>1390.1</ele>
        <time>2020-02-09T13:43:10Z</time>
      </trkpt>
      <trkpt lat="42.69787" lon="1.65474">
        <ele>1390.1</ele>
        <time>2020-02-09T13:43:20Z</time>
      </trkpt>
      <trkpt lat="42.69797" lon="1.65478">
        <ele>1394.1</ele>
        <time>2020-02-09T13:43:25Z</time>
      </trkpt>
      <trkpt lat="42.69797" lon="1.65478">
        <ele>1394.1</ele>
        <time>2020-02-09T13:43:30Z</time>
      </trkpt>
      <trkpt lat="42.69797" lon="1.65478">
        <ele>1394.1</ele>
        <time>2020-02-09T13:43:40Z</time>
      </trkpt>
      <trkpt lat="42.69807" lon="1.65474">
        <ele>1396.9</ele>
        <time>2020-02-09T13:43:42Z</time>
      </trkpt>
      <trkpt lat="42.69807" lon="1.65474">
        <ele>1396.9</ele>
        <time>2020-02-09T13:43:50Z</time>
      </trkpt>
      <trkpt lat="42.69817" lon="1.65476">
        <ele>1398.1</ele>
        <time>2020-02-09T13:43:55Z</time>
      </trkpt>
      <trkpt lat="42.69817" lon="1.65476">
        <ele>1398.1</ele>
        <time>2020-02-09T13:44:00Z</time>
      </trkpt>
      <trkpt lat="42.69817" lon="1.65476">
        <ele>1398.1</ele>
        <time>2020-02-09T13:44:10Z</time>
      </trkpt>
      <trkpt lat="42.69823" lon="1.65485">
        <ele>1399.8</ele>
        <time>2020-02-09T13:44:14Z</time>
      </trkpt>
      <trkpt lat="42.69823" lon="1.65485">
        <ele>1399.8</ele>
        <time>2020-02-09T13:44:20Z</time>
      </trkpt>
      <trkpt lat="42.69832" lon="1.6549">
        <ele>1404.3</ele>
        <time>2020-02-09T13:44:22Z</time>
      </trkpt>
      <trkpt lat="42.69832" lon="1.6549">
        <ele>1404.3</ele>
        <time>2020-02-09T13:44:30Z</time>
      </trkpt>
      <trkpt lat="42.69841" lon="1.65492">
        <ele>1406.3</ele>
        <time>2020-02-09T13:44:37Z</time>
      </trkpt>
      <trkpt lat="42.69841" lon="1.65492">
        <ele>1406.3</ele>
        <time>2020-02-09T13:44:40Z</time>
      </trkpt>
      <trkpt lat="42.69843" lon="1.65497">
        <ele>1407.2</ele>
        <time>2020-02-09T13:44:50Z</time>
      </trkpt>
      <trkpt lat="42.69844" lon="1.65501">
        <ele>1408.5</ele>
        <time>2020-02-09T13:44:52Z</time>
      </trkpt>
      <trkpt lat="42.69846" lon="1.65506">
        <ele>1409.8</ele>
        <time>2020-02-09T13:45:00Z</time>
      </trkpt>
      <trkpt lat="42.69847" lon="1.6551">
        <ele>1410.9</ele>
        <time>2020-02-09T13:45:01Z</time>
      </trkpt>
      <trkpt lat="42.69849" lon="1.65515">
        <ele>1411</ele>
        <time>2020-02-09T13:45:10Z</time>
      </trkpt>
      <trkpt lat="42.6985" lon="1.65519">
        <ele>1411.1</ele>
        <time>2020-02-09T13:45:20Z</time>
      </trkpt>
      <trkpt lat="42.69852" lon="1.65524">
        <ele>1411.2</ele>
        <time>2020-02-09T13:45:30Z</time>
      </trkpt>
      <trkpt lat="42.69853" lon="1.65528">
        <ele>1412.2</ele>
        <time>2020-02-09T13:45:32Z</time>
      </trkpt>
      <trkpt lat="42.69855" lon="1.65533">
        <ele>1413.1</ele>
        <time>2020-02-09T13:45:38Z</time>
      </trkpt>
      <trkpt lat="42.69856" lon="1.65537">
        <ele>1414</ele>
        <time>2020-02-09T13:45:40Z</time>
      </trkpt>
      <trkpt lat="42.69856" lon="1.65537">
        <ele>1414</ele>
        <time>2020-02-09T13:45:50Z</time>
      </trkpt>
      <trkpt lat="42.69861" lon="1.65548">
        <ele>1415</ele>
        <time>2020-02-09T13:45:52Z</time>
      </trkpt>
      <trkpt lat="42.69861" lon="1.65548">
        <ele>1415</ele>
        <time>2020-02-09T13:46:00Z</time>
      </trkpt>
      <trkpt lat="42.6987" lon="1.65544">
        <ele>1415.4</ele>
        <time>2020-02-09T13:46:03Z</time>
      </trkpt>
      <trkpt lat="42.6987" lon="1.65544">
        <ele>1415.4</ele>
        <time>2020-02-09T13:46:10Z</time>
      </trkpt>
      <trkpt lat="42.6987" lon="1.65544">
        <ele>1415.4</ele>
        <time>2020-02-09T13:46:20Z</time>
      </trkpt>
      <trkpt lat="42.6987" lon="1.65544">
        <ele>1415.4</ele>
        <time>2020-02-09T13:46:30Z</time>
      </trkpt>
      <trkpt lat="42.6987" lon="1.65544">
        <ele>1415.4</ele>
        <time>2020-02-09T13:46:40Z</time>
      </trkpt>
      <trkpt lat="42.6987" lon="1.65544">
        <ele>1415.4</ele>
        <time>2020-02-09T13:46:50Z</time>
      </trkpt>
      <trkpt lat="42.6987" lon="1.65544">
        <ele>1415.4</ele>
        <time>2020-02-09T13:47:00Z</time>
      </trkpt>
      <trkpt lat="42.69874" lon="1.65555">
        <ele>1415.6</ele>
        <time>2020-02-09T13:47:07Z</time>
      </trkpt>
      <trkpt lat="42.69874" lon="1.65555">
        <ele>1415.6</ele>
        <time>2020-02-09T13:47:10Z</time>
      </trkpt>
      <trkpt lat="42.69874" lon="1.65555">
        <ele>1415.6</ele>
        <time>2020-02-09T13:47:20Z</time>
      </trkpt>
      <trkpt lat="42.69884" lon="1.65562">
        <ele>1415.8</ele>
        <time>2020-02-09T13:47:23Z</time>
      </trkpt>
      <trkpt lat="42.69884" lon="1.65562">
        <ele>1415.8</ele>
        <time>2020-02-09T13:47:30Z</time>
      </trkpt>
      <trkpt lat="42.69892" lon="1.65551">
        <ele>1415.8</ele>
        <time>2020-02-09T13:47:38Z</time>
      </trkpt>
      <trkpt lat="42.69892" lon="1.65551">
        <ele>1415.8</ele>
        <time>2020-02-09T13:47:40Z</time>
      </trkpt>
      <trkpt lat="42.69892" lon="1.65551">
        <ele>1415.8</ele>
        <time>2020-02-09T13:47:50Z</time>
      </trkpt>
      <trkpt lat="42.69894" lon="1.65563">
        <ele>1415.4</ele>
        <time>2020-02-09T13:47:55Z</time>
      </trkpt>
      <trkpt lat="42.69894" lon="1.65563">
        <ele>1415.4</ele>
        <time>2020-02-09T13:48:00Z</time>
      </trkpt>
      <trkpt lat="42.69903" lon="1.65568">
        <ele>1413.5</ele>
        <time>2020-02-09T13:48:07Z</time>
      </trkpt>
      <trkpt lat="42.69903" lon="1.65568">
        <ele>1413.5</ele>
        <time>2020-02-09T13:48:10Z</time>
      </trkpt>
      <trkpt lat="42.69912" lon="1.65574">
        <ele>1412.2</ele>
        <time>2020-02-09T13:48:17Z</time>
      </trkpt>
      <trkpt lat="42.69912" lon="1.65574">
        <ele>1412.2</ele>
        <time>2020-02-09T13:48:20Z</time>
      </trkpt>
      <trkpt lat="42.69922" lon="1.65579">
        <ele>1410.5</ele>
        <time>2020-02-09T13:48:25Z</time>
      </trkpt>
      <trkpt lat="42.69922" lon="1.65579">
        <ele>1410.5</ele>
        <time>2020-02-09T13:48:30Z</time>
      </trkpt>
      <trkpt lat="42.69922" lon="1.65579">
        <ele>1410.5</ele>
        <time>2020-02-09T13:48:40Z</time>
      </trkpt>
      <trkpt lat="42.69926" lon="1.65591">
        <ele>1408.6</ele>
        <time>2020-02-09T13:48:42Z</time>
      </trkpt>
      <trkpt lat="42.69926" lon="1.65591">
        <ele>1408.6</ele>
        <time>2020-02-09T13:48:50Z</time>
      </trkpt>
      <trkpt lat="42.69935" lon="1.65595">
        <ele>1406.6</ele>
        <time>2020-02-09T13:48:53Z</time>
      </trkpt>
      <trkpt lat="42.69943" lon="1.65602">
        <ele>1404.6</ele>
        <time>2020-02-09T13:48:57Z</time>
      </trkpt>
      <trkpt lat="42.69943" lon="1.65602">
        <ele>1404.6</ele>
        <time>2020-02-09T13:49:00Z</time>
      </trkpt>
      <trkpt lat="42.69952" lon="1.65604">
        <ele>1402.5</ele>
        <time>2020-02-09T13:49:08Z</time>
      </trkpt>
      <trkpt lat="42.69952" lon="1.65604">
        <ele>1402.5</ele>
        <time>2020-02-09T13:49:10Z</time>
      </trkpt>
      <trkpt lat="42.69962" lon="1.65603">
        <ele>1401.2</ele>
        <time>2020-02-09T13:49:16Z</time>
      </trkpt>
      <trkpt lat="42.69962" lon="1.65603">
        <ele>1401.2</ele>
        <time>2020-02-09T13:49:20Z</time>
      </trkpt>
      <trkpt lat="42.69971" lon="1.6561">
        <ele>1398.5</ele>
        <time>2020-02-09T13:49:28Z</time>
      </trkpt>
      <trkpt lat="42.69971" lon="1.6561">
        <ele>1398.5</ele>
        <time>2020-02-09T13:49:30Z</time>
      </trkpt>
      <trkpt lat="42.69983" lon="1.65619">
        <ele>1396.4</ele>
        <time>2020-02-09T13:49:40Z</time>
      </trkpt>
      <trkpt lat="42.69987" lon="1.6562">
        <ele>1395.7</ele>
        <time>2020-02-09T13:49:49Z</time>
      </trkpt>
      <trkpt lat="42.6999" lon="1.6562">
        <ele>1394.9</ele>
        <time>2020-02-09T13:49:50Z</time>
      </trkpt>
      <trkpt lat="42.69999" lon="1.65631">
        <ele>1391.9</ele>
        <time>2020-02-09T13:50:00Z</time>
      </trkpt>
      <trkpt lat="42.70003" lon="1.65633">
        <ele>1391.2</ele>
        <time>2020-02-09T13:50:10Z</time>
      </trkpt>
      <trkpt lat="42.70006" lon="1.65634">
        <ele>1390.5</ele>
        <time>2020-02-09T13:50:12Z</time>
      </trkpt>
      <trkpt lat="42.70009" lon="1.65636">
        <ele>1390</ele>
        <time>2020-02-09T13:50:20Z</time>
      </trkpt>
      <trkpt lat="42.70013" lon="1.65638">
        <ele>1389.5</ele>
        <time>2020-02-09T13:50:29Z</time>
      </trkpt>
      <trkpt lat="42.70016" lon="1.6564">
        <ele>1388.9</ele>
        <time>2020-02-09T13:50:30Z</time>
      </trkpt>
      <trkpt lat="42.70019" lon="1.65641">
        <ele>1388.2</ele>
        <time>2020-02-09T13:50:40Z</time>
      </trkpt>
      <trkpt lat="42.70022" lon="1.65643">
        <ele>1387.4</ele>
        <time>2020-02-09T13:50:43Z</time>
      </trkpt>
      <trkpt lat="42.70026" lon="1.65645">
        <ele>1386.7</ele>
        <time>2020-02-09T13:50:49Z</time>
      </trkpt>
      <trkpt lat="42.70029" lon="1.65647">
        <ele>1386.3</ele>
        <time>2020-02-09T13:50:50Z</time>
      </trkpt>
      <trkpt lat="42.70036" lon="1.65655">
        <ele>1384.8</ele>
        <time>2020-02-09T13:50:55Z</time>
      </trkpt>
      <trkpt lat="42.70036" lon="1.65655">
        <ele>1384.8</ele>
        <time>2020-02-09T13:51:00Z</time>
      </trkpt>
      <trkpt lat="42.70043" lon="1.65664">
        <ele>1382.9</ele>
        <time>2020-02-09T13:51:04Z</time>
      </trkpt>
      <trkpt lat="42.70043" lon="1.65664">
        <ele>1382.9</ele>
        <time>2020-02-09T13:51:10Z</time>
      </trkpt>
      <trkpt lat="42.70049" lon="1.65675">
        <ele>1380.9</ele>
        <time>2020-02-09T13:51:17Z</time>
      </trkpt>
      <trkpt lat="42.70049" lon="1.65675">
        <ele>1380.9</ele>
        <time>2020-02-09T13:51:20Z</time>
      </trkpt>
      <trkpt lat="42.70058" lon="1.6568">
        <ele>1379.8</ele>
        <time>2020-02-09T13:51:23Z</time>
      </trkpt>
      <trkpt lat="42.70058" lon="1.6568">
        <ele>1379.8</ele>
        <time>2020-02-09T13:51:30Z</time>
      </trkpt>
      <trkpt lat="42.70067" lon="1.65685">
        <ele>1378.1</ele>
        <time>2020-02-09T13:51:34Z</time>
      </trkpt>
      <trkpt lat="42.70067" lon="1.65685">
        <ele>1378.1</ele>
        <time>2020-02-09T13:51:40Z</time>
      </trkpt>
      <trkpt lat="42.70076" lon="1.65688">
        <ele>1376.3</ele>
        <time>2020-02-09T13:51:47Z</time>
      </trkpt>
      <trkpt lat="42.70076" lon="1.65688">
        <ele>1376.3</ele>
        <time>2020-02-09T13:51:50Z</time>
      </trkpt>
      <trkpt lat="42.70084" lon="1.65696">
        <ele>1374.2</ele>
        <time>2020-02-09T13:51:56Z</time>
      </trkpt>
      <trkpt lat="42.70084" lon="1.65696">
        <ele>1374.2</ele>
        <time>2020-02-09T13:52:00Z</time>
      </trkpt>
      <trkpt lat="42.70096" lon="1.65708">
        <ele>1371.2</ele>
        <time>2020-02-09T13:52:03Z</time>
      </trkpt>
      <trkpt lat="42.701" lon="1.6571">
        <ele>1370.7</ele>
        <time>2020-02-09T13:52:10Z</time>
      </trkpt>
      <trkpt lat="42.70104" lon="1.65712">
        <ele>1370.3</ele>
        <time>2020-02-09T13:52:13Z</time>
      </trkpt>
      <trkpt lat="42.70108" lon="1.65714">
        <ele>1369.9</ele>
        <time>2020-02-09T13:52:19Z</time>
      </trkpt>
      <trkpt lat="42.70112" lon="1.65716">
        <ele>1369.2</ele>
        <time>2020-02-09T13:52:20Z</time>
      </trkpt>
      <trkpt lat="42.70112" lon="1.65716">
        <ele>1369.2</ele>
        <time>2020-02-09T13:52:30Z</time>
      </trkpt>
      <trkpt lat="42.70118" lon="1.65725">
        <ele>1367.2</ele>
        <time>2020-02-09T13:52:37Z</time>
      </trkpt>
      <trkpt lat="42.70118" lon="1.65725">
        <ele>1367.2</ele>
        <time>2020-02-09T13:52:40Z</time>
      </trkpt>
      <trkpt lat="42.70118" lon="1.65725">
        <ele>1367.2</ele>
        <time>2020-02-09T13:52:50Z</time>
      </trkpt>
      <trkpt lat="42.70128" lon="1.6573">
        <ele>1364.4</ele>
        <time>2020-02-09T13:52:52Z</time>
      </trkpt>
      <trkpt lat="42.70128" lon="1.6573">
        <ele>1364.4</ele>
        <time>2020-02-09T13:53:00Z</time>
      </trkpt>
      <trkpt lat="42.70127" lon="1.65743">
        <ele>1362.3</ele>
        <time>2020-02-09T13:53:07Z</time>
      </trkpt>
      <trkpt lat="42.70127" lon="1.65743">
        <ele>1362.3</ele>
        <time>2020-02-09T13:53:10Z</time>
      </trkpt>
      <trkpt lat="42.70131" lon="1.65746">
        <ele>1361.2</ele>
        <time>2020-02-09T13:53:20Z</time>
      </trkpt>
      <trkpt lat="42.70134" lon="1.65749">
        <ele>1359.9</ele>
        <time>2020-02-09T13:53:21Z</time>
      </trkpt>
      <trkpt lat="42.70137" lon="1.65752">
        <ele>1358.7</ele>
        <time>2020-02-09T13:53:29Z</time>
      </trkpt>
      <trkpt lat="42.70141" lon="1.65755">
        <ele>1357.8</ele>
        <time>2020-02-09T13:53:30Z</time>
      </trkpt>
      <trkpt lat="42.70146" lon="1.65765">
        <ele>1356</ele>
        <time>2020-02-09T13:53:37Z</time>
      </trkpt>
      <trkpt lat="42.70146" lon="1.65765">
        <ele>1356</ele>
        <time>2020-02-09T13:53:40Z</time>
      </trkpt>
      <trkpt lat="42.70152" lon="1.65774">
        <ele>1353.3</ele>
        <time>2020-02-09T13:53:46Z</time>
      </trkpt>
      <trkpt lat="42.70152" lon="1.65774">
        <ele>1353.3</ele>
        <time>2020-02-09T13:53:50Z</time>
      </trkpt>
      <trkpt lat="42.70156" lon="1.65786">
        <ele>1351</ele>
        <time>2020-02-09T13:53:58Z</time>
      </trkpt>
      <trkpt lat="42.70156" lon="1.65786">
        <ele>1351</ele>
        <time>2020-02-09T13:54:00Z</time>
      </trkpt>
      <trkpt lat="42.70155" lon="1.65799">
        <ele>1347.5</ele>
        <time>2020-02-09T13:54:06Z</time>
      </trkpt>
      <trkpt lat="42.70155" lon="1.65799">
        <ele>1347.5</ele>
        <time>2020-02-09T13:54:10Z</time>
      </trkpt>
      <trkpt lat="42.70155" lon="1.65799">
        <ele>1347.5</ele>
        <time>2020-02-09T13:54:20Z</time>
      </trkpt>
      <trkpt lat="42.70154" lon="1.65812">
        <ele>1344.8</ele>
        <time>2020-02-09T13:54:28Z</time>
      </trkpt>
      <trkpt lat="42.70154" lon="1.65812">
        <ele>1344.8</ele>
        <time>2020-02-09T13:54:30Z</time>
      </trkpt>
      <trkpt lat="42.70152" lon="1.65828">
        <ele>1341.5</ele>
        <time>2020-02-09T13:54:33Z</time>
      </trkpt>
      <trkpt lat="42.70152" lon="1.65831">
        <ele>1340.5</ele>
        <time>2020-02-09T13:54:40Z</time>
      </trkpt>
      <trkpt lat="42.70153" lon="1.65835">
        <ele>1339.4</ele>
        <time>2020-02-09T13:54:44Z</time>
      </trkpt>
      <trkpt lat="42.70153" lon="1.65838">
        <ele>1338.4</ele>
        <time>2020-02-09T13:54:50Z</time>
      </trkpt>
      <trkpt lat="42.70153" lon="1.65841">
        <ele>1337.8</ele>
        <time>2020-02-09T13:54:53Z</time>
      </trkpt>
      <trkpt lat="42.70153" lon="1.65844">
        <ele>1337.7</ele>
        <time>2020-02-09T13:55:00Z</time>
      </trkpt>
      <trkpt lat="42.70154" lon="1.65848">
        <ele>1337.5</ele>
        <time>2020-02-09T13:55:10Z</time>
      </trkpt>
      <trkpt lat="42.70154" lon="1.65851">
        <ele>1337.4</ele>
        <time>2020-02-09T13:55:13Z</time>
      </trkpt>
      <trkpt lat="42.70154" lon="1.65854">
        <ele>1337.2</ele>
        <time>2020-02-09T13:55:20Z</time>
      </trkpt>
      <trkpt lat="42.70154" lon="1.65857">
        <ele>1336.5</ele>
        <time>2020-02-09T13:55:22Z</time>
      </trkpt>
      <trkpt lat="42.70155" lon="1.65861">
        <ele>1335.8</ele>
        <time>2020-02-09T13:55:30Z</time>
      </trkpt>
      <trkpt lat="42.70155" lon="1.65864">
        <ele>1335.1</ele>
        <time>2020-02-09T13:55:33Z</time>
      </trkpt>
      <trkpt lat="42.70155" lon="1.65867">
        <ele>1334.3</ele>
        <time>2020-02-09T13:55:40Z</time>
      </trkpt>
      <trkpt lat="42.70155" lon="1.6587">
        <ele>1333.4</ele>
        <time>2020-02-09T13:55:41Z</time>
      </trkpt>
      <trkpt lat="42.70156" lon="1.65874">
        <ele>1332.2</ele>
        <time>2020-02-09T13:55:50Z</time>
      </trkpt>
      <trkpt lat="42.70156" lon="1.65877">
        <ele>1331.1</ele>
        <time>2020-02-09T13:55:55Z</time>
      </trkpt>
      <trkpt lat="42.70156" lon="1.6588">
        <ele>1330</ele>
        <time>2020-02-09T13:55:59Z</time>
      </trkpt>
      <trkpt lat="42.70156" lon="1.65883">
        <ele>1329</ele>
        <time>2020-02-09T13:56:00Z</time>
      </trkpt>
      <trkpt lat="42.70147" lon="1.65882">
        <ele>1326.7</ele>
        <time>2020-02-09T13:56:06Z</time>
      </trkpt>
      <trkpt lat="42.70147" lon="1.65882">
        <ele>1326.7</ele>
        <time>2020-02-09T13:56:10Z</time>
      </trkpt>
      <trkpt lat="42.70149" lon="1.65887">
        <ele>1326</ele>
        <time>2020-02-09T13:56:20Z</time>
      </trkpt>
      <trkpt lat="42.7015" lon="1.65891">
        <ele>1325.3</ele>
        <time>2020-02-09T13:56:29Z</time>
      </trkpt>
      <trkpt lat="42.70152" lon="1.65896">
        <ele>1324.4</ele>
        <time>2020-02-09T13:56:30Z</time>
      </trkpt>
      <trkpt lat="42.70154" lon="1.659">
        <ele>1323.6</ele>
        <time>2020-02-09T13:56:38Z</time>
      </trkpt>
      <trkpt lat="42.70156" lon="1.65904">
        <ele>1322.5</ele>
        <time>2020-02-09T13:56:40Z</time>
      </trkpt>
      <trkpt lat="42.70156" lon="1.65904">
        <ele>1322.5</ele>
        <time>2020-02-09T13:56:50Z</time>
      </trkpt>
      <trkpt lat="42.70159" lon="1.65916">
        <ele>1319.7</ele>
        <time>2020-02-09T13:56:55Z</time>
      </trkpt>
      <trkpt lat="42.70159" lon="1.65916">
        <ele>1319.7</ele>
        <time>2020-02-09T13:57:00Z</time>
      </trkpt>
      <trkpt lat="42.70158" lon="1.65928">
        <ele>1318.2</ele>
        <time>2020-02-09T13:57:04Z</time>
      </trkpt>
      <trkpt lat="42.70158" lon="1.65928">
        <ele>1318.2</ele>
        <time>2020-02-09T13:57:10Z</time>
      </trkpt>
      <trkpt lat="42.70159" lon="1.65941">
        <ele>1314.6</ele>
        <time>2020-02-09T13:57:16Z</time>
      </trkpt>
      <trkpt lat="42.70159" lon="1.65941">
        <ele>1314.6</ele>
        <time>2020-02-09T13:57:20Z</time>
      </trkpt>
      <trkpt lat="42.70167" lon="1.65948">
        <ele>1312.1</ele>
        <time>2020-02-09T13:57:30Z</time>
      </trkpt>
      <trkpt lat="42.70167" lon="1.65948">
        <ele>1312.1</ele>
        <time>2020-02-09T13:57:40Z</time>
      </trkpt>
      <trkpt lat="42.7017" lon="1.6596">
        <ele>1309.3</ele>
        <time>2020-02-09T13:57:47Z</time>
      </trkpt>
      <trkpt lat="42.7017" lon="1.6596">
        <ele>1309.3</ele>
        <time>2020-02-09T13:57:50Z</time>
      </trkpt>
      <trkpt lat="42.70166" lon="1.65972">
        <ele>1304.4</ele>
        <time>2020-02-09T13:57:53Z</time>
      </trkpt>
      <trkpt lat="42.70166" lon="1.65972">
        <ele>1304.4</ele>
        <time>2020-02-09T13:58:00Z</time>
      </trkpt>
      <trkpt lat="42.70165" lon="1.65985">
        <ele>1298.7</ele>
        <time>2020-02-09T13:58:04Z</time>
      </trkpt>
      <trkpt lat="42.70165" lon="1.65985">
        <ele>1299</ele>
        <time>2020-02-09T13:58:10Z</time>
      </trkpt>
      <trkpt lat="42.70155" lon="1.65995">
        <ele>1289.2</ele>
        <time>2020-02-09T13:58:15Z</time>
      </trkpt>
      <trkpt lat="42.70146" lon="1.66005">
        <ele>1282.4</ele>
        <time>2020-02-09T13:58:17Z</time>
      </trkpt>
      <trkpt lat="42.70146" lon="1.66005">
        <ele>1282.8</ele>
        <time>2020-02-09T13:58:20Z</time>
      </trkpt>
      <trkpt lat="42.70142" lon="1.65994">
        <ele>1285</ele>
        <time>2020-02-09T13:58:26Z</time>
      </trkpt>
      <trkpt lat="42.70142" lon="1.65994">
        <ele>1285.4</ele>
        <time>2020-02-09T13:58:30Z</time>
      </trkpt>
      <trkpt lat="42.70141" lon="1.65981">
        <ele>1292.5</ele>
        <time>2020-02-09T13:58:37Z</time>
      </trkpt>
      <trkpt lat="42.70141" lon="1.65981">
        <ele>1292.8</ele>
        <time>2020-02-09T13:58:40Z</time>
      </trkpt>
      <trkpt lat="42.70141" lon="1.65981">
        <ele>1293.2</ele>
        <time>2020-02-09T13:58:50Z</time>
      </trkpt>
      <trkpt lat="42.70134" lon="1.65988">
        <ele>1288.8</ele>
        <time>2020-02-09T13:58:52Z</time>
      </trkpt>
      <trkpt lat="42.70134" lon="1.65988">
        <ele>1289.1</ele>
        <time>2020-02-09T13:59:00Z</time>
      </trkpt>
      <trkpt lat="42.70128" lon="1.65998">
        <ele>1280.3</ele>
        <time>2020-02-09T13:59:06Z</time>
      </trkpt>
      <trkpt lat="42.70128" lon="1.65998">
        <ele>1280.7</ele>
        <time>2020-02-09T13:59:10Z</time>
      </trkpt>
      <trkpt lat="42.70121" lon="1.66007">
        <ele>1274.8</ele>
        <time>2020-02-09T13:59:15Z</time>
      </trkpt>
      <trkpt lat="42.70121" lon="1.66007">
        <ele>1274.8</ele>
        <time>2020-02-09T13:59:20Z</time>
      </trkpt>
      <trkpt lat="42.70121" lon="1.66007">
        <ele>1274.8</ele>
        <time>2020-02-09T13:59:30Z</time>
      </trkpt>
      <trkpt lat="42.70121" lon="1.66007">
        <ele>1274.8</ele>
        <time>2020-02-09T13:59:40Z</time>
      </trkpt>
      <trkpt lat="42.70121" lon="1.66007">
        <ele>1274.8</ele>
        <time>2020-02-09T13:59:50Z</time>
      </trkpt>
      <trkpt lat="42.70121" lon="1.66007">
        <ele>1274.8</ele>
        <time>2020-02-09T14:00:00Z</time>
      </trkpt>
      <trkpt lat="42.70121" lon="1.66007">
        <ele>1274.8</ele>
        <time>2020-02-09T14:00:10Z</time>
      </trkpt>
      <trkpt lat="42.70131" lon="1.66004">
        <ele>1274.8</ele>
        <time>2020-02-09T14:00:13Z</time>
      </trkpt>
      <trkpt lat="42.70131" lon="1.66004">
        <ele>1274.8</ele>
        <time>2020-02-09T14:00:20Z</time>
      </trkpt>
      <trkpt lat="42.70131" lon="1.66004">
        <ele>1274.8</ele>
        <time>2020-02-09T14:00:30Z</time>
      </trkpt>
      <trkpt lat="42.70139" lon="1.66">
        <ele>1273.7</ele>
        <time>2020-02-09T14:00:39Z</time>
      </trkpt>
      <trkpt lat="42.70139" lon="1.66">
        <ele>1273.7</ele>
        <time>2020-02-09T14:00:40Z</time>
      </trkpt>
      <trkpt lat="42.70139" lon="1.66">
        <ele>1273.7</ele>
        <time>2020-02-09T14:00:50Z</time>
      </trkpt>
      <trkpt lat="42.70139" lon="1.66013">
        <ele>1270.9</ele>
        <time>2020-02-09T14:00:56Z</time>
      </trkpt>
      <trkpt lat="42.70139" lon="1.66013">
        <ele>1270.9</ele>
        <time>2020-02-09T14:01:00Z</time>
      </trkpt>
      <trkpt lat="42.70139" lon="1.66013">
        <ele>1270.9</ele>
        <time>2020-02-09T14:01:10Z</time>
      </trkpt>
      <trkpt lat="42.70139" lon="1.66013">
        <ele>1270.9</ele>
        <time>2020-02-09T14:01:20Z</time>
      </trkpt>
      <trkpt lat="42.70139" lon="1.66013">
        <ele>1270.9</ele>
        <time>2020-02-09T14:01:30Z</time>
      </trkpt>
      <trkpt lat="42.70145" lon="1.66023">
        <ele>1269.1</ele>
        <time>2020-02-09T14:01:31Z</time>
      </trkpt>
      <trkpt lat="42.70145" lon="1.66023">
        <ele>1269.1</ele>
        <time>2020-02-09T14:01:40Z</time>
      </trkpt>
      <trkpt lat="42.70152" lon="1.66032">
        <ele>1265.6</ele>
        <time>2020-02-09T14:01:42Z</time>
      </trkpt>
      <trkpt lat="42.70152" lon="1.66032">
        <ele>1265.6</ele>
        <time>2020-02-09T14:01:50Z</time>
      </trkpt>
      <trkpt lat="42.70159" lon="1.6604">
        <ele>1262.9</ele>
        <time>2020-02-09T14:01:54Z</time>
      </trkpt>
      <trkpt lat="42.70159" lon="1.6604">
        <ele>1262.9</ele>
        <time>2020-02-09T14:02:00Z</time>
      </trkpt>
      <trkpt lat="42.70162" lon="1.66053">
        <ele>1260.1</ele>
        <time>2020-02-09T14:02:02Z</time>
      </trkpt>
      <trkpt lat="42.70162" lon="1.66053">
        <ele>1260.1</ele>
        <time>2020-02-09T14:02:10Z</time>
      </trkpt>
      <trkpt lat="42.7016" lon="1.66068">
        <ele>1255.4</ele>
        <time>2020-02-09T14:02:14Z</time>
      </trkpt>
      <trkpt lat="42.7016" lon="1.66068">
        <ele>1255.4</ele>
        <time>2020-02-09T14:02:20Z</time>
      </trkpt>
      <trkpt lat="42.70166" lon="1.66083">
        <ele>1251.3</ele>
        <time>2020-02-09T14:02:28Z</time>
      </trkpt>
      <trkpt lat="42.70169" lon="1.66085">
        <ele>1250.3</ele>
        <time>2020-02-09T14:02:30Z</time>
      </trkpt>
      <trkpt lat="42.70172" lon="1.66088">
        <ele>1249.3</ele>
        <time>2020-02-09T14:02:40Z</time>
      </trkpt>
      <trkpt lat="42.70176" lon="1.66091">
        <ele>1248.3</ele>
        <time>2020-02-09T14:02:41Z</time>
      </trkpt>
      <trkpt lat="42.70179" lon="1.66094">
        <ele>1247</ele>
        <time>2020-02-09T14:02:50Z</time>
      </trkpt>
      <trkpt lat="42.70182" lon="1.66096">
        <ele>1245.6</ele>
        <time>2020-02-09T14:02:54Z</time>
      </trkpt>
      <trkpt lat="42.70185" lon="1.66099">
        <ele>1244.2</ele>
        <time>2020-02-09T14:02:59Z</time>
      </trkpt>
      <trkpt lat="42.70188" lon="1.66102">
        <ele>1243.3</ele>
        <time>2020-02-09T14:03:00Z</time>
      </trkpt>
      <trkpt lat="42.70197" lon="1.66106">
        <ele>1241.6</ele>
        <time>2020-02-09T14:03:06Z</time>
      </trkpt>
      <trkpt lat="42.70197" lon="1.66106">
        <ele>1241.6</ele>
        <time>2020-02-09T14:03:10Z</time>
      </trkpt>
      <trkpt lat="42.70203" lon="1.66116">
        <ele>1240.4</ele>
        <time>2020-02-09T14:03:17Z</time>
      </trkpt>
      <trkpt lat="42.70203" lon="1.66116">
        <ele>1240.4</ele>
        <time>2020-02-09T14:03:20Z</time>
      </trkpt>
      <trkpt lat="42.70212" lon="1.66116">
        <ele>1238.6</ele>
        <time>2020-02-09T14:03:30Z</time>
      </trkpt>
      <trkpt lat="42.70217" lon="1.66127">
        <ele>1238.5</ele>
        <time>2020-02-09T14:03:37Z</time>
      </trkpt>
      <trkpt lat="42.70217" lon="1.66127">
        <ele>1238.5</ele>
        <time>2020-02-09T14:03:40Z</time>
      </trkpt>
      <trkpt lat="42.70223" lon="1.66115">
        <ele>1236.3</ele>
        <time>2020-02-09T14:03:46Z</time>
      </trkpt>
      <trkpt lat="42.70223" lon="1.66115">
        <ele>1236.3</ele>
        <time>2020-02-09T14:03:50Z</time>
      </trkpt>
      <trkpt lat="42.70226" lon="1.6612">
        <ele>1236.2</ele>
        <time>2020-02-09T14:04:00Z</time>
      </trkpt>
      <trkpt lat="42.70229" lon="1.66125">
        <ele>1236.1</ele>
        <time>2020-02-09T14:04:01Z</time>
      </trkpt>
      <trkpt lat="42.70232" lon="1.6613">
        <ele>1236</ele>
        <time>2020-02-09T14:04:08Z</time>
      </trkpt>
      <trkpt lat="42.70234" lon="1.66135">
        <ele>1236</ele>
        <time>2020-02-09T14:04:10Z</time>
      </trkpt>
      <trkpt lat="42.70242" lon="1.66141">
        <ele>1236</ele>
        <time>2020-02-09T14:04:16Z</time>
      </trkpt>
      <trkpt lat="42.70242" lon="1.66141">
        <ele>1236</ele>
        <time>2020-02-09T14:04:20Z</time>
      </trkpt>
      <trkpt lat="42.70247" lon="1.66151">
        <ele>1236.6</ele>
        <time>2020-02-09T14:04:28Z</time>
      </trkpt>
      <trkpt lat="42.70247" lon="1.66151">
        <ele>1236.6</ele>
        <time>2020-02-09T14:04:30Z</time>
      </trkpt>
      <trkpt lat="42.70239" lon="1.66164">
        <ele>1236.2</ele>
        <time>2020-02-09T14:04:37Z</time>
      </trkpt>
      <trkpt lat="42.70239" lon="1.66164">
        <ele>1236.2</ele>
        <time>2020-02-09T14:04:40Z</time>
      </trkpt>
      <trkpt lat="42.70244" lon="1.66177">
        <ele>1235.9</ele>
        <time>2020-02-09T14:04:45Z</time>
      </trkpt>
      <trkpt lat="42.70244" lon="1.66177">
        <ele>1235.9</ele>
        <time>2020-02-09T14:04:50Z</time>
      </trkpt>
      <trkpt lat="42.70244" lon="1.66177">
        <ele>1235.9</ele>
        <time>2020-02-09T14:05:00Z</time>
      </trkpt>
      <trkpt lat="42.70242" lon="1.6619">
        <ele>1236.2</ele>
        <time>2020-02-09T14:05:09Z</time>
      </trkpt>
      <trkpt lat="42.70242" lon="1.6619">
        <ele>1236.2</ele>
        <time>2020-02-09T14:05:10Z</time>
      </trkpt>
      <trkpt lat="42.7024" lon="1.66192">
        <ele>1236.2</ele>
        <time>2020-02-09T14:05:16Z</time>
      </trkpt>
      <trkpt lat="42.70239" lon="1.66194">
        <ele>1236.2</ele>
        <time>2020-02-09T14:05:20Z</time>
      </trkpt>
      <trkpt lat="42.70239" lon="1.66194">
        <ele>1236.2</ele>
        <time>2020-02-09T14:05:30Z</time>
      </trkpt>
      <trkpt lat="42.70245" lon="1.66184">
        <ele>1235.9</ele>
        <time>2020-02-09T14:05:36Z</time>
      </trkpt>
      <trkpt lat="42.70245" lon="1.66184">
        <ele>1235.9</ele>
        <time>2020-02-09T14:05:40Z</time>
      </trkpt>
      <trkpt lat="42.70242" lon="1.66197">
        <ele>1235.2</ele>
        <time>2020-02-09T14:05:43Z</time>
      </trkpt>
      <trkpt lat="42.70242" lon="1.66197">
        <ele>1235.2</ele>
        <time>2020-02-09T14:05:50Z</time>
      </trkpt>
      <trkpt lat="42.70252" lon="1.66206">
        <ele>1234</ele>
        <time>2020-02-09T14:05:57Z</time>
      </trkpt>
      <trkpt lat="42.70252" lon="1.66206">
        <ele>1234</ele>
        <time>2020-02-09T14:06:00Z</time>
      </trkpt>
      <trkpt lat="42.70266" lon="1.66197">
        <ele>1232.4</ele>
        <time>2020-02-09T14:06:01Z</time>
      </trkpt>
      <trkpt lat="42.7027" lon="1.66193">
        <ele>1231.8</ele>
        <time>2020-02-09T14:06:04Z</time>
      </trkpt>
      <trkpt lat="42.70274" lon="1.66189">
        <ele>1231.2</ele>
        <time>2020-02-09T14:06:08Z</time>
      </trkpt>
      <trkpt lat="42.70278" lon="1.66185">
        <ele>1230.6</ele>
        <time>2020-02-09T14:06:10Z</time>
      </trkpt>
      <trkpt lat="42.70285" lon="1.66176">
        <ele>1229.6</ele>
        <time>2020-02-09T14:06:11Z</time>
      </trkpt>
      <trkpt lat="42.70292" lon="1.66169">
        <ele>1228.5</ele>
        <time>2020-02-09T14:06:17Z</time>
      </trkpt>
      <trkpt lat="42.70292" lon="1.66169">
        <ele>1228.5</ele>
        <time>2020-02-09T14:06:20Z</time>
      </trkpt>
      <trkpt lat="42.703" lon="1.66176">
        <ele>1227.5</ele>
        <time>2020-02-09T14:06:26Z</time>
      </trkpt>
      <trkpt lat="42.703" lon="1.66176">
        <ele>1227.5</ele>
        <time>2020-02-09T14:06:30Z</time>
      </trkpt>
      <trkpt lat="42.70305" lon="1.66187">
        <ele>1226.3</ele>
        <time>2020-02-09T14:06:34Z</time>
      </trkpt>
      <trkpt lat="42.70315" lon="1.66191">
        <ele>1224.8</ele>
        <time>2020-02-09T14:06:40Z</time>
      </trkpt>
      <trkpt lat="42.70318" lon="1.66203">
        <ele>1223.4</ele>
        <time>2020-02-09T14:06:47Z</time>
      </trkpt>
      <trkpt lat="42.70318" lon="1.66203">
        <ele>1223.4</ele>
        <time>2020-02-09T14:06:50Z</time>
      </trkpt>
      <trkpt lat="42.70326" lon="1.66197">
        <ele>1222.5</ele>
        <time>2020-02-09T14:06:58Z</time>
      </trkpt>
      <trkpt lat="42.70326" lon="1.66197">
        <ele>1222.5</ele>
        <time>2020-02-09T14:07:00Z</time>
      </trkpt>
      <trkpt lat="42.70338" lon="1.66198">
        <ele>1221.8</ele>
        <time>2020-02-09T14:07:04Z</time>
      </trkpt>
      <trkpt lat="42.70341" lon="1.662">
        <ele>1221.3</ele>
        <time>2020-02-09T14:07:10Z</time>
      </trkpt>
      <trkpt lat="42.70344" lon="1.66201">
        <ele>1220.8</ele>
        <time>2020-02-09T14:07:11Z</time>
      </trkpt>
      <trkpt lat="42.70347" lon="1.66203">
        <ele>1220.5</ele>
        <time>2020-02-09T14:07:20Z</time>
      </trkpt>
      <trkpt lat="42.7035" lon="1.66205">
        <ele>1220.4</ele>
        <time>2020-02-09T14:07:21Z</time>
      </trkpt>
      <trkpt lat="42.70353" lon="1.66206">
        <ele>1220.4</ele>
        <time>2020-02-09T14:07:29Z</time>
      </trkpt>
      <trkpt lat="42.70356" lon="1.66208">
        <ele>1220.4</ele>
        <time>2020-02-09T14:07:30Z</time>
      </trkpt>
      <trkpt lat="42.70356" lon="1.66208">
        <ele>1220.4</ele>
        <time>2020-02-09T14:07:40Z</time>
      </trkpt>
      <trkpt lat="42.70365" lon="1.66202">
        <ele>1220.3</ele>
        <time>2020-02-09T14:07:41Z</time>
      </trkpt>
      <trkpt lat="42.70365" lon="1.66202">
        <ele>1220.3</ele>
        <time>2020-02-09T14:07:50Z</time>
      </trkpt>
      <trkpt lat="42.70376" lon="1.66204">
        <ele>1221.7</ele>
        <time>2020-02-09T14:07:51Z</time>
      </trkpt>
      <trkpt lat="42.70376" lon="1.66204">
        <ele>1221.7</ele>
        <time>2020-02-09T14:08:00Z</time>
      </trkpt>
      <trkpt lat="42.70376" lon="1.66204">
        <ele>1221.7</ele>
        <time>2020-02-09T14:08:10Z</time>
      </trkpt>
      <trkpt lat="42.70376" lon="1.66204">
        <ele>1221.7</ele>
        <time>2020-02-09T14:08:20Z</time>
      </trkpt>
      <trkpt lat="42.70376" lon="1.66204">
        <ele>1221.7</ele>
        <time>2020-02-09T14:08:30Z</time>
      </trkpt>
      <trkpt lat="42.70376" lon="1.66204">
        <ele>1221.7</ele>
        <time>2020-02-09T14:08:40Z</time>
      </trkpt>
      <trkpt lat="42.70376" lon="1.66204">
        <ele>1221.7</ele>
        <time>2020-02-09T14:08:50Z</time>
      </trkpt>
      <trkpt lat="42.70376" lon="1.66204">
        <ele>1221.7</ele>
        <time>2020-02-09T14:09:00Z</time>
      </trkpt>
      <trkpt lat="42.70376" lon="1.66204">
        <ele>1221.7</ele>
        <time>2020-02-09T14:09:10Z</time>
      </trkpt>
      <trkpt lat="42.70376" lon="1.66204">
        <ele>1221.7</ele>
        <time>2020-02-09T14:09:20Z</time>
      </trkpt>
      <trkpt lat="42.70376" lon="1.66204">
        <ele>1221.7</ele>
        <time>2020-02-09T14:09:30Z</time>
      </trkpt>
      <trkpt lat="42.70376" lon="1.66204">
        <ele>1221.7</ele>
        <time>2020-02-09T14:09:40Z</time>
      </trkpt>
    </trkseg>
  </trk>
  <trk>
    <name><![CDATA[Activité dans l'après-midi]]></name>
    <trkseg>
      <trkpt lat="42.70454" lon="1.66227">
        <ele>1188.9</ele>
        <time>2020-02-09T14:10:58Z</time>
      </trkpt>
      <trkpt lat="42.70454" lon="1.66234">
        <ele>1187.1</ele>
        <time>2020-02-09T14:11:30Z</time>
      </trkpt>
      <trkpt lat="42.70458" lon="1.66234">
        <ele>1185.8</ele>
        <time>2020-02-09T14:11:47Z</time>
      </trkpt>
      <trkpt lat="42.70461" lon="1.66233">
        <ele>1184.6</ele>
        <time>2020-02-09T14:11:50Z</time>
      </trkpt>
      <trkpt lat="42.70464" lon="1.66232">
        <ele>1183</ele>
        <time>2020-02-09T14:11:54Z</time>
      </trkpt>
      <trkpt lat="42.70467" lon="1.66233">
        <ele>1181.5</ele>
        <time>2020-02-09T14:11:57Z</time>
      </trkpt>
      <trkpt lat="42.70474" lon="1.66236">
        <ele>1177.7</ele>
        <time>2020-02-09T14:12:11Z</time>
      </trkpt>
      <trkpt lat="42.70478" lon="1.66237">
        <ele>1175.6</ele>
        <time>2020-02-09T14:12:14Z</time>
      </trkpt>
      <trkpt lat="42.70477" lon="1.66241">
        <ele>1174.1</ele>
        <time>2020-02-09T14:12:26Z</time>
      </trkpt>
      <trkpt lat="42.70477" lon="1.66248">
        <ele>1171.3</ele>
        <time>2020-02-09T14:12:28Z</time>
      </trkpt>
      <trkpt lat="42.70476" lon="1.66252">
        <ele>1169.9</ele>
        <time>2020-02-09T14:12:41Z</time>
      </trkpt>
      <trkpt lat="42.70474" lon="1.66257">
        <ele>1168.8</ele>
        <time>2020-02-09T14:12:43Z</time>
      </trkpt>
      <trkpt lat="42.70472" lon="1.66261">
        <ele>1167.7</ele>
        <time>2020-02-09T14:12:45Z</time>
      </trkpt>
      <trkpt lat="42.70469" lon="1.66268">
        <ele>1166</ele>
        <time>2020-02-09T14:12:48Z</time>
      </trkpt>
      <trkpt lat="42.70466" lon="1.66273">
        <ele>1164.9</ele>
        <time>2020-02-09T14:12:51Z</time>
      </trkpt>
      <trkpt lat="42.70464" lon="1.66277">
        <ele>1163.9</ele>
        <time>2020-02-09T14:12:52Z</time>
      </trkpt>
      <trkpt lat="42.70463" lon="1.66284">
        <ele>1161.9</ele>
        <time>2020-02-09T14:12:56Z</time>
      </trkpt>
      <trkpt lat="42.70462" lon="1.66288">
        <ele>1160.6</ele>
        <time>2020-02-09T14:12:59Z</time>
      </trkpt>
      <trkpt lat="42.70461" lon="1.66292">
        <ele>1159.2</ele>
        <time>2020-02-09T14:13:30Z</time>
      </trkpt>
      <trkpt lat="42.70464" lon="1.66295">
        <ele>1158.1</ele>
        <time>2020-02-09T14:13:32Z</time>
      </trkpt>
      <trkpt lat="42.70463" lon="1.66299">
        <ele>1157.3</ele>
        <time>2020-02-09T14:13:45Z</time>
      </trkpt>
      <trkpt lat="42.70459" lon="1.66303">
        <ele>1156.3</ele>
        <time>2020-02-09T14:13:48Z</time>
      </trkpt>
      <trkpt lat="42.70457" lon="1.66305">
        <ele>1155.6</ele>
        <time>2020-02-09T14:13:54Z</time>
      </trkpt>
      <trkpt lat="42.70455" lon="1.66311">
        <ele>1154.5</ele>
        <time>2020-02-09T14:13:56Z</time>
      </trkpt>
      <trkpt lat="42.70457" lon="1.66317">
        <ele>1153.5</ele>
        <time>2020-02-09T14:14:07Z</time>
      </trkpt>
      <trkpt lat="42.70461" lon="1.66318">
        <ele>1152.5</ele>
        <time>2020-02-09T14:14:13Z</time>
      </trkpt>
      <trkpt lat="42.70464" lon="1.6632">
        <ele>1151.5</ele>
        <time>2020-02-09T14:14:19Z</time>
      </trkpt>
      <trkpt lat="42.70467" lon="1.66322">
        <ele>1150.5</ele>
        <time>2020-02-09T14:14:36Z</time>
      </trkpt>
      <trkpt lat="42.70471" lon="1.66324">
        <ele>1149.3</ele>
        <time>2020-02-09T14:14:43Z</time>
      </trkpt>
      <trkpt lat="42.70474" lon="1.66326">
        <ele>1148.1</ele>
        <time>2020-02-09T14:14:53Z</time>
      </trkpt>
      <trkpt lat="42.70478" lon="1.66327">
        <ele>1146.8</ele>
        <time>2020-02-09T14:15:10Z</time>
      </trkpt>
      <trkpt lat="42.70481" lon="1.66329">
        <ele>1145.9</ele>
        <time>2020-02-09T14:15:27Z</time>
      </trkpt>
      <trkpt lat="42.70485" lon="1.66331">
        <ele>1145</ele>
        <time>2020-02-09T14:15:32Z</time>
      </trkpt>
      <trkpt lat="42.70488" lon="1.66333">
        <ele>1144.2</ele>
        <time>2020-02-09T14:15:35Z</time>
      </trkpt>
      <trkpt lat="42.70491" lon="1.66334">
        <ele>1143.4</ele>
        <time>2020-02-09T14:15:36Z</time>
      </trkpt>
      <trkpt lat="42.70495" lon="1.66337">
        <ele>1142.4</ele>
        <time>2020-02-09T14:15:41Z</time>
      </trkpt>
      <trkpt lat="42.70496" lon="1.66341">
        <ele>1141.6</ele>
        <time>2020-02-09T14:15:46Z</time>
      </trkpt>
      <trkpt lat="42.70496" lon="1.66346">
        <ele>1140.8</ele>
        <time>2020-02-09T14:15:53Z</time>
      </trkpt>
      <trkpt lat="42.70496" lon="1.66351">
        <ele>1139.8</ele>
        <time>2020-02-09T14:15:59Z</time>
      </trkpt>
      <trkpt lat="42.70498" lon="1.66353">
        <ele>1139.1</ele>
        <time>2020-02-09T14:16:06Z</time>
      </trkpt>
      <trkpt lat="42.70502" lon="1.66353">
        <ele>1138.2</ele>
        <time>2020-02-09T14:16:11Z</time>
      </trkpt>
      <trkpt lat="42.70508" lon="1.66355">
        <ele>1137.1</ele>
        <time>2020-02-09T14:16:17Z</time>
      </trkpt>
      <trkpt lat="42.70511" lon="1.66355">
        <ele>1136.5</ele>
        <time>2020-02-09T14:16:26Z</time>
      </trkpt>
      <trkpt lat="42.70515" lon="1.66356">
        <ele>1135</ele>
        <time>2020-02-09T14:16:39Z</time>
      </trkpt>
      <trkpt lat="42.70519" lon="1.66354">
        <ele>1133.5</ele>
        <time>2020-02-09T14:16:44Z</time>
      </trkpt>
      <trkpt lat="42.70521" lon="1.66352">
        <ele>1132.4</ele>
        <time>2020-02-09T14:16:50Z</time>
      </trkpt>
      <trkpt lat="42.70524" lon="1.66349">
        <ele>1131.8</ele>
        <time>2020-02-09T14:16:54Z</time>
      </trkpt>
      <trkpt lat="42.70525" lon="1.66346">
        <ele>1131.7</ele>
        <time>2020-02-09T14:16:56Z</time>
      </trkpt>
      <trkpt lat="42.70537" lon="1.66335">
        <ele>1131</ele>
        <time>2020-02-09T14:17:03Z</time>
      </trkpt>
      <trkpt lat="42.70539" lon="1.66333">
        <ele>1130.5</ele>
        <time>2020-02-09T14:17:05Z</time>
      </trkpt>
      <trkpt lat="42.70537" lon="1.66339">
        <ele>1129.8</ele>
        <time>2020-02-09T14:17:09Z</time>
      </trkpt>
      <trkpt lat="42.70535" lon="1.66343">
        <ele>1129.2</ele>
        <time>2020-02-09T14:17:12Z</time>
      </trkpt>
      <trkpt lat="42.70534" lon="1.66348">
        <ele>1128.5</ele>
        <time>2020-02-09T14:17:16Z</time>
      </trkpt>
      <trkpt lat="42.70532" lon="1.66351">
        <ele>1127.9</ele>
        <time>2020-02-09T14:17:19Z</time>
      </trkpt>
      <trkpt lat="42.70531" lon="1.66355">
        <ele>1127.3</ele>
        <time>2020-02-09T14:17:35Z</time>
      </trkpt>
      <trkpt lat="42.70528" lon="1.6636">
        <ele>1126.4</ele>
        <time>2020-02-09T14:17:40Z</time>
      </trkpt>
      <trkpt lat="42.70527" lon="1.66364">
        <ele>1125.5</ele>
        <time>2020-02-09T14:17:43Z</time>
      </trkpt>
      <trkpt lat="42.70521" lon="1.66367">
        <ele>1124.2</ele>
        <time>2020-02-09T14:17:51Z</time>
      </trkpt>
      <trkpt lat="42.70515" lon="1.66368">
        <ele>1122.4</ele>
        <time>2020-02-09T14:18:01Z</time>
      </trkpt>
      <trkpt lat="42.70512" lon="1.66371">
        <ele>1121.5</ele>
        <time>2020-02-09T14:18:04Z</time>
      </trkpt>
      <trkpt lat="42.7051" lon="1.66374">
        <ele>1120.6</ele>
        <time>2020-02-09T14:18:13Z</time>
      </trkpt>
      <trkpt lat="42.70507" lon="1.66375">
        <ele>1119.8</ele>
        <time>2020-02-09T14:18:19Z</time>
      </trkpt>
      <trkpt lat="42.70507" lon="1.6638">
        <ele>1118.9</ele>
        <time>2020-02-09T14:18:33Z</time>
      </trkpt>
      <trkpt lat="42.70516" lon="1.6639">
        <ele>1115.9</ele>
        <time>2020-02-09T14:18:35Z</time>
      </trkpt>
      <trkpt lat="42.7052" lon="1.6639">
        <ele>1114.5</ele>
        <time>2020-02-09T14:18:39Z</time>
      </trkpt>
      <trkpt lat="42.70524" lon="1.66391">
        <ele>1113.4</ele>
        <time>2020-02-09T14:18:46Z</time>
      </trkpt>
      <trkpt lat="42.7053" lon="1.66391">
        <ele>1111.9</ele>
        <time>2020-02-09T14:18:49Z</time>
      </trkpt>
      <trkpt lat="42.70531" lon="1.66395">
        <ele>1111.4</ele>
        <time>2020-02-09T14:18:52Z</time>
      </trkpt>
      <trkpt lat="42.70533" lon="1.66403">
        <ele>1110.3</ele>
        <time>2020-02-09T14:18:59Z</time>
      </trkpt>
      <trkpt lat="42.70535" lon="1.66408">
        <ele>1109.4</ele>
        <time>2020-02-09T14:19:04Z</time>
      </trkpt>
      <trkpt lat="42.70536" lon="1.66412">
        <ele>1108.7</ele>
        <time>2020-02-09T14:19:07Z</time>
      </trkpt>
      <trkpt lat="42.70541" lon="1.66415">
        <ele>1107.6</ele>
        <time>2020-02-09T14:19:09Z</time>
      </trkpt>
      <trkpt lat="42.70546" lon="1.66415">
        <ele>1106.5</ele>
        <time>2020-02-09T14:19:15Z</time>
      </trkpt>
      <trkpt lat="42.70548" lon="1.66415">
        <ele>1106</ele>
        <time>2020-02-09T14:19:19Z</time>
      </trkpt>
      <trkpt lat="42.7055" lon="1.66415">
        <ele>1105.5</ele>
        <time>2020-02-09T14:19:25Z</time>
      </trkpt>
      <trkpt lat="42.70553" lon="1.66415">
        <ele>1105</ele>
        <time>2020-02-09T14:19:26Z</time>
      </trkpt>
      <trkpt lat="42.70556" lon="1.66414">
        <ele>1104.6</ele>
        <time>2020-02-09T14:19:34Z</time>
      </trkpt>
      <trkpt lat="42.70557" lon="1.66419">
        <ele>1104.4</ele>
        <time>2020-02-09T14:19:43Z</time>
      </trkpt>
      <trkpt lat="42.70553" lon="1.66428">
        <ele>1104.1</ele>
        <time>2020-02-09T14:19:49Z</time>
      </trkpt>
      <trkpt lat="42.70559" lon="1.66412">
        <ele>1102.6</ele>
        <time>2020-02-09T14:19:59Z</time>
      </trkpt>
      <trkpt lat="42.70562" lon="1.66411">
        <ele>1102.3</ele>
        <time>2020-02-09T14:20:13Z</time>
      </trkpt>
      <trkpt lat="42.70561" lon="1.66417">
        <ele>1101.8</ele>
        <time>2020-02-09T14:20:16Z</time>
      </trkpt>
      <trkpt lat="42.70563" lon="1.6642">
        <ele>1101.5</ele>
        <time>2020-02-09T14:20:34Z</time>
      </trkpt>
      <trkpt lat="42.70561" lon="1.66424">
        <ele>1101.2</ele>
        <time>2020-02-09T14:20:36Z</time>
      </trkpt>
      <trkpt lat="42.70559" lon="1.66428">
        <ele>1100.9</ele>
        <time>2020-02-09T14:20:38Z</time>
      </trkpt>
      <trkpt lat="42.7054" lon="1.66463">
        <ele>1100.4</ele>
        <time>2020-02-09T14:20:42Z</time>
      </trkpt>
      <trkpt lat="42.7054" lon="1.66467">
        <ele>1100.7</ele>
        <time>2020-02-09T14:20:44Z</time>
      </trkpt>
      <trkpt lat="42.70539" lon="1.66472">
        <ele>1101.1</ele>
        <time>2020-02-09T14:20:55Z</time>
      </trkpt>
      <trkpt lat="42.70535" lon="1.66478">
        <ele>1101.6</ele>
        <time>2020-02-09T14:20:57Z</time>
      </trkpt>
      <trkpt lat="42.70538" lon="1.66476">
        <ele>1101.9</ele>
        <time>2020-02-09T14:21:08Z</time>
      </trkpt>
      <trkpt lat="42.70535" lon="1.66471">
        <ele>1102.3</ele>
        <time>2020-02-09T14:21:13Z</time>
      </trkpt>
      <trkpt lat="42.70533" lon="1.66468">
        <ele>1102.7</ele>
        <time>2020-02-09T14:21:21Z</time>
      </trkpt>
      <trkpt lat="42.7053" lon="1.66471">
        <ele>1103.1</ele>
        <time>2020-02-09T14:21:33Z</time>
      </trkpt>
      <trkpt lat="42.70528" lon="1.66474">
        <ele>1103.5</ele>
        <time>2020-02-09T14:21:38Z</time>
      </trkpt>
      <trkpt lat="42.70517" lon="1.66482">
        <ele>1104.8</ele>
        <time>2020-02-09T14:21:42Z</time>
      </trkpt>
      <trkpt lat="42.70514" lon="1.66484">
        <ele>1105.1</ele>
        <time>2020-02-09T14:21:44Z</time>
      </trkpt>
      <trkpt lat="42.7051" lon="1.6649">
        <ele>1104.9</ele>
        <time>2020-02-09T14:21:48Z</time>
      </trkpt>
      <trkpt lat="42.70508" lon="1.66494">
        <ele>1104.8</ele>
        <time>2020-02-09T14:21:52Z</time>
      </trkpt>
      <trkpt lat="42.70506" lon="1.66497">
        <ele>1104.7</ele>
        <time>2020-02-09T14:21:54Z</time>
      </trkpt>
      <trkpt lat="42.70505" lon="1.66501">
        <ele>1104.6</ele>
        <time>2020-02-09T14:21:56Z</time>
      </trkpt>
      <trkpt lat="42.70504" lon="1.66504">
        <ele>1104.5</ele>
        <time>2020-02-09T14:21:57Z</time>
      </trkpt>
      <trkpt lat="42.70504" lon="1.66508">
        <ele>1104.5</ele>
        <time>2020-02-09T14:22:07Z</time>
      </trkpt>
      <trkpt lat="42.70504" lon="1.66512">
        <ele>1104.5</ele>
        <time>2020-02-09T14:22:18Z</time>
      </trkpt>
      <trkpt lat="42.70498" lon="1.66526">
        <ele>1104.5</ele>
        <time>2020-02-09T14:22:21Z</time>
      </trkpt>
      <trkpt lat="42.70497" lon="1.6653">
        <ele>1104.6</ele>
        <time>2020-02-09T14:22:27Z</time>
      </trkpt>
      <trkpt lat="42.70496" lon="1.66535">
        <ele>1104.7</ele>
        <time>2020-02-09T14:22:31Z</time>
      </trkpt>
      <trkpt lat="42.70495" lon="1.6654">
        <ele>1104.8</ele>
        <time>2020-02-09T14:22:35Z</time>
      </trkpt>
      <trkpt lat="42.70494" lon="1.66544">
        <ele>1104.8</ele>
        <time>2020-02-09T14:22:37Z</time>
      </trkpt>
      <trkpt lat="42.70494" lon="1.66549">
        <ele>1104.9</ele>
        <time>2020-02-09T14:22:39Z</time>
      </trkpt>
      <trkpt lat="42.70493" lon="1.66554">
        <ele>1105</ele>
        <time>2020-02-09T14:22:41Z</time>
      </trkpt>
      <trkpt lat="42.70491" lon="1.66562">
        <ele>1105.3</ele>
        <time>2020-02-09T14:22:44Z</time>
      </trkpt>
      <trkpt lat="42.70489" lon="1.66569">
        <ele>1105.5</ele>
        <time>2020-02-09T14:22:47Z</time>
      </trkpt>
      <trkpt lat="42.70481" lon="1.6658">
        <ele>1105.9</ele>
        <time>2020-02-09T14:22:49Z</time>
      </trkpt>
      <trkpt lat="42.70481" lon="1.66585">
        <ele>1106.1</ele>
        <time>2020-02-09T14:22:57Z</time>
      </trkpt>
      <trkpt lat="42.70481" lon="1.6659">
        <ele>1106.4</ele>
        <time>2020-02-09T14:23:01Z</time>
      </trkpt>
      <trkpt lat="42.70484" lon="1.66596">
        <ele>1106.6</ele>
        <time>2020-02-09T14:23:10Z</time>
      </trkpt>
      <trkpt lat="42.70482" lon="1.66605">
        <ele>1107</ele>
        <time>2020-02-09T14:23:12Z</time>
      </trkpt>
      <trkpt lat="42.70484" lon="1.6661">
        <ele>1107.3</ele>
        <time>2020-02-09T14:23:19Z</time>
      </trkpt>
      <trkpt lat="42.70484" lon="1.66615">
        <ele>1107.5</ele>
        <time>2020-02-09T14:23:23Z</time>
      </trkpt>
      <trkpt lat="42.70486" lon="1.66618">
        <ele>1107.7</ele>
        <time>2020-02-09T14:23:27Z</time>
      </trkpt>
      <trkpt lat="42.70487" lon="1.66622">
        <ele>1107.8</ele>
        <time>2020-02-09T14:23:30Z</time>
      </trkpt>
      <trkpt lat="42.7049" lon="1.66627">
        <ele>1108</ele>
        <time>2020-02-09T14:23:35Z</time>
      </trkpt>
      <trkpt lat="42.70491" lon="1.66636">
        <ele>1108.2</ele>
        <time>2020-02-09T14:23:39Z</time>
      </trkpt>
      <trkpt lat="42.70492" lon="1.6664">
        <ele>1108.3</ele>
        <time>2020-02-09T14:23:45Z</time>
      </trkpt>
      <trkpt lat="42.70486" lon="1.66647">
        <ele>1108.7</ele>
        <time>2020-02-09T14:23:47Z</time>
      </trkpt>
      <trkpt lat="42.70487" lon="1.66651">
        <ele>1108.9</ele>
        <time>2020-02-09T14:23:53Z</time>
      </trkpt>
      <trkpt lat="42.7049" lon="1.66653">
        <ele>1109</ele>
        <time>2020-02-09T14:23:56Z</time>
      </trkpt>
      <trkpt lat="42.70494" lon="1.66657">
        <ele>1109.3</ele>
        <time>2020-02-09T14:24:00Z</time>
      </trkpt>
      <trkpt lat="42.70492" lon="1.66669">
        <ele>1109.6</ele>
        <time>2020-02-09T14:24:02Z</time>
      </trkpt>
      <trkpt lat="42.70492" lon="1.66672">
        <ele>1109.7</ele>
        <time>2020-02-09T14:24:06Z</time>
      </trkpt>
      <trkpt lat="42.70493" lon="1.66676">
        <ele>1109.8</ele>
        <time>2020-02-09T14:24:10Z</time>
      </trkpt>
      <trkpt lat="42.70489" lon="1.66684">
        <ele>1109.9</ele>
        <time>2020-02-09T14:24:12Z</time>
      </trkpt>
      <trkpt lat="42.70489" lon="1.66688">
        <ele>1110</ele>
        <time>2020-02-09T14:24:18Z</time>
      </trkpt>
      <trkpt lat="42.7049" lon="1.66693">
        <ele>1110.1</ele>
        <time>2020-02-09T14:24:23Z</time>
      </trkpt>
      <trkpt lat="42.70494" lon="1.6669">
        <ele>1110.2</ele>
        <time>2020-02-09T14:24:27Z</time>
      </trkpt>
      <trkpt lat="42.70497" lon="1.66687">
        <ele>1110.3</ele>
        <time>2020-02-09T14:24:29Z</time>
      </trkpt>
      <trkpt lat="42.705" lon="1.66684">
        <ele>1110.4</ele>
        <time>2020-02-09T14:24:31Z</time>
      </trkpt>
      <trkpt lat="42.70503" lon="1.66679">
        <ele>1110.5</ele>
        <time>2020-02-09T14:24:33Z</time>
      </trkpt>
      <trkpt lat="42.70507" lon="1.66675">
        <ele>1111</ele>
        <time>2020-02-09T14:24:35Z</time>
      </trkpt>
      <trkpt lat="42.70524" lon="1.66656">
        <ele>1110.2</ele>
        <time>2020-02-09T14:24:37Z</time>
      </trkpt>
      <trkpt lat="42.70527" lon="1.66651">
        <ele>1109.9</ele>
        <time>2020-02-09T14:24:44Z</time>
      </trkpt>
      <trkpt lat="42.70529" lon="1.66647">
        <ele>1109.8</ele>
        <time>2020-02-09T14:24:47Z</time>
      </trkpt>
      <trkpt lat="42.7053" lon="1.66643">
        <ele>1109.6</ele>
        <time>2020-02-09T14:24:51Z</time>
      </trkpt>
      <trkpt lat="42.70533" lon="1.66639">
        <ele>1109.4</ele>
        <time>2020-02-09T14:24:55Z</time>
      </trkpt>
      <trkpt lat="42.70536" lon="1.66635">
        <ele>1109.2</ele>
        <time>2020-02-09T14:24:59Z</time>
      </trkpt>
      <trkpt lat="42.70538" lon="1.66633">
        <ele>1109</ele>
        <time>2020-02-09T14:25:02Z</time>
      </trkpt>
      <trkpt lat="42.70541" lon="1.66628">
        <ele>1108.8</ele>
        <time>2020-02-09T14:25:06Z</time>
      </trkpt>
      <trkpt lat="42.70543" lon="1.66625">
        <ele>1108.8</ele>
        <time>2020-02-09T14:25:08Z</time>
      </trkpt>
      <trkpt lat="42.70542" lon="1.66617">
        <ele>1108.6</ele>
        <time>2020-02-09T14:25:13Z</time>
      </trkpt>
      <trkpt lat="42.70545" lon="1.66612">
        <ele>1108.5</ele>
        <time>2020-02-09T14:25:19Z</time>
      </trkpt>
      <trkpt lat="42.70547" lon="1.66609">
        <ele>1108.5</ele>
        <time>2020-02-09T14:25:21Z</time>
      </trkpt>
      <trkpt lat="42.7055" lon="1.66606">
        <ele>1108.4</ele>
        <time>2020-02-09T14:25:23Z</time>
      </trkpt>
      <trkpt lat="42.70553" lon="1.66603">
        <ele>1108.3</ele>
        <time>2020-02-09T14:25:25Z</time>
      </trkpt>
      <trkpt lat="42.70555" lon="1.66599">
        <ele>1108.2</ele>
        <time>2020-02-09T14:25:27Z</time>
      </trkpt>
      <trkpt lat="42.70558" lon="1.66595">
        <ele>1108.2</ele>
        <time>2020-02-09T14:25:30Z</time>
      </trkpt>
      <trkpt lat="42.70561" lon="1.66592">
        <ele>1108.1</ele>
        <time>2020-02-09T14:25:33Z</time>
      </trkpt>
      <trkpt lat="42.70569" lon="1.66591">
        <ele>1108.1</ele>
        <time>2020-02-09T14:25:36Z</time>
      </trkpt>
      <trkpt lat="42.70574" lon="1.66586">
        <ele>1108</ele>
        <time>2020-02-09T14:25:54Z</time>
      </trkpt>
      <trkpt lat="42.70577" lon="1.66583">
        <ele>1108</ele>
        <time>2020-02-09T14:26:00Z</time>
      </trkpt>
      <trkpt lat="42.70579" lon="1.6658">
        <ele>1107.9</ele>
        <time>2020-02-09T14:26:02Z</time>
      </trkpt>
      <trkpt lat="42.70582" lon="1.66577">
        <ele>1107.9</ele>
        <time>2020-02-09T14:26:04Z</time>
      </trkpt>
      <trkpt lat="42.70585" lon="1.66574">
        <ele>1107.8</ele>
        <time>2020-02-09T14:26:06Z</time>
      </trkpt>
      <trkpt lat="42.70588" lon="1.66571">
        <ele>1107.8</ele>
        <time>2020-02-09T14:26:09Z</time>
      </trkpt>
      <trkpt lat="42.7059" lon="1.66568">
        <ele>1107.7</ele>
        <time>2020-02-09T14:26:13Z</time>
      </trkpt>
      <trkpt lat="42.70593" lon="1.66564">
        <ele>1107.7</ele>
        <time>2020-02-09T14:26:17Z</time>
      </trkpt>
      <trkpt lat="42.70596" lon="1.66561">
        <ele>1107.6</ele>
        <time>2020-02-09T14:26:21Z</time>
      </trkpt>
      <trkpt lat="42.70599" lon="1.66558">
        <ele>1107.6</ele>
        <time>2020-02-09T14:26:25Z</time>
      </trkpt>
      <trkpt lat="42.70601" lon="1.66555">
        <ele>1107.5</ele>
        <time>2020-02-09T14:26:28Z</time>
      </trkpt>
      <trkpt lat="42.70604" lon="1.66552">
        <ele>1107.5</ele>
        <time>2020-02-09T14:26:31Z</time>
      </trkpt>
      <trkpt lat="42.70607" lon="1.66549">
        <ele>1107.5</ele>
        <time>2020-02-09T14:26:35Z</time>
      </trkpt>
      <trkpt lat="42.7061" lon="1.66546">
        <ele>1107.5</ele>
        <time>2020-02-09T14:26:37Z</time>
      </trkpt>
      <trkpt lat="42.70612" lon="1.66543">
        <ele>1107.4</ele>
        <time>2020-02-09T14:26:39Z</time>
      </trkpt>
      <trkpt lat="42.70615" lon="1.6654">
        <ele>1107.4</ele>
        <time>2020-02-09T14:26:40Z</time>
      </trkpt>
      <trkpt lat="42.70619" lon="1.66538">
        <ele>1107.4</ele>
        <time>2020-02-09T14:26:45Z</time>
      </trkpt>
      <trkpt lat="42.70622" lon="1.66536">
        <ele>1107.3</ele>
        <time>2020-02-09T14:26:47Z</time>
      </trkpt>
      <trkpt lat="42.70627" lon="1.66532">
        <ele>1107.3</ele>
        <time>2020-02-09T14:26:49Z</time>
      </trkpt>
      <trkpt lat="42.70632" lon="1.66529">
        <ele>1107.3</ele>
        <time>2020-02-09T14:26:51Z</time>
      </trkpt>
      <trkpt lat="42.70637" lon="1.66527">
        <ele>1107.2</ele>
        <time>2020-02-09T14:26:54Z</time>
      </trkpt>
      <trkpt lat="42.70642" lon="1.66527">
        <ele>1107.2</ele>
        <time>2020-02-09T14:26:58Z</time>
      </trkpt>
      <trkpt lat="42.70645" lon="1.66529">
        <ele>1107.1</ele>
        <time>2020-02-09T14:27:00Z</time>
      </trkpt>
      <trkpt lat="42.70648" lon="1.6653">
        <ele>1107.1</ele>
        <time>2020-02-09T14:27:02Z</time>
      </trkpt>
      <trkpt lat="42.70654" lon="1.6653">
        <ele>1107</ele>
        <time>2020-02-09T14:27:06Z</time>
      </trkpt>
      <trkpt lat="42.70656" lon="1.66529">
        <ele>1107</ele>
        <time>2020-02-09T14:27:08Z</time>
      </trkpt>
      <trkpt lat="42.70659" lon="1.66526">
        <ele>1107</ele>
        <time>2020-02-09T14:27:11Z</time>
      </trkpt>
      <trkpt lat="42.70661" lon="1.66523">
        <ele>1106.9</ele>
        <time>2020-02-09T14:27:13Z</time>
      </trkpt>
      <trkpt lat="42.70663" lon="1.6652">
        <ele>1106.9</ele>
        <time>2020-02-09T14:27:16Z</time>
      </trkpt>
      <trkpt lat="42.70666" lon="1.66516">
        <ele>1106.8</ele>
        <time>2020-02-09T14:27:22Z</time>
      </trkpt>
      <trkpt lat="42.70668" lon="1.66513">
        <ele>1106.8</ele>
        <time>2020-02-09T14:27:25Z</time>
      </trkpt>
      <trkpt lat="42.70671" lon="1.66512">
        <ele>1106.7</ele>
        <time>2020-02-09T14:27:27Z</time>
      </trkpt>
      <trkpt lat="42.70675" lon="1.66511">
        <ele>1106.7</ele>
        <time>2020-02-09T14:27:30Z</time>
      </trkpt>
      <trkpt lat="42.7068" lon="1.66509">
        <ele>1106.7</ele>
        <time>2020-02-09T14:27:32Z</time>
      </trkpt>
      <trkpt lat="42.70684" lon="1.66507">
        <ele>1106.6</ele>
        <time>2020-02-09T14:27:39Z</time>
      </trkpt>
      <trkpt lat="42.70689" lon="1.66507">
        <ele>1106.6</ele>
        <time>2020-02-09T14:27:43Z</time>
      </trkpt>
      <trkpt lat="42.70692" lon="1.66506">
        <ele>1106.5</ele>
        <time>2020-02-09T14:27:45Z</time>
      </trkpt>
      <trkpt lat="42.70695" lon="1.66506">
        <ele>1106.5</ele>
        <time>2020-02-09T14:27:47Z</time>
      </trkpt>
      <trkpt lat="42.70702" lon="1.66509">
        <ele>1106.4</ele>
        <time>2020-02-09T14:27:49Z</time>
      </trkpt>
      <trkpt lat="42.70707" lon="1.6651">
        <ele>1106.4</ele>
        <time>2020-02-09T14:27:53Z</time>
      </trkpt>
      <trkpt lat="42.70712" lon="1.66513">
        <ele>1106.3</ele>
        <time>2020-02-09T14:27:57Z</time>
      </trkpt>
      <trkpt lat="42.70715" lon="1.66511">
        <ele>1106.3</ele>
        <time>2020-02-09T14:28:01Z</time>
      </trkpt>
      <trkpt lat="42.7072" lon="1.66511">
        <ele>1106.2</ele>
        <time>2020-02-09T14:28:04Z</time>
      </trkpt>
      <trkpt lat="42.70724" lon="1.6651">
        <ele>1106.2</ele>
        <time>2020-02-09T14:28:11Z</time>
      </trkpt>
      <trkpt lat="42.70728" lon="1.66509">
        <ele>1106.1</ele>
        <time>2020-02-09T14:28:13Z</time>
      </trkpt>
      <trkpt lat="42.70732" lon="1.66506">
        <ele>1106.1</ele>
        <time>2020-02-09T14:28:15Z</time>
      </trkpt>
      <trkpt lat="42.70738" lon="1.66503">
        <ele>1106</ele>
        <time>2020-02-09T14:28:18Z</time>
      </trkpt>
      <trkpt lat="42.70743" lon="1.66497">
        <ele>1106</ele>
        <time>2020-02-09T14:28:20Z</time>
      </trkpt>
      <trkpt lat="42.70747" lon="1.66502">
        <ele>1105.9</ele>
        <time>2020-02-09T14:28:28Z</time>
      </trkpt>
      <trkpt lat="42.70749" lon="1.66505">
        <ele>1105.9</ele>
        <time>2020-02-09T14:28:30Z</time>
      </trkpt>
      <trkpt lat="42.70752" lon="1.66504">
        <ele>1105.8</ele>
        <time>2020-02-09T14:28:35Z</time>
      </trkpt>
      <trkpt lat="42.70755" lon="1.665">
        <ele>1105.8</ele>
        <time>2020-02-09T14:28:38Z</time>
      </trkpt>
      <trkpt lat="42.70757" lon="1.66498">
        <ele>1105.8</ele>
        <time>2020-02-09T14:28:40Z</time>
      </trkpt>
      <trkpt lat="42.70762" lon="1.66494">
        <ele>1105.7</ele>
        <time>2020-02-09T14:28:44Z</time>
      </trkpt>
      <trkpt lat="42.70764" lon="1.66493">
        <ele>1105.7</ele>
        <time>2020-02-09T14:28:46Z</time>
      </trkpt>
      <trkpt lat="42.70767" lon="1.66492">
        <ele>1105.7</ele>
        <time>2020-02-09T14:28:49Z</time>
      </trkpt>
      <trkpt lat="42.7077" lon="1.66496">
        <ele>1105.7</ele>
        <time>2020-02-09T14:28:53Z</time>
      </trkpt>
      <trkpt lat="42.70772" lon="1.66498">
        <ele>1105.6</ele>
        <time>2020-02-09T14:28:56Z</time>
      </trkpt>
      <trkpt lat="42.70771" lon="1.66503">
        <ele>1105.6</ele>
        <time>2020-02-09T14:29:03Z</time>
      </trkpt>
      <trkpt lat="42.70772" lon="1.66506">
        <ele>1105.6</ele>
        <time>2020-02-09T14:29:06Z</time>
      </trkpt>
      <trkpt lat="42.70775" lon="1.66511">
        <ele>1105.5</ele>
        <time>2020-02-09T14:29:11Z</time>
      </trkpt>
      <trkpt lat="42.70776" lon="1.66515">
        <ele>1105.5</ele>
        <time>2020-02-09T14:29:14Z</time>
      </trkpt>
      <trkpt lat="42.70777" lon="1.66518">
        <ele>1105.5</ele>
        <time>2020-02-09T14:29:18Z</time>
      </trkpt>
      <trkpt lat="42.70778" lon="1.66525">
        <ele>1105.4</ele>
        <time>2020-02-09T14:29:23Z</time>
      </trkpt>
      <trkpt lat="42.70778" lon="1.6653">
        <ele>1105.3</ele>
        <time>2020-02-09T14:29:25Z</time>
      </trkpt>
      <trkpt lat="42.70778" lon="1.66534">
        <ele>1105.3</ele>
        <time>2020-02-09T14:29:27Z</time>
      </trkpt>
      <trkpt lat="42.7078" lon="1.66538">
        <ele>1105.3</ele>
        <time>2020-02-09T14:29:30Z</time>
      </trkpt>
      <trkpt lat="42.70781" lon="1.66543">
        <ele>1105.2</ele>
        <time>2020-02-09T14:29:34Z</time>
      </trkpt>
      <trkpt lat="42.70782" lon="1.66548">
        <ele>1105.2</ele>
        <time>2020-02-09T14:29:37Z</time>
      </trkpt>
      <trkpt lat="42.70785" lon="1.66552">
        <ele>1105.2</ele>
        <time>2020-02-09T14:29:40Z</time>
      </trkpt>
      <trkpt lat="42.70789" lon="1.66557">
        <ele>1105.1</ele>
        <time>2020-02-09T14:29:44Z</time>
      </trkpt>
      <trkpt lat="42.70794" lon="1.6656">
        <ele>1105</ele>
        <time>2020-02-09T14:29:47Z</time>
      </trkpt>
      <trkpt lat="42.70797" lon="1.66561">
        <ele>1105</ele>
        <time>2020-02-09T14:29:49Z</time>
      </trkpt>
      <trkpt lat="42.708" lon="1.66565">
        <ele>1104.9</ele>
        <time>2020-02-09T14:29:53Z</time>
      </trkpt>
      <trkpt lat="42.70803" lon="1.66568">
        <ele>1104.9</ele>
        <time>2020-02-09T14:29:57Z</time>
      </trkpt>
      <trkpt lat="42.70808" lon="1.66568">
        <ele>1104.9</ele>
        <time>2020-02-09T14:30:00Z</time>
      </trkpt>
      <trkpt lat="42.70811" lon="1.66569">
        <ele>1104.8</ele>
        <time>2020-02-09T14:30:02Z</time>
      </trkpt>
      <trkpt lat="42.70814" lon="1.66569">
        <ele>1104.8</ele>
        <time>2020-02-09T14:30:05Z</time>
      </trkpt>
      <trkpt lat="42.70816" lon="1.66572">
        <ele>1104.8</ele>
        <time>2020-02-09T14:30:10Z</time>
      </trkpt>
      <trkpt lat="42.70818" lon="1.66575">
        <ele>1104.7</ele>
        <time>2020-02-09T14:30:14Z</time>
      </trkpt>
      <trkpt lat="42.70821" lon="1.66578">
        <ele>1104.7</ele>
        <time>2020-02-09T14:30:18Z</time>
      </trkpt>
      <trkpt lat="42.70823" lon="1.66579">
        <ele>1104.7</ele>
        <time>2020-02-09T14:30:21Z</time>
      </trkpt>
      <trkpt lat="42.70829" lon="1.66581">
        <ele>1104.6</ele>
        <time>2020-02-09T14:30:25Z</time>
      </trkpt>
      <trkpt lat="42.70831" lon="1.66583">
        <ele>1104.6</ele>
        <time>2020-02-09T14:30:27Z</time>
      </trkpt>
      <trkpt lat="42.70835" lon="1.66586">
        <ele>1104.5</ele>
        <time>2020-02-09T14:30:31Z</time>
      </trkpt>
      <trkpt lat="42.70839" lon="1.66589">
        <ele>1104.5</ele>
        <time>2020-02-09T14:30:34Z</time>
      </trkpt>
      <trkpt lat="42.70841" lon="1.66591">
        <ele>1104.5</ele>
        <time>2020-02-09T14:30:36Z</time>
      </trkpt>
      <trkpt lat="42.70844" lon="1.66595">
        <ele>1104.4</ele>
        <time>2020-02-09T14:30:40Z</time>
      </trkpt>
      <trkpt lat="42.70848" lon="1.66598">
        <ele>1104.4</ele>
        <time>2020-02-09T14:30:42Z</time>
      </trkpt>
      <trkpt lat="42.70852" lon="1.66599">
        <ele>1104.4</ele>
        <time>2020-02-09T14:30:50Z</time>
      </trkpt>
      <trkpt lat="42.70856" lon="1.66599">
        <ele>1104.3</ele>
        <time>2020-02-09T14:30:55Z</time>
      </trkpt>
      <trkpt lat="42.70862" lon="1.66599">
        <ele>1104.3</ele>
        <time>2020-02-09T14:30:59Z</time>
      </trkpt>
      <trkpt lat="42.70865" lon="1.66599">
        <ele>1104.2</ele>
        <time>2020-02-09T14:31:01Z</time>
      </trkpt>
      <trkpt lat="42.7087" lon="1.66598">
        <ele>1104.2</ele>
        <time>2020-02-09T14:31:04Z</time>
      </trkpt>
      <trkpt lat="42.70875" lon="1.66597">
        <ele>1104.1</ele>
        <time>2020-02-09T14:31:07Z</time>
      </trkpt>
      <trkpt lat="42.70878" lon="1.66596">
        <ele>1104.1</ele>
        <time>2020-02-09T14:31:10Z</time>
      </trkpt>
      <trkpt lat="42.70881" lon="1.66595">
        <ele>1104</ele>
        <time>2020-02-09T14:31:13Z</time>
      </trkpt>
      <trkpt lat="42.70885" lon="1.6659">
        <ele>1104</ele>
        <time>2020-02-09T14:31:17Z</time>
      </trkpt>
      <trkpt lat="42.70887" lon="1.66587">
        <ele>1104</ele>
        <time>2020-02-09T14:31:19Z</time>
      </trkpt>
      <trkpt lat="42.70888" lon="1.66583">
        <ele>1103.9</ele>
        <time>2020-02-09T14:31:21Z</time>
      </trkpt>
      <trkpt lat="42.7089" lon="1.6658">
        <ele>1103.9</ele>
        <time>2020-02-09T14:31:23Z</time>
      </trkpt>
      <trkpt lat="42.70892" lon="1.66577">
        <ele>1103.9</ele>
        <time>2020-02-09T14:31:25Z</time>
      </trkpt>
      <trkpt lat="42.70895" lon="1.66574">
        <ele>1103.8</ele>
        <time>2020-02-09T14:31:28Z</time>
      </trkpt>
      <trkpt lat="42.70899" lon="1.66571">
        <ele>1103.8</ele>
        <time>2020-02-09T14:31:32Z</time>
      </trkpt>
      <trkpt lat="42.70902" lon="1.66568">
        <ele>1103.7</ele>
        <time>2020-02-09T14:31:37Z</time>
      </trkpt>
      <trkpt lat="42.70905" lon="1.66566">
        <ele>1103.7</ele>
        <time>2020-02-09T14:31:41Z</time>
      </trkpt>
      <trkpt lat="42.70908" lon="1.66566">
        <ele>1103.7</ele>
        <time>2020-02-09T14:31:49Z</time>
      </trkpt>
      <trkpt lat="42.70911" lon="1.66564">
        <ele>1103.6</ele>
        <time>2020-02-09T14:31:53Z</time>
      </trkpt>
      <trkpt lat="42.70913" lon="1.66565">
        <ele>1103.6</ele>
        <time>2020-02-09T14:32:00Z</time>
      </trkpt>
      <trkpt lat="42.70914" lon="1.66561">
        <ele>1103.6</ele>
        <time>2020-02-09T14:32:11Z</time>
      </trkpt>
      <trkpt lat="42.70916" lon="1.66557">
        <ele>1103.5</ele>
        <time>2020-02-09T14:32:15Z</time>
      </trkpt>
      <trkpt lat="42.70919" lon="1.66554">
        <ele>1103.5</ele>
        <time>2020-02-09T14:32:17Z</time>
      </trkpt>
      <trkpt lat="42.70922" lon="1.66552">
        <ele>1103.5</ele>
        <time>2020-02-09T14:32:19Z</time>
      </trkpt>
      <trkpt lat="42.70925" lon="1.66549">
        <ele>1103.4</ele>
        <time>2020-02-09T14:32:21Z</time>
      </trkpt>
      <trkpt lat="42.70927" lon="1.66546">
        <ele>1103.4</ele>
        <time>2020-02-09T14:32:23Z</time>
      </trkpt>
      <trkpt lat="42.7093" lon="1.66543">
        <ele>1103.4</ele>
        <time>2020-02-09T14:32:25Z</time>
      </trkpt>
      <trkpt lat="42.70933" lon="1.66539">
        <ele>1103.3</ele>
        <time>2020-02-09T14:32:27Z</time>
      </trkpt>
      <trkpt lat="42.70936" lon="1.66535">
        <ele>1103.3</ele>
        <time>2020-02-09T14:32:29Z</time>
      </trkpt>
      <trkpt lat="42.70945" lon="1.66524">
        <ele>1103.1</ele>
        <time>2020-02-09T14:32:32Z</time>
      </trkpt>
      <trkpt lat="42.7095" lon="1.66524">
        <ele>1103.1</ele>
        <time>2020-02-09T14:32:40Z</time>
      </trkpt>
      <trkpt lat="42.70954" lon="1.66523">
        <ele>1103</ele>
        <time>2020-02-09T14:32:43Z</time>
      </trkpt>
      <trkpt lat="42.70957" lon="1.66522">
        <ele>1103</ele>
        <time>2020-02-09T14:32:50Z</time>
      </trkpt>
      <trkpt lat="42.70961" lon="1.66521">
        <ele>1103</ele>
        <time>2020-02-09T14:32:52Z</time>
      </trkpt>
      <trkpt lat="42.70964" lon="1.6652">
        <ele>1102.9</ele>
        <time>2020-02-09T14:32:54Z</time>
      </trkpt>
      <trkpt lat="42.70968" lon="1.66519">
        <ele>1102.9</ele>
        <time>2020-02-09T14:32:56Z</time>
      </trkpt>
      <trkpt lat="42.70971" lon="1.66518">
        <ele>1102.9</ele>
        <time>2020-02-09T14:32:59Z</time>
      </trkpt>
      <trkpt lat="42.70974" lon="1.66517">
        <ele>1102.9</ele>
        <time>2020-02-09T14:33:02Z</time>
      </trkpt>
      <trkpt lat="42.70978" lon="1.66516">
        <ele>1102.8</ele>
        <time>2020-02-09T14:33:06Z</time>
      </trkpt>
      <trkpt lat="42.70981" lon="1.66515">
        <ele>1102.8</ele>
        <time>2020-02-09T14:33:07Z</time>
      </trkpt>
      <trkpt lat="42.70984" lon="1.66515">
        <ele>1102.7</ele>
        <time>2020-02-09T14:33:12Z</time>
      </trkpt>
      <trkpt lat="42.70987" lon="1.66514">
        <ele>1102.7</ele>
        <time>2020-02-09T14:33:14Z</time>
      </trkpt>
      <trkpt lat="42.70991" lon="1.66512">
        <ele>1102.6</ele>
        <time>2020-02-09T14:33:16Z</time>
      </trkpt>
      <trkpt lat="42.70996" lon="1.6651">
        <ele>1102.6</ele>
        <time>2020-02-09T14:33:19Z</time>
      </trkpt>
      <trkpt lat="42.71" lon="1.66509">
        <ele>1102.5</ele>
        <time>2020-02-09T14:33:21Z</time>
      </trkpt>
      <trkpt lat="42.71007" lon="1.66509">
        <ele>1102.5</ele>
        <time>2020-02-09T14:33:24Z</time>
      </trkpt>
      <trkpt lat="42.71013" lon="1.66507">
        <ele>1102.4</ele>
        <time>2020-02-09T14:33:27Z</time>
      </trkpt>
      <trkpt lat="42.71016" lon="1.66506">
        <ele>1102.4</ele>
        <time>2020-02-09T14:33:29Z</time>
      </trkpt>
      <trkpt lat="42.71019" lon="1.66505">
        <ele>1102.3</ele>
        <time>2020-02-09T14:33:33Z</time>
      </trkpt>
      <trkpt lat="42.7101" lon="1.66514">
        <ele>1102.2</ele>
        <time>2020-02-09T14:33:41Z</time>
      </trkpt>
      <trkpt lat="42.71015" lon="1.66513">
        <ele>1102.2</ele>
        <time>2020-02-09T14:33:49Z</time>
      </trkpt>
      <trkpt lat="42.71018" lon="1.66512">
        <ele>1102.1</ele>
        <time>2020-02-09T14:33:51Z</time>
      </trkpt>
      <trkpt lat="42.71021" lon="1.66511">
        <ele>1102.1</ele>
        <time>2020-02-09T14:33:53Z</time>
      </trkpt>
      <trkpt lat="42.71028" lon="1.6651">
        <ele>1102.1</ele>
        <time>2020-02-09T14:33:56Z</time>
      </trkpt>
      <trkpt lat="42.71031" lon="1.6651">
        <ele>1102</ele>
        <time>2020-02-09T14:33:57Z</time>
      </trkpt>
      <trkpt lat="42.71037" lon="1.66508">
        <ele>1102</ele>
        <time>2020-02-09T14:33:59Z</time>
      </trkpt>
      <trkpt lat="42.71043" lon="1.66504">
        <ele>1101.9</ele>
        <time>2020-02-09T14:34:01Z</time>
      </trkpt>
      <trkpt lat="42.71045" lon="1.66502">
        <ele>1101.9</ele>
        <time>2020-02-09T14:34:02Z</time>
      </trkpt>
      <trkpt lat="42.71048" lon="1.665">
        <ele>1101.9</ele>
        <time>2020-02-09T14:34:03Z</time>
      </trkpt>
      <trkpt lat="42.71051" lon="1.66498">
        <ele>1101.8</ele>
        <time>2020-02-09T14:34:04Z</time>
      </trkpt>
      <trkpt lat="42.71055" lon="1.66494">
        <ele>1101.7</ele>
        <time>2020-02-09T14:34:06Z</time>
      </trkpt>
      <trkpt lat="42.7106" lon="1.6649">
        <ele>1101.7</ele>
        <time>2020-02-09T14:34:08Z</time>
      </trkpt>
      <trkpt lat="42.71086" lon="1.6647">
        <ele>1101.4</ele>
        <time>2020-02-09T14:34:10Z</time>
      </trkpt>
      <trkpt lat="42.71083" lon="1.66474">
        <ele>1101.4</ele>
        <time>2020-02-09T14:34:18Z</time>
      </trkpt>
      <trkpt lat="42.7108" lon="1.66478">
        <ele>1101.4</ele>
        <time>2020-02-09T14:34:34Z</time>
      </trkpt>
      <trkpt lat="42.71075" lon="1.66482">
        <ele>1101.3</ele>
        <time>2020-02-09T14:34:37Z</time>
      </trkpt>
      <trkpt lat="42.71071" lon="1.66483">
        <ele>1101.3</ele>
        <time>2020-02-09T14:34:41Z</time>
      </trkpt>
      <trkpt lat="42.71068" lon="1.66483">
        <ele>1101.3</ele>
        <time>2020-02-09T14:34:43Z</time>
      </trkpt>
      <trkpt lat="42.71064" lon="1.66483">
        <ele>1101.3</ele>
        <time>2020-02-09T14:34:45Z</time>
      </trkpt>
      <trkpt lat="42.71058" lon="1.66482">
        <ele>1101.3</ele>
        <time>2020-02-09T14:34:47Z</time>
      </trkpt>
      <trkpt lat="42.71052" lon="1.66481">
        <ele>1101.3</ele>
        <time>2020-02-09T14:34:49Z</time>
      </trkpt>
      <trkpt lat="42.71046" lon="1.66483">
        <ele>1101.3</ele>
        <time>2020-02-09T14:34:51Z</time>
      </trkpt>
      <trkpt lat="42.71039" lon="1.66486">
        <ele>1101.4</ele>
        <time>2020-02-09T14:34:54Z</time>
      </trkpt>
      <trkpt lat="42.7102" lon="1.66497">
        <ele>1101.8</ele>
        <time>2020-02-09T14:34:56Z</time>
      </trkpt>
      <trkpt lat="42.71018" lon="1.66501">
        <ele>1101.9</ele>
        <time>2020-02-09T14:34:59Z</time>
      </trkpt>
      <trkpt lat="42.71017" lon="1.66498">
        <ele>1101.9</ele>
        <time>2020-02-09T14:35:15Z</time>
      </trkpt>
      <trkpt lat="42.71014" lon="1.665">
        <ele>1101.9</ele>
        <time>2020-02-09T14:35:19Z</time>
      </trkpt>
      <trkpt lat="42.71038" lon="1.66488">
        <ele>1102.1</ele>
        <time>2020-02-09T14:35:26Z</time>
      </trkpt>
      <trkpt lat="42.71041" lon="1.66486">
        <ele>1102.1</ele>
        <time>2020-02-09T14:35:29Z</time>
      </trkpt>
      <trkpt lat="42.71035" lon="1.66491">
        <ele>1102.1</ele>
        <time>2020-02-09T14:35:50Z</time>
      </trkpt>
      <trkpt lat="42.71031" lon="1.66492">
        <ele>1102.1</ele>
        <time>2020-02-09T14:36:00Z</time>
      </trkpt>
      <trkpt lat="42.71094" lon="1.66563">
        <ele>1099.8</ele>
        <time>2020-02-09T14:54:30Z</time>
      </trkpt>
      <trkpt lat="42.71098" lon="1.66564">
        <ele>1099.6</ele>
        <time>2020-02-09T14:54:31Z</time>
      </trkpt>
      <trkpt lat="42.71089" lon="1.66562">
        <ele>1099.2</ele>
        <time>2020-02-09T14:54:32Z</time>
      </trkpt>
      <trkpt lat="42.71098" lon="1.66561">
        <ele>1098.6</ele>
        <time>2020-02-09T14:54:33Z</time>
      </trkpt>
      <trkpt lat="42.71105" lon="1.6656">
        <ele>1098.1</ele>
        <time>2020-02-09T14:54:36Z</time>
      </trkpt>
      <trkpt lat="42.71101" lon="1.66567">
        <ele>1097.7</ele>
        <time>2020-02-09T14:54:38Z</time>
      </trkpt>
      <trkpt lat="42.71103" lon="1.6657">
        <ele>1097.4</ele>
        <time>2020-02-09T14:54:41Z</time>
      </trkpt>
      <trkpt lat="42.71106" lon="1.66571">
        <ele>1097.2</ele>
        <time>2020-02-09T14:54:49Z</time>
      </trkpt>
      <trkpt lat="42.71109" lon="1.66571">
        <ele>1097.1</ele>
        <time>2020-02-09T14:54:52Z</time>
      </trkpt>
      <trkpt lat="42.71113" lon="1.6657">
        <ele>1096.8</ele>
        <time>2020-02-09T14:54:53Z</time>
      </trkpt>
      <trkpt lat="42.71116" lon="1.66569">
        <ele>1096.6</ele>
        <time>2020-02-09T14:54:56Z</time>
      </trkpt>
      <trkpt lat="42.71129" lon="1.66565">
        <ele>1095.4</ele>
        <time>2020-02-09T14:55:01Z</time>
      </trkpt>
      <trkpt lat="42.71132" lon="1.66565">
        <ele>1095</ele>
        <time>2020-02-09T14:55:05Z</time>
      </trkpt>
      <trkpt lat="42.71143" lon="1.66565">
        <ele>1093.8</ele>
        <time>2020-02-09T14:55:09Z</time>
      </trkpt>
      <trkpt lat="42.71148" lon="1.66564">
        <ele>1093.3</ele>
        <time>2020-02-09T14:55:14Z</time>
      </trkpt>
      <trkpt lat="42.71151" lon="1.66565">
        <ele>1092.8</ele>
        <time>2020-02-09T14:55:18Z</time>
      </trkpt>
      <trkpt lat="42.71159" lon="1.66568">
        <ele>1091.9</ele>
        <time>2020-02-09T14:55:21Z</time>
      </trkpt>
      <trkpt lat="42.71165" lon="1.66571">
        <ele>1091.3</ele>
        <time>2020-02-09T14:55:26Z</time>
      </trkpt>
      <trkpt lat="42.71169" lon="1.66569">
        <ele>1090.9</ele>
        <time>2020-02-09T14:55:33Z</time>
      </trkpt>
      <trkpt lat="42.7117" lon="1.66566">
        <ele>1090.6</ele>
        <time>2020-02-09T14:55:36Z</time>
      </trkpt>
      <trkpt lat="42.71173" lon="1.66562">
        <ele>1090.2</ele>
        <time>2020-02-09T14:55:44Z</time>
      </trkpt>
      <trkpt lat="42.71175" lon="1.66559">
        <ele>1089.9</ele>
        <time>2020-02-09T14:55:47Z</time>
      </trkpt>
      <trkpt lat="42.71175" lon="1.66555">
        <ele>1089.7</ele>
        <time>2020-02-09T14:55:51Z</time>
      </trkpt>
      <trkpt lat="42.71171" lon="1.66555">
        <ele>1089.4</ele>
        <time>2020-02-09T14:55:56Z</time>
      </trkpt>
      <trkpt lat="42.71168" lon="1.66552">
        <ele>1089.2</ele>
        <time>2020-02-09T14:56:08Z</time>
      </trkpt>
      <trkpt lat="42.7116" lon="1.66547">
        <ele>1088.3</ele>
        <time>2020-02-09T14:56:13Z</time>
      </trkpt>
      <trkpt lat="42.71157" lon="1.66544">
        <ele>1088</ele>
        <time>2020-02-09T14:56:18Z</time>
      </trkpt>
      <trkpt lat="42.71154" lon="1.66544">
        <ele>1087.6</ele>
        <time>2020-02-09T14:56:24Z</time>
      </trkpt>
      <trkpt lat="42.71147" lon="1.66544">
        <ele>1087.1</ele>
        <time>2020-02-09T14:56:27Z</time>
      </trkpt>
      <trkpt lat="42.71142" lon="1.66538">
        <ele>1086.5</ele>
        <time>2020-02-09T14:56:36Z</time>
      </trkpt>
      <trkpt lat="42.71139" lon="1.66535">
        <ele>1086.2</ele>
        <time>2020-02-09T14:56:42Z</time>
      </trkpt>
      <trkpt lat="42.71129" lon="1.66527">
        <ele>1084.9</ele>
        <time>2020-02-09T14:56:46Z</time>
      </trkpt>
      <trkpt lat="42.71126" lon="1.66525">
        <ele>1084.6</ele>
        <time>2020-02-09T14:56:51Z</time>
      </trkpt>
      <trkpt lat="42.71123" lon="1.66522">
        <ele>1084.2</ele>
        <time>2020-02-09T14:56:55Z</time>
      </trkpt>
      <trkpt lat="42.71121" lon="1.6652">
        <ele>1084</ele>
        <time>2020-02-09T14:56:57Z</time>
      </trkpt>
      <trkpt lat="42.71118" lon="1.66518">
        <ele>1083.7</ele>
        <time>2020-02-09T14:56:59Z</time>
      </trkpt>
      <trkpt lat="42.71114" lon="1.66516">
        <ele>1083.4</ele>
        <time>2020-02-09T14:57:01Z</time>
      </trkpt>
      <trkpt lat="42.71109" lon="1.66513">
        <ele>1082.8</ele>
        <time>2020-02-09T14:57:04Z</time>
      </trkpt>
      <trkpt lat="42.71107" lon="1.66511">
        <ele>1082.5</ele>
        <time>2020-02-09T14:57:06Z</time>
      </trkpt>
      <trkpt lat="42.71098" lon="1.66502">
        <ele>1081.4</ele>
        <time>2020-02-09T14:57:09Z</time>
      </trkpt>
      <trkpt lat="42.711" lon="1.66492">
        <ele>1080.6</ele>
        <time>2020-02-09T14:57:15Z</time>
      </trkpt>
      <trkpt lat="42.71102" lon="1.6649">
        <ele>1080.3</ele>
        <time>2020-02-09T14:57:17Z</time>
      </trkpt>
      <trkpt lat="42.71104" lon="1.66484">
        <ele>1079.8</ele>
        <time>2020-02-09T14:57:23Z</time>
      </trkpt>
      <trkpt lat="42.71107" lon="1.66481">
        <ele>1079.6</ele>
        <time>2020-02-09T14:57:26Z</time>
      </trkpt>
      <trkpt lat="42.71109" lon="1.66476">
        <ele>1079.4</ele>
        <time>2020-02-09T14:57:29Z</time>
      </trkpt>
      <trkpt lat="42.71113" lon="1.66469">
        <ele>1078.9</ele>
        <time>2020-02-09T14:57:34Z</time>
      </trkpt>
      <trkpt lat="42.71116" lon="1.66465">
        <ele>1078.6</ele>
        <time>2020-02-09T14:57:37Z</time>
      </trkpt>
      <trkpt lat="42.71118" lon="1.66462">
        <ele>1078.4</ele>
        <time>2020-02-09T14:57:43Z</time>
      </trkpt>
      <trkpt lat="42.71124" lon="1.66464">
        <ele>1077.8</ele>
        <time>2020-02-09T14:57:46Z</time>
      </trkpt>
      <trkpt lat="42.7113" lon="1.66464">
        <ele>1077.4</ele>
        <time>2020-02-09T14:57:49Z</time>
      </trkpt>
      <trkpt lat="42.71135" lon="1.66465">
        <ele>1077</ele>
        <time>2020-02-09T14:57:54Z</time>
      </trkpt>
      <trkpt lat="42.71139" lon="1.66468">
        <ele>1076.6</ele>
        <time>2020-02-09T14:57:58Z</time>
      </trkpt>
      <trkpt lat="42.71142" lon="1.66471">
        <ele>1076.3</ele>
        <time>2020-02-09T14:57:59Z</time>
      </trkpt>
      <trkpt lat="42.71149" lon="1.66477">
        <ele>1075.6</ele>
        <time>2020-02-09T14:58:05Z</time>
      </trkpt>
      <trkpt lat="42.71155" lon="1.66479">
        <ele>1074.9</ele>
        <time>2020-02-09T14:58:10Z</time>
      </trkpt>
      <trkpt lat="42.71159" lon="1.66481">
        <ele>1074.5</ele>
        <time>2020-02-09T14:58:14Z</time>
      </trkpt>
      <trkpt lat="42.71163" lon="1.66484">
        <ele>1074.1</ele>
        <time>2020-02-09T14:58:18Z</time>
      </trkpt>
      <trkpt lat="42.71166" lon="1.66486">
        <ele>1073.7</ele>
        <time>2020-02-09T14:58:21Z</time>
      </trkpt>
      <trkpt lat="42.71171" lon="1.66492">
        <ele>1073</ele>
        <time>2020-02-09T14:58:25Z</time>
      </trkpt>
      <trkpt lat="42.71175" lon="1.66493">
        <ele>1072.6</ele>
        <time>2020-02-09T14:58:30Z</time>
      </trkpt>
      <trkpt lat="42.71179" lon="1.66495">
        <ele>1072</ele>
        <time>2020-02-09T14:58:32Z</time>
      </trkpt>
      <trkpt lat="42.71182" lon="1.66496">
        <ele>1071.7</ele>
        <time>2020-02-09T14:58:36Z</time>
      </trkpt>
      <trkpt lat="42.71185" lon="1.66497">
        <ele>1071.3</ele>
        <time>2020-02-09T14:58:39Z</time>
      </trkpt>
      <trkpt lat="42.71191" lon="1.66496">
        <ele>1070.7</ele>
        <time>2020-02-09T14:58:41Z</time>
      </trkpt>
      <trkpt lat="42.71196" lon="1.66497">
        <ele>1070.2</ele>
        <time>2020-02-09T14:58:47Z</time>
      </trkpt>
      <trkpt lat="42.71201" lon="1.66498">
        <ele>1069.7</ele>
        <time>2020-02-09T14:58:52Z</time>
      </trkpt>
      <trkpt lat="42.71205" lon="1.66498">
        <ele>1069.3</ele>
        <time>2020-02-09T14:58:55Z</time>
      </trkpt>
      <trkpt lat="42.71209" lon="1.66498">
        <ele>1068.9</ele>
        <time>2020-02-09T14:58:57Z</time>
      </trkpt>
      <trkpt lat="42.71212" lon="1.66497">
        <ele>1068.6</ele>
        <time>2020-02-09T14:59:00Z</time>
      </trkpt>
      <trkpt lat="42.71219" lon="1.66496">
        <ele>1067.8</ele>
        <time>2020-02-09T14:59:02Z</time>
      </trkpt>
      <trkpt lat="42.71221" lon="1.66498">
        <ele>1067.4</ele>
        <time>2020-02-09T14:59:07Z</time>
      </trkpt>
      <trkpt lat="42.71226" lon="1.66505">
        <ele>1066.7</ele>
        <time>2020-02-09T14:59:11Z</time>
      </trkpt>
      <trkpt lat="42.71228" lon="1.66508">
        <ele>1066.4</ele>
        <time>2020-02-09T14:59:16Z</time>
      </trkpt>
      <trkpt lat="42.71232" lon="1.66514">
        <ele>1065.9</ele>
        <time>2020-02-09T14:59:19Z</time>
      </trkpt>
      <trkpt lat="42.71236" lon="1.66515">
        <ele>1065.5</ele>
        <time>2020-02-09T14:59:24Z</time>
      </trkpt>
      <trkpt lat="42.7124" lon="1.66517">
        <ele>1065.1</ele>
        <time>2020-02-09T14:59:26Z</time>
      </trkpt>
      <trkpt lat="42.71243" lon="1.66521">
        <ele>1064.7</ele>
        <time>2020-02-09T14:59:32Z</time>
      </trkpt>
      <trkpt lat="42.71246" lon="1.66522">
        <ele>1064.4</ele>
        <time>2020-02-09T14:59:36Z</time>
      </trkpt>
      <trkpt lat="42.71248" lon="1.66524">
        <ele>1064.1</ele>
        <time>2020-02-09T14:59:39Z</time>
      </trkpt>
      <trkpt lat="42.71251" lon="1.66525">
        <ele>1063.8</ele>
        <time>2020-02-09T14:59:44Z</time>
      </trkpt>
      <trkpt lat="42.71254" lon="1.66526">
        <ele>1063.4</ele>
        <time>2020-02-09T14:59:49Z</time>
      </trkpt>
      <trkpt lat="42.71257" lon="1.66528">
        <ele>1063.1</ele>
        <time>2020-02-09T14:59:54Z</time>
      </trkpt>
      <trkpt lat="42.71259" lon="1.6653">
        <ele>1062.8</ele>
        <time>2020-02-09T14:59:56Z</time>
      </trkpt>
      <trkpt lat="42.71262" lon="1.66532">
        <ele>1062.6</ele>
        <time>2020-02-09T15:00:01Z</time>
      </trkpt>
      <trkpt lat="42.71265" lon="1.66531">
        <ele>1062.3</ele>
        <time>2020-02-09T15:00:05Z</time>
      </trkpt>
      <trkpt lat="42.7127" lon="1.6653">
        <ele>1061.8</ele>
        <time>2020-02-09T15:00:07Z</time>
      </trkpt>
      <trkpt lat="42.71275" lon="1.66529">
        <ele>1061.4</ele>
        <time>2020-02-09T15:00:12Z</time>
      </trkpt>
      <trkpt lat="42.71283" lon="1.66531">
        <ele>1060.8</ele>
        <time>2020-02-09T15:00:15Z</time>
      </trkpt>
      <trkpt lat="42.71286" lon="1.66532">
        <ele>1060.5</ele>
        <time>2020-02-09T15:00:19Z</time>
      </trkpt>
      <trkpt lat="42.71291" lon="1.66533">
        <ele>1060</ele>
        <time>2020-02-09T15:00:23Z</time>
      </trkpt>
      <trkpt lat="42.713" lon="1.66532">
        <ele>1059.2</ele>
        <time>2020-02-09T15:00:26Z</time>
      </trkpt>
      <trkpt lat="42.71304" lon="1.66534">
        <ele>1058.9</ele>
        <time>2020-02-09T15:00:29Z</time>
      </trkpt>
      <trkpt lat="42.71306" lon="1.66536">
        <ele>1058.7</ele>
        <time>2020-02-09T15:00:31Z</time>
      </trkpt>
      <trkpt lat="42.71313" lon="1.66538">
        <ele>1058.1</ele>
        <time>2020-02-09T15:00:33Z</time>
      </trkpt>
      <trkpt lat="42.71316" lon="1.6654">
        <ele>1057.9</ele>
        <time>2020-02-09T15:00:36Z</time>
      </trkpt>
      <trkpt lat="42.71322" lon="1.66544">
        <ele>1057.3</ele>
        <time>2020-02-09T15:00:39Z</time>
      </trkpt>
      <trkpt lat="42.71325" lon="1.66547">
        <ele>1056.8</ele>
        <time>2020-02-09T15:00:46Z</time>
      </trkpt>
      <trkpt lat="42.71328" lon="1.66558">
        <ele>1056.1</ele>
        <time>2020-02-09T15:00:50Z</time>
      </trkpt>
      <trkpt lat="42.7133" lon="1.66562">
        <ele>1055.8</ele>
        <time>2020-02-09T15:00:55Z</time>
      </trkpt>
      <trkpt lat="42.71332" lon="1.66565">
        <ele>1055.6</ele>
        <time>2020-02-09T15:00:57Z</time>
      </trkpt>
      <trkpt lat="42.71336" lon="1.66568">
        <ele>1055.2</ele>
        <time>2020-02-09T15:01:01Z</time>
      </trkpt>
      <trkpt lat="42.71338" lon="1.6657">
        <ele>1054.9</ele>
        <time>2020-02-09T15:01:04Z</time>
      </trkpt>
      <trkpt lat="42.71342" lon="1.66571">
        <ele>1054.7</ele>
        <time>2020-02-09T15:01:07Z</time>
      </trkpt>
      <trkpt lat="42.71348" lon="1.66571">
        <ele>1054.3</ele>
        <time>2020-02-09T15:01:11Z</time>
      </trkpt>
      <trkpt lat="42.71351" lon="1.66571">
        <ele>1054.1</ele>
        <time>2020-02-09T15:01:15Z</time>
      </trkpt>
      <trkpt lat="42.7136" lon="1.66568">
        <ele>1053.5</ele>
        <time>2020-02-09T15:01:19Z</time>
      </trkpt>
      <trkpt lat="42.71366" lon="1.6657">
        <ele>1053.1</ele>
        <time>2020-02-09T15:01:25Z</time>
      </trkpt>
      <trkpt lat="42.71369" lon="1.66571">
        <ele>1053</ele>
        <time>2020-02-09T15:01:31Z</time>
      </trkpt>
      <trkpt lat="42.71369" lon="1.66575">
        <ele>1052.9</ele>
        <time>2020-02-09T15:01:49Z</time>
      </trkpt>
      <trkpt lat="42.71373" lon="1.66578">
        <ele>1052.7</ele>
        <time>2020-02-09T15:01:54Z</time>
      </trkpt>
      <trkpt lat="42.71376" lon="1.6658">
        <ele>1052.5</ele>
        <time>2020-02-09T15:01:57Z</time>
      </trkpt>
      <trkpt lat="42.7138" lon="1.66582">
        <ele>1052.3</ele>
        <time>2020-02-09T15:02:00Z</time>
      </trkpt>
      <trkpt lat="42.71385" lon="1.66582">
        <ele>1052</ele>
        <time>2020-02-09T15:02:03Z</time>
      </trkpt>
      <trkpt lat="42.71388" lon="1.66584">
        <ele>1051.9</ele>
        <time>2020-02-09T15:02:05Z</time>
      </trkpt>
      <trkpt lat="42.71392" lon="1.66585">
        <ele>1051.7</ele>
        <time>2020-02-09T15:02:07Z</time>
      </trkpt>
      <trkpt lat="42.71415" lon="1.66584">
        <ele>1050.4</ele>
        <time>2020-02-09T15:02:10Z</time>
      </trkpt>
      <trkpt lat="42.71418" lon="1.66585">
        <ele>1050.3</ele>
        <time>2020-02-09T15:02:18Z</time>
      </trkpt>
      <trkpt lat="42.71422" lon="1.66585">
        <ele>1050.1</ele>
        <time>2020-02-09T15:02:25Z</time>
      </trkpt>
      <trkpt lat="42.71425" lon="1.66582">
        <ele>1049.9</ele>
        <time>2020-02-09T15:02:29Z</time>
      </trkpt>
      <trkpt lat="42.71439" lon="1.66571">
        <ele>1049.2</ele>
        <time>2020-02-09T15:02:39Z</time>
      </trkpt>
      <trkpt lat="42.71442" lon="1.66567">
        <ele>1049.2</ele>
        <time>2020-02-09T15:02:42Z</time>
      </trkpt>
      <trkpt lat="42.71441" lon="1.66564">
        <ele>1049.2</ele>
        <time>2020-02-09T15:02:59Z</time>
      </trkpt>
      <trkpt lat="42.7144" lon="1.66561">
        <ele>1049.2</ele>
        <time>2020-02-09T15:03:10Z</time>
      </trkpt>
      <trkpt lat="42.71454" lon="1.66547">
        <ele>1050.9</ele>
        <time>2020-02-09T15:03:16Z</time>
      </trkpt>
      <trkpt lat="42.71466" lon="1.6654">
        <ele>1050.2</ele>
        <time>2020-02-09T15:03:25Z</time>
      </trkpt>
      <trkpt lat="42.7147" lon="1.66539">
        <ele>1050.1</ele>
        <time>2020-02-09T15:03:27Z</time>
      </trkpt>
      <trkpt lat="42.71472" lon="1.66536">
        <ele>1050</ele>
        <time>2020-02-09T15:03:36Z</time>
      </trkpt>
      <trkpt lat="42.71476" lon="1.66535">
        <ele>1049.9</ele>
        <time>2020-02-09T15:03:39Z</time>
      </trkpt>
      <trkpt lat="42.71501" lon="1.66526">
        <ele>1049.3</ele>
        <time>2020-02-09T15:03:42Z</time>
      </trkpt>
      <trkpt lat="42.71492" lon="1.66524">
        <ele>1049.1</ele>
        <time>2020-02-09T15:03:59Z</time>
      </trkpt>
      <trkpt lat="42.71489" lon="1.66524">
        <ele>1049.1</ele>
        <time>2020-02-09T15:04:03Z</time>
      </trkpt>
      <trkpt lat="42.71489" lon="1.66529">
        <ele>1049</ele>
        <time>2020-02-09T15:04:11Z</time>
      </trkpt>
      <trkpt lat="42.71491" lon="1.66526">
        <ele>1049</ele>
        <time>2020-02-09T15:12:47Z</time>
      </trkpt>
      <trkpt lat="42.71493" lon="1.66531">
        <ele>1048.9</ele>
        <time>2020-02-09T15:13:27Z</time>
      </trkpt>
      <trkpt lat="42.71494" lon="1.66534">
        <ele>1048.8</ele>
        <time>2020-02-09T15:13:45Z</time>
      </trkpt>
      <trkpt lat="42.71497" lon="1.66535">
        <ele>1048.8</ele>
        <time>2020-02-09T15:14:10Z</time>
      </trkpt>
      <trkpt lat="42.715" lon="1.66535">
        <ele>1048.7</ele>
        <time>2020-02-09T15:14:15Z</time>
      </trkpt>
      <trkpt lat="42.71503" lon="1.66535">
        <ele>1048.6</ele>
        <time>2020-02-09T15:14:49Z</time>
      </trkpt>
      <trkpt lat="42.71506" lon="1.66535">
        <ele>1048.6</ele>
        <time>2020-02-09T15:15:25Z</time>
      </trkpt>
      <trkpt lat="42.71509" lon="1.66536">
        <ele>1048.5</ele>
        <time>2020-02-09T15:15:42Z</time>
      </trkpt>
      <trkpt lat="42.71512" lon="1.66537">
        <ele>1048.4</ele>
        <time>2020-02-09T15:15:48Z</time>
      </trkpt>
      <trkpt lat="42.71516" lon="1.66533">
        <ele>1048.3</ele>
        <time>2020-02-09T15:15:50Z</time>
      </trkpt>
      <trkpt lat="42.71513" lon="1.66535">
        <ele>1048.2</ele>
        <time>2020-02-09T15:15:54Z</time>
      </trkpt>
      <trkpt lat="42.7151" lon="1.66539">
        <ele>1048.1</ele>
        <time>2020-02-09T15:15:58Z</time>
      </trkpt>
      <trkpt lat="42.71508" lon="1.6654">
        <ele>1048.1</ele>
        <time>2020-02-09T15:16:02Z</time>
      </trkpt>
      <trkpt lat="42.71505" lon="1.66541">
        <ele>1048</ele>
        <time>2020-02-09T15:16:08Z</time>
      </trkpt>
      <trkpt lat="42.71502" lon="1.66545">
        <ele>1047.9</ele>
        <time>2020-02-09T15:16:15Z</time>
      </trkpt>
      <trkpt lat="42.71506" lon="1.66543">
        <ele>1047.8</ele>
        <time>2020-02-09T15:16:29Z</time>
      </trkpt>
      <trkpt lat="42.71509" lon="1.66541">
        <ele>1047.8</ele>
        <time>2020-02-09T15:16:36Z</time>
      </trkpt>
      <trkpt lat="42.7151" lon="1.66537">
        <ele>1047.7</ele>
        <time>2020-02-09T15:16:38Z</time>
      </trkpt>
      <trkpt lat="42.71511" lon="1.66542">
        <ele>1047.7</ele>
        <time>2020-02-09T15:17:13Z</time>
      </trkpt>
      <trkpt lat="42.71513" lon="1.66539">
        <ele>1047.6</ele>
        <time>2020-02-09T15:17:29Z</time>
      </trkpt>
      <trkpt lat="42.7151" lon="1.66538">
        <ele>1047.6</ele>
        <time>2020-02-09T15:17:57Z</time>
      </trkpt>
      <trkpt lat="42.71511" lon="1.66534">
        <ele>1047.6</ele>
        <time>2020-02-09T15:18:15Z</time>
      </trkpt>
      <trkpt lat="42.71511" lon="1.66538">
        <ele>1047.6</ele>
        <time>2020-02-09T15:19:03Z</time>
      </trkpt>
      <trkpt lat="42.71514" lon="1.66536">
        <ele>1047.5</ele>
        <time>2020-02-09T15:19:43Z</time>
      </trkpt>
      <trkpt lat="42.71516" lon="1.66537">
        <ele>1047.5</ele>
        <time>2020-02-09T15:20:22Z</time>
      </trkpt>
      <trkpt lat="42.71519" lon="1.66536">
        <ele>1047.5</ele>
        <time>2020-02-09T15:20:40Z</time>
      </trkpt>
      <trkpt lat="42.71497" lon="1.66535">
        <ele>1047.3</ele>
        <time>2020-02-09T15:20:44Z</time>
      </trkpt>
      <trkpt lat="42.715" lon="1.66534">
        <ele>1047.3</ele>
        <time>2020-02-09T15:20:45Z</time>
      </trkpt>
      <trkpt lat="42.71498" lon="1.66538">
        <ele>1047.2</ele>
        <time>2020-02-09T15:20:50Z</time>
      </trkpt>
      <trkpt lat="42.71502" lon="1.66539">
        <ele>1047.2</ele>
        <time>2020-02-09T15:20:58Z</time>
      </trkpt>
      <trkpt lat="42.71505" lon="1.66541">
        <ele>1047.2</ele>
        <time>2020-02-09T15:21:06Z</time>
      </trkpt>
      <trkpt lat="42.71508" lon="1.66546">
        <ele>1047.2</ele>
        <time>2020-02-09T15:21:09Z</time>
      </trkpt>
      <trkpt lat="42.71512" lon="1.6655">
        <ele>1047.1</ele>
        <time>2020-02-09T15:21:11Z</time>
      </trkpt>
      <trkpt lat="42.71515" lon="1.66552">
        <ele>1047.1</ele>
        <time>2020-02-09T15:21:12Z</time>
      </trkpt>
      <trkpt lat="42.71519" lon="1.66553">
        <ele>1047.1</ele>
        <time>2020-02-09T15:21:13Z</time>
      </trkpt>
      <trkpt lat="42.71528" lon="1.66553">
        <ele>1047</ele>
        <time>2020-02-09T15:21:15Z</time>
      </trkpt>
      <trkpt lat="42.71538" lon="1.66555">
        <ele>1046.9</ele>
        <time>2020-02-09T15:21:17Z</time>
      </trkpt>
      <trkpt lat="42.7155" lon="1.66558">
        <ele>1046.8</ele>
        <time>2020-02-09T15:21:19Z</time>
      </trkpt>
      <trkpt lat="42.71563" lon="1.66564">
        <ele>1046.6</ele>
        <time>2020-02-09T15:21:21Z</time>
      </trkpt>
      <trkpt lat="42.71569" lon="1.66567">
        <ele>1046.6</ele>
        <time>2020-02-09T15:21:22Z</time>
      </trkpt>
      <trkpt lat="42.71578" lon="1.66574">
        <ele>1046.5</ele>
        <time>2020-02-09T15:21:24Z</time>
      </trkpt>
      <trkpt lat="42.71583" lon="1.66577">
        <ele>1046.4</ele>
        <time>2020-02-09T15:21:26Z</time>
      </trkpt>
      <trkpt lat="42.71587" lon="1.66581">
        <ele>1046.4</ele>
        <time>2020-02-09T15:21:29Z</time>
      </trkpt>
    </trkseg>
  </trk>
</gpx>